<?xml version="1.0" encoding="UTF-8" standalone="no" ?>
<gpx xmlns="http://www.topografix.com/GPX/1/1" xmlns:xsi="http://www.w3.org/2001/XMLSchema-instance" xsi:schemaLocation="http://www.topografix.com/GPX/1/1 http://www.topografix.com/GPX/1/1/gpx.xsd" version="1.1" creator="VisuGPX - https://www.visugpx.com">
  <metadata>
    <name>rando la force 21 km</name>
    <desc><![CDATA[les photos de la rando sont dispo en suivant le lien [url]https://rando-pedestre-33.over-blog.com/2022/04/rando-la-force-21-km.html[/url]]]></desc>
  </metadata>
  <trk>
    <name><![CDATA[rando la force 21 km]]></name>
    <trkseg>
      <trkpt lat="44.86843" lon="0.37156">
        <ele>62.6</ele>
        <time>2022-04-05T08:26:38Z</time>
      </trkpt>
      <trkpt lat="44.86843" lon="0.37154">
        <ele>62.6</ele>
        <time>2022-04-05T08:26:39Z</time>
      </trkpt>
      <trkpt lat="44.86844" lon="0.37153">
        <ele>62.6</ele>
        <time>2022-04-05T08:26:40Z</time>
      </trkpt>
      <trkpt lat="44.86844" lon="0.37152">
        <ele>62.6</ele>
        <time>2022-04-05T08:26:41Z</time>
      </trkpt>
      <trkpt lat="44.86844" lon="0.37152">
        <ele>62.6</ele>
        <time>2022-04-05T08:26:42Z</time>
      </trkpt>
      <trkpt lat="44.86844" lon="0.37152">
        <ele>62.6</ele>
        <time>2022-04-05T08:26:44Z</time>
      </trkpt>
      <trkpt lat="44.86844" lon="0.37152">
        <ele>62.6</ele>
        <time>2022-04-05T08:26:45Z</time>
      </trkpt>
      <trkpt lat="44.86844" lon="0.37152">
        <ele>62.6</ele>
        <time>2022-04-05T08:26:46Z</time>
      </trkpt>
      <trkpt lat="44.86844" lon="0.37152">
        <ele>62.6</ele>
        <time>2022-04-05T08:26:48Z</time>
      </trkpt>
      <trkpt lat="44.86844" lon="0.37152">
        <ele>62.6</ele>
        <time>2022-04-05T08:26:49Z</time>
      </trkpt>
      <trkpt lat="44.86844" lon="0.37152">
        <ele>62.6</ele>
        <time>2022-04-05T08:26:50Z</time>
      </trkpt>
      <trkpt lat="44.86844" lon="0.37152">
        <ele>62.6</ele>
        <time>2022-04-05T08:26:51Z</time>
      </trkpt>
      <trkpt lat="44.86844" lon="0.37152">
        <ele>62.6</ele>
        <time>2022-04-05T08:26:52Z</time>
      </trkpt>
      <trkpt lat="44.86844" lon="0.37152">
        <ele>62.6</ele>
        <time>2022-04-05T08:26:53Z</time>
      </trkpt>
      <trkpt lat="44.86844" lon="0.37152">
        <ele>62.6</ele>
        <time>2022-04-05T08:26:54Z</time>
      </trkpt>
      <trkpt lat="44.86844" lon="0.37152">
        <ele>62.6</ele>
        <time>2022-04-05T08:26:55Z</time>
      </trkpt>
      <trkpt lat="44.86844" lon="0.37152">
        <ele>62.6</ele>
        <time>2022-04-05T08:26:56Z</time>
      </trkpt>
      <trkpt lat="44.86844" lon="0.37152">
        <ele>62.6</ele>
        <time>2022-04-05T08:26:57Z</time>
      </trkpt>
      <trkpt lat="44.86844" lon="0.37152">
        <ele>62.6</ele>
        <time>2022-04-05T08:26:58Z</time>
      </trkpt>
      <trkpt lat="44.86844" lon="0.37152">
        <ele>62.6</ele>
        <time>2022-04-05T08:26:59Z</time>
      </trkpt>
      <trkpt lat="44.86844" lon="0.37152">
        <ele>62.6</ele>
        <time>2022-04-05T08:27:00Z</time>
      </trkpt>
      <trkpt lat="44.86844" lon="0.37152">
        <ele>62.6</ele>
        <time>2022-04-05T08:27:01Z</time>
      </trkpt>
      <trkpt lat="44.86844" lon="0.37152">
        <ele>62.6</ele>
        <time>2022-04-05T08:27:02Z</time>
      </trkpt>
      <trkpt lat="44.86844" lon="0.37152">
        <ele>62.6</ele>
        <time>2022-04-05T08:27:03Z</time>
      </trkpt>
      <trkpt lat="44.86844" lon="0.37152">
        <ele>62.6</ele>
        <time>2022-04-05T08:27:04Z</time>
      </trkpt>
      <trkpt lat="44.86844" lon="0.37152">
        <ele>62.6</ele>
        <time>2022-04-05T08:27:05Z</time>
      </trkpt>
      <trkpt lat="44.86845" lon="0.37152">
        <ele>62.6</ele>
        <time>2022-04-05T08:27:06Z</time>
      </trkpt>
      <trkpt lat="44.86844" lon="0.37152">
        <ele>62.6</ele>
        <time>2022-04-05T08:27:07Z</time>
      </trkpt>
      <trkpt lat="44.86844" lon="0.37152">
        <ele>62.6</ele>
        <time>2022-04-05T08:27:08Z</time>
      </trkpt>
      <trkpt lat="44.86844" lon="0.37152">
        <ele>62.6</ele>
        <time>2022-04-05T08:27:09Z</time>
      </trkpt>
      <trkpt lat="44.86844" lon="0.37152">
        <ele>62.6</ele>
        <time>2022-04-05T08:27:10Z</time>
      </trkpt>
      <trkpt lat="44.86844" lon="0.37152">
        <ele>62.6</ele>
        <time>2022-04-05T08:27:11Z</time>
      </trkpt>
      <trkpt lat="44.86844" lon="0.37152">
        <ele>62.6</ele>
        <time>2022-04-05T08:27:12Z</time>
      </trkpt>
      <trkpt lat="44.86844" lon="0.37152">
        <ele>62.6</ele>
        <time>2022-04-05T08:27:13Z</time>
      </trkpt>
      <trkpt lat="44.86844" lon="0.37152">
        <ele>62.6</ele>
        <time>2022-04-05T08:27:14Z</time>
      </trkpt>
      <trkpt lat="44.86844" lon="0.37152">
        <ele>62.6</ele>
        <time>2022-04-05T08:27:15Z</time>
      </trkpt>
      <trkpt lat="44.86844" lon="0.37152">
        <ele>62.6</ele>
        <time>2022-04-05T08:27:16Z</time>
      </trkpt>
      <trkpt lat="44.86844" lon="0.37152">
        <ele>62.6</ele>
        <time>2022-04-05T08:27:17Z</time>
      </trkpt>
      <trkpt lat="44.86844" lon="0.37152">
        <ele>62.6</ele>
        <time>2022-04-05T08:27:18Z</time>
      </trkpt>
      <trkpt lat="44.86844" lon="0.37152">
        <ele>62.6</ele>
        <time>2022-04-05T08:27:19Z</time>
      </trkpt>
      <trkpt lat="44.86844" lon="0.37152">
        <ele>62.6</ele>
        <time>2022-04-05T08:27:20Z</time>
      </trkpt>
      <trkpt lat="44.86844" lon="0.37152">
        <ele>62.6</ele>
        <time>2022-04-05T08:27:21Z</time>
      </trkpt>
      <trkpt lat="44.86845" lon="0.37152">
        <ele>62.6</ele>
        <time>2022-04-05T08:27:22Z</time>
      </trkpt>
      <trkpt lat="44.86845" lon="0.37152">
        <ele>62.6</ele>
        <time>2022-04-05T08:27:23Z</time>
      </trkpt>
      <trkpt lat="44.86845" lon="0.37152">
        <ele>62.6</ele>
        <time>2022-04-05T08:27:24Z</time>
      </trkpt>
      <trkpt lat="44.86845" lon="0.37152">
        <ele>62.6</ele>
        <time>2022-04-05T08:27:25Z</time>
      </trkpt>
      <trkpt lat="44.86845" lon="0.37152">
        <ele>62.6</ele>
        <time>2022-04-05T08:27:26Z</time>
      </trkpt>
      <trkpt lat="44.86845" lon="0.37152">
        <ele>62.6</ele>
        <time>2022-04-05T08:27:27Z</time>
      </trkpt>
      <trkpt lat="44.86845" lon="0.37152">
        <ele>62.6</ele>
        <time>2022-04-05T08:27:28Z</time>
      </trkpt>
      <trkpt lat="44.86845" lon="0.37152">
        <ele>62.6</ele>
        <time>2022-04-05T08:27:29Z</time>
      </trkpt>
      <trkpt lat="44.86845" lon="0.37152">
        <ele>62.6</ele>
        <time>2022-04-05T08:27:30Z</time>
      </trkpt>
      <trkpt lat="44.86845" lon="0.37152">
        <ele>62.6</ele>
        <time>2022-04-05T08:27:31Z</time>
      </trkpt>
      <trkpt lat="44.86845" lon="0.37152">
        <ele>62.6</ele>
        <time>2022-04-05T08:27:32Z</time>
      </trkpt>
      <trkpt lat="44.86845" lon="0.37152">
        <ele>62.6</ele>
        <time>2022-04-05T08:27:33Z</time>
      </trkpt>
      <trkpt lat="44.86845" lon="0.37152">
        <ele>62.6</ele>
        <time>2022-04-05T08:27:34Z</time>
      </trkpt>
      <trkpt lat="44.86845" lon="0.37152">
        <ele>62.6</ele>
        <time>2022-04-05T08:27:35Z</time>
      </trkpt>
      <trkpt lat="44.86845" lon="0.37151">
        <ele>62.6</ele>
        <time>2022-04-05T08:27:36Z</time>
      </trkpt>
      <trkpt lat="44.86845" lon="0.37151">
        <ele>62.6</ele>
        <time>2022-04-05T08:27:37Z</time>
      </trkpt>
      <trkpt lat="44.86845" lon="0.37151">
        <ele>62.6</ele>
        <time>2022-04-05T08:27:38Z</time>
      </trkpt>
      <trkpt lat="44.86845" lon="0.37151">
        <ele>62.6</ele>
        <time>2022-04-05T08:27:39Z</time>
      </trkpt>
      <trkpt lat="44.86845" lon="0.37151">
        <ele>62.6</ele>
        <time>2022-04-05T08:27:40Z</time>
      </trkpt>
      <trkpt lat="44.86845" lon="0.37151">
        <ele>62.6</ele>
        <time>2022-04-05T08:27:41Z</time>
      </trkpt>
      <trkpt lat="44.86845" lon="0.37151">
        <ele>62.6</ele>
        <time>2022-04-05T08:27:42Z</time>
      </trkpt>
      <trkpt lat="44.86845" lon="0.37151">
        <ele>62.6</ele>
        <time>2022-04-05T08:27:43Z</time>
      </trkpt>
      <trkpt lat="44.86845" lon="0.37151">
        <ele>62.6</ele>
        <time>2022-04-05T08:27:44Z</time>
      </trkpt>
      <trkpt lat="44.86845" lon="0.37151">
        <ele>62.6</ele>
        <time>2022-04-05T08:27:45Z</time>
      </trkpt>
      <trkpt lat="44.86845" lon="0.37151">
        <ele>62.6</ele>
        <time>2022-04-05T08:27:46Z</time>
      </trkpt>
      <trkpt lat="44.86845" lon="0.37151">
        <ele>62.6</ele>
        <time>2022-04-05T08:27:47Z</time>
      </trkpt>
      <trkpt lat="44.86845" lon="0.37151">
        <ele>62.6</ele>
        <time>2022-04-05T08:27:48Z</time>
      </trkpt>
      <trkpt lat="44.86845" lon="0.37151">
        <ele>62.6</ele>
        <time>2022-04-05T08:27:49Z</time>
      </trkpt>
      <trkpt lat="44.86845" lon="0.37151">
        <ele>62.6</ele>
        <time>2022-04-05T08:27:50Z</time>
      </trkpt>
      <trkpt lat="44.86845" lon="0.3715">
        <ele>62.6</ele>
        <time>2022-04-05T08:27:51Z</time>
      </trkpt>
      <trkpt lat="44.86846" lon="0.3715">
        <ele>62.6</ele>
        <time>2022-04-05T08:27:52Z</time>
      </trkpt>
      <trkpt lat="44.86846" lon="0.3715">
        <ele>62.6</ele>
        <time>2022-04-05T08:27:53Z</time>
      </trkpt>
      <trkpt lat="44.86846" lon="0.3715">
        <ele>62.6</ele>
        <time>2022-04-05T08:27:54Z</time>
      </trkpt>
      <trkpt lat="44.86846" lon="0.37151">
        <ele>62.6</ele>
        <time>2022-04-05T08:27:55Z</time>
      </trkpt>
      <trkpt lat="44.86846" lon="0.37151">
        <ele>62.6</ele>
        <time>2022-04-05T08:27:56Z</time>
      </trkpt>
      <trkpt lat="44.86846" lon="0.37151">
        <ele>62.6</ele>
        <time>2022-04-05T08:27:57Z</time>
      </trkpt>
      <trkpt lat="44.86846" lon="0.37151">
        <ele>62.6</ele>
        <time>2022-04-05T08:27:58Z</time>
      </trkpt>
      <trkpt lat="44.86846" lon="0.37151">
        <ele>62.6</ele>
        <time>2022-04-05T08:27:59Z</time>
      </trkpt>
      <trkpt lat="44.86846" lon="0.37151">
        <ele>62.6</ele>
        <time>2022-04-05T08:28:00Z</time>
      </trkpt>
      <trkpt lat="44.86846" lon="0.37151">
        <ele>62.6</ele>
        <time>2022-04-05T08:28:01Z</time>
      </trkpt>
      <trkpt lat="44.86846" lon="0.37151">
        <ele>62.6</ele>
        <time>2022-04-05T08:28:02Z</time>
      </trkpt>
      <trkpt lat="44.86846" lon="0.37151">
        <ele>62.6</ele>
        <time>2022-04-05T08:28:03Z</time>
      </trkpt>
      <trkpt lat="44.86846" lon="0.37151">
        <ele>62.6</ele>
        <time>2022-04-05T08:28:04Z</time>
      </trkpt>
      <trkpt lat="44.86846" lon="0.37151">
        <ele>62.6</ele>
        <time>2022-04-05T08:28:05Z</time>
      </trkpt>
      <trkpt lat="44.86846" lon="0.37151">
        <ele>62.6</ele>
        <time>2022-04-05T08:28:06Z</time>
      </trkpt>
      <trkpt lat="44.86846" lon="0.37151">
        <ele>62.6</ele>
        <time>2022-04-05T08:28:07Z</time>
      </trkpt>
      <trkpt lat="44.86846" lon="0.37151">
        <ele>62.6</ele>
        <time>2022-04-05T08:28:08Z</time>
      </trkpt>
      <trkpt lat="44.86846" lon="0.37151">
        <ele>62.6</ele>
        <time>2022-04-05T08:28:09Z</time>
      </trkpt>
      <trkpt lat="44.86846" lon="0.37151">
        <ele>62.6</ele>
        <time>2022-04-05T08:28:10Z</time>
      </trkpt>
      <trkpt lat="44.86846" lon="0.37151">
        <ele>62.6</ele>
        <time>2022-04-05T08:28:11Z</time>
      </trkpt>
      <trkpt lat="44.86846" lon="0.37151">
        <ele>62.6</ele>
        <time>2022-04-05T08:28:12Z</time>
      </trkpt>
      <trkpt lat="44.86846" lon="0.37151">
        <ele>62.6</ele>
        <time>2022-04-05T08:28:13Z</time>
      </trkpt>
      <trkpt lat="44.86846" lon="0.37151">
        <ele>62.6</ele>
        <time>2022-04-05T08:28:14Z</time>
      </trkpt>
      <trkpt lat="44.86846" lon="0.37152">
        <ele>62.6</ele>
        <time>2022-04-05T08:28:15Z</time>
      </trkpt>
      <trkpt lat="44.86846" lon="0.37152">
        <ele>62.6</ele>
        <time>2022-04-05T08:28:16Z</time>
      </trkpt>
      <trkpt lat="44.86846" lon="0.37152">
        <ele>62.6</ele>
        <time>2022-04-05T08:28:17Z</time>
      </trkpt>
      <trkpt lat="44.86846" lon="0.37152">
        <ele>62.6</ele>
        <time>2022-04-05T08:28:18Z</time>
      </trkpt>
      <trkpt lat="44.86846" lon="0.37152">
        <ele>62.6</ele>
        <time>2022-04-05T08:28:19Z</time>
      </trkpt>
      <trkpt lat="44.86846" lon="0.37152">
        <ele>62.6</ele>
        <time>2022-04-05T08:28:20Z</time>
      </trkpt>
      <trkpt lat="44.86846" lon="0.37152">
        <ele>62.6</ele>
        <time>2022-04-05T08:28:21Z</time>
      </trkpt>
      <trkpt lat="44.86846" lon="0.37152">
        <ele>62.6</ele>
        <time>2022-04-05T08:28:22Z</time>
      </trkpt>
      <trkpt lat="44.86846" lon="0.37152">
        <ele>62.6</ele>
        <time>2022-04-05T08:28:23Z</time>
      </trkpt>
      <trkpt lat="44.86846" lon="0.37152">
        <ele>62.6</ele>
        <time>2022-04-05T08:28:24Z</time>
      </trkpt>
      <trkpt lat="44.86846" lon="0.37152">
        <ele>62.6</ele>
        <time>2022-04-05T08:28:25Z</time>
      </trkpt>
      <trkpt lat="44.86846" lon="0.37153">
        <ele>62.6</ele>
        <time>2022-04-05T08:28:26Z</time>
      </trkpt>
      <trkpt lat="44.86846" lon="0.37153">
        <ele>62.6</ele>
        <time>2022-04-05T08:28:27Z</time>
      </trkpt>
      <trkpt lat="44.86846" lon="0.37152">
        <ele>62.6</ele>
        <time>2022-04-05T08:28:28Z</time>
      </trkpt>
      <trkpt lat="44.86846" lon="0.37152">
        <ele>62.6</ele>
        <time>2022-04-05T08:28:29Z</time>
      </trkpt>
      <trkpt lat="44.86846" lon="0.37152">
        <ele>62.6</ele>
        <time>2022-04-05T08:28:30Z</time>
      </trkpt>
      <trkpt lat="44.86846" lon="0.37152">
        <ele>62.6</ele>
        <time>2022-04-05T08:28:31Z</time>
      </trkpt>
      <trkpt lat="44.86846" lon="0.37153">
        <ele>62.6</ele>
        <time>2022-04-05T08:28:32Z</time>
      </trkpt>
      <trkpt lat="44.86846" lon="0.37153">
        <ele>62.6</ele>
        <time>2022-04-05T08:28:33Z</time>
      </trkpt>
      <trkpt lat="44.86846" lon="0.37153">
        <ele>62.6</ele>
        <time>2022-04-05T08:28:34Z</time>
      </trkpt>
      <trkpt lat="44.86846" lon="0.37153">
        <ele>62.6</ele>
        <time>2022-04-05T08:28:35Z</time>
      </trkpt>
      <trkpt lat="44.86846" lon="0.37153">
        <ele>62.6</ele>
        <time>2022-04-05T08:28:36Z</time>
      </trkpt>
      <trkpt lat="44.86846" lon="0.37153">
        <ele>62.6</ele>
        <time>2022-04-05T08:28:37Z</time>
      </trkpt>
      <trkpt lat="44.86846" lon="0.37153">
        <ele>62.6</ele>
        <time>2022-04-05T08:28:38Z</time>
      </trkpt>
      <trkpt lat="44.86846" lon="0.37153">
        <ele>62.6</ele>
        <time>2022-04-05T08:28:39Z</time>
      </trkpt>
      <trkpt lat="44.86846" lon="0.37153">
        <ele>62.6</ele>
        <time>2022-04-05T08:28:40Z</time>
      </trkpt>
      <trkpt lat="44.86846" lon="0.37153">
        <ele>62.6</ele>
        <time>2022-04-05T08:28:41Z</time>
      </trkpt>
      <trkpt lat="44.86846" lon="0.37153">
        <ele>62.6</ele>
        <time>2022-04-05T08:28:42Z</time>
      </trkpt>
      <trkpt lat="44.86846" lon="0.37153">
        <ele>62.6</ele>
        <time>2022-04-05T08:28:43Z</time>
      </trkpt>
      <trkpt lat="44.86846" lon="0.37153">
        <ele>62.6</ele>
        <time>2022-04-05T08:28:44Z</time>
      </trkpt>
      <trkpt lat="44.86846" lon="0.37153">
        <ele>62.6</ele>
        <time>2022-04-05T08:28:45Z</time>
      </trkpt>
      <trkpt lat="44.86846" lon="0.37153">
        <ele>62.6</ele>
        <time>2022-04-05T08:28:46Z</time>
      </trkpt>
      <trkpt lat="44.86846" lon="0.37153">
        <ele>62.6</ele>
        <time>2022-04-05T08:28:47Z</time>
      </trkpt>
      <trkpt lat="44.86846" lon="0.37153">
        <ele>62.6</ele>
        <time>2022-04-05T08:28:48Z</time>
      </trkpt>
      <trkpt lat="44.86846" lon="0.37153">
        <ele>62.6</ele>
        <time>2022-04-05T08:28:49Z</time>
      </trkpt>
      <trkpt lat="44.86846" lon="0.37153">
        <ele>62.6</ele>
        <time>2022-04-05T08:28:50Z</time>
      </trkpt>
      <trkpt lat="44.86846" lon="0.37153">
        <ele>62.6</ele>
        <time>2022-04-05T08:28:51Z</time>
      </trkpt>
      <trkpt lat="44.86846" lon="0.37153">
        <ele>62.6</ele>
        <time>2022-04-05T08:28:52Z</time>
      </trkpt>
      <trkpt lat="44.86846" lon="0.37153">
        <ele>62.6</ele>
        <time>2022-04-05T08:28:53Z</time>
      </trkpt>
      <trkpt lat="44.86846" lon="0.37153">
        <ele>62.6</ele>
        <time>2022-04-05T08:28:54Z</time>
      </trkpt>
      <trkpt lat="44.86846" lon="0.37153">
        <ele>62.6</ele>
        <time>2022-04-05T08:28:55Z</time>
      </trkpt>
      <trkpt lat="44.86846" lon="0.37153">
        <ele>62.6</ele>
        <time>2022-04-05T08:28:56Z</time>
      </trkpt>
      <trkpt lat="44.86846" lon="0.37153">
        <ele>62.6</ele>
        <time>2022-04-05T08:28:57Z</time>
      </trkpt>
      <trkpt lat="44.86846" lon="0.37152">
        <ele>62.6</ele>
        <time>2022-04-05T08:28:58Z</time>
      </trkpt>
      <trkpt lat="44.86847" lon="0.37152">
        <ele>62.6</ele>
        <time>2022-04-05T08:28:59Z</time>
      </trkpt>
      <trkpt lat="44.86847" lon="0.37152">
        <ele>62.6</ele>
        <time>2022-04-05T08:29:00Z</time>
      </trkpt>
      <trkpt lat="44.86847" lon="0.37152">
        <ele>62.6</ele>
        <time>2022-04-05T08:29:01Z</time>
      </trkpt>
      <trkpt lat="44.86847" lon="0.37152">
        <ele>62.6</ele>
        <time>2022-04-05T08:29:02Z</time>
      </trkpt>
      <trkpt lat="44.86847" lon="0.37152">
        <ele>62.6</ele>
        <time>2022-04-05T08:29:03Z</time>
      </trkpt>
      <trkpt lat="44.86847" lon="0.37152">
        <ele>62.6</ele>
        <time>2022-04-05T08:29:04Z</time>
      </trkpt>
      <trkpt lat="44.86847" lon="0.37152">
        <ele>62.6</ele>
        <time>2022-04-05T08:29:05Z</time>
      </trkpt>
      <trkpt lat="44.86847" lon="0.37151">
        <ele>62.6</ele>
        <time>2022-04-05T08:29:06Z</time>
      </trkpt>
      <trkpt lat="44.86847" lon="0.37151">
        <ele>62.6</ele>
        <time>2022-04-05T08:29:07Z</time>
      </trkpt>
      <trkpt lat="44.86848" lon="0.37151">
        <ele>62.6</ele>
        <time>2022-04-05T08:29:08Z</time>
      </trkpt>
      <trkpt lat="44.86848" lon="0.37151">
        <ele>62.6</ele>
        <time>2022-04-05T08:29:09Z</time>
      </trkpt>
      <trkpt lat="44.86848" lon="0.37151">
        <ele>62.6</ele>
        <time>2022-04-05T08:29:10Z</time>
      </trkpt>
      <trkpt lat="44.86848" lon="0.37151">
        <ele>62.6</ele>
        <time>2022-04-05T08:29:11Z</time>
      </trkpt>
      <trkpt lat="44.86848" lon="0.37151">
        <ele>62.6</ele>
        <time>2022-04-05T08:29:12Z</time>
      </trkpt>
      <trkpt lat="44.86848" lon="0.37151">
        <ele>62.6</ele>
        <time>2022-04-05T08:29:13Z</time>
      </trkpt>
      <trkpt lat="44.86848" lon="0.37151">
        <ele>62.6</ele>
        <time>2022-04-05T08:29:14Z</time>
      </trkpt>
      <trkpt lat="44.86848" lon="0.37151">
        <ele>62.6</ele>
        <time>2022-04-05T08:29:15Z</time>
      </trkpt>
      <trkpt lat="44.86848" lon="0.37151">
        <ele>62.6</ele>
        <time>2022-04-05T08:29:16Z</time>
      </trkpt>
      <trkpt lat="44.86848" lon="0.37151">
        <ele>62.6</ele>
        <time>2022-04-05T08:29:17Z</time>
      </trkpt>
      <trkpt lat="44.86848" lon="0.37151">
        <ele>62.6</ele>
        <time>2022-04-05T08:29:18Z</time>
      </trkpt>
      <trkpt lat="44.86848" lon="0.37151">
        <ele>62.6</ele>
        <time>2022-04-05T08:29:19Z</time>
      </trkpt>
      <trkpt lat="44.86848" lon="0.37151">
        <ele>62.6</ele>
        <time>2022-04-05T08:29:20Z</time>
      </trkpt>
      <trkpt lat="44.86848" lon="0.37151">
        <ele>62.6</ele>
        <time>2022-04-05T08:29:21Z</time>
      </trkpt>
      <trkpt lat="44.86848" lon="0.37151">
        <ele>62.6</ele>
        <time>2022-04-05T08:29:22Z</time>
      </trkpt>
      <trkpt lat="44.86848" lon="0.37151">
        <ele>62.6</ele>
        <time>2022-04-05T08:29:23Z</time>
      </trkpt>
      <trkpt lat="44.86848" lon="0.37151">
        <ele>62.6</ele>
        <time>2022-04-05T08:29:24Z</time>
      </trkpt>
      <trkpt lat="44.86848" lon="0.37151">
        <ele>62.6</ele>
        <time>2022-04-05T08:29:25Z</time>
      </trkpt>
      <trkpt lat="44.86848" lon="0.37151">
        <ele>62.6</ele>
        <time>2022-04-05T08:29:26Z</time>
      </trkpt>
      <trkpt lat="44.86848" lon="0.37151">
        <ele>62.6</ele>
        <time>2022-04-05T08:29:27Z</time>
      </trkpt>
      <trkpt lat="44.86848" lon="0.37151">
        <ele>62.6</ele>
        <time>2022-04-05T08:29:28Z</time>
      </trkpt>
      <trkpt lat="44.86848" lon="0.37151">
        <ele>62.6</ele>
        <time>2022-04-05T08:29:29Z</time>
      </trkpt>
      <trkpt lat="44.86848" lon="0.37151">
        <ele>62.6</ele>
        <time>2022-04-05T08:29:30Z</time>
      </trkpt>
      <trkpt lat="44.86848" lon="0.37151">
        <ele>62.6</ele>
        <time>2022-04-05T08:29:31Z</time>
      </trkpt>
      <trkpt lat="44.86848" lon="0.37151">
        <ele>62.6</ele>
        <time>2022-04-05T08:29:32Z</time>
      </trkpt>
      <trkpt lat="44.86848" lon="0.37151">
        <ele>62.6</ele>
        <time>2022-04-05T08:29:33Z</time>
      </trkpt>
      <trkpt lat="44.86848" lon="0.37152">
        <ele>62.6</ele>
        <time>2022-04-05T08:29:34Z</time>
      </trkpt>
      <trkpt lat="44.86847" lon="0.37153">
        <ele>62.6</ele>
        <time>2022-04-05T08:29:35Z</time>
      </trkpt>
      <trkpt lat="44.86847" lon="0.37155">
        <ele>62.6</ele>
        <time>2022-04-05T08:29:36Z</time>
      </trkpt>
      <trkpt lat="44.86845" lon="0.37156">
        <ele>62.6</ele>
        <time>2022-04-05T08:29:37Z</time>
      </trkpt>
      <trkpt lat="44.86845" lon="0.37158">
        <ele>62.6</ele>
        <time>2022-04-05T08:29:38Z</time>
      </trkpt>
      <trkpt lat="44.86845" lon="0.37159">
        <ele>62.6</ele>
        <time>2022-04-05T08:29:40Z</time>
      </trkpt>
      <trkpt lat="44.86844" lon="0.37159">
        <ele>62.6</ele>
        <time>2022-04-05T08:29:41Z</time>
      </trkpt>
      <trkpt lat="44.86844" lon="0.37159">
        <ele>62.6</ele>
        <time>2022-04-05T08:29:42Z</time>
      </trkpt>
      <trkpt lat="44.86844" lon="0.37159">
        <ele>62.6</ele>
        <time>2022-04-05T08:29:43Z</time>
      </trkpt>
      <trkpt lat="44.86844" lon="0.37159">
        <ele>62.6</ele>
        <time>2022-04-05T08:29:44Z</time>
      </trkpt>
      <trkpt lat="44.86844" lon="0.37158">
        <ele>62.6</ele>
        <time>2022-04-05T08:29:45Z</time>
      </trkpt>
      <trkpt lat="44.86844" lon="0.37157">
        <ele>62.6</ele>
        <time>2022-04-05T08:29:47Z</time>
      </trkpt>
      <trkpt lat="44.86845" lon="0.37156">
        <ele>62.6</ele>
        <time>2022-04-05T08:29:48Z</time>
      </trkpt>
      <trkpt lat="44.86845" lon="0.37156">
        <ele>62.6</ele>
        <time>2022-04-05T08:29:49Z</time>
      </trkpt>
      <trkpt lat="44.86845" lon="0.37156">
        <ele>62.6</ele>
        <time>2022-04-05T08:29:50Z</time>
      </trkpt>
      <trkpt lat="44.86845" lon="0.37155">
        <ele>62.6</ele>
        <time>2022-04-05T08:29:51Z</time>
      </trkpt>
      <trkpt lat="44.86845" lon="0.37155">
        <ele>62.6</ele>
        <time>2022-04-05T08:29:52Z</time>
      </trkpt>
      <trkpt lat="44.86845" lon="0.37155">
        <ele>62.6</ele>
        <time>2022-04-05T08:29:53Z</time>
      </trkpt>
      <trkpt lat="44.86845" lon="0.37155">
        <ele>62.6</ele>
        <time>2022-04-05T08:29:54Z</time>
      </trkpt>
      <trkpt lat="44.86845" lon="0.37154">
        <ele>62.6</ele>
        <time>2022-04-05T08:29:55Z</time>
      </trkpt>
      <trkpt lat="44.86845" lon="0.37154">
        <ele>62.6</ele>
        <time>2022-04-05T08:29:56Z</time>
      </trkpt>
      <trkpt lat="44.86845" lon="0.37154">
        <ele>62.6</ele>
        <time>2022-04-05T08:29:57Z</time>
      </trkpt>
      <trkpt lat="44.86845" lon="0.37154">
        <ele>62.6</ele>
        <time>2022-04-05T08:29:58Z</time>
      </trkpt>
      <trkpt lat="44.86845" lon="0.37154">
        <ele>62.6</ele>
        <time>2022-04-05T08:29:59Z</time>
      </trkpt>
      <trkpt lat="44.86845" lon="0.37154">
        <ele>62.6</ele>
        <time>2022-04-05T08:30:00Z</time>
      </trkpt>
      <trkpt lat="44.86845" lon="0.37153">
        <ele>62.6</ele>
        <time>2022-04-05T08:30:01Z</time>
      </trkpt>
      <trkpt lat="44.86845" lon="0.37153">
        <ele>62.6</ele>
        <time>2022-04-05T08:30:02Z</time>
      </trkpt>
      <trkpt lat="44.86845" lon="0.37153">
        <ele>62.6</ele>
        <time>2022-04-05T08:30:03Z</time>
      </trkpt>
      <trkpt lat="44.86845" lon="0.37153">
        <ele>62.6</ele>
        <time>2022-04-05T08:30:04Z</time>
      </trkpt>
      <trkpt lat="44.86845" lon="0.37153">
        <ele>62.6</ele>
        <time>2022-04-05T08:30:06Z</time>
      </trkpt>
      <trkpt lat="44.86845" lon="0.37152">
        <ele>62.6</ele>
        <time>2022-04-05T08:30:07Z</time>
      </trkpt>
      <trkpt lat="44.86845" lon="0.37152">
        <ele>62.6</ele>
        <time>2022-04-05T08:30:08Z</time>
      </trkpt>
      <trkpt lat="44.86845" lon="0.37152">
        <ele>62.6</ele>
        <time>2022-04-05T08:30:09Z</time>
      </trkpt>
      <trkpt lat="44.86845" lon="0.37152">
        <ele>62.5</ele>
        <time>2022-04-05T08:30:10Z</time>
      </trkpt>
      <trkpt lat="44.86845" lon="0.37152">
        <ele>62.5</ele>
        <time>2022-04-05T08:30:11Z</time>
      </trkpt>
      <trkpt lat="44.86845" lon="0.37152">
        <ele>62.5</ele>
        <time>2022-04-05T08:30:12Z</time>
      </trkpt>
      <trkpt lat="44.86845" lon="0.37152">
        <ele>62.5</ele>
        <time>2022-04-05T08:30:13Z</time>
      </trkpt>
      <trkpt lat="44.86845" lon="0.37152">
        <ele>62.5</ele>
        <time>2022-04-05T08:30:14Z</time>
      </trkpt>
      <trkpt lat="44.86845" lon="0.37152">
        <ele>62.5</ele>
        <time>2022-04-05T08:30:15Z</time>
      </trkpt>
      <trkpt lat="44.86845" lon="0.37152">
        <ele>62.5</ele>
        <time>2022-04-05T08:30:16Z</time>
      </trkpt>
      <trkpt lat="44.86845" lon="0.37152">
        <ele>62.5</ele>
        <time>2022-04-05T08:30:17Z</time>
      </trkpt>
      <trkpt lat="44.86845" lon="0.37152">
        <ele>62.5</ele>
        <time>2022-04-05T08:30:18Z</time>
      </trkpt>
      <trkpt lat="44.86845" lon="0.37152">
        <ele>62.5</ele>
        <time>2022-04-05T08:30:19Z</time>
      </trkpt>
      <trkpt lat="44.86845" lon="0.37152">
        <ele>62.5</ele>
        <time>2022-04-05T08:30:20Z</time>
      </trkpt>
      <trkpt lat="44.86845" lon="0.37152">
        <ele>62.5</ele>
        <time>2022-04-05T08:30:21Z</time>
      </trkpt>
      <trkpt lat="44.86845" lon="0.37152">
        <ele>62.5</ele>
        <time>2022-04-05T08:30:22Z</time>
      </trkpt>
      <trkpt lat="44.86845" lon="0.37152">
        <ele>62.5</ele>
        <time>2022-04-05T08:30:23Z</time>
      </trkpt>
      <trkpt lat="44.86845" lon="0.37152">
        <ele>62.5</ele>
        <time>2022-04-05T08:30:24Z</time>
      </trkpt>
      <trkpt lat="44.86845" lon="0.37152">
        <ele>62.5</ele>
        <time>2022-04-05T08:30:25Z</time>
      </trkpt>
      <trkpt lat="44.86845" lon="0.37152">
        <ele>62.5</ele>
        <time>2022-04-05T08:30:26Z</time>
      </trkpt>
      <trkpt lat="44.86845" lon="0.37152">
        <ele>62.5</ele>
        <time>2022-04-05T08:30:27Z</time>
      </trkpt>
      <trkpt lat="44.86845" lon="0.37152">
        <ele>62.5</ele>
        <time>2022-04-05T08:30:28Z</time>
      </trkpt>
      <trkpt lat="44.86845" lon="0.37152">
        <ele>62.5</ele>
        <time>2022-04-05T08:30:29Z</time>
      </trkpt>
      <trkpt lat="44.86845" lon="0.37152">
        <ele>62.5</ele>
        <time>2022-04-05T08:30:30Z</time>
      </trkpt>
      <trkpt lat="44.86845" lon="0.37153">
        <ele>62.5</ele>
        <time>2022-04-05T08:30:31Z</time>
      </trkpt>
      <trkpt lat="44.86845" lon="0.37153">
        <ele>62.5</ele>
        <time>2022-04-05T08:30:32Z</time>
      </trkpt>
      <trkpt lat="44.86845" lon="0.37152">
        <ele>62.5</ele>
        <time>2022-04-05T08:30:33Z</time>
      </trkpt>
      <trkpt lat="44.86845" lon="0.37152">
        <ele>62.5</ele>
        <time>2022-04-05T08:30:34Z</time>
      </trkpt>
      <trkpt lat="44.86845" lon="0.37152">
        <ele>62.5</ele>
        <time>2022-04-05T08:30:35Z</time>
      </trkpt>
      <trkpt lat="44.86845" lon="0.37152">
        <ele>62.5</ele>
        <time>2022-04-05T08:30:36Z</time>
      </trkpt>
      <trkpt lat="44.86845" lon="0.37152">
        <ele>62.5</ele>
        <time>2022-04-05T08:30:37Z</time>
      </trkpt>
      <trkpt lat="44.86845" lon="0.37152">
        <ele>62.5</ele>
        <time>2022-04-05T08:30:38Z</time>
      </trkpt>
      <trkpt lat="44.86845" lon="0.37152">
        <ele>62.5</ele>
        <time>2022-04-05T08:30:39Z</time>
      </trkpt>
      <trkpt lat="44.86845" lon="0.37152">
        <ele>62.5</ele>
        <time>2022-04-05T08:30:40Z</time>
      </trkpt>
      <trkpt lat="44.86845" lon="0.37152">
        <ele>62.5</ele>
        <time>2022-04-05T08:30:41Z</time>
      </trkpt>
      <trkpt lat="44.86845" lon="0.37152">
        <ele>62.5</ele>
        <time>2022-04-05T08:30:42Z</time>
      </trkpt>
      <trkpt lat="44.86845" lon="0.37152">
        <ele>62.5</ele>
        <time>2022-04-05T08:30:43Z</time>
      </trkpt>
      <trkpt lat="44.86845" lon="0.37152">
        <ele>62.5</ele>
        <time>2022-04-05T08:30:44Z</time>
      </trkpt>
      <trkpt lat="44.86845" lon="0.37152">
        <ele>62.5</ele>
        <time>2022-04-05T08:30:45Z</time>
      </trkpt>
      <trkpt lat="44.86845" lon="0.37152">
        <ele>62.5</ele>
        <time>2022-04-05T08:30:46Z</time>
      </trkpt>
      <trkpt lat="44.86845" lon="0.37152">
        <ele>62.5</ele>
        <time>2022-04-05T08:30:47Z</time>
      </trkpt>
      <trkpt lat="44.86845" lon="0.37152">
        <ele>62.5</ele>
        <time>2022-04-05T08:30:48Z</time>
      </trkpt>
      <trkpt lat="44.86845" lon="0.37152">
        <ele>62.5</ele>
        <time>2022-04-05T08:30:49Z</time>
      </trkpt>
      <trkpt lat="44.86845" lon="0.37152">
        <ele>62.5</ele>
        <time>2022-04-05T08:30:50Z</time>
      </trkpt>
      <trkpt lat="44.86845" lon="0.37152">
        <ele>62.5</ele>
        <time>2022-04-05T08:30:51Z</time>
      </trkpt>
      <trkpt lat="44.86845" lon="0.37152">
        <ele>62.5</ele>
        <time>2022-04-05T08:30:52Z</time>
      </trkpt>
      <trkpt lat="44.86845" lon="0.37152">
        <ele>62.5</ele>
        <time>2022-04-05T08:30:53Z</time>
      </trkpt>
      <trkpt lat="44.86845" lon="0.37152">
        <ele>62.5</ele>
        <time>2022-04-05T08:30:54Z</time>
      </trkpt>
      <trkpt lat="44.86845" lon="0.37152">
        <ele>62.5</ele>
        <time>2022-04-05T08:30:55Z</time>
      </trkpt>
      <trkpt lat="44.86845" lon="0.37152">
        <ele>62.5</ele>
        <time>2022-04-05T08:30:56Z</time>
      </trkpt>
      <trkpt lat="44.86845" lon="0.37152">
        <ele>62.5</ele>
        <time>2022-04-05T08:30:57Z</time>
      </trkpt>
      <trkpt lat="44.86845" lon="0.37152">
        <ele>62.5</ele>
        <time>2022-04-05T08:30:58Z</time>
      </trkpt>
      <trkpt lat="44.86845" lon="0.37152">
        <ele>62.5</ele>
        <time>2022-04-05T08:30:59Z</time>
      </trkpt>
      <trkpt lat="44.86845" lon="0.37152">
        <ele>62.5</ele>
        <time>2022-04-05T08:31:00Z</time>
      </trkpt>
      <trkpt lat="44.86845" lon="0.37152">
        <ele>62.5</ele>
        <time>2022-04-05T08:31:01Z</time>
      </trkpt>
      <trkpt lat="44.86845" lon="0.37152">
        <ele>62.5</ele>
        <time>2022-04-05T08:31:02Z</time>
      </trkpt>
      <trkpt lat="44.86845" lon="0.37152">
        <ele>62.5</ele>
        <time>2022-04-05T08:31:03Z</time>
      </trkpt>
      <trkpt lat="44.86845" lon="0.37152">
        <ele>62.5</ele>
        <time>2022-04-05T08:31:04Z</time>
      </trkpt>
      <trkpt lat="44.86845" lon="0.37152">
        <ele>62.5</ele>
        <time>2022-04-05T08:31:05Z</time>
      </trkpt>
      <trkpt lat="44.86845" lon="0.37152">
        <ele>62.5</ele>
        <time>2022-04-05T08:31:06Z</time>
      </trkpt>
      <trkpt lat="44.86845" lon="0.37152">
        <ele>62.5</ele>
        <time>2022-04-05T08:31:07Z</time>
      </trkpt>
      <trkpt lat="44.86845" lon="0.37152">
        <ele>62.5</ele>
        <time>2022-04-05T08:31:08Z</time>
      </trkpt>
      <trkpt lat="44.86845" lon="0.37152">
        <ele>62.5</ele>
        <time>2022-04-05T08:31:09Z</time>
      </trkpt>
      <trkpt lat="44.86845" lon="0.37152">
        <ele>62.5</ele>
        <time>2022-04-05T08:31:10Z</time>
      </trkpt>
      <trkpt lat="44.86845" lon="0.37152">
        <ele>62.5</ele>
        <time>2022-04-05T08:31:11Z</time>
      </trkpt>
      <trkpt lat="44.86845" lon="0.37152">
        <ele>62.5</ele>
        <time>2022-04-05T08:31:12Z</time>
      </trkpt>
      <trkpt lat="44.86845" lon="0.37152">
        <ele>62.5</ele>
        <time>2022-04-05T08:31:13Z</time>
      </trkpt>
      <trkpt lat="44.86845" lon="0.37152">
        <ele>62.5</ele>
        <time>2022-04-05T08:31:14Z</time>
      </trkpt>
      <trkpt lat="44.86845" lon="0.37152">
        <ele>62.5</ele>
        <time>2022-04-05T08:31:15Z</time>
      </trkpt>
      <trkpt lat="44.86845" lon="0.37152">
        <ele>62.5</ele>
        <time>2022-04-05T08:31:16Z</time>
      </trkpt>
      <trkpt lat="44.86845" lon="0.37152">
        <ele>62.5</ele>
        <time>2022-04-05T08:31:17Z</time>
      </trkpt>
      <trkpt lat="44.86845" lon="0.37152">
        <ele>62.5</ele>
        <time>2022-04-05T08:31:18Z</time>
      </trkpt>
      <trkpt lat="44.86845" lon="0.37151">
        <ele>62.5</ele>
        <time>2022-04-05T08:31:20Z</time>
      </trkpt>
      <trkpt lat="44.86846" lon="0.37151">
        <ele>62.5</ele>
        <time>2022-04-05T08:31:21Z</time>
      </trkpt>
      <trkpt lat="44.86846" lon="0.37151">
        <ele>62.5</ele>
        <time>2022-04-05T08:31:22Z</time>
      </trkpt>
      <trkpt lat="44.86846" lon="0.37151">
        <ele>62.5</ele>
        <time>2022-04-05T08:31:23Z</time>
      </trkpt>
      <trkpt lat="44.86846" lon="0.37151">
        <ele>62.5</ele>
        <time>2022-04-05T08:31:24Z</time>
      </trkpt>
      <trkpt lat="44.86846" lon="0.3715">
        <ele>62.5</ele>
        <time>2022-04-05T08:31:26Z</time>
      </trkpt>
      <trkpt lat="44.86847" lon="0.37149">
        <ele>62.5</ele>
        <time>2022-04-05T08:31:27Z</time>
      </trkpt>
      <trkpt lat="44.86847" lon="0.37148">
        <ele>62.5</ele>
        <time>2022-04-05T08:31:28Z</time>
      </trkpt>
      <trkpt lat="44.86847" lon="0.37147">
        <ele>62.5</ele>
        <time>2022-04-05T08:31:30Z</time>
      </trkpt>
      <trkpt lat="44.86847" lon="0.37147">
        <ele>62.5</ele>
        <time>2022-04-05T08:31:31Z</time>
      </trkpt>
      <trkpt lat="44.86847" lon="0.37145">
        <ele>62.5</ele>
        <time>2022-04-05T08:31:32Z</time>
      </trkpt>
      <trkpt lat="44.86847" lon="0.37142">
        <ele>62.5</ele>
        <time>2022-04-05T08:31:33Z</time>
      </trkpt>
      <trkpt lat="44.86848" lon="0.37141">
        <ele>62.5</ele>
        <time>2022-04-05T08:31:35Z</time>
      </trkpt>
      <trkpt lat="44.86848" lon="0.37141">
        <ele>62.5</ele>
        <time>2022-04-05T08:31:36Z</time>
      </trkpt>
      <trkpt lat="44.86848" lon="0.3714">
        <ele>62.5</ele>
        <time>2022-04-05T08:31:37Z</time>
      </trkpt>
      <trkpt lat="44.86848" lon="0.37137">
        <ele>62.5</ele>
        <time>2022-04-05T08:31:39Z</time>
      </trkpt>
      <trkpt lat="44.86848" lon="0.37134">
        <ele>62.5</ele>
        <time>2022-04-05T08:31:40Z</time>
      </trkpt>
      <trkpt lat="44.86848" lon="0.37133">
        <ele>62.5</ele>
        <time>2022-04-05T08:31:41Z</time>
      </trkpt>
      <trkpt lat="44.86848" lon="0.37132">
        <ele>62.5</ele>
        <time>2022-04-05T08:31:43Z</time>
      </trkpt>
      <trkpt lat="44.86848" lon="0.3713">
        <ele>62.5</ele>
        <time>2022-04-05T08:31:44Z</time>
      </trkpt>
      <trkpt lat="44.86848" lon="0.37129">
        <ele>62.5</ele>
        <time>2022-04-05T08:31:45Z</time>
      </trkpt>
      <trkpt lat="44.86848" lon="0.37128">
        <ele>62.5</ele>
        <time>2022-04-05T08:31:46Z</time>
      </trkpt>
      <trkpt lat="44.86848" lon="0.37126">
        <ele>62.5</ele>
        <time>2022-04-05T08:31:48Z</time>
      </trkpt>
      <trkpt lat="44.86848" lon="0.37125">
        <ele>62.5</ele>
        <time>2022-04-05T08:31:49Z</time>
      </trkpt>
      <trkpt lat="44.86848" lon="0.37125">
        <ele>62.5</ele>
        <time>2022-04-05T08:31:50Z</time>
      </trkpt>
      <trkpt lat="44.86848" lon="0.37125">
        <ele>62.5</ele>
        <time>2022-04-05T08:31:51Z</time>
      </trkpt>
      <trkpt lat="44.86848" lon="0.37125">
        <ele>62.5</ele>
        <time>2022-04-05T08:31:53Z</time>
      </trkpt>
      <trkpt lat="44.86848" lon="0.37124">
        <ele>62.5</ele>
        <time>2022-04-05T08:31:54Z</time>
      </trkpt>
      <trkpt lat="44.86847" lon="0.37123">
        <ele>62.5</ele>
        <time>2022-04-05T08:31:55Z</time>
      </trkpt>
      <trkpt lat="44.86846" lon="0.37121">
        <ele>62.5</ele>
        <time>2022-04-05T08:31:56Z</time>
      </trkpt>
      <trkpt lat="44.86846" lon="0.3712">
        <ele>62.5</ele>
        <time>2022-04-05T08:31:57Z</time>
      </trkpt>
      <trkpt lat="44.86845" lon="0.37119">
        <ele>62.5</ele>
        <time>2022-04-05T08:31:58Z</time>
      </trkpt>
      <trkpt lat="44.86845" lon="0.37118">
        <ele>62.5</ele>
        <time>2022-04-05T08:32:00Z</time>
      </trkpt>
      <trkpt lat="44.86845" lon="0.37117">
        <ele>62.5</ele>
        <time>2022-04-05T08:32:01Z</time>
      </trkpt>
      <trkpt lat="44.86845" lon="0.37115">
        <ele>62.5</ele>
        <time>2022-04-05T08:32:02Z</time>
      </trkpt>
      <trkpt lat="44.86845" lon="0.37114">
        <ele>62.5</ele>
        <time>2022-04-05T08:32:03Z</time>
      </trkpt>
      <trkpt lat="44.86846" lon="0.37112">
        <ele>62.5</ele>
        <time>2022-04-05T08:32:04Z</time>
      </trkpt>
      <trkpt lat="44.86846" lon="0.37111">
        <ele>62.5</ele>
        <time>2022-04-05T08:32:05Z</time>
      </trkpt>
      <trkpt lat="44.86847" lon="0.3711">
        <ele>62.5</ele>
        <time>2022-04-05T08:32:06Z</time>
      </trkpt>
      <trkpt lat="44.86847" lon="0.37108">
        <ele>62.5</ele>
        <time>2022-04-05T08:32:08Z</time>
      </trkpt>
      <trkpt lat="44.86847" lon="0.37106">
        <ele>62.4</ele>
        <time>2022-04-05T08:32:09Z</time>
      </trkpt>
      <trkpt lat="44.86847" lon="0.37106">
        <ele>62.4</ele>
        <time>2022-04-05T08:32:10Z</time>
      </trkpt>
      <trkpt lat="44.86848" lon="0.37104">
        <ele>62.4</ele>
        <time>2022-04-05T08:32:11Z</time>
      </trkpt>
      <trkpt lat="44.86848" lon="0.37103">
        <ele>62.4</ele>
        <time>2022-04-05T08:32:12Z</time>
      </trkpt>
      <trkpt lat="44.86848" lon="0.37101">
        <ele>62.4</ele>
        <time>2022-04-05T08:32:13Z</time>
      </trkpt>
      <trkpt lat="44.86849" lon="0.371">
        <ele>62.4</ele>
        <time>2022-04-05T08:32:14Z</time>
      </trkpt>
      <trkpt lat="44.86849" lon="0.37101">
        <ele>62.4</ele>
        <time>2022-04-05T08:32:15Z</time>
      </trkpt>
      <trkpt lat="44.86849" lon="0.37102">
        <ele>62.4</ele>
        <time>2022-04-05T08:32:16Z</time>
      </trkpt>
      <trkpt lat="44.86849" lon="0.37103">
        <ele>62.4</ele>
        <time>2022-04-05T08:32:17Z</time>
      </trkpt>
      <trkpt lat="44.86849" lon="0.37104">
        <ele>62.4</ele>
        <time>2022-04-05T08:32:18Z</time>
      </trkpt>
      <trkpt lat="44.86848" lon="0.37104">
        <ele>62.4</ele>
        <time>2022-04-05T08:32:19Z</time>
      </trkpt>
      <trkpt lat="44.86848" lon="0.37103">
        <ele>62.4</ele>
        <time>2022-04-05T08:32:21Z</time>
      </trkpt>
      <trkpt lat="44.86848" lon="0.37102">
        <ele>62.4</ele>
        <time>2022-04-05T08:32:22Z</time>
      </trkpt>
      <trkpt lat="44.86848" lon="0.37101">
        <ele>62.4</ele>
        <time>2022-04-05T08:32:23Z</time>
      </trkpt>
      <trkpt lat="44.86848" lon="0.37099">
        <ele>62.4</ele>
        <time>2022-04-05T08:32:24Z</time>
      </trkpt>
      <trkpt lat="44.86848" lon="0.37097">
        <ele>62.4</ele>
        <time>2022-04-05T08:32:25Z</time>
      </trkpt>
      <trkpt lat="44.86849" lon="0.37096">
        <ele>62.4</ele>
        <time>2022-04-05T08:32:26Z</time>
      </trkpt>
      <trkpt lat="44.86849" lon="0.37094">
        <ele>62.4</ele>
        <time>2022-04-05T08:32:27Z</time>
      </trkpt>
      <trkpt lat="44.8685" lon="0.37092">
        <ele>62.4</ele>
        <time>2022-04-05T08:32:29Z</time>
      </trkpt>
      <trkpt lat="44.8685" lon="0.37093">
        <ele>62.4</ele>
        <time>2022-04-05T08:32:30Z</time>
      </trkpt>
      <trkpt lat="44.86849" lon="0.37094">
        <ele>62.4</ele>
        <time>2022-04-05T08:32:31Z</time>
      </trkpt>
      <trkpt lat="44.86849" lon="0.37095">
        <ele>62.4</ele>
        <time>2022-04-05T08:32:32Z</time>
      </trkpt>
      <trkpt lat="44.86849" lon="0.37097">
        <ele>62.4</ele>
        <time>2022-04-05T08:32:33Z</time>
      </trkpt>
      <trkpt lat="44.86849" lon="0.37097">
        <ele>62.4</ele>
        <time>2022-04-05T08:32:34Z</time>
      </trkpt>
      <trkpt lat="44.86849" lon="0.37096">
        <ele>62.4</ele>
        <time>2022-04-05T08:32:35Z</time>
      </trkpt>
      <trkpt lat="44.86849" lon="0.37094">
        <ele>62.4</ele>
        <time>2022-04-05T08:32:37Z</time>
      </trkpt>
      <trkpt lat="44.86849" lon="0.37093">
        <ele>62.4</ele>
        <time>2022-04-05T08:32:38Z</time>
      </trkpt>
      <trkpt lat="44.8685" lon="0.37089">
        <ele>62.3</ele>
        <time>2022-04-05T08:32:39Z</time>
      </trkpt>
      <trkpt lat="44.8685" lon="0.37088">
        <ele>62.3</ele>
        <time>2022-04-05T08:32:40Z</time>
      </trkpt>
      <trkpt lat="44.86851" lon="0.37087">
        <ele>62.3</ele>
        <time>2022-04-05T08:32:41Z</time>
      </trkpt>
      <trkpt lat="44.86851" lon="0.37085">
        <ele>62.3</ele>
        <time>2022-04-05T08:32:42Z</time>
      </trkpt>
      <trkpt lat="44.86851" lon="0.37083">
        <ele>62.3</ele>
        <time>2022-04-05T08:32:43Z</time>
      </trkpt>
      <trkpt lat="44.86852" lon="0.37081">
        <ele>62.3</ele>
        <time>2022-04-05T08:32:44Z</time>
      </trkpt>
      <trkpt lat="44.86852" lon="0.3708">
        <ele>62.3</ele>
        <time>2022-04-05T08:32:45Z</time>
      </trkpt>
      <trkpt lat="44.86852" lon="0.37078">
        <ele>62.3</ele>
        <time>2022-04-05T08:32:47Z</time>
      </trkpt>
      <trkpt lat="44.86853" lon="0.37077">
        <ele>62.3</ele>
        <time>2022-04-05T08:32:48Z</time>
      </trkpt>
      <trkpt lat="44.86853" lon="0.37075">
        <ele>62.3</ele>
        <time>2022-04-05T08:32:49Z</time>
      </trkpt>
      <trkpt lat="44.86853" lon="0.37074">
        <ele>62.3</ele>
        <time>2022-04-05T08:32:50Z</time>
      </trkpt>
      <trkpt lat="44.86854" lon="0.37073">
        <ele>62.3</ele>
        <time>2022-04-05T08:32:51Z</time>
      </trkpt>
      <trkpt lat="44.86854" lon="0.37071">
        <ele>62.3</ele>
        <time>2022-04-05T08:32:52Z</time>
      </trkpt>
      <trkpt lat="44.86855" lon="0.37068">
        <ele>62.3</ele>
        <time>2022-04-05T08:32:54Z</time>
      </trkpt>
      <trkpt lat="44.86855" lon="0.37067">
        <ele>62.3</ele>
        <time>2022-04-05T08:32:55Z</time>
      </trkpt>
      <trkpt lat="44.86855" lon="0.37065">
        <ele>62.3</ele>
        <time>2022-04-05T08:32:56Z</time>
      </trkpt>
      <trkpt lat="44.86855" lon="0.37064">
        <ele>62.3</ele>
        <time>2022-04-05T08:32:57Z</time>
      </trkpt>
      <trkpt lat="44.86856" lon="0.37061">
        <ele>62.3</ele>
        <time>2022-04-05T08:32:59Z</time>
      </trkpt>
      <trkpt lat="44.86856" lon="0.3706">
        <ele>62.3</ele>
        <time>2022-04-05T08:33:00Z</time>
      </trkpt>
      <trkpt lat="44.86856" lon="0.37058">
        <ele>62.3</ele>
        <time>2022-04-05T08:33:01Z</time>
      </trkpt>
      <trkpt lat="44.86856" lon="0.37057">
        <ele>62.3</ele>
        <time>2022-04-05T08:33:02Z</time>
      </trkpt>
      <trkpt lat="44.86857" lon="0.37055">
        <ele>62.3</ele>
        <time>2022-04-05T08:33:03Z</time>
      </trkpt>
      <trkpt lat="44.86857" lon="0.37053">
        <ele>62.3</ele>
        <time>2022-04-05T08:33:04Z</time>
      </trkpt>
      <trkpt lat="44.86857" lon="0.37052">
        <ele>62.3</ele>
        <time>2022-04-05T08:33:05Z</time>
      </trkpt>
      <trkpt lat="44.86858" lon="0.3705">
        <ele>62.2</ele>
        <time>2022-04-05T08:33:07Z</time>
      </trkpt>
      <trkpt lat="44.86858" lon="0.37049">
        <ele>62.2</ele>
        <time>2022-04-05T08:33:08Z</time>
      </trkpt>
      <trkpt lat="44.86859" lon="0.37046">
        <ele>62.2</ele>
        <time>2022-04-05T08:33:09Z</time>
      </trkpt>
      <trkpt lat="44.86859" lon="0.37045">
        <ele>62.2</ele>
        <time>2022-04-05T08:33:10Z</time>
      </trkpt>
      <trkpt lat="44.86859" lon="0.37044">
        <ele>62.2</ele>
        <time>2022-04-05T08:33:11Z</time>
      </trkpt>
      <trkpt lat="44.86859" lon="0.37042">
        <ele>62.2</ele>
        <time>2022-04-05T08:33:12Z</time>
      </trkpt>
      <trkpt lat="44.8686" lon="0.3704">
        <ele>62.2</ele>
        <time>2022-04-05T08:33:13Z</time>
      </trkpt>
      <trkpt lat="44.86861" lon="0.37038">
        <ele>62.2</ele>
        <time>2022-04-05T08:33:14Z</time>
      </trkpt>
      <trkpt lat="44.86861" lon="0.37037">
        <ele>62.2</ele>
        <time>2022-04-05T08:33:15Z</time>
      </trkpt>
      <trkpt lat="44.86861" lon="0.37036">
        <ele>62.2</ele>
        <time>2022-04-05T08:33:16Z</time>
      </trkpt>
      <trkpt lat="44.86862" lon="0.37034">
        <ele>62.2</ele>
        <time>2022-04-05T08:33:17Z</time>
      </trkpt>
      <trkpt lat="44.86863" lon="0.3703">
        <ele>62.2</ele>
        <time>2022-04-05T08:33:19Z</time>
      </trkpt>
      <trkpt lat="44.86863" lon="0.37029">
        <ele>62.2</ele>
        <time>2022-04-05T08:33:20Z</time>
      </trkpt>
      <trkpt lat="44.86863" lon="0.37028">
        <ele>62.2</ele>
        <time>2022-04-05T08:33:21Z</time>
      </trkpt>
      <trkpt lat="44.86863" lon="0.37026">
        <ele>62.2</ele>
        <time>2022-04-05T08:33:22Z</time>
      </trkpt>
      <trkpt lat="44.86862" lon="0.37023">
        <ele>62.2</ele>
        <time>2022-04-05T08:33:23Z</time>
      </trkpt>
      <trkpt lat="44.86863" lon="0.37022">
        <ele>62.2</ele>
        <time>2022-04-05T08:33:25Z</time>
      </trkpt>
      <trkpt lat="44.86863" lon="0.37021">
        <ele>62.2</ele>
        <time>2022-04-05T08:33:26Z</time>
      </trkpt>
      <trkpt lat="44.86863" lon="0.3702">
        <ele>62.2</ele>
        <time>2022-04-05T08:33:27Z</time>
      </trkpt>
      <trkpt lat="44.86864" lon="0.37018">
        <ele>62.2</ele>
        <time>2022-04-05T08:33:28Z</time>
      </trkpt>
      <trkpt lat="44.86864" lon="0.37017">
        <ele>62.2</ele>
        <time>2022-04-05T08:33:29Z</time>
      </trkpt>
      <trkpt lat="44.86864" lon="0.37017">
        <ele>62.2</ele>
        <time>2022-04-05T08:33:30Z</time>
      </trkpt>
      <trkpt lat="44.86865" lon="0.37016">
        <ele>62.2</ele>
        <time>2022-04-05T08:33:31Z</time>
      </trkpt>
      <trkpt lat="44.86865" lon="0.37012">
        <ele>62.2</ele>
        <time>2022-04-05T08:33:32Z</time>
      </trkpt>
      <trkpt lat="44.86865" lon="0.37011">
        <ele>62.2</ele>
        <time>2022-04-05T08:33:34Z</time>
      </trkpt>
      <trkpt lat="44.86866" lon="0.3701">
        <ele>62.1</ele>
        <time>2022-04-05T08:33:35Z</time>
      </trkpt>
      <trkpt lat="44.86866" lon="0.37008">
        <ele>62.1</ele>
        <time>2022-04-05T08:33:36Z</time>
      </trkpt>
      <trkpt lat="44.86866" lon="0.37005">
        <ele>62.1</ele>
        <time>2022-04-05T08:33:37Z</time>
      </trkpt>
      <trkpt lat="44.86866" lon="0.37004">
        <ele>62.1</ele>
        <time>2022-04-05T08:33:38Z</time>
      </trkpt>
      <trkpt lat="44.86867" lon="0.37002">
        <ele>62.1</ele>
        <time>2022-04-05T08:33:39Z</time>
      </trkpt>
      <trkpt lat="44.86867" lon="0.37002">
        <ele>62.1</ele>
        <time>2022-04-05T08:33:40Z</time>
      </trkpt>
      <trkpt lat="44.86868" lon="0.37001">
        <ele>62.1</ele>
        <time>2022-04-05T08:33:42Z</time>
      </trkpt>
      <trkpt lat="44.86869" lon="0.37">
        <ele>62.1</ele>
        <time>2022-04-05T08:33:43Z</time>
      </trkpt>
      <trkpt lat="44.8687" lon="0.36998">
        <ele>62.1</ele>
        <time>2022-04-05T08:33:44Z</time>
      </trkpt>
      <trkpt lat="44.86871" lon="0.36996">
        <ele>62.1</ele>
        <time>2022-04-05T08:33:45Z</time>
      </trkpt>
      <trkpt lat="44.86871" lon="0.36994">
        <ele>62.1</ele>
        <time>2022-04-05T08:33:46Z</time>
      </trkpt>
      <trkpt lat="44.86871" lon="0.36992">
        <ele>62.1</ele>
        <time>2022-04-05T08:33:47Z</time>
      </trkpt>
      <trkpt lat="44.86872" lon="0.36988">
        <ele>62.1</ele>
        <time>2022-04-05T08:33:48Z</time>
      </trkpt>
      <trkpt lat="44.86871" lon="0.36986">
        <ele>62.1</ele>
        <time>2022-04-05T08:33:49Z</time>
      </trkpt>
      <trkpt lat="44.86871" lon="0.36985">
        <ele>62.1</ele>
        <time>2022-04-05T08:33:50Z</time>
      </trkpt>
      <trkpt lat="44.86872" lon="0.36983">
        <ele>62.1</ele>
        <time>2022-04-05T08:33:51Z</time>
      </trkpt>
      <trkpt lat="44.86872" lon="0.36981">
        <ele>62.1</ele>
        <time>2022-04-05T08:33:52Z</time>
      </trkpt>
      <trkpt lat="44.86872" lon="0.36977">
        <ele>62.1</ele>
        <time>2022-04-05T08:33:53Z</time>
      </trkpt>
      <trkpt lat="44.86873" lon="0.36976">
        <ele>62.1</ele>
        <time>2022-04-05T08:33:54Z</time>
      </trkpt>
      <trkpt lat="44.86873" lon="0.36972">
        <ele>62.1</ele>
        <time>2022-04-05T08:33:55Z</time>
      </trkpt>
      <trkpt lat="44.86873" lon="0.36971">
        <ele>62.1</ele>
        <time>2022-04-05T08:33:56Z</time>
      </trkpt>
      <trkpt lat="44.86873" lon="0.3697">
        <ele>62.1</ele>
        <time>2022-04-05T08:33:57Z</time>
      </trkpt>
      <trkpt lat="44.86873" lon="0.36968">
        <ele>62.1</ele>
        <time>2022-04-05T08:33:59Z</time>
      </trkpt>
      <trkpt lat="44.86874" lon="0.36966">
        <ele>62.1</ele>
        <time>2022-04-05T08:34:00Z</time>
      </trkpt>
      <trkpt lat="44.86874" lon="0.36965">
        <ele>62.1</ele>
        <time>2022-04-05T08:34:01Z</time>
      </trkpt>
      <trkpt lat="44.86874" lon="0.36965">
        <ele>62.1</ele>
        <time>2022-04-05T08:34:02Z</time>
      </trkpt>
      <trkpt lat="44.86874" lon="0.36964">
        <ele>62.1</ele>
        <time>2022-04-05T08:34:03Z</time>
      </trkpt>
      <trkpt lat="44.86875" lon="0.36964">
        <ele>62.1</ele>
        <time>2022-04-05T08:34:04Z</time>
      </trkpt>
      <trkpt lat="44.86875" lon="0.36963">
        <ele>62.1</ele>
        <time>2022-04-05T08:34:06Z</time>
      </trkpt>
      <trkpt lat="44.86875" lon="0.36963">
        <ele>62.1</ele>
        <time>2022-04-05T08:34:07Z</time>
      </trkpt>
      <trkpt lat="44.86875" lon="0.36962">
        <ele>62.1</ele>
        <time>2022-04-05T08:34:08Z</time>
      </trkpt>
      <trkpt lat="44.86875" lon="0.36962">
        <ele>62.1</ele>
        <time>2022-04-05T08:34:10Z</time>
      </trkpt>
      <trkpt lat="44.86875" lon="0.36962">
        <ele>62.1</ele>
        <time>2022-04-05T08:34:11Z</time>
      </trkpt>
      <trkpt lat="44.86875" lon="0.36961">
        <ele>62.2</ele>
        <time>2022-04-05T08:34:12Z</time>
      </trkpt>
      <trkpt lat="44.86874" lon="0.36958">
        <ele>62.2</ele>
        <time>2022-04-05T08:34:13Z</time>
      </trkpt>
      <trkpt lat="44.86874" lon="0.36956">
        <ele>62.2</ele>
        <time>2022-04-05T08:34:14Z</time>
      </trkpt>
      <trkpt lat="44.86875" lon="0.36954">
        <ele>62.2</ele>
        <time>2022-04-05T08:34:16Z</time>
      </trkpt>
      <trkpt lat="44.86875" lon="0.36952">
        <ele>62.2</ele>
        <time>2022-04-05T08:34:17Z</time>
      </trkpt>
      <trkpt lat="44.86875" lon="0.3695">
        <ele>62.2</ele>
        <time>2022-04-05T08:34:18Z</time>
      </trkpt>
      <trkpt lat="44.86876" lon="0.36948">
        <ele>62.2</ele>
        <time>2022-04-05T08:34:19Z</time>
      </trkpt>
      <trkpt lat="44.86876" lon="0.36945">
        <ele>62.2</ele>
        <time>2022-04-05T08:34:20Z</time>
      </trkpt>
      <trkpt lat="44.86876" lon="0.36943">
        <ele>62.2</ele>
        <time>2022-04-05T08:34:21Z</time>
      </trkpt>
      <trkpt lat="44.86876" lon="0.36941">
        <ele>62.2</ele>
        <time>2022-04-05T08:34:23Z</time>
      </trkpt>
      <trkpt lat="44.86877" lon="0.36939">
        <ele>62.2</ele>
        <time>2022-04-05T08:34:24Z</time>
      </trkpt>
      <trkpt lat="44.86878" lon="0.36934">
        <ele>62.3</ele>
        <time>2022-04-05T08:34:25Z</time>
      </trkpt>
      <trkpt lat="44.86878" lon="0.36934">
        <ele>62.3</ele>
        <time>2022-04-05T08:34:26Z</time>
      </trkpt>
      <trkpt lat="44.86879" lon="0.36932">
        <ele>62.3</ele>
        <time>2022-04-05T08:34:27Z</time>
      </trkpt>
      <trkpt lat="44.86879" lon="0.3693">
        <ele>62.3</ele>
        <time>2022-04-05T08:34:28Z</time>
      </trkpt>
      <trkpt lat="44.86882" lon="0.36928">
        <ele>62.3</ele>
        <time>2022-04-05T08:34:30Z</time>
      </trkpt>
      <trkpt lat="44.86884" lon="0.36926">
        <ele>62.3</ele>
        <time>2022-04-05T08:34:31Z</time>
      </trkpt>
      <trkpt lat="44.86885" lon="0.36925">
        <ele>62.3</ele>
        <time>2022-04-05T08:34:32Z</time>
      </trkpt>
      <trkpt lat="44.86886" lon="0.36923">
        <ele>62.3</ele>
        <time>2022-04-05T08:34:33Z</time>
      </trkpt>
      <trkpt lat="44.86887" lon="0.36922">
        <ele>62.4</ele>
        <time>2022-04-05T08:34:34Z</time>
      </trkpt>
      <trkpt lat="44.86888" lon="0.36919">
        <ele>62.4</ele>
        <time>2022-04-05T08:34:35Z</time>
      </trkpt>
      <trkpt lat="44.86889" lon="0.36918">
        <ele>62.4</ele>
        <time>2022-04-05T08:34:36Z</time>
      </trkpt>
      <trkpt lat="44.86889" lon="0.36917">
        <ele>62.4</ele>
        <time>2022-04-05T08:34:37Z</time>
      </trkpt>
      <trkpt lat="44.8689" lon="0.36916">
        <ele>62.4</ele>
        <time>2022-04-05T08:34:38Z</time>
      </trkpt>
      <trkpt lat="44.86891" lon="0.36914">
        <ele>62.4</ele>
        <time>2022-04-05T08:34:40Z</time>
      </trkpt>
      <trkpt lat="44.86891" lon="0.36912">
        <ele>62.4</ele>
        <time>2022-04-05T08:34:41Z</time>
      </trkpt>
      <trkpt lat="44.86891" lon="0.36911">
        <ele>62.4</ele>
        <time>2022-04-05T08:34:42Z</time>
      </trkpt>
      <trkpt lat="44.86891" lon="0.3691">
        <ele>62.4</ele>
        <time>2022-04-05T08:34:43Z</time>
      </trkpt>
      <trkpt lat="44.86891" lon="0.36908">
        <ele>62.4</ele>
        <time>2022-04-05T08:34:44Z</time>
      </trkpt>
      <trkpt lat="44.86892" lon="0.36905">
        <ele>62.4</ele>
        <time>2022-04-05T08:34:45Z</time>
      </trkpt>
      <trkpt lat="44.86892" lon="0.36904">
        <ele>62.5</ele>
        <time>2022-04-05T08:34:46Z</time>
      </trkpt>
      <trkpt lat="44.86892" lon="0.36903">
        <ele>62.5</ele>
        <time>2022-04-05T08:34:47Z</time>
      </trkpt>
      <trkpt lat="44.86893" lon="0.369">
        <ele>62.5</ele>
        <time>2022-04-05T08:34:48Z</time>
      </trkpt>
      <trkpt lat="44.86894" lon="0.36899">
        <ele>62.5</ele>
        <time>2022-04-05T08:34:49Z</time>
      </trkpt>
      <trkpt lat="44.86894" lon="0.36897">
        <ele>62.5</ele>
        <time>2022-04-05T08:34:50Z</time>
      </trkpt>
      <trkpt lat="44.86894" lon="0.36896">
        <ele>62.5</ele>
        <time>2022-04-05T08:34:51Z</time>
      </trkpt>
      <trkpt lat="44.86895" lon="0.36894">
        <ele>62.5</ele>
        <time>2022-04-05T08:34:52Z</time>
      </trkpt>
      <trkpt lat="44.86895" lon="0.36892">
        <ele>62.5</ele>
        <time>2022-04-05T08:34:54Z</time>
      </trkpt>
      <trkpt lat="44.86896" lon="0.36888">
        <ele>62.5</ele>
        <time>2022-04-05T08:34:55Z</time>
      </trkpt>
      <trkpt lat="44.86896" lon="0.36887">
        <ele>62.5</ele>
        <time>2022-04-05T08:34:56Z</time>
      </trkpt>
      <trkpt lat="44.86897" lon="0.36886">
        <ele>62.5</ele>
        <time>2022-04-05T08:34:57Z</time>
      </trkpt>
      <trkpt lat="44.86897" lon="0.36884">
        <ele>62.5</ele>
        <time>2022-04-05T08:34:58Z</time>
      </trkpt>
      <trkpt lat="44.86898" lon="0.36883">
        <ele>62.5</ele>
        <time>2022-04-05T08:34:59Z</time>
      </trkpt>
      <trkpt lat="44.86899" lon="0.3688">
        <ele>62.5</ele>
        <time>2022-04-05T08:35:00Z</time>
      </trkpt>
      <trkpt lat="44.86899" lon="0.36879">
        <ele>62.5</ele>
        <time>2022-04-05T08:35:01Z</time>
      </trkpt>
      <trkpt lat="44.86899" lon="0.36878">
        <ele>62.5</ele>
        <time>2022-04-05T08:35:02Z</time>
      </trkpt>
      <trkpt lat="44.869" lon="0.36877">
        <ele>62.5</ele>
        <time>2022-04-05T08:35:03Z</time>
      </trkpt>
      <trkpt lat="44.86901" lon="0.36875">
        <ele>62.5</ele>
        <time>2022-04-05T08:35:04Z</time>
      </trkpt>
      <trkpt lat="44.86901" lon="0.36873">
        <ele>62.5</ele>
        <time>2022-04-05T08:35:05Z</time>
      </trkpt>
      <trkpt lat="44.86901" lon="0.36872">
        <ele>62.5</ele>
        <time>2022-04-05T08:35:06Z</time>
      </trkpt>
      <trkpt lat="44.86902" lon="0.36871">
        <ele>62.5</ele>
        <time>2022-04-05T08:35:07Z</time>
      </trkpt>
      <trkpt lat="44.86902" lon="0.36867">
        <ele>62.5</ele>
        <time>2022-04-05T08:35:08Z</time>
      </trkpt>
      <trkpt lat="44.86903" lon="0.36866">
        <ele>62.5</ele>
        <time>2022-04-05T08:35:09Z</time>
      </trkpt>
      <trkpt lat="44.86903" lon="0.36865">
        <ele>62.5</ele>
        <time>2022-04-05T08:35:10Z</time>
      </trkpt>
      <trkpt lat="44.86903" lon="0.36864">
        <ele>62.5</ele>
        <time>2022-04-05T08:35:11Z</time>
      </trkpt>
      <trkpt lat="44.86904" lon="0.36863">
        <ele>62.5</ele>
        <time>2022-04-05T08:35:12Z</time>
      </trkpt>
      <trkpt lat="44.86904" lon="0.36861">
        <ele>62.5</ele>
        <time>2022-04-05T08:35:13Z</time>
      </trkpt>
      <trkpt lat="44.86905" lon="0.36859">
        <ele>62.5</ele>
        <time>2022-04-05T08:35:14Z</time>
      </trkpt>
      <trkpt lat="44.86906" lon="0.36856">
        <ele>62.5</ele>
        <time>2022-04-05T08:35:15Z</time>
      </trkpt>
      <trkpt lat="44.86906" lon="0.36855">
        <ele>62.5</ele>
        <time>2022-04-05T08:35:17Z</time>
      </trkpt>
      <trkpt lat="44.86907" lon="0.36853">
        <ele>62.5</ele>
        <time>2022-04-05T08:35:18Z</time>
      </trkpt>
      <trkpt lat="44.86908" lon="0.36849">
        <ele>62.5</ele>
        <time>2022-04-05T08:35:19Z</time>
      </trkpt>
      <trkpt lat="44.86909" lon="0.36847">
        <ele>62.5</ele>
        <time>2022-04-05T08:35:20Z</time>
      </trkpt>
      <trkpt lat="44.8691" lon="0.36844">
        <ele>62.4</ele>
        <time>2022-04-05T08:35:21Z</time>
      </trkpt>
      <trkpt lat="44.8691" lon="0.36843">
        <ele>62.4</ele>
        <time>2022-04-05T08:35:22Z</time>
      </trkpt>
      <trkpt lat="44.8691" lon="0.36842">
        <ele>62.4</ele>
        <time>2022-04-05T08:35:23Z</time>
      </trkpt>
      <trkpt lat="44.86912" lon="0.36836">
        <ele>62.4</ele>
        <time>2022-04-05T08:35:25Z</time>
      </trkpt>
      <trkpt lat="44.86913" lon="0.36835">
        <ele>62.4</ele>
        <time>2022-04-05T08:35:26Z</time>
      </trkpt>
      <trkpt lat="44.86913" lon="0.36834">
        <ele>62.4</ele>
        <time>2022-04-05T08:35:27Z</time>
      </trkpt>
      <trkpt lat="44.86914" lon="0.36833">
        <ele>62.4</ele>
        <time>2022-04-05T08:35:28Z</time>
      </trkpt>
      <trkpt lat="44.86914" lon="0.36831">
        <ele>62.3</ele>
        <time>2022-04-05T08:35:29Z</time>
      </trkpt>
      <trkpt lat="44.86915" lon="0.36829">
        <ele>62.3</ele>
        <time>2022-04-05T08:35:30Z</time>
      </trkpt>
      <trkpt lat="44.86916" lon="0.36828">
        <ele>62.3</ele>
        <time>2022-04-05T08:35:31Z</time>
      </trkpt>
      <trkpt lat="44.86916" lon="0.36826">
        <ele>62.3</ele>
        <time>2022-04-05T08:35:32Z</time>
      </trkpt>
      <trkpt lat="44.86917" lon="0.36824">
        <ele>62.3</ele>
        <time>2022-04-05T08:35:33Z</time>
      </trkpt>
      <trkpt lat="44.86918" lon="0.3682">
        <ele>62.3</ele>
        <time>2022-04-05T08:35:35Z</time>
      </trkpt>
      <trkpt lat="44.86918" lon="0.36819">
        <ele>62.3</ele>
        <time>2022-04-05T08:35:36Z</time>
      </trkpt>
      <trkpt lat="44.86919" lon="0.36817">
        <ele>62.3</ele>
        <time>2022-04-05T08:35:37Z</time>
      </trkpt>
      <trkpt lat="44.8692" lon="0.36815">
        <ele>62.2</ele>
        <time>2022-04-05T08:35:39Z</time>
      </trkpt>
      <trkpt lat="44.86921" lon="0.36811">
        <ele>62.2</ele>
        <time>2022-04-05T08:35:40Z</time>
      </trkpt>
      <trkpt lat="44.86921" lon="0.36811">
        <ele>62.2</ele>
        <time>2022-04-05T08:35:41Z</time>
      </trkpt>
      <trkpt lat="44.86921" lon="0.36809">
        <ele>62.2</ele>
        <time>2022-04-05T08:35:42Z</time>
      </trkpt>
      <trkpt lat="44.86921" lon="0.36808">
        <ele>62.2</ele>
        <time>2022-04-05T08:35:43Z</time>
      </trkpt>
      <trkpt lat="44.86923" lon="0.36804">
        <ele>62.2</ele>
        <time>2022-04-05T08:35:45Z</time>
      </trkpt>
      <trkpt lat="44.86923" lon="0.36804">
        <ele>62.2</ele>
        <time>2022-04-05T08:35:46Z</time>
      </trkpt>
      <trkpt lat="44.86923" lon="0.36803">
        <ele>62.2</ele>
        <time>2022-04-05T08:35:47Z</time>
      </trkpt>
      <trkpt lat="44.86923" lon="0.36801">
        <ele>62.1</ele>
        <time>2022-04-05T08:35:48Z</time>
      </trkpt>
      <trkpt lat="44.86925" lon="0.36797">
        <ele>62.1</ele>
        <time>2022-04-05T08:35:50Z</time>
      </trkpt>
      <trkpt lat="44.86925" lon="0.36796">
        <ele>62.1</ele>
        <time>2022-04-05T08:35:51Z</time>
      </trkpt>
      <trkpt lat="44.86925" lon="0.36795">
        <ele>62.1</ele>
        <time>2022-04-05T08:35:52Z</time>
      </trkpt>
      <trkpt lat="44.86925" lon="0.36793">
        <ele>62.1</ele>
        <time>2022-04-05T08:35:53Z</time>
      </trkpt>
      <trkpt lat="44.86926" lon="0.36788">
        <ele>62</ele>
        <time>2022-04-05T08:35:55Z</time>
      </trkpt>
      <trkpt lat="44.86927" lon="0.36786">
        <ele>62</ele>
        <time>2022-04-05T08:35:56Z</time>
      </trkpt>
      <trkpt lat="44.86927" lon="0.36785">
        <ele>62</ele>
        <time>2022-04-05T08:35:57Z</time>
      </trkpt>
      <trkpt lat="44.86928" lon="0.36784">
        <ele>62</ele>
        <time>2022-04-05T08:35:59Z</time>
      </trkpt>
      <trkpt lat="44.86928" lon="0.36782">
        <ele>61.9</ele>
        <time>2022-04-05T08:36:00Z</time>
      </trkpt>
      <trkpt lat="44.86928" lon="0.36781">
        <ele>61.9</ele>
        <time>2022-04-05T08:36:01Z</time>
      </trkpt>
      <trkpt lat="44.86929" lon="0.3678">
        <ele>61.9</ele>
        <time>2022-04-05T08:36:03Z</time>
      </trkpt>
      <trkpt lat="44.86929" lon="0.36779">
        <ele>61.9</ele>
        <time>2022-04-05T08:36:04Z</time>
      </trkpt>
      <trkpt lat="44.8693" lon="0.36778">
        <ele>61.9</ele>
        <time>2022-04-05T08:36:05Z</time>
      </trkpt>
      <trkpt lat="44.8693" lon="0.36776">
        <ele>61.9</ele>
        <time>2022-04-05T08:36:06Z</time>
      </trkpt>
      <trkpt lat="44.86931" lon="0.36774">
        <ele>61.9</ele>
        <time>2022-04-05T08:36:07Z</time>
      </trkpt>
      <trkpt lat="44.86932" lon="0.36772">
        <ele>61.8</ele>
        <time>2022-04-05T08:36:08Z</time>
      </trkpt>
      <trkpt lat="44.86933" lon="0.36769">
        <ele>61.8</ele>
        <time>2022-04-05T08:36:09Z</time>
      </trkpt>
      <trkpt lat="44.86934" lon="0.36768">
        <ele>61.8</ele>
        <time>2022-04-05T08:36:10Z</time>
      </trkpt>
      <trkpt lat="44.86935" lon="0.36765">
        <ele>61.8</ele>
        <time>2022-04-05T08:36:11Z</time>
      </trkpt>
      <trkpt lat="44.86935" lon="0.36764">
        <ele>61.8</ele>
        <time>2022-04-05T08:36:12Z</time>
      </trkpt>
      <trkpt lat="44.86935" lon="0.36762">
        <ele>61.8</ele>
        <time>2022-04-05T08:36:13Z</time>
      </trkpt>
      <trkpt lat="44.86936" lon="0.3676">
        <ele>61.7</ele>
        <time>2022-04-05T08:36:14Z</time>
      </trkpt>
      <trkpt lat="44.86937" lon="0.36758">
        <ele>61.7</ele>
        <time>2022-04-05T08:36:15Z</time>
      </trkpt>
      <trkpt lat="44.86938" lon="0.36756">
        <ele>61.7</ele>
        <time>2022-04-05T08:36:17Z</time>
      </trkpt>
      <trkpt lat="44.86938" lon="0.36755">
        <ele>61.7</ele>
        <time>2022-04-05T08:36:18Z</time>
      </trkpt>
      <trkpt lat="44.86938" lon="0.36753">
        <ele>61.7</ele>
        <time>2022-04-05T08:36:19Z</time>
      </trkpt>
      <trkpt lat="44.8694" lon="0.3675">
        <ele>61.7</ele>
        <time>2022-04-05T08:36:20Z</time>
      </trkpt>
      <trkpt lat="44.8694" lon="0.36749">
        <ele>61.7</ele>
        <time>2022-04-05T08:36:21Z</time>
      </trkpt>
      <trkpt lat="44.8694" lon="0.36747">
        <ele>61.7</ele>
        <time>2022-04-05T08:36:22Z</time>
      </trkpt>
      <trkpt lat="44.86941" lon="0.36746">
        <ele>61.7</ele>
        <time>2022-04-05T08:36:23Z</time>
      </trkpt>
      <trkpt lat="44.86941" lon="0.36743">
        <ele>61.6</ele>
        <time>2022-04-05T08:36:25Z</time>
      </trkpt>
      <trkpt lat="44.86941" lon="0.36742">
        <ele>61.6</ele>
        <time>2022-04-05T08:36:26Z</time>
      </trkpt>
      <trkpt lat="44.86942" lon="0.36741">
        <ele>61.6</ele>
        <time>2022-04-05T08:36:28Z</time>
      </trkpt>
      <trkpt lat="44.86943" lon="0.3674">
        <ele>61.6</ele>
        <time>2022-04-05T08:36:29Z</time>
      </trkpt>
      <trkpt lat="44.86943" lon="0.36739">
        <ele>61.6</ele>
        <time>2022-04-05T08:36:30Z</time>
      </trkpt>
      <trkpt lat="44.86944" lon="0.36737">
        <ele>61.6</ele>
        <time>2022-04-05T08:36:31Z</time>
      </trkpt>
      <trkpt lat="44.86945" lon="0.36736">
        <ele>61.6</ele>
        <time>2022-04-05T08:36:32Z</time>
      </trkpt>
      <trkpt lat="44.86946" lon="0.36735">
        <ele>61.6</ele>
        <time>2022-04-05T08:36:33Z</time>
      </trkpt>
      <trkpt lat="44.86946" lon="0.36734">
        <ele>61.6</ele>
        <time>2022-04-05T08:36:34Z</time>
      </trkpt>
      <trkpt lat="44.86948" lon="0.36731">
        <ele>61.6</ele>
        <time>2022-04-05T08:36:35Z</time>
      </trkpt>
      <trkpt lat="44.86948" lon="0.36731">
        <ele>61.6</ele>
        <time>2022-04-05T08:36:36Z</time>
      </trkpt>
      <trkpt lat="44.86948" lon="0.3673">
        <ele>61.6</ele>
        <time>2022-04-05T08:36:37Z</time>
      </trkpt>
      <trkpt lat="44.86949" lon="0.36728">
        <ele>61.5</ele>
        <time>2022-04-05T08:36:38Z</time>
      </trkpt>
      <trkpt lat="44.8695" lon="0.36727">
        <ele>61.5</ele>
        <time>2022-04-05T08:36:39Z</time>
      </trkpt>
      <trkpt lat="44.86951" lon="0.36724">
        <ele>61.5</ele>
        <time>2022-04-05T08:36:40Z</time>
      </trkpt>
      <trkpt lat="44.86951" lon="0.36723">
        <ele>61.5</ele>
        <time>2022-04-05T08:36:41Z</time>
      </trkpt>
      <trkpt lat="44.86951" lon="0.36722">
        <ele>61.5</ele>
        <time>2022-04-05T08:36:42Z</time>
      </trkpt>
      <trkpt lat="44.86952" lon="0.36721">
        <ele>61.5</ele>
        <time>2022-04-05T08:36:43Z</time>
      </trkpt>
      <trkpt lat="44.86953" lon="0.36719">
        <ele>61.5</ele>
        <time>2022-04-05T08:36:44Z</time>
      </trkpt>
      <trkpt lat="44.86954" lon="0.36716">
        <ele>61.5</ele>
        <time>2022-04-05T08:36:45Z</time>
      </trkpt>
      <trkpt lat="44.86955" lon="0.36716">
        <ele>61.5</ele>
        <time>2022-04-05T08:36:46Z</time>
      </trkpt>
      <trkpt lat="44.86956" lon="0.36713">
        <ele>61.4</ele>
        <time>2022-04-05T08:36:48Z</time>
      </trkpt>
      <trkpt lat="44.86957" lon="0.36712">
        <ele>61.4</ele>
        <time>2022-04-05T08:36:49Z</time>
      </trkpt>
      <trkpt lat="44.86957" lon="0.36711">
        <ele>61.4</ele>
        <time>2022-04-05T08:36:50Z</time>
      </trkpt>
      <trkpt lat="44.86958" lon="0.36709">
        <ele>61.4</ele>
        <time>2022-04-05T08:36:51Z</time>
      </trkpt>
      <trkpt lat="44.86959" lon="0.36707">
        <ele>61.4</ele>
        <time>2022-04-05T08:36:52Z</time>
      </trkpt>
      <trkpt lat="44.8696" lon="0.36706">
        <ele>61.4</ele>
        <time>2022-04-05T08:36:53Z</time>
      </trkpt>
      <trkpt lat="44.86961" lon="0.36704">
        <ele>61.4</ele>
        <time>2022-04-05T08:36:54Z</time>
      </trkpt>
      <trkpt lat="44.86963" lon="0.36701">
        <ele>61.3</ele>
        <time>2022-04-05T08:36:55Z</time>
      </trkpt>
      <trkpt lat="44.86964" lon="0.367">
        <ele>61.3</ele>
        <time>2022-04-05T08:36:56Z</time>
      </trkpt>
      <trkpt lat="44.86965" lon="0.36699">
        <ele>61.3</ele>
        <time>2022-04-05T08:36:57Z</time>
      </trkpt>
      <trkpt lat="44.86966" lon="0.36697">
        <ele>61.3</ele>
        <time>2022-04-05T08:36:59Z</time>
      </trkpt>
      <trkpt lat="44.86968" lon="0.36694">
        <ele>61.3</ele>
        <time>2022-04-05T08:37:00Z</time>
      </trkpt>
      <trkpt lat="44.8697" lon="0.36693">
        <ele>61.3</ele>
        <time>2022-04-05T08:37:01Z</time>
      </trkpt>
      <trkpt lat="44.8697" lon="0.36692">
        <ele>61.3</ele>
        <time>2022-04-05T08:37:02Z</time>
      </trkpt>
      <trkpt lat="44.86971" lon="0.36691">
        <ele>61.3</ele>
        <time>2022-04-05T08:37:03Z</time>
      </trkpt>
      <trkpt lat="44.86973" lon="0.36688">
        <ele>61.3</ele>
        <time>2022-04-05T08:37:05Z</time>
      </trkpt>
      <trkpt lat="44.86974" lon="0.36688">
        <ele>61.3</ele>
        <time>2022-04-05T08:37:06Z</time>
      </trkpt>
      <trkpt lat="44.86975" lon="0.36687">
        <ele>61.3</ele>
        <time>2022-04-05T08:37:07Z</time>
      </trkpt>
      <trkpt lat="44.86976" lon="0.36685">
        <ele>61.3</ele>
        <time>2022-04-05T08:37:08Z</time>
      </trkpt>
      <trkpt lat="44.86977" lon="0.36684">
        <ele>61.3</ele>
        <time>2022-04-05T08:37:09Z</time>
      </trkpt>
      <trkpt lat="44.86979" lon="0.36683">
        <ele>61.3</ele>
        <time>2022-04-05T08:37:11Z</time>
      </trkpt>
      <trkpt lat="44.8698" lon="0.36681">
        <ele>61.3</ele>
        <time>2022-04-05T08:37:12Z</time>
      </trkpt>
      <trkpt lat="44.86981" lon="0.3668">
        <ele>61.3</ele>
        <time>2022-04-05T08:37:13Z</time>
      </trkpt>
      <trkpt lat="44.86981" lon="0.36679">
        <ele>61.3</ele>
        <time>2022-04-05T08:37:14Z</time>
      </trkpt>
      <trkpt lat="44.86983" lon="0.36677">
        <ele>61.3</ele>
        <time>2022-04-05T08:37:15Z</time>
      </trkpt>
      <trkpt lat="44.86983" lon="0.36676">
        <ele>61.3</ele>
        <time>2022-04-05T08:37:16Z</time>
      </trkpt>
      <trkpt lat="44.86984" lon="0.36675">
        <ele>61.3</ele>
        <time>2022-04-05T08:37:18Z</time>
      </trkpt>
      <trkpt lat="44.86985" lon="0.36674">
        <ele>61.3</ele>
        <time>2022-04-05T08:37:19Z</time>
      </trkpt>
      <trkpt lat="44.86987" lon="0.36672">
        <ele>61.3</ele>
        <time>2022-04-05T08:37:21Z</time>
      </trkpt>
      <trkpt lat="44.86989" lon="0.36671">
        <ele>61.3</ele>
        <time>2022-04-05T08:37:22Z</time>
      </trkpt>
      <trkpt lat="44.8699" lon="0.3667">
        <ele>61.3</ele>
        <time>2022-04-05T08:37:23Z</time>
      </trkpt>
      <trkpt lat="44.86991" lon="0.3667">
        <ele>61.3</ele>
        <time>2022-04-05T08:37:24Z</time>
      </trkpt>
      <trkpt lat="44.86991" lon="0.36669">
        <ele>61.3</ele>
        <time>2022-04-05T08:37:25Z</time>
      </trkpt>
      <trkpt lat="44.86993" lon="0.36667">
        <ele>61.3</ele>
        <time>2022-04-05T08:37:26Z</time>
      </trkpt>
      <trkpt lat="44.86994" lon="0.36666">
        <ele>61.3</ele>
        <time>2022-04-05T08:37:27Z</time>
      </trkpt>
      <trkpt lat="44.86995" lon="0.36665">
        <ele>61.3</ele>
        <time>2022-04-05T08:37:28Z</time>
      </trkpt>
      <trkpt lat="44.86996" lon="0.36664">
        <ele>61.3</ele>
        <time>2022-04-05T08:37:29Z</time>
      </trkpt>
      <trkpt lat="44.86996" lon="0.36664">
        <ele>61.3</ele>
        <time>2022-04-05T08:37:30Z</time>
      </trkpt>
      <trkpt lat="44.86999" lon="0.36661">
        <ele>61.3</ele>
        <time>2022-04-05T08:37:31Z</time>
      </trkpt>
      <trkpt lat="44.86999" lon="0.36661">
        <ele>61.3</ele>
        <time>2022-04-05T08:37:32Z</time>
      </trkpt>
      <trkpt lat="44.87" lon="0.3666">
        <ele>61.3</ele>
        <time>2022-04-05T08:37:33Z</time>
      </trkpt>
      <trkpt lat="44.87001" lon="0.36659">
        <ele>61.3</ele>
        <time>2022-04-05T08:37:34Z</time>
      </trkpt>
      <trkpt lat="44.87001" lon="0.36659">
        <ele>61.3</ele>
        <time>2022-04-05T08:37:35Z</time>
      </trkpt>
      <trkpt lat="44.87002" lon="0.36657">
        <ele>61.3</ele>
        <time>2022-04-05T08:37:36Z</time>
      </trkpt>
      <trkpt lat="44.87003" lon="0.36657">
        <ele>61.3</ele>
        <time>2022-04-05T08:37:37Z</time>
      </trkpt>
      <trkpt lat="44.87003" lon="0.36656">
        <ele>61.3</ele>
        <time>2022-04-05T08:37:38Z</time>
      </trkpt>
      <trkpt lat="44.87005" lon="0.36654">
        <ele>61.3</ele>
        <time>2022-04-05T08:37:39Z</time>
      </trkpt>
      <trkpt lat="44.87005" lon="0.36653">
        <ele>61.3</ele>
        <time>2022-04-05T08:37:41Z</time>
      </trkpt>
      <trkpt lat="44.87006" lon="0.36652">
        <ele>61.3</ele>
        <time>2022-04-05T08:37:42Z</time>
      </trkpt>
      <trkpt lat="44.87007" lon="0.36651">
        <ele>61.3</ele>
        <time>2022-04-05T08:37:43Z</time>
      </trkpt>
      <trkpt lat="44.87007" lon="0.3665">
        <ele>61.3</ele>
        <time>2022-04-05T08:37:44Z</time>
      </trkpt>
      <trkpt lat="44.87008" lon="0.36648">
        <ele>61.3</ele>
        <time>2022-04-05T08:37:45Z</time>
      </trkpt>
      <trkpt lat="44.87009" lon="0.36647">
        <ele>61.3</ele>
        <time>2022-04-05T08:37:46Z</time>
      </trkpt>
      <trkpt lat="44.8701" lon="0.36645">
        <ele>61.3</ele>
        <time>2022-04-05T08:37:47Z</time>
      </trkpt>
      <trkpt lat="44.87011" lon="0.36644">
        <ele>61.3</ele>
        <time>2022-04-05T08:37:48Z</time>
      </trkpt>
      <trkpt lat="44.87012" lon="0.36643">
        <ele>61.3</ele>
        <time>2022-04-05T08:37:49Z</time>
      </trkpt>
      <trkpt lat="44.87013" lon="0.36642">
        <ele>61.3</ele>
        <time>2022-04-05T08:37:50Z</time>
      </trkpt>
      <trkpt lat="44.87014" lon="0.36641">
        <ele>61.3</ele>
        <time>2022-04-05T08:37:51Z</time>
      </trkpt>
      <trkpt lat="44.87015" lon="0.3664">
        <ele>61.3</ele>
        <time>2022-04-05T08:37:52Z</time>
      </trkpt>
      <trkpt lat="44.87016" lon="0.36639">
        <ele>61.3</ele>
        <time>2022-04-05T08:37:53Z</time>
      </trkpt>
      <trkpt lat="44.87017" lon="0.36637">
        <ele>61.3</ele>
        <time>2022-04-05T08:37:54Z</time>
      </trkpt>
      <trkpt lat="44.87018" lon="0.36636">
        <ele>61.3</ele>
        <time>2022-04-05T08:37:56Z</time>
      </trkpt>
      <trkpt lat="44.87019" lon="0.36635">
        <ele>61.3</ele>
        <time>2022-04-05T08:37:57Z</time>
      </trkpt>
      <trkpt lat="44.8702" lon="0.36634">
        <ele>61.3</ele>
        <time>2022-04-05T08:37:58Z</time>
      </trkpt>
      <trkpt lat="44.87021" lon="0.36633">
        <ele>61.3</ele>
        <time>2022-04-05T08:37:59Z</time>
      </trkpt>
      <trkpt lat="44.87022" lon="0.36631">
        <ele>61.3</ele>
        <time>2022-04-05T08:38:00Z</time>
      </trkpt>
      <trkpt lat="44.87023" lon="0.3663">
        <ele>61.3</ele>
        <time>2022-04-05T08:38:01Z</time>
      </trkpt>
      <trkpt lat="44.87023" lon="0.36629">
        <ele>61.3</ele>
        <time>2022-04-05T08:38:02Z</time>
      </trkpt>
      <trkpt lat="44.87024" lon="0.36628">
        <ele>61.3</ele>
        <time>2022-04-05T08:38:03Z</time>
      </trkpt>
      <trkpt lat="44.87025" lon="0.36627">
        <ele>61.3</ele>
        <time>2022-04-05T08:38:04Z</time>
      </trkpt>
      <trkpt lat="44.87026" lon="0.36627">
        <ele>61.3</ele>
        <time>2022-04-05T08:38:05Z</time>
      </trkpt>
      <trkpt lat="44.87028" lon="0.36625">
        <ele>61.3</ele>
        <time>2022-04-05T08:38:06Z</time>
      </trkpt>
      <trkpt lat="44.87029" lon="0.36625">
        <ele>61.3</ele>
        <time>2022-04-05T08:38:07Z</time>
      </trkpt>
      <trkpt lat="44.87029" lon="0.36624">
        <ele>61.3</ele>
        <time>2022-04-05T08:38:08Z</time>
      </trkpt>
      <trkpt lat="44.8703" lon="0.36623">
        <ele>61.3</ele>
        <time>2022-04-05T08:38:09Z</time>
      </trkpt>
      <trkpt lat="44.87032" lon="0.36621">
        <ele>61.2</ele>
        <time>2022-04-05T08:38:11Z</time>
      </trkpt>
      <trkpt lat="44.87032" lon="0.3662">
        <ele>61.2</ele>
        <time>2022-04-05T08:38:12Z</time>
      </trkpt>
      <trkpt lat="44.87033" lon="0.36619">
        <ele>61.2</ele>
        <time>2022-04-05T08:38:13Z</time>
      </trkpt>
      <trkpt lat="44.87034" lon="0.36618">
        <ele>61.2</ele>
        <time>2022-04-05T08:38:14Z</time>
      </trkpt>
      <trkpt lat="44.87035" lon="0.36618">
        <ele>61.2</ele>
        <time>2022-04-05T08:38:15Z</time>
      </trkpt>
      <trkpt lat="44.87036" lon="0.36616">
        <ele>61.2</ele>
        <time>2022-04-05T08:38:16Z</time>
      </trkpt>
      <trkpt lat="44.87037" lon="0.36615">
        <ele>61.2</ele>
        <time>2022-04-05T08:38:17Z</time>
      </trkpt>
      <trkpt lat="44.87039" lon="0.36614">
        <ele>61.2</ele>
        <time>2022-04-05T08:38:18Z</time>
      </trkpt>
      <trkpt lat="44.87039" lon="0.36613">
        <ele>61.2</ele>
        <time>2022-04-05T08:38:19Z</time>
      </trkpt>
      <trkpt lat="44.8704" lon="0.36612">
        <ele>61.2</ele>
        <time>2022-04-05T08:38:20Z</time>
      </trkpt>
      <trkpt lat="44.87041" lon="0.36611">
        <ele>61.2</ele>
        <time>2022-04-05T08:38:21Z</time>
      </trkpt>
      <trkpt lat="44.87042" lon="0.3661">
        <ele>61.2</ele>
        <time>2022-04-05T08:38:22Z</time>
      </trkpt>
      <trkpt lat="44.87042" lon="0.36609">
        <ele>61.2</ele>
        <time>2022-04-05T08:38:23Z</time>
      </trkpt>
      <trkpt lat="44.87044" lon="0.36607">
        <ele>61.2</ele>
        <time>2022-04-05T08:38:24Z</time>
      </trkpt>
      <trkpt lat="44.87045" lon="0.36606">
        <ele>61.2</ele>
        <time>2022-04-05T08:38:25Z</time>
      </trkpt>
      <trkpt lat="44.87045" lon="0.36605">
        <ele>61.2</ele>
        <time>2022-04-05T08:38:26Z</time>
      </trkpt>
      <trkpt lat="44.87046" lon="0.36604">
        <ele>61.2</ele>
        <time>2022-04-05T08:38:27Z</time>
      </trkpt>
      <trkpt lat="44.87047" lon="0.36603">
        <ele>61.2</ele>
        <time>2022-04-05T08:38:28Z</time>
      </trkpt>
      <trkpt lat="44.87048" lon="0.36601">
        <ele>61.2</ele>
        <time>2022-04-05T08:38:29Z</time>
      </trkpt>
      <trkpt lat="44.87049" lon="0.366">
        <ele>61.2</ele>
        <time>2022-04-05T08:38:30Z</time>
      </trkpt>
      <trkpt lat="44.8705" lon="0.36599">
        <ele>61.2</ele>
        <time>2022-04-05T08:38:31Z</time>
      </trkpt>
      <trkpt lat="44.8705" lon="0.36598">
        <ele>61.1</ele>
        <time>2022-04-05T08:38:32Z</time>
      </trkpt>
      <trkpt lat="44.87051" lon="0.36597">
        <ele>61.1</ele>
        <time>2022-04-05T08:38:33Z</time>
      </trkpt>
      <trkpt lat="44.87052" lon="0.36595">
        <ele>61.1</ele>
        <time>2022-04-05T08:38:34Z</time>
      </trkpt>
      <trkpt lat="44.87054" lon="0.36592">
        <ele>61.1</ele>
        <time>2022-04-05T08:38:35Z</time>
      </trkpt>
      <trkpt lat="44.87055" lon="0.36589">
        <ele>61.1</ele>
        <time>2022-04-05T08:38:36Z</time>
      </trkpt>
      <trkpt lat="44.87056" lon="0.36588">
        <ele>61.1</ele>
        <time>2022-04-05T08:38:38Z</time>
      </trkpt>
      <trkpt lat="44.87056" lon="0.36587">
        <ele>61.1</ele>
        <time>2022-04-05T08:38:39Z</time>
      </trkpt>
      <trkpt lat="44.87058" lon="0.36584">
        <ele>61.1</ele>
        <time>2022-04-05T08:38:40Z</time>
      </trkpt>
      <trkpt lat="44.87059" lon="0.36583">
        <ele>61.1</ele>
        <time>2022-04-05T08:38:41Z</time>
      </trkpt>
      <trkpt lat="44.87059" lon="0.36582">
        <ele>61.1</ele>
        <time>2022-04-05T08:38:42Z</time>
      </trkpt>
      <trkpt lat="44.8706" lon="0.36581">
        <ele>61.1</ele>
        <time>2022-04-05T08:38:43Z</time>
      </trkpt>
      <trkpt lat="44.8706" lon="0.36579">
        <ele>61.1</ele>
        <time>2022-04-05T08:38:44Z</time>
      </trkpt>
      <trkpt lat="44.87061" lon="0.36578">
        <ele>61.1</ele>
        <time>2022-04-05T08:38:45Z</time>
      </trkpt>
      <trkpt lat="44.87062" lon="0.36577">
        <ele>61.1</ele>
        <time>2022-04-05T08:38:46Z</time>
      </trkpt>
      <trkpt lat="44.87062" lon="0.36575">
        <ele>61.1</ele>
        <time>2022-04-05T08:38:47Z</time>
      </trkpt>
      <trkpt lat="44.87063" lon="0.36574">
        <ele>61.1</ele>
        <time>2022-04-05T08:38:48Z</time>
      </trkpt>
      <trkpt lat="44.87063" lon="0.36571">
        <ele>61</ele>
        <time>2022-04-05T08:38:50Z</time>
      </trkpt>
      <trkpt lat="44.87064" lon="0.36568">
        <ele>61</ele>
        <time>2022-04-05T08:38:51Z</time>
      </trkpt>
      <trkpt lat="44.87065" lon="0.36567">
        <ele>61</ele>
        <time>2022-04-05T08:38:52Z</time>
      </trkpt>
      <trkpt lat="44.87065" lon="0.36565">
        <ele>61</ele>
        <time>2022-04-05T08:38:53Z</time>
      </trkpt>
      <trkpt lat="44.87065" lon="0.36563">
        <ele>61</ele>
        <time>2022-04-05T08:38:54Z</time>
      </trkpt>
      <trkpt lat="44.87066" lon="0.3656">
        <ele>61</ele>
        <time>2022-04-05T08:38:55Z</time>
      </trkpt>
      <trkpt lat="44.87067" lon="0.36558">
        <ele>61</ele>
        <time>2022-04-05T08:38:56Z</time>
      </trkpt>
      <trkpt lat="44.87068" lon="0.36555">
        <ele>61</ele>
        <time>2022-04-05T08:38:57Z</time>
      </trkpt>
      <trkpt lat="44.87069" lon="0.36554">
        <ele>61</ele>
        <time>2022-04-05T08:38:59Z</time>
      </trkpt>
      <trkpt lat="44.8707" lon="0.36552">
        <ele>61</ele>
        <time>2022-04-05T08:39:00Z</time>
      </trkpt>
      <trkpt lat="44.8707" lon="0.3655">
        <ele>61</ele>
        <time>2022-04-05T08:39:01Z</time>
      </trkpt>
      <trkpt lat="44.87071" lon="0.36549">
        <ele>61</ele>
        <time>2022-04-05T08:39:02Z</time>
      </trkpt>
      <trkpt lat="44.87071" lon="0.36547">
        <ele>60.9</ele>
        <time>2022-04-05T08:39:03Z</time>
      </trkpt>
      <trkpt lat="44.87071" lon="0.36546">
        <ele>60.9</ele>
        <time>2022-04-05T08:39:04Z</time>
      </trkpt>
      <trkpt lat="44.87072" lon="0.36543">
        <ele>60.9</ele>
        <time>2022-04-05T08:39:05Z</time>
      </trkpt>
      <trkpt lat="44.87073" lon="0.36541">
        <ele>60.9</ele>
        <time>2022-04-05T08:39:06Z</time>
      </trkpt>
      <trkpt lat="44.87074" lon="0.36539">
        <ele>60.9</ele>
        <time>2022-04-05T08:39:07Z</time>
      </trkpt>
      <trkpt lat="44.87074" lon="0.36537">
        <ele>60.9</ele>
        <time>2022-04-05T08:39:09Z</time>
      </trkpt>
      <trkpt lat="44.87075" lon="0.36535">
        <ele>60.9</ele>
        <time>2022-04-05T08:39:10Z</time>
      </trkpt>
      <trkpt lat="44.87075" lon="0.36532">
        <ele>60.9</ele>
        <time>2022-04-05T08:39:11Z</time>
      </trkpt>
      <trkpt lat="44.87076" lon="0.3653">
        <ele>60.9</ele>
        <time>2022-04-05T08:39:12Z</time>
      </trkpt>
      <trkpt lat="44.87076" lon="0.36529">
        <ele>60.9</ele>
        <time>2022-04-05T08:39:13Z</time>
      </trkpt>
      <trkpt lat="44.87077" lon="0.36527">
        <ele>60.9</ele>
        <time>2022-04-05T08:39:14Z</time>
      </trkpt>
      <trkpt lat="44.87078" lon="0.36526">
        <ele>60.8</ele>
        <time>2022-04-05T08:39:15Z</time>
      </trkpt>
      <trkpt lat="44.87078" lon="0.36524">
        <ele>60.8</ele>
        <time>2022-04-05T08:39:16Z</time>
      </trkpt>
      <trkpt lat="44.87079" lon="0.36523">
        <ele>60.8</ele>
        <time>2022-04-05T08:39:18Z</time>
      </trkpt>
      <trkpt lat="44.8708" lon="0.36522">
        <ele>60.8</ele>
        <time>2022-04-05T08:39:19Z</time>
      </trkpt>
      <trkpt lat="44.87081" lon="0.3652">
        <ele>60.8</ele>
        <time>2022-04-05T08:39:20Z</time>
      </trkpt>
      <trkpt lat="44.87082" lon="0.36518">
        <ele>60.8</ele>
        <time>2022-04-05T08:39:21Z</time>
      </trkpt>
      <trkpt lat="44.87082" lon="0.36517">
        <ele>60.8</ele>
        <time>2022-04-05T08:39:22Z</time>
      </trkpt>
      <trkpt lat="44.87083" lon="0.36515">
        <ele>60.8</ele>
        <time>2022-04-05T08:39:23Z</time>
      </trkpt>
      <trkpt lat="44.87083" lon="0.36514">
        <ele>60.8</ele>
        <time>2022-04-05T08:39:24Z</time>
      </trkpt>
      <trkpt lat="44.87084" lon="0.36513">
        <ele>60.8</ele>
        <time>2022-04-05T08:39:25Z</time>
      </trkpt>
      <trkpt lat="44.87085" lon="0.3651">
        <ele>60.8</ele>
        <time>2022-04-05T08:39:26Z</time>
      </trkpt>
      <trkpt lat="44.87086" lon="0.36509">
        <ele>60.8</ele>
        <time>2022-04-05T08:39:27Z</time>
      </trkpt>
      <trkpt lat="44.87086" lon="0.36508">
        <ele>60.7</ele>
        <time>2022-04-05T08:39:28Z</time>
      </trkpt>
      <trkpt lat="44.87087" lon="0.36507">
        <ele>60.7</ele>
        <time>2022-04-05T08:39:29Z</time>
      </trkpt>
      <trkpt lat="44.87087" lon="0.36505">
        <ele>60.7</ele>
        <time>2022-04-05T08:39:31Z</time>
      </trkpt>
      <trkpt lat="44.87088" lon="0.36506">
        <ele>60.7</ele>
        <time>2022-04-05T08:39:32Z</time>
      </trkpt>
      <trkpt lat="44.87089" lon="0.36505">
        <ele>60.7</ele>
        <time>2022-04-05T08:39:33Z</time>
      </trkpt>
      <trkpt lat="44.87091" lon="0.36503">
        <ele>60.7</ele>
        <time>2022-04-05T08:39:34Z</time>
      </trkpt>
      <trkpt lat="44.87092" lon="0.36502">
        <ele>60.7</ele>
        <time>2022-04-05T08:39:35Z</time>
      </trkpt>
      <trkpt lat="44.87093" lon="0.36501">
        <ele>60.7</ele>
        <time>2022-04-05T08:39:36Z</time>
      </trkpt>
      <trkpt lat="44.87093" lon="0.36501">
        <ele>60.7</ele>
        <time>2022-04-05T08:39:37Z</time>
      </trkpt>
      <trkpt lat="44.87094" lon="0.365">
        <ele>60.7</ele>
        <time>2022-04-05T08:39:38Z</time>
      </trkpt>
      <trkpt lat="44.87095" lon="0.36499">
        <ele>60.7</ele>
        <time>2022-04-05T08:39:39Z</time>
      </trkpt>
      <trkpt lat="44.87096" lon="0.36497">
        <ele>60.7</ele>
        <time>2022-04-05T08:39:40Z</time>
      </trkpt>
      <trkpt lat="44.87098" lon="0.36495">
        <ele>60.7</ele>
        <time>2022-04-05T08:39:41Z</time>
      </trkpt>
      <trkpt lat="44.87099" lon="0.36494">
        <ele>60.6</ele>
        <time>2022-04-05T08:39:42Z</time>
      </trkpt>
      <trkpt lat="44.87099" lon="0.36493">
        <ele>60.6</ele>
        <time>2022-04-05T08:39:43Z</time>
      </trkpt>
      <trkpt lat="44.87101" lon="0.36492">
        <ele>60.6</ele>
        <time>2022-04-05T08:39:44Z</time>
      </trkpt>
      <trkpt lat="44.87102" lon="0.3649">
        <ele>60.6</ele>
        <time>2022-04-05T08:39:45Z</time>
      </trkpt>
      <trkpt lat="44.87103" lon="0.36489">
        <ele>60.6</ele>
        <time>2022-04-05T08:39:46Z</time>
      </trkpt>
      <trkpt lat="44.87104" lon="0.36488">
        <ele>60.6</ele>
        <time>2022-04-05T08:39:47Z</time>
      </trkpt>
      <trkpt lat="44.87104" lon="0.36486">
        <ele>60.6</ele>
        <time>2022-04-05T08:39:48Z</time>
      </trkpt>
      <trkpt lat="44.87105" lon="0.36485">
        <ele>60.6</ele>
        <time>2022-04-05T08:39:49Z</time>
      </trkpt>
      <trkpt lat="44.87106" lon="0.36484">
        <ele>60.6</ele>
        <time>2022-04-05T08:39:50Z</time>
      </trkpt>
      <trkpt lat="44.87108" lon="0.36482">
        <ele>60.6</ele>
        <time>2022-04-05T08:39:51Z</time>
      </trkpt>
      <trkpt lat="44.87108" lon="0.36481">
        <ele>60.6</ele>
        <time>2022-04-05T08:39:52Z</time>
      </trkpt>
      <trkpt lat="44.87109" lon="0.3648">
        <ele>60.6</ele>
        <time>2022-04-05T08:39:53Z</time>
      </trkpt>
      <trkpt lat="44.8711" lon="0.36479">
        <ele>60.6</ele>
        <time>2022-04-05T08:39:54Z</time>
      </trkpt>
      <trkpt lat="44.87111" lon="0.36477">
        <ele>60.5</ele>
        <time>2022-04-05T08:39:55Z</time>
      </trkpt>
      <trkpt lat="44.87112" lon="0.36475">
        <ele>60.5</ele>
        <time>2022-04-05T08:39:56Z</time>
      </trkpt>
      <trkpt lat="44.87113" lon="0.36475">
        <ele>60.5</ele>
        <time>2022-04-05T08:39:57Z</time>
      </trkpt>
      <trkpt lat="44.87114" lon="0.36474">
        <ele>60.5</ele>
        <time>2022-04-05T08:39:58Z</time>
      </trkpt>
      <trkpt lat="44.87115" lon="0.36473">
        <ele>60.5</ele>
        <time>2022-04-05T08:39:59Z</time>
      </trkpt>
      <trkpt lat="44.87117" lon="0.36472">
        <ele>60.5</ele>
        <time>2022-04-05T08:40:00Z</time>
      </trkpt>
      <trkpt lat="44.87118" lon="0.36471">
        <ele>60.5</ele>
        <time>2022-04-05T08:40:01Z</time>
      </trkpt>
      <trkpt lat="44.87119" lon="0.36471">
        <ele>60.5</ele>
        <time>2022-04-05T08:40:03Z</time>
      </trkpt>
      <trkpt lat="44.87119" lon="0.3647">
        <ele>60.5</ele>
        <time>2022-04-05T08:40:04Z</time>
      </trkpt>
      <trkpt lat="44.8712" lon="0.36469">
        <ele>60.5</ele>
        <time>2022-04-05T08:40:05Z</time>
      </trkpt>
      <trkpt lat="44.87121" lon="0.36469">
        <ele>60.5</ele>
        <time>2022-04-05T08:40:06Z</time>
      </trkpt>
      <trkpt lat="44.87122" lon="0.36468">
        <ele>60.5</ele>
        <time>2022-04-05T08:40:07Z</time>
      </trkpt>
      <trkpt lat="44.87123" lon="0.36466">
        <ele>60.5</ele>
        <time>2022-04-05T08:40:08Z</time>
      </trkpt>
      <trkpt lat="44.87124" lon="0.36465">
        <ele>60.5</ele>
        <time>2022-04-05T08:40:09Z</time>
      </trkpt>
      <trkpt lat="44.87125" lon="0.36464">
        <ele>60.5</ele>
        <time>2022-04-05T08:40:10Z</time>
      </trkpt>
      <trkpt lat="44.87126" lon="0.36462">
        <ele>60.5</ele>
        <time>2022-04-05T08:40:11Z</time>
      </trkpt>
      <trkpt lat="44.87128" lon="0.3646">
        <ele>60.5</ele>
        <time>2022-04-05T08:40:13Z</time>
      </trkpt>
      <trkpt lat="44.87129" lon="0.36459">
        <ele>60.5</ele>
        <time>2022-04-05T08:40:14Z</time>
      </trkpt>
      <trkpt lat="44.87129" lon="0.36459">
        <ele>60.5</ele>
        <time>2022-04-05T08:40:15Z</time>
      </trkpt>
      <trkpt lat="44.87131" lon="0.36457">
        <ele>60.4</ele>
        <time>2022-04-05T08:40:16Z</time>
      </trkpt>
      <trkpt lat="44.87132" lon="0.36456">
        <ele>60.4</ele>
        <time>2022-04-05T08:40:17Z</time>
      </trkpt>
      <trkpt lat="44.87133" lon="0.36454">
        <ele>60.4</ele>
        <time>2022-04-05T08:40:18Z</time>
      </trkpt>
      <trkpt lat="44.87134" lon="0.36453">
        <ele>60.4</ele>
        <time>2022-04-05T08:40:20Z</time>
      </trkpt>
      <trkpt lat="44.87136" lon="0.36451">
        <ele>60.4</ele>
        <time>2022-04-05T08:40:21Z</time>
      </trkpt>
      <trkpt lat="44.87137" lon="0.3645">
        <ele>60.4</ele>
        <time>2022-04-05T08:40:22Z</time>
      </trkpt>
      <trkpt lat="44.87138" lon="0.36449">
        <ele>60.4</ele>
        <time>2022-04-05T08:40:23Z</time>
      </trkpt>
      <trkpt lat="44.87139" lon="0.36448">
        <ele>60.4</ele>
        <time>2022-04-05T08:40:24Z</time>
      </trkpt>
      <trkpt lat="44.87142" lon="0.36447">
        <ele>60.4</ele>
        <time>2022-04-05T08:40:26Z</time>
      </trkpt>
      <trkpt lat="44.87143" lon="0.36446">
        <ele>60.4</ele>
        <time>2022-04-05T08:40:27Z</time>
      </trkpt>
      <trkpt lat="44.87145" lon="0.36445">
        <ele>60.4</ele>
        <time>2022-04-05T08:40:28Z</time>
      </trkpt>
      <trkpt lat="44.87147" lon="0.36442">
        <ele>60.3</ele>
        <time>2022-04-05T08:40:30Z</time>
      </trkpt>
      <trkpt lat="44.87148" lon="0.36441">
        <ele>60.3</ele>
        <time>2022-04-05T08:40:31Z</time>
      </trkpt>
      <trkpt lat="44.87149" lon="0.3644">
        <ele>60.3</ele>
        <time>2022-04-05T08:40:32Z</time>
      </trkpt>
      <trkpt lat="44.8715" lon="0.36439">
        <ele>60.3</ele>
        <time>2022-04-05T08:40:33Z</time>
      </trkpt>
      <trkpt lat="44.87151" lon="0.36438">
        <ele>60.3</ele>
        <time>2022-04-05T08:40:34Z</time>
      </trkpt>
      <trkpt lat="44.87152" lon="0.36437">
        <ele>60.3</ele>
        <time>2022-04-05T08:40:35Z</time>
      </trkpt>
      <trkpt lat="44.87154" lon="0.36436">
        <ele>60.3</ele>
        <time>2022-04-05T08:40:36Z</time>
      </trkpt>
      <trkpt lat="44.87154" lon="0.36436">
        <ele>60.3</ele>
        <time>2022-04-05T08:40:37Z</time>
      </trkpt>
      <trkpt lat="44.87155" lon="0.36436">
        <ele>60.3</ele>
        <time>2022-04-05T08:40:38Z</time>
      </trkpt>
      <trkpt lat="44.87156" lon="0.36435">
        <ele>60.3</ele>
        <time>2022-04-05T08:40:39Z</time>
      </trkpt>
      <trkpt lat="44.87157" lon="0.36434">
        <ele>60.2</ele>
        <time>2022-04-05T08:40:40Z</time>
      </trkpt>
      <trkpt lat="44.87158" lon="0.36434">
        <ele>60.2</ele>
        <time>2022-04-05T08:40:41Z</time>
      </trkpt>
      <trkpt lat="44.87159" lon="0.36433">
        <ele>60.2</ele>
        <time>2022-04-05T08:40:43Z</time>
      </trkpt>
      <trkpt lat="44.8716" lon="0.36432">
        <ele>60.2</ele>
        <time>2022-04-05T08:40:44Z</time>
      </trkpt>
      <trkpt lat="44.87161" lon="0.36431">
        <ele>60.2</ele>
        <time>2022-04-05T08:40:45Z</time>
      </trkpt>
      <trkpt lat="44.87163" lon="0.36431">
        <ele>60.1</ele>
        <time>2022-04-05T08:40:46Z</time>
      </trkpt>
      <trkpt lat="44.87165" lon="0.36429">
        <ele>60.1</ele>
        <time>2022-04-05T08:40:47Z</time>
      </trkpt>
      <trkpt lat="44.87166" lon="0.36429">
        <ele>60.1</ele>
        <time>2022-04-05T08:40:48Z</time>
      </trkpt>
      <trkpt lat="44.87167" lon="0.36428">
        <ele>60.1</ele>
        <time>2022-04-05T08:40:49Z</time>
      </trkpt>
      <trkpt lat="44.87168" lon="0.36428">
        <ele>60</ele>
        <time>2022-04-05T08:40:50Z</time>
      </trkpt>
      <trkpt lat="44.87169" lon="0.36426">
        <ele>60</ele>
        <time>2022-04-05T08:40:51Z</time>
      </trkpt>
      <trkpt lat="44.87171" lon="0.36425">
        <ele>60</ele>
        <time>2022-04-05T08:40:52Z</time>
      </trkpt>
      <trkpt lat="44.87172" lon="0.36425">
        <ele>60</ele>
        <time>2022-04-05T08:40:53Z</time>
      </trkpt>
      <trkpt lat="44.87173" lon="0.36424">
        <ele>60</ele>
        <time>2022-04-05T08:40:54Z</time>
      </trkpt>
      <trkpt lat="44.87174" lon="0.36423">
        <ele>60</ele>
        <time>2022-04-05T08:40:55Z</time>
      </trkpt>
      <trkpt lat="44.87176" lon="0.36422">
        <ele>59.9</ele>
        <time>2022-04-05T08:40:56Z</time>
      </trkpt>
      <trkpt lat="44.87178" lon="0.36421">
        <ele>59.9</ele>
        <time>2022-04-05T08:40:57Z</time>
      </trkpt>
      <trkpt lat="44.87179" lon="0.36421">
        <ele>59.9</ele>
        <time>2022-04-05T08:40:58Z</time>
      </trkpt>
      <trkpt lat="44.87179" lon="0.3642">
        <ele>59.9</ele>
        <time>2022-04-05T08:40:59Z</time>
      </trkpt>
      <trkpt lat="44.8718" lon="0.3642">
        <ele>59.9</ele>
        <time>2022-04-05T08:41:00Z</time>
      </trkpt>
      <trkpt lat="44.87182" lon="0.36418">
        <ele>59.9</ele>
        <time>2022-04-05T08:41:01Z</time>
      </trkpt>
      <trkpt lat="44.87184" lon="0.36417">
        <ele>59.9</ele>
        <time>2022-04-05T08:41:02Z</time>
      </trkpt>
      <trkpt lat="44.87185" lon="0.36417">
        <ele>59.9</ele>
        <time>2022-04-05T08:41:03Z</time>
      </trkpt>
      <trkpt lat="44.87186" lon="0.36416">
        <ele>59.9</ele>
        <time>2022-04-05T08:41:04Z</time>
      </trkpt>
      <trkpt lat="44.87187" lon="0.36415">
        <ele>59.8</ele>
        <time>2022-04-05T08:41:05Z</time>
      </trkpt>
      <trkpt lat="44.87188" lon="0.36412">
        <ele>59.8</ele>
        <time>2022-04-05T08:41:07Z</time>
      </trkpt>
      <trkpt lat="44.87189" lon="0.36411">
        <ele>59.8</ele>
        <time>2022-04-05T08:41:08Z</time>
      </trkpt>
      <trkpt lat="44.8719" lon="0.3641">
        <ele>59.8</ele>
        <time>2022-04-05T08:41:09Z</time>
      </trkpt>
      <trkpt lat="44.87191" lon="0.36409">
        <ele>59.8</ele>
        <time>2022-04-05T08:41:10Z</time>
      </trkpt>
      <trkpt lat="44.87193" lon="0.36408">
        <ele>59.8</ele>
        <time>2022-04-05T08:41:11Z</time>
      </trkpt>
      <trkpt lat="44.87194" lon="0.36409">
        <ele>59.8</ele>
        <time>2022-04-05T08:41:12Z</time>
      </trkpt>
      <trkpt lat="44.87195" lon="0.36408">
        <ele>59.8</ele>
        <time>2022-04-05T08:41:13Z</time>
      </trkpt>
      <trkpt lat="44.87196" lon="0.36408">
        <ele>59.8</ele>
        <time>2022-04-05T08:41:14Z</time>
      </trkpt>
      <trkpt lat="44.87197" lon="0.36407">
        <ele>59.8</ele>
        <time>2022-04-05T08:41:15Z</time>
      </trkpt>
      <trkpt lat="44.872" lon="0.36406">
        <ele>59.8</ele>
        <time>2022-04-05T08:41:16Z</time>
      </trkpt>
      <trkpt lat="44.87201" lon="0.36405">
        <ele>59.8</ele>
        <time>2022-04-05T08:41:17Z</time>
      </trkpt>
      <trkpt lat="44.87201" lon="0.36405">
        <ele>59.8</ele>
        <time>2022-04-05T08:41:18Z</time>
      </trkpt>
      <trkpt lat="44.87202" lon="0.36404">
        <ele>59.8</ele>
        <time>2022-04-05T08:41:20Z</time>
      </trkpt>
      <trkpt lat="44.87203" lon="0.36404">
        <ele>59.8</ele>
        <time>2022-04-05T08:41:21Z</time>
      </trkpt>
      <trkpt lat="44.87204" lon="0.36404">
        <ele>59.8</ele>
        <time>2022-04-05T08:41:22Z</time>
      </trkpt>
      <trkpt lat="44.87205" lon="0.36403">
        <ele>59.8</ele>
        <time>2022-04-05T08:41:23Z</time>
      </trkpt>
      <trkpt lat="44.87206" lon="0.36402">
        <ele>59.8</ele>
        <time>2022-04-05T08:41:24Z</time>
      </trkpt>
      <trkpt lat="44.87207" lon="0.36402">
        <ele>59.8</ele>
        <time>2022-04-05T08:41:25Z</time>
      </trkpt>
      <trkpt lat="44.87209" lon="0.364">
        <ele>59.8</ele>
        <time>2022-04-05T08:41:26Z</time>
      </trkpt>
      <trkpt lat="44.8721" lon="0.364">
        <ele>59.8</ele>
        <time>2022-04-05T08:41:27Z</time>
      </trkpt>
      <trkpt lat="44.87211" lon="0.36398">
        <ele>59.8</ele>
        <time>2022-04-05T08:41:28Z</time>
      </trkpt>
      <trkpt lat="44.87212" lon="0.36397">
        <ele>59.8</ele>
        <time>2022-04-05T08:41:29Z</time>
      </trkpt>
      <trkpt lat="44.87214" lon="0.36392">
        <ele>59.8</ele>
        <time>2022-04-05T08:41:31Z</time>
      </trkpt>
      <trkpt lat="44.87215" lon="0.36391">
        <ele>59.8</ele>
        <time>2022-04-05T08:41:32Z</time>
      </trkpt>
      <trkpt lat="44.87215" lon="0.3639">
        <ele>59.8</ele>
        <time>2022-04-05T08:41:34Z</time>
      </trkpt>
      <trkpt lat="44.87216" lon="0.36389">
        <ele>59.8</ele>
        <time>2022-04-05T08:41:35Z</time>
      </trkpt>
      <trkpt lat="44.87217" lon="0.36386">
        <ele>59.8</ele>
        <time>2022-04-05T08:41:36Z</time>
      </trkpt>
      <trkpt lat="44.87218" lon="0.36386">
        <ele>59.8</ele>
        <time>2022-04-05T08:41:37Z</time>
      </trkpt>
      <trkpt lat="44.87218" lon="0.36385">
        <ele>59.8</ele>
        <time>2022-04-05T08:41:38Z</time>
      </trkpt>
      <trkpt lat="44.8722" lon="0.36383">
        <ele>59.8</ele>
        <time>2022-04-05T08:41:40Z</time>
      </trkpt>
      <trkpt lat="44.87222" lon="0.3638">
        <ele>59.7</ele>
        <time>2022-04-05T08:41:42Z</time>
      </trkpt>
      <trkpt lat="44.87223" lon="0.36378">
        <ele>59.7</ele>
        <time>2022-04-05T08:41:44Z</time>
      </trkpt>
      <trkpt lat="44.87224" lon="0.36377">
        <ele>59.7</ele>
        <time>2022-04-05T08:41:45Z</time>
      </trkpt>
      <trkpt lat="44.87226" lon="0.36375">
        <ele>59.7</ele>
        <time>2022-04-05T08:41:47Z</time>
      </trkpt>
      <trkpt lat="44.87226" lon="0.36374">
        <ele>59.7</ele>
        <time>2022-04-05T08:41:48Z</time>
      </trkpt>
      <trkpt lat="44.87227" lon="0.36373">
        <ele>59.7</ele>
        <time>2022-04-05T08:41:49Z</time>
      </trkpt>
      <trkpt lat="44.87228" lon="0.36372">
        <ele>59.7</ele>
        <time>2022-04-05T08:41:50Z</time>
      </trkpt>
      <trkpt lat="44.87229" lon="0.3637">
        <ele>59.7</ele>
        <time>2022-04-05T08:41:51Z</time>
      </trkpt>
      <trkpt lat="44.8723" lon="0.36368">
        <ele>59.7</ele>
        <time>2022-04-05T08:41:52Z</time>
      </trkpt>
      <trkpt lat="44.87231" lon="0.36367">
        <ele>59.7</ele>
        <time>2022-04-05T08:41:53Z</time>
      </trkpt>
      <trkpt lat="44.87232" lon="0.36366">
        <ele>59.7</ele>
        <time>2022-04-05T08:41:54Z</time>
      </trkpt>
      <trkpt lat="44.87232" lon="0.36365">
        <ele>59.7</ele>
        <time>2022-04-05T08:41:55Z</time>
      </trkpt>
      <trkpt lat="44.87233" lon="0.36363">
        <ele>59.7</ele>
        <time>2022-04-05T08:41:56Z</time>
      </trkpt>
      <trkpt lat="44.87234" lon="0.36362">
        <ele>59.7</ele>
        <time>2022-04-05T08:41:57Z</time>
      </trkpt>
      <trkpt lat="44.87235" lon="0.36359">
        <ele>59.7</ele>
        <time>2022-04-05T08:41:59Z</time>
      </trkpt>
      <trkpt lat="44.87236" lon="0.36358">
        <ele>59.7</ele>
        <time>2022-04-05T08:42:00Z</time>
      </trkpt>
      <trkpt lat="44.87236" lon="0.36357">
        <ele>59.7</ele>
        <time>2022-04-05T08:42:01Z</time>
      </trkpt>
      <trkpt lat="44.87238" lon="0.36355">
        <ele>59.7</ele>
        <time>2022-04-05T08:42:02Z</time>
      </trkpt>
      <trkpt lat="44.87239" lon="0.36354">
        <ele>59.7</ele>
        <time>2022-04-05T08:42:03Z</time>
      </trkpt>
      <trkpt lat="44.8724" lon="0.36353">
        <ele>59.7</ele>
        <time>2022-04-05T08:42:04Z</time>
      </trkpt>
      <trkpt lat="44.87241" lon="0.36351">
        <ele>59.7</ele>
        <time>2022-04-05T08:42:05Z</time>
      </trkpt>
      <trkpt lat="44.87242" lon="0.36349">
        <ele>59.7</ele>
        <time>2022-04-05T08:42:07Z</time>
      </trkpt>
      <trkpt lat="44.87243" lon="0.36349">
        <ele>59.7</ele>
        <time>2022-04-05T08:42:08Z</time>
      </trkpt>
      <trkpt lat="44.87244" lon="0.36348">
        <ele>59.7</ele>
        <time>2022-04-05T08:42:09Z</time>
      </trkpt>
      <trkpt lat="44.87245" lon="0.36346">
        <ele>59.7</ele>
        <time>2022-04-05T08:42:10Z</time>
      </trkpt>
      <trkpt lat="44.87247" lon="0.36345">
        <ele>59.7</ele>
        <time>2022-04-05T08:42:11Z</time>
      </trkpt>
      <trkpt lat="44.87248" lon="0.36344">
        <ele>59.7</ele>
        <time>2022-04-05T08:42:12Z</time>
      </trkpt>
      <trkpt lat="44.87249" lon="0.36344">
        <ele>59.7</ele>
        <time>2022-04-05T08:42:13Z</time>
      </trkpt>
      <trkpt lat="44.8725" lon="0.36343">
        <ele>59.7</ele>
        <time>2022-04-05T08:42:14Z</time>
      </trkpt>
      <trkpt lat="44.87251" lon="0.36342">
        <ele>59.7</ele>
        <time>2022-04-05T08:42:15Z</time>
      </trkpt>
      <trkpt lat="44.87252" lon="0.36341">
        <ele>59.7</ele>
        <time>2022-04-05T08:42:16Z</time>
      </trkpt>
      <trkpt lat="44.87253" lon="0.36339">
        <ele>59.7</ele>
        <time>2022-04-05T08:42:17Z</time>
      </trkpt>
      <trkpt lat="44.87254" lon="0.36339">
        <ele>59.7</ele>
        <time>2022-04-05T08:42:18Z</time>
      </trkpt>
      <trkpt lat="44.87254" lon="0.36337">
        <ele>59.7</ele>
        <time>2022-04-05T08:42:19Z</time>
      </trkpt>
      <trkpt lat="44.87255" lon="0.36336">
        <ele>59.7</ele>
        <time>2022-04-05T08:42:20Z</time>
      </trkpt>
      <trkpt lat="44.87256" lon="0.36333">
        <ele>59.7</ele>
        <time>2022-04-05T08:42:21Z</time>
      </trkpt>
      <trkpt lat="44.87256" lon="0.36333">
        <ele>59.7</ele>
        <time>2022-04-05T08:42:22Z</time>
      </trkpt>
      <trkpt lat="44.87257" lon="0.36332">
        <ele>59.7</ele>
        <time>2022-04-05T08:42:23Z</time>
      </trkpt>
      <trkpt lat="44.87258" lon="0.3633">
        <ele>59.7</ele>
        <time>2022-04-05T08:42:24Z</time>
      </trkpt>
      <trkpt lat="44.87259" lon="0.36329">
        <ele>59.7</ele>
        <time>2022-04-05T08:42:26Z</time>
      </trkpt>
      <trkpt lat="44.8726" lon="0.36328">
        <ele>59.7</ele>
        <time>2022-04-05T08:42:27Z</time>
      </trkpt>
      <trkpt lat="44.8726" lon="0.36327">
        <ele>59.7</ele>
        <time>2022-04-05T08:42:28Z</time>
      </trkpt>
      <trkpt lat="44.87261" lon="0.36326">
        <ele>59.7</ele>
        <time>2022-04-05T08:42:29Z</time>
      </trkpt>
      <trkpt lat="44.87262" lon="0.36325">
        <ele>59.7</ele>
        <time>2022-04-05T08:42:30Z</time>
      </trkpt>
      <trkpt lat="44.87263" lon="0.36323">
        <ele>59.7</ele>
        <time>2022-04-05T08:42:31Z</time>
      </trkpt>
      <trkpt lat="44.87264" lon="0.36321">
        <ele>59.7</ele>
        <time>2022-04-05T08:42:32Z</time>
      </trkpt>
      <trkpt lat="44.87265" lon="0.3632">
        <ele>59.7</ele>
        <time>2022-04-05T08:42:33Z</time>
      </trkpt>
      <trkpt lat="44.87265" lon="0.3632">
        <ele>59.7</ele>
        <time>2022-04-05T08:42:34Z</time>
      </trkpt>
      <trkpt lat="44.87266" lon="0.36318">
        <ele>59.7</ele>
        <time>2022-04-05T08:42:35Z</time>
      </trkpt>
      <trkpt lat="44.87266" lon="0.36317">
        <ele>59.6</ele>
        <time>2022-04-05T08:42:36Z</time>
      </trkpt>
      <trkpt lat="44.87266" lon="0.36316">
        <ele>59.6</ele>
        <time>2022-04-05T08:42:37Z</time>
      </trkpt>
      <trkpt lat="44.87267" lon="0.36315">
        <ele>59.6</ele>
        <time>2022-04-05T08:42:38Z</time>
      </trkpt>
      <trkpt lat="44.87268" lon="0.36313">
        <ele>59.6</ele>
        <time>2022-04-05T08:42:39Z</time>
      </trkpt>
      <trkpt lat="44.87269" lon="0.36312">
        <ele>59.6</ele>
        <time>2022-04-05T08:42:40Z</time>
      </trkpt>
      <trkpt lat="44.8727" lon="0.3631">
        <ele>59.6</ele>
        <time>2022-04-05T08:42:42Z</time>
      </trkpt>
      <trkpt lat="44.8727" lon="0.36309">
        <ele>59.6</ele>
        <time>2022-04-05T08:42:43Z</time>
      </trkpt>
      <trkpt lat="44.87271" lon="0.36307">
        <ele>59.6</ele>
        <time>2022-04-05T08:42:44Z</time>
      </trkpt>
      <trkpt lat="44.87272" lon="0.36306">
        <ele>59.6</ele>
        <time>2022-04-05T08:42:45Z</time>
      </trkpt>
      <trkpt lat="44.87272" lon="0.36304">
        <ele>59.6</ele>
        <time>2022-04-05T08:42:46Z</time>
      </trkpt>
      <trkpt lat="44.87273" lon="0.36301">
        <ele>59.6</ele>
        <time>2022-04-05T08:42:47Z</time>
      </trkpt>
      <trkpt lat="44.87273" lon="0.36299">
        <ele>59.6</ele>
        <time>2022-04-05T08:42:48Z</time>
      </trkpt>
      <trkpt lat="44.87273" lon="0.36298">
        <ele>59.6</ele>
        <time>2022-04-05T08:42:49Z</time>
      </trkpt>
      <trkpt lat="44.87274" lon="0.36295">
        <ele>59.6</ele>
        <time>2022-04-05T08:42:50Z</time>
      </trkpt>
      <trkpt lat="44.87275" lon="0.36293">
        <ele>59.5</ele>
        <time>2022-04-05T08:42:51Z</time>
      </trkpt>
      <trkpt lat="44.87275" lon="0.36292">
        <ele>59.5</ele>
        <time>2022-04-05T08:42:52Z</time>
      </trkpt>
      <trkpt lat="44.87275" lon="0.36291">
        <ele>59.5</ele>
        <time>2022-04-05T08:42:53Z</time>
      </trkpt>
      <trkpt lat="44.87275" lon="0.36289">
        <ele>59.5</ele>
        <time>2022-04-05T08:42:54Z</time>
      </trkpt>
      <trkpt lat="44.87276" lon="0.36288">
        <ele>59.5</ele>
        <time>2022-04-05T08:42:55Z</time>
      </trkpt>
      <trkpt lat="44.87278" lon="0.36286">
        <ele>59.5</ele>
        <time>2022-04-05T08:42:56Z</time>
      </trkpt>
      <trkpt lat="44.87279" lon="0.36284">
        <ele>59.5</ele>
        <time>2022-04-05T08:42:57Z</time>
      </trkpt>
      <trkpt lat="44.87279" lon="0.36284">
        <ele>59.5</ele>
        <time>2022-04-05T08:42:58Z</time>
      </trkpt>
      <trkpt lat="44.8728" lon="0.36283">
        <ele>59.5</ele>
        <time>2022-04-05T08:42:59Z</time>
      </trkpt>
      <trkpt lat="44.87281" lon="0.36282">
        <ele>59.5</ele>
        <time>2022-04-05T08:43:00Z</time>
      </trkpt>
      <trkpt lat="44.87283" lon="0.36279">
        <ele>59.5</ele>
        <time>2022-04-05T08:43:01Z</time>
      </trkpt>
      <trkpt lat="44.87282" lon="0.36277">
        <ele>59.5</ele>
        <time>2022-04-05T08:43:03Z</time>
      </trkpt>
      <trkpt lat="44.87284" lon="0.36276">
        <ele>59.4</ele>
        <time>2022-04-05T08:43:04Z</time>
      </trkpt>
      <trkpt lat="44.87285" lon="0.36275">
        <ele>59.4</ele>
        <time>2022-04-05T08:43:05Z</time>
      </trkpt>
      <trkpt lat="44.87285" lon="0.36274">
        <ele>59.4</ele>
        <time>2022-04-05T08:43:06Z</time>
      </trkpt>
      <trkpt lat="44.87287" lon="0.36272">
        <ele>59.4</ele>
        <time>2022-04-05T08:43:07Z</time>
      </trkpt>
      <trkpt lat="44.87288" lon="0.36271">
        <ele>59.4</ele>
        <time>2022-04-05T08:43:08Z</time>
      </trkpt>
      <trkpt lat="44.87289" lon="0.3627">
        <ele>59.4</ele>
        <time>2022-04-05T08:43:09Z</time>
      </trkpt>
      <trkpt lat="44.8729" lon="0.3627">
        <ele>59.4</ele>
        <time>2022-04-05T08:43:10Z</time>
      </trkpt>
      <trkpt lat="44.87292" lon="0.3627">
        <ele>59.4</ele>
        <time>2022-04-05T08:43:11Z</time>
      </trkpt>
      <trkpt lat="44.87293" lon="0.36269">
        <ele>59.4</ele>
        <time>2022-04-05T08:43:12Z</time>
      </trkpt>
      <trkpt lat="44.87294" lon="0.36269">
        <ele>59.4</ele>
        <time>2022-04-05T08:43:13Z</time>
      </trkpt>
      <trkpt lat="44.87295" lon="0.36268">
        <ele>59.4</ele>
        <time>2022-04-05T08:43:15Z</time>
      </trkpt>
      <trkpt lat="44.87296" lon="0.36267">
        <ele>59.3</ele>
        <time>2022-04-05T08:43:16Z</time>
      </trkpt>
      <trkpt lat="44.87298" lon="0.36265">
        <ele>59.3</ele>
        <time>2022-04-05T08:43:17Z</time>
      </trkpt>
      <trkpt lat="44.87298" lon="0.36264">
        <ele>59.3</ele>
        <time>2022-04-05T08:43:18Z</time>
      </trkpt>
      <trkpt lat="44.87298" lon="0.36263">
        <ele>59.3</ele>
        <time>2022-04-05T08:43:19Z</time>
      </trkpt>
      <trkpt lat="44.873" lon="0.36261">
        <ele>59.3</ele>
        <time>2022-04-05T08:43:20Z</time>
      </trkpt>
      <trkpt lat="44.873" lon="0.3626">
        <ele>59.3</ele>
        <time>2022-04-05T08:43:21Z</time>
      </trkpt>
      <trkpt lat="44.87301" lon="0.36259">
        <ele>59.3</ele>
        <time>2022-04-05T08:43:22Z</time>
      </trkpt>
      <trkpt lat="44.87301" lon="0.36258">
        <ele>59.3</ele>
        <time>2022-04-05T08:43:23Z</time>
      </trkpt>
      <trkpt lat="44.87302" lon="0.36256">
        <ele>59.3</ele>
        <time>2022-04-05T08:43:24Z</time>
      </trkpt>
      <trkpt lat="44.87303" lon="0.36255">
        <ele>59.3</ele>
        <time>2022-04-05T08:43:25Z</time>
      </trkpt>
      <trkpt lat="44.87303" lon="0.36254">
        <ele>59.3</ele>
        <time>2022-04-05T08:43:26Z</time>
      </trkpt>
      <trkpt lat="44.87305" lon="0.36252">
        <ele>59.3</ele>
        <time>2022-04-05T08:43:27Z</time>
      </trkpt>
      <trkpt lat="44.87305" lon="0.36251">
        <ele>59.3</ele>
        <time>2022-04-05T08:43:28Z</time>
      </trkpt>
      <trkpt lat="44.87306" lon="0.36249">
        <ele>59.2</ele>
        <time>2022-04-05T08:43:29Z</time>
      </trkpt>
      <trkpt lat="44.87307" lon="0.36248">
        <ele>59.2</ele>
        <time>2022-04-05T08:43:30Z</time>
      </trkpt>
      <trkpt lat="44.87307" lon="0.36247">
        <ele>59.2</ele>
        <time>2022-04-05T08:43:31Z</time>
      </trkpt>
      <trkpt lat="44.87308" lon="0.36245">
        <ele>59.2</ele>
        <time>2022-04-05T08:43:32Z</time>
      </trkpt>
      <trkpt lat="44.87309" lon="0.36245">
        <ele>59.2</ele>
        <time>2022-04-05T08:43:33Z</time>
      </trkpt>
      <trkpt lat="44.87309" lon="0.36243">
        <ele>59.2</ele>
        <time>2022-04-05T08:43:34Z</time>
      </trkpt>
      <trkpt lat="44.8731" lon="0.36241">
        <ele>59.2</ele>
        <time>2022-04-05T08:43:35Z</time>
      </trkpt>
      <trkpt lat="44.87312" lon="0.36238">
        <ele>59.2</ele>
        <time>2022-04-05T08:43:37Z</time>
      </trkpt>
      <trkpt lat="44.87312" lon="0.36236">
        <ele>59.2</ele>
        <time>2022-04-05T08:43:38Z</time>
      </trkpt>
      <trkpt lat="44.87312" lon="0.36235">
        <ele>59.2</ele>
        <time>2022-04-05T08:43:39Z</time>
      </trkpt>
      <trkpt lat="44.87313" lon="0.36233">
        <ele>59.2</ele>
        <time>2022-04-05T08:43:40Z</time>
      </trkpt>
      <trkpt lat="44.87314" lon="0.3623">
        <ele>59.1</ele>
        <time>2022-04-05T08:43:42Z</time>
      </trkpt>
      <trkpt lat="44.87315" lon="0.36229">
        <ele>59.1</ele>
        <time>2022-04-05T08:43:43Z</time>
      </trkpt>
      <trkpt lat="44.87316" lon="0.36227">
        <ele>59.1</ele>
        <time>2022-04-05T08:43:44Z</time>
      </trkpt>
      <trkpt lat="44.87316" lon="0.36225">
        <ele>59.1</ele>
        <time>2022-04-05T08:43:45Z</time>
      </trkpt>
      <trkpt lat="44.87317" lon="0.36224">
        <ele>59.1</ele>
        <time>2022-04-05T08:43:46Z</time>
      </trkpt>
      <trkpt lat="44.87318" lon="0.36221">
        <ele>59.1</ele>
        <time>2022-04-05T08:43:47Z</time>
      </trkpt>
      <trkpt lat="44.87318" lon="0.36221">
        <ele>59.1</ele>
        <time>2022-04-05T08:43:48Z</time>
      </trkpt>
      <trkpt lat="44.87319" lon="0.36218">
        <ele>59.1</ele>
        <time>2022-04-05T08:43:49Z</time>
      </trkpt>
      <trkpt lat="44.8732" lon="0.36217">
        <ele>59.1</ele>
        <time>2022-04-05T08:43:50Z</time>
      </trkpt>
      <trkpt lat="44.8732" lon="0.36215">
        <ele>59.1</ele>
        <time>2022-04-05T08:43:51Z</time>
      </trkpt>
      <trkpt lat="44.87321" lon="0.36213">
        <ele>59</ele>
        <time>2022-04-05T08:43:52Z</time>
      </trkpt>
      <trkpt lat="44.87321" lon="0.36212">
        <ele>59</ele>
        <time>2022-04-05T08:43:53Z</time>
      </trkpt>
      <trkpt lat="44.87322" lon="0.3621">
        <ele>59</ele>
        <time>2022-04-05T08:43:55Z</time>
      </trkpt>
      <trkpt lat="44.87323" lon="0.36208">
        <ele>59</ele>
        <time>2022-04-05T08:43:56Z</time>
      </trkpt>
      <trkpt lat="44.87324" lon="0.36206">
        <ele>59</ele>
        <time>2022-04-05T08:43:57Z</time>
      </trkpt>
      <trkpt lat="44.87325" lon="0.36205">
        <ele>59</ele>
        <time>2022-04-05T08:43:58Z</time>
      </trkpt>
      <trkpt lat="44.87326" lon="0.36203">
        <ele>59</ele>
        <time>2022-04-05T08:43:59Z</time>
      </trkpt>
      <trkpt lat="44.87326" lon="0.36202">
        <ele>59</ele>
        <time>2022-04-05T08:44:00Z</time>
      </trkpt>
      <trkpt lat="44.87327" lon="0.36201">
        <ele>59</ele>
        <time>2022-04-05T08:44:01Z</time>
      </trkpt>
      <trkpt lat="44.87328" lon="0.36198">
        <ele>59</ele>
        <time>2022-04-05T08:44:02Z</time>
      </trkpt>
      <trkpt lat="44.87328" lon="0.36197">
        <ele>59</ele>
        <time>2022-04-05T08:44:03Z</time>
      </trkpt>
      <trkpt lat="44.87329" lon="0.36196">
        <ele>59</ele>
        <time>2022-04-05T08:44:04Z</time>
      </trkpt>
      <trkpt lat="44.87329" lon="0.36194">
        <ele>59</ele>
        <time>2022-04-05T08:44:05Z</time>
      </trkpt>
      <trkpt lat="44.8733" lon="0.36193">
        <ele>59</ele>
        <time>2022-04-05T08:44:06Z</time>
      </trkpt>
      <trkpt lat="44.87331" lon="0.3619">
        <ele>59</ele>
        <time>2022-04-05T08:44:07Z</time>
      </trkpt>
      <trkpt lat="44.87331" lon="0.36189">
        <ele>59</ele>
        <time>2022-04-05T08:44:08Z</time>
      </trkpt>
      <trkpt lat="44.87332" lon="0.36187">
        <ele>59</ele>
        <time>2022-04-05T08:44:09Z</time>
      </trkpt>
      <trkpt lat="44.87332" lon="0.36185">
        <ele>59</ele>
        <time>2022-04-05T08:44:10Z</time>
      </trkpt>
      <trkpt lat="44.87334" lon="0.36181">
        <ele>59</ele>
        <time>2022-04-05T08:44:12Z</time>
      </trkpt>
      <trkpt lat="44.87334" lon="0.3618">
        <ele>59</ele>
        <time>2022-04-05T08:44:13Z</time>
      </trkpt>
      <trkpt lat="44.87335" lon="0.36179">
        <ele>59</ele>
        <time>2022-04-05T08:44:14Z</time>
      </trkpt>
      <trkpt lat="44.87335" lon="0.36178">
        <ele>59</ele>
        <time>2022-04-05T08:44:15Z</time>
      </trkpt>
      <trkpt lat="44.87336" lon="0.36177">
        <ele>59</ele>
        <time>2022-04-05T08:44:16Z</time>
      </trkpt>
      <trkpt lat="44.87337" lon="0.36174">
        <ele>59</ele>
        <time>2022-04-05T08:44:17Z</time>
      </trkpt>
      <trkpt lat="44.87337" lon="0.36172">
        <ele>59</ele>
        <time>2022-04-05T08:44:18Z</time>
      </trkpt>
      <trkpt lat="44.87338" lon="0.3617">
        <ele>59</ele>
        <time>2022-04-05T08:44:20Z</time>
      </trkpt>
      <trkpt lat="44.87338" lon="0.36169">
        <ele>59</ele>
        <time>2022-04-05T08:44:21Z</time>
      </trkpt>
      <trkpt lat="44.87339" lon="0.36166">
        <ele>59</ele>
        <time>2022-04-05T08:44:22Z</time>
      </trkpt>
      <trkpt lat="44.8734" lon="0.36164">
        <ele>59</ele>
        <time>2022-04-05T08:44:23Z</time>
      </trkpt>
      <trkpt lat="44.8734" lon="0.36162">
        <ele>59</ele>
        <time>2022-04-05T08:44:24Z</time>
      </trkpt>
      <trkpt lat="44.87341" lon="0.36161">
        <ele>58.9</ele>
        <time>2022-04-05T08:44:25Z</time>
      </trkpt>
      <trkpt lat="44.87341" lon="0.36161">
        <ele>58.9</ele>
        <time>2022-04-05T08:44:26Z</time>
      </trkpt>
      <trkpt lat="44.87341" lon="0.3616">
        <ele>58.9</ele>
        <time>2022-04-05T08:44:27Z</time>
      </trkpt>
      <trkpt lat="44.87342" lon="0.36159">
        <ele>58.9</ele>
        <time>2022-04-05T08:44:28Z</time>
      </trkpt>
      <trkpt lat="44.87343" lon="0.36158">
        <ele>58.9</ele>
        <time>2022-04-05T08:44:29Z</time>
      </trkpt>
      <trkpt lat="44.87344" lon="0.36156">
        <ele>58.9</ele>
        <time>2022-04-05T08:44:30Z</time>
      </trkpt>
      <trkpt lat="44.87344" lon="0.36155">
        <ele>58.9</ele>
        <time>2022-04-05T08:44:31Z</time>
      </trkpt>
      <trkpt lat="44.87345" lon="0.36152">
        <ele>58.9</ele>
        <time>2022-04-05T08:44:33Z</time>
      </trkpt>
      <trkpt lat="44.87346" lon="0.3615">
        <ele>58.9</ele>
        <time>2022-04-05T08:44:34Z</time>
      </trkpt>
      <trkpt lat="44.87347" lon="0.36148">
        <ele>58.9</ele>
        <time>2022-04-05T08:44:35Z</time>
      </trkpt>
      <trkpt lat="44.87347" lon="0.36147">
        <ele>58.9</ele>
        <time>2022-04-05T08:44:36Z</time>
      </trkpt>
      <trkpt lat="44.87348" lon="0.36143">
        <ele>58.9</ele>
        <time>2022-04-05T08:44:37Z</time>
      </trkpt>
      <trkpt lat="44.87348" lon="0.36143">
        <ele>58.9</ele>
        <time>2022-04-05T08:44:38Z</time>
      </trkpt>
      <trkpt lat="44.87349" lon="0.36141">
        <ele>58.9</ele>
        <time>2022-04-05T08:44:39Z</time>
      </trkpt>
      <trkpt lat="44.87349" lon="0.3614">
        <ele>58.9</ele>
        <time>2022-04-05T08:44:40Z</time>
      </trkpt>
      <trkpt lat="44.87351" lon="0.36136">
        <ele>58.9</ele>
        <time>2022-04-05T08:44:41Z</time>
      </trkpt>
      <trkpt lat="44.87351" lon="0.36135">
        <ele>58.9</ele>
        <time>2022-04-05T08:44:42Z</time>
      </trkpt>
      <trkpt lat="44.87351" lon="0.36134">
        <ele>58.9</ele>
        <time>2022-04-05T08:44:43Z</time>
      </trkpt>
      <trkpt lat="44.87352" lon="0.36133">
        <ele>58.9</ele>
        <time>2022-04-05T08:44:44Z</time>
      </trkpt>
      <trkpt lat="44.87352" lon="0.36132">
        <ele>58.9</ele>
        <time>2022-04-05T08:44:45Z</time>
      </trkpt>
      <trkpt lat="44.87353" lon="0.3613">
        <ele>58.9</ele>
        <time>2022-04-05T08:44:46Z</time>
      </trkpt>
      <trkpt lat="44.87354" lon="0.36127">
        <ele>58.9</ele>
        <time>2022-04-05T08:44:47Z</time>
      </trkpt>
      <trkpt lat="44.87355" lon="0.36126">
        <ele>58.9</ele>
        <time>2022-04-05T08:44:48Z</time>
      </trkpt>
      <trkpt lat="44.87355" lon="0.36126">
        <ele>58.9</ele>
        <time>2022-04-05T08:44:49Z</time>
      </trkpt>
      <trkpt lat="44.87355" lon="0.36125">
        <ele>58.9</ele>
        <time>2022-04-05T08:44:50Z</time>
      </trkpt>
      <trkpt lat="44.87356" lon="0.36123">
        <ele>58.9</ele>
        <time>2022-04-05T08:44:51Z</time>
      </trkpt>
      <trkpt lat="44.87358" lon="0.36119">
        <ele>58.9</ele>
        <time>2022-04-05T08:44:52Z</time>
      </trkpt>
      <trkpt lat="44.87358" lon="0.36118">
        <ele>58.9</ele>
        <time>2022-04-05T08:44:54Z</time>
      </trkpt>
      <trkpt lat="44.87359" lon="0.36116">
        <ele>58.9</ele>
        <time>2022-04-05T08:44:55Z</time>
      </trkpt>
      <trkpt lat="44.87359" lon="0.36115">
        <ele>58.9</ele>
        <time>2022-04-05T08:44:56Z</time>
      </trkpt>
      <trkpt lat="44.8736" lon="0.36113">
        <ele>58.9</ele>
        <time>2022-04-05T08:44:57Z</time>
      </trkpt>
      <trkpt lat="44.8736" lon="0.36113">
        <ele>58.9</ele>
        <time>2022-04-05T08:44:58Z</time>
      </trkpt>
      <trkpt lat="44.87361" lon="0.36112">
        <ele>58.9</ele>
        <time>2022-04-05T08:44:59Z</time>
      </trkpt>
      <trkpt lat="44.87361" lon="0.3611">
        <ele>59</ele>
        <time>2022-04-05T08:45:00Z</time>
      </trkpt>
      <trkpt lat="44.87362" lon="0.3611">
        <ele>59</ele>
        <time>2022-04-05T08:45:01Z</time>
      </trkpt>
      <trkpt lat="44.87363" lon="0.36108">
        <ele>59</ele>
        <time>2022-04-05T08:45:02Z</time>
      </trkpt>
      <trkpt lat="44.87364" lon="0.36108">
        <ele>59</ele>
        <time>2022-04-05T08:45:03Z</time>
      </trkpt>
      <trkpt lat="44.87365" lon="0.36107">
        <ele>59</ele>
        <time>2022-04-05T08:45:04Z</time>
      </trkpt>
      <trkpt lat="44.87366" lon="0.36105">
        <ele>59</ele>
        <time>2022-04-05T08:45:05Z</time>
      </trkpt>
      <trkpt lat="44.87367" lon="0.36104">
        <ele>59</ele>
        <time>2022-04-05T08:45:06Z</time>
      </trkpt>
      <trkpt lat="44.87369" lon="0.36101">
        <ele>59</ele>
        <time>2022-04-05T08:45:07Z</time>
      </trkpt>
      <trkpt lat="44.8737" lon="0.361">
        <ele>59</ele>
        <time>2022-04-05T08:45:09Z</time>
      </trkpt>
      <trkpt lat="44.87372" lon="0.36097">
        <ele>59</ele>
        <time>2022-04-05T08:45:10Z</time>
      </trkpt>
      <trkpt lat="44.87373" lon="0.36096">
        <ele>59</ele>
        <time>2022-04-05T08:45:11Z</time>
      </trkpt>
      <trkpt lat="44.87374" lon="0.36095">
        <ele>59</ele>
        <time>2022-04-05T08:45:12Z</time>
      </trkpt>
      <trkpt lat="44.87374" lon="0.36095">
        <ele>59</ele>
        <time>2022-04-05T08:45:13Z</time>
      </trkpt>
      <trkpt lat="44.87375" lon="0.36094">
        <ele>59</ele>
        <time>2022-04-05T08:45:14Z</time>
      </trkpt>
      <trkpt lat="44.87376" lon="0.36093">
        <ele>59</ele>
        <time>2022-04-05T08:45:15Z</time>
      </trkpt>
      <trkpt lat="44.87377" lon="0.36093">
        <ele>59</ele>
        <time>2022-04-05T08:45:16Z</time>
      </trkpt>
      <trkpt lat="44.87379" lon="0.36091">
        <ele>59</ele>
        <time>2022-04-05T08:45:17Z</time>
      </trkpt>
      <trkpt lat="44.8738" lon="0.36091">
        <ele>59</ele>
        <time>2022-04-05T08:45:18Z</time>
      </trkpt>
      <trkpt lat="44.8738" lon="0.3609">
        <ele>59</ele>
        <time>2022-04-05T08:45:19Z</time>
      </trkpt>
      <trkpt lat="44.87382" lon="0.36088">
        <ele>59.1</ele>
        <time>2022-04-05T08:45:20Z</time>
      </trkpt>
      <trkpt lat="44.87383" lon="0.36087">
        <ele>59.1</ele>
        <time>2022-04-05T08:45:21Z</time>
      </trkpt>
      <trkpt lat="44.87384" lon="0.36085">
        <ele>59.1</ele>
        <time>2022-04-05T08:45:22Z</time>
      </trkpt>
      <trkpt lat="44.87384" lon="0.36085">
        <ele>59.1</ele>
        <time>2022-04-05T08:45:23Z</time>
      </trkpt>
      <trkpt lat="44.87384" lon="0.36083">
        <ele>59.1</ele>
        <time>2022-04-05T08:45:24Z</time>
      </trkpt>
      <trkpt lat="44.87385" lon="0.36082">
        <ele>59.1</ele>
        <time>2022-04-05T08:45:25Z</time>
      </trkpt>
      <trkpt lat="44.87387" lon="0.3608">
        <ele>59.1</ele>
        <time>2022-04-05T08:45:27Z</time>
      </trkpt>
      <trkpt lat="44.87387" lon="0.36079">
        <ele>59.1</ele>
        <time>2022-04-05T08:45:28Z</time>
      </trkpt>
      <trkpt lat="44.87388" lon="0.36078">
        <ele>59.2</ele>
        <time>2022-04-05T08:45:29Z</time>
      </trkpt>
      <trkpt lat="44.87389" lon="0.36077">
        <ele>59.2</ele>
        <time>2022-04-05T08:45:30Z</time>
      </trkpt>
      <trkpt lat="44.87389" lon="0.36075">
        <ele>59.2</ele>
        <time>2022-04-05T08:45:31Z</time>
      </trkpt>
      <trkpt lat="44.8739" lon="0.36074">
        <ele>59.2</ele>
        <time>2022-04-05T08:45:33Z</time>
      </trkpt>
      <trkpt lat="44.87391" lon="0.36072">
        <ele>59.2</ele>
        <time>2022-04-05T08:45:34Z</time>
      </trkpt>
      <trkpt lat="44.87393" lon="0.3607">
        <ele>59.3</ele>
        <time>2022-04-05T08:45:35Z</time>
      </trkpt>
      <trkpt lat="44.87394" lon="0.36069">
        <ele>59.3</ele>
        <time>2022-04-05T08:45:36Z</time>
      </trkpt>
      <trkpt lat="44.87395" lon="0.36067">
        <ele>59.3</ele>
        <time>2022-04-05T08:45:37Z</time>
      </trkpt>
      <trkpt lat="44.87395" lon="0.36067">
        <ele>59.3</ele>
        <time>2022-04-05T08:45:38Z</time>
      </trkpt>
      <trkpt lat="44.87396" lon="0.36066">
        <ele>59.3</ele>
        <time>2022-04-05T08:45:39Z</time>
      </trkpt>
      <trkpt lat="44.87397" lon="0.36065">
        <ele>59.3</ele>
        <time>2022-04-05T08:45:40Z</time>
      </trkpt>
      <trkpt lat="44.87398" lon="0.36064">
        <ele>59.3</ele>
        <time>2022-04-05T08:45:41Z</time>
      </trkpt>
      <trkpt lat="44.87399" lon="0.36062">
        <ele>59.4</ele>
        <time>2022-04-05T08:45:43Z</time>
      </trkpt>
      <trkpt lat="44.874" lon="0.36061">
        <ele>59.4</ele>
        <time>2022-04-05T08:45:44Z</time>
      </trkpt>
      <trkpt lat="44.87401" lon="0.3606">
        <ele>59.4</ele>
        <time>2022-04-05T08:45:45Z</time>
      </trkpt>
      <trkpt lat="44.87402" lon="0.36059">
        <ele>59.4</ele>
        <time>2022-04-05T08:45:46Z</time>
      </trkpt>
      <trkpt lat="44.87404" lon="0.36056">
        <ele>59.4</ele>
        <time>2022-04-05T08:45:47Z</time>
      </trkpt>
      <trkpt lat="44.87404" lon="0.36055">
        <ele>59.4</ele>
        <time>2022-04-05T08:45:48Z</time>
      </trkpt>
      <trkpt lat="44.87405" lon="0.36055">
        <ele>59.5</ele>
        <time>2022-04-05T08:45:49Z</time>
      </trkpt>
      <trkpt lat="44.87407" lon="0.36053">
        <ele>59.5</ele>
        <time>2022-04-05T08:45:51Z</time>
      </trkpt>
      <trkpt lat="44.87407" lon="0.36052">
        <ele>59.5</ele>
        <time>2022-04-05T08:45:52Z</time>
      </trkpt>
      <trkpt lat="44.87408" lon="0.36051">
        <ele>59.5</ele>
        <time>2022-04-05T08:45:53Z</time>
      </trkpt>
      <trkpt lat="44.87409" lon="0.3605">
        <ele>59.5</ele>
        <time>2022-04-05T08:45:54Z</time>
      </trkpt>
      <trkpt lat="44.8741" lon="0.36048">
        <ele>59.5</ele>
        <time>2022-04-05T08:45:55Z</time>
      </trkpt>
      <trkpt lat="44.87411" lon="0.36047">
        <ele>59.5</ele>
        <time>2022-04-05T08:45:56Z</time>
      </trkpt>
      <trkpt lat="44.87412" lon="0.36046">
        <ele>59.6</ele>
        <time>2022-04-05T08:45:57Z</time>
      </trkpt>
      <trkpt lat="44.87413" lon="0.36044">
        <ele>59.6</ele>
        <time>2022-04-05T08:45:58Z</time>
      </trkpt>
      <trkpt lat="44.87414" lon="0.36043">
        <ele>59.6</ele>
        <time>2022-04-05T08:45:59Z</time>
      </trkpt>
      <trkpt lat="44.87415" lon="0.36041">
        <ele>59.6</ele>
        <time>2022-04-05T08:46:00Z</time>
      </trkpt>
      <trkpt lat="44.87416" lon="0.3604">
        <ele>59.6</ele>
        <time>2022-04-05T08:46:01Z</time>
      </trkpt>
      <trkpt lat="44.87417" lon="0.36038">
        <ele>59.6</ele>
        <time>2022-04-05T08:46:02Z</time>
      </trkpt>
      <trkpt lat="44.87418" lon="0.36038">
        <ele>59.6</ele>
        <time>2022-04-05T08:46:03Z</time>
      </trkpt>
      <trkpt lat="44.8742" lon="0.36035">
        <ele>59.7</ele>
        <time>2022-04-05T08:46:04Z</time>
      </trkpt>
      <trkpt lat="44.8742" lon="0.36034">
        <ele>59.7</ele>
        <time>2022-04-05T08:46:05Z</time>
      </trkpt>
      <trkpt lat="44.87421" lon="0.36033">
        <ele>59.7</ele>
        <time>2022-04-05T08:46:06Z</time>
      </trkpt>
      <trkpt lat="44.87422" lon="0.36031">
        <ele>59.7</ele>
        <time>2022-04-05T08:46:08Z</time>
      </trkpt>
      <trkpt lat="44.87423" lon="0.3603">
        <ele>59.7</ele>
        <time>2022-04-05T08:46:09Z</time>
      </trkpt>
      <trkpt lat="44.87425" lon="0.36027">
        <ele>59.7</ele>
        <time>2022-04-05T08:46:10Z</time>
      </trkpt>
      <trkpt lat="44.87426" lon="0.36026">
        <ele>59.7</ele>
        <time>2022-04-05T08:46:11Z</time>
      </trkpt>
      <trkpt lat="44.87427" lon="0.36024">
        <ele>59.7</ele>
        <time>2022-04-05T08:46:12Z</time>
      </trkpt>
      <trkpt lat="44.87427" lon="0.36024">
        <ele>59.7</ele>
        <time>2022-04-05T08:46:13Z</time>
      </trkpt>
      <trkpt lat="44.87427" lon="0.36023">
        <ele>59.7</ele>
        <time>2022-04-05T08:46:14Z</time>
      </trkpt>
      <trkpt lat="44.87428" lon="0.36022">
        <ele>59.7</ele>
        <time>2022-04-05T08:46:15Z</time>
      </trkpt>
      <trkpt lat="44.87429" lon="0.36021">
        <ele>59.7</ele>
        <time>2022-04-05T08:46:16Z</time>
      </trkpt>
      <trkpt lat="44.87431" lon="0.36019">
        <ele>59.7</ele>
        <time>2022-04-05T08:46:17Z</time>
      </trkpt>
      <trkpt lat="44.87431" lon="0.36018">
        <ele>59.7</ele>
        <time>2022-04-05T08:46:18Z</time>
      </trkpt>
      <trkpt lat="44.87432" lon="0.36018">
        <ele>59.7</ele>
        <time>2022-04-05T08:46:19Z</time>
      </trkpt>
      <trkpt lat="44.87432" lon="0.36017">
        <ele>59.7</ele>
        <time>2022-04-05T08:46:20Z</time>
      </trkpt>
      <trkpt lat="44.87433" lon="0.36016">
        <ele>59.7</ele>
        <time>2022-04-05T08:46:22Z</time>
      </trkpt>
      <trkpt lat="44.87434" lon="0.36014">
        <ele>59.7</ele>
        <time>2022-04-05T08:46:23Z</time>
      </trkpt>
      <trkpt lat="44.87435" lon="0.36011">
        <ele>59.7</ele>
        <time>2022-04-05T08:46:24Z</time>
      </trkpt>
      <trkpt lat="44.87436" lon="0.36011">
        <ele>59.7</ele>
        <time>2022-04-05T08:46:25Z</time>
      </trkpt>
      <trkpt lat="44.87436" lon="0.3601">
        <ele>59.7</ele>
        <time>2022-04-05T08:46:26Z</time>
      </trkpt>
      <trkpt lat="44.87438" lon="0.36007">
        <ele>59.7</ele>
        <time>2022-04-05T08:46:27Z</time>
      </trkpt>
      <trkpt lat="44.87439" lon="0.36006">
        <ele>59.7</ele>
        <time>2022-04-05T08:46:28Z</time>
      </trkpt>
      <trkpt lat="44.8744" lon="0.36005">
        <ele>59.7</ele>
        <time>2022-04-05T08:46:29Z</time>
      </trkpt>
      <trkpt lat="44.8744" lon="0.36004">
        <ele>59.7</ele>
        <time>2022-04-05T08:46:30Z</time>
      </trkpt>
      <trkpt lat="44.87442" lon="0.36001">
        <ele>59.7</ele>
        <time>2022-04-05T08:46:32Z</time>
      </trkpt>
      <trkpt lat="44.87443" lon="0.35999">
        <ele>59.7</ele>
        <time>2022-04-05T08:46:33Z</time>
      </trkpt>
      <trkpt lat="44.87444" lon="0.35998">
        <ele>59.7</ele>
        <time>2022-04-05T08:46:34Z</time>
      </trkpt>
      <trkpt lat="44.87445" lon="0.35997">
        <ele>59.7</ele>
        <time>2022-04-05T08:46:35Z</time>
      </trkpt>
      <trkpt lat="44.87446" lon="0.35995">
        <ele>59.7</ele>
        <time>2022-04-05T08:46:37Z</time>
      </trkpt>
      <trkpt lat="44.87447" lon="0.35994">
        <ele>59.7</ele>
        <time>2022-04-05T08:46:38Z</time>
      </trkpt>
      <trkpt lat="44.87448" lon="0.35993">
        <ele>59.7</ele>
        <time>2022-04-05T08:46:39Z</time>
      </trkpt>
      <trkpt lat="44.87449" lon="0.35992">
        <ele>59.7</ele>
        <time>2022-04-05T08:46:40Z</time>
      </trkpt>
      <trkpt lat="44.87449" lon="0.35991">
        <ele>59.7</ele>
        <time>2022-04-05T08:46:41Z</time>
      </trkpt>
      <trkpt lat="44.8745" lon="0.35989">
        <ele>59.7</ele>
        <time>2022-04-05T08:46:42Z</time>
      </trkpt>
      <trkpt lat="44.87451" lon="0.35988">
        <ele>59.7</ele>
        <time>2022-04-05T08:46:43Z</time>
      </trkpt>
      <trkpt lat="44.87452" lon="0.35987">
        <ele>59.6</ele>
        <time>2022-04-05T08:46:44Z</time>
      </trkpt>
      <trkpt lat="44.87453" lon="0.35984">
        <ele>59.6</ele>
        <time>2022-04-05T08:46:45Z</time>
      </trkpt>
      <trkpt lat="44.87454" lon="0.35983">
        <ele>59.6</ele>
        <time>2022-04-05T08:46:46Z</time>
      </trkpt>
      <trkpt lat="44.87454" lon="0.35982">
        <ele>59.6</ele>
        <time>2022-04-05T08:46:47Z</time>
      </trkpt>
      <trkpt lat="44.87456" lon="0.3598">
        <ele>59.6</ele>
        <time>2022-04-05T08:46:49Z</time>
      </trkpt>
      <trkpt lat="44.87456" lon="0.35979">
        <ele>59.6</ele>
        <time>2022-04-05T08:46:50Z</time>
      </trkpt>
      <trkpt lat="44.87457" lon="0.35978">
        <ele>59.6</ele>
        <time>2022-04-05T08:46:51Z</time>
      </trkpt>
      <trkpt lat="44.87458" lon="0.35974">
        <ele>59.6</ele>
        <time>2022-04-05T08:46:52Z</time>
      </trkpt>
      <trkpt lat="44.87459" lon="0.35973">
        <ele>59.6</ele>
        <time>2022-04-05T08:46:53Z</time>
      </trkpt>
      <trkpt lat="44.87459" lon="0.35972">
        <ele>59.6</ele>
        <time>2022-04-05T08:46:54Z</time>
      </trkpt>
      <trkpt lat="44.8746" lon="0.35971">
        <ele>59.6</ele>
        <time>2022-04-05T08:46:55Z</time>
      </trkpt>
      <trkpt lat="44.87461" lon="0.35969">
        <ele>59.6</ele>
        <time>2022-04-05T08:46:56Z</time>
      </trkpt>
      <trkpt lat="44.87462" lon="0.35968">
        <ele>59.6</ele>
        <time>2022-04-05T08:46:57Z</time>
      </trkpt>
      <trkpt lat="44.87463" lon="0.35967">
        <ele>59.6</ele>
        <time>2022-04-05T08:46:58Z</time>
      </trkpt>
      <trkpt lat="44.87463" lon="0.35967">
        <ele>59.6</ele>
        <time>2022-04-05T08:46:59Z</time>
      </trkpt>
      <trkpt lat="44.87464" lon="0.35965">
        <ele>59.6</ele>
        <time>2022-04-05T08:47:00Z</time>
      </trkpt>
      <trkpt lat="44.87465" lon="0.35964">
        <ele>59.5</ele>
        <time>2022-04-05T08:47:01Z</time>
      </trkpt>
      <trkpt lat="44.87466" lon="0.35961">
        <ele>59.5</ele>
        <time>2022-04-05T08:47:03Z</time>
      </trkpt>
      <trkpt lat="44.87467" lon="0.35961">
        <ele>59.5</ele>
        <time>2022-04-05T08:47:04Z</time>
      </trkpt>
      <trkpt lat="44.87468" lon="0.35959">
        <ele>59.5</ele>
        <time>2022-04-05T08:47:05Z</time>
      </trkpt>
      <trkpt lat="44.87469" lon="0.35958">
        <ele>59.5</ele>
        <time>2022-04-05T08:47:06Z</time>
      </trkpt>
      <trkpt lat="44.8747" lon="0.35955">
        <ele>59.5</ele>
        <time>2022-04-05T08:47:07Z</time>
      </trkpt>
      <trkpt lat="44.87471" lon="0.35954">
        <ele>59.5</ele>
        <time>2022-04-05T08:47:08Z</time>
      </trkpt>
      <trkpt lat="44.87472" lon="0.35952">
        <ele>59.4</ele>
        <time>2022-04-05T08:47:09Z</time>
      </trkpt>
      <trkpt lat="44.87472" lon="0.35951">
        <ele>59.4</ele>
        <time>2022-04-05T08:47:10Z</time>
      </trkpt>
      <trkpt lat="44.87473" lon="0.35949">
        <ele>59.4</ele>
        <time>2022-04-05T08:47:11Z</time>
      </trkpt>
      <trkpt lat="44.87475" lon="0.35946">
        <ele>59.4</ele>
        <time>2022-04-05T08:47:12Z</time>
      </trkpt>
      <trkpt lat="44.87475" lon="0.35945">
        <ele>59.4</ele>
        <time>2022-04-05T08:47:14Z</time>
      </trkpt>
      <trkpt lat="44.87477" lon="0.35943">
        <ele>59.3</ele>
        <time>2022-04-05T08:47:15Z</time>
      </trkpt>
      <trkpt lat="44.87477" lon="0.35942">
        <ele>59.3</ele>
        <time>2022-04-05T08:47:16Z</time>
      </trkpt>
      <trkpt lat="44.87478" lon="0.35941">
        <ele>59.3</ele>
        <time>2022-04-05T08:47:17Z</time>
      </trkpt>
      <trkpt lat="44.8748" lon="0.35938">
        <ele>59.3</ele>
        <time>2022-04-05T08:47:18Z</time>
      </trkpt>
      <trkpt lat="44.87481" lon="0.35938">
        <ele>59.3</ele>
        <time>2022-04-05T08:47:19Z</time>
      </trkpt>
      <trkpt lat="44.87482" lon="0.35937">
        <ele>59.3</ele>
        <time>2022-04-05T08:47:20Z</time>
      </trkpt>
      <trkpt lat="44.87483" lon="0.35936">
        <ele>59.3</ele>
        <time>2022-04-05T08:47:21Z</time>
      </trkpt>
      <trkpt lat="44.87483" lon="0.35935">
        <ele>59.2</ele>
        <time>2022-04-05T08:47:22Z</time>
      </trkpt>
      <trkpt lat="44.87485" lon="0.35933">
        <ele>59.2</ele>
        <time>2022-04-05T08:47:23Z</time>
      </trkpt>
      <trkpt lat="44.87486" lon="0.35932">
        <ele>59.2</ele>
        <time>2022-04-05T08:47:24Z</time>
      </trkpt>
      <trkpt lat="44.87487" lon="0.3593">
        <ele>59.2</ele>
        <time>2022-04-05T08:47:25Z</time>
      </trkpt>
      <trkpt lat="44.87487" lon="0.35929">
        <ele>59.2</ele>
        <time>2022-04-05T08:47:26Z</time>
      </trkpt>
      <trkpt lat="44.87489" lon="0.35927">
        <ele>59.1</ele>
        <time>2022-04-05T08:47:27Z</time>
      </trkpt>
      <trkpt lat="44.8749" lon="0.35926">
        <ele>59.1</ele>
        <time>2022-04-05T08:47:28Z</time>
      </trkpt>
      <trkpt lat="44.87491" lon="0.35925">
        <ele>59.1</ele>
        <time>2022-04-05T08:47:29Z</time>
      </trkpt>
      <trkpt lat="44.87491" lon="0.35924">
        <ele>59.1</ele>
        <time>2022-04-05T08:47:30Z</time>
      </trkpt>
      <trkpt lat="44.87492" lon="0.35922">
        <ele>59</ele>
        <time>2022-04-05T08:47:32Z</time>
      </trkpt>
      <trkpt lat="44.87493" lon="0.35919">
        <ele>59</ele>
        <time>2022-04-05T08:47:33Z</time>
      </trkpt>
      <trkpt lat="44.87494" lon="0.35918">
        <ele>59</ele>
        <time>2022-04-05T08:47:34Z</time>
      </trkpt>
      <trkpt lat="44.87495" lon="0.35917">
        <ele>59</ele>
        <time>2022-04-05T08:47:35Z</time>
      </trkpt>
      <trkpt lat="44.87496" lon="0.35916">
        <ele>59</ele>
        <time>2022-04-05T08:47:36Z</time>
      </trkpt>
      <trkpt lat="44.87496" lon="0.35914">
        <ele>58.9</ele>
        <time>2022-04-05T08:47:37Z</time>
      </trkpt>
      <trkpt lat="44.87498" lon="0.35912">
        <ele>58.9</ele>
        <time>2022-04-05T08:47:38Z</time>
      </trkpt>
      <trkpt lat="44.87499" lon="0.35912">
        <ele>58.9</ele>
        <time>2022-04-05T08:47:39Z</time>
      </trkpt>
      <trkpt lat="44.875" lon="0.3591">
        <ele>58.9</ele>
        <time>2022-04-05T08:47:40Z</time>
      </trkpt>
      <trkpt lat="44.875" lon="0.35909">
        <ele>58.9</ele>
        <time>2022-04-05T08:47:41Z</time>
      </trkpt>
      <trkpt lat="44.87501" lon="0.35908">
        <ele>58.8</ele>
        <time>2022-04-05T08:47:42Z</time>
      </trkpt>
      <trkpt lat="44.87502" lon="0.35906">
        <ele>58.8</ele>
        <time>2022-04-05T08:47:43Z</time>
      </trkpt>
      <trkpt lat="44.87502" lon="0.35905">
        <ele>58.8</ele>
        <time>2022-04-05T08:47:44Z</time>
      </trkpt>
      <trkpt lat="44.87503" lon="0.35903">
        <ele>58.8</ele>
        <time>2022-04-05T08:47:45Z</time>
      </trkpt>
      <trkpt lat="44.87503" lon="0.35902">
        <ele>58.8</ele>
        <time>2022-04-05T08:47:46Z</time>
      </trkpt>
      <trkpt lat="44.87504" lon="0.35901">
        <ele>58.7</ele>
        <time>2022-04-05T08:47:47Z</time>
      </trkpt>
      <trkpt lat="44.87505" lon="0.35898">
        <ele>58.7</ele>
        <time>2022-04-05T08:47:48Z</time>
      </trkpt>
      <trkpt lat="44.87505" lon="0.35897">
        <ele>58.7</ele>
        <time>2022-04-05T08:47:49Z</time>
      </trkpt>
      <trkpt lat="44.87506" lon="0.35895">
        <ele>58.7</ele>
        <time>2022-04-05T08:47:50Z</time>
      </trkpt>
      <trkpt lat="44.87507" lon="0.35895">
        <ele>58.7</ele>
        <time>2022-04-05T08:47:51Z</time>
      </trkpt>
      <trkpt lat="44.87508" lon="0.35894">
        <ele>58.6</ele>
        <time>2022-04-05T08:47:53Z</time>
      </trkpt>
      <trkpt lat="44.87508" lon="0.35893">
        <ele>58.6</ele>
        <time>2022-04-05T08:47:54Z</time>
      </trkpt>
      <trkpt lat="44.87509" lon="0.35892">
        <ele>58.6</ele>
        <time>2022-04-05T08:47:55Z</time>
      </trkpt>
      <trkpt lat="44.87509" lon="0.35891">
        <ele>58.6</ele>
        <time>2022-04-05T08:47:56Z</time>
      </trkpt>
      <trkpt lat="44.8751" lon="0.3589">
        <ele>58.6</ele>
        <time>2022-04-05T08:47:57Z</time>
      </trkpt>
      <trkpt lat="44.87511" lon="0.35889">
        <ele>58.6</ele>
        <time>2022-04-05T08:47:58Z</time>
      </trkpt>
      <trkpt lat="44.87511" lon="0.35889">
        <ele>58.6</ele>
        <time>2022-04-05T08:47:59Z</time>
      </trkpt>
      <trkpt lat="44.87512" lon="0.35887">
        <ele>58.6</ele>
        <time>2022-04-05T08:48:00Z</time>
      </trkpt>
      <trkpt lat="44.87513" lon="0.35886">
        <ele>58.5</ele>
        <time>2022-04-05T08:48:01Z</time>
      </trkpt>
      <trkpt lat="44.87514" lon="0.35884">
        <ele>58.5</ele>
        <time>2022-04-05T08:48:02Z</time>
      </trkpt>
      <trkpt lat="44.87515" lon="0.35883">
        <ele>58.5</ele>
        <time>2022-04-05T08:48:03Z</time>
      </trkpt>
      <trkpt lat="44.87515" lon="0.35881">
        <ele>58.5</ele>
        <time>2022-04-05T08:48:04Z</time>
      </trkpt>
      <trkpt lat="44.87516" lon="0.3588">
        <ele>58.5</ele>
        <time>2022-04-05T08:48:05Z</time>
      </trkpt>
      <trkpt lat="44.87517" lon="0.35879">
        <ele>58.5</ele>
        <time>2022-04-05T08:48:06Z</time>
      </trkpt>
      <trkpt lat="44.87518" lon="0.35878">
        <ele>58.5</ele>
        <time>2022-04-05T08:48:07Z</time>
      </trkpt>
      <trkpt lat="44.87519" lon="0.35876">
        <ele>58.4</ele>
        <time>2022-04-05T08:48:09Z</time>
      </trkpt>
      <trkpt lat="44.8752" lon="0.35875">
        <ele>58.4</ele>
        <time>2022-04-05T08:48:10Z</time>
      </trkpt>
      <trkpt lat="44.87521" lon="0.35873">
        <ele>58.4</ele>
        <time>2022-04-05T08:48:11Z</time>
      </trkpt>
      <trkpt lat="44.87521" lon="0.35873">
        <ele>58.4</ele>
        <time>2022-04-05T08:48:12Z</time>
      </trkpt>
      <trkpt lat="44.87523" lon="0.35869">
        <ele>58.4</ele>
        <time>2022-04-05T08:48:13Z</time>
      </trkpt>
      <trkpt lat="44.87524" lon="0.35868">
        <ele>58.3</ele>
        <time>2022-04-05T08:48:14Z</time>
      </trkpt>
      <trkpt lat="44.87524" lon="0.35867">
        <ele>58.3</ele>
        <time>2022-04-05T08:48:15Z</time>
      </trkpt>
      <trkpt lat="44.87525" lon="0.35866">
        <ele>58.3</ele>
        <time>2022-04-05T08:48:16Z</time>
      </trkpt>
      <trkpt lat="44.87526" lon="0.35865">
        <ele>58.3</ele>
        <time>2022-04-05T08:48:17Z</time>
      </trkpt>
      <trkpt lat="44.87527" lon="0.35863">
        <ele>58.3</ele>
        <time>2022-04-05T08:48:18Z</time>
      </trkpt>
      <trkpt lat="44.87528" lon="0.35862">
        <ele>58.3</ele>
        <time>2022-04-05T08:48:19Z</time>
      </trkpt>
      <trkpt lat="44.87529" lon="0.35861">
        <ele>58.2</ele>
        <time>2022-04-05T08:48:20Z</time>
      </trkpt>
      <trkpt lat="44.8753" lon="0.35859">
        <ele>58.2</ele>
        <time>2022-04-05T08:48:21Z</time>
      </trkpt>
      <trkpt lat="44.87531" lon="0.35859">
        <ele>58.2</ele>
        <time>2022-04-05T08:48:22Z</time>
      </trkpt>
      <trkpt lat="44.87532" lon="0.35856">
        <ele>58.2</ele>
        <time>2022-04-05T08:48:23Z</time>
      </trkpt>
      <trkpt lat="44.87532" lon="0.35855">
        <ele>58.2</ele>
        <time>2022-04-05T08:48:24Z</time>
      </trkpt>
      <trkpt lat="44.87533" lon="0.35854">
        <ele>58.2</ele>
        <time>2022-04-05T08:48:25Z</time>
      </trkpt>
      <trkpt lat="44.87534" lon="0.35853">
        <ele>58.2</ele>
        <time>2022-04-05T08:48:26Z</time>
      </trkpt>
      <trkpt lat="44.87535" lon="0.3585">
        <ele>58.2</ele>
        <time>2022-04-05T08:48:28Z</time>
      </trkpt>
      <trkpt lat="44.87536" lon="0.35848">
        <ele>58.1</ele>
        <time>2022-04-05T08:48:29Z</time>
      </trkpt>
      <trkpt lat="44.87537" lon="0.35847">
        <ele>58.1</ele>
        <time>2022-04-05T08:48:30Z</time>
      </trkpt>
      <trkpt lat="44.87537" lon="0.35846">
        <ele>58.1</ele>
        <time>2022-04-05T08:48:31Z</time>
      </trkpt>
      <trkpt lat="44.87538" lon="0.35844">
        <ele>58.1</ele>
        <time>2022-04-05T08:48:32Z</time>
      </trkpt>
      <trkpt lat="44.87539" lon="0.35842">
        <ele>58.1</ele>
        <time>2022-04-05T08:48:33Z</time>
      </trkpt>
      <trkpt lat="44.87539" lon="0.35842">
        <ele>58.1</ele>
        <time>2022-04-05T08:48:34Z</time>
      </trkpt>
      <trkpt lat="44.8754" lon="0.3584">
        <ele>58.1</ele>
        <time>2022-04-05T08:48:35Z</time>
      </trkpt>
      <trkpt lat="44.87541" lon="0.35839">
        <ele>58.1</ele>
        <time>2022-04-05T08:48:36Z</time>
      </trkpt>
      <trkpt lat="44.87543" lon="0.35836">
        <ele>58</ele>
        <time>2022-04-05T08:48:38Z</time>
      </trkpt>
      <trkpt lat="44.87544" lon="0.35835">
        <ele>58</ele>
        <time>2022-04-05T08:48:39Z</time>
      </trkpt>
      <trkpt lat="44.87545" lon="0.35834">
        <ele>58</ele>
        <time>2022-04-05T08:48:40Z</time>
      </trkpt>
      <trkpt lat="44.87545" lon="0.35833">
        <ele>58</ele>
        <time>2022-04-05T08:48:41Z</time>
      </trkpt>
      <trkpt lat="44.87547" lon="0.35832">
        <ele>58</ele>
        <time>2022-04-05T08:48:42Z</time>
      </trkpt>
      <trkpt lat="44.87548" lon="0.3583">
        <ele>58</ele>
        <time>2022-04-05T08:48:43Z</time>
      </trkpt>
      <trkpt lat="44.87549" lon="0.35828">
        <ele>58</ele>
        <time>2022-04-05T08:48:45Z</time>
      </trkpt>
      <trkpt lat="44.8755" lon="0.35827">
        <ele>58</ele>
        <time>2022-04-05T08:48:46Z</time>
      </trkpt>
      <trkpt lat="44.87551" lon="0.35824">
        <ele>57.9</ele>
        <time>2022-04-05T08:48:47Z</time>
      </trkpt>
      <trkpt lat="44.87552" lon="0.35823">
        <ele>57.9</ele>
        <time>2022-04-05T08:48:48Z</time>
      </trkpt>
      <trkpt lat="44.87553" lon="0.35821">
        <ele>57.9</ele>
        <time>2022-04-05T08:48:49Z</time>
      </trkpt>
      <trkpt lat="44.87553" lon="0.3582">
        <ele>57.9</ele>
        <time>2022-04-05T08:48:50Z</time>
      </trkpt>
      <trkpt lat="44.87554" lon="0.35819">
        <ele>57.9</ele>
        <time>2022-04-05T08:48:51Z</time>
      </trkpt>
      <trkpt lat="44.87554" lon="0.35818">
        <ele>57.9</ele>
        <time>2022-04-05T08:48:52Z</time>
      </trkpt>
      <trkpt lat="44.87556" lon="0.35816">
        <ele>57.9</ele>
        <time>2022-04-05T08:48:53Z</time>
      </trkpt>
      <trkpt lat="44.87556" lon="0.35815">
        <ele>57.9</ele>
        <time>2022-04-05T08:48:54Z</time>
      </trkpt>
      <trkpt lat="44.87557" lon="0.35814">
        <ele>57.9</ele>
        <time>2022-04-05T08:48:55Z</time>
      </trkpt>
      <trkpt lat="44.87557" lon="0.35813">
        <ele>57.9</ele>
        <time>2022-04-05T08:48:56Z</time>
      </trkpt>
      <trkpt lat="44.87558" lon="0.35811">
        <ele>57.9</ele>
        <time>2022-04-05T08:48:57Z</time>
      </trkpt>
      <trkpt lat="44.8756" lon="0.35808">
        <ele>57.8</ele>
        <time>2022-04-05T08:48:58Z</time>
      </trkpt>
      <trkpt lat="44.8756" lon="0.35808">
        <ele>57.8</ele>
        <time>2022-04-05T08:48:59Z</time>
      </trkpt>
      <trkpt lat="44.87561" lon="0.35807">
        <ele>57.8</ele>
        <time>2022-04-05T08:49:00Z</time>
      </trkpt>
      <trkpt lat="44.87562" lon="0.35804">
        <ele>57.8</ele>
        <time>2022-04-05T08:49:02Z</time>
      </trkpt>
      <trkpt lat="44.87564" lon="0.35802">
        <ele>57.8</ele>
        <time>2022-04-05T08:49:04Z</time>
      </trkpt>
      <trkpt lat="44.87564" lon="0.35801">
        <ele>57.8</ele>
        <time>2022-04-05T08:49:05Z</time>
      </trkpt>
      <trkpt lat="44.87566" lon="0.35798">
        <ele>57.8</ele>
        <time>2022-04-05T08:49:06Z</time>
      </trkpt>
      <trkpt lat="44.87567" lon="0.35797">
        <ele>57.8</ele>
        <time>2022-04-05T08:49:07Z</time>
      </trkpt>
      <trkpt lat="44.87567" lon="0.35795">
        <ele>57.7</ele>
        <time>2022-04-05T08:49:08Z</time>
      </trkpt>
      <trkpt lat="44.87568" lon="0.35794">
        <ele>57.7</ele>
        <time>2022-04-05T08:49:09Z</time>
      </trkpt>
      <trkpt lat="44.87569" lon="0.35793">
        <ele>57.7</ele>
        <time>2022-04-05T08:49:10Z</time>
      </trkpt>
      <trkpt lat="44.87569" lon="0.35792">
        <ele>57.7</ele>
        <time>2022-04-05T08:49:11Z</time>
      </trkpt>
      <trkpt lat="44.8757" lon="0.35791">
        <ele>57.7</ele>
        <time>2022-04-05T08:49:12Z</time>
      </trkpt>
      <trkpt lat="44.87572" lon="0.35788">
        <ele>57.7</ele>
        <time>2022-04-05T08:49:13Z</time>
      </trkpt>
      <trkpt lat="44.87572" lon="0.35788">
        <ele>57.7</ele>
        <time>2022-04-05T08:49:14Z</time>
      </trkpt>
      <trkpt lat="44.87572" lon="0.35787">
        <ele>57.7</ele>
        <time>2022-04-05T08:49:15Z</time>
      </trkpt>
      <trkpt lat="44.87573" lon="0.35786">
        <ele>57.7</ele>
        <time>2022-04-05T08:49:16Z</time>
      </trkpt>
      <trkpt lat="44.87574" lon="0.35784">
        <ele>57.7</ele>
        <time>2022-04-05T08:49:17Z</time>
      </trkpt>
      <trkpt lat="44.87576" lon="0.35781">
        <ele>57.7</ele>
        <time>2022-04-05T08:49:18Z</time>
      </trkpt>
      <trkpt lat="44.87576" lon="0.35781">
        <ele>57.7</ele>
        <time>2022-04-05T08:49:19Z</time>
      </trkpt>
      <trkpt lat="44.87577" lon="0.35779">
        <ele>57.6</ele>
        <time>2022-04-05T08:49:20Z</time>
      </trkpt>
      <trkpt lat="44.87577" lon="0.35778">
        <ele>57.6</ele>
        <time>2022-04-05T08:49:21Z</time>
      </trkpt>
      <trkpt lat="44.87578" lon="0.35777">
        <ele>57.6</ele>
        <time>2022-04-05T08:49:22Z</time>
      </trkpt>
      <trkpt lat="44.87579" lon="0.35775">
        <ele>57.6</ele>
        <time>2022-04-05T08:49:23Z</time>
      </trkpt>
      <trkpt lat="44.8758" lon="0.35772">
        <ele>57.6</ele>
        <time>2022-04-05T08:49:25Z</time>
      </trkpt>
      <trkpt lat="44.87581" lon="0.35771">
        <ele>57.6</ele>
        <time>2022-04-05T08:49:26Z</time>
      </trkpt>
      <trkpt lat="44.87581" lon="0.3577">
        <ele>57.6</ele>
        <time>2022-04-05T08:49:27Z</time>
      </trkpt>
      <trkpt lat="44.87582" lon="0.35768">
        <ele>57.6</ele>
        <time>2022-04-05T08:49:28Z</time>
      </trkpt>
      <trkpt lat="44.87583" lon="0.35767">
        <ele>57.6</ele>
        <time>2022-04-05T08:49:29Z</time>
      </trkpt>
      <trkpt lat="44.87583" lon="0.35765">
        <ele>57.6</ele>
        <time>2022-04-05T08:49:30Z</time>
      </trkpt>
      <trkpt lat="44.87584" lon="0.35764">
        <ele>57.5</ele>
        <time>2022-04-05T08:49:31Z</time>
      </trkpt>
      <trkpt lat="44.87584" lon="0.35762">
        <ele>57.5</ele>
        <time>2022-04-05T08:49:32Z</time>
      </trkpt>
      <trkpt lat="44.87585" lon="0.35759">
        <ele>57.5</ele>
        <time>2022-04-05T08:49:33Z</time>
      </trkpt>
      <trkpt lat="44.87586" lon="0.35759">
        <ele>57.5</ele>
        <time>2022-04-05T08:49:35Z</time>
      </trkpt>
      <trkpt lat="44.87586" lon="0.35758">
        <ele>57.5</ele>
        <time>2022-04-05T08:49:36Z</time>
      </trkpt>
      <trkpt lat="44.87587" lon="0.35757">
        <ele>57.5</ele>
        <time>2022-04-05T08:49:37Z</time>
      </trkpt>
      <trkpt lat="44.87588" lon="0.35754">
        <ele>57.5</ele>
        <time>2022-04-05T08:49:38Z</time>
      </trkpt>
      <trkpt lat="44.87589" lon="0.35753">
        <ele>57.5</ele>
        <time>2022-04-05T08:49:39Z</time>
      </trkpt>
      <trkpt lat="44.8759" lon="0.35752">
        <ele>57.5</ele>
        <time>2022-04-05T08:49:40Z</time>
      </trkpt>
      <trkpt lat="44.8759" lon="0.35751">
        <ele>57.4</ele>
        <time>2022-04-05T08:49:41Z</time>
      </trkpt>
      <trkpt lat="44.87591" lon="0.3575">
        <ele>57.4</ele>
        <time>2022-04-05T08:49:42Z</time>
      </trkpt>
      <trkpt lat="44.87592" lon="0.35748">
        <ele>57.4</ele>
        <time>2022-04-05T08:49:43Z</time>
      </trkpt>
      <trkpt lat="44.87592" lon="0.35747">
        <ele>57.4</ele>
        <time>2022-04-05T08:49:44Z</time>
      </trkpt>
      <trkpt lat="44.87593" lon="0.35746">
        <ele>57.4</ele>
        <time>2022-04-05T08:49:45Z</time>
      </trkpt>
      <trkpt lat="44.87594" lon="0.35744">
        <ele>57.4</ele>
        <time>2022-04-05T08:49:46Z</time>
      </trkpt>
      <trkpt lat="44.87594" lon="0.35743">
        <ele>57.4</ele>
        <time>2022-04-05T08:49:47Z</time>
      </trkpt>
      <trkpt lat="44.87596" lon="0.35741">
        <ele>57.4</ele>
        <time>2022-04-05T08:49:48Z</time>
      </trkpt>
      <trkpt lat="44.87597" lon="0.35741">
        <ele>57.4</ele>
        <time>2022-04-05T08:49:49Z</time>
      </trkpt>
      <trkpt lat="44.87598" lon="0.35739">
        <ele>57.3</ele>
        <time>2022-04-05T08:49:50Z</time>
      </trkpt>
      <trkpt lat="44.87599" lon="0.35738">
        <ele>57.3</ele>
        <time>2022-04-05T08:49:52Z</time>
      </trkpt>
      <trkpt lat="44.876" lon="0.35735">
        <ele>57.3</ele>
        <time>2022-04-05T08:49:53Z</time>
      </trkpt>
      <trkpt lat="44.87601" lon="0.35734">
        <ele>57.3</ele>
        <time>2022-04-05T08:49:54Z</time>
      </trkpt>
      <trkpt lat="44.87601" lon="0.35732">
        <ele>57.3</ele>
        <time>2022-04-05T08:49:55Z</time>
      </trkpt>
      <trkpt lat="44.87602" lon="0.35731">
        <ele>57.3</ele>
        <time>2022-04-05T08:49:56Z</time>
      </trkpt>
      <trkpt lat="44.87603" lon="0.35729">
        <ele>57.3</ele>
        <time>2022-04-05T08:49:57Z</time>
      </trkpt>
      <trkpt lat="44.87604" lon="0.35727">
        <ele>57.3</ele>
        <time>2022-04-05T08:49:59Z</time>
      </trkpt>
      <trkpt lat="44.87604" lon="0.35726">
        <ele>57.3</ele>
        <time>2022-04-05T08:50:00Z</time>
      </trkpt>
      <trkpt lat="44.87605" lon="0.35725">
        <ele>57.3</ele>
        <time>2022-04-05T08:50:01Z</time>
      </trkpt>
      <trkpt lat="44.87606" lon="0.35723">
        <ele>57.3</ele>
        <time>2022-04-05T08:50:02Z</time>
      </trkpt>
      <trkpt lat="44.87608" lon="0.3572">
        <ele>57.2</ele>
        <time>2022-04-05T08:50:03Z</time>
      </trkpt>
      <trkpt lat="44.87608" lon="0.35719">
        <ele>57.2</ele>
        <time>2022-04-05T08:50:04Z</time>
      </trkpt>
      <trkpt lat="44.87608" lon="0.35719">
        <ele>57.2</ele>
        <time>2022-04-05T08:50:05Z</time>
      </trkpt>
      <trkpt lat="44.87609" lon="0.35716">
        <ele>57.2</ele>
        <time>2022-04-05T08:50:06Z</time>
      </trkpt>
      <trkpt lat="44.8761" lon="0.35714">
        <ele>57.2</ele>
        <time>2022-04-05T08:50:07Z</time>
      </trkpt>
      <trkpt lat="44.87611" lon="0.35713">
        <ele>57.2</ele>
        <time>2022-04-05T08:50:08Z</time>
      </trkpt>
      <trkpt lat="44.87611" lon="0.35712">
        <ele>57.2</ele>
        <time>2022-04-05T08:50:09Z</time>
      </trkpt>
      <trkpt lat="44.87611" lon="0.3571">
        <ele>57.2</ele>
        <time>2022-04-05T08:50:11Z</time>
      </trkpt>
      <trkpt lat="44.87612" lon="0.35708">
        <ele>57.2</ele>
        <time>2022-04-05T08:50:12Z</time>
      </trkpt>
      <trkpt lat="44.87614" lon="0.35706">
        <ele>57.2</ele>
        <time>2022-04-05T08:50:13Z</time>
      </trkpt>
      <trkpt lat="44.87615" lon="0.35704">
        <ele>57.2</ele>
        <time>2022-04-05T08:50:15Z</time>
      </trkpt>
      <trkpt lat="44.87616" lon="0.35702">
        <ele>57.2</ele>
        <time>2022-04-05T08:50:16Z</time>
      </trkpt>
      <trkpt lat="44.87617" lon="0.357">
        <ele>57.2</ele>
        <time>2022-04-05T08:50:17Z</time>
      </trkpt>
      <trkpt lat="44.87618" lon="0.35699">
        <ele>57.2</ele>
        <time>2022-04-05T08:50:18Z</time>
      </trkpt>
      <trkpt lat="44.87619" lon="0.35698">
        <ele>57.2</ele>
        <time>2022-04-05T08:50:19Z</time>
      </trkpt>
      <trkpt lat="44.87619" lon="0.35696">
        <ele>57.2</ele>
        <time>2022-04-05T08:50:20Z</time>
      </trkpt>
      <trkpt lat="44.8762" lon="0.35694">
        <ele>57.2</ele>
        <time>2022-04-05T08:50:22Z</time>
      </trkpt>
      <trkpt lat="44.87622" lon="0.35692">
        <ele>57.2</ele>
        <time>2022-04-05T08:50:24Z</time>
      </trkpt>
      <trkpt lat="44.87622" lon="0.35691">
        <ele>57.2</ele>
        <time>2022-04-05T08:50:25Z</time>
      </trkpt>
      <trkpt lat="44.87623" lon="0.35689">
        <ele>57.2</ele>
        <time>2022-04-05T08:50:26Z</time>
      </trkpt>
      <trkpt lat="44.87624" lon="0.35688">
        <ele>57.2</ele>
        <time>2022-04-05T08:50:27Z</time>
      </trkpt>
      <trkpt lat="44.87625" lon="0.35685">
        <ele>57.2</ele>
        <time>2022-04-05T08:50:28Z</time>
      </trkpt>
      <trkpt lat="44.87626" lon="0.35684">
        <ele>57.2</ele>
        <time>2022-04-05T08:50:29Z</time>
      </trkpt>
      <trkpt lat="44.87627" lon="0.35683">
        <ele>57.2</ele>
        <time>2022-04-05T08:50:30Z</time>
      </trkpt>
      <trkpt lat="44.87627" lon="0.35682">
        <ele>57.2</ele>
        <time>2022-04-05T08:50:31Z</time>
      </trkpt>
      <trkpt lat="44.87628" lon="0.3568">
        <ele>57.2</ele>
        <time>2022-04-05T08:50:33Z</time>
      </trkpt>
      <trkpt lat="44.8763" lon="0.35679">
        <ele>57.2</ele>
        <time>2022-04-05T08:50:34Z</time>
      </trkpt>
      <trkpt lat="44.87631" lon="0.35679">
        <ele>57.2</ele>
        <time>2022-04-05T08:50:35Z</time>
      </trkpt>
      <trkpt lat="44.87631" lon="0.35677">
        <ele>57.2</ele>
        <time>2022-04-05T08:50:36Z</time>
      </trkpt>
      <trkpt lat="44.87632" lon="0.35676">
        <ele>57.2</ele>
        <time>2022-04-05T08:50:37Z</time>
      </trkpt>
      <trkpt lat="44.87633" lon="0.35675">
        <ele>57.2</ele>
        <time>2022-04-05T08:50:38Z</time>
      </trkpt>
      <trkpt lat="44.87634" lon="0.35673">
        <ele>57.2</ele>
        <time>2022-04-05T08:50:39Z</time>
      </trkpt>
      <trkpt lat="44.87635" lon="0.35671">
        <ele>57.2</ele>
        <time>2022-04-05T08:50:40Z</time>
      </trkpt>
      <trkpt lat="44.87636" lon="0.35669">
        <ele>57.3</ele>
        <time>2022-04-05T08:50:41Z</time>
      </trkpt>
      <trkpt lat="44.87637" lon="0.35668">
        <ele>57.3</ele>
        <time>2022-04-05T08:50:42Z</time>
      </trkpt>
      <trkpt lat="44.87638" lon="0.35667">
        <ele>57.3</ele>
        <time>2022-04-05T08:50:43Z</time>
      </trkpt>
      <trkpt lat="44.87638" lon="0.35666">
        <ele>57.3</ele>
        <time>2022-04-05T08:50:44Z</time>
      </trkpt>
      <trkpt lat="44.87638" lon="0.35665">
        <ele>57.3</ele>
        <time>2022-04-05T08:50:45Z</time>
      </trkpt>
      <trkpt lat="44.87639" lon="0.35663">
        <ele>57.3</ele>
        <time>2022-04-05T08:50:46Z</time>
      </trkpt>
      <trkpt lat="44.87641" lon="0.3566">
        <ele>57.3</ele>
        <time>2022-04-05T08:50:47Z</time>
      </trkpt>
      <trkpt lat="44.87641" lon="0.35659">
        <ele>57.3</ele>
        <time>2022-04-05T08:50:48Z</time>
      </trkpt>
      <trkpt lat="44.87642" lon="0.35657">
        <ele>57.3</ele>
        <time>2022-04-05T08:50:50Z</time>
      </trkpt>
      <trkpt lat="44.87643" lon="0.35656">
        <ele>57.3</ele>
        <time>2022-04-05T08:50:51Z</time>
      </trkpt>
      <trkpt lat="44.87643" lon="0.35655">
        <ele>57.3</ele>
        <time>2022-04-05T08:50:52Z</time>
      </trkpt>
      <trkpt lat="44.87644" lon="0.35653">
        <ele>57.3</ele>
        <time>2022-04-05T08:50:53Z</time>
      </trkpt>
      <trkpt lat="44.87645" lon="0.35651">
        <ele>57.3</ele>
        <time>2022-04-05T08:50:54Z</time>
      </trkpt>
      <trkpt lat="44.87646" lon="0.35649">
        <ele>57.3</ele>
        <time>2022-04-05T08:50:55Z</time>
      </trkpt>
      <trkpt lat="44.87647" lon="0.35648">
        <ele>57.3</ele>
        <time>2022-04-05T08:50:56Z</time>
      </trkpt>
      <trkpt lat="44.87648" lon="0.35647">
        <ele>57.3</ele>
        <time>2022-04-05T08:50:57Z</time>
      </trkpt>
      <trkpt lat="44.8765" lon="0.35644">
        <ele>57.3</ele>
        <time>2022-04-05T08:50:58Z</time>
      </trkpt>
      <trkpt lat="44.8765" lon="0.35644">
        <ele>57.4</ele>
        <time>2022-04-05T08:50:59Z</time>
      </trkpt>
      <trkpt lat="44.87651" lon="0.35643">
        <ele>57.4</ele>
        <time>2022-04-05T08:51:00Z</time>
      </trkpt>
      <trkpt lat="44.87652" lon="0.35642">
        <ele>57.4</ele>
        <time>2022-04-05T08:51:02Z</time>
      </trkpt>
      <trkpt lat="44.87653" lon="0.3564">
        <ele>57.4</ele>
        <time>2022-04-05T08:51:03Z</time>
      </trkpt>
      <trkpt lat="44.87655" lon="0.35639">
        <ele>57.4</ele>
        <time>2022-04-05T08:51:04Z</time>
      </trkpt>
      <trkpt lat="44.87655" lon="0.35637">
        <ele>57.4</ele>
        <time>2022-04-05T08:51:05Z</time>
      </trkpt>
      <trkpt lat="44.87656" lon="0.35636">
        <ele>57.4</ele>
        <time>2022-04-05T08:51:06Z</time>
      </trkpt>
      <trkpt lat="44.87657" lon="0.35635">
        <ele>57.4</ele>
        <time>2022-04-05T08:51:07Z</time>
      </trkpt>
      <trkpt lat="44.87659" lon="0.35632">
        <ele>57.4</ele>
        <time>2022-04-05T08:51:09Z</time>
      </trkpt>
      <trkpt lat="44.8766" lon="0.3563">
        <ele>57.4</ele>
        <time>2022-04-05T08:51:10Z</time>
      </trkpt>
      <trkpt lat="44.87661" lon="0.3563">
        <ele>57.5</ele>
        <time>2022-04-05T08:51:11Z</time>
      </trkpt>
      <trkpt lat="44.87662" lon="0.35629">
        <ele>57.5</ele>
        <time>2022-04-05T08:51:12Z</time>
      </trkpt>
      <trkpt lat="44.87663" lon="0.35628">
        <ele>57.5</ele>
        <time>2022-04-05T08:51:13Z</time>
      </trkpt>
      <trkpt lat="44.87664" lon="0.35626">
        <ele>57.5</ele>
        <time>2022-04-05T08:51:14Z</time>
      </trkpt>
      <trkpt lat="44.87665" lon="0.35626">
        <ele>57.5</ele>
        <time>2022-04-05T08:51:15Z</time>
      </trkpt>
      <trkpt lat="44.87666" lon="0.35623">
        <ele>57.5</ele>
        <time>2022-04-05T08:51:16Z</time>
      </trkpt>
      <trkpt lat="44.87667" lon="0.35623">
        <ele>57.5</ele>
        <time>2022-04-05T08:51:17Z</time>
      </trkpt>
      <trkpt lat="44.87667" lon="0.35622">
        <ele>57.5</ele>
        <time>2022-04-05T08:51:18Z</time>
      </trkpt>
      <trkpt lat="44.87669" lon="0.35619">
        <ele>57.6</ele>
        <time>2022-04-05T08:51:19Z</time>
      </trkpt>
      <trkpt lat="44.87669" lon="0.35618">
        <ele>57.6</ele>
        <time>2022-04-05T08:51:20Z</time>
      </trkpt>
      <trkpt lat="44.8767" lon="0.35618">
        <ele>57.6</ele>
        <time>2022-04-05T08:51:21Z</time>
      </trkpt>
      <trkpt lat="44.87671" lon="0.35616">
        <ele>57.6</ele>
        <time>2022-04-05T08:51:22Z</time>
      </trkpt>
      <trkpt lat="44.87672" lon="0.35615">
        <ele>57.6</ele>
        <time>2022-04-05T08:51:23Z</time>
      </trkpt>
      <trkpt lat="44.87673" lon="0.35613">
        <ele>57.6</ele>
        <time>2022-04-05T08:51:24Z</time>
      </trkpt>
      <trkpt lat="44.87674" lon="0.35612">
        <ele>57.7</ele>
        <time>2022-04-05T08:51:25Z</time>
      </trkpt>
      <trkpt lat="44.87674" lon="0.35611">
        <ele>57.7</ele>
        <time>2022-04-05T08:51:26Z</time>
      </trkpt>
      <trkpt lat="44.87675" lon="0.3561">
        <ele>57.7</ele>
        <time>2022-04-05T08:51:27Z</time>
      </trkpt>
      <trkpt lat="44.87676" lon="0.35609">
        <ele>57.7</ele>
        <time>2022-04-05T08:51:28Z</time>
      </trkpt>
      <trkpt lat="44.87678" lon="0.35608">
        <ele>57.7</ele>
        <time>2022-04-05T08:51:29Z</time>
      </trkpt>
      <trkpt lat="44.87679" lon="0.35607">
        <ele>57.7</ele>
        <time>2022-04-05T08:51:30Z</time>
      </trkpt>
      <trkpt lat="44.8768" lon="0.35606">
        <ele>57.8</ele>
        <time>2022-04-05T08:51:31Z</time>
      </trkpt>
      <trkpt lat="44.87681" lon="0.35605">
        <ele>57.8</ele>
        <time>2022-04-05T08:51:32Z</time>
      </trkpt>
      <trkpt lat="44.87683" lon="0.35603">
        <ele>57.8</ele>
        <time>2022-04-05T08:51:34Z</time>
      </trkpt>
      <trkpt lat="44.87683" lon="0.35601">
        <ele>57.8</ele>
        <time>2022-04-05T08:51:35Z</time>
      </trkpt>
      <trkpt lat="44.87684" lon="0.356">
        <ele>57.9</ele>
        <time>2022-04-05T08:51:36Z</time>
      </trkpt>
      <trkpt lat="44.87686" lon="0.35597">
        <ele>57.9</ele>
        <time>2022-04-05T08:51:37Z</time>
      </trkpt>
      <trkpt lat="44.87687" lon="0.35596">
        <ele>57.9</ele>
        <time>2022-04-05T08:51:38Z</time>
      </trkpt>
      <trkpt lat="44.87688" lon="0.35594">
        <ele>57.9</ele>
        <time>2022-04-05T08:51:39Z</time>
      </trkpt>
      <trkpt lat="44.87689" lon="0.35594">
        <ele>57.9</ele>
        <time>2022-04-05T08:51:40Z</time>
      </trkpt>
      <trkpt lat="44.87689" lon="0.35593">
        <ele>58</ele>
        <time>2022-04-05T08:51:41Z</time>
      </trkpt>
      <trkpt lat="44.8769" lon="0.35591">
        <ele>58</ele>
        <time>2022-04-05T08:51:42Z</time>
      </trkpt>
      <trkpt lat="44.87691" lon="0.3559">
        <ele>58</ele>
        <time>2022-04-05T08:51:43Z</time>
      </trkpt>
      <trkpt lat="44.87692" lon="0.35588">
        <ele>58</ele>
        <time>2022-04-05T08:51:44Z</time>
      </trkpt>
      <trkpt lat="44.87693" lon="0.35587">
        <ele>58</ele>
        <time>2022-04-05T08:51:45Z</time>
      </trkpt>
      <trkpt lat="44.87695" lon="0.35586">
        <ele>58.1</ele>
        <time>2022-04-05T08:51:47Z</time>
      </trkpt>
      <trkpt lat="44.87696" lon="0.35585">
        <ele>58.1</ele>
        <time>2022-04-05T08:51:48Z</time>
      </trkpt>
      <trkpt lat="44.87698" lon="0.35583">
        <ele>58.1</ele>
        <time>2022-04-05T08:51:49Z</time>
      </trkpt>
      <trkpt lat="44.87699" lon="0.35581">
        <ele>58.1</ele>
        <time>2022-04-05T08:51:50Z</time>
      </trkpt>
      <trkpt lat="44.877" lon="0.35581">
        <ele>58.1</ele>
        <time>2022-04-05T08:51:51Z</time>
      </trkpt>
      <trkpt lat="44.87701" lon="0.3558">
        <ele>58.2</ele>
        <time>2022-04-05T08:51:52Z</time>
      </trkpt>
      <trkpt lat="44.87702" lon="0.35579">
        <ele>58.2</ele>
        <time>2022-04-05T08:51:53Z</time>
      </trkpt>
      <trkpt lat="44.87704" lon="0.35578">
        <ele>58.2</ele>
        <time>2022-04-05T08:51:54Z</time>
      </trkpt>
      <trkpt lat="44.87705" lon="0.35577">
        <ele>58.2</ele>
        <time>2022-04-05T08:51:55Z</time>
      </trkpt>
      <trkpt lat="44.87706" lon="0.35576">
        <ele>58.2</ele>
        <time>2022-04-05T08:51:57Z</time>
      </trkpt>
      <trkpt lat="44.87707" lon="0.35575">
        <ele>58.3</ele>
        <time>2022-04-05T08:51:58Z</time>
      </trkpt>
      <trkpt lat="44.87709" lon="0.35573">
        <ele>58.3</ele>
        <time>2022-04-05T08:51:59Z</time>
      </trkpt>
      <trkpt lat="44.87709" lon="0.35573">
        <ele>58.3</ele>
        <time>2022-04-05T08:52:00Z</time>
      </trkpt>
      <trkpt lat="44.8771" lon="0.35571">
        <ele>58.3</ele>
        <time>2022-04-05T08:52:01Z</time>
      </trkpt>
      <trkpt lat="44.87711" lon="0.35571">
        <ele>58.3</ele>
        <time>2022-04-05T08:52:02Z</time>
      </trkpt>
      <trkpt lat="44.87712" lon="0.3557">
        <ele>58.4</ele>
        <time>2022-04-05T08:52:03Z</time>
      </trkpt>
      <trkpt lat="44.87713" lon="0.35568">
        <ele>58.4</ele>
        <time>2022-04-05T08:52:04Z</time>
      </trkpt>
      <trkpt lat="44.87714" lon="0.35567">
        <ele>58.4</ele>
        <time>2022-04-05T08:52:05Z</time>
      </trkpt>
      <trkpt lat="44.87715" lon="0.35565">
        <ele>58.4</ele>
        <time>2022-04-05T08:52:06Z</time>
      </trkpt>
      <trkpt lat="44.87716" lon="0.35564">
        <ele>58.4</ele>
        <time>2022-04-05T08:52:07Z</time>
      </trkpt>
      <trkpt lat="44.87718" lon="0.35562">
        <ele>58.5</ele>
        <time>2022-04-05T08:52:08Z</time>
      </trkpt>
      <trkpt lat="44.87719" lon="0.35561">
        <ele>58.5</ele>
        <time>2022-04-05T08:52:10Z</time>
      </trkpt>
      <trkpt lat="44.8772" lon="0.3556">
        <ele>58.5</ele>
        <time>2022-04-05T08:52:11Z</time>
      </trkpt>
      <trkpt lat="44.87721" lon="0.35559">
        <ele>58.5</ele>
        <time>2022-04-05T08:52:12Z</time>
      </trkpt>
      <trkpt lat="44.87722" lon="0.35558">
        <ele>58.6</ele>
        <time>2022-04-05T08:52:13Z</time>
      </trkpt>
      <trkpt lat="44.87723" lon="0.35556">
        <ele>58.6</ele>
        <time>2022-04-05T08:52:14Z</time>
      </trkpt>
      <trkpt lat="44.87724" lon="0.35555">
        <ele>58.6</ele>
        <time>2022-04-05T08:52:15Z</time>
      </trkpt>
      <trkpt lat="44.87725" lon="0.35554">
        <ele>58.6</ele>
        <time>2022-04-05T08:52:16Z</time>
      </trkpt>
      <trkpt lat="44.87726" lon="0.35553">
        <ele>58.6</ele>
        <time>2022-04-05T08:52:17Z</time>
      </trkpt>
      <trkpt lat="44.87728" lon="0.35552">
        <ele>58.7</ele>
        <time>2022-04-05T08:52:18Z</time>
      </trkpt>
      <trkpt lat="44.87729" lon="0.35551">
        <ele>58.7</ele>
        <time>2022-04-05T08:52:19Z</time>
      </trkpt>
      <trkpt lat="44.87731" lon="0.35549">
        <ele>58.7</ele>
        <time>2022-04-05T08:52:20Z</time>
      </trkpt>
      <trkpt lat="44.87731" lon="0.35548">
        <ele>58.7</ele>
        <time>2022-04-05T08:52:22Z</time>
      </trkpt>
      <trkpt lat="44.87732" lon="0.35548">
        <ele>58.7</ele>
        <time>2022-04-05T08:52:23Z</time>
      </trkpt>
      <trkpt lat="44.87734" lon="0.35545">
        <ele>58.8</ele>
        <time>2022-04-05T08:52:24Z</time>
      </trkpt>
      <trkpt lat="44.87735" lon="0.35545">
        <ele>58.8</ele>
        <time>2022-04-05T08:52:25Z</time>
      </trkpt>
      <trkpt lat="44.87735" lon="0.35544">
        <ele>58.8</ele>
        <time>2022-04-05T08:52:26Z</time>
      </trkpt>
      <trkpt lat="44.87736" lon="0.35544">
        <ele>58.8</ele>
        <time>2022-04-05T08:52:27Z</time>
      </trkpt>
      <trkpt lat="44.87737" lon="0.35543">
        <ele>58.8</ele>
        <time>2022-04-05T08:52:28Z</time>
      </trkpt>
      <trkpt lat="44.87739" lon="0.35541">
        <ele>58.8</ele>
        <time>2022-04-05T08:52:29Z</time>
      </trkpt>
      <trkpt lat="44.8774" lon="0.3554">
        <ele>58.8</ele>
        <time>2022-04-05T08:52:30Z</time>
      </trkpt>
      <trkpt lat="44.87741" lon="0.35539">
        <ele>58.8</ele>
        <time>2022-04-05T08:52:31Z</time>
      </trkpt>
      <trkpt lat="44.87742" lon="0.35538">
        <ele>58.9</ele>
        <time>2022-04-05T08:52:32Z</time>
      </trkpt>
      <trkpt lat="44.87744" lon="0.35536">
        <ele>58.9</ele>
        <time>2022-04-05T08:52:34Z</time>
      </trkpt>
      <trkpt lat="44.87745" lon="0.35535">
        <ele>58.9</ele>
        <time>2022-04-05T08:52:35Z</time>
      </trkpt>
      <trkpt lat="44.87746" lon="0.35534">
        <ele>58.9</ele>
        <time>2022-04-05T08:52:36Z</time>
      </trkpt>
      <trkpt lat="44.87746" lon="0.35533">
        <ele>58.9</ele>
        <time>2022-04-05T08:52:37Z</time>
      </trkpt>
      <trkpt lat="44.87748" lon="0.35532">
        <ele>58.9</ele>
        <time>2022-04-05T08:52:38Z</time>
      </trkpt>
      <trkpt lat="44.87749" lon="0.3553">
        <ele>58.9</ele>
        <time>2022-04-05T08:52:39Z</time>
      </trkpt>
      <trkpt lat="44.8775" lon="0.35529">
        <ele>58.9</ele>
        <time>2022-04-05T08:52:40Z</time>
      </trkpt>
      <trkpt lat="44.87751" lon="0.35529">
        <ele>58.9</ele>
        <time>2022-04-05T08:52:41Z</time>
      </trkpt>
      <trkpt lat="44.87752" lon="0.35528">
        <ele>58.9</ele>
        <time>2022-04-05T08:52:42Z</time>
      </trkpt>
      <trkpt lat="44.87754" lon="0.35526">
        <ele>58.9</ele>
        <time>2022-04-05T08:52:43Z</time>
      </trkpt>
      <trkpt lat="44.87755" lon="0.35525">
        <ele>58.9</ele>
        <time>2022-04-05T08:52:44Z</time>
      </trkpt>
      <trkpt lat="44.87756" lon="0.35524">
        <ele>58.9</ele>
        <time>2022-04-05T08:52:45Z</time>
      </trkpt>
      <trkpt lat="44.87757" lon="0.35524">
        <ele>58.9</ele>
        <time>2022-04-05T08:52:46Z</time>
      </trkpt>
      <trkpt lat="44.87758" lon="0.35522">
        <ele>58.9</ele>
        <time>2022-04-05T08:52:48Z</time>
      </trkpt>
      <trkpt lat="44.8776" lon="0.35521">
        <ele>58.9</ele>
        <time>2022-04-05T08:52:49Z</time>
      </trkpt>
      <trkpt lat="44.87761" lon="0.3552">
        <ele>58.9</ele>
        <time>2022-04-05T08:52:50Z</time>
      </trkpt>
      <trkpt lat="44.87762" lon="0.35518">
        <ele>58.9</ele>
        <time>2022-04-05T08:52:51Z</time>
      </trkpt>
      <trkpt lat="44.87763" lon="0.35517">
        <ele>58.9</ele>
        <time>2022-04-05T08:52:52Z</time>
      </trkpt>
      <trkpt lat="44.87763" lon="0.35516">
        <ele>58.9</ele>
        <time>2022-04-05T08:52:53Z</time>
      </trkpt>
      <trkpt lat="44.87765" lon="0.35515">
        <ele>58.8</ele>
        <time>2022-04-05T08:52:55Z</time>
      </trkpt>
      <trkpt lat="44.87766" lon="0.35514">
        <ele>58.8</ele>
        <time>2022-04-05T08:52:56Z</time>
      </trkpt>
      <trkpt lat="44.87767" lon="0.35513">
        <ele>58.8</ele>
        <time>2022-04-05T08:52:57Z</time>
      </trkpt>
      <trkpt lat="44.87768" lon="0.35512">
        <ele>58.8</ele>
        <time>2022-04-05T08:52:58Z</time>
      </trkpt>
      <trkpt lat="44.8777" lon="0.3551">
        <ele>58.7</ele>
        <time>2022-04-05T08:52:59Z</time>
      </trkpt>
      <trkpt lat="44.8777" lon="0.35509">
        <ele>58.7</ele>
        <time>2022-04-05T08:53:00Z</time>
      </trkpt>
      <trkpt lat="44.87772" lon="0.35508">
        <ele>58.6</ele>
        <time>2022-04-05T08:53:01Z</time>
      </trkpt>
      <trkpt lat="44.87773" lon="0.35507">
        <ele>58.6</ele>
        <time>2022-04-05T08:53:02Z</time>
      </trkpt>
      <trkpt lat="44.87774" lon="0.35506">
        <ele>58.6</ele>
        <time>2022-04-05T08:53:03Z</time>
      </trkpt>
      <trkpt lat="44.87775" lon="0.35505">
        <ele>58.5</ele>
        <time>2022-04-05T08:53:04Z</time>
      </trkpt>
      <trkpt lat="44.87776" lon="0.35504">
        <ele>58.5</ele>
        <time>2022-04-05T08:53:05Z</time>
      </trkpt>
      <trkpt lat="44.87777" lon="0.35503">
        <ele>58.4</ele>
        <time>2022-04-05T08:53:07Z</time>
      </trkpt>
      <trkpt lat="44.87778" lon="0.35502">
        <ele>58.4</ele>
        <time>2022-04-05T08:53:08Z</time>
      </trkpt>
      <trkpt lat="44.8778" lon="0.355">
        <ele>58.3</ele>
        <time>2022-04-05T08:53:09Z</time>
      </trkpt>
      <trkpt lat="44.87781" lon="0.35499">
        <ele>58.3</ele>
        <time>2022-04-05T08:53:10Z</time>
      </trkpt>
      <trkpt lat="44.87782" lon="0.35497">
        <ele>58.2</ele>
        <time>2022-04-05T08:53:11Z</time>
      </trkpt>
      <trkpt lat="44.87783" lon="0.35496">
        <ele>58.1</ele>
        <time>2022-04-05T08:53:12Z</time>
      </trkpt>
      <trkpt lat="44.87784" lon="0.35496">
        <ele>58.1</ele>
        <time>2022-04-05T08:53:13Z</time>
      </trkpt>
      <trkpt lat="44.87787" lon="0.35493">
        <ele>57.9</ele>
        <time>2022-04-05T08:53:14Z</time>
      </trkpt>
      <trkpt lat="44.87788" lon="0.35493">
        <ele>57.9</ele>
        <time>2022-04-05T08:53:16Z</time>
      </trkpt>
      <trkpt lat="44.87789" lon="0.35492">
        <ele>57.8</ele>
        <time>2022-04-05T08:53:17Z</time>
      </trkpt>
      <trkpt lat="44.8779" lon="0.35491">
        <ele>57.7</ele>
        <time>2022-04-05T08:53:18Z</time>
      </trkpt>
      <trkpt lat="44.87791" lon="0.3549">
        <ele>57.7</ele>
        <time>2022-04-05T08:53:19Z</time>
      </trkpt>
      <trkpt lat="44.87791" lon="0.35489">
        <ele>57.6</ele>
        <time>2022-04-05T08:53:20Z</time>
      </trkpt>
      <trkpt lat="44.87792" lon="0.35488">
        <ele>57.5</ele>
        <time>2022-04-05T08:53:21Z</time>
      </trkpt>
      <trkpt lat="44.87793" lon="0.35487">
        <ele>57.5</ele>
        <time>2022-04-05T08:53:22Z</time>
      </trkpt>
      <trkpt lat="44.87794" lon="0.35486">
        <ele>57.4</ele>
        <time>2022-04-05T08:53:23Z</time>
      </trkpt>
      <trkpt lat="44.87796" lon="0.35484">
        <ele>57.3</ele>
        <time>2022-04-05T08:53:24Z</time>
      </trkpt>
      <trkpt lat="44.87798" lon="0.35483">
        <ele>57.1</ele>
        <time>2022-04-05T08:53:25Z</time>
      </trkpt>
      <trkpt lat="44.87799" lon="0.35482">
        <ele>57.1</ele>
        <time>2022-04-05T08:53:27Z</time>
      </trkpt>
      <trkpt lat="44.87799" lon="0.35481">
        <ele>57</ele>
        <time>2022-04-05T08:53:28Z</time>
      </trkpt>
      <trkpt lat="44.87802" lon="0.35479">
        <ele>56.8</ele>
        <time>2022-04-05T08:53:29Z</time>
      </trkpt>
      <trkpt lat="44.87802" lon="0.35479">
        <ele>56.8</ele>
        <time>2022-04-05T08:53:30Z</time>
      </trkpt>
      <trkpt lat="44.87804" lon="0.35477">
        <ele>56.6</ele>
        <time>2022-04-05T08:53:31Z</time>
      </trkpt>
      <trkpt lat="44.87804" lon="0.35476">
        <ele>56.6</ele>
        <time>2022-04-05T08:53:32Z</time>
      </trkpt>
      <trkpt lat="44.87805" lon="0.35475">
        <ele>56.5</ele>
        <time>2022-04-05T08:53:33Z</time>
      </trkpt>
      <trkpt lat="44.87807" lon="0.35473">
        <ele>56.3</ele>
        <time>2022-04-05T08:53:34Z</time>
      </trkpt>
      <trkpt lat="44.87807" lon="0.35473">
        <ele>56.3</ele>
        <time>2022-04-05T08:53:35Z</time>
      </trkpt>
      <trkpt lat="44.87809" lon="0.35472">
        <ele>56.2</ele>
        <time>2022-04-05T08:53:36Z</time>
      </trkpt>
      <trkpt lat="44.8781" lon="0.3547">
        <ele>56.1</ele>
        <time>2022-04-05T08:53:37Z</time>
      </trkpt>
      <trkpt lat="44.87811" lon="0.3547">
        <ele>56</ele>
        <time>2022-04-05T08:53:38Z</time>
      </trkpt>
      <trkpt lat="44.87813" lon="0.35468">
        <ele>55.8</ele>
        <time>2022-04-05T08:53:39Z</time>
      </trkpt>
      <trkpt lat="44.87813" lon="0.35468">
        <ele>55.8</ele>
        <time>2022-04-05T08:53:40Z</time>
      </trkpt>
      <trkpt lat="44.87814" lon="0.35467">
        <ele>55.7</ele>
        <time>2022-04-05T08:53:41Z</time>
      </trkpt>
      <trkpt lat="44.87815" lon="0.35466">
        <ele>55.6</ele>
        <time>2022-04-05T08:53:42Z</time>
      </trkpt>
      <trkpt lat="44.87816" lon="0.35465">
        <ele>55.5</ele>
        <time>2022-04-05T08:53:43Z</time>
      </trkpt>
      <trkpt lat="44.87818" lon="0.35464">
        <ele>55.4</ele>
        <time>2022-04-05T08:53:44Z</time>
      </trkpt>
      <trkpt lat="44.87819" lon="0.35463">
        <ele>55.3</ele>
        <time>2022-04-05T08:53:45Z</time>
      </trkpt>
      <trkpt lat="44.8782" lon="0.35463">
        <ele>55.2</ele>
        <time>2022-04-05T08:53:46Z</time>
      </trkpt>
      <trkpt lat="44.87821" lon="0.35462">
        <ele>55.1</ele>
        <time>2022-04-05T08:53:47Z</time>
      </trkpt>
      <trkpt lat="44.87822" lon="0.35461">
        <ele>55.1</ele>
        <time>2022-04-05T08:53:48Z</time>
      </trkpt>
      <trkpt lat="44.87824" lon="0.3546">
        <ele>54.9</ele>
        <time>2022-04-05T08:53:49Z</time>
      </trkpt>
      <trkpt lat="44.87825" lon="0.35459">
        <ele>54.8</ele>
        <time>2022-04-05T08:53:50Z</time>
      </trkpt>
      <trkpt lat="44.87826" lon="0.35459">
        <ele>54.7</ele>
        <time>2022-04-05T08:53:51Z</time>
      </trkpt>
      <trkpt lat="44.87827" lon="0.35459">
        <ele>54.7</ele>
        <time>2022-04-05T08:53:52Z</time>
      </trkpt>
      <trkpt lat="44.87829" lon="0.35458">
        <ele>54.5</ele>
        <time>2022-04-05T08:53:53Z</time>
      </trkpt>
      <trkpt lat="44.8783" lon="0.35458">
        <ele>54.4</ele>
        <time>2022-04-05T08:53:54Z</time>
      </trkpt>
      <trkpt lat="44.87832" lon="0.35457">
        <ele>54.3</ele>
        <time>2022-04-05T08:53:56Z</time>
      </trkpt>
      <trkpt lat="44.87833" lon="0.35457">
        <ele>54.2</ele>
        <time>2022-04-05T08:53:57Z</time>
      </trkpt>
      <trkpt lat="44.87836" lon="0.35456">
        <ele>54</ele>
        <time>2022-04-05T08:53:58Z</time>
      </trkpt>
      <trkpt lat="44.87837" lon="0.35456">
        <ele>54</ele>
        <time>2022-04-05T08:53:59Z</time>
      </trkpt>
      <trkpt lat="44.87837" lon="0.35456">
        <ele>53.9</ele>
        <time>2022-04-05T08:54:00Z</time>
      </trkpt>
      <trkpt lat="44.87839" lon="0.35456">
        <ele>53.8</ele>
        <time>2022-04-05T08:54:02Z</time>
      </trkpt>
      <trkpt lat="44.8784" lon="0.35456">
        <ele>53.8</ele>
        <time>2022-04-05T08:54:03Z</time>
      </trkpt>
      <trkpt lat="44.87841" lon="0.35456">
        <ele>53.7</ele>
        <time>2022-04-05T08:54:04Z</time>
      </trkpt>
      <trkpt lat="44.87843" lon="0.35456">
        <ele>53.5</ele>
        <time>2022-04-05T08:54:05Z</time>
      </trkpt>
      <trkpt lat="44.87844" lon="0.35456">
        <ele>53.5</ele>
        <time>2022-04-05T08:54:06Z</time>
      </trkpt>
      <trkpt lat="44.87845" lon="0.35456">
        <ele>53.4</ele>
        <time>2022-04-05T08:54:07Z</time>
      </trkpt>
      <trkpt lat="44.87847" lon="0.35455">
        <ele>53.3</ele>
        <time>2022-04-05T08:54:08Z</time>
      </trkpt>
      <trkpt lat="44.87849" lon="0.35454">
        <ele>53.1</ele>
        <time>2022-04-05T08:54:09Z</time>
      </trkpt>
      <trkpt lat="44.8785" lon="0.35454">
        <ele>53</ele>
        <time>2022-04-05T08:54:11Z</time>
      </trkpt>
      <trkpt lat="44.87851" lon="0.35453">
        <ele>53</ele>
        <time>2022-04-05T08:54:12Z</time>
      </trkpt>
      <trkpt lat="44.87853" lon="0.35453">
        <ele>52.9</ele>
        <time>2022-04-05T08:54:13Z</time>
      </trkpt>
      <trkpt lat="44.87854" lon="0.35452">
        <ele>52.8</ele>
        <time>2022-04-05T08:54:14Z</time>
      </trkpt>
      <trkpt lat="44.87855" lon="0.35452">
        <ele>52.7</ele>
        <time>2022-04-05T08:54:15Z</time>
      </trkpt>
      <trkpt lat="44.87856" lon="0.35452">
        <ele>52.7</ele>
        <time>2022-04-05T08:54:16Z</time>
      </trkpt>
      <trkpt lat="44.87857" lon="0.35452">
        <ele>52.6</ele>
        <time>2022-04-05T08:54:17Z</time>
      </trkpt>
      <trkpt lat="44.87859" lon="0.35452">
        <ele>52.4</ele>
        <time>2022-04-05T08:54:19Z</time>
      </trkpt>
      <trkpt lat="44.8786" lon="0.35452">
        <ele>52.4</ele>
        <time>2022-04-05T08:54:20Z</time>
      </trkpt>
      <trkpt lat="44.87861" lon="0.35452">
        <ele>52.3</ele>
        <time>2022-04-05T08:54:21Z</time>
      </trkpt>
      <trkpt lat="44.87863" lon="0.35452">
        <ele>52.2</ele>
        <time>2022-04-05T08:54:22Z</time>
      </trkpt>
      <trkpt lat="44.87864" lon="0.35451">
        <ele>52.1</ele>
        <time>2022-04-05T08:54:24Z</time>
      </trkpt>
      <trkpt lat="44.87866" lon="0.35451">
        <ele>52</ele>
        <time>2022-04-05T08:54:25Z</time>
      </trkpt>
      <trkpt lat="44.87867" lon="0.3545">
        <ele>51.9</ele>
        <time>2022-04-05T08:54:26Z</time>
      </trkpt>
      <trkpt lat="44.87869" lon="0.3545">
        <ele>51.8</ele>
        <time>2022-04-05T08:54:27Z</time>
      </trkpt>
      <trkpt lat="44.8787" lon="0.35449">
        <ele>51.7</ele>
        <time>2022-04-05T08:54:28Z</time>
      </trkpt>
      <trkpt lat="44.87871" lon="0.35449">
        <ele>51.6</ele>
        <time>2022-04-05T08:54:29Z</time>
      </trkpt>
      <trkpt lat="44.87872" lon="0.35449">
        <ele>51.6</ele>
        <time>2022-04-05T08:54:30Z</time>
      </trkpt>
      <trkpt lat="44.87873" lon="0.35449">
        <ele>51.5</ele>
        <time>2022-04-05T08:54:31Z</time>
      </trkpt>
      <trkpt lat="44.87874" lon="0.35449">
        <ele>51.4</ele>
        <time>2022-04-05T08:54:33Z</time>
      </trkpt>
      <trkpt lat="44.87877" lon="0.35448">
        <ele>51.2</ele>
        <time>2022-04-05T08:54:34Z</time>
      </trkpt>
      <trkpt lat="44.87878" lon="0.35448">
        <ele>51.1</ele>
        <time>2022-04-05T08:54:35Z</time>
      </trkpt>
      <trkpt lat="44.87879" lon="0.35447">
        <ele>51</ele>
        <time>2022-04-05T08:54:36Z</time>
      </trkpt>
      <trkpt lat="44.8788" lon="0.35447">
        <ele>50.9</ele>
        <time>2022-04-05T08:54:37Z</time>
      </trkpt>
      <trkpt lat="44.87882" lon="0.35447">
        <ele>50.8</ele>
        <time>2022-04-05T08:54:39Z</time>
      </trkpt>
      <trkpt lat="44.87884" lon="0.35446">
        <ele>50.7</ele>
        <time>2022-04-05T08:54:40Z</time>
      </trkpt>
      <trkpt lat="44.87886" lon="0.35446">
        <ele>50.5</ele>
        <time>2022-04-05T08:54:41Z</time>
      </trkpt>
      <trkpt lat="44.87886" lon="0.35445">
        <ele>50.5</ele>
        <time>2022-04-05T08:54:42Z</time>
      </trkpt>
      <trkpt lat="44.87887" lon="0.35445">
        <ele>50.4</ele>
        <time>2022-04-05T08:54:43Z</time>
      </trkpt>
      <trkpt lat="44.8789" lon="0.35443">
        <ele>50.1</ele>
        <time>2022-04-05T08:54:44Z</time>
      </trkpt>
      <trkpt lat="44.87892" lon="0.35443">
        <ele>50.1</ele>
        <time>2022-04-05T08:54:46Z</time>
      </trkpt>
      <trkpt lat="44.87893" lon="0.35442">
        <ele>50</ele>
        <time>2022-04-05T08:54:47Z</time>
      </trkpt>
      <trkpt lat="44.87894" lon="0.35441">
        <ele>49.9</ele>
        <time>2022-04-05T08:54:48Z</time>
      </trkpt>
      <trkpt lat="44.87895" lon="0.35441">
        <ele>49.8</ele>
        <time>2022-04-05T08:54:49Z</time>
      </trkpt>
      <trkpt lat="44.87896" lon="0.3544">
        <ele>49.7</ele>
        <time>2022-04-05T08:54:50Z</time>
      </trkpt>
      <trkpt lat="44.87897" lon="0.35439">
        <ele>49.6</ele>
        <time>2022-04-05T08:54:51Z</time>
      </trkpt>
      <trkpt lat="44.87897" lon="0.35439">
        <ele>49.6</ele>
        <time>2022-04-05T08:54:52Z</time>
      </trkpt>
      <trkpt lat="44.87898" lon="0.35439">
        <ele>49.5</ele>
        <time>2022-04-05T08:54:53Z</time>
      </trkpt>
      <trkpt lat="44.879" lon="0.35437">
        <ele>49.3</ele>
        <time>2022-04-05T08:54:54Z</time>
      </trkpt>
      <trkpt lat="44.87901" lon="0.35436">
        <ele>49.3</ele>
        <time>2022-04-05T08:54:55Z</time>
      </trkpt>
      <trkpt lat="44.87902" lon="0.35435">
        <ele>49.1</ele>
        <time>2022-04-05T08:54:56Z</time>
      </trkpt>
      <trkpt lat="44.87903" lon="0.35434">
        <ele>49</ele>
        <time>2022-04-05T08:54:58Z</time>
      </trkpt>
      <trkpt lat="44.87904" lon="0.35433">
        <ele>49</ele>
        <time>2022-04-05T08:54:59Z</time>
      </trkpt>
      <trkpt lat="44.87906" lon="0.35432">
        <ele>48.8</ele>
        <time>2022-04-05T08:55:00Z</time>
      </trkpt>
      <trkpt lat="44.87906" lon="0.35431">
        <ele>48.7</ele>
        <time>2022-04-05T08:55:01Z</time>
      </trkpt>
      <trkpt lat="44.87908" lon="0.35428">
        <ele>48.5</ele>
        <time>2022-04-05T08:55:02Z</time>
      </trkpt>
      <trkpt lat="44.87909" lon="0.35427">
        <ele>48.5</ele>
        <time>2022-04-05T08:55:03Z</time>
      </trkpt>
      <trkpt lat="44.8791" lon="0.35426">
        <ele>48.4</ele>
        <time>2022-04-05T08:55:04Z</time>
      </trkpt>
      <trkpt lat="44.8791" lon="0.35425">
        <ele>48.3</ele>
        <time>2022-04-05T08:55:05Z</time>
      </trkpt>
      <trkpt lat="44.87911" lon="0.35424">
        <ele>48.2</ele>
        <time>2022-04-05T08:55:06Z</time>
      </trkpt>
      <trkpt lat="44.87912" lon="0.35423">
        <ele>48</ele>
        <time>2022-04-05T08:55:08Z</time>
      </trkpt>
      <trkpt lat="44.87914" lon="0.3542">
        <ele>47.8</ele>
        <time>2022-04-05T08:55:10Z</time>
      </trkpt>
      <trkpt lat="44.87915" lon="0.35419">
        <ele>47.7</ele>
        <time>2022-04-05T08:55:11Z</time>
      </trkpt>
      <trkpt lat="44.87916" lon="0.35417">
        <ele>47.6</ele>
        <time>2022-04-05T08:55:12Z</time>
      </trkpt>
      <trkpt lat="44.87917" lon="0.35416">
        <ele>47.5</ele>
        <time>2022-04-05T08:55:13Z</time>
      </trkpt>
      <trkpt lat="44.87918" lon="0.35413">
        <ele>47.3</ele>
        <time>2022-04-05T08:55:15Z</time>
      </trkpt>
      <trkpt lat="44.87919" lon="0.35412">
        <ele>47.2</ele>
        <time>2022-04-05T08:55:16Z</time>
      </trkpt>
      <trkpt lat="44.8792" lon="0.3541">
        <ele>47</ele>
        <time>2022-04-05T08:55:17Z</time>
      </trkpt>
      <trkpt lat="44.87921" lon="0.35409">
        <ele>46.9</ele>
        <time>2022-04-05T08:55:18Z</time>
      </trkpt>
      <trkpt lat="44.87922" lon="0.35406">
        <ele>46.7</ele>
        <time>2022-04-05T08:55:20Z</time>
      </trkpt>
      <trkpt lat="44.87923" lon="0.35405">
        <ele>46.7</ele>
        <time>2022-04-05T08:55:21Z</time>
      </trkpt>
      <trkpt lat="44.87924" lon="0.35404">
        <ele>46.5</ele>
        <time>2022-04-05T08:55:22Z</time>
      </trkpt>
      <trkpt lat="44.87925" lon="0.35403">
        <ele>46.4</ele>
        <time>2022-04-05T08:55:23Z</time>
      </trkpt>
      <trkpt lat="44.87927" lon="0.354">
        <ele>46.2</ele>
        <time>2022-04-05T08:55:24Z</time>
      </trkpt>
      <trkpt lat="44.87928" lon="0.35399">
        <ele>46.1</ele>
        <time>2022-04-05T08:55:25Z</time>
      </trkpt>
      <trkpt lat="44.87929" lon="0.35398">
        <ele>46</ele>
        <time>2022-04-05T08:55:26Z</time>
      </trkpt>
      <trkpt lat="44.8793" lon="0.35397">
        <ele>45.9</ele>
        <time>2022-04-05T08:55:28Z</time>
      </trkpt>
      <trkpt lat="44.87931" lon="0.35396">
        <ele>45.8</ele>
        <time>2022-04-05T08:55:29Z</time>
      </trkpt>
      <trkpt lat="44.87932" lon="0.35394">
        <ele>45.6</ele>
        <time>2022-04-05T08:55:30Z</time>
      </trkpt>
      <trkpt lat="44.87933" lon="0.35393">
        <ele>45.5</ele>
        <time>2022-04-05T08:55:31Z</time>
      </trkpt>
      <trkpt lat="44.87934" lon="0.35392">
        <ele>45.4</ele>
        <time>2022-04-05T08:55:32Z</time>
      </trkpt>
      <trkpt lat="44.87935" lon="0.3539">
        <ele>45.3</ele>
        <time>2022-04-05T08:55:33Z</time>
      </trkpt>
      <trkpt lat="44.87938" lon="0.35386">
        <ele>44.9</ele>
        <time>2022-04-05T08:55:35Z</time>
      </trkpt>
      <trkpt lat="44.87938" lon="0.35385">
        <ele>44.8</ele>
        <time>2022-04-05T08:55:36Z</time>
      </trkpt>
      <trkpt lat="44.87939" lon="0.35384">
        <ele>44.7</ele>
        <time>2022-04-05T08:55:37Z</time>
      </trkpt>
      <trkpt lat="44.8794" lon="0.35383">
        <ele>44.7</ele>
        <time>2022-04-05T08:55:38Z</time>
      </trkpt>
      <trkpt lat="44.87941" lon="0.3538">
        <ele>44.4</ele>
        <time>2022-04-05T08:55:39Z</time>
      </trkpt>
      <trkpt lat="44.87942" lon="0.35379">
        <ele>44.4</ele>
        <time>2022-04-05T08:55:40Z</time>
      </trkpt>
      <trkpt lat="44.87942" lon="0.35377">
        <ele>44.2</ele>
        <time>2022-04-05T08:55:41Z</time>
      </trkpt>
      <trkpt lat="44.87943" lon="0.35376">
        <ele>44.1</ele>
        <time>2022-04-05T08:55:42Z</time>
      </trkpt>
      <trkpt lat="44.87944" lon="0.35375">
        <ele>44</ele>
        <time>2022-04-05T08:55:44Z</time>
      </trkpt>
      <trkpt lat="44.87945" lon="0.35373">
        <ele>43.9</ele>
        <time>2022-04-05T08:55:45Z</time>
      </trkpt>
      <trkpt lat="44.87946" lon="0.35373">
        <ele>43.8</ele>
        <time>2022-04-05T08:55:46Z</time>
      </trkpt>
      <trkpt lat="44.87947" lon="0.35371">
        <ele>43.7</ele>
        <time>2022-04-05T08:55:47Z</time>
      </trkpt>
      <trkpt lat="44.87947" lon="0.3537">
        <ele>43.6</ele>
        <time>2022-04-05T08:55:48Z</time>
      </trkpt>
      <trkpt lat="44.87948" lon="0.35369">
        <ele>43.5</ele>
        <time>2022-04-05T08:55:49Z</time>
      </trkpt>
      <trkpt lat="44.87949" lon="0.35368">
        <ele>43.4</ele>
        <time>2022-04-05T08:55:50Z</time>
      </trkpt>
      <trkpt lat="44.87949" lon="0.35367">
        <ele>43.4</ele>
        <time>2022-04-05T08:55:51Z</time>
      </trkpt>
      <trkpt lat="44.8795" lon="0.35366">
        <ele>43.3</ele>
        <time>2022-04-05T08:55:52Z</time>
      </trkpt>
      <trkpt lat="44.87951" lon="0.35365">
        <ele>43.2</ele>
        <time>2022-04-05T08:55:53Z</time>
      </trkpt>
      <trkpt lat="44.87952" lon="0.35363">
        <ele>43</ele>
        <time>2022-04-05T08:55:55Z</time>
      </trkpt>
      <trkpt lat="44.87952" lon="0.35361">
        <ele>42.9</ele>
        <time>2022-04-05T08:55:56Z</time>
      </trkpt>
      <trkpt lat="44.87952" lon="0.3536">
        <ele>42.8</ele>
        <time>2022-04-05T08:55:57Z</time>
      </trkpt>
      <trkpt lat="44.87952" lon="0.35358">
        <ele>42.7</ele>
        <time>2022-04-05T08:55:58Z</time>
      </trkpt>
      <trkpt lat="44.87953" lon="0.35355">
        <ele>42.6</ele>
        <time>2022-04-05T08:55:59Z</time>
      </trkpt>
      <trkpt lat="44.87954" lon="0.35355">
        <ele>42.5</ele>
        <time>2022-04-05T08:56:00Z</time>
      </trkpt>
      <trkpt lat="44.87954" lon="0.35353">
        <ele>42.4</ele>
        <time>2022-04-05T08:56:01Z</time>
      </trkpt>
      <trkpt lat="44.87954" lon="0.35352">
        <ele>42.3</ele>
        <time>2022-04-05T08:56:02Z</time>
      </trkpt>
      <trkpt lat="44.87955" lon="0.35351">
        <ele>42.2</ele>
        <time>2022-04-05T08:56:03Z</time>
      </trkpt>
      <trkpt lat="44.87955" lon="0.3535">
        <ele>42.2</ele>
        <time>2022-04-05T08:56:04Z</time>
      </trkpt>
      <trkpt lat="44.87956" lon="0.35348">
        <ele>42</ele>
        <time>2022-04-05T08:56:05Z</time>
      </trkpt>
      <trkpt lat="44.87957" lon="0.35346">
        <ele>41.9</ele>
        <time>2022-04-05T08:56:06Z</time>
      </trkpt>
      <trkpt lat="44.87959" lon="0.35343">
        <ele>41.6</ele>
        <time>2022-04-05T08:56:08Z</time>
      </trkpt>
      <trkpt lat="44.8796" lon="0.35342">
        <ele>41.5</ele>
        <time>2022-04-05T08:56:09Z</time>
      </trkpt>
      <trkpt lat="44.87961" lon="0.3534">
        <ele>41.4</ele>
        <time>2022-04-05T08:56:10Z</time>
      </trkpt>
      <trkpt lat="44.87961" lon="0.35339">
        <ele>41.3</ele>
        <time>2022-04-05T08:56:11Z</time>
      </trkpt>
      <trkpt lat="44.87962" lon="0.35337">
        <ele>41.2</ele>
        <time>2022-04-05T08:56:12Z</time>
      </trkpt>
      <trkpt lat="44.87963" lon="0.35337">
        <ele>41.1</ele>
        <time>2022-04-05T08:56:13Z</time>
      </trkpt>
      <trkpt lat="44.87963" lon="0.35335">
        <ele>41.1</ele>
        <time>2022-04-05T08:56:14Z</time>
      </trkpt>
      <trkpt lat="44.87965" lon="0.35333">
        <ele>40.9</ele>
        <time>2022-04-05T08:56:15Z</time>
      </trkpt>
      <trkpt lat="44.87965" lon="0.35332">
        <ele>40.8</ele>
        <time>2022-04-05T08:56:16Z</time>
      </trkpt>
      <trkpt lat="44.87966" lon="0.3533">
        <ele>40.7</ele>
        <time>2022-04-05T08:56:17Z</time>
      </trkpt>
      <trkpt lat="44.87966" lon="0.35329">
        <ele>40.6</ele>
        <time>2022-04-05T08:56:18Z</time>
      </trkpt>
      <trkpt lat="44.87967" lon="0.35328">
        <ele>40.5</ele>
        <time>2022-04-05T08:56:19Z</time>
      </trkpt>
      <trkpt lat="44.87968" lon="0.35325">
        <ele>40.3</ele>
        <time>2022-04-05T08:56:20Z</time>
      </trkpt>
      <trkpt lat="44.87969" lon="0.35323">
        <ele>40.2</ele>
        <time>2022-04-05T08:56:21Z</time>
      </trkpt>
      <trkpt lat="44.8797" lon="0.35321">
        <ele>40.1</ele>
        <time>2022-04-05T08:56:22Z</time>
      </trkpt>
      <trkpt lat="44.8797" lon="0.3532">
        <ele>40</ele>
        <time>2022-04-05T08:56:23Z</time>
      </trkpt>
      <trkpt lat="44.87971" lon="0.35319">
        <ele>40</ele>
        <time>2022-04-05T08:56:24Z</time>
      </trkpt>
      <trkpt lat="44.87971" lon="0.35318">
        <ele>39.9</ele>
        <time>2022-04-05T08:56:25Z</time>
      </trkpt>
      <trkpt lat="44.87971" lon="0.35317">
        <ele>39.9</ele>
        <time>2022-04-05T08:56:26Z</time>
      </trkpt>
      <trkpt lat="44.87972" lon="0.35315">
        <ele>39.8</ele>
        <time>2022-04-05T08:56:28Z</time>
      </trkpt>
      <trkpt lat="44.87973" lon="0.35314">
        <ele>39.7</ele>
        <time>2022-04-05T08:56:29Z</time>
      </trkpt>
      <trkpt lat="44.87974" lon="0.35311">
        <ele>39.5</ele>
        <time>2022-04-05T08:56:30Z</time>
      </trkpt>
      <trkpt lat="44.87974" lon="0.35311">
        <ele>39.5</ele>
        <time>2022-04-05T08:56:31Z</time>
      </trkpt>
      <trkpt lat="44.87975" lon="0.35309">
        <ele>39.4</ele>
        <time>2022-04-05T08:56:32Z</time>
      </trkpt>
      <trkpt lat="44.87975" lon="0.35308">
        <ele>39.3</ele>
        <time>2022-04-05T08:56:33Z</time>
      </trkpt>
      <trkpt lat="44.87976" lon="0.35307">
        <ele>39.2</ele>
        <time>2022-04-05T08:56:34Z</time>
      </trkpt>
      <trkpt lat="44.87977" lon="0.35304">
        <ele>39.1</ele>
        <time>2022-04-05T08:56:35Z</time>
      </trkpt>
      <trkpt lat="44.87977" lon="0.35303">
        <ele>39.1</ele>
        <time>2022-04-05T08:56:36Z</time>
      </trkpt>
      <trkpt lat="44.87977" lon="0.35302">
        <ele>39</ele>
        <time>2022-04-05T08:56:37Z</time>
      </trkpt>
      <trkpt lat="44.87977" lon="0.353">
        <ele>38.9</ele>
        <time>2022-04-05T08:56:38Z</time>
      </trkpt>
      <trkpt lat="44.87977" lon="0.35298">
        <ele>38.8</ele>
        <time>2022-04-05T08:56:39Z</time>
      </trkpt>
      <trkpt lat="44.87978" lon="0.35296">
        <ele>38.7</ele>
        <time>2022-04-05T08:56:41Z</time>
      </trkpt>
      <trkpt lat="44.87978" lon="0.35295">
        <ele>38.6</ele>
        <time>2022-04-05T08:56:42Z</time>
      </trkpt>
      <trkpt lat="44.87979" lon="0.35293">
        <ele>38.6</ele>
        <time>2022-04-05T08:56:43Z</time>
      </trkpt>
      <trkpt lat="44.87979" lon="0.35292">
        <ele>38.5</ele>
        <time>2022-04-05T08:56:44Z</time>
      </trkpt>
      <trkpt lat="44.87979" lon="0.35289">
        <ele>38.4</ele>
        <time>2022-04-05T08:56:45Z</time>
      </trkpt>
      <trkpt lat="44.8798" lon="0.35289">
        <ele>38.4</ele>
        <time>2022-04-05T08:56:46Z</time>
      </trkpt>
      <trkpt lat="44.8798" lon="0.35288">
        <ele>38.3</ele>
        <time>2022-04-05T08:56:47Z</time>
      </trkpt>
      <trkpt lat="44.87981" lon="0.35285">
        <ele>38.2</ele>
        <time>2022-04-05T08:56:48Z</time>
      </trkpt>
      <trkpt lat="44.87981" lon="0.35284">
        <ele>38.1</ele>
        <time>2022-04-05T08:56:49Z</time>
      </trkpt>
      <trkpt lat="44.87981" lon="0.35282">
        <ele>38</ele>
        <time>2022-04-05T08:56:50Z</time>
      </trkpt>
      <trkpt lat="44.87981" lon="0.35282">
        <ele>38</ele>
        <time>2022-04-05T08:56:51Z</time>
      </trkpt>
      <trkpt lat="44.87981" lon="0.35282">
        <ele>38</ele>
        <time>2022-04-05T08:56:52Z</time>
      </trkpt>
      <trkpt lat="44.87982" lon="0.3528">
        <ele>37.9</ele>
        <time>2022-04-05T08:56:53Z</time>
      </trkpt>
      <trkpt lat="44.87982" lon="0.35279">
        <ele>37.9</ele>
        <time>2022-04-05T08:56:54Z</time>
      </trkpt>
      <trkpt lat="44.87983" lon="0.35275">
        <ele>37.7</ele>
        <time>2022-04-05T08:56:55Z</time>
      </trkpt>
      <trkpt lat="44.87983" lon="0.35274">
        <ele>37.6</ele>
        <time>2022-04-05T08:56:56Z</time>
      </trkpt>
      <trkpt lat="44.87984" lon="0.35272">
        <ele>37.5</ele>
        <time>2022-04-05T08:56:58Z</time>
      </trkpt>
      <trkpt lat="44.87984" lon="0.35271">
        <ele>37.4</ele>
        <time>2022-04-05T08:56:59Z</time>
      </trkpt>
      <trkpt lat="44.87985" lon="0.35269">
        <ele>37.4</ele>
        <time>2022-04-05T08:57:00Z</time>
      </trkpt>
      <trkpt lat="44.87985" lon="0.35269">
        <ele>37.4</ele>
        <time>2022-04-05T08:57:01Z</time>
      </trkpt>
      <trkpt lat="44.87985" lon="0.35268">
        <ele>37.3</ele>
        <time>2022-04-05T08:57:02Z</time>
      </trkpt>
      <trkpt lat="44.87986" lon="0.35266">
        <ele>37.2</ele>
        <time>2022-04-05T08:57:03Z</time>
      </trkpt>
      <trkpt lat="44.87989" lon="0.35264">
        <ele>37</ele>
        <time>2022-04-05T08:57:04Z</time>
      </trkpt>
      <trkpt lat="44.8799" lon="0.35263">
        <ele>36.9</ele>
        <time>2022-04-05T08:57:05Z</time>
      </trkpt>
      <trkpt lat="44.87991" lon="0.35262">
        <ele>36.8</ele>
        <time>2022-04-05T08:57:06Z</time>
      </trkpt>
      <trkpt lat="44.87992" lon="0.35261">
        <ele>36.7</ele>
        <time>2022-04-05T08:57:07Z</time>
      </trkpt>
      <trkpt lat="44.87995" lon="0.35261">
        <ele>36.5</ele>
        <time>2022-04-05T08:57:09Z</time>
      </trkpt>
      <trkpt lat="44.87996" lon="0.35261">
        <ele>36.4</ele>
        <time>2022-04-05T08:57:10Z</time>
      </trkpt>
      <trkpt lat="44.87997" lon="0.35261">
        <ele>36.4</ele>
        <time>2022-04-05T08:57:11Z</time>
      </trkpt>
      <trkpt lat="44.87998" lon="0.3526">
        <ele>36.3</ele>
        <time>2022-04-05T08:57:12Z</time>
      </trkpt>
      <trkpt lat="44.87999" lon="0.35259">
        <ele>36.2</ele>
        <time>2022-04-05T08:57:13Z</time>
      </trkpt>
      <trkpt lat="44.88" lon="0.35258">
        <ele>36.1</ele>
        <time>2022-04-05T08:57:14Z</time>
      </trkpt>
      <trkpt lat="44.88001" lon="0.35257">
        <ele>36</ele>
        <time>2022-04-05T08:57:15Z</time>
      </trkpt>
      <trkpt lat="44.88002" lon="0.35255">
        <ele>35.9</ele>
        <time>2022-04-05T08:57:16Z</time>
      </trkpt>
      <trkpt lat="44.88002" lon="0.35254">
        <ele>35.8</ele>
        <time>2022-04-05T08:57:17Z</time>
      </trkpt>
      <trkpt lat="44.88003" lon="0.35253">
        <ele>35.7</ele>
        <time>2022-04-05T08:57:18Z</time>
      </trkpt>
      <trkpt lat="44.88004" lon="0.35252">
        <ele>35.7</ele>
        <time>2022-04-05T08:57:19Z</time>
      </trkpt>
      <trkpt lat="44.88004" lon="0.3525">
        <ele>35.6</ele>
        <time>2022-04-05T08:57:21Z</time>
      </trkpt>
      <trkpt lat="44.88005" lon="0.35248">
        <ele>35.5</ele>
        <time>2022-04-05T08:57:22Z</time>
      </trkpt>
      <trkpt lat="44.88006" lon="0.35247">
        <ele>35.4</ele>
        <time>2022-04-05T08:57:23Z</time>
      </trkpt>
      <trkpt lat="44.88006" lon="0.35245">
        <ele>35.3</ele>
        <time>2022-04-05T08:57:24Z</time>
      </trkpt>
      <trkpt lat="44.88007" lon="0.35243">
        <ele>35.1</ele>
        <time>2022-04-05T08:57:25Z</time>
      </trkpt>
      <trkpt lat="44.88008" lon="0.35242">
        <ele>35.1</ele>
        <time>2022-04-05T08:57:26Z</time>
      </trkpt>
      <trkpt lat="44.88009" lon="0.35239">
        <ele>34.9</ele>
        <time>2022-04-05T08:57:27Z</time>
      </trkpt>
      <trkpt lat="44.8801" lon="0.35238">
        <ele>34.9</ele>
        <time>2022-04-05T08:57:28Z</time>
      </trkpt>
      <trkpt lat="44.88011" lon="0.35237">
        <ele>34.8</ele>
        <time>2022-04-05T08:57:29Z</time>
      </trkpt>
      <trkpt lat="44.88013" lon="0.35234">
        <ele>34.6</ele>
        <time>2022-04-05T08:57:30Z</time>
      </trkpt>
      <trkpt lat="44.88013" lon="0.35233">
        <ele>34.5</ele>
        <time>2022-04-05T08:57:32Z</time>
      </trkpt>
      <trkpt lat="44.88014" lon="0.35232">
        <ele>34.5</ele>
        <time>2022-04-05T08:57:33Z</time>
      </trkpt>
      <trkpt lat="44.88015" lon="0.3523">
        <ele>34.4</ele>
        <time>2022-04-05T08:57:34Z</time>
      </trkpt>
      <trkpt lat="44.88016" lon="0.35229">
        <ele>34.3</ele>
        <time>2022-04-05T08:57:35Z</time>
      </trkpt>
      <trkpt lat="44.88016" lon="0.35229">
        <ele>34.3</ele>
        <time>2022-04-05T08:57:36Z</time>
      </trkpt>
      <trkpt lat="44.88017" lon="0.35227">
        <ele>34.2</ele>
        <time>2022-04-05T08:57:37Z</time>
      </trkpt>
      <trkpt lat="44.88018" lon="0.35226">
        <ele>34.1</ele>
        <time>2022-04-05T08:57:38Z</time>
      </trkpt>
      <trkpt lat="44.88019" lon="0.35225">
        <ele>34</ele>
        <time>2022-04-05T08:57:39Z</time>
      </trkpt>
      <trkpt lat="44.8802" lon="0.35223">
        <ele>33.9</ele>
        <time>2022-04-05T08:57:40Z</time>
      </trkpt>
      <trkpt lat="44.88021" lon="0.35222">
        <ele>33.9</ele>
        <time>2022-04-05T08:57:41Z</time>
      </trkpt>
      <trkpt lat="44.88022" lon="0.35221">
        <ele>33.8</ele>
        <time>2022-04-05T08:57:42Z</time>
      </trkpt>
      <trkpt lat="44.88023" lon="0.3522">
        <ele>33.7</ele>
        <time>2022-04-05T08:57:43Z</time>
      </trkpt>
      <trkpt lat="44.88025" lon="0.35217">
        <ele>33.6</ele>
        <time>2022-04-05T08:57:44Z</time>
      </trkpt>
      <trkpt lat="44.88025" lon="0.35216">
        <ele>33.5</ele>
        <time>2022-04-05T08:57:45Z</time>
      </trkpt>
      <trkpt lat="44.88026" lon="0.35216">
        <ele>33.5</ele>
        <time>2022-04-05T08:57:46Z</time>
      </trkpt>
      <trkpt lat="44.88027" lon="0.35214">
        <ele>33.4</ele>
        <time>2022-04-05T08:57:47Z</time>
      </trkpt>
      <trkpt lat="44.88028" lon="0.35213">
        <ele>33.4</ele>
        <time>2022-04-05T08:57:48Z</time>
      </trkpt>
      <trkpt lat="44.88029" lon="0.35212">
        <ele>33.3</ele>
        <time>2022-04-05T08:57:49Z</time>
      </trkpt>
      <trkpt lat="44.8803" lon="0.35211">
        <ele>33.2</ele>
        <time>2022-04-05T08:57:50Z</time>
      </trkpt>
      <trkpt lat="44.88031" lon="0.35209">
        <ele>33.1</ele>
        <time>2022-04-05T08:57:52Z</time>
      </trkpt>
      <trkpt lat="44.88033" lon="0.35208">
        <ele>33</ele>
        <time>2022-04-05T08:57:53Z</time>
      </trkpt>
      <trkpt lat="44.88034" lon="0.35206">
        <ele>33</ele>
        <time>2022-04-05T08:57:54Z</time>
      </trkpt>
      <trkpt lat="44.88035" lon="0.35205">
        <ele>32.9</ele>
        <time>2022-04-05T08:57:55Z</time>
      </trkpt>
      <trkpt lat="44.88037" lon="0.35203">
        <ele>32.8</ele>
        <time>2022-04-05T08:57:56Z</time>
      </trkpt>
      <trkpt lat="44.88038" lon="0.35202">
        <ele>32.7</ele>
        <time>2022-04-05T08:57:58Z</time>
      </trkpt>
      <trkpt lat="44.8804" lon="0.35201">
        <ele>32.6</ele>
        <time>2022-04-05T08:57:59Z</time>
      </trkpt>
      <trkpt lat="44.88041" lon="0.352">
        <ele>32.6</ele>
        <time>2022-04-05T08:58:00Z</time>
      </trkpt>
      <trkpt lat="44.88041" lon="0.352">
        <ele>32.6</ele>
        <time>2022-04-05T08:58:01Z</time>
      </trkpt>
      <trkpt lat="44.88042" lon="0.35199">
        <ele>32.5</ele>
        <time>2022-04-05T08:58:02Z</time>
      </trkpt>
      <trkpt lat="44.88044" lon="0.35198">
        <ele>32.4</ele>
        <time>2022-04-05T08:58:03Z</time>
      </trkpt>
      <trkpt lat="44.88045" lon="0.35197">
        <ele>32.4</ele>
        <time>2022-04-05T08:58:04Z</time>
      </trkpt>
      <trkpt lat="44.88047" lon="0.35196">
        <ele>32.3</ele>
        <time>2022-04-05T08:58:05Z</time>
      </trkpt>
      <trkpt lat="44.88048" lon="0.35195">
        <ele>32.4</ele>
        <time>2022-04-05T08:58:07Z</time>
      </trkpt>
      <trkpt lat="44.88049" lon="0.35194">
        <ele>32.6</ele>
        <time>2022-04-05T08:58:08Z</time>
      </trkpt>
      <trkpt lat="44.8805" lon="0.35193">
        <ele>32.7</ele>
        <time>2022-04-05T08:58:09Z</time>
      </trkpt>
      <trkpt lat="44.88053" lon="0.35192">
        <ele>33</ele>
        <time>2022-04-05T08:58:10Z</time>
      </trkpt>
      <trkpt lat="44.88053" lon="0.35192">
        <ele>33</ele>
        <time>2022-04-05T08:58:11Z</time>
      </trkpt>
      <trkpt lat="44.88054" lon="0.35192">
        <ele>33.2</ele>
        <time>2022-04-05T08:58:12Z</time>
      </trkpt>
      <trkpt lat="44.88055" lon="0.35191">
        <ele>33.2</ele>
        <time>2022-04-05T08:58:13Z</time>
      </trkpt>
      <trkpt lat="44.88056" lon="0.3519">
        <ele>33.1</ele>
        <time>2022-04-05T08:58:14Z</time>
      </trkpt>
      <trkpt lat="44.88058" lon="0.35189">
        <ele>33</ele>
        <time>2022-04-05T08:58:15Z</time>
      </trkpt>
      <trkpt lat="44.88058" lon="0.35189">
        <ele>33</ele>
        <time>2022-04-05T08:58:16Z</time>
      </trkpt>
      <trkpt lat="44.8806" lon="0.35189">
        <ele>33</ele>
        <time>2022-04-05T08:58:17Z</time>
      </trkpt>
      <trkpt lat="44.88061" lon="0.35188">
        <ele>32.9</ele>
        <time>2022-04-05T08:58:18Z</time>
      </trkpt>
      <trkpt lat="44.88062" lon="0.35188">
        <ele>32.8</ele>
        <time>2022-04-05T08:58:19Z</time>
      </trkpt>
      <trkpt lat="44.88064" lon="0.35187">
        <ele>32.8</ele>
        <time>2022-04-05T08:58:20Z</time>
      </trkpt>
      <trkpt lat="44.88066" lon="0.35186">
        <ele>32.7</ele>
        <time>2022-04-05T08:58:22Z</time>
      </trkpt>
      <trkpt lat="44.88067" lon="0.35186">
        <ele>32.6</ele>
        <time>2022-04-05T08:58:23Z</time>
      </trkpt>
      <trkpt lat="44.88068" lon="0.35185">
        <ele>32.6</ele>
        <time>2022-04-05T08:58:24Z</time>
      </trkpt>
      <trkpt lat="44.8807" lon="0.35184">
        <ele>32.5</ele>
        <time>2022-04-05T08:58:25Z</time>
      </trkpt>
      <trkpt lat="44.8807" lon="0.35183">
        <ele>32.5</ele>
        <time>2022-04-05T08:58:26Z</time>
      </trkpt>
      <trkpt lat="44.88071" lon="0.35183">
        <ele>32.4</ele>
        <time>2022-04-05T08:58:27Z</time>
      </trkpt>
      <trkpt lat="44.88073" lon="0.35182">
        <ele>32.4</ele>
        <time>2022-04-05T08:58:28Z</time>
      </trkpt>
      <trkpt lat="44.88073" lon="0.35181">
        <ele>32.3</ele>
        <time>2022-04-05T08:58:29Z</time>
      </trkpt>
      <trkpt lat="44.88075" lon="0.3518">
        <ele>32.2</ele>
        <time>2022-04-05T08:58:30Z</time>
      </trkpt>
      <trkpt lat="44.88076" lon="0.35179">
        <ele>32.2</ele>
        <time>2022-04-05T08:58:31Z</time>
      </trkpt>
      <trkpt lat="44.88077" lon="0.35178">
        <ele>32.1</ele>
        <time>2022-04-05T08:58:33Z</time>
      </trkpt>
      <trkpt lat="44.88078" lon="0.35177">
        <ele>32.1</ele>
        <time>2022-04-05T08:58:34Z</time>
      </trkpt>
      <trkpt lat="44.8808" lon="0.35176">
        <ele>32</ele>
        <time>2022-04-05T08:58:35Z</time>
      </trkpt>
      <trkpt lat="44.88081" lon="0.35175">
        <ele>32</ele>
        <time>2022-04-05T08:58:36Z</time>
      </trkpt>
      <trkpt lat="44.88082" lon="0.35174">
        <ele>31.9</ele>
        <time>2022-04-05T08:58:37Z</time>
      </trkpt>
      <trkpt lat="44.88083" lon="0.35173">
        <ele>31.9</ele>
        <time>2022-04-05T08:58:38Z</time>
      </trkpt>
      <trkpt lat="44.88084" lon="0.35173">
        <ele>31.8</ele>
        <time>2022-04-05T08:58:39Z</time>
      </trkpt>
      <trkpt lat="44.88085" lon="0.35171">
        <ele>31.8</ele>
        <time>2022-04-05T08:58:40Z</time>
      </trkpt>
      <trkpt lat="44.88086" lon="0.3517">
        <ele>31.7</ele>
        <time>2022-04-05T08:58:42Z</time>
      </trkpt>
      <trkpt lat="44.88086" lon="0.3517">
        <ele>31.7</ele>
        <time>2022-04-05T08:58:43Z</time>
      </trkpt>
      <trkpt lat="44.88088" lon="0.35169">
        <ele>31.7</ele>
        <time>2022-04-05T08:58:44Z</time>
      </trkpt>
      <trkpt lat="44.88089" lon="0.35169">
        <ele>31.6</ele>
        <time>2022-04-05T08:58:45Z</time>
      </trkpt>
      <trkpt lat="44.88091" lon="0.35168">
        <ele>31.5</ele>
        <time>2022-04-05T08:58:46Z</time>
      </trkpt>
      <trkpt lat="44.88092" lon="0.35168">
        <ele>31.5</ele>
        <time>2022-04-05T08:58:47Z</time>
      </trkpt>
      <trkpt lat="44.88093" lon="0.35168">
        <ele>31.4</ele>
        <time>2022-04-05T08:58:48Z</time>
      </trkpt>
      <trkpt lat="44.88096" lon="0.35167">
        <ele>31.4</ele>
        <time>2022-04-05T08:58:49Z</time>
      </trkpt>
      <trkpt lat="44.88097" lon="0.35166">
        <ele>31.4</ele>
        <time>2022-04-05T08:58:51Z</time>
      </trkpt>
      <trkpt lat="44.88098" lon="0.35166">
        <ele>31.4</ele>
        <time>2022-04-05T08:58:52Z</time>
      </trkpt>
      <trkpt lat="44.88099" lon="0.35165">
        <ele>31.4</ele>
        <time>2022-04-05T08:58:53Z</time>
      </trkpt>
      <trkpt lat="44.881" lon="0.35165">
        <ele>31.4</ele>
        <time>2022-04-05T08:58:54Z</time>
      </trkpt>
      <trkpt lat="44.88101" lon="0.35163">
        <ele>31.4</ele>
        <time>2022-04-05T08:58:55Z</time>
      </trkpt>
      <trkpt lat="44.88101" lon="0.35161">
        <ele>31.4</ele>
        <time>2022-04-05T08:58:56Z</time>
      </trkpt>
      <trkpt lat="44.88101" lon="0.35159">
        <ele>31.4</ele>
        <time>2022-04-05T08:58:57Z</time>
      </trkpt>
      <trkpt lat="44.881" lon="0.35157">
        <ele>31.4</ele>
        <time>2022-04-05T08:58:58Z</time>
      </trkpt>
      <trkpt lat="44.88099" lon="0.35155">
        <ele>31.5</ele>
        <time>2022-04-05T08:58:59Z</time>
      </trkpt>
      <trkpt lat="44.88098" lon="0.35153">
        <ele>31.5</ele>
        <time>2022-04-05T08:59:00Z</time>
      </trkpt>
      <trkpt lat="44.88097" lon="0.35151">
        <ele>31.5</ele>
        <time>2022-04-05T08:59:02Z</time>
      </trkpt>
      <trkpt lat="44.88096" lon="0.35149">
        <ele>31.5</ele>
        <time>2022-04-05T08:59:03Z</time>
      </trkpt>
      <trkpt lat="44.88096" lon="0.35148">
        <ele>31.5</ele>
        <time>2022-04-05T08:59:04Z</time>
      </trkpt>
      <trkpt lat="44.88096" lon="0.35149">
        <ele>31.5</ele>
        <time>2022-04-05T08:59:05Z</time>
      </trkpt>
      <trkpt lat="44.88097" lon="0.35149">
        <ele>31.5</ele>
        <time>2022-04-05T08:59:06Z</time>
      </trkpt>
      <trkpt lat="44.88097" lon="0.3515">
        <ele>31.5</ele>
        <time>2022-04-05T08:59:08Z</time>
      </trkpt>
      <trkpt lat="44.88098" lon="0.3515">
        <ele>31.5</ele>
        <time>2022-04-05T08:59:09Z</time>
      </trkpt>
      <trkpt lat="44.88099" lon="0.35151">
        <ele>31.5</ele>
        <time>2022-04-05T08:59:10Z</time>
      </trkpt>
      <trkpt lat="44.88099" lon="0.35152">
        <ele>31.5</ele>
        <time>2022-04-05T08:59:11Z</time>
      </trkpt>
      <trkpt lat="44.88101" lon="0.35155">
        <ele>31.5</ele>
        <time>2022-04-05T08:59:12Z</time>
      </trkpt>
      <trkpt lat="44.88102" lon="0.35157">
        <ele>31.5</ele>
        <time>2022-04-05T08:59:13Z</time>
      </trkpt>
      <trkpt lat="44.88103" lon="0.35158">
        <ele>31.5</ele>
        <time>2022-04-05T08:59:14Z</time>
      </trkpt>
      <trkpt lat="44.88105" lon="0.3516">
        <ele>31.6</ele>
        <time>2022-04-05T08:59:16Z</time>
      </trkpt>
      <trkpt lat="44.88106" lon="0.3516">
        <ele>31.6</ele>
        <time>2022-04-05T08:59:17Z</time>
      </trkpt>
      <trkpt lat="44.88108" lon="0.35161">
        <ele>31.6</ele>
        <time>2022-04-05T08:59:18Z</time>
      </trkpt>
      <trkpt lat="44.88109" lon="0.35162">
        <ele>31.6</ele>
        <time>2022-04-05T08:59:19Z</time>
      </trkpt>
      <trkpt lat="44.8811" lon="0.35162">
        <ele>31.6</ele>
        <time>2022-04-05T08:59:20Z</time>
      </trkpt>
      <trkpt lat="44.88112" lon="0.35161">
        <ele>31.6</ele>
        <time>2022-04-05T08:59:21Z</time>
      </trkpt>
      <trkpt lat="44.88113" lon="0.35161">
        <ele>31.6</ele>
        <time>2022-04-05T08:59:22Z</time>
      </trkpt>
      <trkpt lat="44.88115" lon="0.3516">
        <ele>31.6</ele>
        <time>2022-04-05T08:59:23Z</time>
      </trkpt>
      <trkpt lat="44.88116" lon="0.35159">
        <ele>31.6</ele>
        <time>2022-04-05T08:59:24Z</time>
      </trkpt>
      <trkpt lat="44.88117" lon="0.35158">
        <ele>31.6</ele>
        <time>2022-04-05T08:59:25Z</time>
      </trkpt>
      <trkpt lat="44.88118" lon="0.35157">
        <ele>31.6</ele>
        <time>2022-04-05T08:59:26Z</time>
      </trkpt>
      <trkpt lat="44.8812" lon="0.35156">
        <ele>31.7</ele>
        <time>2022-04-05T08:59:28Z</time>
      </trkpt>
      <trkpt lat="44.88121" lon="0.35155">
        <ele>31.7</ele>
        <time>2022-04-05T08:59:29Z</time>
      </trkpt>
      <trkpt lat="44.88122" lon="0.35154">
        <ele>31.7</ele>
        <time>2022-04-05T08:59:30Z</time>
      </trkpt>
      <trkpt lat="44.88124" lon="0.35152">
        <ele>31.7</ele>
        <time>2022-04-05T08:59:31Z</time>
      </trkpt>
      <trkpt lat="44.88125" lon="0.35151">
        <ele>31.7</ele>
        <time>2022-04-05T08:59:32Z</time>
      </trkpt>
      <trkpt lat="44.88126" lon="0.3515">
        <ele>31.7</ele>
        <time>2022-04-05T08:59:33Z</time>
      </trkpt>
      <trkpt lat="44.88127" lon="0.35149">
        <ele>31.7</ele>
        <time>2022-04-05T08:59:34Z</time>
      </trkpt>
      <trkpt lat="44.88128" lon="0.35148">
        <ele>31.8</ele>
        <time>2022-04-05T08:59:35Z</time>
      </trkpt>
      <trkpt lat="44.88129" lon="0.35147">
        <ele>31.8</ele>
        <time>2022-04-05T08:59:36Z</time>
      </trkpt>
      <trkpt lat="44.88131" lon="0.35146">
        <ele>31.8</ele>
        <time>2022-04-05T08:59:37Z</time>
      </trkpt>
      <trkpt lat="44.88132" lon="0.35145">
        <ele>31.8</ele>
        <time>2022-04-05T08:59:38Z</time>
      </trkpt>
      <trkpt lat="44.88134" lon="0.35144">
        <ele>31.8</ele>
        <time>2022-04-05T08:59:40Z</time>
      </trkpt>
      <trkpt lat="44.88135" lon="0.35143">
        <ele>31.8</ele>
        <time>2022-04-05T08:59:41Z</time>
      </trkpt>
      <trkpt lat="44.88136" lon="0.35143">
        <ele>31.8</ele>
        <time>2022-04-05T08:59:42Z</time>
      </trkpt>
      <trkpt lat="44.88138" lon="0.35142">
        <ele>31.9</ele>
        <time>2022-04-05T08:59:43Z</time>
      </trkpt>
      <trkpt lat="44.88139" lon="0.35141">
        <ele>31.9</ele>
        <time>2022-04-05T08:59:44Z</time>
      </trkpt>
      <trkpt lat="44.8814" lon="0.3514">
        <ele>31.9</ele>
        <time>2022-04-05T08:59:45Z</time>
      </trkpt>
      <trkpt lat="44.88141" lon="0.35139">
        <ele>31.9</ele>
        <time>2022-04-05T08:59:46Z</time>
      </trkpt>
      <trkpt lat="44.88142" lon="0.35139">
        <ele>31.9</ele>
        <time>2022-04-05T08:59:47Z</time>
      </trkpt>
      <trkpt lat="44.88144" lon="0.35138">
        <ele>31.9</ele>
        <time>2022-04-05T08:59:48Z</time>
      </trkpt>
      <trkpt lat="44.88145" lon="0.35138">
        <ele>31.9</ele>
        <time>2022-04-05T08:59:49Z</time>
      </trkpt>
      <trkpt lat="44.88146" lon="0.35137">
        <ele>31.9</ele>
        <time>2022-04-05T08:59:50Z</time>
      </trkpt>
      <trkpt lat="44.88148" lon="0.35136">
        <ele>31.9</ele>
        <time>2022-04-05T08:59:51Z</time>
      </trkpt>
      <trkpt lat="44.88149" lon="0.35134">
        <ele>31.9</ele>
        <time>2022-04-05T08:59:52Z</time>
      </trkpt>
      <trkpt lat="44.88149" lon="0.35132">
        <ele>31.9</ele>
        <time>2022-04-05T08:59:54Z</time>
      </trkpt>
      <trkpt lat="44.88149" lon="0.3513">
        <ele>31.9</ele>
        <time>2022-04-05T08:59:55Z</time>
      </trkpt>
      <trkpt lat="44.88149" lon="0.3513">
        <ele>31.9</ele>
        <time>2022-04-05T08:59:56Z</time>
      </trkpt>
      <trkpt lat="44.88149" lon="0.3513">
        <ele>31.9</ele>
        <time>2022-04-05T08:59:57Z</time>
      </trkpt>
      <trkpt lat="44.88149" lon="0.3513">
        <ele>31.9</ele>
        <time>2022-04-05T08:59:58Z</time>
      </trkpt>
      <trkpt lat="44.88149" lon="0.3513">
        <ele>31.9</ele>
        <time>2022-04-05T08:59:59Z</time>
      </trkpt>
      <trkpt lat="44.8815" lon="0.3513">
        <ele>31.9</ele>
        <time>2022-04-05T09:00:00Z</time>
      </trkpt>
      <trkpt lat="44.8815" lon="0.3513">
        <ele>31.9</ele>
        <time>2022-04-05T09:00:01Z</time>
      </trkpt>
      <trkpt lat="44.8815" lon="0.3513">
        <ele>31.9</ele>
        <time>2022-04-05T09:00:02Z</time>
      </trkpt>
      <trkpt lat="44.88151" lon="0.3513">
        <ele>31.9</ele>
        <time>2022-04-05T09:00:03Z</time>
      </trkpt>
      <trkpt lat="44.88151" lon="0.3513">
        <ele>31.9</ele>
        <time>2022-04-05T09:00:04Z</time>
      </trkpt>
      <trkpt lat="44.88151" lon="0.3513">
        <ele>31.9</ele>
        <time>2022-04-05T09:00:05Z</time>
      </trkpt>
      <trkpt lat="44.88152" lon="0.35131">
        <ele>31.9</ele>
        <time>2022-04-05T09:00:06Z</time>
      </trkpt>
      <trkpt lat="44.88152" lon="0.35131">
        <ele>31.9</ele>
        <time>2022-04-05T09:00:08Z</time>
      </trkpt>
      <trkpt lat="44.88152" lon="0.35131">
        <ele>31.9</ele>
        <time>2022-04-05T09:00:09Z</time>
      </trkpt>
      <trkpt lat="44.88152" lon="0.35131">
        <ele>31.9</ele>
        <time>2022-04-05T09:00:10Z</time>
      </trkpt>
      <trkpt lat="44.88153" lon="0.35131">
        <ele>31.9</ele>
        <time>2022-04-05T09:00:11Z</time>
      </trkpt>
      <trkpt lat="44.88154" lon="0.35131">
        <ele>31.9</ele>
        <time>2022-04-05T09:00:13Z</time>
      </trkpt>
      <trkpt lat="44.88155" lon="0.35131">
        <ele>31.9</ele>
        <time>2022-04-05T09:00:14Z</time>
      </trkpt>
      <trkpt lat="44.88156" lon="0.35131">
        <ele>31.9</ele>
        <time>2022-04-05T09:00:15Z</time>
      </trkpt>
      <trkpt lat="44.88155" lon="0.35132">
        <ele>31.9</ele>
        <time>2022-04-05T09:00:16Z</time>
      </trkpt>
      <trkpt lat="44.88155" lon="0.35132">
        <ele>31.9</ele>
        <time>2022-04-05T09:00:17Z</time>
      </trkpt>
      <trkpt lat="44.88155" lon="0.35133">
        <ele>31.9</ele>
        <time>2022-04-05T09:00:19Z</time>
      </trkpt>
      <trkpt lat="44.88154" lon="0.35133">
        <ele>31.9</ele>
        <time>2022-04-05T09:00:20Z</time>
      </trkpt>
      <trkpt lat="44.88154" lon="0.35135">
        <ele>31.9</ele>
        <time>2022-04-05T09:00:21Z</time>
      </trkpt>
      <trkpt lat="44.88153" lon="0.35137">
        <ele>31.9</ele>
        <time>2022-04-05T09:00:22Z</time>
      </trkpt>
      <trkpt lat="44.88153" lon="0.35138">
        <ele>31.9</ele>
        <time>2022-04-05T09:00:23Z</time>
      </trkpt>
      <trkpt lat="44.88153" lon="0.35139">
        <ele>31.9</ele>
        <time>2022-04-05T09:00:24Z</time>
      </trkpt>
      <trkpt lat="44.88153" lon="0.3514">
        <ele>31.9</ele>
        <time>2022-04-05T09:00:25Z</time>
      </trkpt>
      <trkpt lat="44.88153" lon="0.3514">
        <ele>31.9</ele>
        <time>2022-04-05T09:00:26Z</time>
      </trkpt>
      <trkpt lat="44.88153" lon="0.3514">
        <ele>31.9</ele>
        <time>2022-04-05T09:00:27Z</time>
      </trkpt>
      <trkpt lat="44.88154" lon="0.3514">
        <ele>31.9</ele>
        <time>2022-04-05T09:00:28Z</time>
      </trkpt>
      <trkpt lat="44.88155" lon="0.3514">
        <ele>31.9</ele>
        <time>2022-04-05T09:00:29Z</time>
      </trkpt>
      <trkpt lat="44.88156" lon="0.35139">
        <ele>31.9</ele>
        <time>2022-04-05T09:00:30Z</time>
      </trkpt>
      <trkpt lat="44.88158" lon="0.35138">
        <ele>31.9</ele>
        <time>2022-04-05T09:00:32Z</time>
      </trkpt>
      <trkpt lat="44.88159" lon="0.35137">
        <ele>31.9</ele>
        <time>2022-04-05T09:00:33Z</time>
      </trkpt>
      <trkpt lat="44.8816" lon="0.35136">
        <ele>31.9</ele>
        <time>2022-04-05T09:00:34Z</time>
      </trkpt>
      <trkpt lat="44.88161" lon="0.35135">
        <ele>31.9</ele>
        <time>2022-04-05T09:00:35Z</time>
      </trkpt>
      <trkpt lat="44.88163" lon="0.35134">
        <ele>31.9</ele>
        <time>2022-04-05T09:00:36Z</time>
      </trkpt>
      <trkpt lat="44.88164" lon="0.35133">
        <ele>31.9</ele>
        <time>2022-04-05T09:00:37Z</time>
      </trkpt>
      <trkpt lat="44.88165" lon="0.35131">
        <ele>31.9</ele>
        <time>2022-04-05T09:00:38Z</time>
      </trkpt>
      <trkpt lat="44.88167" lon="0.3513">
        <ele>31.9</ele>
        <time>2022-04-05T09:00:39Z</time>
      </trkpt>
      <trkpt lat="44.88168" lon="0.35129">
        <ele>31.9</ele>
        <time>2022-04-05T09:00:40Z</time>
      </trkpt>
      <trkpt lat="44.88169" lon="0.35128">
        <ele>31.9</ele>
        <time>2022-04-05T09:00:42Z</time>
      </trkpt>
      <trkpt lat="44.88171" lon="0.35127">
        <ele>31.9</ele>
        <time>2022-04-05T09:00:43Z</time>
      </trkpt>
      <trkpt lat="44.88172" lon="0.35126">
        <ele>31.9</ele>
        <time>2022-04-05T09:00:44Z</time>
      </trkpt>
      <trkpt lat="44.88173" lon="0.35124">
        <ele>31.9</ele>
        <time>2022-04-05T09:00:45Z</time>
      </trkpt>
      <trkpt lat="44.88175" lon="0.35123">
        <ele>31.9</ele>
        <time>2022-04-05T09:00:46Z</time>
      </trkpt>
      <trkpt lat="44.88176" lon="0.35121">
        <ele>31.9</ele>
        <time>2022-04-05T09:00:47Z</time>
      </trkpt>
      <trkpt lat="44.88176" lon="0.3512">
        <ele>31.9</ele>
        <time>2022-04-05T09:00:48Z</time>
      </trkpt>
      <trkpt lat="44.88177" lon="0.35119">
        <ele>31.9</ele>
        <time>2022-04-05T09:00:49Z</time>
      </trkpt>
      <trkpt lat="44.88178" lon="0.35118">
        <ele>32</ele>
        <time>2022-04-05T09:00:50Z</time>
      </trkpt>
      <trkpt lat="44.88179" lon="0.35117">
        <ele>32</ele>
        <time>2022-04-05T09:00:51Z</time>
      </trkpt>
      <trkpt lat="44.88181" lon="0.35115">
        <ele>32</ele>
        <time>2022-04-05T09:00:52Z</time>
      </trkpt>
      <trkpt lat="44.88181" lon="0.35114">
        <ele>32</ele>
        <time>2022-04-05T09:00:53Z</time>
      </trkpt>
      <trkpt lat="44.88182" lon="0.35113">
        <ele>32</ele>
        <time>2022-04-05T09:00:54Z</time>
      </trkpt>
      <trkpt lat="44.88184" lon="0.35112">
        <ele>32</ele>
        <time>2022-04-05T09:00:55Z</time>
      </trkpt>
      <trkpt lat="44.88185" lon="0.35111">
        <ele>32</ele>
        <time>2022-04-05T09:00:56Z</time>
      </trkpt>
      <trkpt lat="44.88185" lon="0.35111">
        <ele>32</ele>
        <time>2022-04-05T09:00:57Z</time>
      </trkpt>
      <trkpt lat="44.88187" lon="0.3511">
        <ele>32</ele>
        <time>2022-04-05T09:00:58Z</time>
      </trkpt>
      <trkpt lat="44.88188" lon="0.3511">
        <ele>32</ele>
        <time>2022-04-05T09:00:59Z</time>
      </trkpt>
      <trkpt lat="44.8819" lon="0.35109">
        <ele>32</ele>
        <time>2022-04-05T09:01:00Z</time>
      </trkpt>
      <trkpt lat="44.88191" lon="0.35108">
        <ele>32</ele>
        <time>2022-04-05T09:01:01Z</time>
      </trkpt>
      <trkpt lat="44.88193" lon="0.35107">
        <ele>32</ele>
        <time>2022-04-05T09:01:03Z</time>
      </trkpt>
      <trkpt lat="44.88194" lon="0.35107">
        <ele>32</ele>
        <time>2022-04-05T09:01:04Z</time>
      </trkpt>
      <trkpt lat="44.88195" lon="0.35106">
        <ele>32</ele>
        <time>2022-04-05T09:01:05Z</time>
      </trkpt>
      <trkpt lat="44.88196" lon="0.35106">
        <ele>32.1</ele>
        <time>2022-04-05T09:01:06Z</time>
      </trkpt>
      <trkpt lat="44.88197" lon="0.35105">
        <ele>32.1</ele>
        <time>2022-04-05T09:01:07Z</time>
      </trkpt>
      <trkpt lat="44.88198" lon="0.35105">
        <ele>32.1</ele>
        <time>2022-04-05T09:01:08Z</time>
      </trkpt>
      <trkpt lat="44.882" lon="0.35105">
        <ele>32.1</ele>
        <time>2022-04-05T09:01:09Z</time>
      </trkpt>
      <trkpt lat="44.88201" lon="0.35104">
        <ele>32.1</ele>
        <time>2022-04-05T09:01:11Z</time>
      </trkpt>
      <trkpt lat="44.88202" lon="0.35104">
        <ele>32.1</ele>
        <time>2022-04-05T09:01:12Z</time>
      </trkpt>
      <trkpt lat="44.88203" lon="0.35103">
        <ele>32.1</ele>
        <time>2022-04-05T09:01:13Z</time>
      </trkpt>
      <trkpt lat="44.88204" lon="0.35102">
        <ele>32.1</ele>
        <time>2022-04-05T09:01:14Z</time>
      </trkpt>
      <trkpt lat="44.88205" lon="0.35101">
        <ele>32.1</ele>
        <time>2022-04-05T09:01:15Z</time>
      </trkpt>
      <trkpt lat="44.88206" lon="0.351">
        <ele>32.2</ele>
        <time>2022-04-05T09:01:16Z</time>
      </trkpt>
      <trkpt lat="44.88207" lon="0.351">
        <ele>32.2</ele>
        <time>2022-04-05T09:01:17Z</time>
      </trkpt>
      <trkpt lat="44.88208" lon="0.35099">
        <ele>32.2</ele>
        <time>2022-04-05T09:01:18Z</time>
      </trkpt>
      <trkpt lat="44.8821" lon="0.35099">
        <ele>32.2</ele>
        <time>2022-04-05T09:01:20Z</time>
      </trkpt>
      <trkpt lat="44.88211" lon="0.35098">
        <ele>32.2</ele>
        <time>2022-04-05T09:01:21Z</time>
      </trkpt>
      <trkpt lat="44.88212" lon="0.35098">
        <ele>32.2</ele>
        <time>2022-04-05T09:01:22Z</time>
      </trkpt>
      <trkpt lat="44.88213" lon="0.35098">
        <ele>32.2</ele>
        <time>2022-04-05T09:01:23Z</time>
      </trkpt>
      <trkpt lat="44.88214" lon="0.35098">
        <ele>32.2</ele>
        <time>2022-04-05T09:01:24Z</time>
      </trkpt>
      <trkpt lat="44.88215" lon="0.35098">
        <ele>32.3</ele>
        <time>2022-04-05T09:01:25Z</time>
      </trkpt>
      <trkpt lat="44.88216" lon="0.35097">
        <ele>32.3</ele>
        <time>2022-04-05T09:01:26Z</time>
      </trkpt>
      <trkpt lat="44.88218" lon="0.35096">
        <ele>32.3</ele>
        <time>2022-04-05T09:01:27Z</time>
      </trkpt>
      <trkpt lat="44.88219" lon="0.35096">
        <ele>32.3</ele>
        <time>2022-04-05T09:01:28Z</time>
      </trkpt>
      <trkpt lat="44.8822" lon="0.35095">
        <ele>32.3</ele>
        <time>2022-04-05T09:01:29Z</time>
      </trkpt>
      <trkpt lat="44.88221" lon="0.35095">
        <ele>32.3</ele>
        <time>2022-04-05T09:01:30Z</time>
      </trkpt>
      <trkpt lat="44.88222" lon="0.35094">
        <ele>32.3</ele>
        <time>2022-04-05T09:01:31Z</time>
      </trkpt>
      <trkpt lat="44.88222" lon="0.35093">
        <ele>32.3</ele>
        <time>2022-04-05T09:01:32Z</time>
      </trkpt>
      <trkpt lat="44.88224" lon="0.35092">
        <ele>32.4</ele>
        <time>2022-04-05T09:01:33Z</time>
      </trkpt>
      <trkpt lat="44.88225" lon="0.35091">
        <ele>32.4</ele>
        <time>2022-04-05T09:01:34Z</time>
      </trkpt>
      <trkpt lat="44.88226" lon="0.3509">
        <ele>32.4</ele>
        <time>2022-04-05T09:01:35Z</time>
      </trkpt>
      <trkpt lat="44.88227" lon="0.35089">
        <ele>32.4</ele>
        <time>2022-04-05T09:01:36Z</time>
      </trkpt>
      <trkpt lat="44.88228" lon="0.35088">
        <ele>32.4</ele>
        <time>2022-04-05T09:01:37Z</time>
      </trkpt>
      <trkpt lat="44.88229" lon="0.35086">
        <ele>32.5</ele>
        <time>2022-04-05T09:01:38Z</time>
      </trkpt>
      <trkpt lat="44.88231" lon="0.35085">
        <ele>32.5</ele>
        <time>2022-04-05T09:01:39Z</time>
      </trkpt>
      <trkpt lat="44.88233" lon="0.35084">
        <ele>32.5</ele>
        <time>2022-04-05T09:01:41Z</time>
      </trkpt>
      <trkpt lat="44.88234" lon="0.35083">
        <ele>32.5</ele>
        <time>2022-04-05T09:01:42Z</time>
      </trkpt>
      <trkpt lat="44.88235" lon="0.35083">
        <ele>32.6</ele>
        <time>2022-04-05T09:01:43Z</time>
      </trkpt>
      <trkpt lat="44.88237" lon="0.35082">
        <ele>32.6</ele>
        <time>2022-04-05T09:01:44Z</time>
      </trkpt>
      <trkpt lat="44.88239" lon="0.35081">
        <ele>32.6</ele>
        <time>2022-04-05T09:01:45Z</time>
      </trkpt>
      <trkpt lat="44.88241" lon="0.3508">
        <ele>32.6</ele>
        <time>2022-04-05T09:01:47Z</time>
      </trkpt>
      <trkpt lat="44.88242" lon="0.35079">
        <ele>32.7</ele>
        <time>2022-04-05T09:01:48Z</time>
      </trkpt>
      <trkpt lat="44.88243" lon="0.35078">
        <ele>32.7</ele>
        <time>2022-04-05T09:01:49Z</time>
      </trkpt>
      <trkpt lat="44.88245" lon="0.35077">
        <ele>32.7</ele>
        <time>2022-04-05T09:01:50Z</time>
      </trkpt>
      <trkpt lat="44.88246" lon="0.35076">
        <ele>32.7</ele>
        <time>2022-04-05T09:01:51Z</time>
      </trkpt>
      <trkpt lat="44.88247" lon="0.35076">
        <ele>32.8</ele>
        <time>2022-04-05T09:01:52Z</time>
      </trkpt>
      <trkpt lat="44.88248" lon="0.35075">
        <ele>32.8</ele>
        <time>2022-04-05T09:01:53Z</time>
      </trkpt>
      <trkpt lat="44.88249" lon="0.35074">
        <ele>32.8</ele>
        <time>2022-04-05T09:01:54Z</time>
      </trkpt>
      <trkpt lat="44.8825" lon="0.35074">
        <ele>32.8</ele>
        <time>2022-04-05T09:01:55Z</time>
      </trkpt>
      <trkpt lat="44.88251" lon="0.35073">
        <ele>32.9</ele>
        <time>2022-04-05T09:01:56Z</time>
      </trkpt>
      <trkpt lat="44.88252" lon="0.35072">
        <ele>32.9</ele>
        <time>2022-04-05T09:01:57Z</time>
      </trkpt>
      <trkpt lat="44.88253" lon="0.35071">
        <ele>32.9</ele>
        <time>2022-04-05T09:01:58Z</time>
      </trkpt>
      <trkpt lat="44.88254" lon="0.3507">
        <ele>32.9</ele>
        <time>2022-04-05T09:01:59Z</time>
      </trkpt>
      <trkpt lat="44.88255" lon="0.35069">
        <ele>33</ele>
        <time>2022-04-05T09:02:01Z</time>
      </trkpt>
      <trkpt lat="44.88256" lon="0.35068">
        <ele>33</ele>
        <time>2022-04-05T09:02:02Z</time>
      </trkpt>
      <trkpt lat="44.88257" lon="0.35067">
        <ele>33</ele>
        <time>2022-04-05T09:02:03Z</time>
      </trkpt>
      <trkpt lat="44.88258" lon="0.35066">
        <ele>33</ele>
        <time>2022-04-05T09:02:04Z</time>
      </trkpt>
      <trkpt lat="44.88259" lon="0.35064">
        <ele>33.2</ele>
        <time>2022-04-05T09:02:05Z</time>
      </trkpt>
      <trkpt lat="44.88259" lon="0.35063">
        <ele>33.2</ele>
        <time>2022-04-05T09:02:06Z</time>
      </trkpt>
      <trkpt lat="44.8826" lon="0.35062">
        <ele>33.2</ele>
        <time>2022-04-05T09:02:07Z</time>
      </trkpt>
      <trkpt lat="44.8826" lon="0.3506">
        <ele>33.2</ele>
        <time>2022-04-05T09:02:08Z</time>
      </trkpt>
      <trkpt lat="44.8826" lon="0.35059">
        <ele>33.2</ele>
        <time>2022-04-05T09:02:09Z</time>
      </trkpt>
      <trkpt lat="44.88261" lon="0.35056">
        <ele>33.2</ele>
        <time>2022-04-05T09:02:11Z</time>
      </trkpt>
      <trkpt lat="44.88261" lon="0.35055">
        <ele>33.2</ele>
        <time>2022-04-05T09:02:12Z</time>
      </trkpt>
      <trkpt lat="44.88263" lon="0.35051">
        <ele>33.2</ele>
        <time>2022-04-05T09:02:14Z</time>
      </trkpt>
      <trkpt lat="44.88263" lon="0.3505">
        <ele>33.2</ele>
        <time>2022-04-05T09:02:15Z</time>
      </trkpt>
      <trkpt lat="44.88263" lon="0.35049">
        <ele>33.2</ele>
        <time>2022-04-05T09:02:16Z</time>
      </trkpt>
      <trkpt lat="44.88264" lon="0.35049">
        <ele>33.2</ele>
        <time>2022-04-05T09:02:17Z</time>
      </trkpt>
      <trkpt lat="44.88264" lon="0.35048">
        <ele>33.2</ele>
        <time>2022-04-05T09:02:18Z</time>
      </trkpt>
      <trkpt lat="44.88264" lon="0.35047">
        <ele>33.2</ele>
        <time>2022-04-05T09:02:19Z</time>
      </trkpt>
      <trkpt lat="44.88264" lon="0.35047">
        <ele>33.2</ele>
        <time>2022-04-05T09:02:20Z</time>
      </trkpt>
      <trkpt lat="44.88264" lon="0.35045">
        <ele>33.2</ele>
        <time>2022-04-05T09:02:21Z</time>
      </trkpt>
      <trkpt lat="44.88264" lon="0.35043">
        <ele>33.2</ele>
        <time>2022-04-05T09:02:22Z</time>
      </trkpt>
      <trkpt lat="44.88264" lon="0.35041">
        <ele>33.3</ele>
        <time>2022-04-05T09:02:24Z</time>
      </trkpt>
      <trkpt lat="44.88264" lon="0.35039">
        <ele>33.3</ele>
        <time>2022-04-05T09:02:25Z</time>
      </trkpt>
      <trkpt lat="44.88265" lon="0.35037">
        <ele>33.3</ele>
        <time>2022-04-05T09:02:26Z</time>
      </trkpt>
      <trkpt lat="44.88264" lon="0.35034">
        <ele>33.3</ele>
        <time>2022-04-05T09:02:27Z</time>
      </trkpt>
      <trkpt lat="44.88264" lon="0.35033">
        <ele>33.3</ele>
        <time>2022-04-05T09:02:28Z</time>
      </trkpt>
      <trkpt lat="44.88264" lon="0.35031">
        <ele>33.3</ele>
        <time>2022-04-05T09:02:29Z</time>
      </trkpt>
      <trkpt lat="44.88264" lon="0.3503">
        <ele>33.3</ele>
        <time>2022-04-05T09:02:30Z</time>
      </trkpt>
      <trkpt lat="44.88264" lon="0.35028">
        <ele>33.3</ele>
        <time>2022-04-05T09:02:31Z</time>
      </trkpt>
      <trkpt lat="44.88263" lon="0.35026">
        <ele>33.3</ele>
        <time>2022-04-05T09:02:32Z</time>
      </trkpt>
      <trkpt lat="44.88263" lon="0.35024">
        <ele>33.4</ele>
        <time>2022-04-05T09:02:33Z</time>
      </trkpt>
      <trkpt lat="44.88263" lon="0.35023">
        <ele>33.4</ele>
        <time>2022-04-05T09:02:34Z</time>
      </trkpt>
      <trkpt lat="44.88262" lon="0.35022">
        <ele>33.4</ele>
        <time>2022-04-05T09:02:35Z</time>
      </trkpt>
      <trkpt lat="44.88262" lon="0.3502">
        <ele>33.4</ele>
        <time>2022-04-05T09:02:36Z</time>
      </trkpt>
      <trkpt lat="44.88261" lon="0.35018">
        <ele>33.4</ele>
        <time>2022-04-05T09:02:37Z</time>
      </trkpt>
      <trkpt lat="44.88261" lon="0.35016">
        <ele>33.5</ele>
        <time>2022-04-05T09:02:39Z</time>
      </trkpt>
      <trkpt lat="44.8826" lon="0.35014">
        <ele>33.5</ele>
        <time>2022-04-05T09:02:40Z</time>
      </trkpt>
      <trkpt lat="44.8826" lon="0.35012">
        <ele>33.5</ele>
        <time>2022-04-05T09:02:41Z</time>
      </trkpt>
      <trkpt lat="44.8826" lon="0.3501">
        <ele>33.5</ele>
        <time>2022-04-05T09:02:42Z</time>
      </trkpt>
      <trkpt lat="44.8826" lon="0.35007">
        <ele>33.6</ele>
        <time>2022-04-05T09:02:43Z</time>
      </trkpt>
      <trkpt lat="44.8826" lon="0.35006">
        <ele>33.6</ele>
        <time>2022-04-05T09:02:44Z</time>
      </trkpt>
      <trkpt lat="44.8826" lon="0.35005">
        <ele>33.6</ele>
        <time>2022-04-05T09:02:45Z</time>
      </trkpt>
      <trkpt lat="44.88259" lon="0.35002">
        <ele>33.6</ele>
        <time>2022-04-05T09:02:46Z</time>
      </trkpt>
      <trkpt lat="44.88259" lon="0.35001">
        <ele>33.6</ele>
        <time>2022-04-05T09:02:47Z</time>
      </trkpt>
      <trkpt lat="44.88259" lon="0.35">
        <ele>33.7</ele>
        <time>2022-04-05T09:02:48Z</time>
      </trkpt>
      <trkpt lat="44.88259" lon="0.34998">
        <ele>33.7</ele>
        <time>2022-04-05T09:02:49Z</time>
      </trkpt>
      <trkpt lat="44.88259" lon="0.34996">
        <ele>33.7</ele>
        <time>2022-04-05T09:02:50Z</time>
      </trkpt>
      <trkpt lat="44.88258" lon="0.34994">
        <ele>33.7</ele>
        <time>2022-04-05T09:02:51Z</time>
      </trkpt>
      <trkpt lat="44.88258" lon="0.34992">
        <ele>33.8</ele>
        <time>2022-04-05T09:02:52Z</time>
      </trkpt>
      <trkpt lat="44.88258" lon="0.34989">
        <ele>33.8</ele>
        <time>2022-04-05T09:02:53Z</time>
      </trkpt>
      <trkpt lat="44.88258" lon="0.34988">
        <ele>33.8</ele>
        <time>2022-04-05T09:02:54Z</time>
      </trkpt>
      <trkpt lat="44.88257" lon="0.34987">
        <ele>33.8</ele>
        <time>2022-04-05T09:02:55Z</time>
      </trkpt>
      <trkpt lat="44.88257" lon="0.34984">
        <ele>33.9</ele>
        <time>2022-04-05T09:02:56Z</time>
      </trkpt>
      <trkpt lat="44.88257" lon="0.34982">
        <ele>33.9</ele>
        <time>2022-04-05T09:02:57Z</time>
      </trkpt>
      <trkpt lat="44.88257" lon="0.3498">
        <ele>33.9</ele>
        <time>2022-04-05T09:02:58Z</time>
      </trkpt>
      <trkpt lat="44.88256" lon="0.34978">
        <ele>33.9</ele>
        <time>2022-04-05T09:02:59Z</time>
      </trkpt>
      <trkpt lat="44.88256" lon="0.34975">
        <ele>34</ele>
        <time>2022-04-05T09:03:00Z</time>
      </trkpt>
      <trkpt lat="44.88256" lon="0.34974">
        <ele>34</ele>
        <time>2022-04-05T09:03:02Z</time>
      </trkpt>
      <trkpt lat="44.88255" lon="0.34973">
        <ele>34</ele>
        <time>2022-04-05T09:03:03Z</time>
      </trkpt>
      <trkpt lat="44.88254" lon="0.3497">
        <ele>34.1</ele>
        <time>2022-04-05T09:03:04Z</time>
      </trkpt>
      <trkpt lat="44.88254" lon="0.34969">
        <ele>34.1</ele>
        <time>2022-04-05T09:03:05Z</time>
      </trkpt>
      <trkpt lat="44.88254" lon="0.34967">
        <ele>34.1</ele>
        <time>2022-04-05T09:03:06Z</time>
      </trkpt>
      <trkpt lat="44.88253" lon="0.34966">
        <ele>34.1</ele>
        <time>2022-04-05T09:03:07Z</time>
      </trkpt>
      <trkpt lat="44.88253" lon="0.34964">
        <ele>34.1</ele>
        <time>2022-04-05T09:03:08Z</time>
      </trkpt>
      <trkpt lat="44.88252" lon="0.34961">
        <ele>34.2</ele>
        <time>2022-04-05T09:03:09Z</time>
      </trkpt>
      <trkpt lat="44.88252" lon="0.3496">
        <ele>34.2</ele>
        <time>2022-04-05T09:03:10Z</time>
      </trkpt>
      <trkpt lat="44.88251" lon="0.34959">
        <ele>34.2</ele>
        <time>2022-04-05T09:03:11Z</time>
      </trkpt>
      <trkpt lat="44.8825" lon="0.34957">
        <ele>34.2</ele>
        <time>2022-04-05T09:03:13Z</time>
      </trkpt>
      <trkpt lat="44.88249" lon="0.34955">
        <ele>34.2</ele>
        <time>2022-04-05T09:03:14Z</time>
      </trkpt>
      <trkpt lat="44.88249" lon="0.34954">
        <ele>34.3</ele>
        <time>2022-04-05T09:03:15Z</time>
      </trkpt>
      <trkpt lat="44.88248" lon="0.34952">
        <ele>34.3</ele>
        <time>2022-04-05T09:03:16Z</time>
      </trkpt>
      <trkpt lat="44.88247" lon="0.3495">
        <ele>34.3</ele>
        <time>2022-04-05T09:03:17Z</time>
      </trkpt>
      <trkpt lat="44.88246" lon="0.34948">
        <ele>34.3</ele>
        <time>2022-04-05T09:03:18Z</time>
      </trkpt>
      <trkpt lat="44.88245" lon="0.34946">
        <ele>34.4</ele>
        <time>2022-04-05T09:03:20Z</time>
      </trkpt>
      <trkpt lat="44.88245" lon="0.34944">
        <ele>34.4</ele>
        <time>2022-04-05T09:03:21Z</time>
      </trkpt>
      <trkpt lat="44.88244" lon="0.34942">
        <ele>34.4</ele>
        <time>2022-04-05T09:03:22Z</time>
      </trkpt>
      <trkpt lat="44.88243" lon="0.34941">
        <ele>34.4</ele>
        <time>2022-04-05T09:03:23Z</time>
      </trkpt>
      <trkpt lat="44.88242" lon="0.34939">
        <ele>34.5</ele>
        <time>2022-04-05T09:03:24Z</time>
      </trkpt>
      <trkpt lat="44.88241" lon="0.34937">
        <ele>34.5</ele>
        <time>2022-04-05T09:03:25Z</time>
      </trkpt>
      <trkpt lat="44.8824" lon="0.34935">
        <ele>34.5</ele>
        <time>2022-04-05T09:03:26Z</time>
      </trkpt>
      <trkpt lat="44.88239" lon="0.34933">
        <ele>34.5</ele>
        <time>2022-04-05T09:03:27Z</time>
      </trkpt>
      <trkpt lat="44.88239" lon="0.34931">
        <ele>34.5</ele>
        <time>2022-04-05T09:03:28Z</time>
      </trkpt>
      <trkpt lat="44.88238" lon="0.34929">
        <ele>34.6</ele>
        <time>2022-04-05T09:03:30Z</time>
      </trkpt>
      <trkpt lat="44.88237" lon="0.34927">
        <ele>34.6</ele>
        <time>2022-04-05T09:03:31Z</time>
      </trkpt>
      <trkpt lat="44.88236" lon="0.34925">
        <ele>34.6</ele>
        <time>2022-04-05T09:03:32Z</time>
      </trkpt>
      <trkpt lat="44.88235" lon="0.34923">
        <ele>34.6</ele>
        <time>2022-04-05T09:03:33Z</time>
      </trkpt>
      <trkpt lat="44.88234" lon="0.34921">
        <ele>34.6</ele>
        <time>2022-04-05T09:03:34Z</time>
      </trkpt>
      <trkpt lat="44.88233" lon="0.34919">
        <ele>34.6</ele>
        <time>2022-04-05T09:03:35Z</time>
      </trkpt>
      <trkpt lat="44.88233" lon="0.34918">
        <ele>34.7</ele>
        <time>2022-04-05T09:03:36Z</time>
      </trkpt>
      <trkpt lat="44.88232" lon="0.34916">
        <ele>34.7</ele>
        <time>2022-04-05T09:03:38Z</time>
      </trkpt>
      <trkpt lat="44.88231" lon="0.34914">
        <ele>34.7</ele>
        <time>2022-04-05T09:03:39Z</time>
      </trkpt>
      <trkpt lat="44.8823" lon="0.34912">
        <ele>34.7</ele>
        <time>2022-04-05T09:03:40Z</time>
      </trkpt>
      <trkpt lat="44.88229" lon="0.3491">
        <ele>34.7</ele>
        <time>2022-04-05T09:03:41Z</time>
      </trkpt>
      <trkpt lat="44.88229" lon="0.34908">
        <ele>34.7</ele>
        <time>2022-04-05T09:03:42Z</time>
      </trkpt>
      <trkpt lat="44.88228" lon="0.34906">
        <ele>34.7</ele>
        <time>2022-04-05T09:03:43Z</time>
      </trkpt>
      <trkpt lat="44.88227" lon="0.34904">
        <ele>34.7</ele>
        <time>2022-04-05T09:03:44Z</time>
      </trkpt>
      <trkpt lat="44.88226" lon="0.34902">
        <ele>34.7</ele>
        <time>2022-04-05T09:03:45Z</time>
      </trkpt>
      <trkpt lat="44.88225" lon="0.349">
        <ele>34.7</ele>
        <time>2022-04-05T09:03:46Z</time>
      </trkpt>
      <trkpt lat="44.88224" lon="0.34899">
        <ele>34.7</ele>
        <time>2022-04-05T09:03:47Z</time>
      </trkpt>
      <trkpt lat="44.88224" lon="0.34897">
        <ele>34.7</ele>
        <time>2022-04-05T09:03:48Z</time>
      </trkpt>
      <trkpt lat="44.88222" lon="0.34895">
        <ele>34.8</ele>
        <time>2022-04-05T09:03:49Z</time>
      </trkpt>
      <trkpt lat="44.88221" lon="0.34894">
        <ele>34.8</ele>
        <time>2022-04-05T09:03:51Z</time>
      </trkpt>
      <trkpt lat="44.88221" lon="0.34893">
        <ele>34.8</ele>
        <time>2022-04-05T09:03:52Z</time>
      </trkpt>
      <trkpt lat="44.8822" lon="0.34892">
        <ele>34.8</ele>
        <time>2022-04-05T09:03:53Z</time>
      </trkpt>
      <trkpt lat="44.88219" lon="0.34891">
        <ele>34.8</ele>
        <time>2022-04-05T09:03:54Z</time>
      </trkpt>
      <trkpt lat="44.88218" lon="0.34888">
        <ele>34.8</ele>
        <time>2022-04-05T09:03:55Z</time>
      </trkpt>
      <trkpt lat="44.88218" lon="0.34887">
        <ele>34.8</ele>
        <time>2022-04-05T09:03:56Z</time>
      </trkpt>
      <trkpt lat="44.88218" lon="0.34886">
        <ele>34.8</ele>
        <time>2022-04-05T09:03:57Z</time>
      </trkpt>
      <trkpt lat="44.88216" lon="0.34884">
        <ele>34.8</ele>
        <time>2022-04-05T09:03:59Z</time>
      </trkpt>
      <trkpt lat="44.88216" lon="0.34883">
        <ele>34.8</ele>
        <time>2022-04-05T09:04:00Z</time>
      </trkpt>
      <trkpt lat="44.88215" lon="0.34882">
        <ele>34.8</ele>
        <time>2022-04-05T09:04:01Z</time>
      </trkpt>
      <trkpt lat="44.88214" lon="0.34879">
        <ele>34.8</ele>
        <time>2022-04-05T09:04:02Z</time>
      </trkpt>
      <trkpt lat="44.88214" lon="0.34878">
        <ele>34.8</ele>
        <time>2022-04-05T09:04:03Z</time>
      </trkpt>
      <trkpt lat="44.88213" lon="0.34877">
        <ele>34.8</ele>
        <time>2022-04-05T09:04:04Z</time>
      </trkpt>
      <trkpt lat="44.88212" lon="0.34876">
        <ele>34.8</ele>
        <time>2022-04-05T09:04:05Z</time>
      </trkpt>
      <trkpt lat="44.88212" lon="0.34875">
        <ele>34.7</ele>
        <time>2022-04-05T09:04:06Z</time>
      </trkpt>
      <trkpt lat="44.88211" lon="0.34873">
        <ele>34.7</ele>
        <time>2022-04-05T09:04:07Z</time>
      </trkpt>
      <trkpt lat="44.8821" lon="0.34871">
        <ele>34.7</ele>
        <time>2022-04-05T09:04:08Z</time>
      </trkpt>
      <trkpt lat="44.88209" lon="0.34869">
        <ele>34.7</ele>
        <time>2022-04-05T09:04:10Z</time>
      </trkpt>
      <trkpt lat="44.88209" lon="0.34868">
        <ele>34.7</ele>
        <time>2022-04-05T09:04:11Z</time>
      </trkpt>
      <trkpt lat="44.88207" lon="0.34866">
        <ele>34.7</ele>
        <time>2022-04-05T09:04:12Z</time>
      </trkpt>
      <trkpt lat="44.88207" lon="0.34865">
        <ele>34.7</ele>
        <time>2022-04-05T09:04:13Z</time>
      </trkpt>
      <trkpt lat="44.88206" lon="0.34864">
        <ele>34.7</ele>
        <time>2022-04-05T09:04:14Z</time>
      </trkpt>
      <trkpt lat="44.88205" lon="0.34862">
        <ele>34.7</ele>
        <time>2022-04-05T09:04:15Z</time>
      </trkpt>
      <trkpt lat="44.88205" lon="0.34861">
        <ele>34.6</ele>
        <time>2022-04-05T09:04:16Z</time>
      </trkpt>
      <trkpt lat="44.88205" lon="0.3486">
        <ele>34.6</ele>
        <time>2022-04-05T09:04:17Z</time>
      </trkpt>
      <trkpt lat="44.88204" lon="0.34858">
        <ele>34.6</ele>
        <time>2022-04-05T09:04:18Z</time>
      </trkpt>
      <trkpt lat="44.88204" lon="0.34856">
        <ele>34.6</ele>
        <time>2022-04-05T09:04:19Z</time>
      </trkpt>
      <trkpt lat="44.88203" lon="0.34855">
        <ele>34.6</ele>
        <time>2022-04-05T09:04:21Z</time>
      </trkpt>
      <trkpt lat="44.88202" lon="0.34852">
        <ele>34.6</ele>
        <time>2022-04-05T09:04:22Z</time>
      </trkpt>
      <trkpt lat="44.88202" lon="0.34851">
        <ele>34.6</ele>
        <time>2022-04-05T09:04:23Z</time>
      </trkpt>
      <trkpt lat="44.88202" lon="0.3485">
        <ele>34.6</ele>
        <time>2022-04-05T09:04:24Z</time>
      </trkpt>
      <trkpt lat="44.88202" lon="0.34848">
        <ele>34.5</ele>
        <time>2022-04-05T09:04:25Z</time>
      </trkpt>
      <trkpt lat="44.88202" lon="0.34847">
        <ele>34.5</ele>
        <time>2022-04-05T09:04:26Z</time>
      </trkpt>
      <trkpt lat="44.88202" lon="0.34847">
        <ele>34.5</ele>
        <time>2022-04-05T09:04:27Z</time>
      </trkpt>
      <trkpt lat="44.88202" lon="0.34847">
        <ele>34.5</ele>
        <time>2022-04-05T09:04:28Z</time>
      </trkpt>
      <trkpt lat="44.88202" lon="0.34847">
        <ele>34.5</ele>
        <time>2022-04-05T09:04:29Z</time>
      </trkpt>
      <trkpt lat="44.88202" lon="0.34848">
        <ele>34.5</ele>
        <time>2022-04-05T09:04:30Z</time>
      </trkpt>
      <trkpt lat="44.88203" lon="0.34848">
        <ele>34.5</ele>
        <time>2022-04-05T09:04:31Z</time>
      </trkpt>
      <trkpt lat="44.88203" lon="0.34848">
        <ele>34.5</ele>
        <time>2022-04-05T09:04:32Z</time>
      </trkpt>
      <trkpt lat="44.88203" lon="0.34849">
        <ele>34.5</ele>
        <time>2022-04-05T09:04:33Z</time>
      </trkpt>
      <trkpt lat="44.88203" lon="0.34849">
        <ele>34.5</ele>
        <time>2022-04-05T09:04:34Z</time>
      </trkpt>
      <trkpt lat="44.88203" lon="0.34849">
        <ele>34.5</ele>
        <time>2022-04-05T09:04:35Z</time>
      </trkpt>
      <trkpt lat="44.88203" lon="0.3485">
        <ele>34.5</ele>
        <time>2022-04-05T09:04:37Z</time>
      </trkpt>
      <trkpt lat="44.88203" lon="0.3485">
        <ele>34.5</ele>
        <time>2022-04-05T09:04:38Z</time>
      </trkpt>
      <trkpt lat="44.88202" lon="0.34849">
        <ele>34.5</ele>
        <time>2022-04-05T09:04:39Z</time>
      </trkpt>
      <trkpt lat="44.88202" lon="0.34848">
        <ele>34.5</ele>
        <time>2022-04-05T09:04:40Z</time>
      </trkpt>
      <trkpt lat="44.88202" lon="0.34847">
        <ele>34.5</ele>
        <time>2022-04-05T09:04:42Z</time>
      </trkpt>
      <trkpt lat="44.88201" lon="0.34846">
        <ele>34.5</ele>
        <time>2022-04-05T09:04:43Z</time>
      </trkpt>
      <trkpt lat="44.882" lon="0.34845">
        <ele>34.4</ele>
        <time>2022-04-05T09:04:45Z</time>
      </trkpt>
      <trkpt lat="44.88199" lon="0.34843">
        <ele>34.4</ele>
        <time>2022-04-05T09:04:46Z</time>
      </trkpt>
      <trkpt lat="44.88199" lon="0.34842">
        <ele>34.4</ele>
        <time>2022-04-05T09:04:47Z</time>
      </trkpt>
      <trkpt lat="44.88199" lon="0.3484">
        <ele>34.4</ele>
        <time>2022-04-05T09:04:48Z</time>
      </trkpt>
      <trkpt lat="44.88198" lon="0.34839">
        <ele>34.4</ele>
        <time>2022-04-05T09:04:50Z</time>
      </trkpt>
      <trkpt lat="44.88198" lon="0.34838">
        <ele>34.4</ele>
        <time>2022-04-05T09:04:51Z</time>
      </trkpt>
      <trkpt lat="44.88197" lon="0.34837">
        <ele>34.4</ele>
        <time>2022-04-05T09:04:52Z</time>
      </trkpt>
      <trkpt lat="44.88197" lon="0.34835">
        <ele>34.4</ele>
        <time>2022-04-05T09:04:53Z</time>
      </trkpt>
      <trkpt lat="44.88196" lon="0.34834">
        <ele>34.4</ele>
        <time>2022-04-05T09:04:55Z</time>
      </trkpt>
      <trkpt lat="44.88195" lon="0.34833">
        <ele>34.3</ele>
        <time>2022-04-05T09:04:56Z</time>
      </trkpt>
      <trkpt lat="44.88195" lon="0.34832">
        <ele>34.3</ele>
        <time>2022-04-05T09:04:57Z</time>
      </trkpt>
      <trkpt lat="44.88194" lon="0.3483">
        <ele>34.3</ele>
        <time>2022-04-05T09:04:58Z</time>
      </trkpt>
      <trkpt lat="44.88194" lon="0.34829">
        <ele>34.3</ele>
        <time>2022-04-05T09:05:00Z</time>
      </trkpt>
      <trkpt lat="44.88194" lon="0.34828">
        <ele>34.3</ele>
        <time>2022-04-05T09:05:01Z</time>
      </trkpt>
      <trkpt lat="44.88193" lon="0.34827">
        <ele>34.3</ele>
        <time>2022-04-05T09:05:02Z</time>
      </trkpt>
      <trkpt lat="44.88193" lon="0.34826">
        <ele>34.3</ele>
        <time>2022-04-05T09:05:03Z</time>
      </trkpt>
      <trkpt lat="44.88192" lon="0.34825">
        <ele>34.3</ele>
        <time>2022-04-05T09:05:04Z</time>
      </trkpt>
      <trkpt lat="44.88192" lon="0.34825">
        <ele>34.3</ele>
        <time>2022-04-05T09:05:05Z</time>
      </trkpt>
      <trkpt lat="44.88191" lon="0.34823">
        <ele>34.3</ele>
        <time>2022-04-05T09:05:07Z</time>
      </trkpt>
      <trkpt lat="44.88191" lon="0.34822">
        <ele>34.3</ele>
        <time>2022-04-05T09:05:08Z</time>
      </trkpt>
      <trkpt lat="44.88191" lon="0.34821">
        <ele>34.2</ele>
        <time>2022-04-05T09:05:09Z</time>
      </trkpt>
      <trkpt lat="44.8819" lon="0.3482">
        <ele>34.2</ele>
        <time>2022-04-05T09:05:10Z</time>
      </trkpt>
      <trkpt lat="44.8819" lon="0.34819">
        <ele>34.2</ele>
        <time>2022-04-05T09:05:12Z</time>
      </trkpt>
      <trkpt lat="44.88189" lon="0.34818">
        <ele>34.2</ele>
        <time>2022-04-05T09:05:13Z</time>
      </trkpt>
      <trkpt lat="44.88188" lon="0.34817">
        <ele>34.2</ele>
        <time>2022-04-05T09:05:15Z</time>
      </trkpt>
      <trkpt lat="44.88188" lon="0.34815">
        <ele>34.2</ele>
        <time>2022-04-05T09:05:16Z</time>
      </trkpt>
      <trkpt lat="44.88187" lon="0.34814">
        <ele>34.2</ele>
        <time>2022-04-05T09:05:17Z</time>
      </trkpt>
      <trkpt lat="44.88186" lon="0.34812">
        <ele>34.2</ele>
        <time>2022-04-05T09:05:19Z</time>
      </trkpt>
      <trkpt lat="44.88185" lon="0.34813">
        <ele>34.2</ele>
        <time>2022-04-05T09:05:20Z</time>
      </trkpt>
      <trkpt lat="44.88184" lon="0.34814">
        <ele>34.1</ele>
        <time>2022-04-05T09:05:21Z</time>
      </trkpt>
      <trkpt lat="44.88183" lon="0.34815">
        <ele>34.1</ele>
        <time>2022-04-05T09:05:23Z</time>
      </trkpt>
      <trkpt lat="44.88183" lon="0.34816">
        <ele>34.1</ele>
        <time>2022-04-05T09:05:24Z</time>
      </trkpt>
      <trkpt lat="44.88183" lon="0.34816">
        <ele>34.1</ele>
        <time>2022-04-05T09:05:25Z</time>
      </trkpt>
      <trkpt lat="44.88183" lon="0.34815">
        <ele>34.1</ele>
        <time>2022-04-05T09:05:26Z</time>
      </trkpt>
      <trkpt lat="44.88182" lon="0.34815">
        <ele>34.1</ele>
        <time>2022-04-05T09:05:27Z</time>
      </trkpt>
      <trkpt lat="44.88182" lon="0.34813">
        <ele>34.1</ele>
        <time>2022-04-05T09:05:29Z</time>
      </trkpt>
      <trkpt lat="44.88182" lon="0.34812">
        <ele>34.1</ele>
        <time>2022-04-05T09:05:30Z</time>
      </trkpt>
      <trkpt lat="44.88181" lon="0.34809">
        <ele>34.1</ele>
        <time>2022-04-05T09:05:31Z</time>
      </trkpt>
      <trkpt lat="44.88181" lon="0.34808">
        <ele>34.1</ele>
        <time>2022-04-05T09:05:33Z</time>
      </trkpt>
      <trkpt lat="44.8818" lon="0.34807">
        <ele>34.1</ele>
        <time>2022-04-05T09:05:34Z</time>
      </trkpt>
      <trkpt lat="44.8818" lon="0.34806">
        <ele>34</ele>
        <time>2022-04-05T09:05:35Z</time>
      </trkpt>
      <trkpt lat="44.8818" lon="0.34804">
        <ele>34</ele>
        <time>2022-04-05T09:05:36Z</time>
      </trkpt>
      <trkpt lat="44.88179" lon="0.34802">
        <ele>34</ele>
        <time>2022-04-05T09:05:38Z</time>
      </trkpt>
      <trkpt lat="44.88179" lon="0.348">
        <ele>34</ele>
        <time>2022-04-05T09:05:39Z</time>
      </trkpt>
      <trkpt lat="44.88179" lon="0.348">
        <ele>34</ele>
        <time>2022-04-05T09:05:40Z</time>
      </trkpt>
      <trkpt lat="44.88179" lon="0.348">
        <ele>34</ele>
        <time>2022-04-05T09:05:41Z</time>
      </trkpt>
      <trkpt lat="44.88179" lon="0.34801">
        <ele>34</ele>
        <time>2022-04-05T09:05:42Z</time>
      </trkpt>
      <trkpt lat="44.88179" lon="0.34802">
        <ele>34</ele>
        <time>2022-04-05T09:05:43Z</time>
      </trkpt>
      <trkpt lat="44.88179" lon="0.34802">
        <ele>34</ele>
        <time>2022-04-05T09:05:44Z</time>
      </trkpt>
      <trkpt lat="44.88179" lon="0.34803">
        <ele>34</ele>
        <time>2022-04-05T09:05:45Z</time>
      </trkpt>
      <trkpt lat="44.8818" lon="0.34803">
        <ele>34</ele>
        <time>2022-04-05T09:05:46Z</time>
      </trkpt>
      <trkpt lat="44.8818" lon="0.34803">
        <ele>34</ele>
        <time>2022-04-05T09:05:47Z</time>
      </trkpt>
      <trkpt lat="44.8818" lon="0.34803">
        <ele>34</ele>
        <time>2022-04-05T09:05:48Z</time>
      </trkpt>
      <trkpt lat="44.8818" lon="0.34804">
        <ele>34</ele>
        <time>2022-04-05T09:05:49Z</time>
      </trkpt>
      <trkpt lat="44.8818" lon="0.34804">
        <ele>34</ele>
        <time>2022-04-05T09:05:50Z</time>
      </trkpt>
      <trkpt lat="44.8818" lon="0.34804">
        <ele>34</ele>
        <time>2022-04-05T09:05:51Z</time>
      </trkpt>
      <trkpt lat="44.8818" lon="0.34804">
        <ele>34</ele>
        <time>2022-04-05T09:05:52Z</time>
      </trkpt>
      <trkpt lat="44.8818" lon="0.34804">
        <ele>34</ele>
        <time>2022-04-05T09:05:53Z</time>
      </trkpt>
      <trkpt lat="44.8818" lon="0.34804">
        <ele>34</ele>
        <time>2022-04-05T09:05:54Z</time>
      </trkpt>
      <trkpt lat="44.8818" lon="0.34804">
        <ele>34</ele>
        <time>2022-04-05T09:05:55Z</time>
      </trkpt>
      <trkpt lat="44.8818" lon="0.34804">
        <ele>34</ele>
        <time>2022-04-05T09:05:56Z</time>
      </trkpt>
      <trkpt lat="44.8818" lon="0.34804">
        <ele>34</ele>
        <time>2022-04-05T09:05:57Z</time>
      </trkpt>
      <trkpt lat="44.8818" lon="0.34804">
        <ele>34</ele>
        <time>2022-04-05T09:05:58Z</time>
      </trkpt>
      <trkpt lat="44.8818" lon="0.34804">
        <ele>34</ele>
        <time>2022-04-05T09:05:59Z</time>
      </trkpt>
      <trkpt lat="44.8818" lon="0.34804">
        <ele>34</ele>
        <time>2022-04-05T09:06:00Z</time>
      </trkpt>
      <trkpt lat="44.88181" lon="0.34804">
        <ele>34</ele>
        <time>2022-04-05T09:06:01Z</time>
      </trkpt>
      <trkpt lat="44.88181" lon="0.34804">
        <ele>34</ele>
        <time>2022-04-05T09:06:02Z</time>
      </trkpt>
      <trkpt lat="44.88181" lon="0.34804">
        <ele>34</ele>
        <time>2022-04-05T09:06:03Z</time>
      </trkpt>
      <trkpt lat="44.88181" lon="0.34804">
        <ele>34</ele>
        <time>2022-04-05T09:06:04Z</time>
      </trkpt>
      <trkpt lat="44.88181" lon="0.34804">
        <ele>34</ele>
        <time>2022-04-05T09:06:05Z</time>
      </trkpt>
      <trkpt lat="44.88181" lon="0.34804">
        <ele>34</ele>
        <time>2022-04-05T09:06:06Z</time>
      </trkpt>
      <trkpt lat="44.88181" lon="0.34804">
        <ele>34</ele>
        <time>2022-04-05T09:06:07Z</time>
      </trkpt>
      <trkpt lat="44.88181" lon="0.34804">
        <ele>34</ele>
        <time>2022-04-05T09:06:08Z</time>
      </trkpt>
      <trkpt lat="44.88181" lon="0.34804">
        <ele>34</ele>
        <time>2022-04-05T09:06:09Z</time>
      </trkpt>
      <trkpt lat="44.88181" lon="0.34804">
        <ele>34</ele>
        <time>2022-04-05T09:06:10Z</time>
      </trkpt>
      <trkpt lat="44.88181" lon="0.34804">
        <ele>34</ele>
        <time>2022-04-05T09:06:11Z</time>
      </trkpt>
      <trkpt lat="44.8818" lon="0.34804">
        <ele>33.9</ele>
        <time>2022-04-05T09:06:12Z</time>
      </trkpt>
      <trkpt lat="44.8818" lon="0.34804">
        <ele>33.9</ele>
        <time>2022-04-05T09:06:13Z</time>
      </trkpt>
      <trkpt lat="44.8818" lon="0.34803">
        <ele>33.9</ele>
        <time>2022-04-05T09:06:14Z</time>
      </trkpt>
      <trkpt lat="44.88179" lon="0.34802">
        <ele>33.9</ele>
        <time>2022-04-05T09:06:15Z</time>
      </trkpt>
      <trkpt lat="44.88179" lon="0.348">
        <ele>33.9</ele>
        <time>2022-04-05T09:06:16Z</time>
      </trkpt>
      <trkpt lat="44.88178" lon="0.34798">
        <ele>33.9</ele>
        <time>2022-04-05T09:06:17Z</time>
      </trkpt>
      <trkpt lat="44.88178" lon="0.34796">
        <ele>33.9</ele>
        <time>2022-04-05T09:06:18Z</time>
      </trkpt>
      <trkpt lat="44.88177" lon="0.34795">
        <ele>33.9</ele>
        <time>2022-04-05T09:06:19Z</time>
      </trkpt>
      <trkpt lat="44.88177" lon="0.34794">
        <ele>33.9</ele>
        <time>2022-04-05T09:06:20Z</time>
      </trkpt>
      <trkpt lat="44.88176" lon="0.34792">
        <ele>33.8</ele>
        <time>2022-04-05T09:06:21Z</time>
      </trkpt>
      <trkpt lat="44.88175" lon="0.34791">
        <ele>33.8</ele>
        <time>2022-04-05T09:06:22Z</time>
      </trkpt>
      <trkpt lat="44.88175" lon="0.34789">
        <ele>33.8</ele>
        <time>2022-04-05T09:06:23Z</time>
      </trkpt>
      <trkpt lat="44.88174" lon="0.34787">
        <ele>33.8</ele>
        <time>2022-04-05T09:06:25Z</time>
      </trkpt>
      <trkpt lat="44.88173" lon="0.34786">
        <ele>33.8</ele>
        <time>2022-04-05T09:06:26Z</time>
      </trkpt>
      <trkpt lat="44.88172" lon="0.34784">
        <ele>33.8</ele>
        <time>2022-04-05T09:06:27Z</time>
      </trkpt>
      <trkpt lat="44.88172" lon="0.34782">
        <ele>33.8</ele>
        <time>2022-04-05T09:06:28Z</time>
      </trkpt>
      <trkpt lat="44.88171" lon="0.3478">
        <ele>33.7</ele>
        <time>2022-04-05T09:06:29Z</time>
      </trkpt>
      <trkpt lat="44.8817" lon="0.34779">
        <ele>33.7</ele>
        <time>2022-04-05T09:06:30Z</time>
      </trkpt>
      <trkpt lat="44.8817" lon="0.34778">
        <ele>33.7</ele>
        <time>2022-04-05T09:06:31Z</time>
      </trkpt>
      <trkpt lat="44.88168" lon="0.34775">
        <ele>33.7</ele>
        <time>2022-04-05T09:06:32Z</time>
      </trkpt>
      <trkpt lat="44.88168" lon="0.34773">
        <ele>33.7</ele>
        <time>2022-04-05T09:06:33Z</time>
      </trkpt>
      <trkpt lat="44.88167" lon="0.34772">
        <ele>33.7</ele>
        <time>2022-04-05T09:06:35Z</time>
      </trkpt>
      <trkpt lat="44.88166" lon="0.3477">
        <ele>33.7</ele>
        <time>2022-04-05T09:06:36Z</time>
      </trkpt>
      <trkpt lat="44.88166" lon="0.34769">
        <ele>33.7</ele>
        <time>2022-04-05T09:06:37Z</time>
      </trkpt>
      <trkpt lat="44.88165" lon="0.34768">
        <ele>33.7</ele>
        <time>2022-04-05T09:06:38Z</time>
      </trkpt>
      <trkpt lat="44.88165" lon="0.34766">
        <ele>33.6</ele>
        <time>2022-04-05T09:06:39Z</time>
      </trkpt>
      <trkpt lat="44.88164" lon="0.34765">
        <ele>33.6</ele>
        <time>2022-04-05T09:06:40Z</time>
      </trkpt>
      <trkpt lat="44.88164" lon="0.34763">
        <ele>33.6</ele>
        <time>2022-04-05T09:06:41Z</time>
      </trkpt>
      <trkpt lat="44.88163" lon="0.3476">
        <ele>33.6</ele>
        <time>2022-04-05T09:06:42Z</time>
      </trkpt>
      <trkpt lat="44.88162" lon="0.34759">
        <ele>33.6</ele>
        <time>2022-04-05T09:06:44Z</time>
      </trkpt>
      <trkpt lat="44.88161" lon="0.34757">
        <ele>33.6</ele>
        <time>2022-04-05T09:06:45Z</time>
      </trkpt>
      <trkpt lat="44.8816" lon="0.34753">
        <ele>33.6</ele>
        <time>2022-04-05T09:06:46Z</time>
      </trkpt>
      <trkpt lat="44.88159" lon="0.34752">
        <ele>33.6</ele>
        <time>2022-04-05T09:06:47Z</time>
      </trkpt>
      <trkpt lat="44.88159" lon="0.34752">
        <ele>33.6</ele>
        <time>2022-04-05T09:06:48Z</time>
      </trkpt>
      <trkpt lat="44.88158" lon="0.3475">
        <ele>33.6</ele>
        <time>2022-04-05T09:06:49Z</time>
      </trkpt>
      <trkpt lat="44.88157" lon="0.34749">
        <ele>33.6</ele>
        <time>2022-04-05T09:06:50Z</time>
      </trkpt>
      <trkpt lat="44.88157" lon="0.34747">
        <ele>33.5</ele>
        <time>2022-04-05T09:06:51Z</time>
      </trkpt>
      <trkpt lat="44.88155" lon="0.34744">
        <ele>33.5</ele>
        <time>2022-04-05T09:06:52Z</time>
      </trkpt>
      <trkpt lat="44.88155" lon="0.34744">
        <ele>33.5</ele>
        <time>2022-04-05T09:06:53Z</time>
      </trkpt>
      <trkpt lat="44.88154" lon="0.34742">
        <ele>33.5</ele>
        <time>2022-04-05T09:06:54Z</time>
      </trkpt>
      <trkpt lat="44.88154" lon="0.3474">
        <ele>33.5</ele>
        <time>2022-04-05T09:06:55Z</time>
      </trkpt>
      <trkpt lat="44.88153" lon="0.34738">
        <ele>33.5</ele>
        <time>2022-04-05T09:06:56Z</time>
      </trkpt>
      <trkpt lat="44.88152" lon="0.34736">
        <ele>33.5</ele>
        <time>2022-04-05T09:06:58Z</time>
      </trkpt>
      <trkpt lat="44.88152" lon="0.34734">
        <ele>33.5</ele>
        <time>2022-04-05T09:06:59Z</time>
      </trkpt>
      <trkpt lat="44.88151" lon="0.34733">
        <ele>33.5</ele>
        <time>2022-04-05T09:07:00Z</time>
      </trkpt>
      <trkpt lat="44.8815" lon="0.34731">
        <ele>33.5</ele>
        <time>2022-04-05T09:07:01Z</time>
      </trkpt>
      <trkpt lat="44.8815" lon="0.34729">
        <ele>33.5</ele>
        <time>2022-04-05T09:07:02Z</time>
      </trkpt>
      <trkpt lat="44.88149" lon="0.34727">
        <ele>33.5</ele>
        <time>2022-04-05T09:07:03Z</time>
      </trkpt>
      <trkpt lat="44.88149" lon="0.34726">
        <ele>33.5</ele>
        <time>2022-04-05T09:07:04Z</time>
      </trkpt>
      <trkpt lat="44.88148" lon="0.34725">
        <ele>33.5</ele>
        <time>2022-04-05T09:07:05Z</time>
      </trkpt>
      <trkpt lat="44.88147" lon="0.34723">
        <ele>33.5</ele>
        <time>2022-04-05T09:07:06Z</time>
      </trkpt>
      <trkpt lat="44.88146" lon="0.3472">
        <ele>33.5</ele>
        <time>2022-04-05T09:07:07Z</time>
      </trkpt>
      <trkpt lat="44.88146" lon="0.34719">
        <ele>33.5</ele>
        <time>2022-04-05T09:07:08Z</time>
      </trkpt>
      <trkpt lat="44.88145" lon="0.34717">
        <ele>33.5</ele>
        <time>2022-04-05T09:07:09Z</time>
      </trkpt>
      <trkpt lat="44.88145" lon="0.34715">
        <ele>33.5</ele>
        <time>2022-04-05T09:07:10Z</time>
      </trkpt>
      <trkpt lat="44.88143" lon="0.3471">
        <ele>33.5</ele>
        <time>2022-04-05T09:07:12Z</time>
      </trkpt>
      <trkpt lat="44.88143" lon="0.34709">
        <ele>33.5</ele>
        <time>2022-04-05T09:07:13Z</time>
      </trkpt>
      <trkpt lat="44.88143" lon="0.34708">
        <ele>33.5</ele>
        <time>2022-04-05T09:07:14Z</time>
      </trkpt>
      <trkpt lat="44.88142" lon="0.34707">
        <ele>33.5</ele>
        <time>2022-04-05T09:07:15Z</time>
      </trkpt>
      <trkpt lat="44.8814" lon="0.34704">
        <ele>33.5</ele>
        <time>2022-04-05T09:07:16Z</time>
      </trkpt>
      <trkpt lat="44.88139" lon="0.34703">
        <ele>33.5</ele>
        <time>2022-04-05T09:07:17Z</time>
      </trkpt>
      <trkpt lat="44.88139" lon="0.34701">
        <ele>33.5</ele>
        <time>2022-04-05T09:07:18Z</time>
      </trkpt>
      <trkpt lat="44.88138" lon="0.347">
        <ele>33.5</ele>
        <time>2022-04-05T09:07:19Z</time>
      </trkpt>
      <trkpt lat="44.88138" lon="0.34698">
        <ele>33.4</ele>
        <time>2022-04-05T09:07:21Z</time>
      </trkpt>
      <trkpt lat="44.88138" lon="0.34696">
        <ele>33.4</ele>
        <time>2022-04-05T09:07:22Z</time>
      </trkpt>
      <trkpt lat="44.88138" lon="0.34694">
        <ele>33.4</ele>
        <time>2022-04-05T09:07:23Z</time>
      </trkpt>
      <trkpt lat="44.88138" lon="0.34693">
        <ele>33.4</ele>
        <time>2022-04-05T09:07:24Z</time>
      </trkpt>
      <trkpt lat="44.88138" lon="0.34691">
        <ele>33.4</ele>
        <time>2022-04-05T09:07:25Z</time>
      </trkpt>
      <trkpt lat="44.88138" lon="0.34689">
        <ele>33.4</ele>
        <time>2022-04-05T09:07:26Z</time>
      </trkpt>
      <trkpt lat="44.88138" lon="0.34687">
        <ele>33.4</ele>
        <time>2022-04-05T09:07:27Z</time>
      </trkpt>
      <trkpt lat="44.88138" lon="0.34686">
        <ele>33.4</ele>
        <time>2022-04-05T09:07:28Z</time>
      </trkpt>
      <trkpt lat="44.88137" lon="0.34684">
        <ele>33.4</ele>
        <time>2022-04-05T09:07:30Z</time>
      </trkpt>
      <trkpt lat="44.88137" lon="0.34682">
        <ele>33.4</ele>
        <time>2022-04-05T09:07:31Z</time>
      </trkpt>
      <trkpt lat="44.88137" lon="0.34679">
        <ele>33.4</ele>
        <time>2022-04-05T09:07:33Z</time>
      </trkpt>
      <trkpt lat="44.88137" lon="0.34677">
        <ele>33.4</ele>
        <time>2022-04-05T09:07:34Z</time>
      </trkpt>
      <trkpt lat="44.88136" lon="0.34675">
        <ele>33.4</ele>
        <time>2022-04-05T09:07:35Z</time>
      </trkpt>
      <trkpt lat="44.88136" lon="0.34674">
        <ele>33.4</ele>
        <time>2022-04-05T09:07:36Z</time>
      </trkpt>
      <trkpt lat="44.88136" lon="0.34671">
        <ele>33.4</ele>
        <time>2022-04-05T09:07:37Z</time>
      </trkpt>
      <trkpt lat="44.88135" lon="0.3467">
        <ele>33.4</ele>
        <time>2022-04-05T09:07:38Z</time>
      </trkpt>
      <trkpt lat="44.88135" lon="0.34669">
        <ele>33.4</ele>
        <time>2022-04-05T09:07:39Z</time>
      </trkpt>
      <trkpt lat="44.88134" lon="0.34667">
        <ele>33.4</ele>
        <time>2022-04-05T09:07:40Z</time>
      </trkpt>
      <trkpt lat="44.88133" lon="0.34666">
        <ele>33.3</ele>
        <time>2022-04-05T09:07:41Z</time>
      </trkpt>
      <trkpt lat="44.88132" lon="0.34662">
        <ele>33.3</ele>
        <time>2022-04-05T09:07:42Z</time>
      </trkpt>
      <trkpt lat="44.88132" lon="0.34661">
        <ele>33.3</ele>
        <time>2022-04-05T09:07:43Z</time>
      </trkpt>
      <trkpt lat="44.88132" lon="0.3466">
        <ele>33.3</ele>
        <time>2022-04-05T09:07:44Z</time>
      </trkpt>
      <trkpt lat="44.88131" lon="0.34659">
        <ele>33.3</ele>
        <time>2022-04-05T09:07:45Z</time>
      </trkpt>
      <trkpt lat="44.8813" lon="0.34657">
        <ele>33.3</ele>
        <time>2022-04-05T09:07:46Z</time>
      </trkpt>
      <trkpt lat="44.88129" lon="0.34654">
        <ele>33.3</ele>
        <time>2022-04-05T09:07:47Z</time>
      </trkpt>
      <trkpt lat="44.88129" lon="0.34654">
        <ele>33.3</ele>
        <time>2022-04-05T09:07:48Z</time>
      </trkpt>
      <trkpt lat="44.88128" lon="0.34652">
        <ele>33.3</ele>
        <time>2022-04-05T09:07:50Z</time>
      </trkpt>
      <trkpt lat="44.88128" lon="0.3465">
        <ele>33.3</ele>
        <time>2022-04-05T09:07:51Z</time>
      </trkpt>
      <trkpt lat="44.88127" lon="0.34648">
        <ele>33.3</ele>
        <time>2022-04-05T09:07:52Z</time>
      </trkpt>
      <trkpt lat="44.88126" lon="0.34645">
        <ele>33.3</ele>
        <time>2022-04-05T09:07:53Z</time>
      </trkpt>
      <trkpt lat="44.88126" lon="0.34643">
        <ele>33.3</ele>
        <time>2022-04-05T09:07:54Z</time>
      </trkpt>
      <trkpt lat="44.88126" lon="0.34642">
        <ele>33.3</ele>
        <time>2022-04-05T09:07:55Z</time>
      </trkpt>
      <trkpt lat="44.88125" lon="0.34641">
        <ele>33.3</ele>
        <time>2022-04-05T09:07:56Z</time>
      </trkpt>
      <trkpt lat="44.88124" lon="0.34638">
        <ele>33.3</ele>
        <time>2022-04-05T09:07:57Z</time>
      </trkpt>
      <trkpt lat="44.88124" lon="0.34637">
        <ele>33.3</ele>
        <time>2022-04-05T09:07:58Z</time>
      </trkpt>
      <trkpt lat="44.88123" lon="0.34634">
        <ele>33.3</ele>
        <time>2022-04-05T09:07:59Z</time>
      </trkpt>
      <trkpt lat="44.88123" lon="0.34633">
        <ele>33.3</ele>
        <time>2022-04-05T09:08:00Z</time>
      </trkpt>
      <trkpt lat="44.88123" lon="0.34632">
        <ele>33.3</ele>
        <time>2022-04-05T09:08:01Z</time>
      </trkpt>
      <trkpt lat="44.88122" lon="0.34629">
        <ele>33.3</ele>
        <time>2022-04-05T09:08:02Z</time>
      </trkpt>
      <trkpt lat="44.88122" lon="0.34628">
        <ele>33.3</ele>
        <time>2022-04-05T09:08:04Z</time>
      </trkpt>
      <trkpt lat="44.88121" lon="0.34626">
        <ele>33.3</ele>
        <time>2022-04-05T09:08:05Z</time>
      </trkpt>
      <trkpt lat="44.88121" lon="0.34625">
        <ele>33.3</ele>
        <time>2022-04-05T09:08:06Z</time>
      </trkpt>
      <trkpt lat="44.8812" lon="0.34622">
        <ele>33.3</ele>
        <time>2022-04-05T09:08:08Z</time>
      </trkpt>
      <trkpt lat="44.88119" lon="0.34621">
        <ele>33.3</ele>
        <time>2022-04-05T09:08:09Z</time>
      </trkpt>
      <trkpt lat="44.88119" lon="0.3462">
        <ele>33.3</ele>
        <time>2022-04-05T09:08:10Z</time>
      </trkpt>
      <trkpt lat="44.88118" lon="0.34618">
        <ele>33.3</ele>
        <time>2022-04-05T09:08:11Z</time>
      </trkpt>
      <trkpt lat="44.88118" lon="0.34617">
        <ele>33.3</ele>
        <time>2022-04-05T09:08:12Z</time>
      </trkpt>
      <trkpt lat="44.88117" lon="0.34615">
        <ele>33.3</ele>
        <time>2022-04-05T09:08:13Z</time>
      </trkpt>
      <trkpt lat="44.88117" lon="0.34615">
        <ele>33.3</ele>
        <time>2022-04-05T09:08:14Z</time>
      </trkpt>
      <trkpt lat="44.88116" lon="0.34614">
        <ele>33.3</ele>
        <time>2022-04-05T09:08:15Z</time>
      </trkpt>
      <trkpt lat="44.88116" lon="0.34612">
        <ele>33.3</ele>
        <time>2022-04-05T09:08:16Z</time>
      </trkpt>
      <trkpt lat="44.88115" lon="0.3461">
        <ele>33.3</ele>
        <time>2022-04-05T09:08:18Z</time>
      </trkpt>
      <trkpt lat="44.88114" lon="0.34609">
        <ele>33.3</ele>
        <time>2022-04-05T09:08:19Z</time>
      </trkpt>
      <trkpt lat="44.88114" lon="0.34609">
        <ele>33.3</ele>
        <time>2022-04-05T09:08:20Z</time>
      </trkpt>
      <trkpt lat="44.88113" lon="0.34607">
        <ele>33.3</ele>
        <time>2022-04-05T09:08:21Z</time>
      </trkpt>
      <trkpt lat="44.88113" lon="0.34606">
        <ele>33.3</ele>
        <time>2022-04-05T09:08:22Z</time>
      </trkpt>
      <trkpt lat="44.88112" lon="0.34603">
        <ele>33.3</ele>
        <time>2022-04-05T09:08:23Z</time>
      </trkpt>
      <trkpt lat="44.88112" lon="0.34602">
        <ele>33.3</ele>
        <time>2022-04-05T09:08:24Z</time>
      </trkpt>
      <trkpt lat="44.88111" lon="0.34601">
        <ele>33.3</ele>
        <time>2022-04-05T09:08:25Z</time>
      </trkpt>
      <trkpt lat="44.8811" lon="0.34598">
        <ele>33.4</ele>
        <time>2022-04-05T09:08:26Z</time>
      </trkpt>
      <trkpt lat="44.8811" lon="0.34597">
        <ele>33.4</ele>
        <time>2022-04-05T09:08:27Z</time>
      </trkpt>
      <trkpt lat="44.8811" lon="0.34596">
        <ele>33.4</ele>
        <time>2022-04-05T09:08:28Z</time>
      </trkpt>
      <trkpt lat="44.88109" lon="0.34594">
        <ele>33.4</ele>
        <time>2022-04-05T09:08:29Z</time>
      </trkpt>
      <trkpt lat="44.88108" lon="0.34593">
        <ele>33.4</ele>
        <time>2022-04-05T09:08:30Z</time>
      </trkpt>
      <trkpt lat="44.88108" lon="0.34592">
        <ele>33.4</ele>
        <time>2022-04-05T09:08:31Z</time>
      </trkpt>
      <trkpt lat="44.88107" lon="0.34589">
        <ele>33.4</ele>
        <time>2022-04-05T09:08:32Z</time>
      </trkpt>
      <trkpt lat="44.88106" lon="0.34588">
        <ele>33.4</ele>
        <time>2022-04-05T09:08:33Z</time>
      </trkpt>
      <trkpt lat="44.88106" lon="0.34587">
        <ele>33.4</ele>
        <time>2022-04-05T09:08:34Z</time>
      </trkpt>
      <trkpt lat="44.88104" lon="0.34585">
        <ele>33.4</ele>
        <time>2022-04-05T09:08:35Z</time>
      </trkpt>
      <trkpt lat="44.88104" lon="0.34584">
        <ele>33.5</ele>
        <time>2022-04-05T09:08:36Z</time>
      </trkpt>
      <trkpt lat="44.88103" lon="0.34583">
        <ele>33.5</ele>
        <time>2022-04-05T09:08:37Z</time>
      </trkpt>
      <trkpt lat="44.88102" lon="0.34581">
        <ele>33.5</ele>
        <time>2022-04-05T09:08:38Z</time>
      </trkpt>
      <trkpt lat="44.88101" lon="0.3458">
        <ele>33.5</ele>
        <time>2022-04-05T09:08:39Z</time>
      </trkpt>
      <trkpt lat="44.881" lon="0.34578">
        <ele>33.5</ele>
        <time>2022-04-05T09:08:40Z</time>
      </trkpt>
      <trkpt lat="44.88099" lon="0.34577">
        <ele>33.5</ele>
        <time>2022-04-05T09:08:41Z</time>
      </trkpt>
      <trkpt lat="44.88099" lon="0.34577">
        <ele>33.5</ele>
        <time>2022-04-05T09:08:42Z</time>
      </trkpt>
      <trkpt lat="44.88098" lon="0.34574">
        <ele>33.5</ele>
        <time>2022-04-05T09:08:43Z</time>
      </trkpt>
      <trkpt lat="44.88097" lon="0.34573">
        <ele>33.5</ele>
        <time>2022-04-05T09:08:45Z</time>
      </trkpt>
      <trkpt lat="44.88096" lon="0.34571">
        <ele>33.5</ele>
        <time>2022-04-05T09:08:46Z</time>
      </trkpt>
      <trkpt lat="44.88096" lon="0.3457">
        <ele>33.6</ele>
        <time>2022-04-05T09:08:47Z</time>
      </trkpt>
      <trkpt lat="44.88094" lon="0.34568">
        <ele>33.6</ele>
        <time>2022-04-05T09:08:48Z</time>
      </trkpt>
      <trkpt lat="44.88094" lon="0.34567">
        <ele>33.6</ele>
        <time>2022-04-05T09:08:49Z</time>
      </trkpt>
      <trkpt lat="44.88093" lon="0.34566">
        <ele>33.6</ele>
        <time>2022-04-05T09:08:50Z</time>
      </trkpt>
      <trkpt lat="44.88092" lon="0.34564">
        <ele>33.6</ele>
        <time>2022-04-05T09:08:52Z</time>
      </trkpt>
      <trkpt lat="44.8809" lon="0.34562">
        <ele>33.6</ele>
        <time>2022-04-05T09:08:53Z</time>
      </trkpt>
      <trkpt lat="44.8809" lon="0.3456">
        <ele>33.6</ele>
        <time>2022-04-05T09:08:54Z</time>
      </trkpt>
      <trkpt lat="44.88089" lon="0.34559">
        <ele>33.6</ele>
        <time>2022-04-05T09:08:55Z</time>
      </trkpt>
      <trkpt lat="44.88088" lon="0.34558">
        <ele>33.6</ele>
        <time>2022-04-05T09:08:56Z</time>
      </trkpt>
      <trkpt lat="44.88087" lon="0.34557">
        <ele>33.6</ele>
        <time>2022-04-05T09:08:57Z</time>
      </trkpt>
      <trkpt lat="44.88085" lon="0.34555">
        <ele>33.6</ele>
        <time>2022-04-05T09:08:58Z</time>
      </trkpt>
      <trkpt lat="44.88084" lon="0.34554">
        <ele>33.6</ele>
        <time>2022-04-05T09:08:59Z</time>
      </trkpt>
      <trkpt lat="44.88083" lon="0.34553">
        <ele>33.6</ele>
        <time>2022-04-05T09:09:00Z</time>
      </trkpt>
      <trkpt lat="44.88082" lon="0.34552">
        <ele>33.6</ele>
        <time>2022-04-05T09:09:02Z</time>
      </trkpt>
      <trkpt lat="44.8808" lon="0.3455">
        <ele>33.6</ele>
        <time>2022-04-05T09:09:03Z</time>
      </trkpt>
      <trkpt lat="44.88079" lon="0.34549">
        <ele>33.6</ele>
        <time>2022-04-05T09:09:04Z</time>
      </trkpt>
      <trkpt lat="44.88079" lon="0.34549">
        <ele>33.6</ele>
        <time>2022-04-05T09:09:05Z</time>
      </trkpt>
      <trkpt lat="44.88077" lon="0.34547">
        <ele>33.6</ele>
        <time>2022-04-05T09:09:06Z</time>
      </trkpt>
      <trkpt lat="44.88076" lon="0.34546">
        <ele>33.6</ele>
        <time>2022-04-05T09:09:07Z</time>
      </trkpt>
      <trkpt lat="44.88075" lon="0.34545">
        <ele>33.6</ele>
        <time>2022-04-05T09:09:08Z</time>
      </trkpt>
      <trkpt lat="44.88074" lon="0.34544">
        <ele>33.6</ele>
        <time>2022-04-05T09:09:09Z</time>
      </trkpt>
      <trkpt lat="44.88073" lon="0.34544">
        <ele>33.6</ele>
        <time>2022-04-05T09:09:10Z</time>
      </trkpt>
      <trkpt lat="44.88072" lon="0.34543">
        <ele>33.6</ele>
        <time>2022-04-05T09:09:11Z</time>
      </trkpt>
      <trkpt lat="44.8807" lon="0.34541">
        <ele>33.6</ele>
        <time>2022-04-05T09:09:13Z</time>
      </trkpt>
      <trkpt lat="44.8807" lon="0.3454">
        <ele>33.6</ele>
        <time>2022-04-05T09:09:14Z</time>
      </trkpt>
      <trkpt lat="44.88068" lon="0.34538">
        <ele>33.6</ele>
        <time>2022-04-05T09:09:15Z</time>
      </trkpt>
      <trkpt lat="44.88068" lon="0.34537">
        <ele>33.6</ele>
        <time>2022-04-05T09:09:16Z</time>
      </trkpt>
      <trkpt lat="44.88067" lon="0.34537">
        <ele>33.6</ele>
        <time>2022-04-05T09:09:17Z</time>
      </trkpt>
      <trkpt lat="44.88066" lon="0.34535">
        <ele>33.6</ele>
        <time>2022-04-05T09:09:18Z</time>
      </trkpt>
      <trkpt lat="44.88066" lon="0.34534">
        <ele>33.6</ele>
        <time>2022-04-05T09:09:19Z</time>
      </trkpt>
      <trkpt lat="44.88065" lon="0.34533">
        <ele>33.6</ele>
        <time>2022-04-05T09:09:20Z</time>
      </trkpt>
      <trkpt lat="44.88063" lon="0.34531">
        <ele>33.6</ele>
        <time>2022-04-05T09:09:21Z</time>
      </trkpt>
      <trkpt lat="44.88062" lon="0.3453">
        <ele>33.6</ele>
        <time>2022-04-05T09:09:22Z</time>
      </trkpt>
      <trkpt lat="44.88061" lon="0.34529">
        <ele>33.5</ele>
        <time>2022-04-05T09:09:23Z</time>
      </trkpt>
      <trkpt lat="44.88061" lon="0.34528">
        <ele>33.5</ele>
        <time>2022-04-05T09:09:24Z</time>
      </trkpt>
      <trkpt lat="44.8806" lon="0.34527">
        <ele>33.5</ele>
        <time>2022-04-05T09:09:25Z</time>
      </trkpt>
      <trkpt lat="44.88059" lon="0.34526">
        <ele>33.5</ele>
        <time>2022-04-05T09:09:26Z</time>
      </trkpt>
      <trkpt lat="44.88056" lon="0.34522">
        <ele>33.5</ele>
        <time>2022-04-05T09:09:28Z</time>
      </trkpt>
      <trkpt lat="44.88055" lon="0.34521">
        <ele>33.5</ele>
        <time>2022-04-05T09:09:29Z</time>
      </trkpt>
      <trkpt lat="44.88054" lon="0.3452">
        <ele>33.5</ele>
        <time>2022-04-05T09:09:30Z</time>
      </trkpt>
      <trkpt lat="44.88054" lon="0.34519">
        <ele>33.5</ele>
        <time>2022-04-05T09:09:31Z</time>
      </trkpt>
      <trkpt lat="44.88053" lon="0.34518">
        <ele>33.5</ele>
        <time>2022-04-05T09:09:32Z</time>
      </trkpt>
      <trkpt lat="44.88051" lon="0.34516">
        <ele>33.5</ele>
        <time>2022-04-05T09:09:33Z</time>
      </trkpt>
      <trkpt lat="44.8805" lon="0.34514">
        <ele>33.5</ele>
        <time>2022-04-05T09:09:34Z</time>
      </trkpt>
      <trkpt lat="44.8805" lon="0.34513">
        <ele>33.5</ele>
        <time>2022-04-05T09:09:35Z</time>
      </trkpt>
      <trkpt lat="44.88049" lon="0.34512">
        <ele>33.5</ele>
        <time>2022-04-05T09:09:36Z</time>
      </trkpt>
      <trkpt lat="44.88047" lon="0.34509">
        <ele>33.5</ele>
        <time>2022-04-05T09:09:38Z</time>
      </trkpt>
      <trkpt lat="44.88047" lon="0.34508">
        <ele>33.5</ele>
        <time>2022-04-05T09:09:39Z</time>
      </trkpt>
      <trkpt lat="44.88046" lon="0.34506">
        <ele>33.5</ele>
        <time>2022-04-05T09:09:40Z</time>
      </trkpt>
      <trkpt lat="44.88045" lon="0.34504">
        <ele>33.5</ele>
        <time>2022-04-05T09:09:41Z</time>
      </trkpt>
      <trkpt lat="44.88044" lon="0.34501">
        <ele>33.4</ele>
        <time>2022-04-05T09:09:42Z</time>
      </trkpt>
      <trkpt lat="44.88043" lon="0.345">
        <ele>33.4</ele>
        <time>2022-04-05T09:09:43Z</time>
      </trkpt>
      <trkpt lat="44.88043" lon="0.34499">
        <ele>33.4</ele>
        <time>2022-04-05T09:09:44Z</time>
      </trkpt>
      <trkpt lat="44.88043" lon="0.34498">
        <ele>33.4</ele>
        <time>2022-04-05T09:09:45Z</time>
      </trkpt>
      <trkpt lat="44.88042" lon="0.34496">
        <ele>33.4</ele>
        <time>2022-04-05T09:09:46Z</time>
      </trkpt>
      <trkpt lat="44.8804" lon="0.34493">
        <ele>33.4</ele>
        <time>2022-04-05T09:09:47Z</time>
      </trkpt>
      <trkpt lat="44.8804" lon="0.34492">
        <ele>33.4</ele>
        <time>2022-04-05T09:09:48Z</time>
      </trkpt>
      <trkpt lat="44.88039" lon="0.34491">
        <ele>33.4</ele>
        <time>2022-04-05T09:09:49Z</time>
      </trkpt>
      <trkpt lat="44.88038" lon="0.34489">
        <ele>33.4</ele>
        <time>2022-04-05T09:09:50Z</time>
      </trkpt>
      <trkpt lat="44.88038" lon="0.34488">
        <ele>33.4</ele>
        <time>2022-04-05T09:09:51Z</time>
      </trkpt>
      <trkpt lat="44.88037" lon="0.34484">
        <ele>33.4</ele>
        <time>2022-04-05T09:09:52Z</time>
      </trkpt>
      <trkpt lat="44.88037" lon="0.34483">
        <ele>33.4</ele>
        <time>2022-04-05T09:09:54Z</time>
      </trkpt>
      <trkpt lat="44.88036" lon="0.34481">
        <ele>33.4</ele>
        <time>2022-04-05T09:09:55Z</time>
      </trkpt>
      <trkpt lat="44.88036" lon="0.3448">
        <ele>33.4</ele>
        <time>2022-04-05T09:09:56Z</time>
      </trkpt>
      <trkpt lat="44.88036" lon="0.34478">
        <ele>33.3</ele>
        <time>2022-04-05T09:09:57Z</time>
      </trkpt>
      <trkpt lat="44.88035" lon="0.34475">
        <ele>33.3</ele>
        <time>2022-04-05T09:09:58Z</time>
      </trkpt>
      <trkpt lat="44.88035" lon="0.34475">
        <ele>33.3</ele>
        <time>2022-04-05T09:09:59Z</time>
      </trkpt>
      <trkpt lat="44.88035" lon="0.34473">
        <ele>33.3</ele>
        <time>2022-04-05T09:10:00Z</time>
      </trkpt>
      <trkpt lat="44.88035" lon="0.34471">
        <ele>33.3</ele>
        <time>2022-04-05T09:10:01Z</time>
      </trkpt>
      <trkpt lat="44.88034" lon="0.34467">
        <ele>33.3</ele>
        <time>2022-04-05T09:10:02Z</time>
      </trkpt>
      <trkpt lat="44.88034" lon="0.34465">
        <ele>33.3</ele>
        <time>2022-04-05T09:10:03Z</time>
      </trkpt>
      <trkpt lat="44.88034" lon="0.34462">
        <ele>33.2</ele>
        <time>2022-04-05T09:10:04Z</time>
      </trkpt>
      <trkpt lat="44.88034" lon="0.34461">
        <ele>33.2</ele>
        <time>2022-04-05T09:10:05Z</time>
      </trkpt>
      <trkpt lat="44.88035" lon="0.34459">
        <ele>33.2</ele>
        <time>2022-04-05T09:10:06Z</time>
      </trkpt>
      <trkpt lat="44.88035" lon="0.34455">
        <ele>33.2</ele>
        <time>2022-04-05T09:10:08Z</time>
      </trkpt>
      <trkpt lat="44.88035" lon="0.34454">
        <ele>33.2</ele>
        <time>2022-04-05T09:10:09Z</time>
      </trkpt>
      <trkpt lat="44.88035" lon="0.34452">
        <ele>33.2</ele>
        <time>2022-04-05T09:10:10Z</time>
      </trkpt>
      <trkpt lat="44.88035" lon="0.34451">
        <ele>33.2</ele>
        <time>2022-04-05T09:10:11Z</time>
      </trkpt>
      <trkpt lat="44.88035" lon="0.34449">
        <ele>33.2</ele>
        <time>2022-04-05T09:10:12Z</time>
      </trkpt>
      <trkpt lat="44.88035" lon="0.34447">
        <ele>33.1</ele>
        <time>2022-04-05T09:10:13Z</time>
      </trkpt>
      <trkpt lat="44.88035" lon="0.34445">
        <ele>33.1</ele>
        <time>2022-04-05T09:10:14Z</time>
      </trkpt>
      <trkpt lat="44.88035" lon="0.34443">
        <ele>33.1</ele>
        <time>2022-04-05T09:10:15Z</time>
      </trkpt>
      <trkpt lat="44.88035" lon="0.34442">
        <ele>33.1</ele>
        <time>2022-04-05T09:10:16Z</time>
      </trkpt>
      <trkpt lat="44.88035" lon="0.3444">
        <ele>33.1</ele>
        <time>2022-04-05T09:10:17Z</time>
      </trkpt>
      <trkpt lat="44.88035" lon="0.34438">
        <ele>33.1</ele>
        <time>2022-04-05T09:10:18Z</time>
      </trkpt>
      <trkpt lat="44.88035" lon="0.34436">
        <ele>33.1</ele>
        <time>2022-04-05T09:10:19Z</time>
      </trkpt>
      <trkpt lat="44.88035" lon="0.34435">
        <ele>33.1</ele>
        <time>2022-04-05T09:10:20Z</time>
      </trkpt>
      <trkpt lat="44.88035" lon="0.34433">
        <ele>33.1</ele>
        <time>2022-04-05T09:10:21Z</time>
      </trkpt>
      <trkpt lat="44.88035" lon="0.34429">
        <ele>33.1</ele>
        <time>2022-04-05T09:10:22Z</time>
      </trkpt>
      <trkpt lat="44.88035" lon="0.34428">
        <ele>33.1</ele>
        <time>2022-04-05T09:10:24Z</time>
      </trkpt>
      <trkpt lat="44.88035" lon="0.34426">
        <ele>33.1</ele>
        <time>2022-04-05T09:10:25Z</time>
      </trkpt>
      <trkpt lat="44.88036" lon="0.34425">
        <ele>33.1</ele>
        <time>2022-04-05T09:10:26Z</time>
      </trkpt>
      <trkpt lat="44.88036" lon="0.34423">
        <ele>33.1</ele>
        <time>2022-04-05T09:10:27Z</time>
      </trkpt>
      <trkpt lat="44.88036" lon="0.34419">
        <ele>33.1</ele>
        <time>2022-04-05T09:10:28Z</time>
      </trkpt>
      <trkpt lat="44.88036" lon="0.34418">
        <ele>33.1</ele>
        <time>2022-04-05T09:10:29Z</time>
      </trkpt>
      <trkpt lat="44.88036" lon="0.34417">
        <ele>33.1</ele>
        <time>2022-04-05T09:10:30Z</time>
      </trkpt>
      <trkpt lat="44.88036" lon="0.34415">
        <ele>33.1</ele>
        <time>2022-04-05T09:10:31Z</time>
      </trkpt>
      <trkpt lat="44.88036" lon="0.34413">
        <ele>33.1</ele>
        <time>2022-04-05T09:10:32Z</time>
      </trkpt>
      <trkpt lat="44.88036" lon="0.34411">
        <ele>33.1</ele>
        <time>2022-04-05T09:10:34Z</time>
      </trkpt>
      <trkpt lat="44.88036" lon="0.34409">
        <ele>33</ele>
        <time>2022-04-05T09:10:35Z</time>
      </trkpt>
      <trkpt lat="44.88037" lon="0.34408">
        <ele>33</ele>
        <time>2022-04-05T09:10:36Z</time>
      </trkpt>
      <trkpt lat="44.88037" lon="0.34406">
        <ele>33</ele>
        <time>2022-04-05T09:10:37Z</time>
      </trkpt>
      <trkpt lat="44.88037" lon="0.34403">
        <ele>33</ele>
        <time>2022-04-05T09:10:38Z</time>
      </trkpt>
      <trkpt lat="44.88037" lon="0.34402">
        <ele>33</ele>
        <time>2022-04-05T09:10:39Z</time>
      </trkpt>
      <trkpt lat="44.88037" lon="0.34401">
        <ele>33</ele>
        <time>2022-04-05T09:10:40Z</time>
      </trkpt>
      <trkpt lat="44.88037" lon="0.34399">
        <ele>33</ele>
        <time>2022-04-05T09:10:41Z</time>
      </trkpt>
      <trkpt lat="44.88037" lon="0.34397">
        <ele>33</ele>
        <time>2022-04-05T09:10:42Z</time>
      </trkpt>
      <trkpt lat="44.88037" lon="0.34395">
        <ele>33</ele>
        <time>2022-04-05T09:10:43Z</time>
      </trkpt>
      <trkpt lat="44.88037" lon="0.34393">
        <ele>33</ele>
        <time>2022-04-05T09:10:44Z</time>
      </trkpt>
      <trkpt lat="44.88037" lon="0.34392">
        <ele>33</ele>
        <time>2022-04-05T09:10:45Z</time>
      </trkpt>
      <trkpt lat="44.88037" lon="0.34391">
        <ele>33</ele>
        <time>2022-04-05T09:10:46Z</time>
      </trkpt>
      <trkpt lat="44.88038" lon="0.34387">
        <ele>33</ele>
        <time>2022-04-05T09:10:48Z</time>
      </trkpt>
      <trkpt lat="44.88038" lon="0.34386">
        <ele>33</ele>
        <time>2022-04-05T09:10:49Z</time>
      </trkpt>
      <trkpt lat="44.88038" lon="0.34385">
        <ele>33</ele>
        <time>2022-04-05T09:10:50Z</time>
      </trkpt>
      <trkpt lat="44.88039" lon="0.34383">
        <ele>33</ele>
        <time>2022-04-05T09:10:51Z</time>
      </trkpt>
      <trkpt lat="44.88039" lon="0.34381">
        <ele>33</ele>
        <time>2022-04-05T09:10:52Z</time>
      </trkpt>
      <trkpt lat="44.88039" lon="0.34379">
        <ele>33</ele>
        <time>2022-04-05T09:10:54Z</time>
      </trkpt>
      <trkpt lat="44.88039" lon="0.34377">
        <ele>33</ele>
        <time>2022-04-05T09:10:55Z</time>
      </trkpt>
      <trkpt lat="44.88039" lon="0.34375">
        <ele>33</ele>
        <time>2022-04-05T09:10:56Z</time>
      </trkpt>
      <trkpt lat="44.88039" lon="0.34373">
        <ele>33</ele>
        <time>2022-04-05T09:10:57Z</time>
      </trkpt>
      <trkpt lat="44.88039" lon="0.3437">
        <ele>33</ele>
        <time>2022-04-05T09:10:58Z</time>
      </trkpt>
      <trkpt lat="44.88039" lon="0.3437">
        <ele>33</ele>
        <time>2022-04-05T09:10:59Z</time>
      </trkpt>
      <trkpt lat="44.88039" lon="0.34368">
        <ele>33</ele>
        <time>2022-04-05T09:11:00Z</time>
      </trkpt>
      <trkpt lat="44.88038" lon="0.34366">
        <ele>33</ele>
        <time>2022-04-05T09:11:01Z</time>
      </trkpt>
      <trkpt lat="44.88038" lon="0.34365">
        <ele>33</ele>
        <time>2022-04-05T09:11:02Z</time>
      </trkpt>
      <trkpt lat="44.88039" lon="0.34363">
        <ele>33</ele>
        <time>2022-04-05T09:11:03Z</time>
      </trkpt>
      <trkpt lat="44.88039" lon="0.34361">
        <ele>33</ele>
        <time>2022-04-05T09:11:05Z</time>
      </trkpt>
      <trkpt lat="44.88039" lon="0.3436">
        <ele>33</ele>
        <time>2022-04-05T09:11:06Z</time>
      </trkpt>
      <trkpt lat="44.8804" lon="0.34358">
        <ele>33</ele>
        <time>2022-04-05T09:11:07Z</time>
      </trkpt>
      <trkpt lat="44.8804" lon="0.34355">
        <ele>33.1</ele>
        <time>2022-04-05T09:11:08Z</time>
      </trkpt>
      <trkpt lat="44.8804" lon="0.34354">
        <ele>33.1</ele>
        <time>2022-04-05T09:11:09Z</time>
      </trkpt>
      <trkpt lat="44.8804" lon="0.34353">
        <ele>33.1</ele>
        <time>2022-04-05T09:11:10Z</time>
      </trkpt>
      <trkpt lat="44.8804" lon="0.34351">
        <ele>33.1</ele>
        <time>2022-04-05T09:11:11Z</time>
      </trkpt>
      <trkpt lat="44.8804" lon="0.34349">
        <ele>33.1</ele>
        <time>2022-04-05T09:11:12Z</time>
      </trkpt>
      <trkpt lat="44.8804" lon="0.34347">
        <ele>33.1</ele>
        <time>2022-04-05T09:11:14Z</time>
      </trkpt>
      <trkpt lat="44.8804" lon="0.34345">
        <ele>33.1</ele>
        <time>2022-04-05T09:11:15Z</time>
      </trkpt>
      <trkpt lat="44.8804" lon="0.34343">
        <ele>33.1</ele>
        <time>2022-04-05T09:11:16Z</time>
      </trkpt>
      <trkpt lat="44.8804" lon="0.34342">
        <ele>33.1</ele>
        <time>2022-04-05T09:11:17Z</time>
      </trkpt>
      <trkpt lat="44.88041" lon="0.34339">
        <ele>33.1</ele>
        <time>2022-04-05T09:11:18Z</time>
      </trkpt>
      <trkpt lat="44.88042" lon="0.34338">
        <ele>33.1</ele>
        <time>2022-04-05T09:11:19Z</time>
      </trkpt>
      <trkpt lat="44.88042" lon="0.34336">
        <ele>33.1</ele>
        <time>2022-04-05T09:11:21Z</time>
      </trkpt>
      <trkpt lat="44.88043" lon="0.34334">
        <ele>33.1</ele>
        <time>2022-04-05T09:11:22Z</time>
      </trkpt>
      <trkpt lat="44.88044" lon="0.34332">
        <ele>33.1</ele>
        <time>2022-04-05T09:11:23Z</time>
      </trkpt>
      <trkpt lat="44.88044" lon="0.34331">
        <ele>33.1</ele>
        <time>2022-04-05T09:11:24Z</time>
      </trkpt>
      <trkpt lat="44.88044" lon="0.3433">
        <ele>33.1</ele>
        <time>2022-04-05T09:11:25Z</time>
      </trkpt>
      <trkpt lat="44.88045" lon="0.34328">
        <ele>33.1</ele>
        <time>2022-04-05T09:11:26Z</time>
      </trkpt>
      <trkpt lat="44.88045" lon="0.34327">
        <ele>33.1</ele>
        <time>2022-04-05T09:11:27Z</time>
      </trkpt>
      <trkpt lat="44.88045" lon="0.34323">
        <ele>33.1</ele>
        <time>2022-04-05T09:11:28Z</time>
      </trkpt>
      <trkpt lat="44.88045" lon="0.34322">
        <ele>33.1</ele>
        <time>2022-04-05T09:11:30Z</time>
      </trkpt>
      <trkpt lat="44.88045" lon="0.3432">
        <ele>33.1</ele>
        <time>2022-04-05T09:11:31Z</time>
      </trkpt>
      <trkpt lat="44.88045" lon="0.34317">
        <ele>33.1</ele>
        <time>2022-04-05T09:11:32Z</time>
      </trkpt>
      <trkpt lat="44.88045" lon="0.34314">
        <ele>33.1</ele>
        <time>2022-04-05T09:11:33Z</time>
      </trkpt>
      <trkpt lat="44.88045" lon="0.34313">
        <ele>33.1</ele>
        <time>2022-04-05T09:11:34Z</time>
      </trkpt>
      <trkpt lat="44.88045" lon="0.34312">
        <ele>33.1</ele>
        <time>2022-04-05T09:11:35Z</time>
      </trkpt>
      <trkpt lat="44.88044" lon="0.3431">
        <ele>33.1</ele>
        <time>2022-04-05T09:11:36Z</time>
      </trkpt>
      <trkpt lat="44.88044" lon="0.34309">
        <ele>33.1</ele>
        <time>2022-04-05T09:11:37Z</time>
      </trkpt>
      <trkpt lat="44.88044" lon="0.34306">
        <ele>33.2</ele>
        <time>2022-04-05T09:11:38Z</time>
      </trkpt>
      <trkpt lat="44.88043" lon="0.34306">
        <ele>33.2</ele>
        <time>2022-04-05T09:11:39Z</time>
      </trkpt>
      <trkpt lat="44.88044" lon="0.34304">
        <ele>33.2</ele>
        <time>2022-04-05T09:11:40Z</time>
      </trkpt>
      <trkpt lat="44.88044" lon="0.34303">
        <ele>33.2</ele>
        <time>2022-04-05T09:11:41Z</time>
      </trkpt>
      <trkpt lat="44.88044" lon="0.34299">
        <ele>33.2</ele>
        <time>2022-04-05T09:11:43Z</time>
      </trkpt>
      <trkpt lat="44.88044" lon="0.34298">
        <ele>33.2</ele>
        <time>2022-04-05T09:11:44Z</time>
      </trkpt>
      <trkpt lat="44.88044" lon="0.34296">
        <ele>33.2</ele>
        <time>2022-04-05T09:11:45Z</time>
      </trkpt>
      <trkpt lat="44.88044" lon="0.34295">
        <ele>33.2</ele>
        <time>2022-04-05T09:11:46Z</time>
      </trkpt>
      <trkpt lat="44.88044" lon="0.34293">
        <ele>33.2</ele>
        <time>2022-04-05T09:11:47Z</time>
      </trkpt>
      <trkpt lat="44.88044" lon="0.3429">
        <ele>33.2</ele>
        <time>2022-04-05T09:11:48Z</time>
      </trkpt>
      <trkpt lat="44.88044" lon="0.34289">
        <ele>33.3</ele>
        <time>2022-04-05T09:11:49Z</time>
      </trkpt>
      <trkpt lat="44.88044" lon="0.34288">
        <ele>33.3</ele>
        <time>2022-04-05T09:11:50Z</time>
      </trkpt>
      <trkpt lat="44.88044" lon="0.34286">
        <ele>33.3</ele>
        <time>2022-04-05T09:11:52Z</time>
      </trkpt>
      <trkpt lat="44.88044" lon="0.34285">
        <ele>33.3</ele>
        <time>2022-04-05T09:11:53Z</time>
      </trkpt>
      <trkpt lat="44.88044" lon="0.34283">
        <ele>33.3</ele>
        <time>2022-04-05T09:11:54Z</time>
      </trkpt>
      <trkpt lat="44.88044" lon="0.34281">
        <ele>33.3</ele>
        <time>2022-04-05T09:11:55Z</time>
      </trkpt>
      <trkpt lat="44.88045" lon="0.34279">
        <ele>33.3</ele>
        <time>2022-04-05T09:11:56Z</time>
      </trkpt>
      <trkpt lat="44.88046" lon="0.34278">
        <ele>33.3</ele>
        <time>2022-04-05T09:11:57Z</time>
      </trkpt>
      <trkpt lat="44.88047" lon="0.34277">
        <ele>33.3</ele>
        <time>2022-04-05T09:11:58Z</time>
      </trkpt>
      <trkpt lat="44.88047" lon="0.34276">
        <ele>33.4</ele>
        <time>2022-04-05T09:11:59Z</time>
      </trkpt>
      <trkpt lat="44.88048" lon="0.34275">
        <ele>33.4</ele>
        <time>2022-04-05T09:12:01Z</time>
      </trkpt>
      <trkpt lat="44.88049" lon="0.34274">
        <ele>33.4</ele>
        <time>2022-04-05T09:12:02Z</time>
      </trkpt>
      <trkpt lat="44.8805" lon="0.34273">
        <ele>33.4</ele>
        <time>2022-04-05T09:12:03Z</time>
      </trkpt>
      <trkpt lat="44.88052" lon="0.34272">
        <ele>33.4</ele>
        <time>2022-04-05T09:12:04Z</time>
      </trkpt>
      <trkpt lat="44.88052" lon="0.34272">
        <ele>33.4</ele>
        <time>2022-04-05T09:12:05Z</time>
      </trkpt>
      <trkpt lat="44.88053" lon="0.34271">
        <ele>33.4</ele>
        <time>2022-04-05T09:12:06Z</time>
      </trkpt>
      <trkpt lat="44.88055" lon="0.34271">
        <ele>33.5</ele>
        <time>2022-04-05T09:12:07Z</time>
      </trkpt>
      <trkpt lat="44.88057" lon="0.3427">
        <ele>33.5</ele>
        <time>2022-04-05T09:12:09Z</time>
      </trkpt>
      <trkpt lat="44.88058" lon="0.3427">
        <ele>33.5</ele>
        <time>2022-04-05T09:12:10Z</time>
      </trkpt>
      <trkpt lat="44.88059" lon="0.34269">
        <ele>33.5</ele>
        <time>2022-04-05T09:12:11Z</time>
      </trkpt>
      <trkpt lat="44.8806" lon="0.34269">
        <ele>33.5</ele>
        <time>2022-04-05T09:12:12Z</time>
      </trkpt>
      <trkpt lat="44.88062" lon="0.34268">
        <ele>33.6</ele>
        <time>2022-04-05T09:12:13Z</time>
      </trkpt>
      <trkpt lat="44.88063" lon="0.34268">
        <ele>33.6</ele>
        <time>2022-04-05T09:12:14Z</time>
      </trkpt>
      <trkpt lat="44.88064" lon="0.34267">
        <ele>33.6</ele>
        <time>2022-04-05T09:12:15Z</time>
      </trkpt>
      <trkpt lat="44.88065" lon="0.34267">
        <ele>33.6</ele>
        <time>2022-04-05T09:12:16Z</time>
      </trkpt>
      <trkpt lat="44.88066" lon="0.34266">
        <ele>33.6</ele>
        <time>2022-04-05T09:12:17Z</time>
      </trkpt>
      <trkpt lat="44.88068" lon="0.34266">
        <ele>33.6</ele>
        <time>2022-04-05T09:12:18Z</time>
      </trkpt>
      <trkpt lat="44.88069" lon="0.34265">
        <ele>33.7</ele>
        <time>2022-04-05T09:12:19Z</time>
      </trkpt>
      <trkpt lat="44.8807" lon="0.34265">
        <ele>33.7</ele>
        <time>2022-04-05T09:12:20Z</time>
      </trkpt>
      <trkpt lat="44.88072" lon="0.34265">
        <ele>33.7</ele>
        <time>2022-04-05T09:12:21Z</time>
      </trkpt>
      <trkpt lat="44.88073" lon="0.34265">
        <ele>33.7</ele>
        <time>2022-04-05T09:12:23Z</time>
      </trkpt>
      <trkpt lat="44.88074" lon="0.34266">
        <ele>33.7</ele>
        <time>2022-04-05T09:12:24Z</time>
      </trkpt>
      <trkpt lat="44.88076" lon="0.34266">
        <ele>33.8</ele>
        <time>2022-04-05T09:12:25Z</time>
      </trkpt>
      <trkpt lat="44.88077" lon="0.34266">
        <ele>33.8</ele>
        <time>2022-04-05T09:12:26Z</time>
      </trkpt>
      <trkpt lat="44.88078" lon="0.34266">
        <ele>33.8</ele>
        <time>2022-04-05T09:12:27Z</time>
      </trkpt>
      <trkpt lat="44.88081" lon="0.34267">
        <ele>33.9</ele>
        <time>2022-04-05T09:12:29Z</time>
      </trkpt>
      <trkpt lat="44.88083" lon="0.34267">
        <ele>33.9</ele>
        <time>2022-04-05T09:12:30Z</time>
      </trkpt>
      <trkpt lat="44.88084" lon="0.34268">
        <ele>33.9</ele>
        <time>2022-04-05T09:12:31Z</time>
      </trkpt>
      <trkpt lat="44.88085" lon="0.34268">
        <ele>34</ele>
        <time>2022-04-05T09:12:32Z</time>
      </trkpt>
      <trkpt lat="44.88088" lon="0.34269">
        <ele>34</ele>
        <time>2022-04-05T09:12:34Z</time>
      </trkpt>
      <trkpt lat="44.8809" lon="0.3427">
        <ele>34</ele>
        <time>2022-04-05T09:12:35Z</time>
      </trkpt>
      <trkpt lat="44.88091" lon="0.3427">
        <ele>34.1</ele>
        <time>2022-04-05T09:12:36Z</time>
      </trkpt>
      <trkpt lat="44.88092" lon="0.3427">
        <ele>34.1</ele>
        <time>2022-04-05T09:12:37Z</time>
      </trkpt>
      <trkpt lat="44.88093" lon="0.3427">
        <ele>34.1</ele>
        <time>2022-04-05T09:12:38Z</time>
      </trkpt>
      <trkpt lat="44.88095" lon="0.34271">
        <ele>34.1</ele>
        <time>2022-04-05T09:12:39Z</time>
      </trkpt>
      <trkpt lat="44.88097" lon="0.34271">
        <ele>34.2</ele>
        <time>2022-04-05T09:12:40Z</time>
      </trkpt>
      <trkpt lat="44.88098" lon="0.34271">
        <ele>34.2</ele>
        <time>2022-04-05T09:12:41Z</time>
      </trkpt>
      <trkpt lat="44.88099" lon="0.34271">
        <ele>34.2</ele>
        <time>2022-04-05T09:12:42Z</time>
      </trkpt>
      <trkpt lat="44.88101" lon="0.34272">
        <ele>34.3</ele>
        <time>2022-04-05T09:12:43Z</time>
      </trkpt>
      <trkpt lat="44.88102" lon="0.34271">
        <ele>34.3</ele>
        <time>2022-04-05T09:12:45Z</time>
      </trkpt>
      <trkpt lat="44.88103" lon="0.34271">
        <ele>34.3</ele>
        <time>2022-04-05T09:12:46Z</time>
      </trkpt>
      <trkpt lat="44.88105" lon="0.34271">
        <ele>34.4</ele>
        <time>2022-04-05T09:12:47Z</time>
      </trkpt>
      <trkpt lat="44.88106" lon="0.34272">
        <ele>34.4</ele>
        <time>2022-04-05T09:12:48Z</time>
      </trkpt>
      <trkpt lat="44.88108" lon="0.34271">
        <ele>34.4</ele>
        <time>2022-04-05T09:12:49Z</time>
      </trkpt>
      <trkpt lat="44.8811" lon="0.34271">
        <ele>34.5</ele>
        <time>2022-04-05T09:12:50Z</time>
      </trkpt>
      <trkpt lat="44.88111" lon="0.34271">
        <ele>34.5</ele>
        <time>2022-04-05T09:12:51Z</time>
      </trkpt>
      <trkpt lat="44.88112" lon="0.34271">
        <ele>34.5</ele>
        <time>2022-04-05T09:12:52Z</time>
      </trkpt>
      <trkpt lat="44.88114" lon="0.34271">
        <ele>34.6</ele>
        <time>2022-04-05T09:12:53Z</time>
      </trkpt>
      <trkpt lat="44.88115" lon="0.34271">
        <ele>34.6</ele>
        <time>2022-04-05T09:12:54Z</time>
      </trkpt>
      <trkpt lat="44.88116" lon="0.34271">
        <ele>34.7</ele>
        <time>2022-04-05T09:12:55Z</time>
      </trkpt>
      <trkpt lat="44.88118" lon="0.3427">
        <ele>34.7</ele>
        <time>2022-04-05T09:12:56Z</time>
      </trkpt>
      <trkpt lat="44.8812" lon="0.3427">
        <ele>34.7</ele>
        <time>2022-04-05T09:12:58Z</time>
      </trkpt>
      <trkpt lat="44.88121" lon="0.3427">
        <ele>34.8</ele>
        <time>2022-04-05T09:12:59Z</time>
      </trkpt>
      <trkpt lat="44.88122" lon="0.34269">
        <ele>34.8</ele>
        <time>2022-04-05T09:13:00Z</time>
      </trkpt>
      <trkpt lat="44.88122" lon="0.34268">
        <ele>34.8</ele>
        <time>2022-04-05T09:13:01Z</time>
      </trkpt>
      <trkpt lat="44.88123" lon="0.34268">
        <ele>34.9</ele>
        <time>2022-04-05T09:13:02Z</time>
      </trkpt>
      <trkpt lat="44.88124" lon="0.34267">
        <ele>34.9</ele>
        <time>2022-04-05T09:13:03Z</time>
      </trkpt>
      <trkpt lat="44.88126" lon="0.34267">
        <ele>34.9</ele>
        <time>2022-04-05T09:13:04Z</time>
      </trkpt>
      <trkpt lat="44.88128" lon="0.34267">
        <ele>34.9</ele>
        <time>2022-04-05T09:13:05Z</time>
      </trkpt>
      <trkpt lat="44.88131" lon="0.34267">
        <ele>35</ele>
        <time>2022-04-05T09:13:06Z</time>
      </trkpt>
      <trkpt lat="44.88131" lon="0.34267">
        <ele>35</ele>
        <time>2022-04-05T09:13:07Z</time>
      </trkpt>
      <trkpt lat="44.88133" lon="0.34267">
        <ele>35.1</ele>
        <time>2022-04-05T09:13:08Z</time>
      </trkpt>
      <trkpt lat="44.88134" lon="0.34268">
        <ele>35.1</ele>
        <time>2022-04-05T09:13:10Z</time>
      </trkpt>
      <trkpt lat="44.88137" lon="0.34268">
        <ele>35.2</ele>
        <time>2022-04-05T09:13:11Z</time>
      </trkpt>
      <trkpt lat="44.88138" lon="0.34268">
        <ele>35.2</ele>
        <time>2022-04-05T09:13:12Z</time>
      </trkpt>
      <trkpt lat="44.88139" lon="0.34269">
        <ele>35.2</ele>
        <time>2022-04-05T09:13:13Z</time>
      </trkpt>
      <trkpt lat="44.8814" lon="0.34269">
        <ele>35.2</ele>
        <time>2022-04-05T09:13:14Z</time>
      </trkpt>
      <trkpt lat="44.88143" lon="0.3427">
        <ele>35.3</ele>
        <time>2022-04-05T09:13:15Z</time>
      </trkpt>
      <trkpt lat="44.88144" lon="0.3427">
        <ele>35.3</ele>
        <time>2022-04-05T09:13:16Z</time>
      </trkpt>
      <trkpt lat="44.88145" lon="0.34271">
        <ele>35.3</ele>
        <time>2022-04-05T09:13:18Z</time>
      </trkpt>
      <trkpt lat="44.88147" lon="0.34271">
        <ele>35.4</ele>
        <time>2022-04-05T09:13:19Z</time>
      </trkpt>
      <trkpt lat="44.88148" lon="0.34271">
        <ele>35.4</ele>
        <time>2022-04-05T09:13:20Z</time>
      </trkpt>
      <trkpt lat="44.8815" lon="0.34272">
        <ele>35.5</ele>
        <time>2022-04-05T09:13:21Z</time>
      </trkpt>
      <trkpt lat="44.88152" lon="0.34272">
        <ele>35.5</ele>
        <time>2022-04-05T09:13:22Z</time>
      </trkpt>
      <trkpt lat="44.88153" lon="0.34272">
        <ele>35.5</ele>
        <time>2022-04-05T09:13:23Z</time>
      </trkpt>
      <trkpt lat="44.88154" lon="0.34272">
        <ele>35.6</ele>
        <time>2022-04-05T09:13:24Z</time>
      </trkpt>
      <trkpt lat="44.88155" lon="0.34272">
        <ele>35.6</ele>
        <time>2022-04-05T09:13:25Z</time>
      </trkpt>
      <trkpt lat="44.88157" lon="0.34271">
        <ele>35.6</ele>
        <time>2022-04-05T09:13:27Z</time>
      </trkpt>
      <trkpt lat="44.88157" lon="0.3427">
        <ele>35.6</ele>
        <time>2022-04-05T09:13:28Z</time>
      </trkpt>
      <trkpt lat="44.88158" lon="0.3427">
        <ele>35.7</ele>
        <time>2022-04-05T09:13:29Z</time>
      </trkpt>
      <trkpt lat="44.8816" lon="0.34269">
        <ele>35.7</ele>
        <time>2022-04-05T09:13:30Z</time>
      </trkpt>
      <trkpt lat="44.88161" lon="0.34269">
        <ele>35.7</ele>
        <time>2022-04-05T09:13:31Z</time>
      </trkpt>
      <trkpt lat="44.88162" lon="0.34269">
        <ele>35.8</ele>
        <time>2022-04-05T09:13:32Z</time>
      </trkpt>
      <trkpt lat="44.88164" lon="0.34268">
        <ele>35.8</ele>
        <time>2022-04-05T09:13:33Z</time>
      </trkpt>
      <trkpt lat="44.88165" lon="0.34268">
        <ele>35.8</ele>
        <time>2022-04-05T09:13:34Z</time>
      </trkpt>
      <trkpt lat="44.88166" lon="0.34267">
        <ele>35.9</ele>
        <time>2022-04-05T09:13:35Z</time>
      </trkpt>
      <trkpt lat="44.88168" lon="0.34266">
        <ele>35.9</ele>
        <time>2022-04-05T09:13:36Z</time>
      </trkpt>
      <trkpt lat="44.88169" lon="0.34266">
        <ele>35.9</ele>
        <time>2022-04-05T09:13:37Z</time>
      </trkpt>
      <trkpt lat="44.8817" lon="0.34266">
        <ele>35.9</ele>
        <time>2022-04-05T09:13:38Z</time>
      </trkpt>
      <trkpt lat="44.88172" lon="0.34266">
        <ele>35.9</ele>
        <time>2022-04-05T09:13:39Z</time>
      </trkpt>
      <trkpt lat="44.88173" lon="0.34266">
        <ele>36</ele>
        <time>2022-04-05T09:13:40Z</time>
      </trkpt>
      <trkpt lat="44.88175" lon="0.34266">
        <ele>36</ele>
        <time>2022-04-05T09:13:41Z</time>
      </trkpt>
      <trkpt lat="44.88176" lon="0.34266">
        <ele>36</ele>
        <time>2022-04-05T09:13:42Z</time>
      </trkpt>
      <trkpt lat="44.88177" lon="0.34266">
        <ele>36</ele>
        <time>2022-04-05T09:13:44Z</time>
      </trkpt>
      <trkpt lat="44.88178" lon="0.34266">
        <ele>36.1</ele>
        <time>2022-04-05T09:13:45Z</time>
      </trkpt>
      <trkpt lat="44.88179" lon="0.34265">
        <ele>36.1</ele>
        <time>2022-04-05T09:13:46Z</time>
      </trkpt>
      <trkpt lat="44.88181" lon="0.34265">
        <ele>36.1</ele>
        <time>2022-04-05T09:13:47Z</time>
      </trkpt>
      <trkpt lat="44.88182" lon="0.34265">
        <ele>36.1</ele>
        <time>2022-04-05T09:13:48Z</time>
      </trkpt>
      <trkpt lat="44.88183" lon="0.34265">
        <ele>36.2</ele>
        <time>2022-04-05T09:13:49Z</time>
      </trkpt>
      <trkpt lat="44.88185" lon="0.34264">
        <ele>36.2</ele>
        <time>2022-04-05T09:13:50Z</time>
      </trkpt>
      <trkpt lat="44.88187" lon="0.34263">
        <ele>36.2</ele>
        <time>2022-04-05T09:13:52Z</time>
      </trkpt>
      <trkpt lat="44.88188" lon="0.34263">
        <ele>36.3</ele>
        <time>2022-04-05T09:13:53Z</time>
      </trkpt>
      <trkpt lat="44.88189" lon="0.34262">
        <ele>36.3</ele>
        <time>2022-04-05T09:13:54Z</time>
      </trkpt>
      <trkpt lat="44.8819" lon="0.34261">
        <ele>36.3</ele>
        <time>2022-04-05T09:13:55Z</time>
      </trkpt>
      <trkpt lat="44.88191" lon="0.3426">
        <ele>36.3</ele>
        <time>2022-04-05T09:13:56Z</time>
      </trkpt>
      <trkpt lat="44.88193" lon="0.34258">
        <ele>36.4</ele>
        <time>2022-04-05T09:13:57Z</time>
      </trkpt>
      <trkpt lat="44.88193" lon="0.34257">
        <ele>36.4</ele>
        <time>2022-04-05T09:13:58Z</time>
      </trkpt>
      <trkpt lat="44.88194" lon="0.34256">
        <ele>36.4</ele>
        <time>2022-04-05T09:13:59Z</time>
      </trkpt>
      <trkpt lat="44.88195" lon="0.34255">
        <ele>36.5</ele>
        <time>2022-04-05T09:14:00Z</time>
      </trkpt>
      <trkpt lat="44.88195" lon="0.34254">
        <ele>36.5</ele>
        <time>2022-04-05T09:14:01Z</time>
      </trkpt>
      <trkpt lat="44.88196" lon="0.34253">
        <ele>36.5</ele>
        <time>2022-04-05T09:14:02Z</time>
      </trkpt>
      <trkpt lat="44.88197" lon="0.34253">
        <ele>36.5</ele>
        <time>2022-04-05T09:14:03Z</time>
      </trkpt>
      <trkpt lat="44.88199" lon="0.34251">
        <ele>36.6</ele>
        <time>2022-04-05T09:14:04Z</time>
      </trkpt>
      <trkpt lat="44.882" lon="0.3425">
        <ele>36.6</ele>
        <time>2022-04-05T09:14:05Z</time>
      </trkpt>
      <trkpt lat="44.88201" lon="0.34249">
        <ele>36.7</ele>
        <time>2022-04-05T09:14:06Z</time>
      </trkpt>
      <trkpt lat="44.88202" lon="0.34249">
        <ele>36.7</ele>
        <time>2022-04-05T09:14:07Z</time>
      </trkpt>
      <trkpt lat="44.88203" lon="0.34248">
        <ele>36.7</ele>
        <time>2022-04-05T09:14:08Z</time>
      </trkpt>
      <trkpt lat="44.88204" lon="0.34247">
        <ele>36.8</ele>
        <time>2022-04-05T09:14:09Z</time>
      </trkpt>
      <trkpt lat="44.88205" lon="0.34246">
        <ele>36.8</ele>
        <time>2022-04-05T09:14:10Z</time>
      </trkpt>
      <trkpt lat="44.88208" lon="0.34243">
        <ele>36.8</ele>
        <time>2022-04-05T09:14:12Z</time>
      </trkpt>
      <trkpt lat="44.88208" lon="0.34243">
        <ele>36.8</ele>
        <time>2022-04-05T09:14:13Z</time>
      </trkpt>
      <trkpt lat="44.88209" lon="0.34242">
        <ele>36.9</ele>
        <time>2022-04-05T09:14:14Z</time>
      </trkpt>
      <trkpt lat="44.8821" lon="0.34241">
        <ele>36.9</ele>
        <time>2022-04-05T09:14:15Z</time>
      </trkpt>
      <trkpt lat="44.88211" lon="0.3424">
        <ele>36.9</ele>
        <time>2022-04-05T09:14:16Z</time>
      </trkpt>
      <trkpt lat="44.88212" lon="0.34238">
        <ele>36.9</ele>
        <time>2022-04-05T09:14:17Z</time>
      </trkpt>
      <trkpt lat="44.88213" lon="0.34237">
        <ele>37</ele>
        <time>2022-04-05T09:14:18Z</time>
      </trkpt>
      <trkpt lat="44.88214" lon="0.34236">
        <ele>37</ele>
        <time>2022-04-05T09:14:19Z</time>
      </trkpt>
      <trkpt lat="44.88216" lon="0.34234">
        <ele>37</ele>
        <time>2022-04-05T09:14:21Z</time>
      </trkpt>
      <trkpt lat="44.88218" lon="0.34232">
        <ele>37.1</ele>
        <time>2022-04-05T09:14:22Z</time>
      </trkpt>
      <trkpt lat="44.88218" lon="0.34231">
        <ele>37.1</ele>
        <time>2022-04-05T09:14:23Z</time>
      </trkpt>
      <trkpt lat="44.88218" lon="0.34231">
        <ele>37.1</ele>
        <time>2022-04-05T09:14:24Z</time>
      </trkpt>
      <trkpt lat="44.8822" lon="0.34229">
        <ele>37.1</ele>
        <time>2022-04-05T09:14:25Z</time>
      </trkpt>
      <trkpt lat="44.88221" lon="0.34228">
        <ele>37.1</ele>
        <time>2022-04-05T09:14:26Z</time>
      </trkpt>
      <trkpt lat="44.88222" lon="0.34227">
        <ele>37.2</ele>
        <time>2022-04-05T09:14:27Z</time>
      </trkpt>
      <trkpt lat="44.88223" lon="0.34226">
        <ele>37.2</ele>
        <time>2022-04-05T09:14:28Z</time>
      </trkpt>
      <trkpt lat="44.88226" lon="0.34225">
        <ele>37.2</ele>
        <time>2022-04-05T09:14:29Z</time>
      </trkpt>
      <trkpt lat="44.88227" lon="0.34224">
        <ele>37.2</ele>
        <time>2022-04-05T09:14:30Z</time>
      </trkpt>
      <trkpt lat="44.88228" lon="0.34222">
        <ele>37.3</ele>
        <time>2022-04-05T09:14:31Z</time>
      </trkpt>
      <trkpt lat="44.88229" lon="0.34221">
        <ele>37.3</ele>
        <time>2022-04-05T09:14:33Z</time>
      </trkpt>
      <trkpt lat="44.8823" lon="0.34221">
        <ele>37.3</ele>
        <time>2022-04-05T09:14:34Z</time>
      </trkpt>
      <trkpt lat="44.88231" lon="0.3422">
        <ele>37.3</ele>
        <time>2022-04-05T09:14:35Z</time>
      </trkpt>
      <trkpt lat="44.88233" lon="0.34217">
        <ele>37.3</ele>
        <time>2022-04-05T09:14:36Z</time>
      </trkpt>
      <trkpt lat="44.88234" lon="0.34216">
        <ele>37.4</ele>
        <time>2022-04-05T09:14:37Z</time>
      </trkpt>
      <trkpt lat="44.88236" lon="0.34215">
        <ele>37.4</ele>
        <time>2022-04-05T09:14:38Z</time>
      </trkpt>
      <trkpt lat="44.88236" lon="0.34215">
        <ele>37.4</ele>
        <time>2022-04-05T09:14:39Z</time>
      </trkpt>
      <trkpt lat="44.88237" lon="0.34214">
        <ele>37.4</ele>
        <time>2022-04-05T09:14:40Z</time>
      </trkpt>
      <trkpt lat="44.88238" lon="0.34214">
        <ele>37.4</ele>
        <time>2022-04-05T09:14:41Z</time>
      </trkpt>
      <trkpt lat="44.8824" lon="0.34213">
        <ele>37.4</ele>
        <time>2022-04-05T09:14:42Z</time>
      </trkpt>
      <trkpt lat="44.8824" lon="0.34212">
        <ele>37.4</ele>
        <time>2022-04-05T09:14:43Z</time>
      </trkpt>
      <trkpt lat="44.88243" lon="0.34211">
        <ele>37.5</ele>
        <time>2022-04-05T09:14:44Z</time>
      </trkpt>
      <trkpt lat="44.88244" lon="0.34211">
        <ele>37.5</ele>
        <time>2022-04-05T09:14:45Z</time>
      </trkpt>
      <trkpt lat="44.88245" lon="0.3421">
        <ele>37.5</ele>
        <time>2022-04-05T09:14:46Z</time>
      </trkpt>
      <trkpt lat="44.88245" lon="0.3421">
        <ele>37.5</ele>
        <time>2022-04-05T09:14:47Z</time>
      </trkpt>
      <trkpt lat="44.88246" lon="0.34209">
        <ele>37.5</ele>
        <time>2022-04-05T09:14:48Z</time>
      </trkpt>
      <trkpt lat="44.88246" lon="0.34209">
        <ele>37.5</ele>
        <time>2022-04-05T09:14:50Z</time>
      </trkpt>
      <trkpt lat="44.88247" lon="0.34208">
        <ele>37.5</ele>
        <time>2022-04-05T09:14:51Z</time>
      </trkpt>
      <trkpt lat="44.88249" lon="0.34207">
        <ele>37.5</ele>
        <time>2022-04-05T09:14:52Z</time>
      </trkpt>
      <trkpt lat="44.8825" lon="0.34206">
        <ele>37.5</ele>
        <time>2022-04-05T09:14:53Z</time>
      </trkpt>
      <trkpt lat="44.88251" lon="0.34205">
        <ele>37.6</ele>
        <time>2022-04-05T09:14:54Z</time>
      </trkpt>
      <trkpt lat="44.88253" lon="0.34204">
        <ele>37.6</ele>
        <time>2022-04-05T09:14:55Z</time>
      </trkpt>
      <trkpt lat="44.88255" lon="0.34203">
        <ele>37.6</ele>
        <time>2022-04-05T09:14:56Z</time>
      </trkpt>
      <trkpt lat="44.88257" lon="0.34201">
        <ele>37.7</ele>
        <time>2022-04-05T09:14:58Z</time>
      </trkpt>
      <trkpt lat="44.88258" lon="0.342">
        <ele>37.7</ele>
        <time>2022-04-05T09:14:59Z</time>
      </trkpt>
      <trkpt lat="44.88259" lon="0.34198">
        <ele>37.7</ele>
        <time>2022-04-05T09:15:00Z</time>
      </trkpt>
      <trkpt lat="44.88262" lon="0.34196">
        <ele>37.8</ele>
        <time>2022-04-05T09:15:01Z</time>
      </trkpt>
      <trkpt lat="44.88263" lon="0.34195">
        <ele>37.8</ele>
        <time>2022-04-05T09:15:02Z</time>
      </trkpt>
      <trkpt lat="44.88264" lon="0.34193">
        <ele>37.8</ele>
        <time>2022-04-05T09:15:03Z</time>
      </trkpt>
      <trkpt lat="44.88265" lon="0.34192">
        <ele>37.9</ele>
        <time>2022-04-05T09:15:04Z</time>
      </trkpt>
      <trkpt lat="44.88266" lon="0.34192">
        <ele>37.9</ele>
        <time>2022-04-05T09:15:05Z</time>
      </trkpt>
      <trkpt lat="44.88268" lon="0.3419">
        <ele>37.9</ele>
        <time>2022-04-05T09:15:06Z</time>
      </trkpt>
      <trkpt lat="44.88269" lon="0.34189">
        <ele>38</ele>
        <time>2022-04-05T09:15:08Z</time>
      </trkpt>
      <trkpt lat="44.8827" lon="0.34189">
        <ele>38</ele>
        <time>2022-04-05T09:15:09Z</time>
      </trkpt>
      <trkpt lat="44.88271" lon="0.34188">
        <ele>38</ele>
        <time>2022-04-05T09:15:10Z</time>
      </trkpt>
      <trkpt lat="44.88272" lon="0.34187">
        <ele>38</ele>
        <time>2022-04-05T09:15:11Z</time>
      </trkpt>
      <trkpt lat="44.88273" lon="0.34186">
        <ele>38.1</ele>
        <time>2022-04-05T09:15:12Z</time>
      </trkpt>
      <trkpt lat="44.88274" lon="0.34185">
        <ele>38.1</ele>
        <time>2022-04-05T09:15:13Z</time>
      </trkpt>
      <trkpt lat="44.88276" lon="0.34184">
        <ele>38.2</ele>
        <time>2022-04-05T09:15:14Z</time>
      </trkpt>
      <trkpt lat="44.88277" lon="0.34184">
        <ele>38.2</ele>
        <time>2022-04-05T09:15:15Z</time>
      </trkpt>
      <trkpt lat="44.88278" lon="0.34184">
        <ele>38.2</ele>
        <time>2022-04-05T09:15:16Z</time>
      </trkpt>
      <trkpt lat="44.88279" lon="0.34183">
        <ele>38.3</ele>
        <time>2022-04-05T09:15:17Z</time>
      </trkpt>
      <trkpt lat="44.8828" lon="0.34183">
        <ele>38.3</ele>
        <time>2022-04-05T09:15:18Z</time>
      </trkpt>
      <trkpt lat="44.88282" lon="0.34182">
        <ele>38.4</ele>
        <time>2022-04-05T09:15:19Z</time>
      </trkpt>
      <trkpt lat="44.88283" lon="0.34181">
        <ele>38.4</ele>
        <time>2022-04-05T09:15:20Z</time>
      </trkpt>
      <trkpt lat="44.88284" lon="0.3418">
        <ele>38.5</ele>
        <time>2022-04-05T09:15:21Z</time>
      </trkpt>
      <trkpt lat="44.88286" lon="0.34179">
        <ele>38.5</ele>
        <time>2022-04-05T09:15:23Z</time>
      </trkpt>
      <trkpt lat="44.88286" lon="0.34178">
        <ele>38.5</ele>
        <time>2022-04-05T09:15:24Z</time>
      </trkpt>
      <trkpt lat="44.88287" lon="0.34178">
        <ele>38.5</ele>
        <time>2022-04-05T09:15:25Z</time>
      </trkpt>
      <trkpt lat="44.88287" lon="0.34177">
        <ele>38.6</ele>
        <time>2022-04-05T09:15:26Z</time>
      </trkpt>
      <trkpt lat="44.88289" lon="0.34176">
        <ele>38.6</ele>
        <time>2022-04-05T09:15:27Z</time>
      </trkpt>
      <trkpt lat="44.88289" lon="0.34175">
        <ele>38.6</ele>
        <time>2022-04-05T09:15:28Z</time>
      </trkpt>
      <trkpt lat="44.8829" lon="0.34174">
        <ele>38.7</ele>
        <time>2022-04-05T09:15:29Z</time>
      </trkpt>
      <trkpt lat="44.88291" lon="0.34174">
        <ele>38.7</ele>
        <time>2022-04-05T09:15:31Z</time>
      </trkpt>
      <trkpt lat="44.88293" lon="0.34173">
        <ele>38.8</ele>
        <time>2022-04-05T09:15:32Z</time>
      </trkpt>
      <trkpt lat="44.88294" lon="0.34172">
        <ele>38.8</ele>
        <time>2022-04-05T09:15:33Z</time>
      </trkpt>
      <trkpt lat="44.88295" lon="0.34171">
        <ele>38.8</ele>
        <time>2022-04-05T09:15:34Z</time>
      </trkpt>
      <trkpt lat="44.88296" lon="0.3417">
        <ele>38.9</ele>
        <time>2022-04-05T09:15:35Z</time>
      </trkpt>
      <trkpt lat="44.88297" lon="0.34169">
        <ele>38.9</ele>
        <time>2022-04-05T09:15:36Z</time>
      </trkpt>
      <trkpt lat="44.88299" lon="0.34167">
        <ele>39</ele>
        <time>2022-04-05T09:15:37Z</time>
      </trkpt>
      <trkpt lat="44.883" lon="0.34165">
        <ele>39</ele>
        <time>2022-04-05T09:15:39Z</time>
      </trkpt>
      <trkpt lat="44.88301" lon="0.34164">
        <ele>39.1</ele>
        <time>2022-04-05T09:15:40Z</time>
      </trkpt>
      <trkpt lat="44.88302" lon="0.34163">
        <ele>39.1</ele>
        <time>2022-04-05T09:15:41Z</time>
      </trkpt>
      <trkpt lat="44.88303" lon="0.34161">
        <ele>39.1</ele>
        <time>2022-04-05T09:15:42Z</time>
      </trkpt>
      <trkpt lat="44.88303" lon="0.3416">
        <ele>39.2</ele>
        <time>2022-04-05T09:15:43Z</time>
      </trkpt>
      <trkpt lat="44.88304" lon="0.34159">
        <ele>39.2</ele>
        <time>2022-04-05T09:15:44Z</time>
      </trkpt>
      <trkpt lat="44.88305" lon="0.34159">
        <ele>39.2</ele>
        <time>2022-04-05T09:15:45Z</time>
      </trkpt>
      <trkpt lat="44.88306" lon="0.34158">
        <ele>39.2</ele>
        <time>2022-04-05T09:15:46Z</time>
      </trkpt>
      <trkpt lat="44.88308" lon="0.34156">
        <ele>39.3</ele>
        <time>2022-04-05T09:15:47Z</time>
      </trkpt>
      <trkpt lat="44.88309" lon="0.34156">
        <ele>39.3</ele>
        <time>2022-04-05T09:15:48Z</time>
      </trkpt>
      <trkpt lat="44.88309" lon="0.34156">
        <ele>39.3</ele>
        <time>2022-04-05T09:15:49Z</time>
      </trkpt>
      <trkpt lat="44.8831" lon="0.34155">
        <ele>39.3</ele>
        <time>2022-04-05T09:15:50Z</time>
      </trkpt>
      <trkpt lat="44.88313" lon="0.34153">
        <ele>39.4</ele>
        <time>2022-04-05T09:15:52Z</time>
      </trkpt>
      <trkpt lat="44.88313" lon="0.34153">
        <ele>39.4</ele>
        <time>2022-04-05T09:15:53Z</time>
      </trkpt>
      <trkpt lat="44.88314" lon="0.34153">
        <ele>39.4</ele>
        <time>2022-04-05T09:15:54Z</time>
      </trkpt>
      <trkpt lat="44.88315" lon="0.34152">
        <ele>39.4</ele>
        <time>2022-04-05T09:15:55Z</time>
      </trkpt>
      <trkpt lat="44.88316" lon="0.34151">
        <ele>39.4</ele>
        <time>2022-04-05T09:15:56Z</time>
      </trkpt>
      <trkpt lat="44.88318" lon="0.3415">
        <ele>39.5</ele>
        <time>2022-04-05T09:15:57Z</time>
      </trkpt>
      <trkpt lat="44.88319" lon="0.3415">
        <ele>39.5</ele>
        <time>2022-04-05T09:15:58Z</time>
      </trkpt>
      <trkpt lat="44.8832" lon="0.34149">
        <ele>39.5</ele>
        <time>2022-04-05T09:15:59Z</time>
      </trkpt>
      <trkpt lat="44.88321" lon="0.34148">
        <ele>39.5</ele>
        <time>2022-04-05T09:16:00Z</time>
      </trkpt>
      <trkpt lat="44.88324" lon="0.34146">
        <ele>39.6</ele>
        <time>2022-04-05T09:16:01Z</time>
      </trkpt>
      <trkpt lat="44.88325" lon="0.34145">
        <ele>39.6</ele>
        <time>2022-04-05T09:16:02Z</time>
      </trkpt>
      <trkpt lat="44.88326" lon="0.34144">
        <ele>39.6</ele>
        <time>2022-04-05T09:16:03Z</time>
      </trkpt>
      <trkpt lat="44.88327" lon="0.34143">
        <ele>39.7</ele>
        <time>2022-04-05T09:16:04Z</time>
      </trkpt>
      <trkpt lat="44.88328" lon="0.34142">
        <ele>39.7</ele>
        <time>2022-04-05T09:16:05Z</time>
      </trkpt>
      <trkpt lat="44.88329" lon="0.34141">
        <ele>39.7</ele>
        <time>2022-04-05T09:16:06Z</time>
      </trkpt>
      <trkpt lat="44.8833" lon="0.34139">
        <ele>39.7</ele>
        <time>2022-04-05T09:16:07Z</time>
      </trkpt>
      <trkpt lat="44.88331" lon="0.34139">
        <ele>39.8</ele>
        <time>2022-04-05T09:16:08Z</time>
      </trkpt>
      <trkpt lat="44.88332" lon="0.34137">
        <ele>39.8</ele>
        <time>2022-04-05T09:16:09Z</time>
      </trkpt>
      <trkpt lat="44.88333" lon="0.34137">
        <ele>39.8</ele>
        <time>2022-04-05T09:16:10Z</time>
      </trkpt>
      <trkpt lat="44.88334" lon="0.34136">
        <ele>39.8</ele>
        <time>2022-04-05T09:16:11Z</time>
      </trkpt>
      <trkpt lat="44.88335" lon="0.34136">
        <ele>39.9</ele>
        <time>2022-04-05T09:16:12Z</time>
      </trkpt>
      <trkpt lat="44.88336" lon="0.34136">
        <ele>39.9</ele>
        <time>2022-04-05T09:16:13Z</time>
      </trkpt>
      <trkpt lat="44.88337" lon="0.34135">
        <ele>39.9</ele>
        <time>2022-04-05T09:16:14Z</time>
      </trkpt>
      <trkpt lat="44.88338" lon="0.34135">
        <ele>39.9</ele>
        <time>2022-04-05T09:16:15Z</time>
      </trkpt>
      <trkpt lat="44.8834" lon="0.34133">
        <ele>40</ele>
        <time>2022-04-05T09:16:17Z</time>
      </trkpt>
      <trkpt lat="44.8834" lon="0.34133">
        <ele>40</ele>
        <time>2022-04-05T09:16:18Z</time>
      </trkpt>
      <trkpt lat="44.88341" lon="0.34133">
        <ele>40</ele>
        <time>2022-04-05T09:16:19Z</time>
      </trkpt>
      <trkpt lat="44.88342" lon="0.34132">
        <ele>40.1</ele>
        <time>2022-04-05T09:16:20Z</time>
      </trkpt>
      <trkpt lat="44.88344" lon="0.34131">
        <ele>40.1</ele>
        <time>2022-04-05T09:16:21Z</time>
      </trkpt>
      <trkpt lat="44.88346" lon="0.3413">
        <ele>40.2</ele>
        <time>2022-04-05T09:16:22Z</time>
      </trkpt>
      <trkpt lat="44.88347" lon="0.34128">
        <ele>40.2</ele>
        <time>2022-04-05T09:16:23Z</time>
      </trkpt>
      <trkpt lat="44.88348" lon="0.34127">
        <ele>40.2</ele>
        <time>2022-04-05T09:16:24Z</time>
      </trkpt>
      <trkpt lat="44.88349" lon="0.34127">
        <ele>40.3</ele>
        <time>2022-04-05T09:16:25Z</time>
      </trkpt>
      <trkpt lat="44.88351" lon="0.34125">
        <ele>40.3</ele>
        <time>2022-04-05T09:16:27Z</time>
      </trkpt>
      <trkpt lat="44.88351" lon="0.34124">
        <ele>40.3</ele>
        <time>2022-04-05T09:16:28Z</time>
      </trkpt>
      <trkpt lat="44.88352" lon="0.34122">
        <ele>40.4</ele>
        <time>2022-04-05T09:16:29Z</time>
      </trkpt>
      <trkpt lat="44.88353" lon="0.3412">
        <ele>40.4</ele>
        <time>2022-04-05T09:16:30Z</time>
      </trkpt>
      <trkpt lat="44.88354" lon="0.34119">
        <ele>40.4</ele>
        <time>2022-04-05T09:16:31Z</time>
      </trkpt>
      <trkpt lat="44.88355" lon="0.34116">
        <ele>40.5</ele>
        <time>2022-04-05T09:16:32Z</time>
      </trkpt>
      <trkpt lat="44.88356" lon="0.34115">
        <ele>40.5</ele>
        <time>2022-04-05T09:16:33Z</time>
      </trkpt>
      <trkpt lat="44.88357" lon="0.34114">
        <ele>40.5</ele>
        <time>2022-04-05T09:16:34Z</time>
      </trkpt>
      <trkpt lat="44.88358" lon="0.34113">
        <ele>40.6</ele>
        <time>2022-04-05T09:16:35Z</time>
      </trkpt>
      <trkpt lat="44.88358" lon="0.34112">
        <ele>40.6</ele>
        <time>2022-04-05T09:16:36Z</time>
      </trkpt>
      <trkpt lat="44.88359" lon="0.3411">
        <ele>40.6</ele>
        <time>2022-04-05T09:16:37Z</time>
      </trkpt>
      <trkpt lat="44.8836" lon="0.34109">
        <ele>40.7</ele>
        <time>2022-04-05T09:16:38Z</time>
      </trkpt>
      <trkpt lat="44.88361" lon="0.34108">
        <ele>40.7</ele>
        <time>2022-04-05T09:16:39Z</time>
      </trkpt>
      <trkpt lat="44.88361" lon="0.34107">
        <ele>40.7</ele>
        <time>2022-04-05T09:16:40Z</time>
      </trkpt>
      <trkpt lat="44.88363" lon="0.34104">
        <ele>40.8</ele>
        <time>2022-04-05T09:16:42Z</time>
      </trkpt>
      <trkpt lat="44.88364" lon="0.34103">
        <ele>40.8</ele>
        <time>2022-04-05T09:16:44Z</time>
      </trkpt>
      <trkpt lat="44.88365" lon="0.34101">
        <ele>40.9</ele>
        <time>2022-04-05T09:16:45Z</time>
      </trkpt>
      <trkpt lat="44.88366" lon="0.34099">
        <ele>40.9</ele>
        <time>2022-04-05T09:16:46Z</time>
      </trkpt>
      <trkpt lat="44.88367" lon="0.34095">
        <ele>41</ele>
        <time>2022-04-05T09:16:48Z</time>
      </trkpt>
      <trkpt lat="44.88368" lon="0.34093">
        <ele>41.1</ele>
        <time>2022-04-05T09:16:49Z</time>
      </trkpt>
      <trkpt lat="44.88368" lon="0.34091">
        <ele>41.1</ele>
        <time>2022-04-05T09:16:50Z</time>
      </trkpt>
      <trkpt lat="44.88368" lon="0.3409">
        <ele>41.1</ele>
        <time>2022-04-05T09:16:51Z</time>
      </trkpt>
      <trkpt lat="44.88369" lon="0.34087">
        <ele>41.2</ele>
        <time>2022-04-05T09:16:52Z</time>
      </trkpt>
      <trkpt lat="44.8837" lon="0.34086">
        <ele>41.2</ele>
        <time>2022-04-05T09:16:53Z</time>
      </trkpt>
      <trkpt lat="44.88371" lon="0.34085">
        <ele>41.2</ele>
        <time>2022-04-05T09:16:54Z</time>
      </trkpt>
      <trkpt lat="44.88371" lon="0.34083">
        <ele>41.3</ele>
        <time>2022-04-05T09:16:55Z</time>
      </trkpt>
      <trkpt lat="44.88372" lon="0.34081">
        <ele>41.3</ele>
        <time>2022-04-05T09:16:56Z</time>
      </trkpt>
      <trkpt lat="44.88373" lon="0.34079">
        <ele>41.3</ele>
        <time>2022-04-05T09:16:58Z</time>
      </trkpt>
      <trkpt lat="44.88374" lon="0.34078">
        <ele>41.4</ele>
        <time>2022-04-05T09:16:59Z</time>
      </trkpt>
      <trkpt lat="44.88375" lon="0.34077">
        <ele>41.4</ele>
        <time>2022-04-05T09:17:00Z</time>
      </trkpt>
      <trkpt lat="44.88375" lon="0.34076">
        <ele>41.4</ele>
        <time>2022-04-05T09:17:01Z</time>
      </trkpt>
      <trkpt lat="44.88376" lon="0.34073">
        <ele>41.5</ele>
        <time>2022-04-05T09:17:02Z</time>
      </trkpt>
      <trkpt lat="44.88376" lon="0.34073">
        <ele>41.5</ele>
        <time>2022-04-05T09:17:03Z</time>
      </trkpt>
      <trkpt lat="44.88376" lon="0.34071">
        <ele>41.5</ele>
        <time>2022-04-05T09:17:04Z</time>
      </trkpt>
      <trkpt lat="44.88377" lon="0.34069">
        <ele>41.6</ele>
        <time>2022-04-05T09:17:05Z</time>
      </trkpt>
      <trkpt lat="44.88377" lon="0.34067">
        <ele>41.6</ele>
        <time>2022-04-05T09:17:06Z</time>
      </trkpt>
      <trkpt lat="44.88378" lon="0.34064">
        <ele>41.6</ele>
        <time>2022-04-05T09:17:07Z</time>
      </trkpt>
      <trkpt lat="44.88378" lon="0.34063">
        <ele>41.7</ele>
        <time>2022-04-05T09:17:08Z</time>
      </trkpt>
      <trkpt lat="44.88378" lon="0.3406">
        <ele>41.7</ele>
        <time>2022-04-05T09:17:09Z</time>
      </trkpt>
      <trkpt lat="44.88379" lon="0.34058">
        <ele>41.7</ele>
        <time>2022-04-05T09:17:10Z</time>
      </trkpt>
      <trkpt lat="44.88379" lon="0.34057">
        <ele>41.8</ele>
        <time>2022-04-05T09:17:11Z</time>
      </trkpt>
      <trkpt lat="44.8838" lon="0.34054">
        <ele>41.8</ele>
        <time>2022-04-05T09:17:12Z</time>
      </trkpt>
      <trkpt lat="44.8838" lon="0.34053">
        <ele>41.8</ele>
        <time>2022-04-05T09:17:13Z</time>
      </trkpt>
      <trkpt lat="44.88381" lon="0.34052">
        <ele>41.8</ele>
        <time>2022-04-05T09:17:14Z</time>
      </trkpt>
      <trkpt lat="44.88381" lon="0.3405">
        <ele>41.9</ele>
        <time>2022-04-05T09:17:15Z</time>
      </trkpt>
      <trkpt lat="44.88382" lon="0.34049">
        <ele>41.9</ele>
        <time>2022-04-05T09:17:16Z</time>
      </trkpt>
      <trkpt lat="44.88383" lon="0.34045">
        <ele>42</ele>
        <time>2022-04-05T09:17:17Z</time>
      </trkpt>
      <trkpt lat="44.88383" lon="0.34043">
        <ele>42</ele>
        <time>2022-04-05T09:17:19Z</time>
      </trkpt>
      <trkpt lat="44.88384" lon="0.34042">
        <ele>42</ele>
        <time>2022-04-05T09:17:20Z</time>
      </trkpt>
      <trkpt lat="44.88384" lon="0.3404">
        <ele>42</ele>
        <time>2022-04-05T09:17:21Z</time>
      </trkpt>
      <trkpt lat="44.88385" lon="0.34039">
        <ele>42.1</ele>
        <time>2022-04-05T09:17:22Z</time>
      </trkpt>
      <trkpt lat="44.88386" lon="0.34036">
        <ele>42.1</ele>
        <time>2022-04-05T09:17:23Z</time>
      </trkpt>
      <trkpt lat="44.88386" lon="0.34035">
        <ele>42.1</ele>
        <time>2022-04-05T09:17:25Z</time>
      </trkpt>
      <trkpt lat="44.88386" lon="0.34034">
        <ele>42.1</ele>
        <time>2022-04-05T09:17:26Z</time>
      </trkpt>
      <trkpt lat="44.88388" lon="0.34032">
        <ele>42.2</ele>
        <time>2022-04-05T09:17:28Z</time>
      </trkpt>
      <trkpt lat="44.88388" lon="0.34031">
        <ele>42.2</ele>
        <time>2022-04-05T09:17:29Z</time>
      </trkpt>
      <trkpt lat="44.88389" lon="0.34029">
        <ele>42.2</ele>
        <time>2022-04-05T09:17:30Z</time>
      </trkpt>
      <trkpt lat="44.88389" lon="0.34028">
        <ele>42.3</ele>
        <time>2022-04-05T09:17:31Z</time>
      </trkpt>
      <trkpt lat="44.8839" lon="0.34027">
        <ele>42.3</ele>
        <time>2022-04-05T09:17:32Z</time>
      </trkpt>
      <trkpt lat="44.88391" lon="0.34025">
        <ele>42.3</ele>
        <time>2022-04-05T09:17:33Z</time>
      </trkpt>
      <trkpt lat="44.88391" lon="0.34024">
        <ele>42.3</ele>
        <time>2022-04-05T09:17:34Z</time>
      </trkpt>
      <trkpt lat="44.88392" lon="0.34022">
        <ele>42.4</ele>
        <time>2022-04-05T09:17:35Z</time>
      </trkpt>
      <trkpt lat="44.88393" lon="0.3402">
        <ele>42.4</ele>
        <time>2022-04-05T09:17:36Z</time>
      </trkpt>
      <trkpt lat="44.88394" lon="0.34017">
        <ele>42.4</ele>
        <time>2022-04-05T09:17:37Z</time>
      </trkpt>
      <trkpt lat="44.88395" lon="0.34016">
        <ele>42.5</ele>
        <time>2022-04-05T09:17:38Z</time>
      </trkpt>
      <trkpt lat="44.88395" lon="0.34015">
        <ele>42.5</ele>
        <time>2022-04-05T09:17:39Z</time>
      </trkpt>
      <trkpt lat="44.88396" lon="0.34013">
        <ele>42.5</ele>
        <time>2022-04-05T09:17:41Z</time>
      </trkpt>
      <trkpt lat="44.88397" lon="0.3401">
        <ele>42.6</ele>
        <time>2022-04-05T09:17:43Z</time>
      </trkpt>
      <trkpt lat="44.88398" lon="0.34009">
        <ele>42.6</ele>
        <time>2022-04-05T09:17:44Z</time>
      </trkpt>
      <trkpt lat="44.88398" lon="0.34008">
        <ele>42.6</ele>
        <time>2022-04-05T09:17:45Z</time>
      </trkpt>
      <trkpt lat="44.88399" lon="0.34007">
        <ele>42.6</ele>
        <time>2022-04-05T09:17:46Z</time>
      </trkpt>
      <trkpt lat="44.884" lon="0.34004">
        <ele>42.7</ele>
        <time>2022-04-05T09:17:48Z</time>
      </trkpt>
      <trkpt lat="44.88401" lon="0.34001">
        <ele>42.7</ele>
        <time>2022-04-05T09:17:49Z</time>
      </trkpt>
      <trkpt lat="44.88401" lon="0.33999">
        <ele>42.7</ele>
        <time>2022-04-05T09:17:50Z</time>
      </trkpt>
      <trkpt lat="44.88402" lon="0.33998">
        <ele>42.7</ele>
        <time>2022-04-05T09:17:51Z</time>
      </trkpt>
      <trkpt lat="44.88403" lon="0.33996">
        <ele>42.8</ele>
        <time>2022-04-05T09:17:52Z</time>
      </trkpt>
      <trkpt lat="44.88404" lon="0.33994">
        <ele>42.8</ele>
        <time>2022-04-05T09:17:53Z</time>
      </trkpt>
      <trkpt lat="44.88405" lon="0.33992">
        <ele>42.8</ele>
        <time>2022-04-05T09:17:54Z</time>
      </trkpt>
      <trkpt lat="44.88405" lon="0.33991">
        <ele>42.9</ele>
        <time>2022-04-05T09:17:55Z</time>
      </trkpt>
      <trkpt lat="44.88405" lon="0.3399">
        <ele>42.9</ele>
        <time>2022-04-05T09:17:56Z</time>
      </trkpt>
      <trkpt lat="44.88407" lon="0.33987">
        <ele>42.9</ele>
        <time>2022-04-05T09:17:57Z</time>
      </trkpt>
      <trkpt lat="44.88407" lon="0.33986">
        <ele>42.9</ele>
        <time>2022-04-05T09:17:58Z</time>
      </trkpt>
      <trkpt lat="44.88408" lon="0.33984">
        <ele>43</ele>
        <time>2022-04-05T09:18:00Z</time>
      </trkpt>
      <trkpt lat="44.88408" lon="0.33983">
        <ele>43</ele>
        <time>2022-04-05T09:18:01Z</time>
      </trkpt>
      <trkpt lat="44.88409" lon="0.33981">
        <ele>43</ele>
        <time>2022-04-05T09:18:02Z</time>
      </trkpt>
      <trkpt lat="44.8841" lon="0.33978">
        <ele>43.1</ele>
        <time>2022-04-05T09:18:03Z</time>
      </trkpt>
      <trkpt lat="44.88411" lon="0.33975">
        <ele>43.1</ele>
        <time>2022-04-05T09:18:04Z</time>
      </trkpt>
      <trkpt lat="44.88411" lon="0.33974">
        <ele>43.1</ele>
        <time>2022-04-05T09:18:05Z</time>
      </trkpt>
      <trkpt lat="44.88411" lon="0.33973">
        <ele>43.1</ele>
        <time>2022-04-05T09:18:06Z</time>
      </trkpt>
      <trkpt lat="44.88412" lon="0.33971">
        <ele>43.2</ele>
        <time>2022-04-05T09:18:07Z</time>
      </trkpt>
      <trkpt lat="44.88413" lon="0.33969">
        <ele>43.2</ele>
        <time>2022-04-05T09:18:08Z</time>
      </trkpt>
      <trkpt lat="44.88414" lon="0.33966">
        <ele>43.2</ele>
        <time>2022-04-05T09:18:09Z</time>
      </trkpt>
      <trkpt lat="44.88414" lon="0.33965">
        <ele>43.3</ele>
        <time>2022-04-05T09:18:10Z</time>
      </trkpt>
      <trkpt lat="44.88414" lon="0.33964">
        <ele>43.3</ele>
        <time>2022-04-05T09:18:11Z</time>
      </trkpt>
      <trkpt lat="44.88415" lon="0.33961">
        <ele>43.3</ele>
        <time>2022-04-05T09:18:12Z</time>
      </trkpt>
      <trkpt lat="44.88415" lon="0.3396">
        <ele>43.3</ele>
        <time>2022-04-05T09:18:13Z</time>
      </trkpt>
      <trkpt lat="44.88416" lon="0.33959">
        <ele>43.3</ele>
        <time>2022-04-05T09:18:14Z</time>
      </trkpt>
      <trkpt lat="44.88417" lon="0.33958">
        <ele>43.4</ele>
        <time>2022-04-05T09:18:15Z</time>
      </trkpt>
      <trkpt lat="44.88418" lon="0.33956">
        <ele>43.4</ele>
        <time>2022-04-05T09:18:16Z</time>
      </trkpt>
      <trkpt lat="44.88419" lon="0.33954">
        <ele>43.4</ele>
        <time>2022-04-05T09:18:18Z</time>
      </trkpt>
      <trkpt lat="44.8842" lon="0.33953">
        <ele>43.4</ele>
        <time>2022-04-05T09:18:19Z</time>
      </trkpt>
      <trkpt lat="44.88421" lon="0.33952">
        <ele>43.4</ele>
        <time>2022-04-05T09:18:20Z</time>
      </trkpt>
      <trkpt lat="44.88422" lon="0.3395">
        <ele>43.3</ele>
        <time>2022-04-05T09:18:21Z</time>
      </trkpt>
      <trkpt lat="44.88423" lon="0.33949">
        <ele>43.3</ele>
        <time>2022-04-05T09:18:22Z</time>
      </trkpt>
      <trkpt lat="44.88424" lon="0.33947">
        <ele>43.3</ele>
        <time>2022-04-05T09:18:23Z</time>
      </trkpt>
      <trkpt lat="44.88425" lon="0.33946">
        <ele>43.3</ele>
        <time>2022-04-05T09:18:24Z</time>
      </trkpt>
      <trkpt lat="44.88426" lon="0.33945">
        <ele>43.2</ele>
        <time>2022-04-05T09:18:25Z</time>
      </trkpt>
      <trkpt lat="44.88427" lon="0.33944">
        <ele>43.2</ele>
        <time>2022-04-05T09:18:26Z</time>
      </trkpt>
      <trkpt lat="44.88429" lon="0.33943">
        <ele>43.1</ele>
        <time>2022-04-05T09:18:27Z</time>
      </trkpt>
      <trkpt lat="44.88429" lon="0.33943">
        <ele>43.1</ele>
        <time>2022-04-05T09:18:28Z</time>
      </trkpt>
      <trkpt lat="44.8843" lon="0.33942">
        <ele>43.1</ele>
        <time>2022-04-05T09:18:30Z</time>
      </trkpt>
      <trkpt lat="44.88431" lon="0.33941">
        <ele>43.1</ele>
        <time>2022-04-05T09:18:31Z</time>
      </trkpt>
      <trkpt lat="44.88432" lon="0.33941">
        <ele>43</ele>
        <time>2022-04-05T09:18:32Z</time>
      </trkpt>
      <trkpt lat="44.88434" lon="0.33941">
        <ele>43</ele>
        <time>2022-04-05T09:18:33Z</time>
      </trkpt>
      <trkpt lat="44.88435" lon="0.33942">
        <ele>43</ele>
        <time>2022-04-05T09:18:34Z</time>
      </trkpt>
      <trkpt lat="44.88436" lon="0.33943">
        <ele>42.9</ele>
        <time>2022-04-05T09:18:35Z</time>
      </trkpt>
      <trkpt lat="44.88437" lon="0.33943">
        <ele>42.9</ele>
        <time>2022-04-05T09:18:36Z</time>
      </trkpt>
      <trkpt lat="44.88439" lon="0.33944">
        <ele>42.9</ele>
        <time>2022-04-05T09:18:38Z</time>
      </trkpt>
      <trkpt lat="44.8844" lon="0.33945">
        <ele>42.9</ele>
        <time>2022-04-05T09:18:39Z</time>
      </trkpt>
      <trkpt lat="44.88441" lon="0.33945">
        <ele>42.8</ele>
        <time>2022-04-05T09:18:40Z</time>
      </trkpt>
      <trkpt lat="44.88442" lon="0.33946">
        <ele>42.8</ele>
        <time>2022-04-05T09:18:41Z</time>
      </trkpt>
      <trkpt lat="44.88443" lon="0.33947">
        <ele>42.8</ele>
        <time>2022-04-05T09:18:42Z</time>
      </trkpt>
      <trkpt lat="44.88445" lon="0.33948">
        <ele>42.8</ele>
        <time>2022-04-05T09:18:43Z</time>
      </trkpt>
      <trkpt lat="44.88445" lon="0.33949">
        <ele>42.8</ele>
        <time>2022-04-05T09:18:44Z</time>
      </trkpt>
      <trkpt lat="44.88446" lon="0.33949">
        <ele>42.7</ele>
        <time>2022-04-05T09:18:45Z</time>
      </trkpt>
      <trkpt lat="44.88447" lon="0.33949">
        <ele>42.7</ele>
        <time>2022-04-05T09:18:46Z</time>
      </trkpt>
      <trkpt lat="44.8845" lon="0.33951">
        <ele>42.7</ele>
        <time>2022-04-05T09:18:48Z</time>
      </trkpt>
      <trkpt lat="44.8845" lon="0.33951">
        <ele>42.7</ele>
        <time>2022-04-05T09:18:49Z</time>
      </trkpt>
      <trkpt lat="44.88451" lon="0.33951">
        <ele>42.7</ele>
        <time>2022-04-05T09:18:50Z</time>
      </trkpt>
      <trkpt lat="44.88453" lon="0.33953">
        <ele>42.7</ele>
        <time>2022-04-05T09:18:51Z</time>
      </trkpt>
      <trkpt lat="44.88454" lon="0.33953">
        <ele>42.7</ele>
        <time>2022-04-05T09:18:52Z</time>
      </trkpt>
      <trkpt lat="44.88455" lon="0.33954">
        <ele>42.7</ele>
        <time>2022-04-05T09:18:53Z</time>
      </trkpt>
      <trkpt lat="44.88455" lon="0.33955">
        <ele>42.7</ele>
        <time>2022-04-05T09:18:54Z</time>
      </trkpt>
      <trkpt lat="44.88456" lon="0.33956">
        <ele>42.7</ele>
        <time>2022-04-05T09:18:55Z</time>
      </trkpt>
      <trkpt lat="44.88457" lon="0.33957">
        <ele>42.7</ele>
        <time>2022-04-05T09:18:56Z</time>
      </trkpt>
      <trkpt lat="44.88459" lon="0.33958">
        <ele>42.7</ele>
        <time>2022-04-05T09:18:57Z</time>
      </trkpt>
      <trkpt lat="44.88459" lon="0.33959">
        <ele>42.7</ele>
        <time>2022-04-05T09:18:58Z</time>
      </trkpt>
      <trkpt lat="44.88461" lon="0.3396">
        <ele>42.7</ele>
        <time>2022-04-05T09:19:00Z</time>
      </trkpt>
      <trkpt lat="44.88462" lon="0.33961">
        <ele>42.7</ele>
        <time>2022-04-05T09:19:01Z</time>
      </trkpt>
      <trkpt lat="44.88463" lon="0.33961">
        <ele>42.7</ele>
        <time>2022-04-05T09:19:02Z</time>
      </trkpt>
      <trkpt lat="44.88464" lon="0.33963">
        <ele>42.7</ele>
        <time>2022-04-05T09:19:03Z</time>
      </trkpt>
      <trkpt lat="44.88464" lon="0.33964">
        <ele>42.7</ele>
        <time>2022-04-05T09:19:04Z</time>
      </trkpt>
      <trkpt lat="44.88464" lon="0.33965">
        <ele>42.7</ele>
        <time>2022-04-05T09:19:05Z</time>
      </trkpt>
      <trkpt lat="44.88465" lon="0.33966">
        <ele>42.7</ele>
        <time>2022-04-05T09:19:06Z</time>
      </trkpt>
      <trkpt lat="44.88465" lon="0.3397">
        <ele>42.7</ele>
        <time>2022-04-05T09:19:08Z</time>
      </trkpt>
      <trkpt lat="44.88465" lon="0.33971">
        <ele>42.7</ele>
        <time>2022-04-05T09:19:09Z</time>
      </trkpt>
      <trkpt lat="44.88466" lon="0.33972">
        <ele>42.8</ele>
        <time>2022-04-05T09:19:10Z</time>
      </trkpt>
      <trkpt lat="44.88467" lon="0.33972">
        <ele>42.8</ele>
        <time>2022-04-05T09:19:11Z</time>
      </trkpt>
      <trkpt lat="44.88468" lon="0.33973">
        <ele>42.8</ele>
        <time>2022-04-05T09:19:12Z</time>
      </trkpt>
      <trkpt lat="44.88469" lon="0.33973">
        <ele>42.8</ele>
        <time>2022-04-05T09:19:13Z</time>
      </trkpt>
      <trkpt lat="44.88471" lon="0.33974">
        <ele>42.8</ele>
        <time>2022-04-05T09:19:15Z</time>
      </trkpt>
      <trkpt lat="44.88473" lon="0.33974">
        <ele>42.9</ele>
        <time>2022-04-05T09:19:16Z</time>
      </trkpt>
      <trkpt lat="44.88474" lon="0.33974">
        <ele>42.9</ele>
        <time>2022-04-05T09:19:17Z</time>
      </trkpt>
      <trkpt lat="44.88476" lon="0.33975">
        <ele>42.9</ele>
        <time>2022-04-05T09:19:18Z</time>
      </trkpt>
      <trkpt lat="44.88477" lon="0.33975">
        <ele>42.9</ele>
        <time>2022-04-05T09:19:19Z</time>
      </trkpt>
      <trkpt lat="44.88479" lon="0.33976">
        <ele>43</ele>
        <time>2022-04-05T09:19:21Z</time>
      </trkpt>
      <trkpt lat="44.8848" lon="0.33976">
        <ele>43</ele>
        <time>2022-04-05T09:19:22Z</time>
      </trkpt>
      <trkpt lat="44.8848" lon="0.33976">
        <ele>43</ele>
        <time>2022-04-05T09:19:23Z</time>
      </trkpt>
      <trkpt lat="44.88482" lon="0.33977">
        <ele>43</ele>
        <time>2022-04-05T09:19:24Z</time>
      </trkpt>
      <trkpt lat="44.88483" lon="0.33978">
        <ele>43</ele>
        <time>2022-04-05T09:19:25Z</time>
      </trkpt>
      <trkpt lat="44.88484" lon="0.33978">
        <ele>43.1</ele>
        <time>2022-04-05T09:19:27Z</time>
      </trkpt>
      <trkpt lat="44.88486" lon="0.33979">
        <ele>43.1</ele>
        <time>2022-04-05T09:19:28Z</time>
      </trkpt>
      <trkpt lat="44.88487" lon="0.3398">
        <ele>43.1</ele>
        <time>2022-04-05T09:19:29Z</time>
      </trkpt>
      <trkpt lat="44.88488" lon="0.3398">
        <ele>43.2</ele>
        <time>2022-04-05T09:19:30Z</time>
      </trkpt>
      <trkpt lat="44.88489" lon="0.33981">
        <ele>43.2</ele>
        <time>2022-04-05T09:19:31Z</time>
      </trkpt>
      <trkpt lat="44.8849" lon="0.33981">
        <ele>43.3</ele>
        <time>2022-04-05T09:19:32Z</time>
      </trkpt>
      <trkpt lat="44.88491" lon="0.33982">
        <ele>43.3</ele>
        <time>2022-04-05T09:19:33Z</time>
      </trkpt>
      <trkpt lat="44.88492" lon="0.33982">
        <ele>43.3</ele>
        <time>2022-04-05T09:19:34Z</time>
      </trkpt>
      <trkpt lat="44.88493" lon="0.33983">
        <ele>43.3</ele>
        <time>2022-04-05T09:19:36Z</time>
      </trkpt>
      <trkpt lat="44.88495" lon="0.33983">
        <ele>43.3</ele>
        <time>2022-04-05T09:19:37Z</time>
      </trkpt>
      <trkpt lat="44.88496" lon="0.33983">
        <ele>43.3</ele>
        <time>2022-04-05T09:19:38Z</time>
      </trkpt>
      <trkpt lat="44.88497" lon="0.33983">
        <ele>43.3</ele>
        <time>2022-04-05T09:19:39Z</time>
      </trkpt>
      <trkpt lat="44.88498" lon="0.33984">
        <ele>43.4</ele>
        <time>2022-04-05T09:19:40Z</time>
      </trkpt>
      <trkpt lat="44.88499" lon="0.33984">
        <ele>43.4</ele>
        <time>2022-04-05T09:19:41Z</time>
      </trkpt>
      <trkpt lat="44.88501" lon="0.33985">
        <ele>43.4</ele>
        <time>2022-04-05T09:19:43Z</time>
      </trkpt>
      <trkpt lat="44.88502" lon="0.33986">
        <ele>43.4</ele>
        <time>2022-04-05T09:19:44Z</time>
      </trkpt>
      <trkpt lat="44.88503" lon="0.33987">
        <ele>43.4</ele>
        <time>2022-04-05T09:19:45Z</time>
      </trkpt>
      <trkpt lat="44.88504" lon="0.33988">
        <ele>43.5</ele>
        <time>2022-04-05T09:19:46Z</time>
      </trkpt>
      <trkpt lat="44.88505" lon="0.33989">
        <ele>43.5</ele>
        <time>2022-04-05T09:19:47Z</time>
      </trkpt>
      <trkpt lat="44.88506" lon="0.33989">
        <ele>43.5</ele>
        <time>2022-04-05T09:19:48Z</time>
      </trkpt>
      <trkpt lat="44.88508" lon="0.33989">
        <ele>43.5</ele>
        <time>2022-04-05T09:19:49Z</time>
      </trkpt>
      <trkpt lat="44.88509" lon="0.33989">
        <ele>43.5</ele>
        <time>2022-04-05T09:19:50Z</time>
      </trkpt>
      <trkpt lat="44.8851" lon="0.3399">
        <ele>43.5</ele>
        <time>2022-04-05T09:19:52Z</time>
      </trkpt>
      <trkpt lat="44.88512" lon="0.3399">
        <ele>43.5</ele>
        <time>2022-04-05T09:19:53Z</time>
      </trkpt>
      <trkpt lat="44.88513" lon="0.33991">
        <ele>43.6</ele>
        <time>2022-04-05T09:19:54Z</time>
      </trkpt>
      <trkpt lat="44.88514" lon="0.33992">
        <ele>43.6</ele>
        <time>2022-04-05T09:19:55Z</time>
      </trkpt>
      <trkpt lat="44.88515" lon="0.33992">
        <ele>43.6</ele>
        <time>2022-04-05T09:19:56Z</time>
      </trkpt>
      <trkpt lat="44.88516" lon="0.33993">
        <ele>43.6</ele>
        <time>2022-04-05T09:19:57Z</time>
      </trkpt>
      <trkpt lat="44.88518" lon="0.33994">
        <ele>43.6</ele>
        <time>2022-04-05T09:19:58Z</time>
      </trkpt>
      <trkpt lat="44.88519" lon="0.33994">
        <ele>43.7</ele>
        <time>2022-04-05T09:19:59Z</time>
      </trkpt>
      <trkpt lat="44.8852" lon="0.33995">
        <ele>43.7</ele>
        <time>2022-04-05T09:20:00Z</time>
      </trkpt>
      <trkpt lat="44.88521" lon="0.33996">
        <ele>43.7</ele>
        <time>2022-04-05T09:20:02Z</time>
      </trkpt>
      <trkpt lat="44.88523" lon="0.33997">
        <ele>43.7</ele>
        <time>2022-04-05T09:20:03Z</time>
      </trkpt>
      <trkpt lat="44.88524" lon="0.33998">
        <ele>43.7</ele>
        <time>2022-04-05T09:20:04Z</time>
      </trkpt>
      <trkpt lat="44.88526" lon="0.33999">
        <ele>43.8</ele>
        <time>2022-04-05T09:20:05Z</time>
      </trkpt>
      <trkpt lat="44.88527" lon="0.34">
        <ele>43.8</ele>
        <time>2022-04-05T09:20:06Z</time>
      </trkpt>
      <trkpt lat="44.88528" lon="0.34">
        <ele>43.8</ele>
        <time>2022-04-05T09:20:07Z</time>
      </trkpt>
      <trkpt lat="44.88531" lon="0.34002">
        <ele>43.8</ele>
        <time>2022-04-05T09:20:08Z</time>
      </trkpt>
      <trkpt lat="44.88532" lon="0.34002">
        <ele>43.8</ele>
        <time>2022-04-05T09:20:10Z</time>
      </trkpt>
      <trkpt lat="44.88533" lon="0.34002">
        <ele>43.8</ele>
        <time>2022-04-05T09:20:11Z</time>
      </trkpt>
      <trkpt lat="44.88534" lon="0.34002">
        <ele>43.9</ele>
        <time>2022-04-05T09:20:12Z</time>
      </trkpt>
      <trkpt lat="44.88535" lon="0.34003">
        <ele>43.9</ele>
        <time>2022-04-05T09:20:13Z</time>
      </trkpt>
      <trkpt lat="44.88537" lon="0.34003">
        <ele>43.9</ele>
        <time>2022-04-05T09:20:14Z</time>
      </trkpt>
      <trkpt lat="44.88538" lon="0.34003">
        <ele>43.9</ele>
        <time>2022-04-05T09:20:15Z</time>
      </trkpt>
      <trkpt lat="44.88539" lon="0.34004">
        <ele>43.9</ele>
        <time>2022-04-05T09:20:16Z</time>
      </trkpt>
      <trkpt lat="44.8854" lon="0.34004">
        <ele>43.9</ele>
        <time>2022-04-05T09:20:17Z</time>
      </trkpt>
      <trkpt lat="44.88541" lon="0.34005">
        <ele>44</ele>
        <time>2022-04-05T09:20:18Z</time>
      </trkpt>
      <trkpt lat="44.88542" lon="0.34005">
        <ele>44</ele>
        <time>2022-04-05T09:20:19Z</time>
      </trkpt>
      <trkpt lat="44.88543" lon="0.34005">
        <ele>44</ele>
        <time>2022-04-05T09:20:20Z</time>
      </trkpt>
      <trkpt lat="44.88544" lon="0.34006">
        <ele>44</ele>
        <time>2022-04-05T09:20:21Z</time>
      </trkpt>
      <trkpt lat="44.88546" lon="0.34006">
        <ele>44</ele>
        <time>2022-04-05T09:20:22Z</time>
      </trkpt>
      <trkpt lat="44.88547" lon="0.34007">
        <ele>43.9</ele>
        <time>2022-04-05T09:20:23Z</time>
      </trkpt>
      <trkpt lat="44.88549" lon="0.34007">
        <ele>43.9</ele>
        <time>2022-04-05T09:20:25Z</time>
      </trkpt>
      <trkpt lat="44.88549" lon="0.34009">
        <ele>43.9</ele>
        <time>2022-04-05T09:20:26Z</time>
      </trkpt>
      <trkpt lat="44.88548" lon="0.3401">
        <ele>43.9</ele>
        <time>2022-04-05T09:20:27Z</time>
      </trkpt>
      <trkpt lat="44.88546" lon="0.3401">
        <ele>43.9</ele>
        <time>2022-04-05T09:20:28Z</time>
      </trkpt>
      <trkpt lat="44.88543" lon="0.3401">
        <ele>43.8</ele>
        <time>2022-04-05T09:20:30Z</time>
      </trkpt>
      <trkpt lat="44.8854" lon="0.34009">
        <ele>43.8</ele>
        <time>2022-04-05T09:20:31Z</time>
      </trkpt>
      <trkpt lat="44.88539" lon="0.34009">
        <ele>43.8</ele>
        <time>2022-04-05T09:20:32Z</time>
      </trkpt>
      <trkpt lat="44.88536" lon="0.34008">
        <ele>43.8</ele>
        <time>2022-04-05T09:20:33Z</time>
      </trkpt>
      <trkpt lat="44.88535" lon="0.34007">
        <ele>43.8</ele>
        <time>2022-04-05T09:20:34Z</time>
      </trkpt>
      <trkpt lat="44.88532" lon="0.34006">
        <ele>43.7</ele>
        <time>2022-04-05T09:20:35Z</time>
      </trkpt>
      <trkpt lat="44.88531" lon="0.34005">
        <ele>43.7</ele>
        <time>2022-04-05T09:20:36Z</time>
      </trkpt>
      <trkpt lat="44.88528" lon="0.34004">
        <ele>43.7</ele>
        <time>2022-04-05T09:20:38Z</time>
      </trkpt>
      <trkpt lat="44.88527" lon="0.34004">
        <ele>43.7</ele>
        <time>2022-04-05T09:20:39Z</time>
      </trkpt>
      <trkpt lat="44.88525" lon="0.34003">
        <ele>43.6</ele>
        <time>2022-04-05T09:20:40Z</time>
      </trkpt>
      <trkpt lat="44.88524" lon="0.34003">
        <ele>43.6</ele>
        <time>2022-04-05T09:20:41Z</time>
      </trkpt>
      <trkpt lat="44.88522" lon="0.34002">
        <ele>43.6</ele>
        <time>2022-04-05T09:20:42Z</time>
      </trkpt>
      <trkpt lat="44.88521" lon="0.34002">
        <ele>43.6</ele>
        <time>2022-04-05T09:20:43Z</time>
      </trkpt>
      <trkpt lat="44.88519" lon="0.34001">
        <ele>43.6</ele>
        <time>2022-04-05T09:20:44Z</time>
      </trkpt>
      <trkpt lat="44.88517" lon="0.34">
        <ele>43.6</ele>
        <time>2022-04-05T09:20:45Z</time>
      </trkpt>
      <trkpt lat="44.88516" lon="0.33999">
        <ele>43.5</ele>
        <time>2022-04-05T09:20:46Z</time>
      </trkpt>
      <trkpt lat="44.88514" lon="0.33998">
        <ele>43.5</ele>
        <time>2022-04-05T09:20:47Z</time>
      </trkpt>
      <trkpt lat="44.88513" lon="0.33996">
        <ele>43.5</ele>
        <time>2022-04-05T09:20:48Z</time>
      </trkpt>
      <trkpt lat="44.88511" lon="0.33995">
        <ele>43.5</ele>
        <time>2022-04-05T09:20:50Z</time>
      </trkpt>
      <trkpt lat="44.8851" lon="0.33994">
        <ele>43.5</ele>
        <time>2022-04-05T09:20:51Z</time>
      </trkpt>
      <trkpt lat="44.88508" lon="0.33994">
        <ele>43.5</ele>
        <time>2022-04-05T09:20:52Z</time>
      </trkpt>
      <trkpt lat="44.88507" lon="0.33993">
        <ele>43.4</ele>
        <time>2022-04-05T09:20:53Z</time>
      </trkpt>
      <trkpt lat="44.88506" lon="0.33992">
        <ele>43.4</ele>
        <time>2022-04-05T09:20:54Z</time>
      </trkpt>
      <trkpt lat="44.88504" lon="0.33991">
        <ele>43.4</ele>
        <time>2022-04-05T09:20:55Z</time>
      </trkpt>
      <trkpt lat="44.88503" lon="0.33991">
        <ele>43.4</ele>
        <time>2022-04-05T09:20:56Z</time>
      </trkpt>
      <trkpt lat="44.88501" lon="0.33989">
        <ele>43.4</ele>
        <time>2022-04-05T09:20:57Z</time>
      </trkpt>
      <trkpt lat="44.885" lon="0.33989">
        <ele>43.4</ele>
        <time>2022-04-05T09:20:58Z</time>
      </trkpt>
      <trkpt lat="44.88499" lon="0.33988">
        <ele>43.4</ele>
        <time>2022-04-05T09:20:59Z</time>
      </trkpt>
      <trkpt lat="44.88498" lon="0.33987">
        <ele>43.3</ele>
        <time>2022-04-05T09:21:00Z</time>
      </trkpt>
      <trkpt lat="44.88497" lon="0.33986">
        <ele>43.3</ele>
        <time>2022-04-05T09:21:01Z</time>
      </trkpt>
      <trkpt lat="44.88495" lon="0.33985">
        <ele>43.3</ele>
        <time>2022-04-05T09:21:02Z</time>
      </trkpt>
      <trkpt lat="44.88494" lon="0.33983">
        <ele>43.3</ele>
        <time>2022-04-05T09:21:04Z</time>
      </trkpt>
      <trkpt lat="44.88493" lon="0.33982">
        <ele>43.3</ele>
        <time>2022-04-05T09:21:05Z</time>
      </trkpt>
      <trkpt lat="44.88491" lon="0.33981">
        <ele>43.3</ele>
        <time>2022-04-05T09:21:06Z</time>
      </trkpt>
      <trkpt lat="44.8849" lon="0.3398">
        <ele>43.2</ele>
        <time>2022-04-05T09:21:07Z</time>
      </trkpt>
      <trkpt lat="44.88489" lon="0.33979">
        <ele>43.2</ele>
        <time>2022-04-05T09:21:08Z</time>
      </trkpt>
      <trkpt lat="44.88488" lon="0.33978">
        <ele>43.2</ele>
        <time>2022-04-05T09:21:09Z</time>
      </trkpt>
      <trkpt lat="44.88488" lon="0.33977">
        <ele>43.2</ele>
        <time>2022-04-05T09:21:10Z</time>
      </trkpt>
      <trkpt lat="44.88488" lon="0.33975">
        <ele>43.2</ele>
        <time>2022-04-05T09:21:11Z</time>
      </trkpt>
      <trkpt lat="44.88488" lon="0.33973">
        <ele>43.3</ele>
        <time>2022-04-05T09:21:12Z</time>
      </trkpt>
      <trkpt lat="44.88489" lon="0.33971">
        <ele>43.3</ele>
        <time>2022-04-05T09:21:13Z</time>
      </trkpt>
      <trkpt lat="44.8849" lon="0.33969">
        <ele>43.3</ele>
        <time>2022-04-05T09:21:14Z</time>
      </trkpt>
      <trkpt lat="44.88492" lon="0.33966">
        <ele>43.4</ele>
        <time>2022-04-05T09:21:16Z</time>
      </trkpt>
      <trkpt lat="44.88493" lon="0.33964">
        <ele>43.5</ele>
        <time>2022-04-05T09:21:17Z</time>
      </trkpt>
      <trkpt lat="44.88494" lon="0.33963">
        <ele>43.5</ele>
        <time>2022-04-05T09:21:18Z</time>
      </trkpt>
      <trkpt lat="44.88494" lon="0.33962">
        <ele>43.5</ele>
        <time>2022-04-05T09:21:19Z</time>
      </trkpt>
      <trkpt lat="44.88495" lon="0.3396">
        <ele>43.5</ele>
        <time>2022-04-05T09:21:20Z</time>
      </trkpt>
      <trkpt lat="44.88496" lon="0.33958">
        <ele>43.6</ele>
        <time>2022-04-05T09:21:21Z</time>
      </trkpt>
      <trkpt lat="44.88497" lon="0.33956">
        <ele>43.6</ele>
        <time>2022-04-05T09:21:22Z</time>
      </trkpt>
      <trkpt lat="44.88497" lon="0.33954">
        <ele>43.6</ele>
        <time>2022-04-05T09:21:23Z</time>
      </trkpt>
      <trkpt lat="44.88497" lon="0.33952">
        <ele>43.7</ele>
        <time>2022-04-05T09:21:24Z</time>
      </trkpt>
      <trkpt lat="44.88498" lon="0.3395">
        <ele>43.7</ele>
        <time>2022-04-05T09:21:25Z</time>
      </trkpt>
      <trkpt lat="44.88498" lon="0.33949">
        <ele>43.7</ele>
        <time>2022-04-05T09:21:26Z</time>
      </trkpt>
      <trkpt lat="44.88499" lon="0.33947">
        <ele>43.8</ele>
        <time>2022-04-05T09:21:27Z</time>
      </trkpt>
      <trkpt lat="44.88499" lon="0.33945">
        <ele>43.8</ele>
        <time>2022-04-05T09:21:28Z</time>
      </trkpt>
      <trkpt lat="44.88499" lon="0.33943">
        <ele>43.8</ele>
        <time>2022-04-05T09:21:29Z</time>
      </trkpt>
      <trkpt lat="44.885" lon="0.33942">
        <ele>43.9</ele>
        <time>2022-04-05T09:21:30Z</time>
      </trkpt>
      <trkpt lat="44.885" lon="0.33939">
        <ele>43.9</ele>
        <time>2022-04-05T09:21:31Z</time>
      </trkpt>
      <trkpt lat="44.885" lon="0.33937">
        <ele>44</ele>
        <time>2022-04-05T09:21:32Z</time>
      </trkpt>
      <trkpt lat="44.88501" lon="0.33935">
        <ele>44.1</ele>
        <time>2022-04-05T09:21:34Z</time>
      </trkpt>
      <trkpt lat="44.88502" lon="0.33933">
        <ele>44.2</ele>
        <time>2022-04-05T09:21:35Z</time>
      </trkpt>
      <trkpt lat="44.88503" lon="0.33932">
        <ele>44.2</ele>
        <time>2022-04-05T09:21:36Z</time>
      </trkpt>
      <trkpt lat="44.88504" lon="0.3393">
        <ele>44.3</ele>
        <time>2022-04-05T09:21:37Z</time>
      </trkpt>
      <trkpt lat="44.88504" lon="0.33928">
        <ele>44.4</ele>
        <time>2022-04-05T09:21:38Z</time>
      </trkpt>
      <trkpt lat="44.88505" lon="0.33927">
        <ele>44.5</ele>
        <time>2022-04-05T09:21:39Z</time>
      </trkpt>
      <trkpt lat="44.88507" lon="0.33924">
        <ele>44.7</ele>
        <time>2022-04-05T09:21:40Z</time>
      </trkpt>
      <trkpt lat="44.88508" lon="0.33923">
        <ele>44.8</ele>
        <time>2022-04-05T09:21:42Z</time>
      </trkpt>
      <trkpt lat="44.88509" lon="0.33923">
        <ele>44.8</ele>
        <time>2022-04-05T09:21:43Z</time>
      </trkpt>
      <trkpt lat="44.8851" lon="0.33922">
        <ele>44.9</ele>
        <time>2022-04-05T09:21:44Z</time>
      </trkpt>
      <trkpt lat="44.8851" lon="0.33921">
        <ele>45</ele>
        <time>2022-04-05T09:21:45Z</time>
      </trkpt>
      <trkpt lat="44.88512" lon="0.3392">
        <ele>45.2</ele>
        <time>2022-04-05T09:21:46Z</time>
      </trkpt>
      <trkpt lat="44.88512" lon="0.33919">
        <ele>45.3</ele>
        <time>2022-04-05T09:21:47Z</time>
      </trkpt>
      <trkpt lat="44.88513" lon="0.33918">
        <ele>45.4</ele>
        <time>2022-04-05T09:21:48Z</time>
      </trkpt>
      <trkpt lat="44.88515" lon="0.33917">
        <ele>45.6</ele>
        <time>2022-04-05T09:21:49Z</time>
      </trkpt>
      <trkpt lat="44.88516" lon="0.33916">
        <ele>45.7</ele>
        <time>2022-04-05T09:21:50Z</time>
      </trkpt>
      <trkpt lat="44.88517" lon="0.33916">
        <ele>45.8</ele>
        <time>2022-04-05T09:21:51Z</time>
      </trkpt>
      <trkpt lat="44.88518" lon="0.33915">
        <ele>46</ele>
        <time>2022-04-05T09:21:52Z</time>
      </trkpt>
      <trkpt lat="44.88519" lon="0.33915">
        <ele>46.1</ele>
        <time>2022-04-05T09:21:53Z</time>
      </trkpt>
      <trkpt lat="44.88521" lon="0.33914">
        <ele>46.4</ele>
        <time>2022-04-05T09:21:55Z</time>
      </trkpt>
      <trkpt lat="44.88523" lon="0.33913">
        <ele>46.6</ele>
        <time>2022-04-05T09:21:56Z</time>
      </trkpt>
      <trkpt lat="44.88524" lon="0.33913">
        <ele>46.8</ele>
        <time>2022-04-05T09:21:58Z</time>
      </trkpt>
      <trkpt lat="44.88525" lon="0.33912">
        <ele>46.9</ele>
        <time>2022-04-05T09:21:59Z</time>
      </trkpt>
      <trkpt lat="44.88528" lon="0.33912">
        <ele>47.2</ele>
        <time>2022-04-05T09:22:00Z</time>
      </trkpt>
      <trkpt lat="44.88528" lon="0.33912">
        <ele>47.3</ele>
        <time>2022-04-05T09:22:01Z</time>
      </trkpt>
      <trkpt lat="44.88529" lon="0.33912">
        <ele>47.4</ele>
        <time>2022-04-05T09:22:02Z</time>
      </trkpt>
      <trkpt lat="44.8853" lon="0.33912">
        <ele>47.6</ele>
        <time>2022-04-05T09:22:03Z</time>
      </trkpt>
      <trkpt lat="44.88532" lon="0.33912">
        <ele>47.8</ele>
        <time>2022-04-05T09:22:04Z</time>
      </trkpt>
      <trkpt lat="44.88533" lon="0.33911">
        <ele>47.9</ele>
        <time>2022-04-05T09:22:05Z</time>
      </trkpt>
      <trkpt lat="44.88535" lon="0.33911">
        <ele>48.2</ele>
        <time>2022-04-05T09:22:06Z</time>
      </trkpt>
      <trkpt lat="44.88536" lon="0.3391">
        <ele>48.3</ele>
        <time>2022-04-05T09:22:08Z</time>
      </trkpt>
      <trkpt lat="44.88536" lon="0.3391">
        <ele>48.5</ele>
        <time>2022-04-05T09:22:09Z</time>
      </trkpt>
      <trkpt lat="44.88539" lon="0.33909">
        <ele>48.8</ele>
        <time>2022-04-05T09:22:10Z</time>
      </trkpt>
      <trkpt lat="44.88539" lon="0.33908">
        <ele>48.9</ele>
        <time>2022-04-05T09:22:11Z</time>
      </trkpt>
      <trkpt lat="44.8854" lon="0.33907">
        <ele>49</ele>
        <time>2022-04-05T09:22:12Z</time>
      </trkpt>
      <trkpt lat="44.88542" lon="0.33906">
        <ele>49.2</ele>
        <time>2022-04-05T09:22:13Z</time>
      </trkpt>
      <trkpt lat="44.88543" lon="0.33906">
        <ele>49.4</ele>
        <time>2022-04-05T09:22:14Z</time>
      </trkpt>
      <trkpt lat="44.88545" lon="0.33905">
        <ele>49.6</ele>
        <time>2022-04-05T09:22:16Z</time>
      </trkpt>
      <trkpt lat="44.88546" lon="0.33905">
        <ele>49.8</ele>
        <time>2022-04-05T09:22:17Z</time>
      </trkpt>
      <trkpt lat="44.88547" lon="0.33904">
        <ele>50</ele>
        <time>2022-04-05T09:22:18Z</time>
      </trkpt>
      <trkpt lat="44.88549" lon="0.33904">
        <ele>50.2</ele>
        <time>2022-04-05T09:22:19Z</time>
      </trkpt>
      <trkpt lat="44.88551" lon="0.33903">
        <ele>50.4</ele>
        <time>2022-04-05T09:22:20Z</time>
      </trkpt>
      <trkpt lat="44.88552" lon="0.33903">
        <ele>50.5</ele>
        <time>2022-04-05T09:22:21Z</time>
      </trkpt>
      <trkpt lat="44.88552" lon="0.33902">
        <ele>50.7</ele>
        <time>2022-04-05T09:22:22Z</time>
      </trkpt>
      <trkpt lat="44.88554" lon="0.33901">
        <ele>50.9</ele>
        <time>2022-04-05T09:22:23Z</time>
      </trkpt>
      <trkpt lat="44.88555" lon="0.33901">
        <ele>51</ele>
        <time>2022-04-05T09:22:25Z</time>
      </trkpt>
      <trkpt lat="44.88556" lon="0.33901">
        <ele>51.1</ele>
        <time>2022-04-05T09:22:26Z</time>
      </trkpt>
      <trkpt lat="44.88558" lon="0.339">
        <ele>51.4</ele>
        <time>2022-04-05T09:22:27Z</time>
      </trkpt>
      <trkpt lat="44.88559" lon="0.339">
        <ele>51.5</ele>
        <time>2022-04-05T09:22:28Z</time>
      </trkpt>
      <trkpt lat="44.8856" lon="0.33899">
        <ele>51.6</ele>
        <time>2022-04-05T09:22:29Z</time>
      </trkpt>
      <trkpt lat="44.88561" lon="0.33899">
        <ele>51.7</ele>
        <time>2022-04-05T09:22:30Z</time>
      </trkpt>
      <trkpt lat="44.88562" lon="0.33899">
        <ele>51.9</ele>
        <time>2022-04-05T09:22:31Z</time>
      </trkpt>
      <trkpt lat="44.88563" lon="0.33899">
        <ele>52</ele>
        <time>2022-04-05T09:22:32Z</time>
      </trkpt>
      <trkpt lat="44.88565" lon="0.33898">
        <ele>52.2</ele>
        <time>2022-04-05T09:22:33Z</time>
      </trkpt>
      <trkpt lat="44.88566" lon="0.33898">
        <ele>52.4</ele>
        <time>2022-04-05T09:22:35Z</time>
      </trkpt>
      <trkpt lat="44.88568" lon="0.33897">
        <ele>52.6</ele>
        <time>2022-04-05T09:22:36Z</time>
      </trkpt>
      <trkpt lat="44.88569" lon="0.33896">
        <ele>52.7</ele>
        <time>2022-04-05T09:22:37Z</time>
      </trkpt>
      <trkpt lat="44.88571" lon="0.33895">
        <ele>53</ele>
        <time>2022-04-05T09:22:38Z</time>
      </trkpt>
      <trkpt lat="44.88572" lon="0.33895">
        <ele>53.1</ele>
        <time>2022-04-05T09:22:39Z</time>
      </trkpt>
      <trkpt lat="44.88572" lon="0.33894">
        <ele>53.2</ele>
        <time>2022-04-05T09:22:40Z</time>
      </trkpt>
      <trkpt lat="44.88574" lon="0.33893">
        <ele>53.4</ele>
        <time>2022-04-05T09:22:41Z</time>
      </trkpt>
      <trkpt lat="44.88575" lon="0.33893">
        <ele>53.5</ele>
        <time>2022-04-05T09:22:43Z</time>
      </trkpt>
      <trkpt lat="44.88576" lon="0.33893">
        <ele>53.6</ele>
        <time>2022-04-05T09:22:44Z</time>
      </trkpt>
      <trkpt lat="44.88577" lon="0.33892">
        <ele>53.8</ele>
        <time>2022-04-05T09:22:45Z</time>
      </trkpt>
      <trkpt lat="44.88578" lon="0.33891">
        <ele>53.9</ele>
        <time>2022-04-05T09:22:46Z</time>
      </trkpt>
      <trkpt lat="44.8858" lon="0.3389">
        <ele>54.2</ele>
        <time>2022-04-05T09:22:47Z</time>
      </trkpt>
      <trkpt lat="44.88581" lon="0.3389">
        <ele>54.2</ele>
        <time>2022-04-05T09:22:48Z</time>
      </trkpt>
      <trkpt lat="44.88582" lon="0.33889">
        <ele>54.3</ele>
        <time>2022-04-05T09:22:49Z</time>
      </trkpt>
      <trkpt lat="44.88584" lon="0.33888">
        <ele>54.6</ele>
        <time>2022-04-05T09:22:50Z</time>
      </trkpt>
      <trkpt lat="44.88585" lon="0.33888">
        <ele>54.7</ele>
        <time>2022-04-05T09:22:52Z</time>
      </trkpt>
      <trkpt lat="44.88585" lon="0.33888">
        <ele>54.8</ele>
        <time>2022-04-05T09:22:53Z</time>
      </trkpt>
      <trkpt lat="44.88588" lon="0.33887">
        <ele>55</ele>
        <time>2022-04-05T09:22:54Z</time>
      </trkpt>
      <trkpt lat="44.88588" lon="0.33886">
        <ele>55.1</ele>
        <time>2022-04-05T09:22:55Z</time>
      </trkpt>
      <trkpt lat="44.88589" lon="0.33886">
        <ele>55.2</ele>
        <time>2022-04-05T09:22:56Z</time>
      </trkpt>
      <trkpt lat="44.8859" lon="0.33886">
        <ele>55.3</ele>
        <time>2022-04-05T09:22:57Z</time>
      </trkpt>
      <trkpt lat="44.88591" lon="0.33885">
        <ele>55.4</ele>
        <time>2022-04-05T09:22:58Z</time>
      </trkpt>
      <trkpt lat="44.88592" lon="0.33884">
        <ele>55.5</ele>
        <time>2022-04-05T09:22:59Z</time>
      </trkpt>
      <trkpt lat="44.88594" lon="0.33883">
        <ele>55.8</ele>
        <time>2022-04-05T09:23:01Z</time>
      </trkpt>
      <trkpt lat="44.88595" lon="0.33883">
        <ele>55.8</ele>
        <time>2022-04-05T09:23:02Z</time>
      </trkpt>
      <trkpt lat="44.88596" lon="0.33883">
        <ele>55.9</ele>
        <time>2022-04-05T09:23:03Z</time>
      </trkpt>
      <trkpt lat="44.88598" lon="0.33882">
        <ele>56.1</ele>
        <time>2022-04-05T09:23:04Z</time>
      </trkpt>
      <trkpt lat="44.88599" lon="0.33881">
        <ele>56.2</ele>
        <time>2022-04-05T09:23:05Z</time>
      </trkpt>
      <trkpt lat="44.886" lon="0.33881">
        <ele>56.3</ele>
        <time>2022-04-05T09:23:06Z</time>
      </trkpt>
      <trkpt lat="44.88601" lon="0.3388">
        <ele>56.4</ele>
        <time>2022-04-05T09:23:07Z</time>
      </trkpt>
      <trkpt lat="44.88602" lon="0.3388">
        <ele>56.5</ele>
        <time>2022-04-05T09:23:08Z</time>
      </trkpt>
      <trkpt lat="44.88603" lon="0.3388">
        <ele>56.6</ele>
        <time>2022-04-05T09:23:09Z</time>
      </trkpt>
      <trkpt lat="44.88604" lon="0.33879">
        <ele>56.6</ele>
        <time>2022-04-05T09:23:10Z</time>
      </trkpt>
      <trkpt lat="44.88605" lon="0.33879">
        <ele>56.8</ele>
        <time>2022-04-05T09:23:12Z</time>
      </trkpt>
      <trkpt lat="44.88607" lon="0.33878">
        <ele>56.9</ele>
        <time>2022-04-05T09:23:13Z</time>
      </trkpt>
      <trkpt lat="44.88609" lon="0.33878">
        <ele>57</ele>
        <time>2022-04-05T09:23:14Z</time>
      </trkpt>
      <trkpt lat="44.88609" lon="0.33877">
        <ele>57.1</ele>
        <time>2022-04-05T09:23:15Z</time>
      </trkpt>
      <trkpt lat="44.8861" lon="0.33877">
        <ele>57.1</ele>
        <time>2022-04-05T09:23:16Z</time>
      </trkpt>
      <trkpt lat="44.88611" lon="0.33876">
        <ele>57.2</ele>
        <time>2022-04-05T09:23:17Z</time>
      </trkpt>
      <trkpt lat="44.88612" lon="0.33876">
        <ele>57.3</ele>
        <time>2022-04-05T09:23:18Z</time>
      </trkpt>
      <trkpt lat="44.88613" lon="0.33875">
        <ele>57.4</ele>
        <time>2022-04-05T09:23:19Z</time>
      </trkpt>
      <trkpt lat="44.88614" lon="0.33874">
        <ele>57.5</ele>
        <time>2022-04-05T09:23:20Z</time>
      </trkpt>
      <trkpt lat="44.88615" lon="0.33873">
        <ele>57.5</ele>
        <time>2022-04-05T09:23:21Z</time>
      </trkpt>
      <trkpt lat="44.88615" lon="0.33873">
        <ele>57.6</ele>
        <time>2022-04-05T09:23:22Z</time>
      </trkpt>
      <trkpt lat="44.88616" lon="0.33872">
        <ele>57.7</ele>
        <time>2022-04-05T09:23:23Z</time>
      </trkpt>
      <trkpt lat="44.88617" lon="0.33871">
        <ele>57.7</ele>
        <time>2022-04-05T09:23:24Z</time>
      </trkpt>
      <trkpt lat="44.88618" lon="0.33871">
        <ele>57.8</ele>
        <time>2022-04-05T09:23:25Z</time>
      </trkpt>
      <trkpt lat="44.88619" lon="0.3387">
        <ele>57.9</ele>
        <time>2022-04-05T09:23:26Z</time>
      </trkpt>
      <trkpt lat="44.8862" lon="0.33869">
        <ele>58</ele>
        <time>2022-04-05T09:23:28Z</time>
      </trkpt>
      <trkpt lat="44.88621" lon="0.33869">
        <ele>58</ele>
        <time>2022-04-05T09:23:29Z</time>
      </trkpt>
      <trkpt lat="44.88622" lon="0.33868">
        <ele>58.1</ele>
        <time>2022-04-05T09:23:30Z</time>
      </trkpt>
      <trkpt lat="44.88624" lon="0.33868">
        <ele>58.2</ele>
        <time>2022-04-05T09:23:31Z</time>
      </trkpt>
      <trkpt lat="44.88625" lon="0.33868">
        <ele>58.2</ele>
        <time>2022-04-05T09:23:32Z</time>
      </trkpt>
      <trkpt lat="44.88626" lon="0.33867">
        <ele>58.3</ele>
        <time>2022-04-05T09:23:33Z</time>
      </trkpt>
      <trkpt lat="44.88627" lon="0.33867">
        <ele>58.4</ele>
        <time>2022-04-05T09:23:34Z</time>
      </trkpt>
      <trkpt lat="44.88628" lon="0.33867">
        <ele>58.4</ele>
        <time>2022-04-05T09:23:35Z</time>
      </trkpt>
      <trkpt lat="44.88629" lon="0.33866">
        <ele>58.5</ele>
        <time>2022-04-05T09:23:37Z</time>
      </trkpt>
      <trkpt lat="44.8863" lon="0.33865">
        <ele>58.5</ele>
        <time>2022-04-05T09:23:38Z</time>
      </trkpt>
      <trkpt lat="44.88631" lon="0.33865">
        <ele>58.6</ele>
        <time>2022-04-05T09:23:39Z</time>
      </trkpt>
      <trkpt lat="44.88632" lon="0.33864">
        <ele>58.6</ele>
        <time>2022-04-05T09:23:40Z</time>
      </trkpt>
      <trkpt lat="44.88633" lon="0.33864">
        <ele>58.7</ele>
        <time>2022-04-05T09:23:41Z</time>
      </trkpt>
      <trkpt lat="44.88635" lon="0.33862">
        <ele>58.7</ele>
        <time>2022-04-05T09:23:42Z</time>
      </trkpt>
      <trkpt lat="44.88636" lon="0.33862">
        <ele>58.8</ele>
        <time>2022-04-05T09:23:43Z</time>
      </trkpt>
      <trkpt lat="44.88637" lon="0.33861">
        <ele>58.8</ele>
        <time>2022-04-05T09:23:44Z</time>
      </trkpt>
      <trkpt lat="44.88638" lon="0.3386">
        <ele>58.9</ele>
        <time>2022-04-05T09:23:45Z</time>
      </trkpt>
      <trkpt lat="44.88639" lon="0.33859">
        <ele>58.9</ele>
        <time>2022-04-05T09:23:47Z</time>
      </trkpt>
      <trkpt lat="44.8864" lon="0.33858">
        <ele>58.9</ele>
        <time>2022-04-05T09:23:48Z</time>
      </trkpt>
      <trkpt lat="44.88642" lon="0.33858">
        <ele>59</ele>
        <time>2022-04-05T09:23:49Z</time>
      </trkpt>
      <trkpt lat="44.88643" lon="0.33858">
        <ele>59.1</ele>
        <time>2022-04-05T09:23:50Z</time>
      </trkpt>
      <trkpt lat="44.88644" lon="0.33858">
        <ele>59.1</ele>
        <time>2022-04-05T09:23:51Z</time>
      </trkpt>
      <trkpt lat="44.88646" lon="0.33858">
        <ele>59.2</ele>
        <time>2022-04-05T09:23:52Z</time>
      </trkpt>
      <trkpt lat="44.88647" lon="0.33858">
        <ele>59.2</ele>
        <time>2022-04-05T09:23:53Z</time>
      </trkpt>
      <trkpt lat="44.88648" lon="0.33857">
        <ele>59.2</ele>
        <time>2022-04-05T09:23:54Z</time>
      </trkpt>
      <trkpt lat="44.88649" lon="0.33856">
        <ele>59.3</ele>
        <time>2022-04-05T09:23:55Z</time>
      </trkpt>
      <trkpt lat="44.8865" lon="0.33856">
        <ele>59.3</ele>
        <time>2022-04-05T09:23:56Z</time>
      </trkpt>
      <trkpt lat="44.88651" lon="0.33855">
        <ele>59.4</ele>
        <time>2022-04-05T09:23:57Z</time>
      </trkpt>
      <trkpt lat="44.88652" lon="0.33855">
        <ele>59.4</ele>
        <time>2022-04-05T09:23:58Z</time>
      </trkpt>
      <trkpt lat="44.88653" lon="0.33854">
        <ele>59.5</ele>
        <time>2022-04-05T09:23:59Z</time>
      </trkpt>
      <trkpt lat="44.88655" lon="0.33853">
        <ele>59.5</ele>
        <time>2022-04-05T09:24:01Z</time>
      </trkpt>
      <trkpt lat="44.88656" lon="0.33853">
        <ele>59.6</ele>
        <time>2022-04-05T09:24:02Z</time>
      </trkpt>
      <trkpt lat="44.88658" lon="0.33852">
        <ele>59.7</ele>
        <time>2022-04-05T09:24:03Z</time>
      </trkpt>
      <trkpt lat="44.88659" lon="0.33852">
        <ele>59.7</ele>
        <time>2022-04-05T09:24:04Z</time>
      </trkpt>
      <trkpt lat="44.8866" lon="0.33851">
        <ele>59.8</ele>
        <time>2022-04-05T09:24:05Z</time>
      </trkpt>
      <trkpt lat="44.88661" lon="0.33851">
        <ele>59.8</ele>
        <time>2022-04-05T09:24:06Z</time>
      </trkpt>
      <trkpt lat="44.88663" lon="0.3385">
        <ele>59.9</ele>
        <time>2022-04-05T09:24:07Z</time>
      </trkpt>
      <trkpt lat="44.88664" lon="0.3385">
        <ele>60</ele>
        <time>2022-04-05T09:24:08Z</time>
      </trkpt>
      <trkpt lat="44.88665" lon="0.3385">
        <ele>60</ele>
        <time>2022-04-05T09:24:09Z</time>
      </trkpt>
      <trkpt lat="44.88667" lon="0.33849">
        <ele>60.1</ele>
        <time>2022-04-05T09:24:11Z</time>
      </trkpt>
      <trkpt lat="44.88668" lon="0.33849">
        <ele>60.1</ele>
        <time>2022-04-05T09:24:12Z</time>
      </trkpt>
      <trkpt lat="44.8867" lon="0.33848">
        <ele>60.2</ele>
        <time>2022-04-05T09:24:13Z</time>
      </trkpt>
      <trkpt lat="44.88671" lon="0.33848">
        <ele>60.3</ele>
        <time>2022-04-05T09:24:14Z</time>
      </trkpt>
      <trkpt lat="44.88672" lon="0.33848">
        <ele>60.3</ele>
        <time>2022-04-05T09:24:15Z</time>
      </trkpt>
      <trkpt lat="44.88673" lon="0.33847">
        <ele>60.4</ele>
        <time>2022-04-05T09:24:16Z</time>
      </trkpt>
      <trkpt lat="44.88675" lon="0.33846">
        <ele>60.5</ele>
        <time>2022-04-05T09:24:18Z</time>
      </trkpt>
      <trkpt lat="44.88677" lon="0.33845">
        <ele>60.6</ele>
        <time>2022-04-05T09:24:19Z</time>
      </trkpt>
      <trkpt lat="44.88678" lon="0.33845">
        <ele>60.6</ele>
        <time>2022-04-05T09:24:20Z</time>
      </trkpt>
      <trkpt lat="44.8868" lon="0.33844">
        <ele>60.7</ele>
        <time>2022-04-05T09:24:21Z</time>
      </trkpt>
      <trkpt lat="44.8868" lon="0.33844">
        <ele>60.8</ele>
        <time>2022-04-05T09:24:22Z</time>
      </trkpt>
      <trkpt lat="44.88681" lon="0.33843">
        <ele>60.8</ele>
        <time>2022-04-05T09:24:23Z</time>
      </trkpt>
      <trkpt lat="44.88684" lon="0.33842">
        <ele>61</ele>
        <time>2022-04-05T09:24:24Z</time>
      </trkpt>
      <trkpt lat="44.88685" lon="0.33841">
        <ele>61.1</ele>
        <time>2022-04-05T09:24:26Z</time>
      </trkpt>
      <trkpt lat="44.88686" lon="0.3384">
        <ele>61.2</ele>
        <time>2022-04-05T09:24:27Z</time>
      </trkpt>
      <trkpt lat="44.88687" lon="0.3384">
        <ele>61.2</ele>
        <time>2022-04-05T09:24:28Z</time>
      </trkpt>
      <trkpt lat="44.88688" lon="0.33839">
        <ele>61.3</ele>
        <time>2022-04-05T09:24:29Z</time>
      </trkpt>
      <trkpt lat="44.88689" lon="0.33839">
        <ele>61.4</ele>
        <time>2022-04-05T09:24:30Z</time>
      </trkpt>
      <trkpt lat="44.8869" lon="0.33838">
        <ele>61.4</ele>
        <time>2022-04-05T09:24:31Z</time>
      </trkpt>
      <trkpt lat="44.88691" lon="0.33837">
        <ele>61.5</ele>
        <time>2022-04-05T09:24:32Z</time>
      </trkpt>
      <trkpt lat="44.88692" lon="0.33837">
        <ele>61.6</ele>
        <time>2022-04-05T09:24:33Z</time>
      </trkpt>
      <trkpt lat="44.88694" lon="0.33836">
        <ele>61.7</ele>
        <time>2022-04-05T09:24:34Z</time>
      </trkpt>
      <trkpt lat="44.88695" lon="0.33836">
        <ele>61.8</ele>
        <time>2022-04-05T09:24:36Z</time>
      </trkpt>
      <trkpt lat="44.88697" lon="0.33835">
        <ele>61.9</ele>
        <time>2022-04-05T09:24:37Z</time>
      </trkpt>
      <trkpt lat="44.88698" lon="0.33835">
        <ele>62</ele>
        <time>2022-04-05T09:24:38Z</time>
      </trkpt>
      <trkpt lat="44.88699" lon="0.33835">
        <ele>62.1</ele>
        <time>2022-04-05T09:24:39Z</time>
      </trkpt>
      <trkpt lat="44.887" lon="0.33834">
        <ele>62.1</ele>
        <time>2022-04-05T09:24:40Z</time>
      </trkpt>
      <trkpt lat="44.88702" lon="0.33834">
        <ele>62.2</ele>
        <time>2022-04-05T09:24:42Z</time>
      </trkpt>
      <trkpt lat="44.88703" lon="0.33834">
        <ele>62.3</ele>
        <time>2022-04-05T09:24:43Z</time>
      </trkpt>
      <trkpt lat="44.88704" lon="0.33833">
        <ele>62.4</ele>
        <time>2022-04-05T09:24:44Z</time>
      </trkpt>
      <trkpt lat="44.88705" lon="0.33833">
        <ele>62.4</ele>
        <time>2022-04-05T09:24:45Z</time>
      </trkpt>
      <trkpt lat="44.88706" lon="0.33832">
        <ele>62.5</ele>
        <time>2022-04-05T09:24:46Z</time>
      </trkpt>
      <trkpt lat="44.88707" lon="0.33832">
        <ele>62.5</ele>
        <time>2022-04-05T09:24:47Z</time>
      </trkpt>
      <trkpt lat="44.88708" lon="0.33831">
        <ele>62.6</ele>
        <time>2022-04-05T09:24:48Z</time>
      </trkpt>
      <trkpt lat="44.88709" lon="0.33831">
        <ele>62.6</ele>
        <time>2022-04-05T09:24:49Z</time>
      </trkpt>
      <trkpt lat="44.88711" lon="0.3383">
        <ele>62.7</ele>
        <time>2022-04-05T09:24:51Z</time>
      </trkpt>
      <trkpt lat="44.88712" lon="0.33829">
        <ele>62.8</ele>
        <time>2022-04-05T09:24:52Z</time>
      </trkpt>
      <trkpt lat="44.88713" lon="0.33828">
        <ele>62.8</ele>
        <time>2022-04-05T09:24:53Z</time>
      </trkpt>
      <trkpt lat="44.88716" lon="0.33827">
        <ele>63</ele>
        <time>2022-04-05T09:24:54Z</time>
      </trkpt>
      <trkpt lat="44.88716" lon="0.33827">
        <ele>63</ele>
        <time>2022-04-05T09:24:55Z</time>
      </trkpt>
      <trkpt lat="44.88717" lon="0.33827">
        <ele>63.1</ele>
        <time>2022-04-05T09:24:56Z</time>
      </trkpt>
      <trkpt lat="44.88719" lon="0.33826">
        <ele>63.2</ele>
        <time>2022-04-05T09:24:58Z</time>
      </trkpt>
      <trkpt lat="44.88721" lon="0.33825">
        <ele>63.3</ele>
        <time>2022-04-05T09:24:59Z</time>
      </trkpt>
      <trkpt lat="44.88722" lon="0.33825">
        <ele>63.3</ele>
        <time>2022-04-05T09:25:00Z</time>
      </trkpt>
      <trkpt lat="44.88724" lon="0.33824">
        <ele>63.5</ele>
        <time>2022-04-05T09:25:01Z</time>
      </trkpt>
      <trkpt lat="44.88725" lon="0.33823">
        <ele>63.5</ele>
        <time>2022-04-05T09:25:03Z</time>
      </trkpt>
      <trkpt lat="44.88726" lon="0.33823">
        <ele>63.6</ele>
        <time>2022-04-05T09:25:04Z</time>
      </trkpt>
      <trkpt lat="44.88728" lon="0.33822">
        <ele>63.8</ele>
        <time>2022-04-05T09:25:05Z</time>
      </trkpt>
      <trkpt lat="44.88729" lon="0.33822">
        <ele>63.8</ele>
        <time>2022-04-05T09:25:06Z</time>
      </trkpt>
      <trkpt lat="44.88729" lon="0.33822">
        <ele>63.8</ele>
        <time>2022-04-05T09:25:07Z</time>
      </trkpt>
      <trkpt lat="44.88732" lon="0.33821">
        <ele>64</ele>
        <time>2022-04-05T09:25:08Z</time>
      </trkpt>
      <trkpt lat="44.88733" lon="0.3382">
        <ele>64.1</ele>
        <time>2022-04-05T09:25:10Z</time>
      </trkpt>
      <trkpt lat="44.88734" lon="0.3382">
        <ele>64.2</ele>
        <time>2022-04-05T09:25:11Z</time>
      </trkpt>
      <trkpt lat="44.88735" lon="0.33819">
        <ele>64.2</ele>
        <time>2022-04-05T09:25:12Z</time>
      </trkpt>
      <trkpt lat="44.88736" lon="0.33819">
        <ele>64.3</ele>
        <time>2022-04-05T09:25:13Z</time>
      </trkpt>
      <trkpt lat="44.88737" lon="0.33818">
        <ele>64.5</ele>
        <time>2022-04-05T09:25:14Z</time>
      </trkpt>
      <trkpt lat="44.88738" lon="0.33817">
        <ele>64.5</ele>
        <time>2022-04-05T09:25:15Z</time>
      </trkpt>
      <trkpt lat="44.88739" lon="0.33817">
        <ele>64.6</ele>
        <time>2022-04-05T09:25:16Z</time>
      </trkpt>
      <trkpt lat="44.8874" lon="0.33815">
        <ele>64.7</ele>
        <time>2022-04-05T09:25:17Z</time>
      </trkpt>
      <trkpt lat="44.88741" lon="0.33814">
        <ele>64.8</ele>
        <time>2022-04-05T09:25:18Z</time>
      </trkpt>
      <trkpt lat="44.88743" lon="0.33812">
        <ele>65</ele>
        <time>2022-04-05T09:25:20Z</time>
      </trkpt>
      <trkpt lat="44.88743" lon="0.33811">
        <ele>65</ele>
        <time>2022-04-05T09:25:21Z</time>
      </trkpt>
      <trkpt lat="44.88744" lon="0.33811">
        <ele>65.1</ele>
        <time>2022-04-05T09:25:22Z</time>
      </trkpt>
      <trkpt lat="44.88745" lon="0.3381">
        <ele>65.2</ele>
        <time>2022-04-05T09:25:24Z</time>
      </trkpt>
      <trkpt lat="44.88747" lon="0.33808">
        <ele>65.3</ele>
        <time>2022-04-05T09:25:25Z</time>
      </trkpt>
      <trkpt lat="44.88748" lon="0.33807">
        <ele>65.4</ele>
        <time>2022-04-05T09:25:26Z</time>
      </trkpt>
      <trkpt lat="44.88749" lon="0.33806">
        <ele>65.5</ele>
        <time>2022-04-05T09:25:27Z</time>
      </trkpt>
      <trkpt lat="44.88752" lon="0.33805">
        <ele>65.7</ele>
        <time>2022-04-05T09:25:28Z</time>
      </trkpt>
      <trkpt lat="44.88753" lon="0.33804">
        <ele>65.8</ele>
        <time>2022-04-05T09:25:29Z</time>
      </trkpt>
      <trkpt lat="44.88755" lon="0.33803">
        <ele>65.9</ele>
        <time>2022-04-05T09:25:30Z</time>
      </trkpt>
      <trkpt lat="44.88756" lon="0.33802">
        <ele>66</ele>
        <time>2022-04-05T09:25:31Z</time>
      </trkpt>
      <trkpt lat="44.88756" lon="0.33801">
        <ele>66.1</ele>
        <time>2022-04-05T09:25:32Z</time>
      </trkpt>
      <trkpt lat="44.88758" lon="0.338">
        <ele>66.2</ele>
        <time>2022-04-05T09:25:33Z</time>
      </trkpt>
      <trkpt lat="44.88759" lon="0.33798">
        <ele>66.3</ele>
        <time>2022-04-05T09:25:35Z</time>
      </trkpt>
      <trkpt lat="44.88761" lon="0.33797">
        <ele>66.4</ele>
        <time>2022-04-05T09:25:36Z</time>
      </trkpt>
      <trkpt lat="44.88762" lon="0.33797">
        <ele>66.5</ele>
        <time>2022-04-05T09:25:37Z</time>
      </trkpt>
      <trkpt lat="44.88765" lon="0.33796">
        <ele>66.7</ele>
        <time>2022-04-05T09:25:38Z</time>
      </trkpt>
      <trkpt lat="44.88766" lon="0.33796">
        <ele>66.8</ele>
        <time>2022-04-05T09:25:39Z</time>
      </trkpt>
      <trkpt lat="44.88767" lon="0.33796">
        <ele>66.9</ele>
        <time>2022-04-05T09:25:40Z</time>
      </trkpt>
      <trkpt lat="44.88769" lon="0.33796">
        <ele>67</ele>
        <time>2022-04-05T09:25:41Z</time>
      </trkpt>
      <trkpt lat="44.8877" lon="0.33795">
        <ele>67.1</ele>
        <time>2022-04-05T09:25:43Z</time>
      </trkpt>
      <trkpt lat="44.88771" lon="0.33794">
        <ele>67.2</ele>
        <time>2022-04-05T09:25:44Z</time>
      </trkpt>
      <trkpt lat="44.88772" lon="0.33793">
        <ele>67.3</ele>
        <time>2022-04-05T09:25:45Z</time>
      </trkpt>
      <trkpt lat="44.88772" lon="0.33792">
        <ele>67.3</ele>
        <time>2022-04-05T09:25:46Z</time>
      </trkpt>
      <trkpt lat="44.88772" lon="0.3379">
        <ele>67.4</ele>
        <time>2022-04-05T09:25:47Z</time>
      </trkpt>
      <trkpt lat="44.88773" lon="0.3379">
        <ele>67.5</ele>
        <time>2022-04-05T09:25:48Z</time>
      </trkpt>
      <trkpt lat="44.88775" lon="0.33789">
        <ele>67.6</ele>
        <time>2022-04-05T09:25:50Z</time>
      </trkpt>
      <trkpt lat="44.88777" lon="0.33788">
        <ele>67.8</ele>
        <time>2022-04-05T09:25:51Z</time>
      </trkpt>
      <trkpt lat="44.88778" lon="0.33788">
        <ele>67.9</ele>
        <time>2022-04-05T09:25:52Z</time>
      </trkpt>
      <trkpt lat="44.88779" lon="0.33788">
        <ele>67.9</ele>
        <time>2022-04-05T09:25:53Z</time>
      </trkpt>
      <trkpt lat="44.88781" lon="0.33787">
        <ele>68.1</ele>
        <time>2022-04-05T09:25:54Z</time>
      </trkpt>
      <trkpt lat="44.88782" lon="0.33787">
        <ele>68.1</ele>
        <time>2022-04-05T09:25:55Z</time>
      </trkpt>
      <trkpt lat="44.88783" lon="0.33786">
        <ele>68.2</ele>
        <time>2022-04-05T09:25:56Z</time>
      </trkpt>
      <trkpt lat="44.88784" lon="0.33785">
        <ele>68.3</ele>
        <time>2022-04-05T09:25:57Z</time>
      </trkpt>
      <trkpt lat="44.88785" lon="0.33784">
        <ele>68.4</ele>
        <time>2022-04-05T09:25:59Z</time>
      </trkpt>
      <trkpt lat="44.88787" lon="0.33783">
        <ele>68.5</ele>
        <time>2022-04-05T09:26:00Z</time>
      </trkpt>
      <trkpt lat="44.88788" lon="0.33782">
        <ele>68.6</ele>
        <time>2022-04-05T09:26:01Z</time>
      </trkpt>
      <trkpt lat="44.88789" lon="0.33782">
        <ele>68.7</ele>
        <time>2022-04-05T09:26:02Z</time>
      </trkpt>
      <trkpt lat="44.88791" lon="0.33781">
        <ele>68.8</ele>
        <time>2022-04-05T09:26:03Z</time>
      </trkpt>
      <trkpt lat="44.88792" lon="0.3378">
        <ele>68.9</ele>
        <time>2022-04-05T09:26:04Z</time>
      </trkpt>
      <trkpt lat="44.88793" lon="0.33779">
        <ele>69</ele>
        <time>2022-04-05T09:26:06Z</time>
      </trkpt>
      <trkpt lat="44.88794" lon="0.33779">
        <ele>69.1</ele>
        <time>2022-04-05T09:26:07Z</time>
      </trkpt>
      <trkpt lat="44.88795" lon="0.33778">
        <ele>69.1</ele>
        <time>2022-04-05T09:26:08Z</time>
      </trkpt>
      <trkpt lat="44.88797" lon="0.33777">
        <ele>69.3</ele>
        <time>2022-04-05T09:26:10Z</time>
      </trkpt>
      <trkpt lat="44.88799" lon="0.33777">
        <ele>69.4</ele>
        <time>2022-04-05T09:26:11Z</time>
      </trkpt>
      <trkpt lat="44.88799" lon="0.33776">
        <ele>69.4</ele>
        <time>2022-04-05T09:26:12Z</time>
      </trkpt>
      <trkpt lat="44.888" lon="0.33776">
        <ele>69.5</ele>
        <time>2022-04-05T09:26:13Z</time>
      </trkpt>
      <trkpt lat="44.88801" lon="0.33775">
        <ele>69.6</ele>
        <time>2022-04-05T09:26:14Z</time>
      </trkpt>
      <trkpt lat="44.88802" lon="0.33774">
        <ele>69.6</ele>
        <time>2022-04-05T09:26:15Z</time>
      </trkpt>
      <trkpt lat="44.88802" lon="0.33773">
        <ele>69.7</ele>
        <time>2022-04-05T09:26:16Z</time>
      </trkpt>
      <trkpt lat="44.88803" lon="0.33771">
        <ele>69.8</ele>
        <time>2022-04-05T09:26:17Z</time>
      </trkpt>
      <trkpt lat="44.88804" lon="0.33771">
        <ele>69.8</ele>
        <time>2022-04-05T09:26:18Z</time>
      </trkpt>
      <trkpt lat="44.88806" lon="0.3377">
        <ele>70</ele>
        <time>2022-04-05T09:26:20Z</time>
      </trkpt>
      <trkpt lat="44.88807" lon="0.3377">
        <ele>70</ele>
        <time>2022-04-05T09:26:21Z</time>
      </trkpt>
      <trkpt lat="44.88808" lon="0.3377">
        <ele>70.1</ele>
        <time>2022-04-05T09:26:22Z</time>
      </trkpt>
      <trkpt lat="44.88809" lon="0.33769">
        <ele>70.2</ele>
        <time>2022-04-05T09:26:23Z</time>
      </trkpt>
      <trkpt lat="44.88811" lon="0.33767">
        <ele>70.3</ele>
        <time>2022-04-05T09:26:24Z</time>
      </trkpt>
      <trkpt lat="44.88812" lon="0.33767">
        <ele>70.4</ele>
        <time>2022-04-05T09:26:25Z</time>
      </trkpt>
      <trkpt lat="44.88813" lon="0.33766">
        <ele>70.4</ele>
        <time>2022-04-05T09:26:26Z</time>
      </trkpt>
      <trkpt lat="44.88814" lon="0.33766">
        <ele>70.5</ele>
        <time>2022-04-05T09:26:27Z</time>
      </trkpt>
      <trkpt lat="44.88815" lon="0.33765">
        <ele>70.6</ele>
        <time>2022-04-05T09:26:28Z</time>
      </trkpt>
      <trkpt lat="44.88816" lon="0.33764">
        <ele>70.7</ele>
        <time>2022-04-05T09:26:30Z</time>
      </trkpt>
      <trkpt lat="44.88817" lon="0.33764">
        <ele>70.8</ele>
        <time>2022-04-05T09:26:31Z</time>
      </trkpt>
      <trkpt lat="44.88818" lon="0.33763">
        <ele>70.8</ele>
        <time>2022-04-05T09:26:32Z</time>
      </trkpt>
      <trkpt lat="44.88819" lon="0.33763">
        <ele>70.9</ele>
        <time>2022-04-05T09:26:33Z</time>
      </trkpt>
      <trkpt lat="44.8882" lon="0.33762">
        <ele>70.9</ele>
        <time>2022-04-05T09:26:34Z</time>
      </trkpt>
      <trkpt lat="44.88821" lon="0.33762">
        <ele>71</ele>
        <time>2022-04-05T09:26:35Z</time>
      </trkpt>
      <trkpt lat="44.88822" lon="0.33761">
        <ele>71.1</ele>
        <time>2022-04-05T09:26:36Z</time>
      </trkpt>
      <trkpt lat="44.88824" lon="0.3376">
        <ele>71.3</ele>
        <time>2022-04-05T09:26:37Z</time>
      </trkpt>
      <trkpt lat="44.88825" lon="0.33759">
        <ele>71.3</ele>
        <time>2022-04-05T09:26:38Z</time>
      </trkpt>
      <trkpt lat="44.88825" lon="0.33759">
        <ele>71.4</ele>
        <time>2022-04-05T09:26:39Z</time>
      </trkpt>
      <trkpt lat="44.88828" lon="0.33757">
        <ele>71.6</ele>
        <time>2022-04-05T09:26:41Z</time>
      </trkpt>
      <trkpt lat="44.88829" lon="0.33756">
        <ele>71.7</ele>
        <time>2022-04-05T09:26:42Z</time>
      </trkpt>
      <trkpt lat="44.8883" lon="0.33756">
        <ele>71.8</ele>
        <time>2022-04-05T09:26:43Z</time>
      </trkpt>
      <trkpt lat="44.88831" lon="0.33755">
        <ele>71.9</ele>
        <time>2022-04-05T09:26:44Z</time>
      </trkpt>
      <trkpt lat="44.88833" lon="0.33754">
        <ele>72</ele>
        <time>2022-04-05T09:26:46Z</time>
      </trkpt>
      <trkpt lat="44.88835" lon="0.33752">
        <ele>72.2</ele>
        <time>2022-04-05T09:26:47Z</time>
      </trkpt>
      <trkpt lat="44.88836" lon="0.33752">
        <ele>72.2</ele>
        <time>2022-04-05T09:26:48Z</time>
      </trkpt>
      <trkpt lat="44.88836" lon="0.33752">
        <ele>72.3</ele>
        <time>2022-04-05T09:26:49Z</time>
      </trkpt>
      <trkpt lat="44.88838" lon="0.33751">
        <ele>72.4</ele>
        <time>2022-04-05T09:26:50Z</time>
      </trkpt>
      <trkpt lat="44.88839" lon="0.3375">
        <ele>72.5</ele>
        <time>2022-04-05T09:26:51Z</time>
      </trkpt>
      <trkpt lat="44.88841" lon="0.3375">
        <ele>72.6</ele>
        <time>2022-04-05T09:26:52Z</time>
      </trkpt>
      <trkpt lat="44.88841" lon="0.3375">
        <ele>72.7</ele>
        <time>2022-04-05T09:26:53Z</time>
      </trkpt>
      <trkpt lat="44.88843" lon="0.33749">
        <ele>72.8</ele>
        <time>2022-04-05T09:26:54Z</time>
      </trkpt>
      <trkpt lat="44.88844" lon="0.33748">
        <ele>72.9</ele>
        <time>2022-04-05T09:26:56Z</time>
      </trkpt>
      <trkpt lat="44.88847" lon="0.33746">
        <ele>73.1</ele>
        <time>2022-04-05T09:26:57Z</time>
      </trkpt>
      <trkpt lat="44.88847" lon="0.33746">
        <ele>73.1</ele>
        <time>2022-04-05T09:26:58Z</time>
      </trkpt>
      <trkpt lat="44.88848" lon="0.33746">
        <ele>73.1</ele>
        <time>2022-04-05T09:26:59Z</time>
      </trkpt>
      <trkpt lat="44.8885" lon="0.33744">
        <ele>73.3</ele>
        <time>2022-04-05T09:27:00Z</time>
      </trkpt>
      <trkpt lat="44.88851" lon="0.33744">
        <ele>73.4</ele>
        <time>2022-04-05T09:27:01Z</time>
      </trkpt>
      <trkpt lat="44.88852" lon="0.33743">
        <ele>73.4</ele>
        <time>2022-04-05T09:27:02Z</time>
      </trkpt>
      <trkpt lat="44.88853" lon="0.33743">
        <ele>73.5</ele>
        <time>2022-04-05T09:27:04Z</time>
      </trkpt>
      <trkpt lat="44.88854" lon="0.33742">
        <ele>73.6</ele>
        <time>2022-04-05T09:27:05Z</time>
      </trkpt>
      <trkpt lat="44.88855" lon="0.33741">
        <ele>73.7</ele>
        <time>2022-04-05T09:27:06Z</time>
      </trkpt>
      <trkpt lat="44.88857" lon="0.3374">
        <ele>73.8</ele>
        <time>2022-04-05T09:27:07Z</time>
      </trkpt>
      <trkpt lat="44.88857" lon="0.33739">
        <ele>73.9</ele>
        <time>2022-04-05T09:27:08Z</time>
      </trkpt>
      <trkpt lat="44.88859" lon="0.33737">
        <ele>74</ele>
        <time>2022-04-05T09:27:09Z</time>
      </trkpt>
      <trkpt lat="44.8886" lon="0.33737">
        <ele>74.1</ele>
        <time>2022-04-05T09:27:10Z</time>
      </trkpt>
      <trkpt lat="44.8886" lon="0.33736">
        <ele>74.1</ele>
        <time>2022-04-05T09:27:11Z</time>
      </trkpt>
      <trkpt lat="44.88863" lon="0.33734">
        <ele>74.3</ele>
        <time>2022-04-05T09:27:12Z</time>
      </trkpt>
      <trkpt lat="44.88864" lon="0.33733">
        <ele>74.4</ele>
        <time>2022-04-05T09:27:14Z</time>
      </trkpt>
      <trkpt lat="44.88865" lon="0.33733">
        <ele>74.5</ele>
        <time>2022-04-05T09:27:15Z</time>
      </trkpt>
      <trkpt lat="44.88866" lon="0.33732">
        <ele>74.5</ele>
        <time>2022-04-05T09:27:16Z</time>
      </trkpt>
      <trkpt lat="44.88867" lon="0.33731">
        <ele>74.6</ele>
        <time>2022-04-05T09:27:17Z</time>
      </trkpt>
      <trkpt lat="44.88868" lon="0.33731">
        <ele>74.7</ele>
        <time>2022-04-05T09:27:18Z</time>
      </trkpt>
      <trkpt lat="44.88869" lon="0.3373">
        <ele>74.7</ele>
        <time>2022-04-05T09:27:19Z</time>
      </trkpt>
      <trkpt lat="44.8887" lon="0.33729">
        <ele>74.8</ele>
        <time>2022-04-05T09:27:20Z</time>
      </trkpt>
      <trkpt lat="44.88872" lon="0.33729">
        <ele>74.9</ele>
        <time>2022-04-05T09:27:21Z</time>
      </trkpt>
      <trkpt lat="44.88873" lon="0.33727">
        <ele>75</ele>
        <time>2022-04-05T09:27:23Z</time>
      </trkpt>
      <trkpt lat="44.88874" lon="0.33727">
        <ele>75.1</ele>
        <time>2022-04-05T09:27:24Z</time>
      </trkpt>
      <trkpt lat="44.88875" lon="0.33726">
        <ele>75.2</ele>
        <time>2022-04-05T09:27:25Z</time>
      </trkpt>
      <trkpt lat="44.88876" lon="0.33725">
        <ele>75.3</ele>
        <time>2022-04-05T09:27:26Z</time>
      </trkpt>
      <trkpt lat="44.88878" lon="0.33722">
        <ele>75.4</ele>
        <time>2022-04-05T09:27:27Z</time>
      </trkpt>
      <trkpt lat="44.88878" lon="0.33722">
        <ele>75.4</ele>
        <time>2022-04-05T09:27:28Z</time>
      </trkpt>
      <trkpt lat="44.88879" lon="0.33721">
        <ele>75.5</ele>
        <time>2022-04-05T09:27:29Z</time>
      </trkpt>
      <trkpt lat="44.88881" lon="0.33719">
        <ele>75.7</ele>
        <time>2022-04-05T09:27:31Z</time>
      </trkpt>
      <trkpt lat="44.88882" lon="0.33717">
        <ele>75.8</ele>
        <time>2022-04-05T09:27:33Z</time>
      </trkpt>
      <trkpt lat="44.88883" lon="0.33716">
        <ele>75.9</ele>
        <time>2022-04-05T09:27:34Z</time>
      </trkpt>
      <trkpt lat="44.88884" lon="0.33715">
        <ele>75.9</ele>
        <time>2022-04-05T09:27:35Z</time>
      </trkpt>
      <trkpt lat="44.88885" lon="0.33714">
        <ele>76</ele>
        <time>2022-04-05T09:27:36Z</time>
      </trkpt>
      <trkpt lat="44.88887" lon="0.33712">
        <ele>76.2</ele>
        <time>2022-04-05T09:27:37Z</time>
      </trkpt>
      <trkpt lat="44.88888" lon="0.33711">
        <ele>76.2</ele>
        <time>2022-04-05T09:27:38Z</time>
      </trkpt>
      <trkpt lat="44.88889" lon="0.3371">
        <ele>76.3</ele>
        <time>2022-04-05T09:27:40Z</time>
      </trkpt>
      <trkpt lat="44.8889" lon="0.33709">
        <ele>76.5</ele>
        <time>2022-04-05T09:27:41Z</time>
      </trkpt>
      <trkpt lat="44.88892" lon="0.33707">
        <ele>76.6</ele>
        <time>2022-04-05T09:27:43Z</time>
      </trkpt>
      <trkpt lat="44.88893" lon="0.33706">
        <ele>76.7</ele>
        <time>2022-04-05T09:27:44Z</time>
      </trkpt>
      <trkpt lat="44.88894" lon="0.33705">
        <ele>76.8</ele>
        <time>2022-04-05T09:27:45Z</time>
      </trkpt>
      <trkpt lat="44.88895" lon="0.33704">
        <ele>76.8</ele>
        <time>2022-04-05T09:27:46Z</time>
      </trkpt>
      <trkpt lat="44.88897" lon="0.33703">
        <ele>77</ele>
        <time>2022-04-05T09:27:48Z</time>
      </trkpt>
      <trkpt lat="44.88899" lon="0.33702">
        <ele>77.1</ele>
        <time>2022-04-05T09:27:49Z</time>
      </trkpt>
      <trkpt lat="44.889" lon="0.33702">
        <ele>77.2</ele>
        <time>2022-04-05T09:27:50Z</time>
      </trkpt>
      <trkpt lat="44.88901" lon="0.33702">
        <ele>77.2</ele>
        <time>2022-04-05T09:27:51Z</time>
      </trkpt>
      <trkpt lat="44.88902" lon="0.337">
        <ele>77.3</ele>
        <time>2022-04-05T09:27:52Z</time>
      </trkpt>
      <trkpt lat="44.88903" lon="0.33699">
        <ele>77.4</ele>
        <time>2022-04-05T09:27:53Z</time>
      </trkpt>
      <trkpt lat="44.88904" lon="0.33699">
        <ele>77.5</ele>
        <time>2022-04-05T09:27:54Z</time>
      </trkpt>
      <trkpt lat="44.88905" lon="0.33698">
        <ele>77.5</ele>
        <time>2022-04-05T09:27:55Z</time>
      </trkpt>
      <trkpt lat="44.88906" lon="0.33697">
        <ele>77.6</ele>
        <time>2022-04-05T09:27:56Z</time>
      </trkpt>
      <trkpt lat="44.88909" lon="0.33695">
        <ele>77.8</ele>
        <time>2022-04-05T09:27:57Z</time>
      </trkpt>
      <trkpt lat="44.88909" lon="0.33695">
        <ele>77.8</ele>
        <time>2022-04-05T09:27:58Z</time>
      </trkpt>
      <trkpt lat="44.8891" lon="0.33695">
        <ele>77.9</ele>
        <time>2022-04-05T09:27:59Z</time>
      </trkpt>
      <trkpt lat="44.88911" lon="0.33694">
        <ele>78</ele>
        <time>2022-04-05T09:28:00Z</time>
      </trkpt>
      <trkpt lat="44.88913" lon="0.33693">
        <ele>78.1</ele>
        <time>2022-04-05T09:28:02Z</time>
      </trkpt>
      <trkpt lat="44.88914" lon="0.33692">
        <ele>78.2</ele>
        <time>2022-04-05T09:28:03Z</time>
      </trkpt>
      <trkpt lat="44.88915" lon="0.33691">
        <ele>78.2</ele>
        <time>2022-04-05T09:28:04Z</time>
      </trkpt>
      <trkpt lat="44.88917" lon="0.33689">
        <ele>78.4</ele>
        <time>2022-04-05T09:28:05Z</time>
      </trkpt>
      <trkpt lat="44.88918" lon="0.33688">
        <ele>78.5</ele>
        <time>2022-04-05T09:28:06Z</time>
      </trkpt>
      <trkpt lat="44.88919" lon="0.33687">
        <ele>78.5</ele>
        <time>2022-04-05T09:28:07Z</time>
      </trkpt>
      <trkpt lat="44.8892" lon="0.33687">
        <ele>78.6</ele>
        <time>2022-04-05T09:28:08Z</time>
      </trkpt>
      <trkpt lat="44.88921" lon="0.33687">
        <ele>78.6</ele>
        <time>2022-04-05T09:28:09Z</time>
      </trkpt>
      <trkpt lat="44.88922" lon="0.33686">
        <ele>78.7</ele>
        <time>2022-04-05T09:28:10Z</time>
      </trkpt>
      <trkpt lat="44.88924" lon="0.33685">
        <ele>78.8</ele>
        <time>2022-04-05T09:28:12Z</time>
      </trkpt>
      <trkpt lat="44.88925" lon="0.33685">
        <ele>78.9</ele>
        <time>2022-04-05T09:28:13Z</time>
      </trkpt>
      <trkpt lat="44.88927" lon="0.33684">
        <ele>78.9</ele>
        <time>2022-04-05T09:28:15Z</time>
      </trkpt>
      <trkpt lat="44.88928" lon="0.33683">
        <ele>79</ele>
        <time>2022-04-05T09:28:16Z</time>
      </trkpt>
      <trkpt lat="44.88929" lon="0.33683">
        <ele>79</ele>
        <time>2022-04-05T09:28:17Z</time>
      </trkpt>
      <trkpt lat="44.88931" lon="0.33682">
        <ele>79.1</ele>
        <time>2022-04-05T09:28:18Z</time>
      </trkpt>
      <trkpt lat="44.88932" lon="0.33682">
        <ele>79.1</ele>
        <time>2022-04-05T09:28:19Z</time>
      </trkpt>
      <trkpt lat="44.88933" lon="0.33681">
        <ele>79.2</ele>
        <time>2022-04-05T09:28:20Z</time>
      </trkpt>
      <trkpt lat="44.88934" lon="0.3368">
        <ele>79.2</ele>
        <time>2022-04-05T09:28:21Z</time>
      </trkpt>
      <trkpt lat="44.88935" lon="0.3368">
        <ele>79.2</ele>
        <time>2022-04-05T09:28:22Z</time>
      </trkpt>
      <trkpt lat="44.88937" lon="0.33679">
        <ele>79.3</ele>
        <time>2022-04-05T09:28:23Z</time>
      </trkpt>
      <trkpt lat="44.88939" lon="0.33678">
        <ele>79.3</ele>
        <time>2022-04-05T09:28:24Z</time>
      </trkpt>
      <trkpt lat="44.8894" lon="0.33678">
        <ele>79.3</ele>
        <time>2022-04-05T09:28:25Z</time>
      </trkpt>
      <trkpt lat="44.88941" lon="0.33677">
        <ele>79.4</ele>
        <time>2022-04-05T09:28:26Z</time>
      </trkpt>
      <trkpt lat="44.88944" lon="0.33677">
        <ele>79.5</ele>
        <time>2022-04-05T09:28:28Z</time>
      </trkpt>
      <trkpt lat="44.88945" lon="0.33676">
        <ele>79.5</ele>
        <time>2022-04-05T09:28:29Z</time>
      </trkpt>
      <trkpt lat="44.88946" lon="0.33676">
        <ele>79.5</ele>
        <time>2022-04-05T09:28:30Z</time>
      </trkpt>
      <trkpt lat="44.88947" lon="0.33676">
        <ele>79.5</ele>
        <time>2022-04-05T09:28:31Z</time>
      </trkpt>
      <trkpt lat="44.88949" lon="0.33675">
        <ele>79.6</ele>
        <time>2022-04-05T09:28:32Z</time>
      </trkpt>
      <trkpt lat="44.8895" lon="0.33674">
        <ele>79.6</ele>
        <time>2022-04-05T09:28:33Z</time>
      </trkpt>
      <trkpt lat="44.88952" lon="0.33673">
        <ele>79.6</ele>
        <time>2022-04-05T09:28:35Z</time>
      </trkpt>
      <trkpt lat="44.88953" lon="0.33673">
        <ele>79.7</ele>
        <time>2022-04-05T09:28:36Z</time>
      </trkpt>
      <trkpt lat="44.88954" lon="0.33672">
        <ele>79.7</ele>
        <time>2022-04-05T09:28:37Z</time>
      </trkpt>
      <trkpt lat="44.88956" lon="0.33671">
        <ele>79.7</ele>
        <time>2022-04-05T09:28:38Z</time>
      </trkpt>
      <trkpt lat="44.88956" lon="0.33671">
        <ele>79.7</ele>
        <time>2022-04-05T09:28:39Z</time>
      </trkpt>
      <trkpt lat="44.88957" lon="0.33671">
        <ele>79.7</ele>
        <time>2022-04-05T09:28:40Z</time>
      </trkpt>
      <trkpt lat="44.88959" lon="0.3367">
        <ele>79.8</ele>
        <time>2022-04-05T09:28:41Z</time>
      </trkpt>
      <trkpt lat="44.8896" lon="0.33669">
        <ele>79.8</ele>
        <time>2022-04-05T09:28:42Z</time>
      </trkpt>
      <trkpt lat="44.88961" lon="0.33669">
        <ele>79.8</ele>
        <time>2022-04-05T09:28:43Z</time>
      </trkpt>
      <trkpt lat="44.88962" lon="0.33668">
        <ele>79.8</ele>
        <time>2022-04-05T09:28:44Z</time>
      </trkpt>
      <trkpt lat="44.88963" lon="0.33668">
        <ele>79.8</ele>
        <time>2022-04-05T09:28:45Z</time>
      </trkpt>
      <trkpt lat="44.88965" lon="0.33667">
        <ele>79.8</ele>
        <time>2022-04-05T09:28:46Z</time>
      </trkpt>
      <trkpt lat="44.88966" lon="0.33667">
        <ele>79.9</ele>
        <time>2022-04-05T09:28:47Z</time>
      </trkpt>
      <trkpt lat="44.88968" lon="0.33666">
        <ele>79.9</ele>
        <time>2022-04-05T09:28:48Z</time>
      </trkpt>
      <trkpt lat="44.88969" lon="0.33666">
        <ele>79.9</ele>
        <time>2022-04-05T09:28:49Z</time>
      </trkpt>
      <trkpt lat="44.8897" lon="0.33665">
        <ele>79.9</ele>
        <time>2022-04-05T09:28:50Z</time>
      </trkpt>
      <trkpt lat="44.88971" lon="0.33665">
        <ele>79.9</ele>
        <time>2022-04-05T09:28:51Z</time>
      </trkpt>
      <trkpt lat="44.88973" lon="0.33664">
        <ele>79.9</ele>
        <time>2022-04-05T09:28:52Z</time>
      </trkpt>
      <trkpt lat="44.88975" lon="0.33664">
        <ele>79.9</ele>
        <time>2022-04-05T09:28:53Z</time>
      </trkpt>
      <trkpt lat="44.88975" lon="0.33663">
        <ele>80</ele>
        <time>2022-04-05T09:28:54Z</time>
      </trkpt>
      <trkpt lat="44.88976" lon="0.33663">
        <ele>80</ele>
        <time>2022-04-05T09:28:55Z</time>
      </trkpt>
      <trkpt lat="44.88978" lon="0.33662">
        <ele>80</ele>
        <time>2022-04-05T09:28:56Z</time>
      </trkpt>
      <trkpt lat="44.88979" lon="0.33662">
        <ele>80</ele>
        <time>2022-04-05T09:28:57Z</time>
      </trkpt>
      <trkpt lat="44.88981" lon="0.33661">
        <ele>80</ele>
        <time>2022-04-05T09:28:58Z</time>
      </trkpt>
      <trkpt lat="44.88981" lon="0.33661">
        <ele>80</ele>
        <time>2022-04-05T09:28:59Z</time>
      </trkpt>
      <trkpt lat="44.88982" lon="0.3366">
        <ele>80</ele>
        <time>2022-04-05T09:29:00Z</time>
      </trkpt>
      <trkpt lat="44.88984" lon="0.3366">
        <ele>80</ele>
        <time>2022-04-05T09:29:01Z</time>
      </trkpt>
      <trkpt lat="44.88985" lon="0.3366">
        <ele>80.1</ele>
        <time>2022-04-05T09:29:02Z</time>
      </trkpt>
      <trkpt lat="44.88986" lon="0.3366">
        <ele>80.1</ele>
        <time>2022-04-05T09:29:03Z</time>
      </trkpt>
      <trkpt lat="44.88987" lon="0.3366">
        <ele>80.1</ele>
        <time>2022-04-05T09:29:05Z</time>
      </trkpt>
      <trkpt lat="44.88989" lon="0.3366">
        <ele>80.1</ele>
        <time>2022-04-05T09:29:06Z</time>
      </trkpt>
      <trkpt lat="44.8899" lon="0.33659">
        <ele>80.1</ele>
        <time>2022-04-05T09:29:07Z</time>
      </trkpt>
      <trkpt lat="44.88992" lon="0.33658">
        <ele>80.2</ele>
        <time>2022-04-05T09:29:08Z</time>
      </trkpt>
      <trkpt lat="44.88993" lon="0.33657">
        <ele>80.2</ele>
        <time>2022-04-05T09:29:09Z</time>
      </trkpt>
      <trkpt lat="44.88995" lon="0.33657">
        <ele>80.2</ele>
        <time>2022-04-05T09:29:10Z</time>
      </trkpt>
      <trkpt lat="44.88996" lon="0.33657">
        <ele>80.2</ele>
        <time>2022-04-05T09:29:11Z</time>
      </trkpt>
      <trkpt lat="44.88998" lon="0.33656">
        <ele>80.2</ele>
        <time>2022-04-05T09:29:12Z</time>
      </trkpt>
      <trkpt lat="44.88999" lon="0.33656">
        <ele>80.3</ele>
        <time>2022-04-05T09:29:13Z</time>
      </trkpt>
      <trkpt lat="44.89" lon="0.33654">
        <ele>80.3</ele>
        <time>2022-04-05T09:29:14Z</time>
      </trkpt>
      <trkpt lat="44.89001" lon="0.33654">
        <ele>80.3</ele>
        <time>2022-04-05T09:29:15Z</time>
      </trkpt>
      <trkpt lat="44.89002" lon="0.33653">
        <ele>80.3</ele>
        <time>2022-04-05T09:29:16Z</time>
      </trkpt>
      <trkpt lat="44.89003" lon="0.33652">
        <ele>80.4</ele>
        <time>2022-04-05T09:29:17Z</time>
      </trkpt>
      <trkpt lat="44.89005" lon="0.33652">
        <ele>80.4</ele>
        <time>2022-04-05T09:29:18Z</time>
      </trkpt>
      <trkpt lat="44.89006" lon="0.33651">
        <ele>80.4</ele>
        <time>2022-04-05T09:29:19Z</time>
      </trkpt>
      <trkpt lat="44.89008" lon="0.33651">
        <ele>80.4</ele>
        <time>2022-04-05T09:29:21Z</time>
      </trkpt>
      <trkpt lat="44.89009" lon="0.3365">
        <ele>80.5</ele>
        <time>2022-04-05T09:29:22Z</time>
      </trkpt>
      <trkpt lat="44.89011" lon="0.3365">
        <ele>80.5</ele>
        <time>2022-04-05T09:29:23Z</time>
      </trkpt>
      <trkpt lat="44.89014" lon="0.33648">
        <ele>80.6</ele>
        <time>2022-04-05T09:29:25Z</time>
      </trkpt>
      <trkpt lat="44.89015" lon="0.33647">
        <ele>80.6</ele>
        <time>2022-04-05T09:29:26Z</time>
      </trkpt>
      <trkpt lat="44.89016" lon="0.33647">
        <ele>80.6</ele>
        <time>2022-04-05T09:29:27Z</time>
      </trkpt>
      <trkpt lat="44.89017" lon="0.33647">
        <ele>80.6</ele>
        <time>2022-04-05T09:29:28Z</time>
      </trkpt>
      <trkpt lat="44.89018" lon="0.33646">
        <ele>80.7</ele>
        <time>2022-04-05T09:29:29Z</time>
      </trkpt>
      <trkpt lat="44.89019" lon="0.33645">
        <ele>80.7</ele>
        <time>2022-04-05T09:29:30Z</time>
      </trkpt>
      <trkpt lat="44.89021" lon="0.33644">
        <ele>80.7</ele>
        <time>2022-04-05T09:29:31Z</time>
      </trkpt>
      <trkpt lat="44.89022" lon="0.33643">
        <ele>80.7</ele>
        <time>2022-04-05T09:29:32Z</time>
      </trkpt>
      <trkpt lat="44.89023" lon="0.33643">
        <ele>80.8</ele>
        <time>2022-04-05T09:29:33Z</time>
      </trkpt>
      <trkpt lat="44.89025" lon="0.33641">
        <ele>80.8</ele>
        <time>2022-04-05T09:29:35Z</time>
      </trkpt>
      <trkpt lat="44.89026" lon="0.33641">
        <ele>80.8</ele>
        <time>2022-04-05T09:29:36Z</time>
      </trkpt>
      <trkpt lat="44.89027" lon="0.3364">
        <ele>80.9</ele>
        <time>2022-04-05T09:29:37Z</time>
      </trkpt>
      <trkpt lat="44.89028" lon="0.3364">
        <ele>80.9</ele>
        <time>2022-04-05T09:29:38Z</time>
      </trkpt>
      <trkpt lat="44.89029" lon="0.33639">
        <ele>80.9</ele>
        <time>2022-04-05T09:29:39Z</time>
      </trkpt>
      <trkpt lat="44.89031" lon="0.33638">
        <ele>81</ele>
        <time>2022-04-05T09:29:40Z</time>
      </trkpt>
      <trkpt lat="44.89031" lon="0.33637">
        <ele>81</ele>
        <time>2022-04-05T09:29:41Z</time>
      </trkpt>
      <trkpt lat="44.89032" lon="0.33637">
        <ele>81</ele>
        <time>2022-04-05T09:29:42Z</time>
      </trkpt>
      <trkpt lat="44.89033" lon="0.33635">
        <ele>81.1</ele>
        <time>2022-04-05T09:29:43Z</time>
      </trkpt>
      <trkpt lat="44.89034" lon="0.33634">
        <ele>81.1</ele>
        <time>2022-04-05T09:29:44Z</time>
      </trkpt>
      <trkpt lat="44.89035" lon="0.33634">
        <ele>81.1</ele>
        <time>2022-04-05T09:29:45Z</time>
      </trkpt>
      <trkpt lat="44.89036" lon="0.33633">
        <ele>81.1</ele>
        <time>2022-04-05T09:29:46Z</time>
      </trkpt>
      <trkpt lat="44.89037" lon="0.33633">
        <ele>81.2</ele>
        <time>2022-04-05T09:29:47Z</time>
      </trkpt>
      <trkpt lat="44.89038" lon="0.33632">
        <ele>81.2</ele>
        <time>2022-04-05T09:29:48Z</time>
      </trkpt>
      <trkpt lat="44.89039" lon="0.33631">
        <ele>81.2</ele>
        <time>2022-04-05T09:29:50Z</time>
      </trkpt>
      <trkpt lat="44.89041" lon="0.33631">
        <ele>81.3</ele>
        <time>2022-04-05T09:29:51Z</time>
      </trkpt>
      <trkpt lat="44.89042" lon="0.3363">
        <ele>81.3</ele>
        <time>2022-04-05T09:29:52Z</time>
      </trkpt>
      <trkpt lat="44.89043" lon="0.33629">
        <ele>81.3</ele>
        <time>2022-04-05T09:29:53Z</time>
      </trkpt>
      <trkpt lat="44.89044" lon="0.33628">
        <ele>81.4</ele>
        <time>2022-04-05T09:29:54Z</time>
      </trkpt>
      <trkpt lat="44.89046" lon="0.33627">
        <ele>81.4</ele>
        <time>2022-04-05T09:29:55Z</time>
      </trkpt>
      <trkpt lat="44.89047" lon="0.33625">
        <ele>81.5</ele>
        <time>2022-04-05T09:29:56Z</time>
      </trkpt>
      <trkpt lat="44.89048" lon="0.33624">
        <ele>81.5</ele>
        <time>2022-04-05T09:29:57Z</time>
      </trkpt>
      <trkpt lat="44.89049" lon="0.33623">
        <ele>81.5</ele>
        <time>2022-04-05T09:29:58Z</time>
      </trkpt>
      <trkpt lat="44.8905" lon="0.33623">
        <ele>81.5</ele>
        <time>2022-04-05T09:29:59Z</time>
      </trkpt>
      <trkpt lat="44.89051" lon="0.33622">
        <ele>81.6</ele>
        <time>2022-04-05T09:30:00Z</time>
      </trkpt>
      <trkpt lat="44.89052" lon="0.33621">
        <ele>81.6</ele>
        <time>2022-04-05T09:30:01Z</time>
      </trkpt>
      <trkpt lat="44.89053" lon="0.33621">
        <ele>81.6</ele>
        <time>2022-04-05T09:30:02Z</time>
      </trkpt>
      <trkpt lat="44.89054" lon="0.3362">
        <ele>81.7</ele>
        <time>2022-04-05T09:30:03Z</time>
      </trkpt>
      <trkpt lat="44.89057" lon="0.33618">
        <ele>81.7</ele>
        <time>2022-04-05T09:30:05Z</time>
      </trkpt>
      <trkpt lat="44.89057" lon="0.33618">
        <ele>81.7</ele>
        <time>2022-04-05T09:30:06Z</time>
      </trkpt>
      <trkpt lat="44.89059" lon="0.33616">
        <ele>81.8</ele>
        <time>2022-04-05T09:30:07Z</time>
      </trkpt>
      <trkpt lat="44.8906" lon="0.33615">
        <ele>81.8</ele>
        <time>2022-04-05T09:30:08Z</time>
      </trkpt>
      <trkpt lat="44.89061" lon="0.33614">
        <ele>81.8</ele>
        <time>2022-04-05T09:30:09Z</time>
      </trkpt>
      <trkpt lat="44.89063" lon="0.33612">
        <ele>81.9</ele>
        <time>2022-04-05T09:30:11Z</time>
      </trkpt>
      <trkpt lat="44.89064" lon="0.33611">
        <ele>81.9</ele>
        <time>2022-04-05T09:30:12Z</time>
      </trkpt>
      <trkpt lat="44.89064" lon="0.33611">
        <ele>81.9</ele>
        <time>2022-04-05T09:30:13Z</time>
      </trkpt>
      <trkpt lat="44.89066" lon="0.3361">
        <ele>82</ele>
        <time>2022-04-05T09:30:14Z</time>
      </trkpt>
      <trkpt lat="44.89067" lon="0.33609">
        <ele>82</ele>
        <time>2022-04-05T09:30:15Z</time>
      </trkpt>
      <trkpt lat="44.89069" lon="0.33608">
        <ele>82.1</ele>
        <time>2022-04-05T09:30:16Z</time>
      </trkpt>
      <trkpt lat="44.8907" lon="0.33608">
        <ele>82.1</ele>
        <time>2022-04-05T09:30:17Z</time>
      </trkpt>
      <trkpt lat="44.89071" lon="0.33607">
        <ele>82.1</ele>
        <time>2022-04-05T09:30:18Z</time>
      </trkpt>
      <trkpt lat="44.89073" lon="0.33605">
        <ele>82.2</ele>
        <time>2022-04-05T09:30:19Z</time>
      </trkpt>
      <trkpt lat="44.89074" lon="0.33605">
        <ele>82.2</ele>
        <time>2022-04-05T09:30:20Z</time>
      </trkpt>
      <trkpt lat="44.89075" lon="0.33604">
        <ele>82.3</ele>
        <time>2022-04-05T09:30:21Z</time>
      </trkpt>
      <trkpt lat="44.89076" lon="0.33603">
        <ele>82.3</ele>
        <time>2022-04-05T09:30:22Z</time>
      </trkpt>
      <trkpt lat="44.89077" lon="0.33602">
        <ele>82.3</ele>
        <time>2022-04-05T09:30:23Z</time>
      </trkpt>
      <trkpt lat="44.89079" lon="0.336">
        <ele>82.4</ele>
        <time>2022-04-05T09:30:25Z</time>
      </trkpt>
      <trkpt lat="44.89079" lon="0.336">
        <ele>82.4</ele>
        <time>2022-04-05T09:30:26Z</time>
      </trkpt>
      <trkpt lat="44.89081" lon="0.33599">
        <ele>82.5</ele>
        <time>2022-04-05T09:30:27Z</time>
      </trkpt>
      <trkpt lat="44.89082" lon="0.33598">
        <ele>82.6</ele>
        <time>2022-04-05T09:30:28Z</time>
      </trkpt>
      <trkpt lat="44.89083" lon="0.33598">
        <ele>82.6</ele>
        <time>2022-04-05T09:30:29Z</time>
      </trkpt>
      <trkpt lat="44.89085" lon="0.33597">
        <ele>82.7</ele>
        <time>2022-04-05T09:30:30Z</time>
      </trkpt>
      <trkpt lat="44.89085" lon="0.33596">
        <ele>82.7</ele>
        <time>2022-04-05T09:30:31Z</time>
      </trkpt>
      <trkpt lat="44.89086" lon="0.33596">
        <ele>82.8</ele>
        <time>2022-04-05T09:30:32Z</time>
      </trkpt>
      <trkpt lat="44.89088" lon="0.33594">
        <ele>82.8</ele>
        <time>2022-04-05T09:30:33Z</time>
      </trkpt>
      <trkpt lat="44.89088" lon="0.33593">
        <ele>82.9</ele>
        <time>2022-04-05T09:30:34Z</time>
      </trkpt>
      <trkpt lat="44.89089" lon="0.33592">
        <ele>83</ele>
        <time>2022-04-05T09:30:35Z</time>
      </trkpt>
      <trkpt lat="44.8909" lon="0.33592">
        <ele>83</ele>
        <time>2022-04-05T09:30:36Z</time>
      </trkpt>
      <trkpt lat="44.89091" lon="0.33591">
        <ele>83</ele>
        <time>2022-04-05T09:30:37Z</time>
      </trkpt>
      <trkpt lat="44.89092" lon="0.3359">
        <ele>83.1</ele>
        <time>2022-04-05T09:30:38Z</time>
      </trkpt>
      <trkpt lat="44.89093" lon="0.33589">
        <ele>83.2</ele>
        <time>2022-04-05T09:30:39Z</time>
      </trkpt>
      <trkpt lat="44.89095" lon="0.33587">
        <ele>83.3</ele>
        <time>2022-04-05T09:30:40Z</time>
      </trkpt>
      <trkpt lat="44.89097" lon="0.33586">
        <ele>83.4</ele>
        <time>2022-04-05T09:30:42Z</time>
      </trkpt>
      <trkpt lat="44.89097" lon="0.33585">
        <ele>83.4</ele>
        <time>2022-04-05T09:30:43Z</time>
      </trkpt>
      <trkpt lat="44.89098" lon="0.33585">
        <ele>83.5</ele>
        <time>2022-04-05T09:30:44Z</time>
      </trkpt>
      <trkpt lat="44.891" lon="0.33584">
        <ele>83.6</ele>
        <time>2022-04-05T09:30:45Z</time>
      </trkpt>
      <trkpt lat="44.89101" lon="0.33583">
        <ele>83.6</ele>
        <time>2022-04-05T09:30:46Z</time>
      </trkpt>
      <trkpt lat="44.89103" lon="0.33581">
        <ele>83.8</ele>
        <time>2022-04-05T09:30:47Z</time>
      </trkpt>
      <trkpt lat="44.89104" lon="0.3358">
        <ele>83.8</ele>
        <time>2022-04-05T09:30:48Z</time>
      </trkpt>
      <trkpt lat="44.89105" lon="0.33579">
        <ele>83.9</ele>
        <time>2022-04-05T09:30:49Z</time>
      </trkpt>
      <trkpt lat="44.89105" lon="0.33578">
        <ele>83.9</ele>
        <time>2022-04-05T09:30:51Z</time>
      </trkpt>
      <trkpt lat="44.89106" lon="0.33577">
        <ele>84</ele>
        <time>2022-04-05T09:30:52Z</time>
      </trkpt>
      <trkpt lat="44.89107" lon="0.33576">
        <ele>84</ele>
        <time>2022-04-05T09:30:53Z</time>
      </trkpt>
      <trkpt lat="44.89108" lon="0.33575">
        <ele>84.1</ele>
        <time>2022-04-05T09:30:54Z</time>
      </trkpt>
      <trkpt lat="44.8911" lon="0.33573">
        <ele>84.2</ele>
        <time>2022-04-05T09:30:55Z</time>
      </trkpt>
      <trkpt lat="44.8911" lon="0.33573">
        <ele>84.2</ele>
        <time>2022-04-05T09:30:56Z</time>
      </trkpt>
      <trkpt lat="44.89111" lon="0.33572">
        <ele>84.3</ele>
        <time>2022-04-05T09:30:57Z</time>
      </trkpt>
      <trkpt lat="44.89112" lon="0.33571">
        <ele>84.3</ele>
        <time>2022-04-05T09:30:58Z</time>
      </trkpt>
      <trkpt lat="44.89115" lon="0.33568">
        <ele>84.5</ele>
        <time>2022-04-05T09:31:00Z</time>
      </trkpt>
      <trkpt lat="44.89116" lon="0.33567">
        <ele>84.5</ele>
        <time>2022-04-05T09:31:01Z</time>
      </trkpt>
      <trkpt lat="44.89116" lon="0.33567">
        <ele>84.5</ele>
        <time>2022-04-05T09:31:02Z</time>
      </trkpt>
      <trkpt lat="44.89117" lon="0.33566">
        <ele>84.6</ele>
        <time>2022-04-05T09:31:03Z</time>
      </trkpt>
      <trkpt lat="44.89118" lon="0.33566">
        <ele>84.6</ele>
        <time>2022-04-05T09:31:04Z</time>
      </trkpt>
      <trkpt lat="44.89119" lon="0.33564">
        <ele>84.7</ele>
        <time>2022-04-05T09:31:05Z</time>
      </trkpt>
      <trkpt lat="44.8912" lon="0.33564">
        <ele>84.7</ele>
        <time>2022-04-05T09:31:06Z</time>
      </trkpt>
      <trkpt lat="44.89121" lon="0.33563">
        <ele>84.8</ele>
        <time>2022-04-05T09:31:07Z</time>
      </trkpt>
      <trkpt lat="44.89122" lon="0.33561">
        <ele>84.9</ele>
        <time>2022-04-05T09:31:09Z</time>
      </trkpt>
      <trkpt lat="44.89124" lon="0.33559">
        <ele>85</ele>
        <time>2022-04-05T09:31:10Z</time>
      </trkpt>
      <trkpt lat="44.89125" lon="0.33558">
        <ele>85</ele>
        <time>2022-04-05T09:31:11Z</time>
      </trkpt>
      <trkpt lat="44.89127" lon="0.33557">
        <ele>85.1</ele>
        <time>2022-04-05T09:31:12Z</time>
      </trkpt>
      <trkpt lat="44.89127" lon="0.33556">
        <ele>85.2</ele>
        <time>2022-04-05T09:31:13Z</time>
      </trkpt>
      <trkpt lat="44.89128" lon="0.33556">
        <ele>85.2</ele>
        <time>2022-04-05T09:31:14Z</time>
      </trkpt>
      <trkpt lat="44.8913" lon="0.33554">
        <ele>85.3</ele>
        <time>2022-04-05T09:31:15Z</time>
      </trkpt>
      <trkpt lat="44.89131" lon="0.33553">
        <ele>85.4</ele>
        <time>2022-04-05T09:31:16Z</time>
      </trkpt>
      <trkpt lat="44.89131" lon="0.33553">
        <ele>85.4</ele>
        <time>2022-04-05T09:31:17Z</time>
      </trkpt>
      <trkpt lat="44.89134" lon="0.33551">
        <ele>85.5</ele>
        <time>2022-04-05T09:31:18Z</time>
      </trkpt>
      <trkpt lat="44.89135" lon="0.3355">
        <ele>85.6</ele>
        <time>2022-04-05T09:31:19Z</time>
      </trkpt>
      <trkpt lat="44.89135" lon="0.3355">
        <ele>85.6</ele>
        <time>2022-04-05T09:31:21Z</time>
      </trkpt>
      <trkpt lat="44.89136" lon="0.33549">
        <ele>85.7</ele>
        <time>2022-04-05T09:31:22Z</time>
      </trkpt>
      <trkpt lat="44.89137" lon="0.33548">
        <ele>85.7</ele>
        <time>2022-04-05T09:31:23Z</time>
      </trkpt>
      <trkpt lat="44.89139" lon="0.33547">
        <ele>85.8</ele>
        <time>2022-04-05T09:31:24Z</time>
      </trkpt>
      <trkpt lat="44.8914" lon="0.33545">
        <ele>85.9</ele>
        <time>2022-04-05T09:31:25Z</time>
      </trkpt>
      <trkpt lat="44.89142" lon="0.33544">
        <ele>86</ele>
        <time>2022-04-05T09:31:26Z</time>
      </trkpt>
      <trkpt lat="44.89143" lon="0.33543">
        <ele>86.1</ele>
        <time>2022-04-05T09:31:27Z</time>
      </trkpt>
      <trkpt lat="44.89143" lon="0.33542">
        <ele>86.1</ele>
        <time>2022-04-05T09:31:28Z</time>
      </trkpt>
      <trkpt lat="44.89146" lon="0.3354">
        <ele>86.3</ele>
        <time>2022-04-05T09:31:30Z</time>
      </trkpt>
      <trkpt lat="44.89146" lon="0.3354">
        <ele>86.4</ele>
        <time>2022-04-05T09:31:31Z</time>
      </trkpt>
      <trkpt lat="44.89147" lon="0.33539">
        <ele>86.5</ele>
        <time>2022-04-05T09:31:32Z</time>
      </trkpt>
      <trkpt lat="44.89148" lon="0.33538">
        <ele>86.5</ele>
        <time>2022-04-05T09:31:33Z</time>
      </trkpt>
      <trkpt lat="44.8915" lon="0.33535">
        <ele>86.7</ele>
        <time>2022-04-05T09:31:35Z</time>
      </trkpt>
      <trkpt lat="44.89149" lon="0.33534">
        <ele>86.9</ele>
        <time>2022-04-05T09:31:36Z</time>
      </trkpt>
      <trkpt lat="44.89148" lon="0.33533">
        <ele>86.9</ele>
        <time>2022-04-05T09:31:37Z</time>
      </trkpt>
      <trkpt lat="44.89147" lon="0.33533">
        <ele>87</ele>
        <time>2022-04-05T09:31:38Z</time>
      </trkpt>
      <trkpt lat="44.89146" lon="0.33533">
        <ele>87.1</ele>
        <time>2022-04-05T09:31:39Z</time>
      </trkpt>
      <trkpt lat="44.89146" lon="0.33533">
        <ele>87.1</ele>
        <time>2022-04-05T09:31:40Z</time>
      </trkpt>
      <trkpt lat="44.89144" lon="0.33533">
        <ele>87.2</ele>
        <time>2022-04-05T09:31:41Z</time>
      </trkpt>
      <trkpt lat="44.89144" lon="0.33533">
        <ele>87.2</ele>
        <time>2022-04-05T09:31:42Z</time>
      </trkpt>
      <trkpt lat="44.89144" lon="0.33534">
        <ele>87.3</ele>
        <time>2022-04-05T09:31:43Z</time>
      </trkpt>
      <trkpt lat="44.89144" lon="0.33534">
        <ele>87.3</ele>
        <time>2022-04-05T09:31:44Z</time>
      </trkpt>
      <trkpt lat="44.89144" lon="0.33534">
        <ele>87.3</ele>
        <time>2022-04-05T09:31:45Z</time>
      </trkpt>
      <trkpt lat="44.89144" lon="0.33531">
        <ele>87.4</ele>
        <time>2022-04-05T09:31:47Z</time>
      </trkpt>
      <trkpt lat="44.89145" lon="0.3353">
        <ele>87.5</ele>
        <time>2022-04-05T09:31:48Z</time>
      </trkpt>
      <trkpt lat="44.89147" lon="0.33529">
        <ele>87.7</ele>
        <time>2022-04-05T09:31:49Z</time>
      </trkpt>
      <trkpt lat="44.8915" lon="0.33528">
        <ele>88</ele>
        <time>2022-04-05T09:31:51Z</time>
      </trkpt>
      <trkpt lat="44.89151" lon="0.33527">
        <ele>88</ele>
        <time>2022-04-05T09:31:52Z</time>
      </trkpt>
      <trkpt lat="44.89154" lon="0.33527">
        <ele>88.3</ele>
        <time>2022-04-05T09:31:53Z</time>
      </trkpt>
      <trkpt lat="44.89155" lon="0.33528">
        <ele>88.3</ele>
        <time>2022-04-05T09:31:54Z</time>
      </trkpt>
      <trkpt lat="44.89157" lon="0.33527">
        <ele>88.4</ele>
        <time>2022-04-05T09:31:55Z</time>
      </trkpt>
      <trkpt lat="44.89158" lon="0.33527">
        <ele>88.5</ele>
        <time>2022-04-05T09:31:56Z</time>
      </trkpt>
      <trkpt lat="44.8916" lon="0.33526">
        <ele>88.7</ele>
        <time>2022-04-05T09:31:57Z</time>
      </trkpt>
      <trkpt lat="44.89161" lon="0.33525">
        <ele>88.7</ele>
        <time>2022-04-05T09:31:59Z</time>
      </trkpt>
      <trkpt lat="44.89163" lon="0.33524">
        <ele>88.8</ele>
        <time>2022-04-05T09:32:00Z</time>
      </trkpt>
      <trkpt lat="44.89164" lon="0.33523">
        <ele>88.9</ele>
        <time>2022-04-05T09:32:01Z</time>
      </trkpt>
      <trkpt lat="44.89165" lon="0.33522">
        <ele>89</ele>
        <time>2022-04-05T09:32:02Z</time>
      </trkpt>
      <trkpt lat="44.89167" lon="0.33521">
        <ele>89.1</ele>
        <time>2022-04-05T09:32:03Z</time>
      </trkpt>
      <trkpt lat="44.89169" lon="0.3352">
        <ele>89.2</ele>
        <time>2022-04-05T09:32:04Z</time>
      </trkpt>
      <trkpt lat="44.89169" lon="0.33519">
        <ele>89.3</ele>
        <time>2022-04-05T09:32:05Z</time>
      </trkpt>
      <trkpt lat="44.8917" lon="0.33519">
        <ele>89.3</ele>
        <time>2022-04-05T09:32:06Z</time>
      </trkpt>
      <trkpt lat="44.89172" lon="0.33517">
        <ele>89.4</ele>
        <time>2022-04-05T09:32:08Z</time>
      </trkpt>
      <trkpt lat="44.89173" lon="0.33516">
        <ele>89.5</ele>
        <time>2022-04-05T09:32:09Z</time>
      </trkpt>
      <trkpt lat="44.89174" lon="0.33515">
        <ele>89.5</ele>
        <time>2022-04-05T09:32:10Z</time>
      </trkpt>
      <trkpt lat="44.89175" lon="0.33513">
        <ele>89.6</ele>
        <time>2022-04-05T09:32:11Z</time>
      </trkpt>
      <trkpt lat="44.89176" lon="0.33512">
        <ele>89.7</ele>
        <time>2022-04-05T09:32:12Z</time>
      </trkpt>
      <trkpt lat="44.89177" lon="0.3351">
        <ele>89.7</ele>
        <time>2022-04-05T09:32:13Z</time>
      </trkpt>
      <trkpt lat="44.89178" lon="0.33509">
        <ele>89.8</ele>
        <time>2022-04-05T09:32:14Z</time>
      </trkpt>
      <trkpt lat="44.89178" lon="0.33509">
        <ele>89.8</ele>
        <time>2022-04-05T09:32:15Z</time>
      </trkpt>
      <trkpt lat="44.89179" lon="0.33508">
        <ele>89.9</ele>
        <time>2022-04-05T09:32:16Z</time>
      </trkpt>
      <trkpt lat="44.89182" lon="0.33505">
        <ele>90</ele>
        <time>2022-04-05T09:32:18Z</time>
      </trkpt>
      <trkpt lat="44.89183" lon="0.33505">
        <ele>90</ele>
        <time>2022-04-05T09:32:19Z</time>
      </trkpt>
      <trkpt lat="44.89184" lon="0.33504">
        <ele>90</ele>
        <time>2022-04-05T09:32:20Z</time>
      </trkpt>
      <trkpt lat="44.89185" lon="0.33503">
        <ele>90</ele>
        <time>2022-04-05T09:32:21Z</time>
      </trkpt>
      <trkpt lat="44.89186" lon="0.33503">
        <ele>90</ele>
        <time>2022-04-05T09:32:22Z</time>
      </trkpt>
      <trkpt lat="44.89187" lon="0.33501">
        <ele>90.1</ele>
        <time>2022-04-05T09:32:23Z</time>
      </trkpt>
      <trkpt lat="44.89188" lon="0.335">
        <ele>90.1</ele>
        <time>2022-04-05T09:32:24Z</time>
      </trkpt>
      <trkpt lat="44.89189" lon="0.33498">
        <ele>90.1</ele>
        <time>2022-04-05T09:32:25Z</time>
      </trkpt>
      <trkpt lat="44.8919" lon="0.33497">
        <ele>90.2</ele>
        <time>2022-04-05T09:32:26Z</time>
      </trkpt>
      <trkpt lat="44.8919" lon="0.33496">
        <ele>90.2</ele>
        <time>2022-04-05T09:32:27Z</time>
      </trkpt>
      <trkpt lat="44.89192" lon="0.33494">
        <ele>90.2</ele>
        <time>2022-04-05T09:32:28Z</time>
      </trkpt>
      <trkpt lat="44.89192" lon="0.33493">
        <ele>90.2</ele>
        <time>2022-04-05T09:32:29Z</time>
      </trkpt>
      <trkpt lat="44.89193" lon="0.33493">
        <ele>90.3</ele>
        <time>2022-04-05T09:32:30Z</time>
      </trkpt>
      <trkpt lat="44.89195" lon="0.3349">
        <ele>90.3</ele>
        <time>2022-04-05T09:32:31Z</time>
      </trkpt>
      <trkpt lat="44.89196" lon="0.33489">
        <ele>90.3</ele>
        <time>2022-04-05T09:32:32Z</time>
      </trkpt>
      <trkpt lat="44.89196" lon="0.33488">
        <ele>90.4</ele>
        <time>2022-04-05T09:32:33Z</time>
      </trkpt>
      <trkpt lat="44.89197" lon="0.33486">
        <ele>90.4</ele>
        <time>2022-04-05T09:32:35Z</time>
      </trkpt>
      <trkpt lat="44.89198" lon="0.33485">
        <ele>90.4</ele>
        <time>2022-04-05T09:32:36Z</time>
      </trkpt>
      <trkpt lat="44.892" lon="0.33482">
        <ele>90.5</ele>
        <time>2022-04-05T09:32:37Z</time>
      </trkpt>
      <trkpt lat="44.89201" lon="0.33481">
        <ele>90.5</ele>
        <time>2022-04-05T09:32:38Z</time>
      </trkpt>
      <trkpt lat="44.89202" lon="0.33479">
        <ele>90.6</ele>
        <time>2022-04-05T09:32:39Z</time>
      </trkpt>
      <trkpt lat="44.89203" lon="0.33478">
        <ele>90.6</ele>
        <time>2022-04-05T09:32:40Z</time>
      </trkpt>
      <trkpt lat="44.89204" lon="0.33477">
        <ele>90.6</ele>
        <time>2022-04-05T09:32:41Z</time>
      </trkpt>
      <trkpt lat="44.89205" lon="0.33476">
        <ele>90.6</ele>
        <time>2022-04-05T09:32:42Z</time>
      </trkpt>
      <trkpt lat="44.89206" lon="0.33474">
        <ele>90.7</ele>
        <time>2022-04-05T09:32:44Z</time>
      </trkpt>
      <trkpt lat="44.89208" lon="0.33472">
        <ele>90.7</ele>
        <time>2022-04-05T09:32:45Z</time>
      </trkpt>
      <trkpt lat="44.89208" lon="0.33471">
        <ele>90.7</ele>
        <time>2022-04-05T09:32:46Z</time>
      </trkpt>
      <trkpt lat="44.89209" lon="0.3347">
        <ele>90.7</ele>
        <time>2022-04-05T09:32:47Z</time>
      </trkpt>
      <trkpt lat="44.8921" lon="0.33467">
        <ele>90.8</ele>
        <time>2022-04-05T09:32:48Z</time>
      </trkpt>
      <trkpt lat="44.89211" lon="0.33466">
        <ele>90.8</ele>
        <time>2022-04-05T09:32:49Z</time>
      </trkpt>
      <trkpt lat="44.89211" lon="0.33464">
        <ele>90.8</ele>
        <time>2022-04-05T09:32:50Z</time>
      </trkpt>
      <trkpt lat="44.89212" lon="0.33463">
        <ele>90.8</ele>
        <time>2022-04-05T09:32:51Z</time>
      </trkpt>
      <trkpt lat="44.89213" lon="0.33461">
        <ele>90.8</ele>
        <time>2022-04-05T09:32:52Z</time>
      </trkpt>
      <trkpt lat="44.89214" lon="0.33459">
        <ele>90.9</ele>
        <time>2022-04-05T09:32:53Z</time>
      </trkpt>
      <trkpt lat="44.89215" lon="0.33457">
        <ele>90.9</ele>
        <time>2022-04-05T09:32:54Z</time>
      </trkpt>
      <trkpt lat="44.89215" lon="0.33456">
        <ele>90.9</ele>
        <time>2022-04-05T09:32:55Z</time>
      </trkpt>
      <trkpt lat="44.89215" lon="0.33454">
        <ele>90.9</ele>
        <time>2022-04-05T09:32:56Z</time>
      </trkpt>
      <trkpt lat="44.89217" lon="0.33451">
        <ele>90.9</ele>
        <time>2022-04-05T09:32:57Z</time>
      </trkpt>
      <trkpt lat="44.89218" lon="0.33451">
        <ele>91</ele>
        <time>2022-04-05T09:32:58Z</time>
      </trkpt>
      <trkpt lat="44.89218" lon="0.33449">
        <ele>91</ele>
        <time>2022-04-05T09:33:00Z</time>
      </trkpt>
      <trkpt lat="44.89219" lon="0.33447">
        <ele>91</ele>
        <time>2022-04-05T09:33:01Z</time>
      </trkpt>
      <trkpt lat="44.8922" lon="0.33446">
        <ele>91</ele>
        <time>2022-04-05T09:33:02Z</time>
      </trkpt>
      <trkpt lat="44.89221" lon="0.33444">
        <ele>91</ele>
        <time>2022-04-05T09:33:03Z</time>
      </trkpt>
      <trkpt lat="44.89222" lon="0.33443">
        <ele>91</ele>
        <time>2022-04-05T09:33:04Z</time>
      </trkpt>
      <trkpt lat="44.89223" lon="0.33443">
        <ele>91</ele>
        <time>2022-04-05T09:33:05Z</time>
      </trkpt>
      <trkpt lat="44.89223" lon="0.33441">
        <ele>91</ele>
        <time>2022-04-05T09:33:06Z</time>
      </trkpt>
      <trkpt lat="44.89225" lon="0.33439">
        <ele>91</ele>
        <time>2022-04-05T09:33:07Z</time>
      </trkpt>
      <trkpt lat="44.89225" lon="0.33438">
        <ele>91</ele>
        <time>2022-04-05T09:33:08Z</time>
      </trkpt>
      <trkpt lat="44.89226" lon="0.33437">
        <ele>91</ele>
        <time>2022-04-05T09:33:10Z</time>
      </trkpt>
      <trkpt lat="44.89228" lon="0.33435">
        <ele>91</ele>
        <time>2022-04-05T09:33:11Z</time>
      </trkpt>
      <trkpt lat="44.89229" lon="0.33433">
        <ele>90.7</ele>
        <time>2022-04-05T09:33:12Z</time>
      </trkpt>
      <trkpt lat="44.89229" lon="0.33432">
        <ele>90.6</ele>
        <time>2022-04-05T09:33:13Z</time>
      </trkpt>
      <trkpt lat="44.89229" lon="0.33431">
        <ele>90.5</ele>
        <time>2022-04-05T09:33:14Z</time>
      </trkpt>
      <trkpt lat="44.89229" lon="0.3343">
        <ele>90.3</ele>
        <time>2022-04-05T09:33:15Z</time>
      </trkpt>
      <trkpt lat="44.89229" lon="0.33429">
        <ele>90.2</ele>
        <time>2022-04-05T09:33:16Z</time>
      </trkpt>
      <trkpt lat="44.89228" lon="0.33429">
        <ele>90.2</ele>
        <time>2022-04-05T09:33:17Z</time>
      </trkpt>
      <trkpt lat="44.89228" lon="0.33428">
        <ele>90.1</ele>
        <time>2022-04-05T09:33:18Z</time>
      </trkpt>
      <trkpt lat="44.89228" lon="0.33429">
        <ele>90</ele>
        <time>2022-04-05T09:33:19Z</time>
      </trkpt>
      <trkpt lat="44.89227" lon="0.3343">
        <ele>89.9</ele>
        <time>2022-04-05T09:33:20Z</time>
      </trkpt>
      <trkpt lat="44.89227" lon="0.3343">
        <ele>89.9</ele>
        <time>2022-04-05T09:33:21Z</time>
      </trkpt>
      <trkpt lat="44.89227" lon="0.3343">
        <ele>89.8</ele>
        <time>2022-04-05T09:33:22Z</time>
      </trkpt>
      <trkpt lat="44.89226" lon="0.3343">
        <ele>89.8</ele>
        <time>2022-04-05T09:33:23Z</time>
      </trkpt>
      <trkpt lat="44.89226" lon="0.33431">
        <ele>89.8</ele>
        <time>2022-04-05T09:33:24Z</time>
      </trkpt>
      <trkpt lat="44.89226" lon="0.33431">
        <ele>89.8</ele>
        <time>2022-04-05T09:33:25Z</time>
      </trkpt>
      <trkpt lat="44.89226" lon="0.33431">
        <ele>89.7</ele>
        <time>2022-04-05T09:33:26Z</time>
      </trkpt>
      <trkpt lat="44.89226" lon="0.33431">
        <ele>89.7</ele>
        <time>2022-04-05T09:33:27Z</time>
      </trkpt>
      <trkpt lat="44.89226" lon="0.33431">
        <ele>89.7</ele>
        <time>2022-04-05T09:33:28Z</time>
      </trkpt>
      <trkpt lat="44.89226" lon="0.33431">
        <ele>89.7</ele>
        <time>2022-04-05T09:33:29Z</time>
      </trkpt>
      <trkpt lat="44.89226" lon="0.33431">
        <ele>89.7</ele>
        <time>2022-04-05T09:33:30Z</time>
      </trkpt>
      <trkpt lat="44.89226" lon="0.33431">
        <ele>89.7</ele>
        <time>2022-04-05T09:33:31Z</time>
      </trkpt>
      <trkpt lat="44.89226" lon="0.33431">
        <ele>89.7</ele>
        <time>2022-04-05T09:33:32Z</time>
      </trkpt>
      <trkpt lat="44.89226" lon="0.33432">
        <ele>89.6</ele>
        <time>2022-04-05T09:33:34Z</time>
      </trkpt>
      <trkpt lat="44.89226" lon="0.33432">
        <ele>89.6</ele>
        <time>2022-04-05T09:33:35Z</time>
      </trkpt>
      <trkpt lat="44.89226" lon="0.33432">
        <ele>89.6</ele>
        <time>2022-04-05T09:33:36Z</time>
      </trkpt>
      <trkpt lat="44.89226" lon="0.33432">
        <ele>89.6</ele>
        <time>2022-04-05T09:33:37Z</time>
      </trkpt>
      <trkpt lat="44.89226" lon="0.33433">
        <ele>89.6</ele>
        <time>2022-04-05T09:33:38Z</time>
      </trkpt>
      <trkpt lat="44.89226" lon="0.33433">
        <ele>89.6</ele>
        <time>2022-04-05T09:33:39Z</time>
      </trkpt>
      <trkpt lat="44.89226" lon="0.33433">
        <ele>89.6</ele>
        <time>2022-04-05T09:33:40Z</time>
      </trkpt>
      <trkpt lat="44.89226" lon="0.33433">
        <ele>89.6</ele>
        <time>2022-04-05T09:33:41Z</time>
      </trkpt>
      <trkpt lat="44.89226" lon="0.33433">
        <ele>89.6</ele>
        <time>2022-04-05T09:33:42Z</time>
      </trkpt>
      <trkpt lat="44.89226" lon="0.33433">
        <ele>89.6</ele>
        <time>2022-04-05T09:33:43Z</time>
      </trkpt>
      <trkpt lat="44.89226" lon="0.33433">
        <ele>89.6</ele>
        <time>2022-04-05T09:33:44Z</time>
      </trkpt>
      <trkpt lat="44.89226" lon="0.33433">
        <ele>89.6</ele>
        <time>2022-04-05T09:33:45Z</time>
      </trkpt>
      <trkpt lat="44.89226" lon="0.33433">
        <ele>89.6</ele>
        <time>2022-04-05T09:33:46Z</time>
      </trkpt>
      <trkpt lat="44.89226" lon="0.33433">
        <ele>89.6</ele>
        <time>2022-04-05T09:33:47Z</time>
      </trkpt>
      <trkpt lat="44.89226" lon="0.33433">
        <ele>89.6</ele>
        <time>2022-04-05T09:33:48Z</time>
      </trkpt>
      <trkpt lat="44.89226" lon="0.33433">
        <ele>89.5</ele>
        <time>2022-04-05T09:33:49Z</time>
      </trkpt>
      <trkpt lat="44.89226" lon="0.33434">
        <ele>89.4</ele>
        <time>2022-04-05T09:33:50Z</time>
      </trkpt>
      <trkpt lat="44.89226" lon="0.33432">
        <ele>89.3</ele>
        <time>2022-04-05T09:33:51Z</time>
      </trkpt>
      <trkpt lat="44.89225" lon="0.33431">
        <ele>89.2</ele>
        <time>2022-04-05T09:33:52Z</time>
      </trkpt>
      <trkpt lat="44.89223" lon="0.3343">
        <ele>88.9</ele>
        <time>2022-04-05T09:33:53Z</time>
      </trkpt>
      <trkpt lat="44.89222" lon="0.33431">
        <ele>88.7</ele>
        <time>2022-04-05T09:33:54Z</time>
      </trkpt>
      <trkpt lat="44.8922" lon="0.33431">
        <ele>88.4</ele>
        <time>2022-04-05T09:33:55Z</time>
      </trkpt>
      <trkpt lat="44.89217" lon="0.3343">
        <ele>88</ele>
        <time>2022-04-05T09:33:57Z</time>
      </trkpt>
      <trkpt lat="44.89216" lon="0.3343">
        <ele>87.8</ele>
        <time>2022-04-05T09:33:58Z</time>
      </trkpt>
      <trkpt lat="44.89216" lon="0.33429">
        <ele>87.7</ele>
        <time>2022-04-05T09:33:59Z</time>
      </trkpt>
      <trkpt lat="44.89215" lon="0.33427">
        <ele>87.5</ele>
        <time>2022-04-05T09:34:00Z</time>
      </trkpt>
      <trkpt lat="44.89214" lon="0.33425">
        <ele>87.2</ele>
        <time>2022-04-05T09:34:02Z</time>
      </trkpt>
      <trkpt lat="44.89213" lon="0.33423">
        <ele>87</ele>
        <time>2022-04-05T09:34:03Z</time>
      </trkpt>
      <trkpt lat="44.89213" lon="0.33422">
        <ele>86.8</ele>
        <time>2022-04-05T09:34:04Z</time>
      </trkpt>
      <trkpt lat="44.89212" lon="0.33421">
        <ele>86.7</ele>
        <time>2022-04-05T09:34:05Z</time>
      </trkpt>
      <trkpt lat="44.89211" lon="0.33418">
        <ele>86.3</ele>
        <time>2022-04-05T09:34:06Z</time>
      </trkpt>
      <trkpt lat="44.89211" lon="0.33417">
        <ele>86.2</ele>
        <time>2022-04-05T09:34:07Z</time>
      </trkpt>
      <trkpt lat="44.8921" lon="0.33416">
        <ele>86.1</ele>
        <time>2022-04-05T09:34:08Z</time>
      </trkpt>
      <trkpt lat="44.89209" lon="0.33413">
        <ele>85.8</ele>
        <time>2022-04-05T09:34:09Z</time>
      </trkpt>
      <trkpt lat="44.89209" lon="0.33412">
        <ele>85.7</ele>
        <time>2022-04-05T09:34:10Z</time>
      </trkpt>
      <trkpt lat="44.89208" lon="0.33411">
        <ele>85.5</ele>
        <time>2022-04-05T09:34:11Z</time>
      </trkpt>
      <trkpt lat="44.89207" lon="0.33408">
        <ele>85.2</ele>
        <time>2022-04-05T09:34:13Z</time>
      </trkpt>
      <trkpt lat="44.89207" lon="0.33408">
        <ele>85.1</ele>
        <time>2022-04-05T09:34:14Z</time>
      </trkpt>
      <trkpt lat="44.89206" lon="0.33406">
        <ele>84.9</ele>
        <time>2022-04-05T09:34:15Z</time>
      </trkpt>
      <trkpt lat="44.89205" lon="0.33405">
        <ele>84.8</ele>
        <time>2022-04-05T09:34:16Z</time>
      </trkpt>
      <trkpt lat="44.89205" lon="0.33404">
        <ele>84.6</ele>
        <time>2022-04-05T09:34:17Z</time>
      </trkpt>
      <trkpt lat="44.89203" lon="0.33401">
        <ele>84.3</ele>
        <time>2022-04-05T09:34:19Z</time>
      </trkpt>
      <trkpt lat="44.89203" lon="0.334">
        <ele>84.2</ele>
        <time>2022-04-05T09:34:20Z</time>
      </trkpt>
      <trkpt lat="44.89202" lon="0.33399">
        <ele>84.1</ele>
        <time>2022-04-05T09:34:21Z</time>
      </trkpt>
      <trkpt lat="44.89202" lon="0.33398">
        <ele>84</ele>
        <time>2022-04-05T09:34:22Z</time>
      </trkpt>
      <trkpt lat="44.892" lon="0.33395">
        <ele>83.7</ele>
        <time>2022-04-05T09:34:23Z</time>
      </trkpt>
      <trkpt lat="44.892" lon="0.33395">
        <ele>83.6</ele>
        <time>2022-04-05T09:34:24Z</time>
      </trkpt>
      <trkpt lat="44.89199" lon="0.33393">
        <ele>83.5</ele>
        <time>2022-04-05T09:34:25Z</time>
      </trkpt>
      <trkpt lat="44.89199" lon="0.33392">
        <ele>83.3</ele>
        <time>2022-04-05T09:34:26Z</time>
      </trkpt>
      <trkpt lat="44.89199" lon="0.3339">
        <ele>83.2</ele>
        <time>2022-04-05T09:34:27Z</time>
      </trkpt>
      <trkpt lat="44.89198" lon="0.33388">
        <ele>83</ele>
        <time>2022-04-05T09:34:28Z</time>
      </trkpt>
      <trkpt lat="44.89198" lon="0.33387">
        <ele>82.9</ele>
        <time>2022-04-05T09:34:29Z</time>
      </trkpt>
      <trkpt lat="44.89197" lon="0.33385">
        <ele>82.7</ele>
        <time>2022-04-05T09:34:30Z</time>
      </trkpt>
      <trkpt lat="44.89196" lon="0.33384">
        <ele>82.6</ele>
        <time>2022-04-05T09:34:31Z</time>
      </trkpt>
      <trkpt lat="44.89196" lon="0.33383">
        <ele>82.5</ele>
        <time>2022-04-05T09:34:32Z</time>
      </trkpt>
      <trkpt lat="44.89195" lon="0.3338">
        <ele>82.3</ele>
        <time>2022-04-05T09:34:33Z</time>
      </trkpt>
      <trkpt lat="44.89195" lon="0.33379">
        <ele>82.1</ele>
        <time>2022-04-05T09:34:35Z</time>
      </trkpt>
      <trkpt lat="44.89194" lon="0.33377">
        <ele>82</ele>
        <time>2022-04-05T09:34:36Z</time>
      </trkpt>
      <trkpt lat="44.89193" lon="0.33375">
        <ele>81.8</ele>
        <time>2022-04-05T09:34:37Z</time>
      </trkpt>
      <trkpt lat="44.89192" lon="0.33372">
        <ele>81.5</ele>
        <time>2022-04-05T09:34:38Z</time>
      </trkpt>
      <trkpt lat="44.89192" lon="0.33372">
        <ele>81.5</ele>
        <time>2022-04-05T09:34:39Z</time>
      </trkpt>
      <trkpt lat="44.89191" lon="0.3337">
        <ele>81.3</ele>
        <time>2022-04-05T09:34:40Z</time>
      </trkpt>
      <trkpt lat="44.89191" lon="0.33369">
        <ele>81.2</ele>
        <time>2022-04-05T09:34:41Z</time>
      </trkpt>
      <trkpt lat="44.8919" lon="0.33368">
        <ele>81</ele>
        <time>2022-04-05T09:34:42Z</time>
      </trkpt>
      <trkpt lat="44.89189" lon="0.33365">
        <ele>80.7</ele>
        <time>2022-04-05T09:34:43Z</time>
      </trkpt>
      <trkpt lat="44.89188" lon="0.33364">
        <ele>80.7</ele>
        <time>2022-04-05T09:34:44Z</time>
      </trkpt>
      <trkpt lat="44.89187" lon="0.33362">
        <ele>80.4</ele>
        <time>2022-04-05T09:34:45Z</time>
      </trkpt>
      <trkpt lat="44.89186" lon="0.33361">
        <ele>80.3</ele>
        <time>2022-04-05T09:34:47Z</time>
      </trkpt>
      <trkpt lat="44.89186" lon="0.3336">
        <ele>80.1</ele>
        <time>2022-04-05T09:34:48Z</time>
      </trkpt>
      <trkpt lat="44.89185" lon="0.33359">
        <ele>79.9</ele>
        <time>2022-04-05T09:34:49Z</time>
      </trkpt>
      <trkpt lat="44.89184" lon="0.33358">
        <ele>79.8</ele>
        <time>2022-04-05T09:34:50Z</time>
      </trkpt>
      <trkpt lat="44.89184" lon="0.33357">
        <ele>79.7</ele>
        <time>2022-04-05T09:34:51Z</time>
      </trkpt>
      <trkpt lat="44.89183" lon="0.33356">
        <ele>79.5</ele>
        <time>2022-04-05T09:34:53Z</time>
      </trkpt>
      <trkpt lat="44.89182" lon="0.33355">
        <ele>79.4</ele>
        <time>2022-04-05T09:34:54Z</time>
      </trkpt>
      <trkpt lat="44.89182" lon="0.33354">
        <ele>79.2</ele>
        <time>2022-04-05T09:34:55Z</time>
      </trkpt>
      <trkpt lat="44.89181" lon="0.33353">
        <ele>79.1</ele>
        <time>2022-04-05T09:34:56Z</time>
      </trkpt>
      <trkpt lat="44.8918" lon="0.33351">
        <ele>78.9</ele>
        <time>2022-04-05T09:34:57Z</time>
      </trkpt>
      <trkpt lat="44.8918" lon="0.33349">
        <ele>78.6</ele>
        <time>2022-04-05T09:34:58Z</time>
      </trkpt>
      <trkpt lat="44.89179" lon="0.33348">
        <ele>78.5</ele>
        <time>2022-04-05T09:34:59Z</time>
      </trkpt>
      <trkpt lat="44.89179" lon="0.33346">
        <ele>78.2</ele>
        <time>2022-04-05T09:35:00Z</time>
      </trkpt>
      <trkpt lat="44.89178" lon="0.33345">
        <ele>78</ele>
        <time>2022-04-05T09:35:02Z</time>
      </trkpt>
      <trkpt lat="44.89177" lon="0.33341">
        <ele>77.5</ele>
        <time>2022-04-05T09:35:03Z</time>
      </trkpt>
      <trkpt lat="44.89177" lon="0.33341">
        <ele>77.4</ele>
        <time>2022-04-05T09:35:04Z</time>
      </trkpt>
      <trkpt lat="44.89176" lon="0.3334">
        <ele>77.3</ele>
        <time>2022-04-05T09:35:05Z</time>
      </trkpt>
      <trkpt lat="44.89175" lon="0.33337">
        <ele>77</ele>
        <time>2022-04-05T09:35:06Z</time>
      </trkpt>
      <trkpt lat="44.89175" lon="0.33336">
        <ele>76.8</ele>
        <time>2022-04-05T09:35:07Z</time>
      </trkpt>
      <trkpt lat="44.89174" lon="0.33334">
        <ele>76.6</ele>
        <time>2022-04-05T09:35:08Z</time>
      </trkpt>
      <trkpt lat="44.89174" lon="0.33334">
        <ele>76.5</ele>
        <time>2022-04-05T09:35:09Z</time>
      </trkpt>
      <trkpt lat="44.89173" lon="0.33332">
        <ele>76.3</ele>
        <time>2022-04-05T09:35:10Z</time>
      </trkpt>
      <trkpt lat="44.89173" lon="0.33331">
        <ele>76.1</ele>
        <time>2022-04-05T09:35:11Z</time>
      </trkpt>
      <trkpt lat="44.89172" lon="0.3333">
        <ele>75.9</ele>
        <time>2022-04-05T09:35:12Z</time>
      </trkpt>
      <trkpt lat="44.89171" lon="0.33328">
        <ele>75.7</ele>
        <time>2022-04-05T09:35:14Z</time>
      </trkpt>
      <trkpt lat="44.8917" lon="0.33327">
        <ele>75.5</ele>
        <time>2022-04-05T09:35:15Z</time>
      </trkpt>
      <trkpt lat="44.89169" lon="0.33326">
        <ele>75.3</ele>
        <time>2022-04-05T09:35:16Z</time>
      </trkpt>
      <trkpt lat="44.89169" lon="0.33325">
        <ele>75.1</ele>
        <time>2022-04-05T09:35:17Z</time>
      </trkpt>
      <trkpt lat="44.89167" lon="0.33322">
        <ele>74.8</ele>
        <time>2022-04-05T09:35:18Z</time>
      </trkpt>
      <trkpt lat="44.89167" lon="0.33322">
        <ele>74.7</ele>
        <time>2022-04-05T09:35:19Z</time>
      </trkpt>
      <trkpt lat="44.89166" lon="0.33321">
        <ele>74.6</ele>
        <time>2022-04-05T09:35:20Z</time>
      </trkpt>
      <trkpt lat="44.89166" lon="0.3332">
        <ele>74.5</ele>
        <time>2022-04-05T09:35:21Z</time>
      </trkpt>
      <trkpt lat="44.89165" lon="0.33318">
        <ele>74.3</ele>
        <time>2022-04-05T09:35:22Z</time>
      </trkpt>
      <trkpt lat="44.89164" lon="0.33316">
        <ele>74.1</ele>
        <time>2022-04-05T09:35:23Z</time>
      </trkpt>
      <trkpt lat="44.89164" lon="0.33315">
        <ele>74</ele>
        <time>2022-04-05T09:35:24Z</time>
      </trkpt>
      <trkpt lat="44.89163" lon="0.33314">
        <ele>73.9</ele>
        <time>2022-04-05T09:35:25Z</time>
      </trkpt>
      <trkpt lat="44.89163" lon="0.33313">
        <ele>73.8</ele>
        <time>2022-04-05T09:35:26Z</time>
      </trkpt>
      <trkpt lat="44.89162" lon="0.33312">
        <ele>73.7</ele>
        <time>2022-04-05T09:35:27Z</time>
      </trkpt>
      <trkpt lat="44.89161" lon="0.33309">
        <ele>73.4</ele>
        <time>2022-04-05T09:35:28Z</time>
      </trkpt>
      <trkpt lat="44.89161" lon="0.33308">
        <ele>73.4</ele>
        <time>2022-04-05T09:35:29Z</time>
      </trkpt>
      <trkpt lat="44.8916" lon="0.33307">
        <ele>73.3</ele>
        <time>2022-04-05T09:35:30Z</time>
      </trkpt>
      <trkpt lat="44.8916" lon="0.33306">
        <ele>73.2</ele>
        <time>2022-04-05T09:35:31Z</time>
      </trkpt>
      <trkpt lat="44.89159" lon="0.33304">
        <ele>73.1</ele>
        <time>2022-04-05T09:35:32Z</time>
      </trkpt>
      <trkpt lat="44.89158" lon="0.33301">
        <ele>72.9</ele>
        <time>2022-04-05T09:35:34Z</time>
      </trkpt>
      <trkpt lat="44.89158" lon="0.333">
        <ele>72.8</ele>
        <time>2022-04-05T09:35:35Z</time>
      </trkpt>
      <trkpt lat="44.89157" lon="0.33299">
        <ele>72.8</ele>
        <time>2022-04-05T09:35:36Z</time>
      </trkpt>
      <trkpt lat="44.89157" lon="0.33298">
        <ele>72.7</ele>
        <time>2022-04-05T09:35:37Z</time>
      </trkpt>
      <trkpt lat="44.89156" lon="0.33295">
        <ele>72.6</ele>
        <time>2022-04-05T09:35:38Z</time>
      </trkpt>
      <trkpt lat="44.89155" lon="0.33293">
        <ele>72.5</ele>
        <time>2022-04-05T09:35:39Z</time>
      </trkpt>
      <trkpt lat="44.89154" lon="0.33293">
        <ele>72.4</ele>
        <time>2022-04-05T09:35:40Z</time>
      </trkpt>
      <trkpt lat="44.89154" lon="0.33292">
        <ele>72.4</ele>
        <time>2022-04-05T09:35:41Z</time>
      </trkpt>
      <trkpt lat="44.89154" lon="0.3329">
        <ele>72.3</ele>
        <time>2022-04-05T09:35:42Z</time>
      </trkpt>
      <trkpt lat="44.89152" lon="0.33288">
        <ele>72.2</ele>
        <time>2022-04-05T09:35:43Z</time>
      </trkpt>
      <trkpt lat="44.89152" lon="0.33287">
        <ele>72.2</ele>
        <time>2022-04-05T09:35:44Z</time>
      </trkpt>
      <trkpt lat="44.89152" lon="0.33286">
        <ele>72.2</ele>
        <time>2022-04-05T09:35:45Z</time>
      </trkpt>
      <trkpt lat="44.89151" lon="0.33284">
        <ele>72.1</ele>
        <time>2022-04-05T09:35:46Z</time>
      </trkpt>
      <trkpt lat="44.8915" lon="0.33283">
        <ele>72.1</ele>
        <time>2022-04-05T09:35:48Z</time>
      </trkpt>
      <trkpt lat="44.89149" lon="0.3328">
        <ele>72</ele>
        <time>2022-04-05T09:35:49Z</time>
      </trkpt>
      <trkpt lat="44.89148" lon="0.33279">
        <ele>72</ele>
        <time>2022-04-05T09:35:50Z</time>
      </trkpt>
      <trkpt lat="44.89148" lon="0.33278">
        <ele>72</ele>
        <time>2022-04-05T09:35:51Z</time>
      </trkpt>
      <trkpt lat="44.89147" lon="0.33276">
        <ele>72</ele>
        <time>2022-04-05T09:35:52Z</time>
      </trkpt>
      <trkpt lat="44.89146" lon="0.33274">
        <ele>71.9</ele>
        <time>2022-04-05T09:35:53Z</time>
      </trkpt>
      <trkpt lat="44.89146" lon="0.33274">
        <ele>71.9</ele>
        <time>2022-04-05T09:35:54Z</time>
      </trkpt>
      <trkpt lat="44.89145" lon="0.33272">
        <ele>71.9</ele>
        <time>2022-04-05T09:35:55Z</time>
      </trkpt>
      <trkpt lat="44.89144" lon="0.33271">
        <ele>71.9</ele>
        <time>2022-04-05T09:35:56Z</time>
      </trkpt>
      <trkpt lat="44.89143" lon="0.33268">
        <ele>72</ele>
        <time>2022-04-05T09:35:57Z</time>
      </trkpt>
      <trkpt lat="44.89142" lon="0.33266">
        <ele>72</ele>
        <time>2022-04-05T09:35:59Z</time>
      </trkpt>
      <trkpt lat="44.89142" lon="0.33265">
        <ele>72</ele>
        <time>2022-04-05T09:36:00Z</time>
      </trkpt>
      <trkpt lat="44.89141" lon="0.33264">
        <ele>72</ele>
        <time>2022-04-05T09:36:01Z</time>
      </trkpt>
      <trkpt lat="44.89141" lon="0.33262">
        <ele>72.1</ele>
        <time>2022-04-05T09:36:02Z</time>
      </trkpt>
      <trkpt lat="44.8914" lon="0.33259">
        <ele>72.2</ele>
        <time>2022-04-05T09:36:03Z</time>
      </trkpt>
      <trkpt lat="44.8914" lon="0.33258">
        <ele>72.2</ele>
        <time>2022-04-05T09:36:04Z</time>
      </trkpt>
      <trkpt lat="44.89139" lon="0.33257">
        <ele>72.2</ele>
        <time>2022-04-05T09:36:05Z</time>
      </trkpt>
      <trkpt lat="44.89138" lon="0.33255">
        <ele>72.3</ele>
        <time>2022-04-05T09:36:07Z</time>
      </trkpt>
      <trkpt lat="44.89138" lon="0.33254">
        <ele>72.4</ele>
        <time>2022-04-05T09:36:08Z</time>
      </trkpt>
      <trkpt lat="44.89137" lon="0.33251">
        <ele>72.5</ele>
        <time>2022-04-05T09:36:09Z</time>
      </trkpt>
      <trkpt lat="44.89136" lon="0.33249">
        <ele>72.6</ele>
        <time>2022-04-05T09:36:10Z</time>
      </trkpt>
      <trkpt lat="44.89135" lon="0.33248">
        <ele>72.7</ele>
        <time>2022-04-05T09:36:11Z</time>
      </trkpt>
      <trkpt lat="44.89135" lon="0.33247">
        <ele>72.8</ele>
        <time>2022-04-05T09:36:12Z</time>
      </trkpt>
      <trkpt lat="44.89134" lon="0.33245">
        <ele>72.9</ele>
        <time>2022-04-05T09:36:13Z</time>
      </trkpt>
      <trkpt lat="44.89133" lon="0.33243">
        <ele>73</ele>
        <time>2022-04-05T09:36:14Z</time>
      </trkpt>
      <trkpt lat="44.89133" lon="0.33242">
        <ele>73.1</ele>
        <time>2022-04-05T09:36:15Z</time>
      </trkpt>
      <trkpt lat="44.89133" lon="0.33241">
        <ele>73.2</ele>
        <time>2022-04-05T09:36:16Z</time>
      </trkpt>
      <trkpt lat="44.89132" lon="0.3324">
        <ele>73.2</ele>
        <time>2022-04-05T09:36:17Z</time>
      </trkpt>
      <trkpt lat="44.89131" lon="0.33237">
        <ele>73.5</ele>
        <time>2022-04-05T09:36:19Z</time>
      </trkpt>
      <trkpt lat="44.8913" lon="0.33236">
        <ele>73.6</ele>
        <time>2022-04-05T09:36:20Z</time>
      </trkpt>
      <trkpt lat="44.89129" lon="0.33233">
        <ele>73.8</ele>
        <time>2022-04-05T09:36:21Z</time>
      </trkpt>
      <trkpt lat="44.89128" lon="0.33232">
        <ele>74</ele>
        <time>2022-04-05T09:36:22Z</time>
      </trkpt>
      <trkpt lat="44.89127" lon="0.3323">
        <ele>74.1</ele>
        <time>2022-04-05T09:36:23Z</time>
      </trkpt>
      <trkpt lat="44.89127" lon="0.33229">
        <ele>74.2</ele>
        <time>2022-04-05T09:36:24Z</time>
      </trkpt>
      <trkpt lat="44.89126" lon="0.33228">
        <ele>74.3</ele>
        <time>2022-04-05T09:36:25Z</time>
      </trkpt>
      <trkpt lat="44.89126" lon="0.33227">
        <ele>74.4</ele>
        <time>2022-04-05T09:36:26Z</time>
      </trkpt>
      <trkpt lat="44.89125" lon="0.33227">
        <ele>74.5</ele>
        <time>2022-04-05T09:36:27Z</time>
      </trkpt>
      <trkpt lat="44.89123" lon="0.33223">
        <ele>74.9</ele>
        <time>2022-04-05T09:36:28Z</time>
      </trkpt>
      <trkpt lat="44.89123" lon="0.33223">
        <ele>74.9</ele>
        <time>2022-04-05T09:36:29Z</time>
      </trkpt>
      <trkpt lat="44.89123" lon="0.33222">
        <ele>75</ele>
        <time>2022-04-05T09:36:30Z</time>
      </trkpt>
      <trkpt lat="44.89122" lon="0.33219">
        <ele>75.3</ele>
        <time>2022-04-05T09:36:32Z</time>
      </trkpt>
      <trkpt lat="44.89122" lon="0.33218">
        <ele>75.4</ele>
        <time>2022-04-05T09:36:33Z</time>
      </trkpt>
      <trkpt lat="44.89121" lon="0.33217">
        <ele>75.6</ele>
        <time>2022-04-05T09:36:34Z</time>
      </trkpt>
      <trkpt lat="44.89121" lon="0.33215">
        <ele>75.7</ele>
        <time>2022-04-05T09:36:35Z</time>
      </trkpt>
      <trkpt lat="44.89121" lon="0.33213">
        <ele>75.9</ele>
        <time>2022-04-05T09:36:36Z</time>
      </trkpt>
      <trkpt lat="44.8912" lon="0.33212">
        <ele>76.1</ele>
        <time>2022-04-05T09:36:37Z</time>
      </trkpt>
      <trkpt lat="44.8912" lon="0.33209">
        <ele>76.4</ele>
        <time>2022-04-05T09:36:39Z</time>
      </trkpt>
      <trkpt lat="44.89119" lon="0.33208">
        <ele>76.5</ele>
        <time>2022-04-05T09:36:40Z</time>
      </trkpt>
      <trkpt lat="44.89118" lon="0.33205">
        <ele>76.9</ele>
        <time>2022-04-05T09:36:41Z</time>
      </trkpt>
      <trkpt lat="44.89118" lon="0.33204">
        <ele>77</ele>
        <time>2022-04-05T09:36:42Z</time>
      </trkpt>
      <trkpt lat="44.89117" lon="0.33203">
        <ele>77.2</ele>
        <time>2022-04-05T09:36:43Z</time>
      </trkpt>
      <trkpt lat="44.89117" lon="0.33201">
        <ele>77.5</ele>
        <time>2022-04-05T09:36:44Z</time>
      </trkpt>
      <trkpt lat="44.89115" lon="0.332">
        <ele>77.8</ele>
        <time>2022-04-05T09:36:46Z</time>
      </trkpt>
      <trkpt lat="44.89114" lon="0.33198">
        <ele>78</ele>
        <time>2022-04-05T09:36:47Z</time>
      </trkpt>
      <trkpt lat="44.89114" lon="0.33196">
        <ele>78.3</ele>
        <time>2022-04-05T09:36:48Z</time>
      </trkpt>
      <trkpt lat="44.89113" lon="0.33194">
        <ele>78.6</ele>
        <time>2022-04-05T09:36:49Z</time>
      </trkpt>
      <trkpt lat="44.89113" lon="0.33193">
        <ele>78.7</ele>
        <time>2022-04-05T09:36:51Z</time>
      </trkpt>
      <trkpt lat="44.89112" lon="0.33192">
        <ele>78.9</ele>
        <time>2022-04-05T09:36:52Z</time>
      </trkpt>
      <trkpt lat="44.89112" lon="0.33191">
        <ele>79</ele>
        <time>2022-04-05T09:36:53Z</time>
      </trkpt>
      <trkpt lat="44.89111" lon="0.3319">
        <ele>79.2</ele>
        <time>2022-04-05T09:36:54Z</time>
      </trkpt>
      <trkpt lat="44.89111" lon="0.33188">
        <ele>79.3</ele>
        <time>2022-04-05T09:36:55Z</time>
      </trkpt>
      <trkpt lat="44.89111" lon="0.33187">
        <ele>79.5</ele>
        <time>2022-04-05T09:36:56Z</time>
      </trkpt>
      <trkpt lat="44.8911" lon="0.33186">
        <ele>79.6</ele>
        <time>2022-04-05T09:36:57Z</time>
      </trkpt>
      <trkpt lat="44.8911" lon="0.33184">
        <ele>79.9</ele>
        <time>2022-04-05T09:36:58Z</time>
      </trkpt>
      <trkpt lat="44.89109" lon="0.33183">
        <ele>80.1</ele>
        <time>2022-04-05T09:37:00Z</time>
      </trkpt>
      <trkpt lat="44.89109" lon="0.33181">
        <ele>80.3</ele>
        <time>2022-04-05T09:37:01Z</time>
      </trkpt>
      <trkpt lat="44.89109" lon="0.3318">
        <ele>80.4</ele>
        <time>2022-04-05T09:37:02Z</time>
      </trkpt>
      <trkpt lat="44.89109" lon="0.33179">
        <ele>80.5</ele>
        <time>2022-04-05T09:37:03Z</time>
      </trkpt>
      <trkpt lat="44.89109" lon="0.33177">
        <ele>80.8</ele>
        <time>2022-04-05T09:37:05Z</time>
      </trkpt>
      <trkpt lat="44.89109" lon="0.33176">
        <ele>81</ele>
        <time>2022-04-05T09:37:06Z</time>
      </trkpt>
      <trkpt lat="44.89108" lon="0.33174">
        <ele>81.3</ele>
        <time>2022-04-05T09:37:07Z</time>
      </trkpt>
      <trkpt lat="44.89108" lon="0.3317">
        <ele>81.7</ele>
        <time>2022-04-05T09:37:09Z</time>
      </trkpt>
      <trkpt lat="44.89107" lon="0.33169">
        <ele>81.9</ele>
        <time>2022-04-05T09:37:10Z</time>
      </trkpt>
      <trkpt lat="44.89107" lon="0.33168">
        <ele>82</ele>
        <time>2022-04-05T09:37:11Z</time>
      </trkpt>
      <trkpt lat="44.89107" lon="0.33167">
        <ele>82.2</ele>
        <time>2022-04-05T09:37:13Z</time>
      </trkpt>
      <trkpt lat="44.89106" lon="0.33165">
        <ele>82.3</ele>
        <time>2022-04-05T09:37:14Z</time>
      </trkpt>
      <trkpt lat="44.89106" lon="0.33165">
        <ele>82.4</ele>
        <time>2022-04-05T09:37:15Z</time>
      </trkpt>
      <trkpt lat="44.89106" lon="0.33164">
        <ele>82.5</ele>
        <time>2022-04-05T09:37:16Z</time>
      </trkpt>
      <trkpt lat="44.89106" lon="0.33163">
        <ele>82.6</ele>
        <time>2022-04-05T09:37:17Z</time>
      </trkpt>
      <trkpt lat="44.89104" lon="0.33161">
        <ele>82.9</ele>
        <time>2022-04-05T09:37:19Z</time>
      </trkpt>
      <trkpt lat="44.89104" lon="0.3316">
        <ele>83</ele>
        <time>2022-04-05T09:37:20Z</time>
      </trkpt>
      <trkpt lat="44.89104" lon="0.33159">
        <ele>83.1</ele>
        <time>2022-04-05T09:37:21Z</time>
      </trkpt>
      <trkpt lat="44.89103" lon="0.33158">
        <ele>83.3</ele>
        <time>2022-04-05T09:37:22Z</time>
      </trkpt>
      <trkpt lat="44.89103" lon="0.33157">
        <ele>83.4</ele>
        <time>2022-04-05T09:37:23Z</time>
      </trkpt>
      <trkpt lat="44.89102" lon="0.33156">
        <ele>83.6</ele>
        <time>2022-04-05T09:37:24Z</time>
      </trkpt>
      <trkpt lat="44.89102" lon="0.33155">
        <ele>83.7</ele>
        <time>2022-04-05T09:37:26Z</time>
      </trkpt>
      <trkpt lat="44.89102" lon="0.33154">
        <ele>83.8</ele>
        <time>2022-04-05T09:37:27Z</time>
      </trkpt>
      <trkpt lat="44.89102" lon="0.33153">
        <ele>83.9</ele>
        <time>2022-04-05T09:37:28Z</time>
      </trkpt>
      <trkpt lat="44.89101" lon="0.33151">
        <ele>84.1</ele>
        <time>2022-04-05T09:37:29Z</time>
      </trkpt>
      <trkpt lat="44.89101" lon="0.3315">
        <ele>84.2</ele>
        <time>2022-04-05T09:37:31Z</time>
      </trkpt>
      <trkpt lat="44.89101" lon="0.33149">
        <ele>84.4</ele>
        <time>2022-04-05T09:37:32Z</time>
      </trkpt>
      <trkpt lat="44.89101" lon="0.33148">
        <ele>84.5</ele>
        <time>2022-04-05T09:37:33Z</time>
      </trkpt>
      <trkpt lat="44.891" lon="0.33147">
        <ele>84.7</ele>
        <time>2022-04-05T09:37:34Z</time>
      </trkpt>
      <trkpt lat="44.89099" lon="0.33147">
        <ele>84.8</ele>
        <time>2022-04-05T09:37:35Z</time>
      </trkpt>
      <trkpt lat="44.89098" lon="0.33147">
        <ele>85</ele>
        <time>2022-04-05T09:37:37Z</time>
      </trkpt>
      <trkpt lat="44.89097" lon="0.33147">
        <ele>85.1</ele>
        <time>2022-04-05T09:37:38Z</time>
      </trkpt>
      <trkpt lat="44.89096" lon="0.33145">
        <ele>85.3</ele>
        <time>2022-04-05T09:37:39Z</time>
      </trkpt>
      <trkpt lat="44.89095" lon="0.33145">
        <ele>85.5</ele>
        <time>2022-04-05T09:37:41Z</time>
      </trkpt>
      <trkpt lat="44.89095" lon="0.33146">
        <ele>85.6</ele>
        <time>2022-04-05T09:37:42Z</time>
      </trkpt>
      <trkpt lat="44.89095" lon="0.33148">
        <ele>85.8</ele>
        <time>2022-04-05T09:37:43Z</time>
      </trkpt>
      <trkpt lat="44.89095" lon="0.33149">
        <ele>85.9</ele>
        <time>2022-04-05T09:37:44Z</time>
      </trkpt>
      <trkpt lat="44.89094" lon="0.3315">
        <ele>86.1</ele>
        <time>2022-04-05T09:37:45Z</time>
      </trkpt>
      <trkpt lat="44.89093" lon="0.33149">
        <ele>86.2</ele>
        <time>2022-04-05T09:37:46Z</time>
      </trkpt>
      <trkpt lat="44.89092" lon="0.33149">
        <ele>86.3</ele>
        <time>2022-04-05T09:37:47Z</time>
      </trkpt>
      <trkpt lat="44.89091" lon="0.33149">
        <ele>86.5</ele>
        <time>2022-04-05T09:37:48Z</time>
      </trkpt>
      <trkpt lat="44.8909" lon="0.33147">
        <ele>86.8</ele>
        <time>2022-04-05T09:37:49Z</time>
      </trkpt>
      <trkpt lat="44.89089" lon="0.33146">
        <ele>86.9</ele>
        <time>2022-04-05T09:37:50Z</time>
      </trkpt>
      <trkpt lat="44.89089" lon="0.33145">
        <ele>87</ele>
        <time>2022-04-05T09:37:51Z</time>
      </trkpt>
      <trkpt lat="44.89088" lon="0.33144">
        <ele>87.2</ele>
        <time>2022-04-05T09:37:53Z</time>
      </trkpt>
      <trkpt lat="44.89087" lon="0.33141">
        <ele>87.5</ele>
        <time>2022-04-05T09:37:54Z</time>
      </trkpt>
      <trkpt lat="44.89087" lon="0.3314">
        <ele>87.6</ele>
        <time>2022-04-05T09:37:55Z</time>
      </trkpt>
      <trkpt lat="44.89087" lon="0.33139">
        <ele>87.7</ele>
        <time>2022-04-05T09:37:56Z</time>
      </trkpt>
      <trkpt lat="44.89086" lon="0.33137">
        <ele>87.9</ele>
        <time>2022-04-05T09:37:57Z</time>
      </trkpt>
      <trkpt lat="44.89086" lon="0.33135">
        <ele>88.1</ele>
        <time>2022-04-05T09:37:59Z</time>
      </trkpt>
      <trkpt lat="44.89087" lon="0.33134">
        <ele>88.2</ele>
        <time>2022-04-05T09:38:00Z</time>
      </trkpt>
      <trkpt lat="44.89087" lon="0.33133">
        <ele>88.3</ele>
        <time>2022-04-05T09:38:01Z</time>
      </trkpt>
      <trkpt lat="44.89086" lon="0.33129">
        <ele>88.6</ele>
        <time>2022-04-05T09:38:02Z</time>
      </trkpt>
      <trkpt lat="44.89086" lon="0.33128">
        <ele>88.7</ele>
        <time>2022-04-05T09:38:04Z</time>
      </trkpt>
      <trkpt lat="44.89086" lon="0.33127">
        <ele>88.9</ele>
        <time>2022-04-05T09:38:05Z</time>
      </trkpt>
      <trkpt lat="44.89086" lon="0.33126">
        <ele>89</ele>
        <time>2022-04-05T09:38:06Z</time>
      </trkpt>
      <trkpt lat="44.89085" lon="0.33124">
        <ele>89.1</ele>
        <time>2022-04-05T09:38:07Z</time>
      </trkpt>
      <trkpt lat="44.89085" lon="0.33123">
        <ele>89.2</ele>
        <time>2022-04-05T09:38:08Z</time>
      </trkpt>
      <trkpt lat="44.89085" lon="0.33122">
        <ele>89.3</ele>
        <time>2022-04-05T09:38:09Z</time>
      </trkpt>
      <trkpt lat="44.89085" lon="0.3312">
        <ele>89.4</ele>
        <time>2022-04-05T09:38:11Z</time>
      </trkpt>
      <trkpt lat="44.89085" lon="0.33119">
        <ele>89.6</ele>
        <time>2022-04-05T09:38:12Z</time>
      </trkpt>
      <trkpt lat="44.89085" lon="0.33117">
        <ele>89.7</ele>
        <time>2022-04-05T09:38:13Z</time>
      </trkpt>
      <trkpt lat="44.89085" lon="0.33115">
        <ele>89.8</ele>
        <time>2022-04-05T09:38:14Z</time>
      </trkpt>
      <trkpt lat="44.89084" lon="0.33114">
        <ele>89.9</ele>
        <time>2022-04-05T09:38:15Z</time>
      </trkpt>
      <trkpt lat="44.89084" lon="0.33113">
        <ele>90</ele>
        <time>2022-04-05T09:38:16Z</time>
      </trkpt>
      <trkpt lat="44.89084" lon="0.33112">
        <ele>90.1</ele>
        <time>2022-04-05T09:38:17Z</time>
      </trkpt>
      <trkpt lat="44.89083" lon="0.33109">
        <ele>90.2</ele>
        <time>2022-04-05T09:38:18Z</time>
      </trkpt>
      <trkpt lat="44.89083" lon="0.33108">
        <ele>90.3</ele>
        <time>2022-04-05T09:38:20Z</time>
      </trkpt>
      <trkpt lat="44.89083" lon="0.33107">
        <ele>90.4</ele>
        <time>2022-04-05T09:38:21Z</time>
      </trkpt>
      <trkpt lat="44.89082" lon="0.33106">
        <ele>90.5</ele>
        <time>2022-04-05T09:38:22Z</time>
      </trkpt>
      <trkpt lat="44.89082" lon="0.33105">
        <ele>90.6</ele>
        <time>2022-04-05T09:38:23Z</time>
      </trkpt>
      <trkpt lat="44.89081" lon="0.33103">
        <ele>90.7</ele>
        <time>2022-04-05T09:38:24Z</time>
      </trkpt>
      <trkpt lat="44.8908" lon="0.33102">
        <ele>90.7</ele>
        <time>2022-04-05T09:38:25Z</time>
      </trkpt>
      <trkpt lat="44.8908" lon="0.33102">
        <ele>90.8</ele>
        <time>2022-04-05T09:38:26Z</time>
      </trkpt>
      <trkpt lat="44.89079" lon="0.33101">
        <ele>90.9</ele>
        <time>2022-04-05T09:38:27Z</time>
      </trkpt>
      <trkpt lat="44.89078" lon="0.33099">
        <ele>90.9</ele>
        <time>2022-04-05T09:38:28Z</time>
      </trkpt>
      <trkpt lat="44.89078" lon="0.33098">
        <ele>91</ele>
        <time>2022-04-05T09:38:29Z</time>
      </trkpt>
      <trkpt lat="44.89077" lon="0.33097">
        <ele>91.1</ele>
        <time>2022-04-05T09:38:30Z</time>
      </trkpt>
      <trkpt lat="44.89077" lon="0.33096">
        <ele>91.1</ele>
        <time>2022-04-05T09:38:31Z</time>
      </trkpt>
      <trkpt lat="44.89076" lon="0.33095">
        <ele>91.2</ele>
        <time>2022-04-05T09:38:33Z</time>
      </trkpt>
      <trkpt lat="44.89075" lon="0.33092">
        <ele>91.3</ele>
        <time>2022-04-05T09:38:34Z</time>
      </trkpt>
      <trkpt lat="44.89075" lon="0.33092">
        <ele>91.3</ele>
        <time>2022-04-05T09:38:35Z</time>
      </trkpt>
      <trkpt lat="44.89074" lon="0.33091">
        <ele>91.4</ele>
        <time>2022-04-05T09:38:36Z</time>
      </trkpt>
      <trkpt lat="44.89073" lon="0.3309">
        <ele>91.4</ele>
        <time>2022-04-05T09:38:37Z</time>
      </trkpt>
      <trkpt lat="44.89072" lon="0.33089">
        <ele>91.5</ele>
        <time>2022-04-05T09:38:38Z</time>
      </trkpt>
      <trkpt lat="44.89071" lon="0.33088">
        <ele>91.5</ele>
        <time>2022-04-05T09:38:39Z</time>
      </trkpt>
      <trkpt lat="44.89071" lon="0.33087">
        <ele>91.6</ele>
        <time>2022-04-05T09:38:41Z</time>
      </trkpt>
      <trkpt lat="44.8907" lon="0.33085">
        <ele>91.6</ele>
        <time>2022-04-05T09:38:42Z</time>
      </trkpt>
      <trkpt lat="44.89069" lon="0.33084">
        <ele>91.6</ele>
        <time>2022-04-05T09:38:43Z</time>
      </trkpt>
      <trkpt lat="44.89068" lon="0.33082">
        <ele>91.7</ele>
        <time>2022-04-05T09:38:44Z</time>
      </trkpt>
      <trkpt lat="44.89067" lon="0.33081">
        <ele>91.7</ele>
        <time>2022-04-05T09:38:45Z</time>
      </trkpt>
      <trkpt lat="44.89066" lon="0.3308">
        <ele>91.8</ele>
        <time>2022-04-05T09:38:46Z</time>
      </trkpt>
      <trkpt lat="44.89066" lon="0.33079">
        <ele>91.8</ele>
        <time>2022-04-05T09:38:47Z</time>
      </trkpt>
      <trkpt lat="44.89065" lon="0.33078">
        <ele>91.8</ele>
        <time>2022-04-05T09:38:48Z</time>
      </trkpt>
      <trkpt lat="44.89064" lon="0.33077">
        <ele>91.8</ele>
        <time>2022-04-05T09:38:50Z</time>
      </trkpt>
      <trkpt lat="44.89064" lon="0.33076">
        <ele>91.8</ele>
        <time>2022-04-05T09:38:51Z</time>
      </trkpt>
      <trkpt lat="44.89065" lon="0.33073">
        <ele>91.8</ele>
        <time>2022-04-05T09:38:52Z</time>
      </trkpt>
      <trkpt lat="44.89066" lon="0.33072">
        <ele>91.9</ele>
        <time>2022-04-05T09:38:53Z</time>
      </trkpt>
      <trkpt lat="44.89067" lon="0.3307">
        <ele>91.9</ele>
        <time>2022-04-05T09:38:54Z</time>
      </trkpt>
      <trkpt lat="44.89069" lon="0.33069">
        <ele>91.9</ele>
        <time>2022-04-05T09:38:56Z</time>
      </trkpt>
      <trkpt lat="44.8907" lon="0.33068">
        <ele>91.9</ele>
        <time>2022-04-05T09:38:57Z</time>
      </trkpt>
      <trkpt lat="44.89071" lon="0.33066">
        <ele>91.8</ele>
        <time>2022-04-05T09:38:58Z</time>
      </trkpt>
      <trkpt lat="44.89071" lon="0.33065">
        <ele>91.8</ele>
        <time>2022-04-05T09:38:59Z</time>
      </trkpt>
      <trkpt lat="44.89071" lon="0.33063">
        <ele>91.8</ele>
        <time>2022-04-05T09:39:00Z</time>
      </trkpt>
      <trkpt lat="44.89072" lon="0.33061">
        <ele>91.8</ele>
        <time>2022-04-05T09:39:01Z</time>
      </trkpt>
      <trkpt lat="44.89072" lon="0.33059">
        <ele>91.8</ele>
        <time>2022-04-05T09:39:02Z</time>
      </trkpt>
      <trkpt lat="44.89072" lon="0.33058">
        <ele>91.7</ele>
        <time>2022-04-05T09:39:03Z</time>
      </trkpt>
      <trkpt lat="44.89073" lon="0.33054">
        <ele>91.7</ele>
        <time>2022-04-05T09:39:04Z</time>
      </trkpt>
      <trkpt lat="44.89074" lon="0.33053">
        <ele>91.6</ele>
        <time>2022-04-05T09:39:05Z</time>
      </trkpt>
      <trkpt lat="44.89075" lon="0.33052">
        <ele>91.6</ele>
        <time>2022-04-05T09:39:07Z</time>
      </trkpt>
      <trkpt lat="44.89075" lon="0.33051">
        <ele>91.6</ele>
        <time>2022-04-05T09:39:08Z</time>
      </trkpt>
      <trkpt lat="44.89077" lon="0.3305">
        <ele>91.5</ele>
        <time>2022-04-05T09:39:09Z</time>
      </trkpt>
      <trkpt lat="44.89078" lon="0.33051">
        <ele>91.5</ele>
        <time>2022-04-05T09:39:11Z</time>
      </trkpt>
      <trkpt lat="44.89079" lon="0.33051">
        <ele>91.5</ele>
        <time>2022-04-05T09:39:12Z</time>
      </trkpt>
      <trkpt lat="44.89078" lon="0.33056">
        <ele>91.4</ele>
        <time>2022-04-05T09:39:14Z</time>
      </trkpt>
      <trkpt lat="44.89077" lon="0.33057">
        <ele>91.3</ele>
        <time>2022-04-05T09:39:15Z</time>
      </trkpt>
      <trkpt lat="44.89074" lon="0.3306">
        <ele>91.2</ele>
        <time>2022-04-05T09:39:16Z</time>
      </trkpt>
      <trkpt lat="44.89074" lon="0.3306">
        <ele>91.1</ele>
        <time>2022-04-05T09:39:17Z</time>
      </trkpt>
      <trkpt lat="44.89073" lon="0.33061">
        <ele>91.1</ele>
        <time>2022-04-05T09:39:18Z</time>
      </trkpt>
      <trkpt lat="44.89071" lon="0.33062">
        <ele>91</ele>
        <time>2022-04-05T09:39:19Z</time>
      </trkpt>
      <trkpt lat="44.89071" lon="0.33063">
        <ele>91</ele>
        <time>2022-04-05T09:39:20Z</time>
      </trkpt>
      <trkpt lat="44.89069" lon="0.33065">
        <ele>90.9</ele>
        <time>2022-04-05T09:39:21Z</time>
      </trkpt>
      <trkpt lat="44.89069" lon="0.33065">
        <ele>90.9</ele>
        <time>2022-04-05T09:39:22Z</time>
      </trkpt>
      <trkpt lat="44.89069" lon="0.33065">
        <ele>90.9</ele>
        <time>2022-04-05T09:39:23Z</time>
      </trkpt>
      <trkpt lat="44.89069" lon="0.33065">
        <ele>90.9</ele>
        <time>2022-04-05T09:39:24Z</time>
      </trkpt>
      <trkpt lat="44.89069" lon="0.33065">
        <ele>90.9</ele>
        <time>2022-04-05T09:39:25Z</time>
      </trkpt>
      <trkpt lat="44.89069" lon="0.33065">
        <ele>90.9</ele>
        <time>2022-04-05T09:39:26Z</time>
      </trkpt>
      <trkpt lat="44.89069" lon="0.33065">
        <ele>90.9</ele>
        <time>2022-04-05T09:39:27Z</time>
      </trkpt>
      <trkpt lat="44.89069" lon="0.33065">
        <ele>90.9</ele>
        <time>2022-04-05T09:39:28Z</time>
      </trkpt>
      <trkpt lat="44.89069" lon="0.33065">
        <ele>90.9</ele>
        <time>2022-04-05T09:39:29Z</time>
      </trkpt>
      <trkpt lat="44.89069" lon="0.33065">
        <ele>90.9</ele>
        <time>2022-04-05T09:39:30Z</time>
      </trkpt>
      <trkpt lat="44.89069" lon="0.33065">
        <ele>90.9</ele>
        <time>2022-04-05T09:39:31Z</time>
      </trkpt>
      <trkpt lat="44.89069" lon="0.33065">
        <ele>90.9</ele>
        <time>2022-04-05T09:39:32Z</time>
      </trkpt>
      <trkpt lat="44.89069" lon="0.33065">
        <ele>90.9</ele>
        <time>2022-04-05T09:39:33Z</time>
      </trkpt>
      <trkpt lat="44.89069" lon="0.33065">
        <ele>90.9</ele>
        <time>2022-04-05T09:39:34Z</time>
      </trkpt>
      <trkpt lat="44.89069" lon="0.33065">
        <ele>90.9</ele>
        <time>2022-04-05T09:39:35Z</time>
      </trkpt>
      <trkpt lat="44.89069" lon="0.33065">
        <ele>90.9</ele>
        <time>2022-04-05T09:39:36Z</time>
      </trkpt>
      <trkpt lat="44.89069" lon="0.33065">
        <ele>90.9</ele>
        <time>2022-04-05T09:39:37Z</time>
      </trkpt>
      <trkpt lat="44.89069" lon="0.33065">
        <ele>90.9</ele>
        <time>2022-04-05T09:39:38Z</time>
      </trkpt>
      <trkpt lat="44.89069" lon="0.33065">
        <ele>90.9</ele>
        <time>2022-04-05T09:39:39Z</time>
      </trkpt>
      <trkpt lat="44.89069" lon="0.33065">
        <ele>90.9</ele>
        <time>2022-04-05T09:39:40Z</time>
      </trkpt>
      <trkpt lat="44.89069" lon="0.33065">
        <ele>90.9</ele>
        <time>2022-04-05T09:39:41Z</time>
      </trkpt>
      <trkpt lat="44.89069" lon="0.33065">
        <ele>90.9</ele>
        <time>2022-04-05T09:39:42Z</time>
      </trkpt>
      <trkpt lat="44.89068" lon="0.33065">
        <ele>90.8</ele>
        <time>2022-04-05T09:39:43Z</time>
      </trkpt>
      <trkpt lat="44.89069" lon="0.33065">
        <ele>90.8</ele>
        <time>2022-04-05T09:39:44Z</time>
      </trkpt>
      <trkpt lat="44.89069" lon="0.33064">
        <ele>90.8</ele>
        <time>2022-04-05T09:39:45Z</time>
      </trkpt>
      <trkpt lat="44.89069" lon="0.33064">
        <ele>90.8</ele>
        <time>2022-04-05T09:39:46Z</time>
      </trkpt>
      <trkpt lat="44.89069" lon="0.33064">
        <ele>90.8</ele>
        <time>2022-04-05T09:39:47Z</time>
      </trkpt>
      <trkpt lat="44.8907" lon="0.33065">
        <ele>90.8</ele>
        <time>2022-04-05T09:39:48Z</time>
      </trkpt>
      <trkpt lat="44.8907" lon="0.33065">
        <ele>90.8</ele>
        <time>2022-04-05T09:39:49Z</time>
      </trkpt>
      <trkpt lat="44.8907" lon="0.33065">
        <ele>90.8</ele>
        <time>2022-04-05T09:39:50Z</time>
      </trkpt>
      <trkpt lat="44.89069" lon="0.33065">
        <ele>90.8</ele>
        <time>2022-04-05T09:39:51Z</time>
      </trkpt>
      <trkpt lat="44.89069" lon="0.33065">
        <ele>90.7</ele>
        <time>2022-04-05T09:39:52Z</time>
      </trkpt>
      <trkpt lat="44.89069" lon="0.33064">
        <ele>90.7</ele>
        <time>2022-04-05T09:39:53Z</time>
      </trkpt>
      <trkpt lat="44.89068" lon="0.33064">
        <ele>90.7</ele>
        <time>2022-04-05T09:39:54Z</time>
      </trkpt>
      <trkpt lat="44.89068" lon="0.33063">
        <ele>90.7</ele>
        <time>2022-04-05T09:39:55Z</time>
      </trkpt>
      <trkpt lat="44.89069" lon="0.33064">
        <ele>90.6</ele>
        <time>2022-04-05T09:39:56Z</time>
      </trkpt>
      <trkpt lat="44.89069" lon="0.33065">
        <ele>90.6</ele>
        <time>2022-04-05T09:39:57Z</time>
      </trkpt>
      <trkpt lat="44.89069" lon="0.33065">
        <ele>90.6</ele>
        <time>2022-04-05T09:39:58Z</time>
      </trkpt>
      <trkpt lat="44.89069" lon="0.33065">
        <ele>90.6</ele>
        <time>2022-04-05T09:39:59Z</time>
      </trkpt>
      <trkpt lat="44.89069" lon="0.33064">
        <ele>90.6</ele>
        <time>2022-04-05T09:40:00Z</time>
      </trkpt>
      <trkpt lat="44.89069" lon="0.33064">
        <ele>90.6</ele>
        <time>2022-04-05T09:40:01Z</time>
      </trkpt>
      <trkpt lat="44.89069" lon="0.33064">
        <ele>90.6</ele>
        <time>2022-04-05T09:40:03Z</time>
      </trkpt>
      <trkpt lat="44.89069" lon="0.33064">
        <ele>90.6</ele>
        <time>2022-04-05T09:40:04Z</time>
      </trkpt>
      <trkpt lat="44.89069" lon="0.33064">
        <ele>90.6</ele>
        <time>2022-04-05T09:40:05Z</time>
      </trkpt>
      <trkpt lat="44.89069" lon="0.33064">
        <ele>90.6</ele>
        <time>2022-04-05T09:40:07Z</time>
      </trkpt>
      <trkpt lat="44.89069" lon="0.33064">
        <ele>90.6</ele>
        <time>2022-04-05T09:40:08Z</time>
      </trkpt>
      <trkpt lat="44.89068" lon="0.33064">
        <ele>90.6</ele>
        <time>2022-04-05T09:40:09Z</time>
      </trkpt>
      <trkpt lat="44.89068" lon="0.33064">
        <ele>90.6</ele>
        <time>2022-04-05T09:40:10Z</time>
      </trkpt>
      <trkpt lat="44.89068" lon="0.33063">
        <ele>90.6</ele>
        <time>2022-04-05T09:40:11Z</time>
      </trkpt>
      <trkpt lat="44.89068" lon="0.33063">
        <ele>90.6</ele>
        <time>2022-04-05T09:40:12Z</time>
      </trkpt>
      <trkpt lat="44.89068" lon="0.33063">
        <ele>90.6</ele>
        <time>2022-04-05T09:40:13Z</time>
      </trkpt>
      <trkpt lat="44.89068" lon="0.33063">
        <ele>90.6</ele>
        <time>2022-04-05T09:40:14Z</time>
      </trkpt>
      <trkpt lat="44.89068" lon="0.33063">
        <ele>90.6</ele>
        <time>2022-04-05T09:40:15Z</time>
      </trkpt>
      <trkpt lat="44.89068" lon="0.33063">
        <ele>90.6</ele>
        <time>2022-04-05T09:40:16Z</time>
      </trkpt>
      <trkpt lat="44.89068" lon="0.33063">
        <ele>90.6</ele>
        <time>2022-04-05T09:40:17Z</time>
      </trkpt>
      <trkpt lat="44.89068" lon="0.33064">
        <ele>90.5</ele>
        <time>2022-04-05T09:40:18Z</time>
      </trkpt>
      <trkpt lat="44.89068" lon="0.33064">
        <ele>90.5</ele>
        <time>2022-04-05T09:40:19Z</time>
      </trkpt>
      <trkpt lat="44.89068" lon="0.33064">
        <ele>90.5</ele>
        <time>2022-04-05T09:40:20Z</time>
      </trkpt>
      <trkpt lat="44.89068" lon="0.33064">
        <ele>90.5</ele>
        <time>2022-04-05T09:40:21Z</time>
      </trkpt>
      <trkpt lat="44.89068" lon="0.33064">
        <ele>90.5</ele>
        <time>2022-04-05T09:40:22Z</time>
      </trkpt>
      <trkpt lat="44.89068" lon="0.33064">
        <ele>90.5</ele>
        <time>2022-04-05T09:40:23Z</time>
      </trkpt>
      <trkpt lat="44.89068" lon="0.33064">
        <ele>90.5</ele>
        <time>2022-04-05T09:40:24Z</time>
      </trkpt>
      <trkpt lat="44.89068" lon="0.33064">
        <ele>90.5</ele>
        <time>2022-04-05T09:40:25Z</time>
      </trkpt>
      <trkpt lat="44.89068" lon="0.33064">
        <ele>90.5</ele>
        <time>2022-04-05T09:40:26Z</time>
      </trkpt>
      <trkpt lat="44.89068" lon="0.33064">
        <ele>90.5</ele>
        <time>2022-04-05T09:40:27Z</time>
      </trkpt>
      <trkpt lat="44.89068" lon="0.33064">
        <ele>90.5</ele>
        <time>2022-04-05T09:40:28Z</time>
      </trkpt>
      <trkpt lat="44.89068" lon="0.33064">
        <ele>90.5</ele>
        <time>2022-04-05T09:40:29Z</time>
      </trkpt>
      <trkpt lat="44.89068" lon="0.33064">
        <ele>90.5</ele>
        <time>2022-04-05T09:40:30Z</time>
      </trkpt>
      <trkpt lat="44.89068" lon="0.33064">
        <ele>90.5</ele>
        <time>2022-04-05T09:40:32Z</time>
      </trkpt>
      <trkpt lat="44.89068" lon="0.33064">
        <ele>90.5</ele>
        <time>2022-04-05T09:40:33Z</time>
      </trkpt>
      <trkpt lat="44.89068" lon="0.33064">
        <ele>90.5</ele>
        <time>2022-04-05T09:40:34Z</time>
      </trkpt>
      <trkpt lat="44.89068" lon="0.33064">
        <ele>90.5</ele>
        <time>2022-04-05T09:40:36Z</time>
      </trkpt>
      <trkpt lat="44.89068" lon="0.33063">
        <ele>90.5</ele>
        <time>2022-04-05T09:40:37Z</time>
      </trkpt>
      <trkpt lat="44.89068" lon="0.33063">
        <ele>90.4</ele>
        <time>2022-04-05T09:40:38Z</time>
      </trkpt>
      <trkpt lat="44.89068" lon="0.33063">
        <ele>90.4</ele>
        <time>2022-04-05T09:40:39Z</time>
      </trkpt>
      <trkpt lat="44.89069" lon="0.33063">
        <ele>90.4</ele>
        <time>2022-04-05T09:40:40Z</time>
      </trkpt>
      <trkpt lat="44.8907" lon="0.33063">
        <ele>90.3</ele>
        <time>2022-04-05T09:40:41Z</time>
      </trkpt>
      <trkpt lat="44.8907" lon="0.33063">
        <ele>90.3</ele>
        <time>2022-04-05T09:40:42Z</time>
      </trkpt>
      <trkpt lat="44.89071" lon="0.33063">
        <ele>90.3</ele>
        <time>2022-04-05T09:40:43Z</time>
      </trkpt>
      <trkpt lat="44.89071" lon="0.33063">
        <ele>90.3</ele>
        <time>2022-04-05T09:40:44Z</time>
      </trkpt>
      <trkpt lat="44.89071" lon="0.33063">
        <ele>90.3</ele>
        <time>2022-04-05T09:40:45Z</time>
      </trkpt>
      <trkpt lat="44.89071" lon="0.33063">
        <ele>90.3</ele>
        <time>2022-04-05T09:40:46Z</time>
      </trkpt>
      <trkpt lat="44.89071" lon="0.33063">
        <ele>90.3</ele>
        <time>2022-04-05T09:40:47Z</time>
      </trkpt>
      <trkpt lat="44.89071" lon="0.33062">
        <ele>90.2</ele>
        <time>2022-04-05T09:40:48Z</time>
      </trkpt>
      <trkpt lat="44.89071" lon="0.33063">
        <ele>90.2</ele>
        <time>2022-04-05T09:40:49Z</time>
      </trkpt>
      <trkpt lat="44.89071" lon="0.33063">
        <ele>90.2</ele>
        <time>2022-04-05T09:40:50Z</time>
      </trkpt>
      <trkpt lat="44.89071" lon="0.33063">
        <ele>90.2</ele>
        <time>2022-04-05T09:40:51Z</time>
      </trkpt>
      <trkpt lat="44.89071" lon="0.33062">
        <ele>90.2</ele>
        <time>2022-04-05T09:40:52Z</time>
      </trkpt>
      <trkpt lat="44.89072" lon="0.33063">
        <ele>90.2</ele>
        <time>2022-04-05T09:40:53Z</time>
      </trkpt>
      <trkpt lat="44.89071" lon="0.33063">
        <ele>90.2</ele>
        <time>2022-04-05T09:40:54Z</time>
      </trkpt>
      <trkpt lat="44.89072" lon="0.33062">
        <ele>90.2</ele>
        <time>2022-04-05T09:40:55Z</time>
      </trkpt>
      <trkpt lat="44.89072" lon="0.33061">
        <ele>90.1</ele>
        <time>2022-04-05T09:40:56Z</time>
      </trkpt>
      <trkpt lat="44.89073" lon="0.33061">
        <ele>90.1</ele>
        <time>2022-04-05T09:40:57Z</time>
      </trkpt>
      <trkpt lat="44.89073" lon="0.33061">
        <ele>90.1</ele>
        <time>2022-04-05T09:40:59Z</time>
      </trkpt>
      <trkpt lat="44.89073" lon="0.33062">
        <ele>90.1</ele>
        <time>2022-04-05T09:41:00Z</time>
      </trkpt>
      <trkpt lat="44.89073" lon="0.33062">
        <ele>90.1</ele>
        <time>2022-04-05T09:41:01Z</time>
      </trkpt>
      <trkpt lat="44.89073" lon="0.33062">
        <ele>90.1</ele>
        <time>2022-04-05T09:41:02Z</time>
      </trkpt>
      <trkpt lat="44.89073" lon="0.33062">
        <ele>90</ele>
        <time>2022-04-05T09:41:03Z</time>
      </trkpt>
      <trkpt lat="44.89073" lon="0.33062">
        <ele>90</ele>
        <time>2022-04-05T09:41:04Z</time>
      </trkpt>
      <trkpt lat="44.89073" lon="0.33062">
        <ele>90</ele>
        <time>2022-04-05T09:41:05Z</time>
      </trkpt>
      <trkpt lat="44.89073" lon="0.33062">
        <ele>90</ele>
        <time>2022-04-05T09:41:06Z</time>
      </trkpt>
      <trkpt lat="44.89073" lon="0.33062">
        <ele>90</ele>
        <time>2022-04-05T09:41:07Z</time>
      </trkpt>
      <trkpt lat="44.89073" lon="0.33063">
        <ele>90</ele>
        <time>2022-04-05T09:41:08Z</time>
      </trkpt>
      <trkpt lat="44.89073" lon="0.33063">
        <ele>90</ele>
        <time>2022-04-05T09:41:09Z</time>
      </trkpt>
      <trkpt lat="44.89073" lon="0.33063">
        <ele>90</ele>
        <time>2022-04-05T09:41:10Z</time>
      </trkpt>
      <trkpt lat="44.89073" lon="0.33063">
        <ele>90</ele>
        <time>2022-04-05T09:41:11Z</time>
      </trkpt>
      <trkpt lat="44.89073" lon="0.33063">
        <ele>90</ele>
        <time>2022-04-05T09:41:12Z</time>
      </trkpt>
      <trkpt lat="44.89073" lon="0.33063">
        <ele>90</ele>
        <time>2022-04-05T09:41:13Z</time>
      </trkpt>
      <trkpt lat="44.89073" lon="0.33063">
        <ele>90</ele>
        <time>2022-04-05T09:41:14Z</time>
      </trkpt>
      <trkpt lat="44.89073" lon="0.33063">
        <ele>90</ele>
        <time>2022-04-05T09:41:15Z</time>
      </trkpt>
      <trkpt lat="44.89073" lon="0.33063">
        <ele>90</ele>
        <time>2022-04-05T09:41:16Z</time>
      </trkpt>
      <trkpt lat="44.89074" lon="0.33063">
        <ele>90</ele>
        <time>2022-04-05T09:41:17Z</time>
      </trkpt>
      <trkpt lat="44.89074" lon="0.33063">
        <ele>90</ele>
        <time>2022-04-05T09:41:18Z</time>
      </trkpt>
      <trkpt lat="44.89074" lon="0.33063">
        <ele>90</ele>
        <time>2022-04-05T09:41:19Z</time>
      </trkpt>
      <trkpt lat="44.89074" lon="0.33063">
        <ele>90</ele>
        <time>2022-04-05T09:41:20Z</time>
      </trkpt>
      <trkpt lat="44.89074" lon="0.33063">
        <ele>90</ele>
        <time>2022-04-05T09:41:21Z</time>
      </trkpt>
      <trkpt lat="44.89074" lon="0.33063">
        <ele>90</ele>
        <time>2022-04-05T09:41:22Z</time>
      </trkpt>
      <trkpt lat="44.89074" lon="0.33063">
        <ele>90</ele>
        <time>2022-04-05T09:41:23Z</time>
      </trkpt>
      <trkpt lat="44.89073" lon="0.33063">
        <ele>89.9</ele>
        <time>2022-04-05T09:41:24Z</time>
      </trkpt>
      <trkpt lat="44.89073" lon="0.33063">
        <ele>89.9</ele>
        <time>2022-04-05T09:41:25Z</time>
      </trkpt>
      <trkpt lat="44.89073" lon="0.33063">
        <ele>89.9</ele>
        <time>2022-04-05T09:41:26Z</time>
      </trkpt>
      <trkpt lat="44.89073" lon="0.33063">
        <ele>89.9</ele>
        <time>2022-04-05T09:41:27Z</time>
      </trkpt>
      <trkpt lat="44.89073" lon="0.33063">
        <ele>89.9</ele>
        <time>2022-04-05T09:41:28Z</time>
      </trkpt>
      <trkpt lat="44.89073" lon="0.33063">
        <ele>89.9</ele>
        <time>2022-04-05T09:41:29Z</time>
      </trkpt>
      <trkpt lat="44.89073" lon="0.33063">
        <ele>89.9</ele>
        <time>2022-04-05T09:41:30Z</time>
      </trkpt>
      <trkpt lat="44.89073" lon="0.33063">
        <ele>89.9</ele>
        <time>2022-04-05T09:41:31Z</time>
      </trkpt>
      <trkpt lat="44.89073" lon="0.33063">
        <ele>89.9</ele>
        <time>2022-04-05T09:41:32Z</time>
      </trkpt>
      <trkpt lat="44.89073" lon="0.33063">
        <ele>89.9</ele>
        <time>2022-04-05T09:41:33Z</time>
      </trkpt>
      <trkpt lat="44.89073" lon="0.33063">
        <ele>89.9</ele>
        <time>2022-04-05T09:41:34Z</time>
      </trkpt>
      <trkpt lat="44.89073" lon="0.33063">
        <ele>89.9</ele>
        <time>2022-04-05T09:41:35Z</time>
      </trkpt>
      <trkpt lat="44.89073" lon="0.33063">
        <ele>89.9</ele>
        <time>2022-04-05T09:41:36Z</time>
      </trkpt>
      <trkpt lat="44.89073" lon="0.33063">
        <ele>89.9</ele>
        <time>2022-04-05T09:41:37Z</time>
      </trkpt>
      <trkpt lat="44.89073" lon="0.33063">
        <ele>89.9</ele>
        <time>2022-04-05T09:41:38Z</time>
      </trkpt>
      <trkpt lat="44.89072" lon="0.33063">
        <ele>89.9</ele>
        <time>2022-04-05T09:41:39Z</time>
      </trkpt>
      <trkpt lat="44.89072" lon="0.33062">
        <ele>89.8</ele>
        <time>2022-04-05T09:41:40Z</time>
      </trkpt>
      <trkpt lat="44.89071" lon="0.33063">
        <ele>89.8</ele>
        <time>2022-04-05T09:41:41Z</time>
      </trkpt>
      <trkpt lat="44.89069" lon="0.33062">
        <ele>89.6</ele>
        <time>2022-04-05T09:41:43Z</time>
      </trkpt>
      <trkpt lat="44.89069" lon="0.33063">
        <ele>89.6</ele>
        <time>2022-04-05T09:41:44Z</time>
      </trkpt>
      <trkpt lat="44.89068" lon="0.33064">
        <ele>89.5</ele>
        <time>2022-04-05T09:41:45Z</time>
      </trkpt>
      <trkpt lat="44.89066" lon="0.33067">
        <ele>89.3</ele>
        <time>2022-04-05T09:41:47Z</time>
      </trkpt>
      <trkpt lat="44.89066" lon="0.33067">
        <ele>89.3</ele>
        <time>2022-04-05T09:41:48Z</time>
      </trkpt>
      <trkpt lat="44.89066" lon="0.33067">
        <ele>89.3</ele>
        <time>2022-04-05T09:41:49Z</time>
      </trkpt>
      <trkpt lat="44.89067" lon="0.33067">
        <ele>89.3</ele>
        <time>2022-04-05T09:41:50Z</time>
      </trkpt>
      <trkpt lat="44.89067" lon="0.33067">
        <ele>89.2</ele>
        <time>2022-04-05T09:41:52Z</time>
      </trkpt>
      <trkpt lat="44.89067" lon="0.33068">
        <ele>89.2</ele>
        <time>2022-04-05T09:41:53Z</time>
      </trkpt>
      <trkpt lat="44.89067" lon="0.3307">
        <ele>89.1</ele>
        <time>2022-04-05T09:41:55Z</time>
      </trkpt>
      <trkpt lat="44.89067" lon="0.3307">
        <ele>89.1</ele>
        <time>2022-04-05T09:41:56Z</time>
      </trkpt>
      <trkpt lat="44.89067" lon="0.3307">
        <ele>89.1</ele>
        <time>2022-04-05T09:41:57Z</time>
      </trkpt>
      <trkpt lat="44.89068" lon="0.33072">
        <ele>89</ele>
        <time>2022-04-05T09:41:58Z</time>
      </trkpt>
      <trkpt lat="44.89069" lon="0.33072">
        <ele>88.9</ele>
        <time>2022-04-05T09:41:59Z</time>
      </trkpt>
      <trkpt lat="44.89069" lon="0.33073">
        <ele>88.9</ele>
        <time>2022-04-05T09:42:01Z</time>
      </trkpt>
      <trkpt lat="44.8907" lon="0.33074">
        <ele>88.8</ele>
        <time>2022-04-05T09:42:02Z</time>
      </trkpt>
      <trkpt lat="44.8907" lon="0.33075">
        <ele>88.7</ele>
        <time>2022-04-05T09:42:03Z</time>
      </trkpt>
      <trkpt lat="44.89071" lon="0.33077">
        <ele>88.6</ele>
        <time>2022-04-05T09:42:04Z</time>
      </trkpt>
      <trkpt lat="44.89072" lon="0.33078">
        <ele>88.5</ele>
        <time>2022-04-05T09:42:05Z</time>
      </trkpt>
      <trkpt lat="44.89072" lon="0.33079">
        <ele>88.4</ele>
        <time>2022-04-05T09:42:06Z</time>
      </trkpt>
      <trkpt lat="44.89073" lon="0.33079">
        <ele>88.3</ele>
        <time>2022-04-05T09:42:07Z</time>
      </trkpt>
      <trkpt lat="44.89074" lon="0.33081">
        <ele>88.2</ele>
        <time>2022-04-05T09:42:08Z</time>
      </trkpt>
      <trkpt lat="44.89075" lon="0.33082">
        <ele>88</ele>
        <time>2022-04-05T09:42:10Z</time>
      </trkpt>
      <trkpt lat="44.89075" lon="0.33083">
        <ele>88</ele>
        <time>2022-04-05T09:42:11Z</time>
      </trkpt>
      <trkpt lat="44.89075" lon="0.33085">
        <ele>87.8</ele>
        <time>2022-04-05T09:42:12Z</time>
      </trkpt>
      <trkpt lat="44.89074" lon="0.33086">
        <ele>87.7</ele>
        <time>2022-04-05T09:42:13Z</time>
      </trkpt>
      <trkpt lat="44.89072" lon="0.33087">
        <ele>87.5</ele>
        <time>2022-04-05T09:42:14Z</time>
      </trkpt>
      <trkpt lat="44.8907" lon="0.33087">
        <ele>87.3</ele>
        <time>2022-04-05T09:42:15Z</time>
      </trkpt>
      <trkpt lat="44.89068" lon="0.33086">
        <ele>87.1</ele>
        <time>2022-04-05T09:42:16Z</time>
      </trkpt>
      <trkpt lat="44.89065" lon="0.33085">
        <ele>86.8</ele>
        <time>2022-04-05T09:42:17Z</time>
      </trkpt>
      <trkpt lat="44.89064" lon="0.33084">
        <ele>86.6</ele>
        <time>2022-04-05T09:42:18Z</time>
      </trkpt>
      <trkpt lat="44.89063" lon="0.33082">
        <ele>86.5</ele>
        <time>2022-04-05T09:42:19Z</time>
      </trkpt>
      <trkpt lat="44.89062" lon="0.3308">
        <ele>86.3</ele>
        <time>2022-04-05T09:42:20Z</time>
      </trkpt>
      <trkpt lat="44.89061" lon="0.33079">
        <ele>86.1</ele>
        <time>2022-04-05T09:42:21Z</time>
      </trkpt>
      <trkpt lat="44.8906" lon="0.33077">
        <ele>85.9</ele>
        <time>2022-04-05T09:42:22Z</time>
      </trkpt>
      <trkpt lat="44.89059" lon="0.33075">
        <ele>85.8</ele>
        <time>2022-04-05T09:42:23Z</time>
      </trkpt>
      <trkpt lat="44.89059" lon="0.33074">
        <ele>85.7</ele>
        <time>2022-04-05T09:42:24Z</time>
      </trkpt>
      <trkpt lat="44.89058" lon="0.33073">
        <ele>85.5</ele>
        <time>2022-04-05T09:42:25Z</time>
      </trkpt>
      <trkpt lat="44.89057" lon="0.33071">
        <ele>85.3</ele>
        <time>2022-04-05T09:42:26Z</time>
      </trkpt>
      <trkpt lat="44.89056" lon="0.3307">
        <ele>85.2</ele>
        <time>2022-04-05T09:42:27Z</time>
      </trkpt>
      <trkpt lat="44.89055" lon="0.33068">
        <ele>84.9</ele>
        <time>2022-04-05T09:42:29Z</time>
      </trkpt>
      <trkpt lat="44.89053" lon="0.33067">
        <ele>84.8</ele>
        <time>2022-04-05T09:42:30Z</time>
      </trkpt>
      <trkpt lat="44.89051" lon="0.33065">
        <ele>84.5</ele>
        <time>2022-04-05T09:42:31Z</time>
      </trkpt>
      <trkpt lat="44.89051" lon="0.33064">
        <ele>84.4</ele>
        <time>2022-04-05T09:42:32Z</time>
      </trkpt>
      <trkpt lat="44.89049" lon="0.33063">
        <ele>84.2</ele>
        <time>2022-04-05T09:42:33Z</time>
      </trkpt>
      <trkpt lat="44.89048" lon="0.33062">
        <ele>84</ele>
        <time>2022-04-05T09:42:34Z</time>
      </trkpt>
      <trkpt lat="44.89046" lon="0.3306">
        <ele>83.8</ele>
        <time>2022-04-05T09:42:35Z</time>
      </trkpt>
      <trkpt lat="44.89045" lon="0.33059">
        <ele>83.7</ele>
        <time>2022-04-05T09:42:36Z</time>
      </trkpt>
      <trkpt lat="44.89042" lon="0.33057">
        <ele>83.3</ele>
        <time>2022-04-05T09:42:37Z</time>
      </trkpt>
      <trkpt lat="44.89041" lon="0.33056">
        <ele>83.1</ele>
        <time>2022-04-05T09:42:38Z</time>
      </trkpt>
      <trkpt lat="44.8904" lon="0.33054">
        <ele>82.9</ele>
        <time>2022-04-05T09:42:40Z</time>
      </trkpt>
      <trkpt lat="44.89039" lon="0.33053">
        <ele>82.7</ele>
        <time>2022-04-05T09:42:41Z</time>
      </trkpt>
      <trkpt lat="44.89037" lon="0.33051">
        <ele>82.4</ele>
        <time>2022-04-05T09:42:42Z</time>
      </trkpt>
      <trkpt lat="44.89036" lon="0.3305">
        <ele>82.2</ele>
        <time>2022-04-05T09:42:43Z</time>
      </trkpt>
      <trkpt lat="44.89034" lon="0.33048">
        <ele>82</ele>
        <time>2022-04-05T09:42:44Z</time>
      </trkpt>
      <trkpt lat="44.89033" lon="0.33047">
        <ele>81.9</ele>
        <time>2022-04-05T09:42:45Z</time>
      </trkpt>
      <trkpt lat="44.89031" lon="0.33045">
        <ele>81.5</ele>
        <time>2022-04-05T09:42:46Z</time>
      </trkpt>
      <trkpt lat="44.8903" lon="0.33044">
        <ele>81.4</ele>
        <time>2022-04-05T09:42:47Z</time>
      </trkpt>
      <trkpt lat="44.89027" lon="0.33041">
        <ele>81</ele>
        <time>2022-04-05T09:42:49Z</time>
      </trkpt>
      <trkpt lat="44.89026" lon="0.3304">
        <ele>80.9</ele>
        <time>2022-04-05T09:42:50Z</time>
      </trkpt>
      <trkpt lat="44.89025" lon="0.3304">
        <ele>80.8</ele>
        <time>2022-04-05T09:42:51Z</time>
      </trkpt>
      <trkpt lat="44.89024" lon="0.33039">
        <ele>80.7</ele>
        <time>2022-04-05T09:42:52Z</time>
      </trkpt>
      <trkpt lat="44.89022" lon="0.33037">
        <ele>80.5</ele>
        <time>2022-04-05T09:42:53Z</time>
      </trkpt>
      <trkpt lat="44.89022" lon="0.33036">
        <ele>80.4</ele>
        <time>2022-04-05T09:42:54Z</time>
      </trkpt>
      <trkpt lat="44.89021" lon="0.33036">
        <ele>80.3</ele>
        <time>2022-04-05T09:42:55Z</time>
      </trkpt>
      <trkpt lat="44.8902" lon="0.33034">
        <ele>80.2</ele>
        <time>2022-04-05T09:42:56Z</time>
      </trkpt>
      <trkpt lat="44.89018" lon="0.33033">
        <ele>80.1</ele>
        <time>2022-04-05T09:42:57Z</time>
      </trkpt>
      <trkpt lat="44.89017" lon="0.33032">
        <ele>79.9</ele>
        <time>2022-04-05T09:42:58Z</time>
      </trkpt>
      <trkpt lat="44.89016" lon="0.3303">
        <ele>79.9</ele>
        <time>2022-04-05T09:42:59Z</time>
      </trkpt>
      <trkpt lat="44.89016" lon="0.33029">
        <ele>79.8</ele>
        <time>2022-04-05T09:43:00Z</time>
      </trkpt>
      <trkpt lat="44.89016" lon="0.33028">
        <ele>79.7</ele>
        <time>2022-04-05T09:43:01Z</time>
      </trkpt>
      <trkpt lat="44.89016" lon="0.33028">
        <ele>79.7</ele>
        <time>2022-04-05T09:43:02Z</time>
      </trkpt>
      <trkpt lat="44.89016" lon="0.33028">
        <ele>79.7</ele>
        <time>2022-04-05T09:43:03Z</time>
      </trkpt>
      <trkpt lat="44.89018" lon="0.33029">
        <ele>79.6</ele>
        <time>2022-04-05T09:43:04Z</time>
      </trkpt>
      <trkpt lat="44.89018" lon="0.33029">
        <ele>79.6</ele>
        <time>2022-04-05T09:43:05Z</time>
      </trkpt>
      <trkpt lat="44.89018" lon="0.33029">
        <ele>79.6</ele>
        <time>2022-04-05T09:43:06Z</time>
      </trkpt>
      <trkpt lat="44.89018" lon="0.33029">
        <ele>79.6</ele>
        <time>2022-04-05T09:43:07Z</time>
      </trkpt>
      <trkpt lat="44.89018" lon="0.33029">
        <ele>79.6</ele>
        <time>2022-04-05T09:43:08Z</time>
      </trkpt>
      <trkpt lat="44.89018" lon="0.33029">
        <ele>79.6</ele>
        <time>2022-04-05T09:43:09Z</time>
      </trkpt>
      <trkpt lat="44.89018" lon="0.33029">
        <ele>79.6</ele>
        <time>2022-04-05T09:43:10Z</time>
      </trkpt>
      <trkpt lat="44.89018" lon="0.33029">
        <ele>79.5</ele>
        <time>2022-04-05T09:43:11Z</time>
      </trkpt>
      <trkpt lat="44.89018" lon="0.3303">
        <ele>79.5</ele>
        <time>2022-04-05T09:43:12Z</time>
      </trkpt>
      <trkpt lat="44.89018" lon="0.3303">
        <ele>79.5</ele>
        <time>2022-04-05T09:43:14Z</time>
      </trkpt>
      <trkpt lat="44.89018" lon="0.3303">
        <ele>79.5</ele>
        <time>2022-04-05T09:43:15Z</time>
      </trkpt>
      <trkpt lat="44.89018" lon="0.3303">
        <ele>79.5</ele>
        <time>2022-04-05T09:43:16Z</time>
      </trkpt>
      <trkpt lat="44.89018" lon="0.3303">
        <ele>79.5</ele>
        <time>2022-04-05T09:43:17Z</time>
      </trkpt>
      <trkpt lat="44.89018" lon="0.3303">
        <ele>79.5</ele>
        <time>2022-04-05T09:43:18Z</time>
      </trkpt>
      <trkpt lat="44.89018" lon="0.3303">
        <ele>79.5</ele>
        <time>2022-04-05T09:43:19Z</time>
      </trkpt>
      <trkpt lat="44.89018" lon="0.3303">
        <ele>79.5</ele>
        <time>2022-04-05T09:43:20Z</time>
      </trkpt>
      <trkpt lat="44.89019" lon="0.33031">
        <ele>79.5</ele>
        <time>2022-04-05T09:43:21Z</time>
      </trkpt>
      <trkpt lat="44.89019" lon="0.33031">
        <ele>79.4</ele>
        <time>2022-04-05T09:43:22Z</time>
      </trkpt>
      <trkpt lat="44.89019" lon="0.33031">
        <ele>79.4</ele>
        <time>2022-04-05T09:43:23Z</time>
      </trkpt>
      <trkpt lat="44.89019" lon="0.33031">
        <ele>79.4</ele>
        <time>2022-04-05T09:43:24Z</time>
      </trkpt>
      <trkpt lat="44.89019" lon="0.33031">
        <ele>79.4</ele>
        <time>2022-04-05T09:43:25Z</time>
      </trkpt>
      <trkpt lat="44.89019" lon="0.33031">
        <ele>79.4</ele>
        <time>2022-04-05T09:43:26Z</time>
      </trkpt>
      <trkpt lat="44.89019" lon="0.33031">
        <ele>79.4</ele>
        <time>2022-04-05T09:43:27Z</time>
      </trkpt>
      <trkpt lat="44.89019" lon="0.33031">
        <ele>79.4</ele>
        <time>2022-04-05T09:43:28Z</time>
      </trkpt>
      <trkpt lat="44.89019" lon="0.33031">
        <ele>79.4</ele>
        <time>2022-04-05T09:43:29Z</time>
      </trkpt>
      <trkpt lat="44.89019" lon="0.33031">
        <ele>79.4</ele>
        <time>2022-04-05T09:43:30Z</time>
      </trkpt>
      <trkpt lat="44.89019" lon="0.33031">
        <ele>79.4</ele>
        <time>2022-04-05T09:43:31Z</time>
      </trkpt>
      <trkpt lat="44.89019" lon="0.33031">
        <ele>79.4</ele>
        <time>2022-04-05T09:43:32Z</time>
      </trkpt>
      <trkpt lat="44.89019" lon="0.33031">
        <ele>79.4</ele>
        <time>2022-04-05T09:43:33Z</time>
      </trkpt>
      <trkpt lat="44.89019" lon="0.33031">
        <ele>79.4</ele>
        <time>2022-04-05T09:43:34Z</time>
      </trkpt>
      <trkpt lat="44.89019" lon="0.33031">
        <ele>79.4</ele>
        <time>2022-04-05T09:43:35Z</time>
      </trkpt>
      <trkpt lat="44.89019" lon="0.33031">
        <ele>79.4</ele>
        <time>2022-04-05T09:43:36Z</time>
      </trkpt>
      <trkpt lat="44.89019" lon="0.33031">
        <ele>79.4</ele>
        <time>2022-04-05T09:43:37Z</time>
      </trkpt>
      <trkpt lat="44.89019" lon="0.33031">
        <ele>79.4</ele>
        <time>2022-04-05T09:43:38Z</time>
      </trkpt>
      <trkpt lat="44.89019" lon="0.33031">
        <ele>79.4</ele>
        <time>2022-04-05T09:43:39Z</time>
      </trkpt>
      <trkpt lat="44.89019" lon="0.33031">
        <ele>79.4</ele>
        <time>2022-04-05T09:43:40Z</time>
      </trkpt>
      <trkpt lat="44.89019" lon="0.33031">
        <ele>79.4</ele>
        <time>2022-04-05T09:43:41Z</time>
      </trkpt>
      <trkpt lat="44.89019" lon="0.33031">
        <ele>79.4</ele>
        <time>2022-04-05T09:43:42Z</time>
      </trkpt>
      <trkpt lat="44.89018" lon="0.33031">
        <ele>79.4</ele>
        <time>2022-04-05T09:43:43Z</time>
      </trkpt>
      <trkpt lat="44.89018" lon="0.33031">
        <ele>79.4</ele>
        <time>2022-04-05T09:43:44Z</time>
      </trkpt>
      <trkpt lat="44.89017" lon="0.33031">
        <ele>79.3</ele>
        <time>2022-04-05T09:43:45Z</time>
      </trkpt>
      <trkpt lat="44.89017" lon="0.3303">
        <ele>79.3</ele>
        <time>2022-04-05T09:43:46Z</time>
      </trkpt>
      <trkpt lat="44.89016" lon="0.33029">
        <ele>79.2</ele>
        <time>2022-04-05T09:43:47Z</time>
      </trkpt>
      <trkpt lat="44.89014" lon="0.33028">
        <ele>79.1</ele>
        <time>2022-04-05T09:43:48Z</time>
      </trkpt>
      <trkpt lat="44.89012" lon="0.33028">
        <ele>79</ele>
        <time>2022-04-05T09:43:50Z</time>
      </trkpt>
      <trkpt lat="44.89011" lon="0.33027">
        <ele>78.9</ele>
        <time>2022-04-05T09:43:51Z</time>
      </trkpt>
      <trkpt lat="44.89009" lon="0.33026">
        <ele>78.9</ele>
        <time>2022-04-05T09:43:52Z</time>
      </trkpt>
      <trkpt lat="44.89007" lon="0.33025">
        <ele>78.8</ele>
        <time>2022-04-05T09:43:53Z</time>
      </trkpt>
      <trkpt lat="44.89005" lon="0.33025">
        <ele>78.7</ele>
        <time>2022-04-05T09:43:55Z</time>
      </trkpt>
      <trkpt lat="44.89004" lon="0.33024">
        <ele>78.7</ele>
        <time>2022-04-05T09:43:56Z</time>
      </trkpt>
      <trkpt lat="44.89003" lon="0.33024">
        <ele>78.7</ele>
        <time>2022-04-05T09:43:57Z</time>
      </trkpt>
      <trkpt lat="44.89002" lon="0.33024">
        <ele>78.6</ele>
        <time>2022-04-05T09:43:58Z</time>
      </trkpt>
      <trkpt lat="44.89001" lon="0.33023">
        <ele>78.5</ele>
        <time>2022-04-05T09:43:59Z</time>
      </trkpt>
      <trkpt lat="44.89" lon="0.33023">
        <ele>78.5</ele>
        <time>2022-04-05T09:44:00Z</time>
      </trkpt>
      <trkpt lat="44.88999" lon="0.33022">
        <ele>78.5</ele>
        <time>2022-04-05T09:44:01Z</time>
      </trkpt>
      <trkpt lat="44.88998" lon="0.33021">
        <ele>78.4</ele>
        <time>2022-04-05T09:44:02Z</time>
      </trkpt>
      <trkpt lat="44.88997" lon="0.3302">
        <ele>78.4</ele>
        <time>2022-04-05T09:44:03Z</time>
      </trkpt>
      <trkpt lat="44.88995" lon="0.33019">
        <ele>78.3</ele>
        <time>2022-04-05T09:44:04Z</time>
      </trkpt>
      <trkpt lat="44.88995" lon="0.33018">
        <ele>78.3</ele>
        <time>2022-04-05T09:44:05Z</time>
      </trkpt>
      <trkpt lat="44.88994" lon="0.33018">
        <ele>78.3</ele>
        <time>2022-04-05T09:44:06Z</time>
      </trkpt>
      <trkpt lat="44.88993" lon="0.33017">
        <ele>78.2</ele>
        <time>2022-04-05T09:44:07Z</time>
      </trkpt>
      <trkpt lat="44.88991" lon="0.33016">
        <ele>78.2</ele>
        <time>2022-04-05T09:44:08Z</time>
      </trkpt>
      <trkpt lat="44.8899" lon="0.33015">
        <ele>78.1</ele>
        <time>2022-04-05T09:44:09Z</time>
      </trkpt>
      <trkpt lat="44.88989" lon="0.33014">
        <ele>78.1</ele>
        <time>2022-04-05T09:44:11Z</time>
      </trkpt>
      <trkpt lat="44.88988" lon="0.33014">
        <ele>78.1</ele>
        <time>2022-04-05T09:44:12Z</time>
      </trkpt>
      <trkpt lat="44.88986" lon="0.33013">
        <ele>78</ele>
        <time>2022-04-05T09:44:13Z</time>
      </trkpt>
      <trkpt lat="44.88985" lon="0.33012">
        <ele>77.9</ele>
        <time>2022-04-05T09:44:14Z</time>
      </trkpt>
      <trkpt lat="44.88983" lon="0.33012">
        <ele>77.9</ele>
        <time>2022-04-05T09:44:16Z</time>
      </trkpt>
      <trkpt lat="44.88982" lon="0.33011">
        <ele>77.8</ele>
        <time>2022-04-05T09:44:17Z</time>
      </trkpt>
      <trkpt lat="44.88979" lon="0.3301">
        <ele>77.7</ele>
        <time>2022-04-05T09:44:19Z</time>
      </trkpt>
      <trkpt lat="44.88978" lon="0.3301">
        <ele>77.7</ele>
        <time>2022-04-05T09:44:20Z</time>
      </trkpt>
      <trkpt lat="44.88976" lon="0.33009">
        <ele>77.6</ele>
        <time>2022-04-05T09:44:21Z</time>
      </trkpt>
      <trkpt lat="44.88975" lon="0.33009">
        <ele>77.6</ele>
        <time>2022-04-05T09:44:22Z</time>
      </trkpt>
      <trkpt lat="44.88975" lon="0.33008">
        <ele>77.6</ele>
        <time>2022-04-05T09:44:23Z</time>
      </trkpt>
      <trkpt lat="44.88973" lon="0.33008">
        <ele>77.5</ele>
        <time>2022-04-05T09:44:24Z</time>
      </trkpt>
      <trkpt lat="44.88972" lon="0.33007">
        <ele>77.5</ele>
        <time>2022-04-05T09:44:25Z</time>
      </trkpt>
      <trkpt lat="44.88971" lon="0.33007">
        <ele>77.4</ele>
        <time>2022-04-05T09:44:26Z</time>
      </trkpt>
      <trkpt lat="44.88969" lon="0.33006">
        <ele>77.3</ele>
        <time>2022-04-05T09:44:27Z</time>
      </trkpt>
      <trkpt lat="44.88968" lon="0.33006">
        <ele>77.3</ele>
        <time>2022-04-05T09:44:28Z</time>
      </trkpt>
      <trkpt lat="44.88968" lon="0.33006">
        <ele>77.3</ele>
        <time>2022-04-05T09:44:29Z</time>
      </trkpt>
      <trkpt lat="44.88967" lon="0.33005">
        <ele>77.2</ele>
        <time>2022-04-05T09:44:30Z</time>
      </trkpt>
      <trkpt lat="44.88965" lon="0.33005">
        <ele>77.1</ele>
        <time>2022-04-05T09:44:31Z</time>
      </trkpt>
      <trkpt lat="44.88964" lon="0.33003">
        <ele>77</ele>
        <time>2022-04-05T09:44:33Z</time>
      </trkpt>
      <trkpt lat="44.88962" lon="0.33002">
        <ele>76.9</ele>
        <time>2022-04-05T09:44:34Z</time>
      </trkpt>
      <trkpt lat="44.88961" lon="0.33002">
        <ele>76.8</ele>
        <time>2022-04-05T09:44:35Z</time>
      </trkpt>
      <trkpt lat="44.8896" lon="0.33002">
        <ele>76.8</ele>
        <time>2022-04-05T09:44:36Z</time>
      </trkpt>
      <trkpt lat="44.88958" lon="0.33001">
        <ele>76.6</ele>
        <time>2022-04-05T09:44:37Z</time>
      </trkpt>
      <trkpt lat="44.88956" lon="0.33001">
        <ele>76.6</ele>
        <time>2022-04-05T09:44:39Z</time>
      </trkpt>
      <trkpt lat="44.88955" lon="0.33">
        <ele>76.5</ele>
        <time>2022-04-05T09:44:40Z</time>
      </trkpt>
      <trkpt lat="44.88954" lon="0.32999">
        <ele>76.4</ele>
        <time>2022-04-05T09:44:41Z</time>
      </trkpt>
      <trkpt lat="44.88953" lon="0.32999">
        <ele>76.3</ele>
        <time>2022-04-05T09:44:42Z</time>
      </trkpt>
      <trkpt lat="44.88952" lon="0.32998">
        <ele>76.2</ele>
        <time>2022-04-05T09:44:43Z</time>
      </trkpt>
      <trkpt lat="44.88951" lon="0.32997">
        <ele>76.1</ele>
        <time>2022-04-05T09:44:44Z</time>
      </trkpt>
      <trkpt lat="44.8895" lon="0.32996">
        <ele>76</ele>
        <time>2022-04-05T09:44:45Z</time>
      </trkpt>
      <trkpt lat="44.88949" lon="0.32996">
        <ele>75.9</ele>
        <time>2022-04-05T09:44:46Z</time>
      </trkpt>
      <trkpt lat="44.88947" lon="0.32995">
        <ele>75.9</ele>
        <time>2022-04-05T09:44:47Z</time>
      </trkpt>
      <trkpt lat="44.88947" lon="0.32995">
        <ele>75.8</ele>
        <time>2022-04-05T09:44:48Z</time>
      </trkpt>
      <trkpt lat="44.88944" lon="0.32994">
        <ele>75.6</ele>
        <time>2022-04-05T09:44:49Z</time>
      </trkpt>
      <trkpt lat="44.88944" lon="0.32993">
        <ele>75.6</ele>
        <time>2022-04-05T09:44:50Z</time>
      </trkpt>
      <trkpt lat="44.88943" lon="0.32993">
        <ele>75.5</ele>
        <time>2022-04-05T09:44:51Z</time>
      </trkpt>
      <trkpt lat="44.88941" lon="0.32992">
        <ele>75.4</ele>
        <time>2022-04-05T09:44:52Z</time>
      </trkpt>
      <trkpt lat="44.8894" lon="0.32991">
        <ele>75.3</ele>
        <time>2022-04-05T09:44:53Z</time>
      </trkpt>
      <trkpt lat="44.88939" lon="0.32991">
        <ele>75.2</ele>
        <time>2022-04-05T09:44:54Z</time>
      </trkpt>
      <trkpt lat="44.88939" lon="0.32991">
        <ele>75.2</ele>
        <time>2022-04-05T09:44:55Z</time>
      </trkpt>
      <trkpt lat="44.88937" lon="0.32991">
        <ele>75.1</ele>
        <time>2022-04-05T09:44:56Z</time>
      </trkpt>
      <trkpt lat="44.88936" lon="0.3299">
        <ele>75</ele>
        <time>2022-04-05T09:44:57Z</time>
      </trkpt>
      <trkpt lat="44.88935" lon="0.32989">
        <ele>74.9</ele>
        <time>2022-04-05T09:44:58Z</time>
      </trkpt>
      <trkpt lat="44.88934" lon="0.32989">
        <ele>74.8</ele>
        <time>2022-04-05T09:44:59Z</time>
      </trkpt>
      <trkpt lat="44.88933" lon="0.32988">
        <ele>74.7</ele>
        <time>2022-04-05T09:45:00Z</time>
      </trkpt>
      <trkpt lat="44.88931" lon="0.32987">
        <ele>74.6</ele>
        <time>2022-04-05T09:45:01Z</time>
      </trkpt>
      <trkpt lat="44.8893" lon="0.32986">
        <ele>74.5</ele>
        <time>2022-04-05T09:45:02Z</time>
      </trkpt>
      <trkpt lat="44.88929" lon="0.32985">
        <ele>74.4</ele>
        <time>2022-04-05T09:45:03Z</time>
      </trkpt>
      <trkpt lat="44.88929" lon="0.32984">
        <ele>74.3</ele>
        <time>2022-04-05T09:45:05Z</time>
      </trkpt>
      <trkpt lat="44.88927" lon="0.32984">
        <ele>74.2</ele>
        <time>2022-04-05T09:45:06Z</time>
      </trkpt>
      <trkpt lat="44.88927" lon="0.32983">
        <ele>74.2</ele>
        <time>2022-04-05T09:45:07Z</time>
      </trkpt>
      <trkpt lat="44.88926" lon="0.32982">
        <ele>74.1</ele>
        <time>2022-04-05T09:45:08Z</time>
      </trkpt>
      <trkpt lat="44.88924" lon="0.32981">
        <ele>74</ele>
        <time>2022-04-05T09:45:09Z</time>
      </trkpt>
      <trkpt lat="44.88924" lon="0.3298">
        <ele>73.9</ele>
        <time>2022-04-05T09:45:10Z</time>
      </trkpt>
      <trkpt lat="44.88922" lon="0.32978">
        <ele>73.7</ele>
        <time>2022-04-05T09:45:11Z</time>
      </trkpt>
      <trkpt lat="44.88921" lon="0.32977">
        <ele>73.7</ele>
        <time>2022-04-05T09:45:12Z</time>
      </trkpt>
      <trkpt lat="44.88921" lon="0.32976">
        <ele>73.6</ele>
        <time>2022-04-05T09:45:13Z</time>
      </trkpt>
      <trkpt lat="44.8892" lon="0.32975">
        <ele>73.5</ele>
        <time>2022-04-05T09:45:14Z</time>
      </trkpt>
      <trkpt lat="44.88919" lon="0.32974">
        <ele>73.5</ele>
        <time>2022-04-05T09:45:15Z</time>
      </trkpt>
      <trkpt lat="44.88918" lon="0.32973">
        <ele>73.4</ele>
        <time>2022-04-05T09:45:16Z</time>
      </trkpt>
      <trkpt lat="44.88916" lon="0.32971">
        <ele>73.2</ele>
        <time>2022-04-05T09:45:17Z</time>
      </trkpt>
      <trkpt lat="44.88916" lon="0.32971">
        <ele>73.2</ele>
        <time>2022-04-05T09:45:18Z</time>
      </trkpt>
      <trkpt lat="44.88915" lon="0.3297">
        <ele>73.1</ele>
        <time>2022-04-05T09:45:19Z</time>
      </trkpt>
      <trkpt lat="44.88914" lon="0.3297">
        <ele>73.1</ele>
        <time>2022-04-05T09:45:20Z</time>
      </trkpt>
      <trkpt lat="44.88913" lon="0.32969">
        <ele>73</ele>
        <time>2022-04-05T09:45:21Z</time>
      </trkpt>
      <trkpt lat="44.88912" lon="0.32968">
        <ele>72.9</ele>
        <time>2022-04-05T09:45:22Z</time>
      </trkpt>
      <trkpt lat="44.8891" lon="0.32966">
        <ele>72.8</ele>
        <time>2022-04-05T09:45:23Z</time>
      </trkpt>
      <trkpt lat="44.8891" lon="0.32966">
        <ele>72.7</ele>
        <time>2022-04-05T09:45:24Z</time>
      </trkpt>
      <trkpt lat="44.88908" lon="0.32965">
        <ele>72.6</ele>
        <time>2022-04-05T09:45:26Z</time>
      </trkpt>
      <trkpt lat="44.88907" lon="0.32964">
        <ele>72.5</ele>
        <time>2022-04-05T09:45:27Z</time>
      </trkpt>
      <trkpt lat="44.88906" lon="0.32962">
        <ele>72.5</ele>
        <time>2022-04-05T09:45:28Z</time>
      </trkpt>
      <trkpt lat="44.88905" lon="0.32961">
        <ele>72.3</ele>
        <time>2022-04-05T09:45:29Z</time>
      </trkpt>
      <trkpt lat="44.88903" lon="0.32959">
        <ele>72.2</ele>
        <time>2022-04-05T09:45:30Z</time>
      </trkpt>
      <trkpt lat="44.88902" lon="0.32958">
        <ele>72.2</ele>
        <time>2022-04-05T09:45:31Z</time>
      </trkpt>
      <trkpt lat="44.88901" lon="0.32958">
        <ele>72.1</ele>
        <time>2022-04-05T09:45:32Z</time>
      </trkpt>
      <trkpt lat="44.88899" lon="0.32956">
        <ele>72</ele>
        <time>2022-04-05T09:45:33Z</time>
      </trkpt>
      <trkpt lat="44.88899" lon="0.32956">
        <ele>71.9</ele>
        <time>2022-04-05T09:45:35Z</time>
      </trkpt>
      <trkpt lat="44.88898" lon="0.32955">
        <ele>71.9</ele>
        <time>2022-04-05T09:45:36Z</time>
      </trkpt>
      <trkpt lat="44.88897" lon="0.32954">
        <ele>71.8</ele>
        <time>2022-04-05T09:45:37Z</time>
      </trkpt>
      <trkpt lat="44.88896" lon="0.32953">
        <ele>71.7</ele>
        <time>2022-04-05T09:45:38Z</time>
      </trkpt>
      <trkpt lat="44.88893" lon="0.32953">
        <ele>71.6</ele>
        <time>2022-04-05T09:45:39Z</time>
      </trkpt>
      <trkpt lat="44.88892" lon="0.32952">
        <ele>71.5</ele>
        <time>2022-04-05T09:45:41Z</time>
      </trkpt>
      <trkpt lat="44.88891" lon="0.32951">
        <ele>71.5</ele>
        <time>2022-04-05T09:45:42Z</time>
      </trkpt>
      <trkpt lat="44.8889" lon="0.3295">
        <ele>71.4</ele>
        <time>2022-04-05T09:45:43Z</time>
      </trkpt>
      <trkpt lat="44.88887" lon="0.32949">
        <ele>71.2</ele>
        <time>2022-04-05T09:45:44Z</time>
      </trkpt>
      <trkpt lat="44.88887" lon="0.32949">
        <ele>71.2</ele>
        <time>2022-04-05T09:45:45Z</time>
      </trkpt>
      <trkpt lat="44.88886" lon="0.32948">
        <ele>71.2</ele>
        <time>2022-04-05T09:45:46Z</time>
      </trkpt>
      <trkpt lat="44.88885" lon="0.32947">
        <ele>71.1</ele>
        <time>2022-04-05T09:45:47Z</time>
      </trkpt>
      <trkpt lat="44.88882" lon="0.32946">
        <ele>70.9</ele>
        <time>2022-04-05T09:45:48Z</time>
      </trkpt>
      <trkpt lat="44.88881" lon="0.32945">
        <ele>70.9</ele>
        <time>2022-04-05T09:45:49Z</time>
      </trkpt>
      <trkpt lat="44.88881" lon="0.32945">
        <ele>70.8</ele>
        <time>2022-04-05T09:45:50Z</time>
      </trkpt>
      <trkpt lat="44.8888" lon="0.32945">
        <ele>70.8</ele>
        <time>2022-04-05T09:45:51Z</time>
      </trkpt>
      <trkpt lat="44.88878" lon="0.32944">
        <ele>70.7</ele>
        <time>2022-04-05T09:45:52Z</time>
      </trkpt>
      <trkpt lat="44.88877" lon="0.32943">
        <ele>70.6</ele>
        <time>2022-04-05T09:45:53Z</time>
      </trkpt>
      <trkpt lat="44.88876" lon="0.32943">
        <ele>70.5</ele>
        <time>2022-04-05T09:45:54Z</time>
      </trkpt>
      <trkpt lat="44.88874" lon="0.32942">
        <ele>70.4</ele>
        <time>2022-04-05T09:45:55Z</time>
      </trkpt>
      <trkpt lat="44.88873" lon="0.32942">
        <ele>70.4</ele>
        <time>2022-04-05T09:45:56Z</time>
      </trkpt>
      <trkpt lat="44.88872" lon="0.32942">
        <ele>70.3</ele>
        <time>2022-04-05T09:45:57Z</time>
      </trkpt>
      <trkpt lat="44.8887" lon="0.32942">
        <ele>70.2</ele>
        <time>2022-04-05T09:45:58Z</time>
      </trkpt>
      <trkpt lat="44.88868" lon="0.32941">
        <ele>70.1</ele>
        <time>2022-04-05T09:45:59Z</time>
      </trkpt>
      <trkpt lat="44.88867" lon="0.32941">
        <ele>70.1</ele>
        <time>2022-04-05T09:46:00Z</time>
      </trkpt>
      <trkpt lat="44.88866" lon="0.32941">
        <ele>70</ele>
        <time>2022-04-05T09:46:01Z</time>
      </trkpt>
      <trkpt lat="44.88865" lon="0.32941">
        <ele>69.9</ele>
        <time>2022-04-05T09:46:02Z</time>
      </trkpt>
      <trkpt lat="44.88864" lon="0.32941">
        <ele>69.8</ele>
        <time>2022-04-05T09:46:03Z</time>
      </trkpt>
      <trkpt lat="44.88861" lon="0.32941">
        <ele>69.7</ele>
        <time>2022-04-05T09:46:04Z</time>
      </trkpt>
      <trkpt lat="44.88861" lon="0.32941">
        <ele>69.7</ele>
        <time>2022-04-05T09:46:05Z</time>
      </trkpt>
      <trkpt lat="44.8886" lon="0.32941">
        <ele>69.6</ele>
        <time>2022-04-05T09:46:06Z</time>
      </trkpt>
      <trkpt lat="44.88858" lon="0.32942">
        <ele>69.5</ele>
        <time>2022-04-05T09:46:07Z</time>
      </trkpt>
      <trkpt lat="44.88857" lon="0.32942">
        <ele>69.5</ele>
        <time>2022-04-05T09:46:08Z</time>
      </trkpt>
      <trkpt lat="44.88855" lon="0.32941">
        <ele>69.3</ele>
        <time>2022-04-05T09:46:09Z</time>
      </trkpt>
      <trkpt lat="44.88854" lon="0.32941">
        <ele>69.3</ele>
        <time>2022-04-05T09:46:10Z</time>
      </trkpt>
      <trkpt lat="44.88853" lon="0.32941">
        <ele>69.2</ele>
        <time>2022-04-05T09:46:11Z</time>
      </trkpt>
      <trkpt lat="44.88851" lon="0.3294">
        <ele>69.1</ele>
        <time>2022-04-05T09:46:12Z</time>
      </trkpt>
      <trkpt lat="44.88849" lon="0.3294">
        <ele>68.9</ele>
        <time>2022-04-05T09:46:13Z</time>
      </trkpt>
      <trkpt lat="44.88848" lon="0.32939">
        <ele>68.9</ele>
        <time>2022-04-05T09:46:14Z</time>
      </trkpt>
      <trkpt lat="44.88847" lon="0.32939">
        <ele>68.8</ele>
        <time>2022-04-05T09:46:15Z</time>
      </trkpt>
      <trkpt lat="44.88846" lon="0.32939">
        <ele>68.7</ele>
        <time>2022-04-05T09:46:16Z</time>
      </trkpt>
      <trkpt lat="44.88844" lon="0.32939">
        <ele>68.6</ele>
        <time>2022-04-05T09:46:17Z</time>
      </trkpt>
      <trkpt lat="44.88843" lon="0.32938">
        <ele>68.5</ele>
        <time>2022-04-05T09:46:18Z</time>
      </trkpt>
      <trkpt lat="44.88841" lon="0.32937">
        <ele>68.4</ele>
        <time>2022-04-05T09:46:19Z</time>
      </trkpt>
      <trkpt lat="44.88841" lon="0.32937">
        <ele>68.4</ele>
        <time>2022-04-05T09:46:20Z</time>
      </trkpt>
      <trkpt lat="44.88839" lon="0.32937">
        <ele>68.3</ele>
        <time>2022-04-05T09:46:21Z</time>
      </trkpt>
      <trkpt lat="44.88838" lon="0.32937">
        <ele>68.2</ele>
        <time>2022-04-05T09:46:22Z</time>
      </trkpt>
      <trkpt lat="44.88837" lon="0.32936">
        <ele>68.1</ele>
        <time>2022-04-05T09:46:23Z</time>
      </trkpt>
      <trkpt lat="44.88835" lon="0.32936">
        <ele>67.9</ele>
        <time>2022-04-05T09:46:24Z</time>
      </trkpt>
      <trkpt lat="44.88833" lon="0.32936">
        <ele>67.8</ele>
        <time>2022-04-05T09:46:25Z</time>
      </trkpt>
      <trkpt lat="44.88832" lon="0.32935">
        <ele>67.7</ele>
        <time>2022-04-05T09:46:27Z</time>
      </trkpt>
      <trkpt lat="44.88831" lon="0.32935">
        <ele>67.6</ele>
        <time>2022-04-05T09:46:28Z</time>
      </trkpt>
      <trkpt lat="44.88829" lon="0.32935">
        <ele>67.5</ele>
        <time>2022-04-05T09:46:29Z</time>
      </trkpt>
      <trkpt lat="44.88828" lon="0.32934">
        <ele>67.4</ele>
        <time>2022-04-05T09:46:30Z</time>
      </trkpt>
      <trkpt lat="44.88827" lon="0.32934">
        <ele>67.3</ele>
        <time>2022-04-05T09:46:31Z</time>
      </trkpt>
      <trkpt lat="44.88825" lon="0.32933">
        <ele>67.2</ele>
        <time>2022-04-05T09:46:33Z</time>
      </trkpt>
      <trkpt lat="44.88823" lon="0.32933">
        <ele>67</ele>
        <time>2022-04-05T09:46:34Z</time>
      </trkpt>
      <trkpt lat="44.88822" lon="0.32933">
        <ele>67</ele>
        <time>2022-04-05T09:46:35Z</time>
      </trkpt>
      <trkpt lat="44.88821" lon="0.32933">
        <ele>66.9</ele>
        <time>2022-04-05T09:46:36Z</time>
      </trkpt>
      <trkpt lat="44.8882" lon="0.32933">
        <ele>66.8</ele>
        <time>2022-04-05T09:46:37Z</time>
      </trkpt>
      <trkpt lat="44.88819" lon="0.32933">
        <ele>66.7</ele>
        <time>2022-04-05T09:46:38Z</time>
      </trkpt>
      <trkpt lat="44.88816" lon="0.32932">
        <ele>66.5</ele>
        <time>2022-04-05T09:46:39Z</time>
      </trkpt>
      <trkpt lat="44.88816" lon="0.32932">
        <ele>66.4</ele>
        <time>2022-04-05T09:46:40Z</time>
      </trkpt>
      <trkpt lat="44.88815" lon="0.32932">
        <ele>66.4</ele>
        <time>2022-04-05T09:46:41Z</time>
      </trkpt>
      <trkpt lat="44.88814" lon="0.32932">
        <ele>66.3</ele>
        <time>2022-04-05T09:46:42Z</time>
      </trkpt>
      <trkpt lat="44.88811" lon="0.32931">
        <ele>66</ele>
        <time>2022-04-05T09:46:44Z</time>
      </trkpt>
      <trkpt lat="44.88811" lon="0.32931">
        <ele>66</ele>
        <time>2022-04-05T09:46:45Z</time>
      </trkpt>
      <trkpt lat="44.88809" lon="0.3293">
        <ele>65.9</ele>
        <time>2022-04-05T09:46:46Z</time>
      </trkpt>
      <trkpt lat="44.88808" lon="0.3293">
        <ele>65.7</ele>
        <time>2022-04-05T09:46:47Z</time>
      </trkpt>
      <trkpt lat="44.88806" lon="0.32929">
        <ele>65.5</ele>
        <time>2022-04-05T09:46:48Z</time>
      </trkpt>
      <trkpt lat="44.88804" lon="0.32928">
        <ele>65.4</ele>
        <time>2022-04-05T09:46:49Z</time>
      </trkpt>
      <trkpt lat="44.88804" lon="0.32928">
        <ele>65.4</ele>
        <time>2022-04-05T09:46:50Z</time>
      </trkpt>
      <trkpt lat="44.88802" lon="0.32928">
        <ele>65.2</ele>
        <time>2022-04-05T09:46:51Z</time>
      </trkpt>
      <trkpt lat="44.88801" lon="0.32928">
        <ele>65.1</ele>
        <time>2022-04-05T09:46:52Z</time>
      </trkpt>
      <trkpt lat="44.88799" lon="0.32927">
        <ele>64.9</ele>
        <time>2022-04-05T09:46:53Z</time>
      </trkpt>
      <trkpt lat="44.88798" lon="0.32926">
        <ele>64.8</ele>
        <time>2022-04-05T09:46:54Z</time>
      </trkpt>
      <trkpt lat="44.88797" lon="0.32925">
        <ele>64.7</ele>
        <time>2022-04-05T09:46:55Z</time>
      </trkpt>
      <trkpt lat="44.88796" lon="0.32925">
        <ele>64.6</ele>
        <time>2022-04-05T09:46:56Z</time>
      </trkpt>
      <trkpt lat="44.88795" lon="0.32924">
        <ele>64.5</ele>
        <time>2022-04-05T09:46:57Z</time>
      </trkpt>
      <trkpt lat="44.88795" lon="0.32924">
        <ele>64.4</ele>
        <time>2022-04-05T09:46:58Z</time>
      </trkpt>
      <trkpt lat="44.88793" lon="0.32923">
        <ele>64.2</ele>
        <time>2022-04-05T09:46:59Z</time>
      </trkpt>
      <trkpt lat="44.88792" lon="0.32922">
        <ele>64.1</ele>
        <time>2022-04-05T09:47:00Z</time>
      </trkpt>
      <trkpt lat="44.88791" lon="0.32921">
        <ele>64</ele>
        <time>2022-04-05T09:47:01Z</time>
      </trkpt>
      <trkpt lat="44.8879" lon="0.32921">
        <ele>63.9</ele>
        <time>2022-04-05T09:47:02Z</time>
      </trkpt>
      <trkpt lat="44.8879" lon="0.3292">
        <ele>63.8</ele>
        <time>2022-04-05T09:47:03Z</time>
      </trkpt>
      <trkpt lat="44.88788" lon="0.32918">
        <ele>63.6</ele>
        <time>2022-04-05T09:47:04Z</time>
      </trkpt>
      <trkpt lat="44.88787" lon="0.32918">
        <ele>63.5</ele>
        <time>2022-04-05T09:47:05Z</time>
      </trkpt>
      <trkpt lat="44.88786" lon="0.32916">
        <ele>63.3</ele>
        <time>2022-04-05T09:47:06Z</time>
      </trkpt>
      <trkpt lat="44.88785" lon="0.32915">
        <ele>63.1</ele>
        <time>2022-04-05T09:47:08Z</time>
      </trkpt>
      <trkpt lat="44.88783" lon="0.32913">
        <ele>62.8</ele>
        <time>2022-04-05T09:47:09Z</time>
      </trkpt>
      <trkpt lat="44.88783" lon="0.32912">
        <ele>62.7</ele>
        <time>2022-04-05T09:47:10Z</time>
      </trkpt>
      <trkpt lat="44.88782" lon="0.32911">
        <ele>62.6</ele>
        <time>2022-04-05T09:47:11Z</time>
      </trkpt>
      <trkpt lat="44.88781" lon="0.3291">
        <ele>62.4</ele>
        <time>2022-04-05T09:47:12Z</time>
      </trkpt>
      <trkpt lat="44.8878" lon="0.32909">
        <ele>62.3</ele>
        <time>2022-04-05T09:47:13Z</time>
      </trkpt>
      <trkpt lat="44.88779" lon="0.32907">
        <ele>62.1</ele>
        <time>2022-04-05T09:47:14Z</time>
      </trkpt>
      <trkpt lat="44.88778" lon="0.32906">
        <ele>62</ele>
        <time>2022-04-05T09:47:15Z</time>
      </trkpt>
      <trkpt lat="44.88777" lon="0.32906">
        <ele>61.8</ele>
        <time>2022-04-05T09:47:17Z</time>
      </trkpt>
      <trkpt lat="44.88776" lon="0.32905">
        <ele>61.6</ele>
        <time>2022-04-05T09:47:18Z</time>
      </trkpt>
      <trkpt lat="44.88774" lon="0.32903">
        <ele>61.4</ele>
        <time>2022-04-05T09:47:19Z</time>
      </trkpt>
      <trkpt lat="44.88773" lon="0.32902">
        <ele>61.3</ele>
        <time>2022-04-05T09:47:20Z</time>
      </trkpt>
      <trkpt lat="44.88772" lon="0.32901">
        <ele>61.1</ele>
        <time>2022-04-05T09:47:21Z</time>
      </trkpt>
      <trkpt lat="44.88772" lon="0.329">
        <ele>61</ele>
        <time>2022-04-05T09:47:22Z</time>
      </trkpt>
      <trkpt lat="44.8877" lon="0.32897">
        <ele>60.7</ele>
        <time>2022-04-05T09:47:23Z</time>
      </trkpt>
      <trkpt lat="44.88769" lon="0.32896">
        <ele>60.5</ele>
        <time>2022-04-05T09:47:25Z</time>
      </trkpt>
      <trkpt lat="44.88769" lon="0.32895">
        <ele>60.4</ele>
        <time>2022-04-05T09:47:26Z</time>
      </trkpt>
      <trkpt lat="44.88768" lon="0.32894">
        <ele>60.3</ele>
        <time>2022-04-05T09:47:27Z</time>
      </trkpt>
      <trkpt lat="44.88767" lon="0.32893">
        <ele>60.1</ele>
        <time>2022-04-05T09:47:28Z</time>
      </trkpt>
      <trkpt lat="44.88766" lon="0.32891">
        <ele>59.9</ele>
        <time>2022-04-05T09:47:29Z</time>
      </trkpt>
      <trkpt lat="44.88765" lon="0.3289">
        <ele>59.8</ele>
        <time>2022-04-05T09:47:30Z</time>
      </trkpt>
      <trkpt lat="44.88763" lon="0.32887">
        <ele>59.5</ele>
        <time>2022-04-05T09:47:31Z</time>
      </trkpt>
      <trkpt lat="44.88762" lon="0.32886">
        <ele>59.3</ele>
        <time>2022-04-05T09:47:33Z</time>
      </trkpt>
      <trkpt lat="44.88762" lon="0.32885">
        <ele>59.2</ele>
        <time>2022-04-05T09:47:34Z</time>
      </trkpt>
      <trkpt lat="44.88761" lon="0.32884">
        <ele>59.1</ele>
        <time>2022-04-05T09:47:35Z</time>
      </trkpt>
      <trkpt lat="44.8876" lon="0.32883">
        <ele>58.9</ele>
        <time>2022-04-05T09:47:36Z</time>
      </trkpt>
      <trkpt lat="44.88759" lon="0.32882">
        <ele>58.8</ele>
        <time>2022-04-05T09:47:37Z</time>
      </trkpt>
      <trkpt lat="44.88757" lon="0.32879">
        <ele>58.4</ele>
        <time>2022-04-05T09:47:39Z</time>
      </trkpt>
      <trkpt lat="44.88756" lon="0.32878">
        <ele>58.3</ele>
        <time>2022-04-05T09:47:40Z</time>
      </trkpt>
      <trkpt lat="44.88756" lon="0.32877">
        <ele>58.2</ele>
        <time>2022-04-05T09:47:41Z</time>
      </trkpt>
      <trkpt lat="44.88755" lon="0.32876">
        <ele>58</ele>
        <time>2022-04-05T09:47:42Z</time>
      </trkpt>
      <trkpt lat="44.88754" lon="0.32874">
        <ele>57.9</ele>
        <time>2022-04-05T09:47:44Z</time>
      </trkpt>
      <trkpt lat="44.88753" lon="0.32872">
        <ele>57.7</ele>
        <time>2022-04-05T09:47:45Z</time>
      </trkpt>
      <trkpt lat="44.88752" lon="0.32871">
        <ele>57.6</ele>
        <time>2022-04-05T09:47:46Z</time>
      </trkpt>
      <trkpt lat="44.88752" lon="0.3287">
        <ele>57.5</ele>
        <time>2022-04-05T09:47:47Z</time>
      </trkpt>
      <trkpt lat="44.88751" lon="0.32869">
        <ele>57.3</ele>
        <time>2022-04-05T09:47:48Z</time>
      </trkpt>
      <trkpt lat="44.88749" lon="0.32866">
        <ele>57</ele>
        <time>2022-04-05T09:47:49Z</time>
      </trkpt>
      <trkpt lat="44.88749" lon="0.32866">
        <ele>57</ele>
        <time>2022-04-05T09:47:50Z</time>
      </trkpt>
      <trkpt lat="44.88748" lon="0.32866">
        <ele>56.9</ele>
        <time>2022-04-05T09:47:51Z</time>
      </trkpt>
      <trkpt lat="44.88747" lon="0.32865">
        <ele>56.8</ele>
        <time>2022-04-05T09:47:52Z</time>
      </trkpt>
      <trkpt lat="44.88746" lon="0.32864">
        <ele>56.6</ele>
        <time>2022-04-05T09:47:53Z</time>
      </trkpt>
      <trkpt lat="44.88743" lon="0.32863">
        <ele>56.4</ele>
        <time>2022-04-05T09:47:54Z</time>
      </trkpt>
      <trkpt lat="44.88743" lon="0.32863">
        <ele>56.3</ele>
        <time>2022-04-05T09:47:55Z</time>
      </trkpt>
      <trkpt lat="44.88742" lon="0.32862">
        <ele>56.2</ele>
        <time>2022-04-05T09:47:56Z</time>
      </trkpt>
      <trkpt lat="44.88741" lon="0.32861">
        <ele>56.1</ele>
        <time>2022-04-05T09:47:57Z</time>
      </trkpt>
      <trkpt lat="44.8874" lon="0.3286">
        <ele>56</ele>
        <time>2022-04-05T09:47:58Z</time>
      </trkpt>
      <trkpt lat="44.88738" lon="0.32857">
        <ele>55.7</ele>
        <time>2022-04-05T09:47:59Z</time>
      </trkpt>
      <trkpt lat="44.88738" lon="0.32857">
        <ele>55.7</ele>
        <time>2022-04-05T09:48:00Z</time>
      </trkpt>
      <trkpt lat="44.88737" lon="0.32856">
        <ele>55.6</ele>
        <time>2022-04-05T09:48:01Z</time>
      </trkpt>
      <trkpt lat="44.88736" lon="0.32854">
        <ele>55.5</ele>
        <time>2022-04-05T09:48:03Z</time>
      </trkpt>
      <trkpt lat="44.88734" lon="0.32852">
        <ele>55.3</ele>
        <time>2022-04-05T09:48:04Z</time>
      </trkpt>
      <trkpt lat="44.88734" lon="0.32851">
        <ele>55.2</ele>
        <time>2022-04-05T09:48:05Z</time>
      </trkpt>
      <trkpt lat="44.88733" lon="0.3285">
        <ele>55.1</ele>
        <time>2022-04-05T09:48:06Z</time>
      </trkpt>
      <trkpt lat="44.88732" lon="0.3285">
        <ele>55.1</ele>
        <time>2022-04-05T09:48:07Z</time>
      </trkpt>
      <trkpt lat="44.88731" lon="0.32849">
        <ele>55</ele>
        <time>2022-04-05T09:48:08Z</time>
      </trkpt>
      <trkpt lat="44.8873" lon="0.32848">
        <ele>54.9</ele>
        <time>2022-04-05T09:48:10Z</time>
      </trkpt>
      <trkpt lat="44.88729" lon="0.32847">
        <ele>54.8</ele>
        <time>2022-04-05T09:48:11Z</time>
      </trkpt>
      <trkpt lat="44.88728" lon="0.32847">
        <ele>54.7</ele>
        <time>2022-04-05T09:48:12Z</time>
      </trkpt>
      <trkpt lat="44.88726" lon="0.32847">
        <ele>54.6</ele>
        <time>2022-04-05T09:48:13Z</time>
      </trkpt>
      <trkpt lat="44.88725" lon="0.32846">
        <ele>54.5</ele>
        <time>2022-04-05T09:48:15Z</time>
      </trkpt>
      <trkpt lat="44.88724" lon="0.32845">
        <ele>54.5</ele>
        <time>2022-04-05T09:48:16Z</time>
      </trkpt>
      <trkpt lat="44.88723" lon="0.32844">
        <ele>54.4</ele>
        <time>2022-04-05T09:48:17Z</time>
      </trkpt>
      <trkpt lat="44.88722" lon="0.32843">
        <ele>54.3</ele>
        <time>2022-04-05T09:48:18Z</time>
      </trkpt>
      <trkpt lat="44.88721" lon="0.32843">
        <ele>54.3</ele>
        <time>2022-04-05T09:48:19Z</time>
      </trkpt>
      <trkpt lat="44.8872" lon="0.32841">
        <ele>54.2</ele>
        <time>2022-04-05T09:48:20Z</time>
      </trkpt>
      <trkpt lat="44.88718" lon="0.32839">
        <ele>54.1</ele>
        <time>2022-04-05T09:48:21Z</time>
      </trkpt>
      <trkpt lat="44.88717" lon="0.32838">
        <ele>54.1</ele>
        <time>2022-04-05T09:48:22Z</time>
      </trkpt>
      <trkpt lat="44.88717" lon="0.32838">
        <ele>54.1</ele>
        <time>2022-04-05T09:48:23Z</time>
      </trkpt>
      <trkpt lat="44.88715" lon="0.32836">
        <ele>54</ele>
        <time>2022-04-05T09:48:25Z</time>
      </trkpt>
      <trkpt lat="44.88714" lon="0.32835">
        <ele>54</ele>
        <time>2022-04-05T09:48:26Z</time>
      </trkpt>
      <trkpt lat="44.88712" lon="0.32833">
        <ele>54</ele>
        <time>2022-04-05T09:48:27Z</time>
      </trkpt>
      <trkpt lat="44.88712" lon="0.32832">
        <ele>54</ele>
        <time>2022-04-05T09:48:28Z</time>
      </trkpt>
      <trkpt lat="44.88711" lon="0.32832">
        <ele>54</ele>
        <time>2022-04-05T09:48:29Z</time>
      </trkpt>
      <trkpt lat="44.8871" lon="0.32831">
        <ele>54</ele>
        <time>2022-04-05T09:48:30Z</time>
      </trkpt>
      <trkpt lat="44.88709" lon="0.3283">
        <ele>54</ele>
        <time>2022-04-05T09:48:31Z</time>
      </trkpt>
      <trkpt lat="44.88708" lon="0.32829">
        <ele>54</ele>
        <time>2022-04-05T09:48:32Z</time>
      </trkpt>
      <trkpt lat="44.88706" lon="0.32827">
        <ele>54</ele>
        <time>2022-04-05T09:48:33Z</time>
      </trkpt>
      <trkpt lat="44.88705" lon="0.32826">
        <ele>54.1</ele>
        <time>2022-04-05T09:48:34Z</time>
      </trkpt>
      <trkpt lat="44.88705" lon="0.32825">
        <ele>54.1</ele>
        <time>2022-04-05T09:48:35Z</time>
      </trkpt>
      <trkpt lat="44.88705" lon="0.32824">
        <ele>54.1</ele>
        <time>2022-04-05T09:48:36Z</time>
      </trkpt>
      <trkpt lat="44.88704" lon="0.32822">
        <ele>54.1</ele>
        <time>2022-04-05T09:48:37Z</time>
      </trkpt>
      <trkpt lat="44.88703" lon="0.32821">
        <ele>54.2</ele>
        <time>2022-04-05T09:48:38Z</time>
      </trkpt>
      <trkpt lat="44.88702" lon="0.3282">
        <ele>54.3</ele>
        <time>2022-04-05T09:48:39Z</time>
      </trkpt>
      <trkpt lat="44.88701" lon="0.32819">
        <ele>54.3</ele>
        <time>2022-04-05T09:48:40Z</time>
      </trkpt>
      <trkpt lat="44.887" lon="0.32819">
        <ele>54.4</ele>
        <time>2022-04-05T09:48:41Z</time>
      </trkpt>
      <trkpt lat="44.88698" lon="0.32817">
        <ele>54.5</ele>
        <time>2022-04-05T09:48:43Z</time>
      </trkpt>
      <trkpt lat="44.88696" lon="0.32816">
        <ele>54.7</ele>
        <time>2022-04-05T09:48:44Z</time>
      </trkpt>
      <trkpt lat="44.88695" lon="0.32816">
        <ele>54.8</ele>
        <time>2022-04-05T09:48:45Z</time>
      </trkpt>
      <trkpt lat="44.88693" lon="0.32815">
        <ele>54.9</ele>
        <time>2022-04-05T09:48:46Z</time>
      </trkpt>
      <trkpt lat="44.88692" lon="0.32815">
        <ele>55</ele>
        <time>2022-04-05T09:48:47Z</time>
      </trkpt>
      <trkpt lat="44.88691" lon="0.32815">
        <ele>55.1</ele>
        <time>2022-04-05T09:48:48Z</time>
      </trkpt>
      <trkpt lat="44.8869" lon="0.32815">
        <ele>55.3</ele>
        <time>2022-04-05T09:48:50Z</time>
      </trkpt>
      <trkpt lat="44.88689" lon="0.32815">
        <ele>55.4</ele>
        <time>2022-04-05T09:48:51Z</time>
      </trkpt>
      <trkpt lat="44.88687" lon="0.32815">
        <ele>55.5</ele>
        <time>2022-04-05T09:48:52Z</time>
      </trkpt>
      <trkpt lat="44.88686" lon="0.32815">
        <ele>55.7</ele>
        <time>2022-04-05T09:48:53Z</time>
      </trkpt>
      <trkpt lat="44.88684" lon="0.32814">
        <ele>55.9</ele>
        <time>2022-04-05T09:48:54Z</time>
      </trkpt>
      <trkpt lat="44.88683" lon="0.32815">
        <ele>56</ele>
        <time>2022-04-05T09:48:55Z</time>
      </trkpt>
      <trkpt lat="44.88682" lon="0.32815">
        <ele>56.2</ele>
        <time>2022-04-05T09:48:56Z</time>
      </trkpt>
      <trkpt lat="44.8868" lon="0.32815">
        <ele>56.4</ele>
        <time>2022-04-05T09:48:57Z</time>
      </trkpt>
      <trkpt lat="44.88679" lon="0.32815">
        <ele>56.6</ele>
        <time>2022-04-05T09:48:59Z</time>
      </trkpt>
      <trkpt lat="44.88677" lon="0.32814">
        <ele>56.9</ele>
        <time>2022-04-05T09:49:00Z</time>
      </trkpt>
      <trkpt lat="44.88676" lon="0.32813">
        <ele>57</ele>
        <time>2022-04-05T09:49:01Z</time>
      </trkpt>
      <trkpt lat="44.88674" lon="0.32813">
        <ele>57.3</ele>
        <time>2022-04-05T09:49:02Z</time>
      </trkpt>
      <trkpt lat="44.88672" lon="0.32813">
        <ele>57.5</ele>
        <time>2022-04-05T09:49:03Z</time>
      </trkpt>
      <trkpt lat="44.88671" lon="0.32813">
        <ele>57.7</ele>
        <time>2022-04-05T09:49:04Z</time>
      </trkpt>
      <trkpt lat="44.88671" lon="0.32813">
        <ele>57.8</ele>
        <time>2022-04-05T09:49:05Z</time>
      </trkpt>
      <trkpt lat="44.8867" lon="0.32812">
        <ele>57.9</ele>
        <time>2022-04-05T09:49:06Z</time>
      </trkpt>
      <trkpt lat="44.88669" lon="0.32812">
        <ele>58.1</ele>
        <time>2022-04-05T09:49:07Z</time>
      </trkpt>
      <trkpt lat="44.88668" lon="0.32811">
        <ele>58.2</ele>
        <time>2022-04-05T09:49:08Z</time>
      </trkpt>
      <trkpt lat="44.88667" lon="0.3281">
        <ele>58.4</ele>
        <time>2022-04-05T09:49:10Z</time>
      </trkpt>
      <trkpt lat="44.88666" lon="0.32809">
        <ele>58.6</ele>
        <time>2022-04-05T09:49:11Z</time>
      </trkpt>
      <trkpt lat="44.88665" lon="0.32808">
        <ele>58.8</ele>
        <time>2022-04-05T09:49:12Z</time>
      </trkpt>
      <trkpt lat="44.88663" lon="0.32807">
        <ele>59</ele>
        <time>2022-04-05T09:49:13Z</time>
      </trkpt>
      <trkpt lat="44.88661" lon="0.32806">
        <ele>59.3</ele>
        <time>2022-04-05T09:49:15Z</time>
      </trkpt>
      <trkpt lat="44.88661" lon="0.32806">
        <ele>59.4</ele>
        <time>2022-04-05T09:49:16Z</time>
      </trkpt>
      <trkpt lat="44.8866" lon="0.32806">
        <ele>59.5</ele>
        <time>2022-04-05T09:49:17Z</time>
      </trkpt>
      <trkpt lat="44.88657" lon="0.32805">
        <ele>59.9</ele>
        <time>2022-04-05T09:49:18Z</time>
      </trkpt>
      <trkpt lat="44.88656" lon="0.32805">
        <ele>60</ele>
        <time>2022-04-05T09:49:19Z</time>
      </trkpt>
      <trkpt lat="44.88655" lon="0.32804">
        <ele>60.1</ele>
        <time>2022-04-05T09:49:20Z</time>
      </trkpt>
      <trkpt lat="44.88654" lon="0.32804">
        <ele>60.3</ele>
        <time>2022-04-05T09:49:22Z</time>
      </trkpt>
      <trkpt lat="44.88653" lon="0.32804">
        <ele>60.5</ele>
        <time>2022-04-05T09:49:23Z</time>
      </trkpt>
      <trkpt lat="44.88652" lon="0.32804">
        <ele>60.6</ele>
        <time>2022-04-05T09:49:24Z</time>
      </trkpt>
      <trkpt lat="44.88651" lon="0.32806">
        <ele>60.9</ele>
        <time>2022-04-05T09:49:26Z</time>
      </trkpt>
      <trkpt lat="44.88649" lon="0.32808">
        <ele>61.2</ele>
        <time>2022-04-05T09:49:27Z</time>
      </trkpt>
      <trkpt lat="44.88648" lon="0.32809">
        <ele>61.3</ele>
        <time>2022-04-05T09:49:28Z</time>
      </trkpt>
      <trkpt lat="44.88647" lon="0.3281">
        <ele>61.4</ele>
        <time>2022-04-05T09:49:29Z</time>
      </trkpt>
      <trkpt lat="44.88646" lon="0.3281">
        <ele>61.6</ele>
        <time>2022-04-05T09:49:30Z</time>
      </trkpt>
      <trkpt lat="44.88646" lon="0.32809">
        <ele>61.7</ele>
        <time>2022-04-05T09:49:31Z</time>
      </trkpt>
      <trkpt lat="44.88646" lon="0.32807">
        <ele>61.9</ele>
        <time>2022-04-05T09:49:32Z</time>
      </trkpt>
      <trkpt lat="44.88646" lon="0.32806">
        <ele>62</ele>
        <time>2022-04-05T09:49:33Z</time>
      </trkpt>
      <trkpt lat="44.88647" lon="0.32805">
        <ele>62.1</ele>
        <time>2022-04-05T09:49:34Z</time>
      </trkpt>
      <trkpt lat="44.88647" lon="0.32805">
        <ele>62.1</ele>
        <time>2022-04-05T09:49:35Z</time>
      </trkpt>
      <trkpt lat="44.88648" lon="0.32804">
        <ele>62.2</ele>
        <time>2022-04-05T09:49:36Z</time>
      </trkpt>
      <trkpt lat="44.88648" lon="0.32804">
        <ele>62.2</ele>
        <time>2022-04-05T09:49:38Z</time>
      </trkpt>
      <trkpt lat="44.88648" lon="0.32804">
        <ele>62.3</ele>
        <time>2022-04-05T09:49:39Z</time>
      </trkpt>
      <trkpt lat="44.88647" lon="0.32803">
        <ele>62.3</ele>
        <time>2022-04-05T09:49:40Z</time>
      </trkpt>
      <trkpt lat="44.88646" lon="0.32803">
        <ele>62.5</ele>
        <time>2022-04-05T09:49:41Z</time>
      </trkpt>
      <trkpt lat="44.88644" lon="0.32802">
        <ele>62.7</ele>
        <time>2022-04-05T09:49:42Z</time>
      </trkpt>
      <trkpt lat="44.88643" lon="0.32801">
        <ele>62.8</ele>
        <time>2022-04-05T09:49:43Z</time>
      </trkpt>
      <trkpt lat="44.88642" lon="0.32801">
        <ele>63</ele>
        <time>2022-04-05T09:49:44Z</time>
      </trkpt>
      <trkpt lat="44.8864" lon="0.32801">
        <ele>63.3</ele>
        <time>2022-04-05T09:49:45Z</time>
      </trkpt>
      <trkpt lat="44.88639" lon="0.32801">
        <ele>63.4</ele>
        <time>2022-04-05T09:49:46Z</time>
      </trkpt>
      <trkpt lat="44.88638" lon="0.32801">
        <ele>63.5</ele>
        <time>2022-04-05T09:49:47Z</time>
      </trkpt>
      <trkpt lat="44.88636" lon="0.32801">
        <ele>63.7</ele>
        <time>2022-04-05T09:49:49Z</time>
      </trkpt>
      <trkpt lat="44.88635" lon="0.32801">
        <ele>63.8</ele>
        <time>2022-04-05T09:49:50Z</time>
      </trkpt>
      <trkpt lat="44.88634" lon="0.32801">
        <ele>63.9</ele>
        <time>2022-04-05T09:49:51Z</time>
      </trkpt>
      <trkpt lat="44.88633" lon="0.32801">
        <ele>64</ele>
        <time>2022-04-05T09:49:52Z</time>
      </trkpt>
      <trkpt lat="44.88632" lon="0.32801">
        <ele>64.2</ele>
        <time>2022-04-05T09:49:53Z</time>
      </trkpt>
      <trkpt lat="44.88631" lon="0.32801">
        <ele>64.3</ele>
        <time>2022-04-05T09:49:54Z</time>
      </trkpt>
      <trkpt lat="44.8863" lon="0.32801">
        <ele>64.4</ele>
        <time>2022-04-05T09:49:56Z</time>
      </trkpt>
      <trkpt lat="44.88629" lon="0.32801">
        <ele>64.6</ele>
        <time>2022-04-05T09:49:57Z</time>
      </trkpt>
      <trkpt lat="44.88628" lon="0.328">
        <ele>64.7</ele>
        <time>2022-04-05T09:49:58Z</time>
      </trkpt>
      <trkpt lat="44.88625" lon="0.328">
        <ele>64.9</ele>
        <time>2022-04-05T09:49:59Z</time>
      </trkpt>
      <trkpt lat="44.88625" lon="0.32799">
        <ele>65</ele>
        <time>2022-04-05T09:50:00Z</time>
      </trkpt>
      <trkpt lat="44.88624" lon="0.32799">
        <ele>65.1</ele>
        <time>2022-04-05T09:50:01Z</time>
      </trkpt>
      <trkpt lat="44.88622" lon="0.32799">
        <ele>65.4</ele>
        <time>2022-04-05T09:50:02Z</time>
      </trkpt>
      <trkpt lat="44.88621" lon="0.32798">
        <ele>65.5</ele>
        <time>2022-04-05T09:50:03Z</time>
      </trkpt>
      <trkpt lat="44.8862" lon="0.32798">
        <ele>65.6</ele>
        <time>2022-04-05T09:50:05Z</time>
      </trkpt>
      <trkpt lat="44.88619" lon="0.32798">
        <ele>65.7</ele>
        <time>2022-04-05T09:50:06Z</time>
      </trkpt>
      <trkpt lat="44.88618" lon="0.32798">
        <ele>65.8</ele>
        <time>2022-04-05T09:50:07Z</time>
      </trkpt>
      <trkpt lat="44.88617" lon="0.32798">
        <ele>66</ele>
        <time>2022-04-05T09:50:08Z</time>
      </trkpt>
      <trkpt lat="44.88615" lon="0.32797">
        <ele>66.1</ele>
        <time>2022-04-05T09:50:09Z</time>
      </trkpt>
      <trkpt lat="44.88614" lon="0.32797">
        <ele>66.3</ele>
        <time>2022-04-05T09:50:10Z</time>
      </trkpt>
      <trkpt lat="44.88613" lon="0.32797">
        <ele>66.4</ele>
        <time>2022-04-05T09:50:11Z</time>
      </trkpt>
      <trkpt lat="44.88612" lon="0.32796">
        <ele>66.6</ele>
        <time>2022-04-05T09:50:12Z</time>
      </trkpt>
      <trkpt lat="44.88611" lon="0.32796">
        <ele>66.7</ele>
        <time>2022-04-05T09:50:14Z</time>
      </trkpt>
      <trkpt lat="44.88609" lon="0.32796">
        <ele>66.9</ele>
        <time>2022-04-05T09:50:15Z</time>
      </trkpt>
      <trkpt lat="44.88608" lon="0.32796">
        <ele>67</ele>
        <time>2022-04-05T09:50:16Z</time>
      </trkpt>
      <trkpt lat="44.88607" lon="0.32796">
        <ele>67.2</ele>
        <time>2022-04-05T09:50:17Z</time>
      </trkpt>
      <trkpt lat="44.88605" lon="0.32796">
        <ele>67.4</ele>
        <time>2022-04-05T09:50:18Z</time>
      </trkpt>
      <trkpt lat="44.88603" lon="0.32796">
        <ele>67.7</ele>
        <time>2022-04-05T09:50:20Z</time>
      </trkpt>
      <trkpt lat="44.88602" lon="0.32796">
        <ele>67.8</ele>
        <time>2022-04-05T09:50:21Z</time>
      </trkpt>
      <trkpt lat="44.88601" lon="0.32796">
        <ele>68</ele>
        <time>2022-04-05T09:50:22Z</time>
      </trkpt>
      <trkpt lat="44.88599" lon="0.32796">
        <ele>68.2</ele>
        <time>2022-04-05T09:50:24Z</time>
      </trkpt>
      <trkpt lat="44.88597" lon="0.32796">
        <ele>68.5</ele>
        <time>2022-04-05T09:50:25Z</time>
      </trkpt>
      <trkpt lat="44.88596" lon="0.32795">
        <ele>68.6</ele>
        <time>2022-04-05T09:50:26Z</time>
      </trkpt>
      <trkpt lat="44.88595" lon="0.32795">
        <ele>68.7</ele>
        <time>2022-04-05T09:50:27Z</time>
      </trkpt>
      <trkpt lat="44.88594" lon="0.32795">
        <ele>68.8</ele>
        <time>2022-04-05T09:50:28Z</time>
      </trkpt>
      <trkpt lat="44.88594" lon="0.32794">
        <ele>68.9</ele>
        <time>2022-04-05T09:50:29Z</time>
      </trkpt>
      <trkpt lat="44.88593" lon="0.32794">
        <ele>69</ele>
        <time>2022-04-05T09:50:30Z</time>
      </trkpt>
      <trkpt lat="44.88591" lon="0.32793">
        <ele>69.3</ele>
        <time>2022-04-05T09:50:31Z</time>
      </trkpt>
      <trkpt lat="44.8859" lon="0.32792">
        <ele>69.4</ele>
        <time>2022-04-05T09:50:33Z</time>
      </trkpt>
      <trkpt lat="44.88589" lon="0.32792">
        <ele>69.5</ele>
        <time>2022-04-05T09:50:34Z</time>
      </trkpt>
      <trkpt lat="44.88588" lon="0.32791">
        <ele>69.7</ele>
        <time>2022-04-05T09:50:35Z</time>
      </trkpt>
      <trkpt lat="44.88586" lon="0.3279">
        <ele>69.9</ele>
        <time>2022-04-05T09:50:37Z</time>
      </trkpt>
      <trkpt lat="44.88585" lon="0.32789">
        <ele>70</ele>
        <time>2022-04-05T09:50:38Z</time>
      </trkpt>
      <trkpt lat="44.88585" lon="0.32788">
        <ele>70.2</ele>
        <time>2022-04-05T09:50:39Z</time>
      </trkpt>
      <trkpt lat="44.88584" lon="0.32788">
        <ele>70.3</ele>
        <time>2022-04-05T09:50:40Z</time>
      </trkpt>
      <trkpt lat="44.88583" lon="0.32787">
        <ele>70.5</ele>
        <time>2022-04-05T09:50:41Z</time>
      </trkpt>
      <trkpt lat="44.88582" lon="0.32786">
        <ele>70.6</ele>
        <time>2022-04-05T09:50:42Z</time>
      </trkpt>
      <trkpt lat="44.88581" lon="0.32786">
        <ele>70.7</ele>
        <time>2022-04-05T09:50:43Z</time>
      </trkpt>
      <trkpt lat="44.8858" lon="0.32785">
        <ele>70.9</ele>
        <time>2022-04-05T09:50:44Z</time>
      </trkpt>
      <trkpt lat="44.88579" lon="0.32784">
        <ele>71</ele>
        <time>2022-04-05T09:50:46Z</time>
      </trkpt>
      <trkpt lat="44.88578" lon="0.32783">
        <ele>71.2</ele>
        <time>2022-04-05T09:50:47Z</time>
      </trkpt>
      <trkpt lat="44.88577" lon="0.32783">
        <ele>71.3</ele>
        <time>2022-04-05T09:50:48Z</time>
      </trkpt>
      <trkpt lat="44.88576" lon="0.32782">
        <ele>71.5</ele>
        <time>2022-04-05T09:50:49Z</time>
      </trkpt>
      <trkpt lat="44.88575" lon="0.32781">
        <ele>71.6</ele>
        <time>2022-04-05T09:50:50Z</time>
      </trkpt>
      <trkpt lat="44.88574" lon="0.32779">
        <ele>71.8</ele>
        <time>2022-04-05T09:50:52Z</time>
      </trkpt>
      <trkpt lat="44.88573" lon="0.32779">
        <ele>72</ele>
        <time>2022-04-05T09:50:53Z</time>
      </trkpt>
      <trkpt lat="44.88572" lon="0.32778">
        <ele>72.1</ele>
        <time>2022-04-05T09:50:54Z</time>
      </trkpt>
      <trkpt lat="44.88571" lon="0.32777">
        <ele>72.2</ele>
        <time>2022-04-05T09:50:55Z</time>
      </trkpt>
      <trkpt lat="44.8857" lon="0.32777">
        <ele>72.4</ele>
        <time>2022-04-05T09:50:56Z</time>
      </trkpt>
      <trkpt lat="44.88569" lon="0.32776">
        <ele>72.5</ele>
        <time>2022-04-05T09:50:57Z</time>
      </trkpt>
      <trkpt lat="44.88568" lon="0.32775">
        <ele>72.7</ele>
        <time>2022-04-05T09:50:58Z</time>
      </trkpt>
      <trkpt lat="44.88567" lon="0.32775">
        <ele>72.8</ele>
        <time>2022-04-05T09:50:59Z</time>
      </trkpt>
      <trkpt lat="44.88566" lon="0.32775">
        <ele>72.9</ele>
        <time>2022-04-05T09:51:00Z</time>
      </trkpt>
      <trkpt lat="44.88565" lon="0.32774">
        <ele>73.1</ele>
        <time>2022-04-05T09:51:01Z</time>
      </trkpt>
      <trkpt lat="44.88564" lon="0.32773">
        <ele>73.3</ele>
        <time>2022-04-05T09:51:03Z</time>
      </trkpt>
      <trkpt lat="44.88563" lon="0.32772">
        <ele>73.5</ele>
        <time>2022-04-05T09:51:04Z</time>
      </trkpt>
      <trkpt lat="44.88562" lon="0.32771">
        <ele>73.6</ele>
        <time>2022-04-05T09:51:05Z</time>
      </trkpt>
      <trkpt lat="44.88561" lon="0.3277">
        <ele>73.7</ele>
        <time>2022-04-05T09:51:06Z</time>
      </trkpt>
      <trkpt lat="44.8856" lon="0.32769">
        <ele>73.9</ele>
        <time>2022-04-05T09:51:07Z</time>
      </trkpt>
      <trkpt lat="44.8856" lon="0.32768">
        <ele>74</ele>
        <time>2022-04-05T09:51:08Z</time>
      </trkpt>
      <trkpt lat="44.88558" lon="0.32766">
        <ele>74.2</ele>
        <time>2022-04-05T09:51:10Z</time>
      </trkpt>
      <trkpt lat="44.88557" lon="0.32765">
        <ele>74.4</ele>
        <time>2022-04-05T09:51:11Z</time>
      </trkpt>
      <trkpt lat="44.88556" lon="0.32764">
        <ele>74.5</ele>
        <time>2022-04-05T09:51:12Z</time>
      </trkpt>
      <trkpt lat="44.88556" lon="0.32763">
        <ele>74.7</ele>
        <time>2022-04-05T09:51:14Z</time>
      </trkpt>
      <trkpt lat="44.88554" lon="0.3276">
        <ele>75</ele>
        <time>2022-04-05T09:51:15Z</time>
      </trkpt>
      <trkpt lat="44.88553" lon="0.32759">
        <ele>75.1</ele>
        <time>2022-04-05T09:51:16Z</time>
      </trkpt>
      <trkpt lat="44.88553" lon="0.32758">
        <ele>75.2</ele>
        <time>2022-04-05T09:51:17Z</time>
      </trkpt>
      <trkpt lat="44.88552" lon="0.32757">
        <ele>75.3</ele>
        <time>2022-04-05T09:51:18Z</time>
      </trkpt>
      <trkpt lat="44.88551" lon="0.32756">
        <ele>75.5</ele>
        <time>2022-04-05T09:51:19Z</time>
      </trkpt>
      <trkpt lat="44.8855" lon="0.32755">
        <ele>75.6</ele>
        <time>2022-04-05T09:51:20Z</time>
      </trkpt>
      <trkpt lat="44.88548" lon="0.32754">
        <ele>75.9</ele>
        <time>2022-04-05T09:51:21Z</time>
      </trkpt>
      <trkpt lat="44.88547" lon="0.32754">
        <ele>76</ele>
        <time>2022-04-05T09:51:22Z</time>
      </trkpt>
      <trkpt lat="44.88546" lon="0.32753">
        <ele>76.1</ele>
        <time>2022-04-05T09:51:23Z</time>
      </trkpt>
      <trkpt lat="44.88546" lon="0.32753">
        <ele>76.2</ele>
        <time>2022-04-05T09:51:25Z</time>
      </trkpt>
      <trkpt lat="44.88545" lon="0.32752">
        <ele>76.3</ele>
        <time>2022-04-05T09:51:26Z</time>
      </trkpt>
      <trkpt lat="44.88544" lon="0.32751">
        <ele>76.5</ele>
        <time>2022-04-05T09:51:27Z</time>
      </trkpt>
      <trkpt lat="44.88543" lon="0.3275">
        <ele>76.6</ele>
        <time>2022-04-05T09:51:28Z</time>
      </trkpt>
      <trkpt lat="44.88542" lon="0.32748">
        <ele>76.8</ele>
        <time>2022-04-05T09:51:29Z</time>
      </trkpt>
      <trkpt lat="44.88541" lon="0.32748">
        <ele>76.9</ele>
        <time>2022-04-05T09:51:30Z</time>
      </trkpt>
      <trkpt lat="44.8854" lon="0.32746">
        <ele>77.1</ele>
        <time>2022-04-05T09:51:31Z</time>
      </trkpt>
      <trkpt lat="44.88539" lon="0.32746">
        <ele>77.3</ele>
        <time>2022-04-05T09:51:33Z</time>
      </trkpt>
      <trkpt lat="44.88538" lon="0.32745">
        <ele>77.4</ele>
        <time>2022-04-05T09:51:34Z</time>
      </trkpt>
      <trkpt lat="44.88537" lon="0.32745">
        <ele>77.5</ele>
        <time>2022-04-05T09:51:35Z</time>
      </trkpt>
      <trkpt lat="44.88536" lon="0.32744">
        <ele>77.6</ele>
        <time>2022-04-05T09:51:36Z</time>
      </trkpt>
      <trkpt lat="44.88536" lon="0.32744">
        <ele>77.7</ele>
        <time>2022-04-05T09:51:37Z</time>
      </trkpt>
      <trkpt lat="44.88533" lon="0.32742">
        <ele>78</ele>
        <time>2022-04-05T09:51:38Z</time>
      </trkpt>
      <trkpt lat="44.88532" lon="0.32742">
        <ele>78.1</ele>
        <time>2022-04-05T09:51:40Z</time>
      </trkpt>
      <trkpt lat="44.88531" lon="0.32741">
        <ele>78.3</ele>
        <time>2022-04-05T09:51:41Z</time>
      </trkpt>
      <trkpt lat="44.8853" lon="0.32741">
        <ele>78.4</ele>
        <time>2022-04-05T09:51:42Z</time>
      </trkpt>
      <trkpt lat="44.88529" lon="0.3274">
        <ele>78.6</ele>
        <time>2022-04-05T09:51:43Z</time>
      </trkpt>
      <trkpt lat="44.88528" lon="0.3274">
        <ele>78.8</ele>
        <time>2022-04-05T09:51:44Z</time>
      </trkpt>
      <trkpt lat="44.88527" lon="0.32739">
        <ele>78.9</ele>
        <time>2022-04-05T09:51:45Z</time>
      </trkpt>
      <trkpt lat="44.88526" lon="0.32738">
        <ele>79</ele>
        <time>2022-04-05T09:51:47Z</time>
      </trkpt>
      <trkpt lat="44.88525" lon="0.32738">
        <ele>79.1</ele>
        <time>2022-04-05T09:51:48Z</time>
      </trkpt>
      <trkpt lat="44.88524" lon="0.32738">
        <ele>79.2</ele>
        <time>2022-04-05T09:51:49Z</time>
      </trkpt>
      <trkpt lat="44.88523" lon="0.32738">
        <ele>79.3</ele>
        <time>2022-04-05T09:51:50Z</time>
      </trkpt>
      <trkpt lat="44.8852" lon="0.32737">
        <ele>79.7</ele>
        <time>2022-04-05T09:51:52Z</time>
      </trkpt>
      <trkpt lat="44.8852" lon="0.32737">
        <ele>79.7</ele>
        <time>2022-04-05T09:51:53Z</time>
      </trkpt>
      <trkpt lat="44.88519" lon="0.32736">
        <ele>79.8</ele>
        <time>2022-04-05T09:51:54Z</time>
      </trkpt>
      <trkpt lat="44.88518" lon="0.32736">
        <ele>79.9</ele>
        <time>2022-04-05T09:51:55Z</time>
      </trkpt>
      <trkpt lat="44.88517" lon="0.32736">
        <ele>80</ele>
        <time>2022-04-05T09:51:56Z</time>
      </trkpt>
      <trkpt lat="44.88515" lon="0.32735">
        <ele>80.3</ele>
        <time>2022-04-05T09:51:58Z</time>
      </trkpt>
      <trkpt lat="44.88514" lon="0.32735">
        <ele>80.4</ele>
        <time>2022-04-05T09:51:59Z</time>
      </trkpt>
      <trkpt lat="44.88514" lon="0.32734">
        <ele>80.4</ele>
        <time>2022-04-05T09:52:00Z</time>
      </trkpt>
      <trkpt lat="44.88513" lon="0.32734">
        <ele>80.6</ele>
        <time>2022-04-05T09:52:01Z</time>
      </trkpt>
      <trkpt lat="44.88512" lon="0.32733">
        <ele>80.7</ele>
        <time>2022-04-05T09:52:02Z</time>
      </trkpt>
      <trkpt lat="44.88511" lon="0.32733">
        <ele>80.8</ele>
        <time>2022-04-05T09:52:03Z</time>
      </trkpt>
      <trkpt lat="44.8851" lon="0.32732">
        <ele>80.9</ele>
        <time>2022-04-05T09:52:04Z</time>
      </trkpt>
      <trkpt lat="44.88509" lon="0.32732">
        <ele>81</ele>
        <time>2022-04-05T09:52:05Z</time>
      </trkpt>
      <trkpt lat="44.88508" lon="0.32732">
        <ele>81.1</ele>
        <time>2022-04-05T09:52:06Z</time>
      </trkpt>
      <trkpt lat="44.88507" lon="0.32731">
        <ele>81.2</ele>
        <time>2022-04-05T09:52:07Z</time>
      </trkpt>
      <trkpt lat="44.88506" lon="0.32731">
        <ele>81.3</ele>
        <time>2022-04-05T09:52:08Z</time>
      </trkpt>
      <trkpt lat="44.88505" lon="0.3273">
        <ele>81.5</ele>
        <time>2022-04-05T09:52:09Z</time>
      </trkpt>
      <trkpt lat="44.88504" lon="0.3273">
        <ele>81.6</ele>
        <time>2022-04-05T09:52:10Z</time>
      </trkpt>
      <trkpt lat="44.88503" lon="0.3273">
        <ele>81.7</ele>
        <time>2022-04-05T09:52:11Z</time>
      </trkpt>
      <trkpt lat="44.88502" lon="0.3273">
        <ele>81.8</ele>
        <time>2022-04-05T09:52:12Z</time>
      </trkpt>
      <trkpt lat="44.885" lon="0.3273">
        <ele>82</ele>
        <time>2022-04-05T09:52:14Z</time>
      </trkpt>
      <trkpt lat="44.88499" lon="0.3273">
        <ele>82.1</ele>
        <time>2022-04-05T09:52:15Z</time>
      </trkpt>
      <trkpt lat="44.88496" lon="0.32729">
        <ele>82.3</ele>
        <time>2022-04-05T09:52:16Z</time>
      </trkpt>
      <trkpt lat="44.88496" lon="0.32729">
        <ele>82.4</ele>
        <time>2022-04-05T09:52:17Z</time>
      </trkpt>
      <trkpt lat="44.88494" lon="0.32729">
        <ele>82.5</ele>
        <time>2022-04-05T09:52:18Z</time>
      </trkpt>
      <trkpt lat="44.88493" lon="0.32729">
        <ele>82.6</ele>
        <time>2022-04-05T09:52:20Z</time>
      </trkpt>
      <trkpt lat="44.88492" lon="0.32728">
        <ele>82.7</ele>
        <time>2022-04-05T09:52:21Z</time>
      </trkpt>
      <trkpt lat="44.88491" lon="0.32728">
        <ele>82.8</ele>
        <time>2022-04-05T09:52:22Z</time>
      </trkpt>
      <trkpt lat="44.8849" lon="0.32728">
        <ele>82.9</ele>
        <time>2022-04-05T09:52:23Z</time>
      </trkpt>
      <trkpt lat="44.88489" lon="0.32728">
        <ele>83</ele>
        <time>2022-04-05T09:52:24Z</time>
      </trkpt>
      <trkpt lat="44.88488" lon="0.32728">
        <ele>83.1</ele>
        <time>2022-04-05T09:52:25Z</time>
      </trkpt>
      <trkpt lat="44.88486" lon="0.32728">
        <ele>83.3</ele>
        <time>2022-04-05T09:52:26Z</time>
      </trkpt>
      <trkpt lat="44.88485" lon="0.32728">
        <ele>83.4</ele>
        <time>2022-04-05T09:52:27Z</time>
      </trkpt>
      <trkpt lat="44.88484" lon="0.32729">
        <ele>83.4</ele>
        <time>2022-04-05T09:52:29Z</time>
      </trkpt>
      <trkpt lat="44.88483" lon="0.32729">
        <ele>83.5</ele>
        <time>2022-04-05T09:52:30Z</time>
      </trkpt>
      <trkpt lat="44.88482" lon="0.32729">
        <ele>83.6</ele>
        <time>2022-04-05T09:52:31Z</time>
      </trkpt>
      <trkpt lat="44.88481" lon="0.32729">
        <ele>83.7</ele>
        <time>2022-04-05T09:52:32Z</time>
      </trkpt>
      <trkpt lat="44.8848" lon="0.3273">
        <ele>83.7</ele>
        <time>2022-04-05T09:52:33Z</time>
      </trkpt>
      <trkpt lat="44.88478" lon="0.3273">
        <ele>83.9</ele>
        <time>2022-04-05T09:52:34Z</time>
      </trkpt>
      <trkpt lat="44.88477" lon="0.3273">
        <ele>84</ele>
        <time>2022-04-05T09:52:36Z</time>
      </trkpt>
      <trkpt lat="44.88476" lon="0.32729">
        <ele>84.1</ele>
        <time>2022-04-05T09:52:37Z</time>
      </trkpt>
      <trkpt lat="44.88475" lon="0.32729">
        <ele>84.2</ele>
        <time>2022-04-05T09:52:38Z</time>
      </trkpt>
      <trkpt lat="44.88474" lon="0.32729">
        <ele>84.3</ele>
        <time>2022-04-05T09:52:39Z</time>
      </trkpt>
      <trkpt lat="44.88473" lon="0.32729">
        <ele>84.3</ele>
        <time>2022-04-05T09:52:40Z</time>
      </trkpt>
      <trkpt lat="44.88472" lon="0.32728">
        <ele>84.4</ele>
        <time>2022-04-05T09:52:41Z</time>
      </trkpt>
      <trkpt lat="44.8847" lon="0.32728">
        <ele>84.5</ele>
        <time>2022-04-05T09:52:43Z</time>
      </trkpt>
      <trkpt lat="44.88469" lon="0.32728">
        <ele>84.6</ele>
        <time>2022-04-05T09:52:44Z</time>
      </trkpt>
      <trkpt lat="44.88468" lon="0.32728">
        <ele>84.7</ele>
        <time>2022-04-05T09:52:45Z</time>
      </trkpt>
      <trkpt lat="44.88467" lon="0.32728">
        <ele>84.7</ele>
        <time>2022-04-05T09:52:46Z</time>
      </trkpt>
      <trkpt lat="44.88465" lon="0.32727">
        <ele>84.9</ele>
        <time>2022-04-05T09:52:47Z</time>
      </trkpt>
      <trkpt lat="44.88464" lon="0.32727">
        <ele>84.9</ele>
        <time>2022-04-05T09:52:48Z</time>
      </trkpt>
      <trkpt lat="44.88463" lon="0.32727">
        <ele>85</ele>
        <time>2022-04-05T09:52:49Z</time>
      </trkpt>
      <trkpt lat="44.88462" lon="0.32727">
        <ele>85</ele>
        <time>2022-04-05T09:52:51Z</time>
      </trkpt>
      <trkpt lat="44.88461" lon="0.32727">
        <ele>85.1</ele>
        <time>2022-04-05T09:52:52Z</time>
      </trkpt>
      <trkpt lat="44.8846" lon="0.32727">
        <ele>85.1</ele>
        <time>2022-04-05T09:52:53Z</time>
      </trkpt>
      <trkpt lat="44.88459" lon="0.32726">
        <ele>85.2</ele>
        <time>2022-04-05T09:52:54Z</time>
      </trkpt>
      <trkpt lat="44.88458" lon="0.32726">
        <ele>85.2</ele>
        <time>2022-04-05T09:52:55Z</time>
      </trkpt>
      <trkpt lat="44.88457" lon="0.32725">
        <ele>85.3</ele>
        <time>2022-04-05T09:52:56Z</time>
      </trkpt>
      <trkpt lat="44.88455" lon="0.32723">
        <ele>85.4</ele>
        <time>2022-04-05T09:52:57Z</time>
      </trkpt>
      <trkpt lat="44.88454" lon="0.32722">
        <ele>85.4</ele>
        <time>2022-04-05T09:52:59Z</time>
      </trkpt>
      <trkpt lat="44.88453" lon="0.32722">
        <ele>85.5</ele>
        <time>2022-04-05T09:53:00Z</time>
      </trkpt>
      <trkpt lat="44.88452" lon="0.32721">
        <ele>85.5</ele>
        <time>2022-04-05T09:53:01Z</time>
      </trkpt>
      <trkpt lat="44.88451" lon="0.3272">
        <ele>85.6</ele>
        <time>2022-04-05T09:53:02Z</time>
      </trkpt>
      <trkpt lat="44.8845" lon="0.32719">
        <ele>85.6</ele>
        <time>2022-04-05T09:53:04Z</time>
      </trkpt>
      <trkpt lat="44.88448" lon="0.32719">
        <ele>85.7</ele>
        <time>2022-04-05T09:53:05Z</time>
      </trkpt>
      <trkpt lat="44.88446" lon="0.32719">
        <ele>85.7</ele>
        <time>2022-04-05T09:53:06Z</time>
      </trkpt>
      <trkpt lat="44.88445" lon="0.32718">
        <ele>85.7</ele>
        <time>2022-04-05T09:53:07Z</time>
      </trkpt>
      <trkpt lat="44.88444" lon="0.32718">
        <ele>85.7</ele>
        <time>2022-04-05T09:53:08Z</time>
      </trkpt>
      <trkpt lat="44.88443" lon="0.32718">
        <ele>85.8</ele>
        <time>2022-04-05T09:53:09Z</time>
      </trkpt>
      <trkpt lat="44.88442" lon="0.32717">
        <ele>85.8</ele>
        <time>2022-04-05T09:53:11Z</time>
      </trkpt>
      <trkpt lat="44.88441" lon="0.32717">
        <ele>85.8</ele>
        <time>2022-04-05T09:53:12Z</time>
      </trkpt>
      <trkpt lat="44.88439" lon="0.32716">
        <ele>85.8</ele>
        <time>2022-04-05T09:53:13Z</time>
      </trkpt>
      <trkpt lat="44.88438" lon="0.32716">
        <ele>85.8</ele>
        <time>2022-04-05T09:53:14Z</time>
      </trkpt>
      <trkpt lat="44.88438" lon="0.32715">
        <ele>85.8</ele>
        <time>2022-04-05T09:53:15Z</time>
      </trkpt>
      <trkpt lat="44.88437" lon="0.32715">
        <ele>85.8</ele>
        <time>2022-04-05T09:53:16Z</time>
      </trkpt>
      <trkpt lat="44.88437" lon="0.32715">
        <ele>85.8</ele>
        <time>2022-04-05T09:53:17Z</time>
      </trkpt>
      <trkpt lat="44.88436" lon="0.32714">
        <ele>85.8</ele>
        <time>2022-04-05T09:53:18Z</time>
      </trkpt>
      <trkpt lat="44.88436" lon="0.32713">
        <ele>85.8</ele>
        <time>2022-04-05T09:53:19Z</time>
      </trkpt>
      <trkpt lat="44.88435" lon="0.32712">
        <ele>85.8</ele>
        <time>2022-04-05T09:53:21Z</time>
      </trkpt>
      <trkpt lat="44.88434" lon="0.32711">
        <ele>85.8</ele>
        <time>2022-04-05T09:53:22Z</time>
      </trkpt>
      <trkpt lat="44.88433" lon="0.32711">
        <ele>85.8</ele>
        <time>2022-04-05T09:53:23Z</time>
      </trkpt>
      <trkpt lat="44.88431" lon="0.32711">
        <ele>85.8</ele>
        <time>2022-04-05T09:53:24Z</time>
      </trkpt>
      <trkpt lat="44.8843" lon="0.32711">
        <ele>85.8</ele>
        <time>2022-04-05T09:53:25Z</time>
      </trkpt>
      <trkpt lat="44.88428" lon="0.3271">
        <ele>85.8</ele>
        <time>2022-04-05T09:53:27Z</time>
      </trkpt>
      <trkpt lat="44.88427" lon="0.32709">
        <ele>85.8</ele>
        <time>2022-04-05T09:53:28Z</time>
      </trkpt>
      <trkpt lat="44.88425" lon="0.32708">
        <ele>85.7</ele>
        <time>2022-04-05T09:53:29Z</time>
      </trkpt>
      <trkpt lat="44.88424" lon="0.32708">
        <ele>85.7</ele>
        <time>2022-04-05T09:53:30Z</time>
      </trkpt>
      <trkpt lat="44.88422" lon="0.32706">
        <ele>85.7</ele>
        <time>2022-04-05T09:53:31Z</time>
      </trkpt>
      <trkpt lat="44.88421" lon="0.32705">
        <ele>85.7</ele>
        <time>2022-04-05T09:53:32Z</time>
      </trkpt>
      <trkpt lat="44.8842" lon="0.32705">
        <ele>85.7</ele>
        <time>2022-04-05T09:53:33Z</time>
      </trkpt>
      <trkpt lat="44.88418" lon="0.32704">
        <ele>85.6</ele>
        <time>2022-04-05T09:53:35Z</time>
      </trkpt>
      <trkpt lat="44.88417" lon="0.32704">
        <ele>85.6</ele>
        <time>2022-04-05T09:53:36Z</time>
      </trkpt>
      <trkpt lat="44.88416" lon="0.32703">
        <ele>85.6</ele>
        <time>2022-04-05T09:53:37Z</time>
      </trkpt>
      <trkpt lat="44.88415" lon="0.32701">
        <ele>85.6</ele>
        <time>2022-04-05T09:53:39Z</time>
      </trkpt>
      <trkpt lat="44.88415" lon="0.327">
        <ele>85.6</ele>
        <time>2022-04-05T09:53:40Z</time>
      </trkpt>
      <trkpt lat="44.88415" lon="0.327">
        <ele>85.6</ele>
        <time>2022-04-05T09:53:41Z</time>
      </trkpt>
      <trkpt lat="44.88415" lon="0.327">
        <ele>85.6</ele>
        <time>2022-04-05T09:53:42Z</time>
      </trkpt>
      <trkpt lat="44.88415" lon="0.327">
        <ele>85.6</ele>
        <time>2022-04-05T09:53:43Z</time>
      </trkpt>
      <trkpt lat="44.88415" lon="0.327">
        <ele>85.6</ele>
        <time>2022-04-05T09:53:44Z</time>
      </trkpt>
      <trkpt lat="44.88415" lon="0.327">
        <ele>85.6</ele>
        <time>2022-04-05T09:53:45Z</time>
      </trkpt>
      <trkpt lat="44.88415" lon="0.327">
        <ele>85.6</ele>
        <time>2022-04-05T09:53:46Z</time>
      </trkpt>
      <trkpt lat="44.88415" lon="0.327">
        <ele>85.5</ele>
        <time>2022-04-05T09:53:47Z</time>
      </trkpt>
      <trkpt lat="44.88414" lon="0.32699">
        <ele>85.5</ele>
        <time>2022-04-05T09:53:48Z</time>
      </trkpt>
      <trkpt lat="44.88413" lon="0.32698">
        <ele>85.5</ele>
        <time>2022-04-05T09:53:50Z</time>
      </trkpt>
      <trkpt lat="44.88412" lon="0.32696">
        <ele>85.5</ele>
        <time>2022-04-05T09:53:51Z</time>
      </trkpt>
      <trkpt lat="44.88411" lon="0.32696">
        <ele>85.5</ele>
        <time>2022-04-05T09:53:52Z</time>
      </trkpt>
      <trkpt lat="44.88409" lon="0.32694">
        <ele>85.5</ele>
        <time>2022-04-05T09:53:54Z</time>
      </trkpt>
      <trkpt lat="44.88408" lon="0.32693">
        <ele>85.5</ele>
        <time>2022-04-05T09:53:55Z</time>
      </trkpt>
      <trkpt lat="44.88408" lon="0.32692">
        <ele>85.5</ele>
        <time>2022-04-05T09:53:56Z</time>
      </trkpt>
      <trkpt lat="44.88407" lon="0.32692">
        <ele>85.5</ele>
        <time>2022-04-05T09:53:57Z</time>
      </trkpt>
      <trkpt lat="44.88406" lon="0.32691">
        <ele>85.6</ele>
        <time>2022-04-05T09:53:58Z</time>
      </trkpt>
      <trkpt lat="44.88405" lon="0.3269">
        <ele>85.6</ele>
        <time>2022-04-05T09:54:00Z</time>
      </trkpt>
      <trkpt lat="44.88404" lon="0.3269">
        <ele>85.6</ele>
        <time>2022-04-05T09:54:01Z</time>
      </trkpt>
      <trkpt lat="44.88404" lon="0.32689">
        <ele>85.6</ele>
        <time>2022-04-05T09:54:02Z</time>
      </trkpt>
      <trkpt lat="44.88403" lon="0.32688">
        <ele>85.7</ele>
        <time>2022-04-05T09:54:03Z</time>
      </trkpt>
      <trkpt lat="44.88403" lon="0.32686">
        <ele>85.7</ele>
        <time>2022-04-05T09:54:04Z</time>
      </trkpt>
      <trkpt lat="44.88403" lon="0.32683">
        <ele>85.7</ele>
        <time>2022-04-05T09:54:06Z</time>
      </trkpt>
      <trkpt lat="44.88404" lon="0.32681">
        <ele>85.8</ele>
        <time>2022-04-05T09:54:07Z</time>
      </trkpt>
      <trkpt lat="44.88405" lon="0.32679">
        <ele>85.8</ele>
        <time>2022-04-05T09:54:08Z</time>
      </trkpt>
      <trkpt lat="44.88405" lon="0.32677">
        <ele>85.9</ele>
        <time>2022-04-05T09:54:09Z</time>
      </trkpt>
      <trkpt lat="44.88406" lon="0.32676">
        <ele>85.9</ele>
        <time>2022-04-05T09:54:10Z</time>
      </trkpt>
      <trkpt lat="44.88406" lon="0.32673">
        <ele>85.9</ele>
        <time>2022-04-05T09:54:11Z</time>
      </trkpt>
      <trkpt lat="44.88407" lon="0.32672">
        <ele>86</ele>
        <time>2022-04-05T09:54:12Z</time>
      </trkpt>
      <trkpt lat="44.88407" lon="0.32671">
        <ele>86</ele>
        <time>2022-04-05T09:54:13Z</time>
      </trkpt>
      <trkpt lat="44.88408" lon="0.32668">
        <ele>86</ele>
        <time>2022-04-05T09:54:14Z</time>
      </trkpt>
      <trkpt lat="44.88408" lon="0.32667">
        <ele>86.1</ele>
        <time>2022-04-05T09:54:15Z</time>
      </trkpt>
      <trkpt lat="44.88408" lon="0.32666">
        <ele>86.1</ele>
        <time>2022-04-05T09:54:16Z</time>
      </trkpt>
      <trkpt lat="44.88409" lon="0.32663">
        <ele>86.1</ele>
        <time>2022-04-05T09:54:18Z</time>
      </trkpt>
      <trkpt lat="44.8841" lon="0.32662">
        <ele>86.2</ele>
        <time>2022-04-05T09:54:19Z</time>
      </trkpt>
      <trkpt lat="44.8841" lon="0.32661">
        <ele>86.2</ele>
        <time>2022-04-05T09:54:20Z</time>
      </trkpt>
      <trkpt lat="44.8841" lon="0.3266">
        <ele>86.2</ele>
        <time>2022-04-05T09:54:21Z</time>
      </trkpt>
      <trkpt lat="44.88411" lon="0.32659">
        <ele>86.2</ele>
        <time>2022-04-05T09:54:22Z</time>
      </trkpt>
      <trkpt lat="44.88411" lon="0.32657">
        <ele>86.3</ele>
        <time>2022-04-05T09:54:23Z</time>
      </trkpt>
      <trkpt lat="44.88412" lon="0.32654">
        <ele>86.3</ele>
        <time>2022-04-05T09:54:24Z</time>
      </trkpt>
      <trkpt lat="44.88412" lon="0.32653">
        <ele>86.3</ele>
        <time>2022-04-05T09:54:25Z</time>
      </trkpt>
      <trkpt lat="44.88412" lon="0.32652">
        <ele>86.4</ele>
        <time>2022-04-05T09:54:26Z</time>
      </trkpt>
      <trkpt lat="44.88413" lon="0.32651">
        <ele>86.4</ele>
        <time>2022-04-05T09:54:27Z</time>
      </trkpt>
      <trkpt lat="44.88413" lon="0.32649">
        <ele>86.4</ele>
        <time>2022-04-05T09:54:28Z</time>
      </trkpt>
      <trkpt lat="44.88413" lon="0.32646">
        <ele>86.5</ele>
        <time>2022-04-05T09:54:29Z</time>
      </trkpt>
      <trkpt lat="44.88413" lon="0.32645">
        <ele>86.6</ele>
        <time>2022-04-05T09:54:31Z</time>
      </trkpt>
      <trkpt lat="44.88412" lon="0.32644">
        <ele>86.6</ele>
        <time>2022-04-05T09:54:32Z</time>
      </trkpt>
      <trkpt lat="44.88412" lon="0.32643">
        <ele>86.7</ele>
        <time>2022-04-05T09:54:33Z</time>
      </trkpt>
      <trkpt lat="44.88411" lon="0.32644">
        <ele>86.7</ele>
        <time>2022-04-05T09:54:35Z</time>
      </trkpt>
      <trkpt lat="44.88411" lon="0.32644">
        <ele>86.7</ele>
        <time>2022-04-05T09:54:36Z</time>
      </trkpt>
      <trkpt lat="44.88411" lon="0.32644">
        <ele>86.7</ele>
        <time>2022-04-05T09:54:37Z</time>
      </trkpt>
      <trkpt lat="44.88411" lon="0.32645">
        <ele>86.7</ele>
        <time>2022-04-05T09:54:38Z</time>
      </trkpt>
      <trkpt lat="44.88411" lon="0.32645">
        <ele>86.7</ele>
        <time>2022-04-05T09:54:40Z</time>
      </trkpt>
      <trkpt lat="44.88411" lon="0.32644">
        <ele>86.8</ele>
        <time>2022-04-05T09:54:41Z</time>
      </trkpt>
      <trkpt lat="44.88411" lon="0.32643">
        <ele>86.8</ele>
        <time>2022-04-05T09:54:42Z</time>
      </trkpt>
      <trkpt lat="44.88412" lon="0.32641">
        <ele>86.9</ele>
        <time>2022-04-05T09:54:43Z</time>
      </trkpt>
      <trkpt lat="44.88414" lon="0.32639">
        <ele>87</ele>
        <time>2022-04-05T09:54:45Z</time>
      </trkpt>
      <trkpt lat="44.88415" lon="0.32636">
        <ele>87.1</ele>
        <time>2022-04-05T09:54:46Z</time>
      </trkpt>
      <trkpt lat="44.88415" lon="0.32634">
        <ele>87.1</ele>
        <time>2022-04-05T09:54:47Z</time>
      </trkpt>
      <trkpt lat="44.88415" lon="0.32633">
        <ele>87.2</ele>
        <time>2022-04-05T09:54:48Z</time>
      </trkpt>
      <trkpt lat="44.88416" lon="0.3263">
        <ele>87.3</ele>
        <time>2022-04-05T09:54:49Z</time>
      </trkpt>
      <trkpt lat="44.88416" lon="0.32629">
        <ele>87.3</ele>
        <time>2022-04-05T09:54:50Z</time>
      </trkpt>
      <trkpt lat="44.88417" lon="0.32626">
        <ele>87.4</ele>
        <time>2022-04-05T09:54:51Z</time>
      </trkpt>
      <trkpt lat="44.88417" lon="0.32625">
        <ele>87.4</ele>
        <time>2022-04-05T09:54:52Z</time>
      </trkpt>
      <trkpt lat="44.88417" lon="0.32624">
        <ele>87.4</ele>
        <time>2022-04-05T09:54:53Z</time>
      </trkpt>
      <trkpt lat="44.88417" lon="0.32622">
        <ele>87.5</ele>
        <time>2022-04-05T09:54:55Z</time>
      </trkpt>
      <trkpt lat="44.88418" lon="0.3262">
        <ele>87.5</ele>
        <time>2022-04-05T09:54:56Z</time>
      </trkpt>
      <trkpt lat="44.88419" lon="0.32617">
        <ele>87.6</ele>
        <time>2022-04-05T09:54:57Z</time>
      </trkpt>
      <trkpt lat="44.88419" lon="0.32616">
        <ele>87.6</ele>
        <time>2022-04-05T09:54:59Z</time>
      </trkpt>
      <trkpt lat="44.8842" lon="0.32615">
        <ele>87.7</ele>
        <time>2022-04-05T09:55:00Z</time>
      </trkpt>
      <trkpt lat="44.8842" lon="0.32613">
        <ele>87.7</ele>
        <time>2022-04-05T09:55:01Z</time>
      </trkpt>
      <trkpt lat="44.8842" lon="0.32612">
        <ele>87.8</ele>
        <time>2022-04-05T09:55:02Z</time>
      </trkpt>
      <trkpt lat="44.88421" lon="0.3261">
        <ele>87.8</ele>
        <time>2022-04-05T09:55:03Z</time>
      </trkpt>
      <trkpt lat="44.88422" lon="0.32609">
        <ele>87.8</ele>
        <time>2022-04-05T09:55:04Z</time>
      </trkpt>
      <trkpt lat="44.88422" lon="0.32607">
        <ele>87.9</ele>
        <time>2022-04-05T09:55:05Z</time>
      </trkpt>
      <trkpt lat="44.88423" lon="0.32606">
        <ele>87.9</ele>
        <time>2022-04-05T09:55:07Z</time>
      </trkpt>
      <trkpt lat="44.88424" lon="0.32604">
        <ele>88</ele>
        <time>2022-04-05T09:55:08Z</time>
      </trkpt>
      <trkpt lat="44.88424" lon="0.32603">
        <ele>88</ele>
        <time>2022-04-05T09:55:09Z</time>
      </trkpt>
      <trkpt lat="44.88424" lon="0.32601">
        <ele>88.1</ele>
        <time>2022-04-05T09:55:10Z</time>
      </trkpt>
      <trkpt lat="44.88424" lon="0.32599">
        <ele>88.1</ele>
        <time>2022-04-05T09:55:11Z</time>
      </trkpt>
      <trkpt lat="44.88424" lon="0.32596">
        <ele>88.2</ele>
        <time>2022-04-05T09:55:12Z</time>
      </trkpt>
      <trkpt lat="44.88425" lon="0.32593">
        <ele>88.3</ele>
        <time>2022-04-05T09:55:13Z</time>
      </trkpt>
      <trkpt lat="44.88425" lon="0.32591">
        <ele>88.3</ele>
        <time>2022-04-05T09:55:15Z</time>
      </trkpt>
      <trkpt lat="44.88425" lon="0.3259">
        <ele>88.3</ele>
        <time>2022-04-05T09:55:16Z</time>
      </trkpt>
      <trkpt lat="44.88425" lon="0.32588">
        <ele>88.4</ele>
        <time>2022-04-05T09:55:17Z</time>
      </trkpt>
      <trkpt lat="44.88425" lon="0.32586">
        <ele>88.4</ele>
        <time>2022-04-05T09:55:18Z</time>
      </trkpt>
      <trkpt lat="44.88425" lon="0.32584">
        <ele>88.5</ele>
        <time>2022-04-05T09:55:19Z</time>
      </trkpt>
      <trkpt lat="44.88425" lon="0.32583">
        <ele>88.5</ele>
        <time>2022-04-05T09:55:20Z</time>
      </trkpt>
      <trkpt lat="44.88426" lon="0.32581">
        <ele>88.5</ele>
        <time>2022-04-05T09:55:21Z</time>
      </trkpt>
      <trkpt lat="44.88427" lon="0.32579">
        <ele>88.6</ele>
        <time>2022-04-05T09:55:22Z</time>
      </trkpt>
      <trkpt lat="44.88428" lon="0.32578">
        <ele>88.6</ele>
        <time>2022-04-05T09:55:23Z</time>
      </trkpt>
      <trkpt lat="44.88428" lon="0.32576">
        <ele>88.7</ele>
        <time>2022-04-05T09:55:24Z</time>
      </trkpt>
      <trkpt lat="44.88429" lon="0.32574">
        <ele>88.7</ele>
        <time>2022-04-05T09:55:25Z</time>
      </trkpt>
      <trkpt lat="44.8843" lon="0.32571">
        <ele>88.8</ele>
        <time>2022-04-05T09:55:26Z</time>
      </trkpt>
      <trkpt lat="44.88431" lon="0.3257">
        <ele>88.8</ele>
        <time>2022-04-05T09:55:27Z</time>
      </trkpt>
      <trkpt lat="44.88431" lon="0.32569">
        <ele>88.8</ele>
        <time>2022-04-05T09:55:28Z</time>
      </trkpt>
      <trkpt lat="44.88432" lon="0.32566">
        <ele>88.8</ele>
        <time>2022-04-05T09:55:29Z</time>
      </trkpt>
      <trkpt lat="44.88433" lon="0.32564">
        <ele>88.9</ele>
        <time>2022-04-05T09:55:31Z</time>
      </trkpt>
      <trkpt lat="44.88433" lon="0.32563">
        <ele>88.9</ele>
        <time>2022-04-05T09:55:32Z</time>
      </trkpt>
      <trkpt lat="44.88434" lon="0.32561">
        <ele>88.9</ele>
        <time>2022-04-05T09:55:33Z</time>
      </trkpt>
      <trkpt lat="44.88434" lon="0.32559">
        <ele>88.9</ele>
        <time>2022-04-05T09:55:34Z</time>
      </trkpt>
      <trkpt lat="44.88435" lon="0.32556">
        <ele>89</ele>
        <time>2022-04-05T09:55:35Z</time>
      </trkpt>
      <trkpt lat="44.88435" lon="0.32555">
        <ele>89</ele>
        <time>2022-04-05T09:55:36Z</time>
      </trkpt>
      <trkpt lat="44.88436" lon="0.32554">
        <ele>89</ele>
        <time>2022-04-05T09:55:37Z</time>
      </trkpt>
      <trkpt lat="44.88437" lon="0.32552">
        <ele>89</ele>
        <time>2022-04-05T09:55:38Z</time>
      </trkpt>
      <trkpt lat="44.88437" lon="0.32551">
        <ele>89</ele>
        <time>2022-04-05T09:55:39Z</time>
      </trkpt>
      <trkpt lat="44.88438" lon="0.32549">
        <ele>89</ele>
        <time>2022-04-05T09:55:40Z</time>
      </trkpt>
      <trkpt lat="44.88438" lon="0.32548">
        <ele>89</ele>
        <time>2022-04-05T09:55:41Z</time>
      </trkpt>
      <trkpt lat="44.88439" lon="0.32545">
        <ele>89</ele>
        <time>2022-04-05T09:55:42Z</time>
      </trkpt>
      <trkpt lat="44.8844" lon="0.32542">
        <ele>89.1</ele>
        <time>2022-04-05T09:55:43Z</time>
      </trkpt>
      <trkpt lat="44.8844" lon="0.32541">
        <ele>89.1</ele>
        <time>2022-04-05T09:55:44Z</time>
      </trkpt>
      <trkpt lat="44.88441" lon="0.3254">
        <ele>89.1</ele>
        <time>2022-04-05T09:55:45Z</time>
      </trkpt>
      <trkpt lat="44.88441" lon="0.32537">
        <ele>89.1</ele>
        <time>2022-04-05T09:55:46Z</time>
      </trkpt>
      <trkpt lat="44.88441" lon="0.32536">
        <ele>89.1</ele>
        <time>2022-04-05T09:55:47Z</time>
      </trkpt>
      <trkpt lat="44.88442" lon="0.32534">
        <ele>89.1</ele>
        <time>2022-04-05T09:55:48Z</time>
      </trkpt>
      <trkpt lat="44.88443" lon="0.32532">
        <ele>89.1</ele>
        <time>2022-04-05T09:55:49Z</time>
      </trkpt>
      <trkpt lat="44.88443" lon="0.3253">
        <ele>89.1</ele>
        <time>2022-04-05T09:55:50Z</time>
      </trkpt>
      <trkpt lat="44.88444" lon="0.32529">
        <ele>89.1</ele>
        <time>2022-04-05T09:55:51Z</time>
      </trkpt>
      <trkpt lat="44.88444" lon="0.32527">
        <ele>89.1</ele>
        <time>2022-04-05T09:55:52Z</time>
      </trkpt>
      <trkpt lat="44.88444" lon="0.32525">
        <ele>89.1</ele>
        <time>2022-04-05T09:55:53Z</time>
      </trkpt>
      <trkpt lat="44.88445" lon="0.32521">
        <ele>89.2</ele>
        <time>2022-04-05T09:55:54Z</time>
      </trkpt>
      <trkpt lat="44.88446" lon="0.3252">
        <ele>89.2</ele>
        <time>2022-04-05T09:55:56Z</time>
      </trkpt>
      <trkpt lat="44.88446" lon="0.32519">
        <ele>89.2</ele>
        <time>2022-04-05T09:55:57Z</time>
      </trkpt>
      <trkpt lat="44.88446" lon="0.32518">
        <ele>89.2</ele>
        <time>2022-04-05T09:55:58Z</time>
      </trkpt>
      <trkpt lat="44.88447" lon="0.32517">
        <ele>89.2</ele>
        <time>2022-04-05T09:55:59Z</time>
      </trkpt>
      <trkpt lat="44.88448" lon="0.32515">
        <ele>89.2</ele>
        <time>2022-04-05T09:56:00Z</time>
      </trkpt>
      <trkpt lat="44.88448" lon="0.32513">
        <ele>89.2</ele>
        <time>2022-04-05T09:56:01Z</time>
      </trkpt>
      <trkpt lat="44.8845" lon="0.3251">
        <ele>89.2</ele>
        <time>2022-04-05T09:56:03Z</time>
      </trkpt>
      <trkpt lat="44.8845" lon="0.32509">
        <ele>89.2</ele>
        <time>2022-04-05T09:56:04Z</time>
      </trkpt>
      <trkpt lat="44.88451" lon="0.32508">
        <ele>89.2</ele>
        <time>2022-04-05T09:56:05Z</time>
      </trkpt>
      <trkpt lat="44.88451" lon="0.32506">
        <ele>89.2</ele>
        <time>2022-04-05T09:56:06Z</time>
      </trkpt>
      <trkpt lat="44.88452" lon="0.32505">
        <ele>89.2</ele>
        <time>2022-04-05T09:56:07Z</time>
      </trkpt>
      <trkpt lat="44.88453" lon="0.32503">
        <ele>89.3</ele>
        <time>2022-04-05T09:56:09Z</time>
      </trkpt>
      <trkpt lat="44.88454" lon="0.32501">
        <ele>89.3</ele>
        <time>2022-04-05T09:56:10Z</time>
      </trkpt>
      <trkpt lat="44.88454" lon="0.32499">
        <ele>89.3</ele>
        <time>2022-04-05T09:56:11Z</time>
      </trkpt>
      <trkpt lat="44.88455" lon="0.32497">
        <ele>89.3</ele>
        <time>2022-04-05T09:56:12Z</time>
      </trkpt>
      <trkpt lat="44.88455" lon="0.32496">
        <ele>89.3</ele>
        <time>2022-04-05T09:56:13Z</time>
      </trkpt>
      <trkpt lat="44.88455" lon="0.32495">
        <ele>89.3</ele>
        <time>2022-04-05T09:56:14Z</time>
      </trkpt>
      <trkpt lat="44.88456" lon="0.32492">
        <ele>89.4</ele>
        <time>2022-04-05T09:56:15Z</time>
      </trkpt>
      <trkpt lat="44.88456" lon="0.32491">
        <ele>89.4</ele>
        <time>2022-04-05T09:56:16Z</time>
      </trkpt>
      <trkpt lat="44.88457" lon="0.32489">
        <ele>89.4</ele>
        <time>2022-04-05T09:56:17Z</time>
      </trkpt>
      <trkpt lat="44.88457" lon="0.32487">
        <ele>89.4</ele>
        <time>2022-04-05T09:56:18Z</time>
      </trkpt>
      <trkpt lat="44.88458" lon="0.32485">
        <ele>89.4</ele>
        <time>2022-04-05T09:56:20Z</time>
      </trkpt>
      <trkpt lat="44.88459" lon="0.32483">
        <ele>89.4</ele>
        <time>2022-04-05T09:56:21Z</time>
      </trkpt>
      <trkpt lat="44.88459" lon="0.32481">
        <ele>89.5</ele>
        <time>2022-04-05T09:56:22Z</time>
      </trkpt>
      <trkpt lat="44.8846" lon="0.32479">
        <ele>89.5</ele>
        <time>2022-04-05T09:56:23Z</time>
      </trkpt>
      <trkpt lat="44.8846" lon="0.32477">
        <ele>89.5</ele>
        <time>2022-04-05T09:56:24Z</time>
      </trkpt>
      <trkpt lat="44.88461" lon="0.32474">
        <ele>89.6</ele>
        <time>2022-04-05T09:56:25Z</time>
      </trkpt>
      <trkpt lat="44.88461" lon="0.32474">
        <ele>89.6</ele>
        <time>2022-04-05T09:56:26Z</time>
      </trkpt>
      <trkpt lat="44.88462" lon="0.32472">
        <ele>89.6</ele>
        <time>2022-04-05T09:56:27Z</time>
      </trkpt>
      <trkpt lat="44.88462" lon="0.3247">
        <ele>89.6</ele>
        <time>2022-04-05T09:56:28Z</time>
      </trkpt>
      <trkpt lat="44.88463" lon="0.32469">
        <ele>89.6</ele>
        <time>2022-04-05T09:56:29Z</time>
      </trkpt>
      <trkpt lat="44.88464" lon="0.32467">
        <ele>89.7</ele>
        <time>2022-04-05T09:56:30Z</time>
      </trkpt>
      <trkpt lat="44.88464" lon="0.32466">
        <ele>89.7</ele>
        <time>2022-04-05T09:56:31Z</time>
      </trkpt>
      <trkpt lat="44.88465" lon="0.32463">
        <ele>89.7</ele>
        <time>2022-04-05T09:56:32Z</time>
      </trkpt>
      <trkpt lat="44.88465" lon="0.32462">
        <ele>89.7</ele>
        <time>2022-04-05T09:56:33Z</time>
      </trkpt>
      <trkpt lat="44.88466" lon="0.32461">
        <ele>89.8</ele>
        <time>2022-04-05T09:56:34Z</time>
      </trkpt>
      <trkpt lat="44.88466" lon="0.32458">
        <ele>89.8</ele>
        <time>2022-04-05T09:56:36Z</time>
      </trkpt>
      <trkpt lat="44.88467" lon="0.32457">
        <ele>89.8</ele>
        <time>2022-04-05T09:56:37Z</time>
      </trkpt>
      <trkpt lat="44.88467" lon="0.32455">
        <ele>89.9</ele>
        <time>2022-04-05T09:56:38Z</time>
      </trkpt>
      <trkpt lat="44.88468" lon="0.32453">
        <ele>89.9</ele>
        <time>2022-04-05T09:56:39Z</time>
      </trkpt>
      <trkpt lat="44.88469" lon="0.32449">
        <ele>90</ele>
        <time>2022-04-05T09:56:40Z</time>
      </trkpt>
      <trkpt lat="44.88469" lon="0.32448">
        <ele>90</ele>
        <time>2022-04-05T09:56:41Z</time>
      </trkpt>
      <trkpt lat="44.88469" lon="0.32447">
        <ele>90</ele>
        <time>2022-04-05T09:56:42Z</time>
      </trkpt>
      <trkpt lat="44.8847" lon="0.32444">
        <ele>90.1</ele>
        <time>2022-04-05T09:56:43Z</time>
      </trkpt>
      <trkpt lat="44.8847" lon="0.32443">
        <ele>90.1</ele>
        <time>2022-04-05T09:56:44Z</time>
      </trkpt>
      <trkpt lat="44.88471" lon="0.32442">
        <ele>90.2</ele>
        <time>2022-04-05T09:56:45Z</time>
      </trkpt>
      <trkpt lat="44.88471" lon="0.3244">
        <ele>90.2</ele>
        <time>2022-04-05T09:56:46Z</time>
      </trkpt>
      <trkpt lat="44.88472" lon="0.32438">
        <ele>90.2</ele>
        <time>2022-04-05T09:56:47Z</time>
      </trkpt>
      <trkpt lat="44.88473" lon="0.32436">
        <ele>90.3</ele>
        <time>2022-04-05T09:56:48Z</time>
      </trkpt>
      <trkpt lat="44.88473" lon="0.32435">
        <ele>90.3</ele>
        <time>2022-04-05T09:56:50Z</time>
      </trkpt>
      <trkpt lat="44.88474" lon="0.32433">
        <ele>90.4</ele>
        <time>2022-04-05T09:56:51Z</time>
      </trkpt>
      <trkpt lat="44.88474" lon="0.32431">
        <ele>90.4</ele>
        <time>2022-04-05T09:56:52Z</time>
      </trkpt>
      <trkpt lat="44.88475" lon="0.32429">
        <ele>90.5</ele>
        <time>2022-04-05T09:56:53Z</time>
      </trkpt>
      <trkpt lat="44.88475" lon="0.32427">
        <ele>90.5</ele>
        <time>2022-04-05T09:56:54Z</time>
      </trkpt>
      <trkpt lat="44.88476" lon="0.32425">
        <ele>90.6</ele>
        <time>2022-04-05T09:56:55Z</time>
      </trkpt>
      <trkpt lat="44.88476" lon="0.32424">
        <ele>90.6</ele>
        <time>2022-04-05T09:56:56Z</time>
      </trkpt>
      <trkpt lat="44.88477" lon="0.32422">
        <ele>90.7</ele>
        <time>2022-04-05T09:56:58Z</time>
      </trkpt>
      <trkpt lat="44.88477" lon="0.3242">
        <ele>90.7</ele>
        <time>2022-04-05T09:56:59Z</time>
      </trkpt>
      <trkpt lat="44.88478" lon="0.32418">
        <ele>90.8</ele>
        <time>2022-04-05T09:57:00Z</time>
      </trkpt>
      <trkpt lat="44.88479" lon="0.32417">
        <ele>90.8</ele>
        <time>2022-04-05T09:57:01Z</time>
      </trkpt>
      <trkpt lat="44.88479" lon="0.32415">
        <ele>90.9</ele>
        <time>2022-04-05T09:57:02Z</time>
      </trkpt>
      <trkpt lat="44.8848" lon="0.32414">
        <ele>90.9</ele>
        <time>2022-04-05T09:57:03Z</time>
      </trkpt>
      <trkpt lat="44.8848" lon="0.32413">
        <ele>90.9</ele>
        <time>2022-04-05T09:57:04Z</time>
      </trkpt>
      <trkpt lat="44.88481" lon="0.3241">
        <ele>91</ele>
        <time>2022-04-05T09:57:05Z</time>
      </trkpt>
      <trkpt lat="44.88481" lon="0.32409">
        <ele>91</ele>
        <time>2022-04-05T09:57:06Z</time>
      </trkpt>
      <trkpt lat="44.88482" lon="0.32407">
        <ele>91.1</ele>
        <time>2022-04-05T09:57:07Z</time>
      </trkpt>
      <trkpt lat="44.88483" lon="0.32405">
        <ele>91.1</ele>
        <time>2022-04-05T09:57:09Z</time>
      </trkpt>
      <trkpt lat="44.88484" lon="0.32402">
        <ele>91.2</ele>
        <time>2022-04-05T09:57:10Z</time>
      </trkpt>
      <trkpt lat="44.88484" lon="0.32401">
        <ele>91.2</ele>
        <time>2022-04-05T09:57:11Z</time>
      </trkpt>
      <trkpt lat="44.88484" lon="0.324">
        <ele>91.3</ele>
        <time>2022-04-05T09:57:12Z</time>
      </trkpt>
      <trkpt lat="44.88485" lon="0.32398">
        <ele>91.3</ele>
        <time>2022-04-05T09:57:13Z</time>
      </trkpt>
      <trkpt lat="44.88486" lon="0.32396">
        <ele>91.4</ele>
        <time>2022-04-05T09:57:14Z</time>
      </trkpt>
      <trkpt lat="44.88486" lon="0.32394">
        <ele>91.5</ele>
        <time>2022-04-05T09:57:15Z</time>
      </trkpt>
      <trkpt lat="44.88487" lon="0.32391">
        <ele>91.5</ele>
        <time>2022-04-05T09:57:16Z</time>
      </trkpt>
      <trkpt lat="44.88487" lon="0.3239">
        <ele>91.5</ele>
        <time>2022-04-05T09:57:17Z</time>
      </trkpt>
      <trkpt lat="44.88488" lon="0.32389">
        <ele>91.6</ele>
        <time>2022-04-05T09:57:18Z</time>
      </trkpt>
      <trkpt lat="44.88489" lon="0.32384">
        <ele>91.7</ele>
        <time>2022-04-05T09:57:20Z</time>
      </trkpt>
      <trkpt lat="44.8849" lon="0.32382">
        <ele>91.7</ele>
        <time>2022-04-05T09:57:21Z</time>
      </trkpt>
      <trkpt lat="44.8849" lon="0.32381">
        <ele>91.8</ele>
        <time>2022-04-05T09:57:22Z</time>
      </trkpt>
      <trkpt lat="44.8849" lon="0.3238">
        <ele>91.8</ele>
        <time>2022-04-05T09:57:23Z</time>
      </trkpt>
      <trkpt lat="44.88491" lon="0.32378">
        <ele>91.8</ele>
        <time>2022-04-05T09:57:25Z</time>
      </trkpt>
      <trkpt lat="44.88491" lon="0.32375">
        <ele>91.9</ele>
        <time>2022-04-05T09:57:26Z</time>
      </trkpt>
      <trkpt lat="44.88493" lon="0.32373">
        <ele>91.9</ele>
        <time>2022-04-05T09:57:27Z</time>
      </trkpt>
      <trkpt lat="44.88493" lon="0.32372">
        <ele>92</ele>
        <time>2022-04-05T09:57:28Z</time>
      </trkpt>
      <trkpt lat="44.88493" lon="0.3237">
        <ele>92</ele>
        <time>2022-04-05T09:57:29Z</time>
      </trkpt>
      <trkpt lat="44.88494" lon="0.32368">
        <ele>92</ele>
        <time>2022-04-05T09:57:30Z</time>
      </trkpt>
      <trkpt lat="44.88495" lon="0.32367">
        <ele>92</ele>
        <time>2022-04-05T09:57:31Z</time>
      </trkpt>
      <trkpt lat="44.88496" lon="0.32366">
        <ele>92.1</ele>
        <time>2022-04-05T09:57:32Z</time>
      </trkpt>
      <trkpt lat="44.88497" lon="0.32364">
        <ele>92.1</ele>
        <time>2022-04-05T09:57:33Z</time>
      </trkpt>
      <trkpt lat="44.88497" lon="0.32363">
        <ele>92.1</ele>
        <time>2022-04-05T09:57:34Z</time>
      </trkpt>
      <trkpt lat="44.88498" lon="0.32361">
        <ele>92.1</ele>
        <time>2022-04-05T09:57:36Z</time>
      </trkpt>
      <trkpt lat="44.88499" lon="0.3236">
        <ele>92.2</ele>
        <time>2022-04-05T09:57:37Z</time>
      </trkpt>
      <trkpt lat="44.885" lon="0.32357">
        <ele>92.2</ele>
        <time>2022-04-05T09:57:38Z</time>
      </trkpt>
      <trkpt lat="44.885" lon="0.32355">
        <ele>92.2</ele>
        <time>2022-04-05T09:57:39Z</time>
      </trkpt>
      <trkpt lat="44.88501" lon="0.32354">
        <ele>92.2</ele>
        <time>2022-04-05T09:57:40Z</time>
      </trkpt>
      <trkpt lat="44.88501" lon="0.32353">
        <ele>92.2</ele>
        <time>2022-04-05T09:57:41Z</time>
      </trkpt>
      <trkpt lat="44.88502" lon="0.32351">
        <ele>92.2</ele>
        <time>2022-04-05T09:57:42Z</time>
      </trkpt>
      <trkpt lat="44.88502" lon="0.3235">
        <ele>92.2</ele>
        <time>2022-04-05T09:57:43Z</time>
      </trkpt>
      <trkpt lat="44.88503" lon="0.32348">
        <ele>92.3</ele>
        <time>2022-04-05T09:57:45Z</time>
      </trkpt>
      <trkpt lat="44.88503" lon="0.32346">
        <ele>92.3</ele>
        <time>2022-04-05T09:57:46Z</time>
      </trkpt>
      <trkpt lat="44.88503" lon="0.32343">
        <ele>92.3</ele>
        <time>2022-04-05T09:57:47Z</time>
      </trkpt>
      <trkpt lat="44.88502" lon="0.32342">
        <ele>92.3</ele>
        <time>2022-04-05T09:57:48Z</time>
      </trkpt>
      <trkpt lat="44.88501" lon="0.3234">
        <ele>92.3</ele>
        <time>2022-04-05T09:57:49Z</time>
      </trkpt>
      <trkpt lat="44.885" lon="0.32338">
        <ele>92.2</ele>
        <time>2022-04-05T09:57:50Z</time>
      </trkpt>
      <trkpt lat="44.88498" lon="0.32338">
        <ele>92.2</ele>
        <time>2022-04-05T09:57:51Z</time>
      </trkpt>
      <trkpt lat="44.88497" lon="0.32337">
        <ele>92.2</ele>
        <time>2022-04-05T09:57:53Z</time>
      </trkpt>
      <trkpt lat="44.88495" lon="0.32337">
        <ele>92.2</ele>
        <time>2022-04-05T09:57:54Z</time>
      </trkpt>
      <trkpt lat="44.88493" lon="0.32335">
        <ele>92.2</ele>
        <time>2022-04-05T09:57:55Z</time>
      </trkpt>
      <trkpt lat="44.8849" lon="0.32335">
        <ele>92.1</ele>
        <time>2022-04-05T09:57:56Z</time>
      </trkpt>
      <trkpt lat="44.88488" lon="0.32334">
        <ele>92.1</ele>
        <time>2022-04-05T09:57:58Z</time>
      </trkpt>
      <trkpt lat="44.88487" lon="0.32334">
        <ele>92.1</ele>
        <time>2022-04-05T09:57:59Z</time>
      </trkpt>
      <trkpt lat="44.88485" lon="0.32333">
        <ele>92.1</ele>
        <time>2022-04-05T09:58:00Z</time>
      </trkpt>
      <trkpt lat="44.88484" lon="0.32333">
        <ele>92</ele>
        <time>2022-04-05T09:58:01Z</time>
      </trkpt>
      <trkpt lat="44.88483" lon="0.32332">
        <ele>92</ele>
        <time>2022-04-05T09:58:02Z</time>
      </trkpt>
      <trkpt lat="44.88482" lon="0.32332">
        <ele>92</ele>
        <time>2022-04-05T09:58:03Z</time>
      </trkpt>
      <trkpt lat="44.88479" lon="0.3233">
        <ele>91.9</ele>
        <time>2022-04-05T09:58:04Z</time>
      </trkpt>
      <trkpt lat="44.88478" lon="0.32329">
        <ele>91.9</ele>
        <time>2022-04-05T09:58:05Z</time>
      </trkpt>
      <trkpt lat="44.88477" lon="0.32329">
        <ele>91.9</ele>
        <time>2022-04-05T09:58:06Z</time>
      </trkpt>
      <trkpt lat="44.88476" lon="0.32328">
        <ele>91.9</ele>
        <time>2022-04-05T09:58:07Z</time>
      </trkpt>
      <trkpt lat="44.88475" lon="0.32328">
        <ele>91.8</ele>
        <time>2022-04-05T09:58:09Z</time>
      </trkpt>
      <trkpt lat="44.88473" lon="0.32327">
        <ele>91.8</ele>
        <time>2022-04-05T09:58:10Z</time>
      </trkpt>
      <trkpt lat="44.88471" lon="0.32326">
        <ele>91.8</ele>
        <time>2022-04-05T09:58:11Z</time>
      </trkpt>
      <trkpt lat="44.8847" lon="0.32325">
        <ele>91.7</ele>
        <time>2022-04-05T09:58:12Z</time>
      </trkpt>
      <trkpt lat="44.88469" lon="0.32324">
        <ele>91.7</ele>
        <time>2022-04-05T09:58:13Z</time>
      </trkpt>
      <trkpt lat="44.88468" lon="0.32324">
        <ele>91.7</ele>
        <time>2022-04-05T09:58:14Z</time>
      </trkpt>
      <trkpt lat="44.88467" lon="0.32323">
        <ele>91.7</ele>
        <time>2022-04-05T09:58:15Z</time>
      </trkpt>
      <trkpt lat="44.88466" lon="0.32321">
        <ele>91.6</ele>
        <time>2022-04-05T09:58:16Z</time>
      </trkpt>
      <trkpt lat="44.88464" lon="0.3232">
        <ele>91.6</ele>
        <time>2022-04-05T09:58:17Z</time>
      </trkpt>
      <trkpt lat="44.88463" lon="0.32319">
        <ele>91.6</ele>
        <time>2022-04-05T09:58:18Z</time>
      </trkpt>
      <trkpt lat="44.88462" lon="0.32318">
        <ele>91.5</ele>
        <time>2022-04-05T09:58:19Z</time>
      </trkpt>
      <trkpt lat="44.8846" lon="0.32317">
        <ele>91.5</ele>
        <time>2022-04-05T09:58:20Z</time>
      </trkpt>
      <trkpt lat="44.88459" lon="0.32316">
        <ele>91.5</ele>
        <time>2022-04-05T09:58:21Z</time>
      </trkpt>
      <trkpt lat="44.88458" lon="0.32315">
        <ele>91.5</ele>
        <time>2022-04-05T09:58:22Z</time>
      </trkpt>
      <trkpt lat="44.88457" lon="0.32315">
        <ele>91.5</ele>
        <time>2022-04-05T09:58:23Z</time>
      </trkpt>
      <trkpt lat="44.88454" lon="0.32313">
        <ele>91.4</ele>
        <time>2022-04-05T09:58:25Z</time>
      </trkpt>
      <trkpt lat="44.88453" lon="0.32312">
        <ele>91.4</ele>
        <time>2022-04-05T09:58:26Z</time>
      </trkpt>
      <trkpt lat="44.88452" lon="0.32311">
        <ele>91.4</ele>
        <time>2022-04-05T09:58:27Z</time>
      </trkpt>
      <trkpt lat="44.8845" lon="0.3231">
        <ele>91.4</ele>
        <time>2022-04-05T09:58:28Z</time>
      </trkpt>
      <trkpt lat="44.88449" lon="0.32309">
        <ele>91.4</ele>
        <time>2022-04-05T09:58:30Z</time>
      </trkpt>
      <trkpt lat="44.88447" lon="0.32308">
        <ele>91.4</ele>
        <time>2022-04-05T09:58:31Z</time>
      </trkpt>
      <trkpt lat="44.88446" lon="0.32308">
        <ele>91.4</ele>
        <time>2022-04-05T09:58:32Z</time>
      </trkpt>
      <trkpt lat="44.88444" lon="0.32308">
        <ele>91.4</ele>
        <time>2022-04-05T09:58:33Z</time>
      </trkpt>
      <trkpt lat="44.88443" lon="0.32308">
        <ele>91.4</ele>
        <time>2022-04-05T09:58:34Z</time>
      </trkpt>
      <trkpt lat="44.88441" lon="0.32308">
        <ele>91.4</ele>
        <time>2022-04-05T09:58:35Z</time>
      </trkpt>
      <trkpt lat="44.88441" lon="0.32309">
        <ele>91.4</ele>
        <time>2022-04-05T09:58:36Z</time>
      </trkpt>
      <trkpt lat="44.8844" lon="0.32309">
        <ele>91.4</ele>
        <time>2022-04-05T09:58:37Z</time>
      </trkpt>
      <trkpt lat="44.88439" lon="0.3231">
        <ele>91.4</ele>
        <time>2022-04-05T09:58:39Z</time>
      </trkpt>
      <trkpt lat="44.88437" lon="0.3231">
        <ele>91.5</ele>
        <time>2022-04-05T09:58:40Z</time>
      </trkpt>
      <trkpt lat="44.88436" lon="0.32311">
        <ele>91.5</ele>
        <time>2022-04-05T09:58:41Z</time>
      </trkpt>
      <trkpt lat="44.88436" lon="0.32312">
        <ele>91.5</ele>
        <time>2022-04-05T09:58:42Z</time>
      </trkpt>
      <trkpt lat="44.88435" lon="0.32314">
        <ele>91.5</ele>
        <time>2022-04-05T09:58:43Z</time>
      </trkpt>
      <trkpt lat="44.88435" lon="0.32315">
        <ele>91.6</ele>
        <time>2022-04-05T09:58:44Z</time>
      </trkpt>
      <trkpt lat="44.88434" lon="0.32318">
        <ele>91.6</ele>
        <time>2022-04-05T09:58:45Z</time>
      </trkpt>
      <trkpt lat="44.88434" lon="0.32319">
        <ele>91.6</ele>
        <time>2022-04-05T09:58:46Z</time>
      </trkpt>
      <trkpt lat="44.88434" lon="0.32321">
        <ele>91.7</ele>
        <time>2022-04-05T09:58:47Z</time>
      </trkpt>
      <trkpt lat="44.88434" lon="0.32324">
        <ele>91.7</ele>
        <time>2022-04-05T09:58:49Z</time>
      </trkpt>
      <trkpt lat="44.88435" lon="0.32326">
        <ele>91.8</ele>
        <time>2022-04-05T09:58:51Z</time>
      </trkpt>
      <trkpt lat="44.88435" lon="0.32326">
        <ele>91.8</ele>
        <time>2022-04-05T09:58:52Z</time>
      </trkpt>
      <trkpt lat="44.88435" lon="0.32325">
        <ele>91.8</ele>
        <time>2022-04-05T09:58:53Z</time>
      </trkpt>
      <trkpt lat="44.88435" lon="0.32326">
        <ele>91.8</ele>
        <time>2022-04-05T09:58:54Z</time>
      </trkpt>
      <trkpt lat="44.88435" lon="0.32328">
        <ele>91.8</ele>
        <time>2022-04-05T09:58:56Z</time>
      </trkpt>
      <trkpt lat="44.88435" lon="0.3233">
        <ele>91.9</ele>
        <time>2022-04-05T09:58:57Z</time>
      </trkpt>
      <trkpt lat="44.88434" lon="0.32332">
        <ele>91.9</ele>
        <time>2022-04-05T09:58:58Z</time>
      </trkpt>
      <trkpt lat="44.88433" lon="0.32336">
        <ele>92</ele>
        <time>2022-04-05T09:58:59Z</time>
      </trkpt>
      <trkpt lat="44.88433" lon="0.32337">
        <ele>92</ele>
        <time>2022-04-05T09:59:00Z</time>
      </trkpt>
      <trkpt lat="44.88432" lon="0.32338">
        <ele>92.1</ele>
        <time>2022-04-05T09:59:01Z</time>
      </trkpt>
      <trkpt lat="44.88432" lon="0.3234">
        <ele>92.1</ele>
        <time>2022-04-05T09:59:02Z</time>
      </trkpt>
      <trkpt lat="44.88431" lon="0.32341">
        <ele>92.1</ele>
        <time>2022-04-05T09:59:03Z</time>
      </trkpt>
      <trkpt lat="44.88431" lon="0.32343">
        <ele>92.2</ele>
        <time>2022-04-05T09:59:04Z</time>
      </trkpt>
      <trkpt lat="44.88431" lon="0.32344">
        <ele>92.2</ele>
        <time>2022-04-05T09:59:05Z</time>
      </trkpt>
      <trkpt lat="44.8843" lon="0.32347">
        <ele>92.2</ele>
        <time>2022-04-05T09:59:06Z</time>
      </trkpt>
      <trkpt lat="44.8843" lon="0.32348">
        <ele>92.2</ele>
        <time>2022-04-05T09:59:07Z</time>
      </trkpt>
      <trkpt lat="44.8843" lon="0.3235">
        <ele>92.3</ele>
        <time>2022-04-05T09:59:08Z</time>
      </trkpt>
      <trkpt lat="44.8843" lon="0.32351">
        <ele>92.3</ele>
        <time>2022-04-05T09:59:09Z</time>
      </trkpt>
      <trkpt lat="44.88429" lon="0.32354">
        <ele>92.3</ele>
        <time>2022-04-05T09:59:10Z</time>
      </trkpt>
      <trkpt lat="44.88428" lon="0.32355">
        <ele>92.4</ele>
        <time>2022-04-05T09:59:11Z</time>
      </trkpt>
      <trkpt lat="44.88428" lon="0.32357">
        <ele>92.4</ele>
        <time>2022-04-05T09:59:13Z</time>
      </trkpt>
      <trkpt lat="44.88427" lon="0.32358">
        <ele>92.4</ele>
        <time>2022-04-05T09:59:14Z</time>
      </trkpt>
      <trkpt lat="44.88426" lon="0.3236">
        <ele>92.4</ele>
        <time>2022-04-05T09:59:15Z</time>
      </trkpt>
      <trkpt lat="44.88425" lon="0.32362">
        <ele>92.5</ele>
        <time>2022-04-05T09:59:16Z</time>
      </trkpt>
      <trkpt lat="44.88425" lon="0.32364">
        <ele>92.5</ele>
        <time>2022-04-05T09:59:17Z</time>
      </trkpt>
      <trkpt lat="44.88425" lon="0.32365">
        <ele>92.5</ele>
        <time>2022-04-05T09:59:18Z</time>
      </trkpt>
      <trkpt lat="44.88424" lon="0.32367">
        <ele>92.5</ele>
        <time>2022-04-05T09:59:20Z</time>
      </trkpt>
      <trkpt lat="44.88423" lon="0.3237">
        <ele>92.5</ele>
        <time>2022-04-05T09:59:21Z</time>
      </trkpt>
      <trkpt lat="44.88423" lon="0.32371">
        <ele>92.5</ele>
        <time>2022-04-05T09:59:22Z</time>
      </trkpt>
      <trkpt lat="44.88422" lon="0.32374">
        <ele>92.5</ele>
        <time>2022-04-05T09:59:23Z</time>
      </trkpt>
      <trkpt lat="44.88421" lon="0.32376">
        <ele>92.5</ele>
        <time>2022-04-05T09:59:24Z</time>
      </trkpt>
      <trkpt lat="44.88421" lon="0.32377">
        <ele>92.5</ele>
        <time>2022-04-05T09:59:25Z</time>
      </trkpt>
      <trkpt lat="44.8842" lon="0.3238">
        <ele>92.4</ele>
        <time>2022-04-05T09:59:26Z</time>
      </trkpt>
      <trkpt lat="44.88419" lon="0.32381">
        <ele>92.4</ele>
        <time>2022-04-05T09:59:28Z</time>
      </trkpt>
      <trkpt lat="44.88419" lon="0.32382">
        <ele>92.4</ele>
        <time>2022-04-05T09:59:29Z</time>
      </trkpt>
      <trkpt lat="44.88416" lon="0.32385">
        <ele>92.3</ele>
        <time>2022-04-05T09:59:31Z</time>
      </trkpt>
      <trkpt lat="44.88415" lon="0.32386">
        <ele>92.3</ele>
        <time>2022-04-05T09:59:32Z</time>
      </trkpt>
      <trkpt lat="44.88414" lon="0.32386">
        <ele>92.3</ele>
        <time>2022-04-05T09:59:33Z</time>
      </trkpt>
      <trkpt lat="44.88413" lon="0.32387">
        <ele>92.3</ele>
        <time>2022-04-05T09:59:34Z</time>
      </trkpt>
      <trkpt lat="44.88411" lon="0.32387">
        <ele>92.3</ele>
        <time>2022-04-05T09:59:35Z</time>
      </trkpt>
      <trkpt lat="44.8841" lon="0.32388">
        <ele>92.3</ele>
        <time>2022-04-05T09:59:36Z</time>
      </trkpt>
      <trkpt lat="44.88409" lon="0.32388">
        <ele>92.2</ele>
        <time>2022-04-05T09:59:37Z</time>
      </trkpt>
      <trkpt lat="44.88407" lon="0.32388">
        <ele>92.2</ele>
        <time>2022-04-05T09:59:38Z</time>
      </trkpt>
      <trkpt lat="44.88406" lon="0.32387">
        <ele>92.1</ele>
        <time>2022-04-05T09:59:39Z</time>
      </trkpt>
      <trkpt lat="44.88405" lon="0.32387">
        <ele>92.1</ele>
        <time>2022-04-05T09:59:40Z</time>
      </trkpt>
      <trkpt lat="44.88404" lon="0.32386">
        <ele>92</ele>
        <time>2022-04-05T09:59:41Z</time>
      </trkpt>
      <trkpt lat="44.88403" lon="0.32385">
        <ele>92</ele>
        <time>2022-04-05T09:59:42Z</time>
      </trkpt>
      <trkpt lat="44.88402" lon="0.32383">
        <ele>91.9</ele>
        <time>2022-04-05T09:59:44Z</time>
      </trkpt>
      <trkpt lat="44.88401" lon="0.32383">
        <ele>91.9</ele>
        <time>2022-04-05T09:59:45Z</time>
      </trkpt>
      <trkpt lat="44.88399" lon="0.32382">
        <ele>91.8</ele>
        <time>2022-04-05T09:59:46Z</time>
      </trkpt>
      <trkpt lat="44.88399" lon="0.32381">
        <ele>91.7</ele>
        <time>2022-04-05T09:59:47Z</time>
      </trkpt>
      <trkpt lat="44.88398" lon="0.3238">
        <ele>91.6</ele>
        <time>2022-04-05T09:59:48Z</time>
      </trkpt>
      <trkpt lat="44.88397" lon="0.32379">
        <ele>91.5</ele>
        <time>2022-04-05T09:59:49Z</time>
      </trkpt>
      <trkpt lat="44.88395" lon="0.32378">
        <ele>91.4</ele>
        <time>2022-04-05T09:59:50Z</time>
      </trkpt>
      <trkpt lat="44.88394" lon="0.32376">
        <ele>91.3</ele>
        <time>2022-04-05T09:59:51Z</time>
      </trkpt>
      <trkpt lat="44.88393" lon="0.32376">
        <ele>91.3</ele>
        <time>2022-04-05T09:59:52Z</time>
      </trkpt>
      <trkpt lat="44.88392" lon="0.32375">
        <ele>91.2</ele>
        <time>2022-04-05T09:59:53Z</time>
      </trkpt>
      <trkpt lat="44.88391" lon="0.32374">
        <ele>91.1</ele>
        <time>2022-04-05T09:59:54Z</time>
      </trkpt>
      <trkpt lat="44.8839" lon="0.32373">
        <ele>91</ele>
        <time>2022-04-05T09:59:55Z</time>
      </trkpt>
      <trkpt lat="44.88388" lon="0.32371">
        <ele>90.9</ele>
        <time>2022-04-05T09:59:56Z</time>
      </trkpt>
      <trkpt lat="44.88388" lon="0.32371">
        <ele>90.8</ele>
        <time>2022-04-05T09:59:57Z</time>
      </trkpt>
      <trkpt lat="44.88387" lon="0.3237">
        <ele>90.7</ele>
        <time>2022-04-05T09:59:58Z</time>
      </trkpt>
      <trkpt lat="44.88385" lon="0.32369">
        <ele>90.6</ele>
        <time>2022-04-05T09:59:59Z</time>
      </trkpt>
      <trkpt lat="44.88384" lon="0.32368">
        <ele>90.5</ele>
        <time>2022-04-05T10:00:00Z</time>
      </trkpt>
      <trkpt lat="44.88383" lon="0.32367">
        <ele>90.4</ele>
        <time>2022-04-05T10:00:01Z</time>
      </trkpt>
      <trkpt lat="44.88381" lon="0.32367">
        <ele>90.3</ele>
        <time>2022-04-05T10:00:03Z</time>
      </trkpt>
      <trkpt lat="44.8838" lon="0.32366">
        <ele>90.2</ele>
        <time>2022-04-05T10:00:04Z</time>
      </trkpt>
      <trkpt lat="44.88377" lon="0.32365">
        <ele>90.1</ele>
        <time>2022-04-05T10:00:05Z</time>
      </trkpt>
      <trkpt lat="44.88376" lon="0.32364">
        <ele>90</ele>
        <time>2022-04-05T10:00:06Z</time>
      </trkpt>
      <trkpt lat="44.88376" lon="0.32364">
        <ele>89.9</ele>
        <time>2022-04-05T10:00:07Z</time>
      </trkpt>
      <trkpt lat="44.88375" lon="0.32363">
        <ele>89.9</ele>
        <time>2022-04-05T10:00:08Z</time>
      </trkpt>
      <trkpt lat="44.88374" lon="0.32363">
        <ele>89.8</ele>
        <time>2022-04-05T10:00:09Z</time>
      </trkpt>
      <trkpt lat="44.88372" lon="0.32362">
        <ele>89.7</ele>
        <time>2022-04-05T10:00:10Z</time>
      </trkpt>
      <trkpt lat="44.88371" lon="0.3236">
        <ele>89.6</ele>
        <time>2022-04-05T10:00:11Z</time>
      </trkpt>
      <trkpt lat="44.8837" lon="0.3236">
        <ele>89.5</ele>
        <time>2022-04-05T10:00:12Z</time>
      </trkpt>
      <trkpt lat="44.88369" lon="0.32358">
        <ele>89.4</ele>
        <time>2022-04-05T10:00:13Z</time>
      </trkpt>
      <trkpt lat="44.88367" lon="0.32357">
        <ele>89.3</ele>
        <time>2022-04-05T10:00:15Z</time>
      </trkpt>
      <trkpt lat="44.88365" lon="0.32356">
        <ele>89.1</ele>
        <time>2022-04-05T10:00:16Z</time>
      </trkpt>
      <trkpt lat="44.88364" lon="0.32356">
        <ele>89.1</ele>
        <time>2022-04-05T10:00:17Z</time>
      </trkpt>
      <trkpt lat="44.88363" lon="0.32355">
        <ele>89</ele>
        <time>2022-04-05T10:00:18Z</time>
      </trkpt>
      <trkpt lat="44.88362" lon="0.32354">
        <ele>88.9</ele>
        <time>2022-04-05T10:00:19Z</time>
      </trkpt>
      <trkpt lat="44.88361" lon="0.32353">
        <ele>88.8</ele>
        <time>2022-04-05T10:00:20Z</time>
      </trkpt>
      <trkpt lat="44.88359" lon="0.32352">
        <ele>88.7</ele>
        <time>2022-04-05T10:00:21Z</time>
      </trkpt>
      <trkpt lat="44.88358" lon="0.3235">
        <ele>88.5</ele>
        <time>2022-04-05T10:00:22Z</time>
      </trkpt>
      <trkpt lat="44.88357" lon="0.3235">
        <ele>88.5</ele>
        <time>2022-04-05T10:00:23Z</time>
      </trkpt>
      <trkpt lat="44.88356" lon="0.32349">
        <ele>88.4</ele>
        <time>2022-04-05T10:00:24Z</time>
      </trkpt>
      <trkpt lat="44.88355" lon="0.32349">
        <ele>88.3</ele>
        <time>2022-04-05T10:00:25Z</time>
      </trkpt>
      <trkpt lat="44.88353" lon="0.32347">
        <ele>88.3</ele>
        <time>2022-04-05T10:00:26Z</time>
      </trkpt>
      <trkpt lat="44.88352" lon="0.32347">
        <ele>88.2</ele>
        <time>2022-04-05T10:00:27Z</time>
      </trkpt>
      <trkpt lat="44.88351" lon="0.32346">
        <ele>88.1</ele>
        <time>2022-04-05T10:00:28Z</time>
      </trkpt>
      <trkpt lat="44.8835" lon="0.32346">
        <ele>88.1</ele>
        <time>2022-04-05T10:00:29Z</time>
      </trkpt>
      <trkpt lat="44.88349" lon="0.32345">
        <ele>88</ele>
        <time>2022-04-05T10:00:30Z</time>
      </trkpt>
      <trkpt lat="44.88348" lon="0.32343">
        <ele>87.8</ele>
        <time>2022-04-05T10:00:31Z</time>
      </trkpt>
      <trkpt lat="44.88347" lon="0.32343">
        <ele>87.8</ele>
        <time>2022-04-05T10:00:32Z</time>
      </trkpt>
      <trkpt lat="44.88345" lon="0.32342">
        <ele>87.7</ele>
        <time>2022-04-05T10:00:34Z</time>
      </trkpt>
      <trkpt lat="44.88344" lon="0.32341">
        <ele>87.6</ele>
        <time>2022-04-05T10:00:35Z</time>
      </trkpt>
      <trkpt lat="44.88342" lon="0.3234">
        <ele>87.4</ele>
        <time>2022-04-05T10:00:36Z</time>
      </trkpt>
      <trkpt lat="44.88342" lon="0.32339">
        <ele>87.4</ele>
        <time>2022-04-05T10:00:37Z</time>
      </trkpt>
      <trkpt lat="44.88341" lon="0.32339">
        <ele>87.3</ele>
        <time>2022-04-05T10:00:38Z</time>
      </trkpt>
      <trkpt lat="44.8834" lon="0.32338">
        <ele>87.3</ele>
        <time>2022-04-05T10:00:39Z</time>
      </trkpt>
      <trkpt lat="44.88339" lon="0.32338">
        <ele>87.2</ele>
        <time>2022-04-05T10:00:40Z</time>
      </trkpt>
      <trkpt lat="44.88336" lon="0.32336">
        <ele>87</ele>
        <time>2022-04-05T10:00:41Z</time>
      </trkpt>
      <trkpt lat="44.88336" lon="0.32337">
        <ele>87</ele>
        <time>2022-04-05T10:00:42Z</time>
      </trkpt>
      <trkpt lat="44.88335" lon="0.32336">
        <ele>86.9</ele>
        <time>2022-04-05T10:00:43Z</time>
      </trkpt>
      <trkpt lat="44.88334" lon="0.32336">
        <ele>86.8</ele>
        <time>2022-04-05T10:00:44Z</time>
      </trkpt>
      <trkpt lat="44.88333" lon="0.32336">
        <ele>86.7</ele>
        <time>2022-04-05T10:00:45Z</time>
      </trkpt>
      <trkpt lat="44.8833" lon="0.32335">
        <ele>86.5</ele>
        <time>2022-04-05T10:00:46Z</time>
      </trkpt>
      <trkpt lat="44.8833" lon="0.32335">
        <ele>86.5</ele>
        <time>2022-04-05T10:00:47Z</time>
      </trkpt>
      <trkpt lat="44.88328" lon="0.32334">
        <ele>86.3</ele>
        <time>2022-04-05T10:00:48Z</time>
      </trkpt>
      <trkpt lat="44.88327" lon="0.32334">
        <ele>86.2</ele>
        <time>2022-04-05T10:00:49Z</time>
      </trkpt>
      <trkpt lat="44.88326" lon="0.32334">
        <ele>86.2</ele>
        <time>2022-04-05T10:00:50Z</time>
      </trkpt>
      <trkpt lat="44.88324" lon="0.32333">
        <ele>86</ele>
        <time>2022-04-05T10:00:51Z</time>
      </trkpt>
      <trkpt lat="44.88323" lon="0.32333">
        <ele>86</ele>
        <time>2022-04-05T10:00:52Z</time>
      </trkpt>
      <trkpt lat="44.88323" lon="0.32333">
        <ele>85.9</ele>
        <time>2022-04-05T10:00:53Z</time>
      </trkpt>
      <trkpt lat="44.88321" lon="0.32333">
        <ele>85.8</ele>
        <time>2022-04-05T10:00:54Z</time>
      </trkpt>
      <trkpt lat="44.8832" lon="0.32333">
        <ele>85.7</ele>
        <time>2022-04-05T10:00:55Z</time>
      </trkpt>
      <trkpt lat="44.88318" lon="0.32332">
        <ele>85.6</ele>
        <time>2022-04-05T10:00:56Z</time>
      </trkpt>
      <trkpt lat="44.88316" lon="0.32332">
        <ele>85.5</ele>
        <time>2022-04-05T10:00:57Z</time>
      </trkpt>
      <trkpt lat="44.88315" lon="0.32332">
        <ele>85.4</ele>
        <time>2022-04-05T10:00:59Z</time>
      </trkpt>
      <trkpt lat="44.88313" lon="0.32331">
        <ele>85.3</ele>
        <time>2022-04-05T10:01:00Z</time>
      </trkpt>
      <trkpt lat="44.88312" lon="0.32331">
        <ele>85.2</ele>
        <time>2022-04-05T10:01:01Z</time>
      </trkpt>
      <trkpt lat="44.88311" lon="0.3233">
        <ele>85.1</ele>
        <time>2022-04-05T10:01:02Z</time>
      </trkpt>
      <trkpt lat="44.88309" lon="0.3233">
        <ele>85.1</ele>
        <time>2022-04-05T10:01:03Z</time>
      </trkpt>
      <trkpt lat="44.88309" lon="0.32329">
        <ele>85</ele>
        <time>2022-04-05T10:01:04Z</time>
      </trkpt>
      <trkpt lat="44.88307" lon="0.32329">
        <ele>85</ele>
        <time>2022-04-05T10:01:05Z</time>
      </trkpt>
      <trkpt lat="44.88305" lon="0.32328">
        <ele>84.8</ele>
        <time>2022-04-05T10:01:06Z</time>
      </trkpt>
      <trkpt lat="44.88304" lon="0.32328">
        <ele>84.8</ele>
        <time>2022-04-05T10:01:07Z</time>
      </trkpt>
      <trkpt lat="44.88303" lon="0.32328">
        <ele>84.7</ele>
        <time>2022-04-05T10:01:08Z</time>
      </trkpt>
      <trkpt lat="44.88302" lon="0.32327">
        <ele>84.7</ele>
        <time>2022-04-05T10:01:09Z</time>
      </trkpt>
      <trkpt lat="44.88301" lon="0.32326">
        <ele>84.6</ele>
        <time>2022-04-05T10:01:10Z</time>
      </trkpt>
      <trkpt lat="44.88299" lon="0.32326">
        <ele>84.5</ele>
        <time>2022-04-05T10:01:11Z</time>
      </trkpt>
      <trkpt lat="44.88299" lon="0.32326">
        <ele>84.5</ele>
        <time>2022-04-05T10:01:12Z</time>
      </trkpt>
      <trkpt lat="44.88296" lon="0.32326">
        <ele>84.3</ele>
        <time>2022-04-05T10:01:14Z</time>
      </trkpt>
      <trkpt lat="44.88295" lon="0.32326">
        <ele>84.3</ele>
        <time>2022-04-05T10:01:15Z</time>
      </trkpt>
      <trkpt lat="44.88293" lon="0.32326">
        <ele>84.2</ele>
        <time>2022-04-05T10:01:16Z</time>
      </trkpt>
      <trkpt lat="44.88292" lon="0.32326">
        <ele>84.1</ele>
        <time>2022-04-05T10:01:17Z</time>
      </trkpt>
      <trkpt lat="44.88291" lon="0.32326">
        <ele>84.1</ele>
        <time>2022-04-05T10:01:18Z</time>
      </trkpt>
      <trkpt lat="44.8829" lon="0.32326">
        <ele>84</ele>
        <time>2022-04-05T10:01:19Z</time>
      </trkpt>
      <trkpt lat="44.88289" lon="0.32326">
        <ele>84</ele>
        <time>2022-04-05T10:01:20Z</time>
      </trkpt>
      <trkpt lat="44.88286" lon="0.32324">
        <ele>83.8</ele>
        <time>2022-04-05T10:01:21Z</time>
      </trkpt>
      <trkpt lat="44.88285" lon="0.32324">
        <ele>83.8</ele>
        <time>2022-04-05T10:01:23Z</time>
      </trkpt>
      <trkpt lat="44.88284" lon="0.32324">
        <ele>83.7</ele>
        <time>2022-04-05T10:01:24Z</time>
      </trkpt>
      <trkpt lat="44.88283" lon="0.32323">
        <ele>83.7</ele>
        <time>2022-04-05T10:01:25Z</time>
      </trkpt>
      <trkpt lat="44.88281" lon="0.32322">
        <ele>83.6</ele>
        <time>2022-04-05T10:01:26Z</time>
      </trkpt>
      <trkpt lat="44.8828" lon="0.32322">
        <ele>83.6</ele>
        <time>2022-04-05T10:01:27Z</time>
      </trkpt>
      <trkpt lat="44.8828" lon="0.32321">
        <ele>83.5</ele>
        <time>2022-04-05T10:01:28Z</time>
      </trkpt>
      <trkpt lat="44.88279" lon="0.32321">
        <ele>83.5</ele>
        <time>2022-04-05T10:01:29Z</time>
      </trkpt>
      <trkpt lat="44.88278" lon="0.3232">
        <ele>83.4</ele>
        <time>2022-04-05T10:01:30Z</time>
      </trkpt>
      <trkpt lat="44.88276" lon="0.32319">
        <ele>83.3</ele>
        <time>2022-04-05T10:01:31Z</time>
      </trkpt>
      <trkpt lat="44.88275" lon="0.32319">
        <ele>83.3</ele>
        <time>2022-04-05T10:01:32Z</time>
      </trkpt>
      <trkpt lat="44.88274" lon="0.32319">
        <ele>83.2</ele>
        <time>2022-04-05T10:01:33Z</time>
      </trkpt>
      <trkpt lat="44.88273" lon="0.32318">
        <ele>83.2</ele>
        <time>2022-04-05T10:01:34Z</time>
      </trkpt>
      <trkpt lat="44.88272" lon="0.32318">
        <ele>83.1</ele>
        <time>2022-04-05T10:01:35Z</time>
      </trkpt>
      <trkpt lat="44.8827" lon="0.32318">
        <ele>83.1</ele>
        <time>2022-04-05T10:01:36Z</time>
      </trkpt>
      <trkpt lat="44.88269" lon="0.32318">
        <ele>83</ele>
        <time>2022-04-05T10:01:37Z</time>
      </trkpt>
      <trkpt lat="44.88268" lon="0.32318">
        <ele>83</ele>
        <time>2022-04-05T10:01:39Z</time>
      </trkpt>
      <trkpt lat="44.88267" lon="0.32317">
        <ele>82.9</ele>
        <time>2022-04-05T10:01:40Z</time>
      </trkpt>
      <trkpt lat="44.88265" lon="0.32316">
        <ele>82.8</ele>
        <time>2022-04-05T10:01:41Z</time>
      </trkpt>
      <trkpt lat="44.88264" lon="0.32316">
        <ele>82.8</ele>
        <time>2022-04-05T10:01:42Z</time>
      </trkpt>
      <trkpt lat="44.88263" lon="0.32315">
        <ele>82.7</ele>
        <time>2022-04-05T10:01:43Z</time>
      </trkpt>
      <trkpt lat="44.88262" lon="0.32314">
        <ele>82.6</ele>
        <time>2022-04-05T10:01:44Z</time>
      </trkpt>
      <trkpt lat="44.88261" lon="0.32314">
        <ele>82.6</ele>
        <time>2022-04-05T10:01:45Z</time>
      </trkpt>
      <trkpt lat="44.88259" lon="0.32314">
        <ele>82.5</ele>
        <time>2022-04-05T10:01:46Z</time>
      </trkpt>
      <trkpt lat="44.88258" lon="0.32314">
        <ele>82.5</ele>
        <time>2022-04-05T10:01:47Z</time>
      </trkpt>
      <trkpt lat="44.88257" lon="0.32313">
        <ele>82.4</ele>
        <time>2022-04-05T10:01:48Z</time>
      </trkpt>
      <trkpt lat="44.88256" lon="0.32313">
        <ele>82.3</ele>
        <time>2022-04-05T10:01:49Z</time>
      </trkpt>
      <trkpt lat="44.88255" lon="0.32312">
        <ele>82.3</ele>
        <time>2022-04-05T10:01:50Z</time>
      </trkpt>
      <trkpt lat="44.88253" lon="0.32311">
        <ele>82.2</ele>
        <time>2022-04-05T10:01:51Z</time>
      </trkpt>
      <trkpt lat="44.88252" lon="0.32311">
        <ele>82.1</ele>
        <time>2022-04-05T10:01:53Z</time>
      </trkpt>
      <trkpt lat="44.88251" lon="0.3231">
        <ele>82.1</ele>
        <time>2022-04-05T10:01:54Z</time>
      </trkpt>
      <trkpt lat="44.8825" lon="0.3231">
        <ele>82</ele>
        <time>2022-04-05T10:01:55Z</time>
      </trkpt>
      <trkpt lat="44.88248" lon="0.32309">
        <ele>81.8</ele>
        <time>2022-04-05T10:01:56Z</time>
      </trkpt>
      <trkpt lat="44.88247" lon="0.32309">
        <ele>81.8</ele>
        <time>2022-04-05T10:01:57Z</time>
      </trkpt>
      <trkpt lat="44.88247" lon="0.32308">
        <ele>81.7</ele>
        <time>2022-04-05T10:01:58Z</time>
      </trkpt>
      <trkpt lat="44.88246" lon="0.32308">
        <ele>81.7</ele>
        <time>2022-04-05T10:01:59Z</time>
      </trkpt>
      <trkpt lat="44.88244" lon="0.32308">
        <ele>81.6</ele>
        <time>2022-04-05T10:02:00Z</time>
      </trkpt>
      <trkpt lat="44.88242" lon="0.32307">
        <ele>81.4</ele>
        <time>2022-04-05T10:02:01Z</time>
      </trkpt>
      <trkpt lat="44.88241" lon="0.32307">
        <ele>81.3</ele>
        <time>2022-04-05T10:02:02Z</time>
      </trkpt>
      <trkpt lat="44.88241" lon="0.32307">
        <ele>81.3</ele>
        <time>2022-04-05T10:02:03Z</time>
      </trkpt>
      <trkpt lat="44.8824" lon="0.32307">
        <ele>81.2</ele>
        <time>2022-04-05T10:02:04Z</time>
      </trkpt>
      <trkpt lat="44.88238" lon="0.32307">
        <ele>81.1</ele>
        <time>2022-04-05T10:02:05Z</time>
      </trkpt>
      <trkpt lat="44.88236" lon="0.32306">
        <ele>80.9</ele>
        <time>2022-04-05T10:02:06Z</time>
      </trkpt>
      <trkpt lat="44.88235" lon="0.32306">
        <ele>80.8</ele>
        <time>2022-04-05T10:02:07Z</time>
      </trkpt>
      <trkpt lat="44.88234" lon="0.32305">
        <ele>80.7</ele>
        <time>2022-04-05T10:02:08Z</time>
      </trkpt>
      <trkpt lat="44.88233" lon="0.32305">
        <ele>80.6</ele>
        <time>2022-04-05T10:02:09Z</time>
      </trkpt>
      <trkpt lat="44.88232" lon="0.32304">
        <ele>80.5</ele>
        <time>2022-04-05T10:02:10Z</time>
      </trkpt>
      <trkpt lat="44.88229" lon="0.32304">
        <ele>80.3</ele>
        <time>2022-04-05T10:02:11Z</time>
      </trkpt>
      <trkpt lat="44.88229" lon="0.32304">
        <ele>80.2</ele>
        <time>2022-04-05T10:02:12Z</time>
      </trkpt>
      <trkpt lat="44.88228" lon="0.32303">
        <ele>80.1</ele>
        <time>2022-04-05T10:02:13Z</time>
      </trkpt>
      <trkpt lat="44.88227" lon="0.32303">
        <ele>80</ele>
        <time>2022-04-05T10:02:14Z</time>
      </trkpt>
      <trkpt lat="44.88225" lon="0.32303">
        <ele>79.9</ele>
        <time>2022-04-05T10:02:16Z</time>
      </trkpt>
      <trkpt lat="44.88223" lon="0.32302">
        <ele>79.7</ele>
        <time>2022-04-05T10:02:17Z</time>
      </trkpt>
      <trkpt lat="44.88222" lon="0.32302">
        <ele>79.6</ele>
        <time>2022-04-05T10:02:18Z</time>
      </trkpt>
      <trkpt lat="44.88221" lon="0.32301">
        <ele>79.6</ele>
        <time>2022-04-05T10:02:19Z</time>
      </trkpt>
      <trkpt lat="44.8822" lon="0.32301">
        <ele>79.4</ele>
        <time>2022-04-05T10:02:20Z</time>
      </trkpt>
      <trkpt lat="44.88218" lon="0.323">
        <ele>79.3</ele>
        <time>2022-04-05T10:02:22Z</time>
      </trkpt>
      <trkpt lat="44.88217" lon="0.323">
        <ele>79.2</ele>
        <time>2022-04-05T10:02:23Z</time>
      </trkpt>
      <trkpt lat="44.88216" lon="0.323">
        <ele>79.1</ele>
        <time>2022-04-05T10:02:24Z</time>
      </trkpt>
      <trkpt lat="44.88214" lon="0.323">
        <ele>79.1</ele>
        <time>2022-04-05T10:02:25Z</time>
      </trkpt>
      <trkpt lat="44.88212" lon="0.32299">
        <ele>78.9</ele>
        <time>2022-04-05T10:02:26Z</time>
      </trkpt>
      <trkpt lat="44.88212" lon="0.32299">
        <ele>78.9</ele>
        <time>2022-04-05T10:02:27Z</time>
      </trkpt>
      <trkpt lat="44.8821" lon="0.32299">
        <ele>78.8</ele>
        <time>2022-04-05T10:02:28Z</time>
      </trkpt>
      <trkpt lat="44.88209" lon="0.32299">
        <ele>78.7</ele>
        <time>2022-04-05T10:02:29Z</time>
      </trkpt>
      <trkpt lat="44.88208" lon="0.32299">
        <ele>78.6</ele>
        <time>2022-04-05T10:02:30Z</time>
      </trkpt>
      <trkpt lat="44.88205" lon="0.32298">
        <ele>78.5</ele>
        <time>2022-04-05T10:02:31Z</time>
      </trkpt>
      <trkpt lat="44.88205" lon="0.32298">
        <ele>78.5</ele>
        <time>2022-04-05T10:02:33Z</time>
      </trkpt>
      <trkpt lat="44.88203" lon="0.32298">
        <ele>78.4</ele>
        <time>2022-04-05T10:02:34Z</time>
      </trkpt>
      <trkpt lat="44.88202" lon="0.32298">
        <ele>78.4</ele>
        <time>2022-04-05T10:02:35Z</time>
      </trkpt>
      <trkpt lat="44.88201" lon="0.32298">
        <ele>78.3</ele>
        <time>2022-04-05T10:02:36Z</time>
      </trkpt>
      <trkpt lat="44.88199" lon="0.32298">
        <ele>78.2</ele>
        <time>2022-04-05T10:02:37Z</time>
      </trkpt>
      <trkpt lat="44.88198" lon="0.32298">
        <ele>78.2</ele>
        <time>2022-04-05T10:02:38Z</time>
      </trkpt>
      <trkpt lat="44.88197" lon="0.32297">
        <ele>78.1</ele>
        <time>2022-04-05T10:02:39Z</time>
      </trkpt>
      <trkpt lat="44.88195" lon="0.32297">
        <ele>78.1</ele>
        <time>2022-04-05T10:02:40Z</time>
      </trkpt>
      <trkpt lat="44.88193" lon="0.32296">
        <ele>77.9</ele>
        <time>2022-04-05T10:02:42Z</time>
      </trkpt>
      <trkpt lat="44.88192" lon="0.32296">
        <ele>77.9</ele>
        <time>2022-04-05T10:02:43Z</time>
      </trkpt>
      <trkpt lat="44.88191" lon="0.32295">
        <ele>77.8</ele>
        <time>2022-04-05T10:02:44Z</time>
      </trkpt>
      <trkpt lat="44.8819" lon="0.32295">
        <ele>77.8</ele>
        <time>2022-04-05T10:02:45Z</time>
      </trkpt>
      <trkpt lat="44.88188" lon="0.32294">
        <ele>77.7</ele>
        <time>2022-04-05T10:02:46Z</time>
      </trkpt>
      <trkpt lat="44.88188" lon="0.32294">
        <ele>77.7</ele>
        <time>2022-04-05T10:02:47Z</time>
      </trkpt>
      <trkpt lat="44.88187" lon="0.32294">
        <ele>77.7</ele>
        <time>2022-04-05T10:02:48Z</time>
      </trkpt>
      <trkpt lat="44.88184" lon="0.32294">
        <ele>77.5</ele>
        <time>2022-04-05T10:02:49Z</time>
      </trkpt>
      <trkpt lat="44.88183" lon="0.32294">
        <ele>77.5</ele>
        <time>2022-04-05T10:02:50Z</time>
      </trkpt>
      <trkpt lat="44.88182" lon="0.32293">
        <ele>77.4</ele>
        <time>2022-04-05T10:02:51Z</time>
      </trkpt>
      <trkpt lat="44.88182" lon="0.32293">
        <ele>77.4</ele>
        <time>2022-04-05T10:02:52Z</time>
      </trkpt>
      <trkpt lat="44.88181" lon="0.32293">
        <ele>77.3</ele>
        <time>2022-04-05T10:02:53Z</time>
      </trkpt>
      <trkpt lat="44.88179" lon="0.32293">
        <ele>77.3</ele>
        <time>2022-04-05T10:02:55Z</time>
      </trkpt>
      <trkpt lat="44.88177" lon="0.32293">
        <ele>77.1</ele>
        <time>2022-04-05T10:02:56Z</time>
      </trkpt>
      <trkpt lat="44.88175" lon="0.32293">
        <ele>77.1</ele>
        <time>2022-04-05T10:02:57Z</time>
      </trkpt>
      <trkpt lat="44.88174" lon="0.32293">
        <ele>77</ele>
        <time>2022-04-05T10:02:59Z</time>
      </trkpt>
      <trkpt lat="44.88172" lon="0.32293">
        <ele>76.9</ele>
        <time>2022-04-05T10:03:00Z</time>
      </trkpt>
      <trkpt lat="44.88169" lon="0.32291">
        <ele>76.7</ele>
        <time>2022-04-05T10:03:02Z</time>
      </trkpt>
      <trkpt lat="44.88168" lon="0.32291">
        <ele>76.6</ele>
        <time>2022-04-05T10:03:03Z</time>
      </trkpt>
      <trkpt lat="44.88167" lon="0.3229">
        <ele>76.6</ele>
        <time>2022-04-05T10:03:04Z</time>
      </trkpt>
      <trkpt lat="44.88166" lon="0.3229">
        <ele>76.5</ele>
        <time>2022-04-05T10:03:05Z</time>
      </trkpt>
      <trkpt lat="44.88162" lon="0.32288">
        <ele>76.3</ele>
        <time>2022-04-05T10:03:07Z</time>
      </trkpt>
      <trkpt lat="44.88162" lon="0.32288">
        <ele>76.3</ele>
        <time>2022-04-05T10:03:08Z</time>
      </trkpt>
      <trkpt lat="44.88161" lon="0.32288">
        <ele>76.2</ele>
        <time>2022-04-05T10:03:09Z</time>
      </trkpt>
      <trkpt lat="44.88159" lon="0.32288">
        <ele>76.1</ele>
        <time>2022-04-05T10:03:10Z</time>
      </trkpt>
      <trkpt lat="44.88158" lon="0.32287">
        <ele>76</ele>
        <time>2022-04-05T10:03:11Z</time>
      </trkpt>
      <trkpt lat="44.88156" lon="0.32287">
        <ele>75.9</ele>
        <time>2022-04-05T10:03:12Z</time>
      </trkpt>
      <trkpt lat="44.88155" lon="0.32287">
        <ele>75.8</ele>
        <time>2022-04-05T10:03:13Z</time>
      </trkpt>
      <trkpt lat="44.88154" lon="0.32287">
        <ele>75.7</ele>
        <time>2022-04-05T10:03:14Z</time>
      </trkpt>
      <trkpt lat="44.88152" lon="0.32286">
        <ele>75.6</ele>
        <time>2022-04-05T10:03:15Z</time>
      </trkpt>
      <trkpt lat="44.8815" lon="0.32286">
        <ele>75.4</ele>
        <time>2022-04-05T10:03:16Z</time>
      </trkpt>
      <trkpt lat="44.88149" lon="0.32286">
        <ele>75.4</ele>
        <time>2022-04-05T10:03:17Z</time>
      </trkpt>
      <trkpt lat="44.88148" lon="0.32286">
        <ele>75.3</ele>
        <time>2022-04-05T10:03:18Z</time>
      </trkpt>
      <trkpt lat="44.88147" lon="0.32286">
        <ele>75.2</ele>
        <time>2022-04-05T10:03:19Z</time>
      </trkpt>
      <trkpt lat="44.88146" lon="0.32286">
        <ele>75.1</ele>
        <time>2022-04-05T10:03:20Z</time>
      </trkpt>
      <trkpt lat="44.88142" lon="0.32286">
        <ele>74.8</ele>
        <time>2022-04-05T10:03:22Z</time>
      </trkpt>
      <trkpt lat="44.88142" lon="0.32286">
        <ele>74.7</ele>
        <time>2022-04-05T10:03:23Z</time>
      </trkpt>
      <trkpt lat="44.88141" lon="0.32286">
        <ele>74.6</ele>
        <time>2022-04-05T10:03:24Z</time>
      </trkpt>
      <trkpt lat="44.8814" lon="0.32286">
        <ele>74.5</ele>
        <time>2022-04-05T10:03:25Z</time>
      </trkpt>
      <trkpt lat="44.88139" lon="0.32286">
        <ele>74.4</ele>
        <time>2022-04-05T10:03:26Z</time>
      </trkpt>
      <trkpt lat="44.88137" lon="0.32287">
        <ele>74.3</ele>
        <time>2022-04-05T10:03:27Z</time>
      </trkpt>
      <trkpt lat="44.88135" lon="0.32287">
        <ele>74.1</ele>
        <time>2022-04-05T10:03:28Z</time>
      </trkpt>
      <trkpt lat="44.88134" lon="0.32288">
        <ele>74</ele>
        <time>2022-04-05T10:03:29Z</time>
      </trkpt>
      <trkpt lat="44.88133" lon="0.32288">
        <ele>73.9</ele>
        <time>2022-04-05T10:03:30Z</time>
      </trkpt>
      <trkpt lat="44.88132" lon="0.32288">
        <ele>73.8</ele>
        <time>2022-04-05T10:03:31Z</time>
      </trkpt>
      <trkpt lat="44.8813" lon="0.32288">
        <ele>73.7</ele>
        <time>2022-04-05T10:03:32Z</time>
      </trkpt>
      <trkpt lat="44.88129" lon="0.32289">
        <ele>73.6</ele>
        <time>2022-04-05T10:03:33Z</time>
      </trkpt>
      <trkpt lat="44.88127" lon="0.32289">
        <ele>73.4</ele>
        <time>2022-04-05T10:03:34Z</time>
      </trkpt>
      <trkpt lat="44.88125" lon="0.3229">
        <ele>73.2</ele>
        <time>2022-04-05T10:03:35Z</time>
      </trkpt>
      <trkpt lat="44.88123" lon="0.3229">
        <ele>73.1</ele>
        <time>2022-04-05T10:03:36Z</time>
      </trkpt>
      <trkpt lat="44.88122" lon="0.32291">
        <ele>72.9</ele>
        <time>2022-04-05T10:03:37Z</time>
      </trkpt>
      <trkpt lat="44.88121" lon="0.32291">
        <ele>72.9</ele>
        <time>2022-04-05T10:03:39Z</time>
      </trkpt>
      <trkpt lat="44.8812" lon="0.32291">
        <ele>72.8</ele>
        <time>2022-04-05T10:03:40Z</time>
      </trkpt>
      <trkpt lat="44.88118" lon="0.32292">
        <ele>72.7</ele>
        <time>2022-04-05T10:03:41Z</time>
      </trkpt>
      <trkpt lat="44.88116" lon="0.32293">
        <ele>72.5</ele>
        <time>2022-04-05T10:03:42Z</time>
      </trkpt>
      <trkpt lat="44.88116" lon="0.32294">
        <ele>72.4</ele>
        <time>2022-04-05T10:03:43Z</time>
      </trkpt>
      <trkpt lat="44.88115" lon="0.32295">
        <ele>72.3</ele>
        <time>2022-04-05T10:03:44Z</time>
      </trkpt>
      <trkpt lat="44.88113" lon="0.32295">
        <ele>72.2</ele>
        <time>2022-04-05T10:03:45Z</time>
      </trkpt>
      <trkpt lat="44.88112" lon="0.32296">
        <ele>72.1</ele>
        <time>2022-04-05T10:03:46Z</time>
      </trkpt>
      <trkpt lat="44.8811" lon="0.32296">
        <ele>72</ele>
        <time>2022-04-05T10:03:47Z</time>
      </trkpt>
      <trkpt lat="44.88108" lon="0.32297">
        <ele>71.8</ele>
        <time>2022-04-05T10:03:48Z</time>
      </trkpt>
      <trkpt lat="44.88107" lon="0.32298">
        <ele>71.7</ele>
        <time>2022-04-05T10:03:49Z</time>
      </trkpt>
      <trkpt lat="44.88107" lon="0.32298">
        <ele>71.7</ele>
        <time>2022-04-05T10:03:50Z</time>
      </trkpt>
      <trkpt lat="44.88106" lon="0.32299">
        <ele>71.6</ele>
        <time>2022-04-05T10:03:51Z</time>
      </trkpt>
      <trkpt lat="44.88105" lon="0.32301">
        <ele>71.5</ele>
        <time>2022-04-05T10:03:52Z</time>
      </trkpt>
      <trkpt lat="44.88103" lon="0.32303">
        <ele>71.3</ele>
        <time>2022-04-05T10:03:53Z</time>
      </trkpt>
      <trkpt lat="44.88102" lon="0.32303">
        <ele>71.3</ele>
        <time>2022-04-05T10:03:54Z</time>
      </trkpt>
      <trkpt lat="44.88101" lon="0.32304">
        <ele>71.2</ele>
        <time>2022-04-05T10:03:55Z</time>
      </trkpt>
      <trkpt lat="44.88099" lon="0.32306">
        <ele>71.1</ele>
        <time>2022-04-05T10:03:56Z</time>
      </trkpt>
      <trkpt lat="44.88099" lon="0.32307">
        <ele>71.1</ele>
        <time>2022-04-05T10:03:57Z</time>
      </trkpt>
      <trkpt lat="44.88097" lon="0.32307">
        <ele>71</ele>
        <time>2022-04-05T10:03:58Z</time>
      </trkpt>
      <trkpt lat="44.88096" lon="0.32309">
        <ele>71</ele>
        <time>2022-04-05T10:04:00Z</time>
      </trkpt>
      <trkpt lat="44.88094" lon="0.3231">
        <ele>70.9</ele>
        <time>2022-04-05T10:04:01Z</time>
      </trkpt>
      <trkpt lat="44.88093" lon="0.32311">
        <ele>70.8</ele>
        <time>2022-04-05T10:04:02Z</time>
      </trkpt>
      <trkpt lat="44.88092" lon="0.32312">
        <ele>70.8</ele>
        <time>2022-04-05T10:04:03Z</time>
      </trkpt>
      <trkpt lat="44.8809" lon="0.32313">
        <ele>70.8</ele>
        <time>2022-04-05T10:04:04Z</time>
      </trkpt>
      <trkpt lat="44.88088" lon="0.32315">
        <ele>70.7</ele>
        <time>2022-04-05T10:04:05Z</time>
      </trkpt>
      <trkpt lat="44.88087" lon="0.32316">
        <ele>70.7</ele>
        <time>2022-04-05T10:04:06Z</time>
      </trkpt>
      <trkpt lat="44.88085" lon="0.32318">
        <ele>70.6</ele>
        <time>2022-04-05T10:04:08Z</time>
      </trkpt>
      <trkpt lat="44.88085" lon="0.32318">
        <ele>70.6</ele>
        <time>2022-04-05T10:04:09Z</time>
      </trkpt>
      <trkpt lat="44.88084" lon="0.32319">
        <ele>70.6</ele>
        <time>2022-04-05T10:04:10Z</time>
      </trkpt>
      <trkpt lat="44.88082" lon="0.32321">
        <ele>70.6</ele>
        <time>2022-04-05T10:04:11Z</time>
      </trkpt>
      <trkpt lat="44.88081" lon="0.32322">
        <ele>70.6</ele>
        <time>2022-04-05T10:04:12Z</time>
      </trkpt>
      <trkpt lat="44.8808" lon="0.32323">
        <ele>70.5</ele>
        <time>2022-04-05T10:04:13Z</time>
      </trkpt>
      <trkpt lat="44.88078" lon="0.32324">
        <ele>70.5</ele>
        <time>2022-04-05T10:04:14Z</time>
      </trkpt>
      <trkpt lat="44.88076" lon="0.32326">
        <ele>70.5</ele>
        <time>2022-04-05T10:04:16Z</time>
      </trkpt>
      <trkpt lat="44.88075" lon="0.32327">
        <ele>70.5</ele>
        <time>2022-04-05T10:04:17Z</time>
      </trkpt>
      <trkpt lat="44.88073" lon="0.32329">
        <ele>70.5</ele>
        <time>2022-04-05T10:04:18Z</time>
      </trkpt>
      <trkpt lat="44.88072" lon="0.3233">
        <ele>70.5</ele>
        <time>2022-04-05T10:04:19Z</time>
      </trkpt>
      <trkpt lat="44.88072" lon="0.3233">
        <ele>70.5</ele>
        <time>2022-04-05T10:04:20Z</time>
      </trkpt>
      <trkpt lat="44.8807" lon="0.32331">
        <ele>70.4</ele>
        <time>2022-04-05T10:04:21Z</time>
      </trkpt>
      <trkpt lat="44.88069" lon="0.32333">
        <ele>70.4</ele>
        <time>2022-04-05T10:04:22Z</time>
      </trkpt>
      <trkpt lat="44.88067" lon="0.32333">
        <ele>70.4</ele>
        <time>2022-04-05T10:04:23Z</time>
      </trkpt>
      <trkpt lat="44.88066" lon="0.32334">
        <ele>70.4</ele>
        <time>2022-04-05T10:04:24Z</time>
      </trkpt>
      <trkpt lat="44.88063" lon="0.32335">
        <ele>70.4</ele>
        <time>2022-04-05T10:04:25Z</time>
      </trkpt>
      <trkpt lat="44.88062" lon="0.32335">
        <ele>70.3</ele>
        <time>2022-04-05T10:04:26Z</time>
      </trkpt>
      <trkpt lat="44.88061" lon="0.32335">
        <ele>70.3</ele>
        <time>2022-04-05T10:04:28Z</time>
      </trkpt>
      <trkpt lat="44.8806" lon="0.32336">
        <ele>70.3</ele>
        <time>2022-04-05T10:04:29Z</time>
      </trkpt>
      <trkpt lat="44.88059" lon="0.32336">
        <ele>70.3</ele>
        <time>2022-04-05T10:04:30Z</time>
      </trkpt>
      <trkpt lat="44.88056" lon="0.32337">
        <ele>70.2</ele>
        <time>2022-04-05T10:04:31Z</time>
      </trkpt>
      <trkpt lat="44.88055" lon="0.32337">
        <ele>70.2</ele>
        <time>2022-04-05T10:04:32Z</time>
      </trkpt>
      <trkpt lat="44.88055" lon="0.32338">
        <ele>70.2</ele>
        <time>2022-04-05T10:04:33Z</time>
      </trkpt>
      <trkpt lat="44.88054" lon="0.32338">
        <ele>70.2</ele>
        <time>2022-04-05T10:04:34Z</time>
      </trkpt>
      <trkpt lat="44.88052" lon="0.32338">
        <ele>70.1</ele>
        <time>2022-04-05T10:04:35Z</time>
      </trkpt>
      <trkpt lat="44.8805" lon="0.32338">
        <ele>70.1</ele>
        <time>2022-04-05T10:04:36Z</time>
      </trkpt>
      <trkpt lat="44.88049" lon="0.32338">
        <ele>70.1</ele>
        <time>2022-04-05T10:04:37Z</time>
      </trkpt>
      <trkpt lat="44.88048" lon="0.32338">
        <ele>70</ele>
        <time>2022-04-05T10:04:38Z</time>
      </trkpt>
      <trkpt lat="44.88047" lon="0.32337">
        <ele>70</ele>
        <time>2022-04-05T10:04:39Z</time>
      </trkpt>
      <trkpt lat="44.88046" lon="0.32336">
        <ele>70</ele>
        <time>2022-04-05T10:04:40Z</time>
      </trkpt>
      <trkpt lat="44.88043" lon="0.32335">
        <ele>69.9</ele>
        <time>2022-04-05T10:04:41Z</time>
      </trkpt>
      <trkpt lat="44.88042" lon="0.32334">
        <ele>69.9</ele>
        <time>2022-04-05T10:04:43Z</time>
      </trkpt>
      <trkpt lat="44.8804" lon="0.32334">
        <ele>69.8</ele>
        <time>2022-04-05T10:04:44Z</time>
      </trkpt>
      <trkpt lat="44.88039" lon="0.32334">
        <ele>69.8</ele>
        <time>2022-04-05T10:04:45Z</time>
      </trkpt>
      <trkpt lat="44.88038" lon="0.32333">
        <ele>69.8</ele>
        <time>2022-04-05T10:04:46Z</time>
      </trkpt>
      <trkpt lat="44.88036" lon="0.32333">
        <ele>69.7</ele>
        <time>2022-04-05T10:04:47Z</time>
      </trkpt>
      <trkpt lat="44.88035" lon="0.32332">
        <ele>69.7</ele>
        <time>2022-04-05T10:04:48Z</time>
      </trkpt>
      <trkpt lat="44.88034" lon="0.32332">
        <ele>69.7</ele>
        <time>2022-04-05T10:04:49Z</time>
      </trkpt>
      <trkpt lat="44.88033" lon="0.32332">
        <ele>69.6</ele>
        <time>2022-04-05T10:04:50Z</time>
      </trkpt>
      <trkpt lat="44.8803" lon="0.32331">
        <ele>69.6</ele>
        <time>2022-04-05T10:04:52Z</time>
      </trkpt>
      <trkpt lat="44.88029" lon="0.32332">
        <ele>69.5</ele>
        <time>2022-04-05T10:04:53Z</time>
      </trkpt>
      <trkpt lat="44.88028" lon="0.32332">
        <ele>69.5</ele>
        <time>2022-04-05T10:04:54Z</time>
      </trkpt>
      <trkpt lat="44.88027" lon="0.32332">
        <ele>69.5</ele>
        <time>2022-04-05T10:04:55Z</time>
      </trkpt>
      <trkpt lat="44.88025" lon="0.32332">
        <ele>69.4</ele>
        <time>2022-04-05T10:04:56Z</time>
      </trkpt>
      <trkpt lat="44.88023" lon="0.32331">
        <ele>69.4</ele>
        <time>2022-04-05T10:04:57Z</time>
      </trkpt>
      <trkpt lat="44.88023" lon="0.32331">
        <ele>69.4</ele>
        <time>2022-04-05T10:04:58Z</time>
      </trkpt>
      <trkpt lat="44.88021" lon="0.32331">
        <ele>69.3</ele>
        <time>2022-04-05T10:04:59Z</time>
      </trkpt>
      <trkpt lat="44.8802" lon="0.32331">
        <ele>69.3</ele>
        <time>2022-04-05T10:05:00Z</time>
      </trkpt>
      <trkpt lat="44.88019" lon="0.32331">
        <ele>69.3</ele>
        <time>2022-04-05T10:05:01Z</time>
      </trkpt>
      <trkpt lat="44.88017" lon="0.3233">
        <ele>69.2</ele>
        <time>2022-04-05T10:05:02Z</time>
      </trkpt>
      <trkpt lat="44.88015" lon="0.3233">
        <ele>69.2</ele>
        <time>2022-04-05T10:05:03Z</time>
      </trkpt>
      <trkpt lat="44.88014" lon="0.3233">
        <ele>69.1</ele>
        <time>2022-04-05T10:05:04Z</time>
      </trkpt>
      <trkpt lat="44.88013" lon="0.3233">
        <ele>69.1</ele>
        <time>2022-04-05T10:05:05Z</time>
      </trkpt>
      <trkpt lat="44.88011" lon="0.3233">
        <ele>69.1</ele>
        <time>2022-04-05T10:05:06Z</time>
      </trkpt>
      <trkpt lat="44.88009" lon="0.3233">
        <ele>69</ele>
        <time>2022-04-05T10:05:08Z</time>
      </trkpt>
      <trkpt lat="44.88007" lon="0.3233">
        <ele>68.9</ele>
        <time>2022-04-05T10:05:09Z</time>
      </trkpt>
      <trkpt lat="44.88006" lon="0.3233">
        <ele>68.9</ele>
        <time>2022-04-05T10:05:10Z</time>
      </trkpt>
      <trkpt lat="44.88005" lon="0.3233">
        <ele>68.9</ele>
        <time>2022-04-05T10:05:11Z</time>
      </trkpt>
      <trkpt lat="44.88003" lon="0.32329">
        <ele>68.8</ele>
        <time>2022-04-05T10:05:12Z</time>
      </trkpt>
      <trkpt lat="44.88002" lon="0.32329">
        <ele>68.8</ele>
        <time>2022-04-05T10:05:13Z</time>
      </trkpt>
      <trkpt lat="44.88" lon="0.32328">
        <ele>68.7</ele>
        <time>2022-04-05T10:05:14Z</time>
      </trkpt>
      <trkpt lat="44.87999" lon="0.32328">
        <ele>68.7</ele>
        <time>2022-04-05T10:05:15Z</time>
      </trkpt>
      <trkpt lat="44.87998" lon="0.32328">
        <ele>68.7</ele>
        <time>2022-04-05T10:05:16Z</time>
      </trkpt>
      <trkpt lat="44.87996" lon="0.32328">
        <ele>68.6</ele>
        <time>2022-04-05T10:05:17Z</time>
      </trkpt>
      <trkpt lat="44.87995" lon="0.32329">
        <ele>68.6</ele>
        <time>2022-04-05T10:05:18Z</time>
      </trkpt>
      <trkpt lat="44.87994" lon="0.32329">
        <ele>68.6</ele>
        <time>2022-04-05T10:05:19Z</time>
      </trkpt>
      <trkpt lat="44.87993" lon="0.32329">
        <ele>68.5</ele>
        <time>2022-04-05T10:05:20Z</time>
      </trkpt>
      <trkpt lat="44.87992" lon="0.3233">
        <ele>68.5</ele>
        <time>2022-04-05T10:05:21Z</time>
      </trkpt>
      <trkpt lat="44.8799" lon="0.32331">
        <ele>68.4</ele>
        <time>2022-04-05T10:05:22Z</time>
      </trkpt>
      <trkpt lat="44.87989" lon="0.32332">
        <ele>68.3</ele>
        <time>2022-04-05T10:05:23Z</time>
      </trkpt>
      <trkpt lat="44.87986" lon="0.32333">
        <ele>68.2</ele>
        <time>2022-04-05T10:05:25Z</time>
      </trkpt>
      <trkpt lat="44.87985" lon="0.32334">
        <ele>68.2</ele>
        <time>2022-04-05T10:05:26Z</time>
      </trkpt>
      <trkpt lat="44.87984" lon="0.32335">
        <ele>68.1</ele>
        <time>2022-04-05T10:05:27Z</time>
      </trkpt>
      <trkpt lat="44.87983" lon="0.32336">
        <ele>68</ele>
        <time>2022-04-05T10:05:28Z</time>
      </trkpt>
      <trkpt lat="44.87981" lon="0.32337">
        <ele>68</ele>
        <time>2022-04-05T10:05:29Z</time>
      </trkpt>
      <trkpt lat="44.8798" lon="0.32338">
        <ele>67.9</ele>
        <time>2022-04-05T10:05:30Z</time>
      </trkpt>
      <trkpt lat="44.8798" lon="0.32338">
        <ele>67.8</ele>
        <time>2022-04-05T10:05:31Z</time>
      </trkpt>
      <trkpt lat="44.87978" lon="0.3234">
        <ele>67.7</ele>
        <time>2022-04-05T10:05:32Z</time>
      </trkpt>
      <trkpt lat="44.87976" lon="0.32341">
        <ele>67.6</ele>
        <time>2022-04-05T10:05:33Z</time>
      </trkpt>
      <trkpt lat="44.87975" lon="0.32342">
        <ele>67.5</ele>
        <time>2022-04-05T10:05:34Z</time>
      </trkpt>
      <trkpt lat="44.87975" lon="0.32342">
        <ele>67.5</ele>
        <time>2022-04-05T10:05:35Z</time>
      </trkpt>
      <trkpt lat="44.87972" lon="0.32345">
        <ele>67.3</ele>
        <time>2022-04-05T10:05:37Z</time>
      </trkpt>
      <trkpt lat="44.87972" lon="0.32346">
        <ele>67.3</ele>
        <time>2022-04-05T10:05:38Z</time>
      </trkpt>
      <trkpt lat="44.87971" lon="0.32347">
        <ele>67.2</ele>
        <time>2022-04-05T10:05:39Z</time>
      </trkpt>
      <trkpt lat="44.8797" lon="0.32348">
        <ele>67.1</ele>
        <time>2022-04-05T10:05:40Z</time>
      </trkpt>
      <trkpt lat="44.8797" lon="0.3235">
        <ele>67.1</ele>
        <time>2022-04-05T10:05:41Z</time>
      </trkpt>
      <trkpt lat="44.87969" lon="0.32352">
        <ele>66.9</ele>
        <time>2022-04-05T10:05:43Z</time>
      </trkpt>
      <trkpt lat="44.87968" lon="0.32354">
        <ele>66.9</ele>
        <time>2022-04-05T10:05:44Z</time>
      </trkpt>
      <trkpt lat="44.87968" lon="0.32355">
        <ele>66.8</ele>
        <time>2022-04-05T10:05:45Z</time>
      </trkpt>
      <trkpt lat="44.87967" lon="0.32356">
        <ele>66.7</ele>
        <time>2022-04-05T10:05:46Z</time>
      </trkpt>
      <trkpt lat="44.87965" lon="0.32358">
        <ele>66.6</ele>
        <time>2022-04-05T10:05:47Z</time>
      </trkpt>
      <trkpt lat="44.87964" lon="0.32357">
        <ele>66.5</ele>
        <time>2022-04-05T10:05:48Z</time>
      </trkpt>
      <trkpt lat="44.87962" lon="0.32358">
        <ele>66.4</ele>
        <time>2022-04-05T10:05:49Z</time>
      </trkpt>
      <trkpt lat="44.87961" lon="0.32359">
        <ele>66.3</ele>
        <time>2022-04-05T10:05:51Z</time>
      </trkpt>
      <trkpt lat="44.87959" lon="0.3236">
        <ele>66.2</ele>
        <time>2022-04-05T10:05:52Z</time>
      </trkpt>
      <trkpt lat="44.87958" lon="0.32361">
        <ele>66.1</ele>
        <time>2022-04-05T10:05:53Z</time>
      </trkpt>
      <trkpt lat="44.87957" lon="0.32362">
        <ele>66</ele>
        <time>2022-04-05T10:05:55Z</time>
      </trkpt>
      <trkpt lat="44.87956" lon="0.32363">
        <ele>65.9</ele>
        <time>2022-04-05T10:05:56Z</time>
      </trkpt>
      <trkpt lat="44.87954" lon="0.32366">
        <ele>65.7</ele>
        <time>2022-04-05T10:05:57Z</time>
      </trkpt>
      <trkpt lat="44.87952" lon="0.32367">
        <ele>65.5</ele>
        <time>2022-04-05T10:05:59Z</time>
      </trkpt>
      <trkpt lat="44.87951" lon="0.32368">
        <ele>65.4</ele>
        <time>2022-04-05T10:06:00Z</time>
      </trkpt>
      <trkpt lat="44.8795" lon="0.32368">
        <ele>65.3</ele>
        <time>2022-04-05T10:06:01Z</time>
      </trkpt>
      <trkpt lat="44.87948" lon="0.3237">
        <ele>65.1</ele>
        <time>2022-04-05T10:06:02Z</time>
      </trkpt>
      <trkpt lat="44.87947" lon="0.3237">
        <ele>65</ele>
        <time>2022-04-05T10:06:03Z</time>
      </trkpt>
      <trkpt lat="44.87945" lon="0.32371">
        <ele>64.8</ele>
        <time>2022-04-05T10:06:04Z</time>
      </trkpt>
      <trkpt lat="44.87944" lon="0.32371">
        <ele>64.8</ele>
        <time>2022-04-05T10:06:05Z</time>
      </trkpt>
      <trkpt lat="44.87944" lon="0.32371">
        <ele>64.7</ele>
        <time>2022-04-05T10:06:06Z</time>
      </trkpt>
      <trkpt lat="44.87941" lon="0.32373">
        <ele>64.4</ele>
        <time>2022-04-05T10:06:07Z</time>
      </trkpt>
      <trkpt lat="44.8794" lon="0.32373">
        <ele>64.4</ele>
        <time>2022-04-05T10:06:08Z</time>
      </trkpt>
      <trkpt lat="44.87939" lon="0.32373">
        <ele>64.2</ele>
        <time>2022-04-05T10:06:09Z</time>
      </trkpt>
      <trkpt lat="44.87937" lon="0.32374">
        <ele>64.1</ele>
        <time>2022-04-05T10:06:11Z</time>
      </trkpt>
      <trkpt lat="44.87935" lon="0.32374">
        <ele>63.9</ele>
        <time>2022-04-05T10:06:12Z</time>
      </trkpt>
      <trkpt lat="44.87934" lon="0.32374">
        <ele>63.8</ele>
        <time>2022-04-05T10:06:13Z</time>
      </trkpt>
      <trkpt lat="44.87932" lon="0.32374">
        <ele>63.7</ele>
        <time>2022-04-05T10:06:14Z</time>
      </trkpt>
      <trkpt lat="44.87931" lon="0.32375">
        <ele>63.5</ele>
        <time>2022-04-05T10:06:16Z</time>
      </trkpt>
      <trkpt lat="44.87928" lon="0.32375">
        <ele>63.3</ele>
        <time>2022-04-05T10:06:17Z</time>
      </trkpt>
      <trkpt lat="44.87928" lon="0.32375">
        <ele>63.3</ele>
        <time>2022-04-05T10:06:18Z</time>
      </trkpt>
      <trkpt lat="44.87927" lon="0.32376">
        <ele>63.2</ele>
        <time>2022-04-05T10:06:19Z</time>
      </trkpt>
      <trkpt lat="44.87926" lon="0.32376">
        <ele>63.1</ele>
        <time>2022-04-05T10:06:20Z</time>
      </trkpt>
      <trkpt lat="44.87924" lon="0.32377">
        <ele>63</ele>
        <time>2022-04-05T10:06:21Z</time>
      </trkpt>
      <trkpt lat="44.87922" lon="0.32377">
        <ele>62.8</ele>
        <time>2022-04-05T10:06:22Z</time>
      </trkpt>
      <trkpt lat="44.87921" lon="0.32377">
        <ele>62.7</ele>
        <time>2022-04-05T10:06:23Z</time>
      </trkpt>
      <trkpt lat="44.8792" lon="0.32377">
        <ele>62.6</ele>
        <time>2022-04-05T10:06:24Z</time>
      </trkpt>
      <trkpt lat="44.87919" lon="0.32377">
        <ele>62.6</ele>
        <time>2022-04-05T10:06:25Z</time>
      </trkpt>
      <trkpt lat="44.87918" lon="0.32376">
        <ele>62.4</ele>
        <time>2022-04-05T10:06:26Z</time>
      </trkpt>
      <trkpt lat="44.87915" lon="0.32376">
        <ele>62.2</ele>
        <time>2022-04-05T10:06:27Z</time>
      </trkpt>
      <trkpt lat="44.87914" lon="0.32375">
        <ele>62.2</ele>
        <time>2022-04-05T10:06:28Z</time>
      </trkpt>
      <trkpt lat="44.87913" lon="0.32375">
        <ele>62.1</ele>
        <time>2022-04-05T10:06:29Z</time>
      </trkpt>
      <trkpt lat="44.87912" lon="0.32374">
        <ele>62</ele>
        <time>2022-04-05T10:06:30Z</time>
      </trkpt>
      <trkpt lat="44.87911" lon="0.32374">
        <ele>61.8</ele>
        <time>2022-04-05T10:06:31Z</time>
      </trkpt>
      <trkpt lat="44.87909" lon="0.32373">
        <ele>61.7</ele>
        <time>2022-04-05T10:06:32Z</time>
      </trkpt>
      <trkpt lat="44.87908" lon="0.32372">
        <ele>61.6</ele>
        <time>2022-04-05T10:06:34Z</time>
      </trkpt>
      <trkpt lat="44.87906" lon="0.32372">
        <ele>61.4</ele>
        <time>2022-04-05T10:06:35Z</time>
      </trkpt>
      <trkpt lat="44.87905" lon="0.32371">
        <ele>61.3</ele>
        <time>2022-04-05T10:06:36Z</time>
      </trkpt>
      <trkpt lat="44.87903" lon="0.32371">
        <ele>61.1</ele>
        <time>2022-04-05T10:06:37Z</time>
      </trkpt>
      <trkpt lat="44.87901" lon="0.3237">
        <ele>60.9</ele>
        <time>2022-04-05T10:06:38Z</time>
      </trkpt>
      <trkpt lat="44.879" lon="0.32369">
        <ele>60.8</ele>
        <time>2022-04-05T10:06:40Z</time>
      </trkpt>
      <trkpt lat="44.87899" lon="0.32369">
        <ele>60.7</ele>
        <time>2022-04-05T10:06:41Z</time>
      </trkpt>
      <trkpt lat="44.87897" lon="0.32367">
        <ele>60.5</ele>
        <time>2022-04-05T10:06:42Z</time>
      </trkpt>
      <trkpt lat="44.87896" lon="0.32367">
        <ele>60.5</ele>
        <time>2022-04-05T10:06:43Z</time>
      </trkpt>
      <trkpt lat="44.87896" lon="0.32366">
        <ele>60.4</ele>
        <time>2022-04-05T10:06:44Z</time>
      </trkpt>
      <trkpt lat="44.87894" lon="0.32364">
        <ele>60.2</ele>
        <time>2022-04-05T10:06:46Z</time>
      </trkpt>
      <trkpt lat="44.87893" lon="0.32364">
        <ele>60.1</ele>
        <time>2022-04-05T10:06:47Z</time>
      </trkpt>
      <trkpt lat="44.87892" lon="0.32363">
        <ele>60</ele>
        <time>2022-04-05T10:06:48Z</time>
      </trkpt>
      <trkpt lat="44.87891" lon="0.32363">
        <ele>59.9</ele>
        <time>2022-04-05T10:06:49Z</time>
      </trkpt>
      <trkpt lat="44.8789" lon="0.32362">
        <ele>59.8</ele>
        <time>2022-04-05T10:06:50Z</time>
      </trkpt>
      <trkpt lat="44.87889" lon="0.32362">
        <ele>59.7</ele>
        <time>2022-04-05T10:06:51Z</time>
      </trkpt>
      <trkpt lat="44.87886" lon="0.32361">
        <ele>59.5</ele>
        <time>2022-04-05T10:06:52Z</time>
      </trkpt>
      <trkpt lat="44.87886" lon="0.32361">
        <ele>59.5</ele>
        <time>2022-04-05T10:06:53Z</time>
      </trkpt>
      <trkpt lat="44.87885" lon="0.32361">
        <ele>59.4</ele>
        <time>2022-04-05T10:06:54Z</time>
      </trkpt>
      <trkpt lat="44.87883" lon="0.32361">
        <ele>59.2</ele>
        <time>2022-04-05T10:06:56Z</time>
      </trkpt>
      <trkpt lat="44.87881" lon="0.3236">
        <ele>59</ele>
        <time>2022-04-05T10:06:57Z</time>
      </trkpt>
      <trkpt lat="44.8788" lon="0.32359">
        <ele>59</ele>
        <time>2022-04-05T10:06:58Z</time>
      </trkpt>
      <trkpt lat="44.87879" lon="0.32359">
        <ele>58.9</ele>
        <time>2022-04-05T10:06:59Z</time>
      </trkpt>
      <trkpt lat="44.87878" lon="0.32358">
        <ele>58.8</ele>
        <time>2022-04-05T10:07:00Z</time>
      </trkpt>
      <trkpt lat="44.87874" lon="0.32357">
        <ele>58.5</ele>
        <time>2022-04-05T10:07:03Z</time>
      </trkpt>
      <trkpt lat="44.87873" lon="0.32356">
        <ele>58.4</ele>
        <time>2022-04-05T10:07:04Z</time>
      </trkpt>
      <trkpt lat="44.87872" lon="0.32356">
        <ele>58.3</ele>
        <time>2022-04-05T10:07:05Z</time>
      </trkpt>
      <trkpt lat="44.87871" lon="0.32356">
        <ele>58.2</ele>
        <time>2022-04-05T10:07:06Z</time>
      </trkpt>
      <trkpt lat="44.8787" lon="0.32356">
        <ele>58.1</ele>
        <time>2022-04-05T10:07:07Z</time>
      </trkpt>
      <trkpt lat="44.87869" lon="0.32356">
        <ele>58</ele>
        <time>2022-04-05T10:07:08Z</time>
      </trkpt>
      <trkpt lat="44.87868" lon="0.32355">
        <ele>58</ele>
        <time>2022-04-05T10:07:09Z</time>
      </trkpt>
      <trkpt lat="44.87867" lon="0.32352">
        <ele>57.8</ele>
        <time>2022-04-05T10:07:10Z</time>
      </trkpt>
      <trkpt lat="44.87866" lon="0.32351">
        <ele>57.7</ele>
        <time>2022-04-05T10:07:12Z</time>
      </trkpt>
      <trkpt lat="44.87865" lon="0.3235">
        <ele>57.6</ele>
        <time>2022-04-05T10:07:13Z</time>
      </trkpt>
      <trkpt lat="44.87864" lon="0.3235">
        <ele>57.5</ele>
        <time>2022-04-05T10:07:14Z</time>
      </trkpt>
      <trkpt lat="44.87863" lon="0.32349">
        <ele>57.4</ele>
        <time>2022-04-05T10:07:15Z</time>
      </trkpt>
      <trkpt lat="44.87862" lon="0.32348">
        <ele>57.3</ele>
        <time>2022-04-05T10:07:16Z</time>
      </trkpt>
      <trkpt lat="44.8786" lon="0.32347">
        <ele>57.1</ele>
        <time>2022-04-05T10:07:17Z</time>
      </trkpt>
      <trkpt lat="44.87858" lon="0.32347">
        <ele>57</ele>
        <time>2022-04-05T10:07:18Z</time>
      </trkpt>
      <trkpt lat="44.87857" lon="0.32347">
        <ele>57</ele>
        <time>2022-04-05T10:07:19Z</time>
      </trkpt>
      <trkpt lat="44.87856" lon="0.32346">
        <ele>56.9</ele>
        <time>2022-04-05T10:07:20Z</time>
      </trkpt>
      <trkpt lat="44.87856" lon="0.32346">
        <ele>56.8</ele>
        <time>2022-04-05T10:07:21Z</time>
      </trkpt>
      <trkpt lat="44.87854" lon="0.32345">
        <ele>56.6</ele>
        <time>2022-04-05T10:07:22Z</time>
      </trkpt>
      <trkpt lat="44.87853" lon="0.32345">
        <ele>56.6</ele>
        <time>2022-04-05T10:07:23Z</time>
      </trkpt>
      <trkpt lat="44.87852" lon="0.32345">
        <ele>56.5</ele>
        <time>2022-04-05T10:07:25Z</time>
      </trkpt>
      <trkpt lat="44.8785" lon="0.32345">
        <ele>56.3</ele>
        <time>2022-04-05T10:07:26Z</time>
      </trkpt>
      <trkpt lat="44.87849" lon="0.32345">
        <ele>56.2</ele>
        <time>2022-04-05T10:07:27Z</time>
      </trkpt>
      <trkpt lat="44.87847" lon="0.32345">
        <ele>56.1</ele>
        <time>2022-04-05T10:07:28Z</time>
      </trkpt>
      <trkpt lat="44.87846" lon="0.32344">
        <ele>56</ele>
        <time>2022-04-05T10:07:29Z</time>
      </trkpt>
      <trkpt lat="44.87845" lon="0.32344">
        <ele>55.9</ele>
        <time>2022-04-05T10:07:30Z</time>
      </trkpt>
      <trkpt lat="44.87844" lon="0.32343">
        <ele>55.8</ele>
        <time>2022-04-05T10:07:31Z</time>
      </trkpt>
      <trkpt lat="44.87841" lon="0.32342">
        <ele>55.5</ele>
        <time>2022-04-05T10:07:32Z</time>
      </trkpt>
      <trkpt lat="44.87841" lon="0.32343">
        <ele>55.5</ele>
        <time>2022-04-05T10:07:33Z</time>
      </trkpt>
      <trkpt lat="44.8784" lon="0.32343">
        <ele>55.4</ele>
        <time>2022-04-05T10:07:34Z</time>
      </trkpt>
      <trkpt lat="44.87838" lon="0.32343">
        <ele>55.2</ele>
        <time>2022-04-05T10:07:35Z</time>
      </trkpt>
      <trkpt lat="44.87836" lon="0.32343">
        <ele>55</ele>
        <time>2022-04-05T10:07:37Z</time>
      </trkpt>
      <trkpt lat="44.87835" lon="0.32344">
        <ele>54.9</ele>
        <time>2022-04-05T10:07:38Z</time>
      </trkpt>
      <trkpt lat="44.87833" lon="0.32344">
        <ele>54.8</ele>
        <time>2022-04-05T10:07:40Z</time>
      </trkpt>
      <trkpt lat="44.87832" lon="0.32344">
        <ele>54.7</ele>
        <time>2022-04-05T10:07:41Z</time>
      </trkpt>
      <trkpt lat="44.87831" lon="0.32344">
        <ele>54.5</ele>
        <time>2022-04-05T10:07:42Z</time>
      </trkpt>
      <trkpt lat="44.87829" lon="0.32343">
        <ele>54.4</ele>
        <time>2022-04-05T10:07:43Z</time>
      </trkpt>
      <trkpt lat="44.87829" lon="0.32343">
        <ele>54.3</ele>
        <time>2022-04-05T10:07:44Z</time>
      </trkpt>
      <trkpt lat="44.87828" lon="0.32342">
        <ele>54.2</ele>
        <time>2022-04-05T10:07:45Z</time>
      </trkpt>
      <trkpt lat="44.87827" lon="0.32342">
        <ele>54.1</ele>
        <time>2022-04-05T10:07:46Z</time>
      </trkpt>
      <trkpt lat="44.87826" lon="0.32342">
        <ele>54</ele>
        <time>2022-04-05T10:07:47Z</time>
      </trkpt>
      <trkpt lat="44.87824" lon="0.32342">
        <ele>53.8</ele>
        <time>2022-04-05T10:07:48Z</time>
      </trkpt>
      <trkpt lat="44.87822" lon="0.32342">
        <ele>53.7</ele>
        <time>2022-04-05T10:07:49Z</time>
      </trkpt>
      <trkpt lat="44.87821" lon="0.32342">
        <ele>53.6</ele>
        <time>2022-04-05T10:07:50Z</time>
      </trkpt>
      <trkpt lat="44.8782" lon="0.32342">
        <ele>53.5</ele>
        <time>2022-04-05T10:07:51Z</time>
      </trkpt>
      <trkpt lat="44.87818" lon="0.32342">
        <ele>53.3</ele>
        <time>2022-04-05T10:07:52Z</time>
      </trkpt>
      <trkpt lat="44.87817" lon="0.32341">
        <ele>53.2</ele>
        <time>2022-04-05T10:07:53Z</time>
      </trkpt>
      <trkpt lat="44.87816" lon="0.3234">
        <ele>53.1</ele>
        <time>2022-04-05T10:07:55Z</time>
      </trkpt>
      <trkpt lat="44.87814" lon="0.3234">
        <ele>53</ele>
        <time>2022-04-05T10:07:56Z</time>
      </trkpt>
      <trkpt lat="44.87813" lon="0.32339">
        <ele>52.9</ele>
        <time>2022-04-05T10:07:57Z</time>
      </trkpt>
      <trkpt lat="44.87811" lon="0.32339">
        <ele>52.7</ele>
        <time>2022-04-05T10:07:58Z</time>
      </trkpt>
      <trkpt lat="44.8781" lon="0.32339">
        <ele>52.7</ele>
        <time>2022-04-05T10:07:59Z</time>
      </trkpt>
      <trkpt lat="44.87809" lon="0.32338">
        <ele>52.6</ele>
        <time>2022-04-05T10:08:00Z</time>
      </trkpt>
      <trkpt lat="44.87808" lon="0.32338">
        <ele>52.5</ele>
        <time>2022-04-05T10:08:01Z</time>
      </trkpt>
      <trkpt lat="44.87805" lon="0.32335">
        <ele>52.3</ele>
        <time>2022-04-05T10:08:03Z</time>
      </trkpt>
      <trkpt lat="44.87805" lon="0.32335">
        <ele>52.2</ele>
        <time>2022-04-05T10:08:04Z</time>
      </trkpt>
      <trkpt lat="44.87803" lon="0.32334">
        <ele>52.1</ele>
        <time>2022-04-05T10:08:05Z</time>
      </trkpt>
      <trkpt lat="44.87802" lon="0.32334">
        <ele>52</ele>
        <time>2022-04-05T10:08:06Z</time>
      </trkpt>
      <trkpt lat="44.87801" lon="0.32334">
        <ele>52</ele>
        <time>2022-04-05T10:08:07Z</time>
      </trkpt>
      <trkpt lat="44.878" lon="0.32334">
        <ele>51.8</ele>
        <time>2022-04-05T10:08:08Z</time>
      </trkpt>
      <trkpt lat="44.87799" lon="0.32334">
        <ele>51.8</ele>
        <time>2022-04-05T10:08:09Z</time>
      </trkpt>
      <trkpt lat="44.87798" lon="0.32334">
        <ele>51.7</ele>
        <time>2022-04-05T10:08:10Z</time>
      </trkpt>
      <trkpt lat="44.87797" lon="0.32333">
        <ele>51.6</ele>
        <time>2022-04-05T10:08:11Z</time>
      </trkpt>
      <trkpt lat="44.87794" lon="0.32333">
        <ele>51.5</ele>
        <time>2022-04-05T10:08:13Z</time>
      </trkpt>
      <trkpt lat="44.87793" lon="0.32333">
        <ele>51.4</ele>
        <time>2022-04-05T10:08:14Z</time>
      </trkpt>
      <trkpt lat="44.87792" lon="0.32333">
        <ele>51.3</ele>
        <time>2022-04-05T10:08:15Z</time>
      </trkpt>
      <trkpt lat="44.87791" lon="0.32333">
        <ele>51.3</ele>
        <time>2022-04-05T10:08:16Z</time>
      </trkpt>
      <trkpt lat="44.8779" lon="0.32332">
        <ele>51.2</ele>
        <time>2022-04-05T10:08:17Z</time>
      </trkpt>
      <trkpt lat="44.87788" lon="0.32332">
        <ele>51.1</ele>
        <time>2022-04-05T10:08:18Z</time>
      </trkpt>
      <trkpt lat="44.87786" lon="0.32331">
        <ele>50.9</ele>
        <time>2022-04-05T10:08:19Z</time>
      </trkpt>
      <trkpt lat="44.87786" lon="0.3233">
        <ele>50.8</ele>
        <time>2022-04-05T10:08:20Z</time>
      </trkpt>
      <trkpt lat="44.87785" lon="0.32329">
        <ele>50.8</ele>
        <time>2022-04-05T10:08:21Z</time>
      </trkpt>
      <trkpt lat="44.87784" lon="0.32329">
        <ele>50.7</ele>
        <time>2022-04-05T10:08:22Z</time>
      </trkpt>
      <trkpt lat="44.87782" lon="0.32328">
        <ele>50.6</ele>
        <time>2022-04-05T10:08:23Z</time>
      </trkpt>
      <trkpt lat="44.87781" lon="0.32327">
        <ele>50.5</ele>
        <time>2022-04-05T10:08:24Z</time>
      </trkpt>
      <trkpt lat="44.8778" lon="0.32326">
        <ele>50.4</ele>
        <time>2022-04-05T10:08:25Z</time>
      </trkpt>
      <trkpt lat="44.87778" lon="0.32325">
        <ele>50.2</ele>
        <time>2022-04-05T10:08:26Z</time>
      </trkpt>
      <trkpt lat="44.87777" lon="0.32325">
        <ele>50.1</ele>
        <time>2022-04-05T10:08:27Z</time>
      </trkpt>
      <trkpt lat="44.87776" lon="0.32324">
        <ele>50</ele>
        <time>2022-04-05T10:08:28Z</time>
      </trkpt>
      <trkpt lat="44.87775" lon="0.32324">
        <ele>50</ele>
        <time>2022-04-05T10:08:29Z</time>
      </trkpt>
      <trkpt lat="44.87774" lon="0.32323">
        <ele>49.9</ele>
        <time>2022-04-05T10:08:30Z</time>
      </trkpt>
      <trkpt lat="44.87772" lon="0.32322">
        <ele>49.7</ele>
        <time>2022-04-05T10:08:32Z</time>
      </trkpt>
      <trkpt lat="44.8777" lon="0.32321">
        <ele>49.5</ele>
        <time>2022-04-05T10:08:33Z</time>
      </trkpt>
      <trkpt lat="44.87769" lon="0.32321">
        <ele>49.4</ele>
        <time>2022-04-05T10:08:34Z</time>
      </trkpt>
      <trkpt lat="44.87768" lon="0.3232">
        <ele>49.4</ele>
        <time>2022-04-05T10:08:35Z</time>
      </trkpt>
      <trkpt lat="44.87766" lon="0.32319">
        <ele>49.1</ele>
        <time>2022-04-05T10:08:36Z</time>
      </trkpt>
      <trkpt lat="44.87765" lon="0.32318">
        <ele>49</ele>
        <time>2022-04-05T10:08:37Z</time>
      </trkpt>
      <trkpt lat="44.87764" lon="0.32318">
        <ele>48.9</ele>
        <time>2022-04-05T10:08:38Z</time>
      </trkpt>
      <trkpt lat="44.87762" lon="0.32318">
        <ele>48.7</ele>
        <time>2022-04-05T10:08:39Z</time>
      </trkpt>
      <trkpt lat="44.87761" lon="0.32319">
        <ele>48.6</ele>
        <time>2022-04-05T10:08:40Z</time>
      </trkpt>
      <trkpt lat="44.8776" lon="0.32319">
        <ele>48.5</ele>
        <time>2022-04-05T10:08:41Z</time>
      </trkpt>
      <trkpt lat="44.87758" lon="0.3232">
        <ele>48.2</ele>
        <time>2022-04-05T10:08:43Z</time>
      </trkpt>
      <trkpt lat="44.87757" lon="0.32321">
        <ele>48.1</ele>
        <time>2022-04-05T10:08:44Z</time>
      </trkpt>
      <trkpt lat="44.87755" lon="0.32323">
        <ele>47.8</ele>
        <time>2022-04-05T10:08:45Z</time>
      </trkpt>
      <trkpt lat="44.87754" lon="0.32324">
        <ele>47.7</ele>
        <time>2022-04-05T10:08:46Z</time>
      </trkpt>
      <trkpt lat="44.87753" lon="0.32324">
        <ele>47.5</ele>
        <time>2022-04-05T10:08:47Z</time>
      </trkpt>
      <trkpt lat="44.87753" lon="0.32324">
        <ele>47.5</ele>
        <time>2022-04-05T10:08:48Z</time>
      </trkpt>
      <trkpt lat="44.87752" lon="0.32323">
        <ele>47.4</ele>
        <time>2022-04-05T10:08:49Z</time>
      </trkpt>
      <trkpt lat="44.87751" lon="0.32323">
        <ele>47.2</ele>
        <time>2022-04-05T10:08:51Z</time>
      </trkpt>
      <trkpt lat="44.8775" lon="0.32322">
        <ele>47.1</ele>
        <time>2022-04-05T10:08:52Z</time>
      </trkpt>
      <trkpt lat="44.87749" lon="0.32321">
        <ele>46.9</ele>
        <time>2022-04-05T10:08:53Z</time>
      </trkpt>
      <trkpt lat="44.87748" lon="0.3232">
        <ele>46.8</ele>
        <time>2022-04-05T10:08:54Z</time>
      </trkpt>
      <trkpt lat="44.87748" lon="0.3232">
        <ele>46.7</ele>
        <time>2022-04-05T10:08:55Z</time>
      </trkpt>
      <trkpt lat="44.87747" lon="0.32319">
        <ele>46.6</ele>
        <time>2022-04-05T10:08:56Z</time>
      </trkpt>
      <trkpt lat="44.87746" lon="0.32318">
        <ele>46.4</ele>
        <time>2022-04-05T10:08:57Z</time>
      </trkpt>
      <trkpt lat="44.87745" lon="0.32317">
        <ele>46.3</ele>
        <time>2022-04-05T10:08:58Z</time>
      </trkpt>
      <trkpt lat="44.87744" lon="0.32317">
        <ele>46.2</ele>
        <time>2022-04-05T10:08:59Z</time>
      </trkpt>
      <trkpt lat="44.87744" lon="0.32316">
        <ele>46</ele>
        <time>2022-04-05T10:09:00Z</time>
      </trkpt>
      <trkpt lat="44.87743" lon="0.32314">
        <ele>45.9</ele>
        <time>2022-04-05T10:09:01Z</time>
      </trkpt>
      <trkpt lat="44.87741" lon="0.32313">
        <ele>45.6</ele>
        <time>2022-04-05T10:09:02Z</time>
      </trkpt>
      <trkpt lat="44.8774" lon="0.32312">
        <ele>45.5</ele>
        <time>2022-04-05T10:09:04Z</time>
      </trkpt>
      <trkpt lat="44.87739" lon="0.32311">
        <ele>45.4</ele>
        <time>2022-04-05T10:09:05Z</time>
      </trkpt>
      <trkpt lat="44.87739" lon="0.3231">
        <ele>45.3</ele>
        <time>2022-04-05T10:09:06Z</time>
      </trkpt>
      <trkpt lat="44.87737" lon="0.3231">
        <ele>45.1</ele>
        <time>2022-04-05T10:09:07Z</time>
      </trkpt>
      <trkpt lat="44.87735" lon="0.32309">
        <ele>44.9</ele>
        <time>2022-04-05T10:09:08Z</time>
      </trkpt>
      <trkpt lat="44.87734" lon="0.3231">
        <ele>44.7</ele>
        <time>2022-04-05T10:09:10Z</time>
      </trkpt>
      <trkpt lat="44.87733" lon="0.3231">
        <ele>44.6</ele>
        <time>2022-04-05T10:09:11Z</time>
      </trkpt>
      <trkpt lat="44.87732" lon="0.32311">
        <ele>44.4</ele>
        <time>2022-04-05T10:09:12Z</time>
      </trkpt>
      <trkpt lat="44.87729" lon="0.32311">
        <ele>44.1</ele>
        <time>2022-04-05T10:09:13Z</time>
      </trkpt>
      <trkpt lat="44.87729" lon="0.32311">
        <ele>44.1</ele>
        <time>2022-04-05T10:09:14Z</time>
      </trkpt>
      <trkpt lat="44.87728" lon="0.32311">
        <ele>44</ele>
        <time>2022-04-05T10:09:15Z</time>
      </trkpt>
      <trkpt lat="44.87727" lon="0.32311">
        <ele>43.8</ele>
        <time>2022-04-05T10:09:16Z</time>
      </trkpt>
      <trkpt lat="44.87725" lon="0.3231">
        <ele>43.7</ele>
        <time>2022-04-05T10:09:17Z</time>
      </trkpt>
      <trkpt lat="44.87723" lon="0.3231">
        <ele>43.4</ele>
        <time>2022-04-05T10:09:18Z</time>
      </trkpt>
      <trkpt lat="44.87723" lon="0.32309">
        <ele>43.4</ele>
        <time>2022-04-05T10:09:19Z</time>
      </trkpt>
      <trkpt lat="44.87722" lon="0.32309">
        <ele>43.2</ele>
        <time>2022-04-05T10:09:20Z</time>
      </trkpt>
      <trkpt lat="44.87721" lon="0.32309">
        <ele>43.1</ele>
        <time>2022-04-05T10:09:21Z</time>
      </trkpt>
      <trkpt lat="44.87719" lon="0.32308">
        <ele>43</ele>
        <time>2022-04-05T10:09:22Z</time>
      </trkpt>
      <trkpt lat="44.87717" lon="0.32308">
        <ele>42.7</ele>
        <time>2022-04-05T10:09:23Z</time>
      </trkpt>
      <trkpt lat="44.87717" lon="0.32308">
        <ele>42.7</ele>
        <time>2022-04-05T10:09:24Z</time>
      </trkpt>
      <trkpt lat="44.87716" lon="0.32308">
        <ele>42.6</ele>
        <time>2022-04-05T10:09:25Z</time>
      </trkpt>
      <trkpt lat="44.87714" lon="0.32308">
        <ele>42.4</ele>
        <time>2022-04-05T10:09:27Z</time>
      </trkpt>
      <trkpt lat="44.87712" lon="0.32307">
        <ele>42.2</ele>
        <time>2022-04-05T10:09:28Z</time>
      </trkpt>
      <trkpt lat="44.87711" lon="0.32308">
        <ele>42.1</ele>
        <time>2022-04-05T10:09:29Z</time>
      </trkpt>
      <trkpt lat="44.8771" lon="0.32307">
        <ele>42</ele>
        <time>2022-04-05T10:09:30Z</time>
      </trkpt>
      <trkpt lat="44.87708" lon="0.32307">
        <ele>41.9</ele>
        <time>2022-04-05T10:09:31Z</time>
      </trkpt>
      <trkpt lat="44.87707" lon="0.32306">
        <ele>41.7</ele>
        <time>2022-04-05T10:09:32Z</time>
      </trkpt>
      <trkpt lat="44.87706" lon="0.32305">
        <ele>41.6</ele>
        <time>2022-04-05T10:09:33Z</time>
      </trkpt>
      <trkpt lat="44.87705" lon="0.32304">
        <ele>41.5</ele>
        <time>2022-04-05T10:09:34Z</time>
      </trkpt>
      <trkpt lat="44.87704" lon="0.32303">
        <ele>41.4</ele>
        <time>2022-04-05T10:09:35Z</time>
      </trkpt>
      <trkpt lat="44.87702" lon="0.32303">
        <ele>41.2</ele>
        <time>2022-04-05T10:09:36Z</time>
      </trkpt>
      <trkpt lat="44.87701" lon="0.32302">
        <ele>41.1</ele>
        <time>2022-04-05T10:09:37Z</time>
      </trkpt>
      <trkpt lat="44.877" lon="0.32301">
        <ele>40.9</ele>
        <time>2022-04-05T10:09:38Z</time>
      </trkpt>
      <trkpt lat="44.87699" lon="0.32301">
        <ele>40.9</ele>
        <time>2022-04-05T10:09:39Z</time>
      </trkpt>
      <trkpt lat="44.87698" lon="0.32301">
        <ele>40.7</ele>
        <time>2022-04-05T10:09:40Z</time>
      </trkpt>
      <trkpt lat="44.87697" lon="0.32301">
        <ele>40.6</ele>
        <time>2022-04-05T10:09:41Z</time>
      </trkpt>
      <trkpt lat="44.87696" lon="0.32302">
        <ele>40.5</ele>
        <time>2022-04-05T10:09:42Z</time>
      </trkpt>
      <trkpt lat="44.87694" lon="0.32302">
        <ele>40.3</ele>
        <time>2022-04-05T10:09:43Z</time>
      </trkpt>
      <trkpt lat="44.87693" lon="0.32302">
        <ele>40.2</ele>
        <time>2022-04-05T10:09:44Z</time>
      </trkpt>
      <trkpt lat="44.87692" lon="0.32301">
        <ele>40.1</ele>
        <time>2022-04-05T10:09:45Z</time>
      </trkpt>
      <trkpt lat="44.87691" lon="0.32301">
        <ele>39.9</ele>
        <time>2022-04-05T10:09:46Z</time>
      </trkpt>
      <trkpt lat="44.87688" lon="0.323">
        <ele>39.6</ele>
        <time>2022-04-05T10:09:48Z</time>
      </trkpt>
      <trkpt lat="44.87688" lon="0.32299">
        <ele>39.5</ele>
        <time>2022-04-05T10:09:49Z</time>
      </trkpt>
      <trkpt lat="44.87687" lon="0.32297">
        <ele>39.4</ele>
        <time>2022-04-05T10:09:50Z</time>
      </trkpt>
      <trkpt lat="44.87686" lon="0.32296">
        <ele>39.2</ele>
        <time>2022-04-05T10:09:51Z</time>
      </trkpt>
      <trkpt lat="44.87683" lon="0.32295">
        <ele>39</ele>
        <time>2022-04-05T10:09:52Z</time>
      </trkpt>
      <trkpt lat="44.87682" lon="0.32294">
        <ele>38.8</ele>
        <time>2022-04-05T10:09:54Z</time>
      </trkpt>
      <trkpt lat="44.87681" lon="0.32294">
        <ele>38.7</ele>
        <time>2022-04-05T10:09:55Z</time>
      </trkpt>
      <trkpt lat="44.8768" lon="0.32293">
        <ele>38.6</ele>
        <time>2022-04-05T10:09:56Z</time>
      </trkpt>
      <trkpt lat="44.87679" lon="0.32293">
        <ele>38.5</ele>
        <time>2022-04-05T10:09:57Z</time>
      </trkpt>
      <trkpt lat="44.87677" lon="0.32292">
        <ele>38.3</ele>
        <time>2022-04-05T10:09:58Z</time>
      </trkpt>
      <trkpt lat="44.87676" lon="0.32291">
        <ele>38.3</ele>
        <time>2022-04-05T10:09:59Z</time>
      </trkpt>
      <trkpt lat="44.87675" lon="0.32291">
        <ele>38.2</ele>
        <time>2022-04-05T10:10:00Z</time>
      </trkpt>
      <trkpt lat="44.87674" lon="0.3229">
        <ele>38.1</ele>
        <time>2022-04-05T10:10:01Z</time>
      </trkpt>
      <trkpt lat="44.87672" lon="0.32289">
        <ele>38</ele>
        <time>2022-04-05T10:10:02Z</time>
      </trkpt>
      <trkpt lat="44.8767" lon="0.32288">
        <ele>37.8</ele>
        <time>2022-04-05T10:10:03Z</time>
      </trkpt>
      <trkpt lat="44.8767" lon="0.32288">
        <ele>37.8</ele>
        <time>2022-04-05T10:10:04Z</time>
      </trkpt>
      <trkpt lat="44.87668" lon="0.32287">
        <ele>37.6</ele>
        <time>2022-04-05T10:10:06Z</time>
      </trkpt>
      <trkpt lat="44.87666" lon="0.32287">
        <ele>37.6</ele>
        <time>2022-04-05T10:10:07Z</time>
      </trkpt>
      <trkpt lat="44.87664" lon="0.32286">
        <ele>37.4</ele>
        <time>2022-04-05T10:10:08Z</time>
      </trkpt>
      <trkpt lat="44.87664" lon="0.32285">
        <ele>37.4</ele>
        <time>2022-04-05T10:10:09Z</time>
      </trkpt>
      <trkpt lat="44.87662" lon="0.32285">
        <ele>37.3</ele>
        <time>2022-04-05T10:10:10Z</time>
      </trkpt>
      <trkpt lat="44.87661" lon="0.32284">
        <ele>37.3</ele>
        <time>2022-04-05T10:10:11Z</time>
      </trkpt>
      <trkpt lat="44.87659" lon="0.32283">
        <ele>37.1</ele>
        <time>2022-04-05T10:10:12Z</time>
      </trkpt>
      <trkpt lat="44.87657" lon="0.32283">
        <ele>37.1</ele>
        <time>2022-04-05T10:10:14Z</time>
      </trkpt>
      <trkpt lat="44.87656" lon="0.32282">
        <ele>37</ele>
        <time>2022-04-05T10:10:15Z</time>
      </trkpt>
      <trkpt lat="44.87654" lon="0.32282">
        <ele>37</ele>
        <time>2022-04-05T10:10:17Z</time>
      </trkpt>
      <trkpt lat="44.87653" lon="0.32281">
        <ele>36.9</ele>
        <time>2022-04-05T10:10:18Z</time>
      </trkpt>
      <trkpt lat="44.87652" lon="0.32281">
        <ele>36.9</ele>
        <time>2022-04-05T10:10:19Z</time>
      </trkpt>
      <trkpt lat="44.87651" lon="0.32281">
        <ele>36.9</ele>
        <time>2022-04-05T10:10:20Z</time>
      </trkpt>
      <trkpt lat="44.8765" lon="0.32281">
        <ele>36.8</ele>
        <time>2022-04-05T10:10:22Z</time>
      </trkpt>
      <trkpt lat="44.87647" lon="0.32281">
        <ele>36.8</ele>
        <time>2022-04-05T10:10:23Z</time>
      </trkpt>
      <trkpt lat="44.87646" lon="0.3228">
        <ele>36.8</ele>
        <time>2022-04-05T10:10:24Z</time>
      </trkpt>
      <trkpt lat="44.87645" lon="0.3228">
        <ele>36.8</ele>
        <time>2022-04-05T10:10:25Z</time>
      </trkpt>
      <trkpt lat="44.87645" lon="0.3228">
        <ele>36.8</ele>
        <time>2022-04-05T10:10:26Z</time>
      </trkpt>
      <trkpt lat="44.87645" lon="0.32279">
        <ele>36.8</ele>
        <time>2022-04-05T10:10:27Z</time>
      </trkpt>
      <trkpt lat="44.87644" lon="0.32279">
        <ele>36.8</ele>
        <time>2022-04-05T10:10:28Z</time>
      </trkpt>
      <trkpt lat="44.87645" lon="0.32279">
        <ele>36.8</ele>
        <time>2022-04-05T10:10:29Z</time>
      </trkpt>
      <trkpt lat="44.87645" lon="0.32279">
        <ele>36.8</ele>
        <time>2022-04-05T10:10:30Z</time>
      </trkpt>
      <trkpt lat="44.87645" lon="0.32279">
        <ele>36.7</ele>
        <time>2022-04-05T10:10:31Z</time>
      </trkpt>
      <trkpt lat="44.87646" lon="0.32279">
        <ele>36.7</ele>
        <time>2022-04-05T10:10:32Z</time>
      </trkpt>
      <trkpt lat="44.87646" lon="0.32279">
        <ele>36.7</ele>
        <time>2022-04-05T10:10:33Z</time>
      </trkpt>
      <trkpt lat="44.87646" lon="0.32279">
        <ele>36.7</ele>
        <time>2022-04-05T10:10:34Z</time>
      </trkpt>
      <trkpt lat="44.87646" lon="0.32279">
        <ele>36.7</ele>
        <time>2022-04-05T10:10:35Z</time>
      </trkpt>
      <trkpt lat="44.87646" lon="0.32279">
        <ele>36.7</ele>
        <time>2022-04-05T10:10:37Z</time>
      </trkpt>
      <trkpt lat="44.87646" lon="0.32279">
        <ele>36.7</ele>
        <time>2022-04-05T10:10:38Z</time>
      </trkpt>
      <trkpt lat="44.87646" lon="0.3228">
        <ele>36.7</ele>
        <time>2022-04-05T10:10:39Z</time>
      </trkpt>
      <trkpt lat="44.87646" lon="0.3228">
        <ele>36.7</ele>
        <time>2022-04-05T10:10:40Z</time>
      </trkpt>
      <trkpt lat="44.87646" lon="0.3228">
        <ele>36.7</ele>
        <time>2022-04-05T10:10:41Z</time>
      </trkpt>
      <trkpt lat="44.87647" lon="0.32281">
        <ele>36.7</ele>
        <time>2022-04-05T10:10:42Z</time>
      </trkpt>
      <trkpt lat="44.87647" lon="0.32281">
        <ele>36.7</ele>
        <time>2022-04-05T10:10:44Z</time>
      </trkpt>
      <trkpt lat="44.87648" lon="0.32281">
        <ele>36.7</ele>
        <time>2022-04-05T10:10:45Z</time>
      </trkpt>
      <trkpt lat="44.87647" lon="0.32281">
        <ele>36.7</ele>
        <time>2022-04-05T10:10:46Z</time>
      </trkpt>
      <trkpt lat="44.87647" lon="0.32281">
        <ele>36.7</ele>
        <time>2022-04-05T10:10:47Z</time>
      </trkpt>
      <trkpt lat="44.87645" lon="0.32281">
        <ele>36.7</ele>
        <time>2022-04-05T10:10:48Z</time>
      </trkpt>
      <trkpt lat="44.87644" lon="0.32281">
        <ele>36.7</ele>
        <time>2022-04-05T10:10:49Z</time>
      </trkpt>
      <trkpt lat="44.87643" lon="0.32281">
        <ele>36.7</ele>
        <time>2022-04-05T10:10:50Z</time>
      </trkpt>
      <trkpt lat="44.87642" lon="0.32281">
        <ele>36.7</ele>
        <time>2022-04-05T10:10:51Z</time>
      </trkpt>
      <trkpt lat="44.8764" lon="0.32281">
        <ele>36.7</ele>
        <time>2022-04-05T10:10:52Z</time>
      </trkpt>
      <trkpt lat="44.87637" lon="0.3228">
        <ele>36.7</ele>
        <time>2022-04-05T10:10:53Z</time>
      </trkpt>
      <trkpt lat="44.87636" lon="0.3228">
        <ele>36.7</ele>
        <time>2022-04-05T10:10:54Z</time>
      </trkpt>
      <trkpt lat="44.87633" lon="0.32279">
        <ele>36.7</ele>
        <time>2022-04-05T10:10:56Z</time>
      </trkpt>
      <trkpt lat="44.87632" lon="0.32279">
        <ele>36.7</ele>
        <time>2022-04-05T10:10:57Z</time>
      </trkpt>
      <trkpt lat="44.87629" lon="0.3228">
        <ele>36.7</ele>
        <time>2022-04-05T10:10:58Z</time>
      </trkpt>
      <trkpt lat="44.87628" lon="0.32281">
        <ele>36.7</ele>
        <time>2022-04-05T10:10:59Z</time>
      </trkpt>
      <trkpt lat="44.87626" lon="0.32281">
        <ele>36.7</ele>
        <time>2022-04-05T10:11:00Z</time>
      </trkpt>
      <trkpt lat="44.87625" lon="0.32281">
        <ele>36.7</ele>
        <time>2022-04-05T10:11:01Z</time>
      </trkpt>
      <trkpt lat="44.87624" lon="0.32281">
        <ele>36.7</ele>
        <time>2022-04-05T10:11:02Z</time>
      </trkpt>
      <trkpt lat="44.87622" lon="0.32281">
        <ele>36.7</ele>
        <time>2022-04-05T10:11:03Z</time>
      </trkpt>
      <trkpt lat="44.87621" lon="0.32281">
        <ele>36.7</ele>
        <time>2022-04-05T10:11:04Z</time>
      </trkpt>
      <trkpt lat="44.8762" lon="0.32281">
        <ele>36.7</ele>
        <time>2022-04-05T10:11:05Z</time>
      </trkpt>
      <trkpt lat="44.87618" lon="0.3228">
        <ele>36.7</ele>
        <time>2022-04-05T10:11:06Z</time>
      </trkpt>
      <trkpt lat="44.87615" lon="0.32281">
        <ele>36.7</ele>
        <time>2022-04-05T10:11:08Z</time>
      </trkpt>
      <trkpt lat="44.87614" lon="0.32281">
        <ele>36.7</ele>
        <time>2022-04-05T10:11:09Z</time>
      </trkpt>
      <trkpt lat="44.87613" lon="0.32281">
        <ele>36.7</ele>
        <time>2022-04-05T10:11:10Z</time>
      </trkpt>
      <trkpt lat="44.87611" lon="0.32281">
        <ele>36.7</ele>
        <time>2022-04-05T10:11:12Z</time>
      </trkpt>
      <trkpt lat="44.87609" lon="0.32282">
        <ele>36.7</ele>
        <time>2022-04-05T10:11:13Z</time>
      </trkpt>
      <trkpt lat="44.87608" lon="0.32282">
        <ele>36.7</ele>
        <time>2022-04-05T10:11:14Z</time>
      </trkpt>
      <trkpt lat="44.87607" lon="0.32282">
        <ele>36.7</ele>
        <time>2022-04-05T10:11:15Z</time>
      </trkpt>
      <trkpt lat="44.87605" lon="0.32283">
        <ele>36.7</ele>
        <time>2022-04-05T10:11:16Z</time>
      </trkpt>
      <trkpt lat="44.87603" lon="0.32284">
        <ele>36.7</ele>
        <time>2022-04-05T10:11:18Z</time>
      </trkpt>
      <trkpt lat="44.87602" lon="0.32283">
        <ele>36.7</ele>
        <time>2022-04-05T10:11:19Z</time>
      </trkpt>
      <trkpt lat="44.876" lon="0.32283">
        <ele>36.7</ele>
        <time>2022-04-05T10:11:20Z</time>
      </trkpt>
      <trkpt lat="44.87599" lon="0.32283">
        <ele>36.7</ele>
        <time>2022-04-05T10:11:22Z</time>
      </trkpt>
      <trkpt lat="44.87597" lon="0.32282">
        <ele>36.7</ele>
        <time>2022-04-05T10:11:23Z</time>
      </trkpt>
      <trkpt lat="44.87596" lon="0.32282">
        <ele>36.7</ele>
        <time>2022-04-05T10:11:24Z</time>
      </trkpt>
      <trkpt lat="44.87595" lon="0.32282">
        <ele>36.7</ele>
        <time>2022-04-05T10:11:25Z</time>
      </trkpt>
      <trkpt lat="44.87594" lon="0.32282">
        <ele>36.7</ele>
        <time>2022-04-05T10:11:26Z</time>
      </trkpt>
      <trkpt lat="44.87591" lon="0.32282">
        <ele>36.6</ele>
        <time>2022-04-05T10:11:28Z</time>
      </trkpt>
      <trkpt lat="44.8759" lon="0.32282">
        <ele>36.6</ele>
        <time>2022-04-05T10:11:29Z</time>
      </trkpt>
      <trkpt lat="44.87589" lon="0.32282">
        <ele>36.6</ele>
        <time>2022-04-05T10:11:30Z</time>
      </trkpt>
      <trkpt lat="44.87587" lon="0.32283">
        <ele>36.6</ele>
        <time>2022-04-05T10:11:31Z</time>
      </trkpt>
      <trkpt lat="44.87584" lon="0.32285">
        <ele>36.6</ele>
        <time>2022-04-05T10:11:33Z</time>
      </trkpt>
      <trkpt lat="44.87583" lon="0.32285">
        <ele>36.5</ele>
        <time>2022-04-05T10:11:34Z</time>
      </trkpt>
      <trkpt lat="44.87582" lon="0.32285">
        <ele>36.5</ele>
        <time>2022-04-05T10:11:36Z</time>
      </trkpt>
      <trkpt lat="44.87581" lon="0.32286">
        <ele>36.5</ele>
        <time>2022-04-05T10:11:37Z</time>
      </trkpt>
      <trkpt lat="44.87578" lon="0.32285">
        <ele>36.3</ele>
        <time>2022-04-05T10:11:38Z</time>
      </trkpt>
      <trkpt lat="44.87577" lon="0.32285">
        <ele>36.3</ele>
        <time>2022-04-05T10:11:39Z</time>
      </trkpt>
      <trkpt lat="44.87575" lon="0.32286">
        <ele>36.2</ele>
        <time>2022-04-05T10:11:40Z</time>
      </trkpt>
      <trkpt lat="44.87573" lon="0.32286">
        <ele>36.1</ele>
        <time>2022-04-05T10:11:42Z</time>
      </trkpt>
      <trkpt lat="44.87572" lon="0.32286">
        <ele>36</ele>
        <time>2022-04-05T10:11:44Z</time>
      </trkpt>
      <trkpt lat="44.87571" lon="0.32287">
        <ele>35.9</ele>
        <time>2022-04-05T10:11:45Z</time>
      </trkpt>
      <trkpt lat="44.87569" lon="0.32288">
        <ele>35.8</ele>
        <time>2022-04-05T10:11:46Z</time>
      </trkpt>
      <trkpt lat="44.87568" lon="0.32289">
        <ele>35.7</ele>
        <time>2022-04-05T10:11:47Z</time>
      </trkpt>
      <trkpt lat="44.87568" lon="0.3229">
        <ele>35.6</ele>
        <time>2022-04-05T10:11:48Z</time>
      </trkpt>
      <trkpt lat="44.87566" lon="0.32291">
        <ele>35.5</ele>
        <time>2022-04-05T10:11:49Z</time>
      </trkpt>
      <trkpt lat="44.87565" lon="0.32292">
        <ele>35.6</ele>
        <time>2022-04-05T10:11:50Z</time>
      </trkpt>
      <trkpt lat="44.87564" lon="0.32293">
        <ele>35.7</ele>
        <time>2022-04-05T10:11:51Z</time>
      </trkpt>
      <trkpt lat="44.87563" lon="0.32294">
        <ele>35.7</ele>
        <time>2022-04-05T10:11:52Z</time>
      </trkpt>
      <trkpt lat="44.8756" lon="0.32295">
        <ele>35.9</ele>
        <time>2022-04-05T10:11:54Z</time>
      </trkpt>
      <trkpt lat="44.87559" lon="0.32293">
        <ele>36</ele>
        <time>2022-04-05T10:11:55Z</time>
      </trkpt>
      <trkpt lat="44.87559" lon="0.3229">
        <ele>36.1</ele>
        <time>2022-04-05T10:11:56Z</time>
      </trkpt>
      <trkpt lat="44.8756" lon="0.32289">
        <ele>36.1</ele>
        <time>2022-04-05T10:11:57Z</time>
      </trkpt>
      <trkpt lat="44.87561" lon="0.32288">
        <ele>36.2</ele>
        <time>2022-04-05T10:11:59Z</time>
      </trkpt>
      <trkpt lat="44.87561" lon="0.32288">
        <ele>36.2</ele>
        <time>2022-04-05T10:12:00Z</time>
      </trkpt>
      <trkpt lat="44.87561" lon="0.32287">
        <ele>36.2</ele>
        <time>2022-04-05T10:12:01Z</time>
      </trkpt>
      <trkpt lat="44.87562" lon="0.32287">
        <ele>36.2</ele>
        <time>2022-04-05T10:12:02Z</time>
      </trkpt>
      <trkpt lat="44.87563" lon="0.32287">
        <ele>36.3</ele>
        <time>2022-04-05T10:12:03Z</time>
      </trkpt>
      <trkpt lat="44.87564" lon="0.32287">
        <ele>36.3</ele>
        <time>2022-04-05T10:12:05Z</time>
      </trkpt>
      <trkpt lat="44.87565" lon="0.32286">
        <ele>36.3</ele>
        <time>2022-04-05T10:12:06Z</time>
      </trkpt>
      <trkpt lat="44.87565" lon="0.32286">
        <ele>36.3</ele>
        <time>2022-04-05T10:12:07Z</time>
      </trkpt>
      <trkpt lat="44.87568" lon="0.32286">
        <ele>36.4</ele>
        <time>2022-04-05T10:12:08Z</time>
      </trkpt>
      <trkpt lat="44.87569" lon="0.32286">
        <ele>36.5</ele>
        <time>2022-04-05T10:12:09Z</time>
      </trkpt>
      <trkpt lat="44.8757" lon="0.32286">
        <ele>36.5</ele>
        <time>2022-04-05T10:12:10Z</time>
      </trkpt>
      <trkpt lat="44.87572" lon="0.32286">
        <ele>36.5</ele>
        <time>2022-04-05T10:12:11Z</time>
      </trkpt>
      <trkpt lat="44.87575" lon="0.32286">
        <ele>36.6</ele>
        <time>2022-04-05T10:12:12Z</time>
      </trkpt>
      <trkpt lat="44.87576" lon="0.32286">
        <ele>36.6</ele>
        <time>2022-04-05T10:12:13Z</time>
      </trkpt>
      <trkpt lat="44.87578" lon="0.32285">
        <ele>36.6</ele>
        <time>2022-04-05T10:12:14Z</time>
      </trkpt>
      <trkpt lat="44.87579" lon="0.32285">
        <ele>36.6</ele>
        <time>2022-04-05T10:12:15Z</time>
      </trkpt>
      <trkpt lat="44.8758" lon="0.32284">
        <ele>36.6</ele>
        <time>2022-04-05T10:12:16Z</time>
      </trkpt>
      <trkpt lat="44.87583" lon="0.32282">
        <ele>36.6</ele>
        <time>2022-04-05T10:12:18Z</time>
      </trkpt>
      <trkpt lat="44.87584" lon="0.32281">
        <ele>36.6</ele>
        <time>2022-04-05T10:12:19Z</time>
      </trkpt>
      <trkpt lat="44.87586" lon="0.32279">
        <ele>36.7</ele>
        <time>2022-04-05T10:12:20Z</time>
      </trkpt>
      <trkpt lat="44.87587" lon="0.32278">
        <ele>36.7</ele>
        <time>2022-04-05T10:12:22Z</time>
      </trkpt>
      <trkpt lat="44.87588" lon="0.32277">
        <ele>36.7</ele>
        <time>2022-04-05T10:12:23Z</time>
      </trkpt>
      <trkpt lat="44.8759" lon="0.32276">
        <ele>36.7</ele>
        <time>2022-04-05T10:12:24Z</time>
      </trkpt>
      <trkpt lat="44.87591" lon="0.32275">
        <ele>36.7</ele>
        <time>2022-04-05T10:12:25Z</time>
      </trkpt>
      <trkpt lat="44.87592" lon="0.32275">
        <ele>36.7</ele>
        <time>2022-04-05T10:12:26Z</time>
      </trkpt>
      <trkpt lat="44.87594" lon="0.32274">
        <ele>36.7</ele>
        <time>2022-04-05T10:12:28Z</time>
      </trkpt>
      <trkpt lat="44.87595" lon="0.32273">
        <ele>36.7</ele>
        <time>2022-04-05T10:12:29Z</time>
      </trkpt>
      <trkpt lat="44.87596" lon="0.32273">
        <ele>36.7</ele>
        <time>2022-04-05T10:12:30Z</time>
      </trkpt>
      <trkpt lat="44.87598" lon="0.32273">
        <ele>36.7</ele>
        <time>2022-04-05T10:12:31Z</time>
      </trkpt>
      <trkpt lat="44.87599" lon="0.32272">
        <ele>36.7</ele>
        <time>2022-04-05T10:12:32Z</time>
      </trkpt>
      <trkpt lat="44.87601" lon="0.32272">
        <ele>36.7</ele>
        <time>2022-04-05T10:12:34Z</time>
      </trkpt>
      <trkpt lat="44.87602" lon="0.32272">
        <ele>36.7</ele>
        <time>2022-04-05T10:12:35Z</time>
      </trkpt>
      <trkpt lat="44.87603" lon="0.32272">
        <ele>36.7</ele>
        <time>2022-04-05T10:12:36Z</time>
      </trkpt>
      <trkpt lat="44.87604" lon="0.32271">
        <ele>36.7</ele>
        <time>2022-04-05T10:12:37Z</time>
      </trkpt>
      <trkpt lat="44.87606" lon="0.3227">
        <ele>36.7</ele>
        <time>2022-04-05T10:12:38Z</time>
      </trkpt>
      <trkpt lat="44.87607" lon="0.32269">
        <ele>36.7</ele>
        <time>2022-04-05T10:12:39Z</time>
      </trkpt>
      <trkpt lat="44.87608" lon="0.32268">
        <ele>36.7</ele>
        <time>2022-04-05T10:12:40Z</time>
      </trkpt>
      <trkpt lat="44.8761" lon="0.32267">
        <ele>36.7</ele>
        <time>2022-04-05T10:12:41Z</time>
      </trkpt>
      <trkpt lat="44.87612" lon="0.32265">
        <ele>36.7</ele>
        <time>2022-04-05T10:12:43Z</time>
      </trkpt>
      <trkpt lat="44.87613" lon="0.32264">
        <ele>37.2</ele>
        <time>2022-04-05T10:12:44Z</time>
      </trkpt>
      <trkpt lat="44.87614" lon="0.32262">
        <ele>37.1</ele>
        <time>2022-04-05T10:12:45Z</time>
      </trkpt>
      <trkpt lat="44.87614" lon="0.32261">
        <ele>37.1</ele>
        <time>2022-04-05T10:12:46Z</time>
      </trkpt>
      <trkpt lat="44.87615" lon="0.3226">
        <ele>37.1</ele>
        <time>2022-04-05T10:12:47Z</time>
      </trkpt>
      <trkpt lat="44.87617" lon="0.32257">
        <ele>37.4</ele>
        <time>2022-04-05T10:12:49Z</time>
      </trkpt>
      <trkpt lat="44.87617" lon="0.32256">
        <ele>37.4</ele>
        <time>2022-04-05T10:12:50Z</time>
      </trkpt>
      <trkpt lat="44.87619" lon="0.32255">
        <ele>37.3</ele>
        <time>2022-04-05T10:12:51Z</time>
      </trkpt>
      <trkpt lat="44.87619" lon="0.32253">
        <ele>37.7</ele>
        <time>2022-04-05T10:12:53Z</time>
      </trkpt>
      <trkpt lat="44.8762" lon="0.32251">
        <ele>37.7</ele>
        <time>2022-04-05T10:12:54Z</time>
      </trkpt>
      <trkpt lat="44.87621" lon="0.3225">
        <ele>37.7</ele>
        <time>2022-04-05T10:12:55Z</time>
      </trkpt>
      <trkpt lat="44.87622" lon="0.32248">
        <ele>37.7</ele>
        <time>2022-04-05T10:12:56Z</time>
      </trkpt>
      <trkpt lat="44.87623" lon="0.32247">
        <ele>38</ele>
        <time>2022-04-05T10:12:58Z</time>
      </trkpt>
      <trkpt lat="44.87624" lon="0.32245">
        <ele>38</ele>
        <time>2022-04-05T10:12:59Z</time>
      </trkpt>
      <trkpt lat="44.87625" lon="0.32244">
        <ele>38</ele>
        <time>2022-04-05T10:13:00Z</time>
      </trkpt>
      <trkpt lat="44.87626" lon="0.32243">
        <ele>38.3</ele>
        <time>2022-04-05T10:13:01Z</time>
      </trkpt>
      <trkpt lat="44.87627" lon="0.32242">
        <ele>38.3</ele>
        <time>2022-04-05T10:13:03Z</time>
      </trkpt>
      <trkpt lat="44.87629" lon="0.32241">
        <ele>38.6</ele>
        <time>2022-04-05T10:13:04Z</time>
      </trkpt>
      <trkpt lat="44.87629" lon="0.32241">
        <ele>38.6</ele>
        <time>2022-04-05T10:13:05Z</time>
      </trkpt>
      <trkpt lat="44.8763" lon="0.3224">
        <ele>38.6</ele>
        <time>2022-04-05T10:13:06Z</time>
      </trkpt>
      <trkpt lat="44.87631" lon="0.32239">
        <ele>38.9</ele>
        <time>2022-04-05T10:13:07Z</time>
      </trkpt>
      <trkpt lat="44.87633" lon="0.32238">
        <ele>38.9</ele>
        <time>2022-04-05T10:13:08Z</time>
      </trkpt>
      <trkpt lat="44.87633" lon="0.32236">
        <ele>38.9</ele>
        <time>2022-04-05T10:13:10Z</time>
      </trkpt>
      <trkpt lat="44.87633" lon="0.32235">
        <ele>38.9</ele>
        <time>2022-04-05T10:13:11Z</time>
      </trkpt>
      <trkpt lat="44.87634" lon="0.32233">
        <ele>39.2</ele>
        <time>2022-04-05T10:13:12Z</time>
      </trkpt>
      <trkpt lat="44.87635" lon="0.32232">
        <ele>39.2</ele>
        <time>2022-04-05T10:13:13Z</time>
      </trkpt>
      <trkpt lat="44.87637" lon="0.32231">
        <ele>39.2</ele>
        <time>2022-04-05T10:13:14Z</time>
      </trkpt>
      <trkpt lat="44.87638" lon="0.3223">
        <ele>39.4</ele>
        <time>2022-04-05T10:13:15Z</time>
      </trkpt>
      <trkpt lat="44.87639" lon="0.32229">
        <ele>39.5</ele>
        <time>2022-04-05T10:13:16Z</time>
      </trkpt>
      <trkpt lat="44.87639" lon="0.32229">
        <ele>39.5</ele>
        <time>2022-04-05T10:13:17Z</time>
      </trkpt>
      <trkpt lat="44.8764" lon="0.32228">
        <ele>39.7</ele>
        <time>2022-04-05T10:13:18Z</time>
      </trkpt>
      <trkpt lat="44.8764" lon="0.32228">
        <ele>39.7</ele>
        <time>2022-04-05T10:13:20Z</time>
      </trkpt>
      <trkpt lat="44.87641" lon="0.32228">
        <ele>39.7</ele>
        <time>2022-04-05T10:13:21Z</time>
      </trkpt>
      <trkpt lat="44.87642" lon="0.32227">
        <ele>39.7</ele>
        <time>2022-04-05T10:13:22Z</time>
      </trkpt>
      <trkpt lat="44.87643" lon="0.32226">
        <ele>39.7</ele>
        <time>2022-04-05T10:13:23Z</time>
      </trkpt>
      <trkpt lat="44.87644" lon="0.32225">
        <ele>40</ele>
        <time>2022-04-05T10:13:24Z</time>
      </trkpt>
      <trkpt lat="44.87644" lon="0.32224">
        <ele>40</ele>
        <time>2022-04-05T10:13:25Z</time>
      </trkpt>
      <trkpt lat="44.87645" lon="0.32223">
        <ele>40</ele>
        <time>2022-04-05T10:13:26Z</time>
      </trkpt>
      <trkpt lat="44.87646" lon="0.32223">
        <ele>40</ele>
        <time>2022-04-05T10:13:27Z</time>
      </trkpt>
      <trkpt lat="44.87648" lon="0.32222">
        <ele>40.2</ele>
        <time>2022-04-05T10:13:29Z</time>
      </trkpt>
      <trkpt lat="44.87648" lon="0.32221">
        <ele>40.2</ele>
        <time>2022-04-05T10:13:30Z</time>
      </trkpt>
      <trkpt lat="44.87649" lon="0.3222">
        <ele>40.3</ele>
        <time>2022-04-05T10:13:31Z</time>
      </trkpt>
      <trkpt lat="44.8765" lon="0.32219">
        <ele>40.5</ele>
        <time>2022-04-05T10:13:32Z</time>
      </trkpt>
      <trkpt lat="44.87651" lon="0.32217">
        <ele>40.5</ele>
        <time>2022-04-05T10:13:34Z</time>
      </trkpt>
      <trkpt lat="44.87652" lon="0.32216">
        <ele>40.6</ele>
        <time>2022-04-05T10:13:35Z</time>
      </trkpt>
      <trkpt lat="44.87653" lon="0.32215">
        <ele>40.7</ele>
        <time>2022-04-05T10:13:36Z</time>
      </trkpt>
      <trkpt lat="44.87654" lon="0.32214">
        <ele>40.7</ele>
        <time>2022-04-05T10:13:37Z</time>
      </trkpt>
      <trkpt lat="44.87655" lon="0.32212">
        <ele>40.9</ele>
        <time>2022-04-05T10:13:39Z</time>
      </trkpt>
      <trkpt lat="44.87656" lon="0.32211">
        <ele>41</ele>
        <time>2022-04-05T10:13:40Z</time>
      </trkpt>
      <trkpt lat="44.87656" lon="0.3221">
        <ele>41</ele>
        <time>2022-04-05T10:13:41Z</time>
      </trkpt>
      <trkpt lat="44.87657" lon="0.3221">
        <ele>41</ele>
        <time>2022-04-05T10:13:42Z</time>
      </trkpt>
      <trkpt lat="44.87657" lon="0.32209">
        <ele>41</ele>
        <time>2022-04-05T10:13:43Z</time>
      </trkpt>
      <trkpt lat="44.87657" lon="0.32209">
        <ele>41</ele>
        <time>2022-04-05T10:13:44Z</time>
      </trkpt>
      <trkpt lat="44.87657" lon="0.32208">
        <ele>41</ele>
        <time>2022-04-05T10:13:45Z</time>
      </trkpt>
      <trkpt lat="44.87658" lon="0.32208">
        <ele>41.1</ele>
        <time>2022-04-05T10:13:46Z</time>
      </trkpt>
      <trkpt lat="44.87658" lon="0.32207">
        <ele>41.1</ele>
        <time>2022-04-05T10:13:47Z</time>
      </trkpt>
      <trkpt lat="44.87659" lon="0.32206">
        <ele>41.2</ele>
        <time>2022-04-05T10:13:48Z</time>
      </trkpt>
      <trkpt lat="44.87659" lon="0.32204">
        <ele>41.2</ele>
        <time>2022-04-05T10:13:49Z</time>
      </trkpt>
      <trkpt lat="44.8766" lon="0.32202">
        <ele>41.3</ele>
        <time>2022-04-05T10:13:50Z</time>
      </trkpt>
      <trkpt lat="44.87661" lon="0.32201">
        <ele>41.3</ele>
        <time>2022-04-05T10:13:51Z</time>
      </trkpt>
      <trkpt lat="44.87662" lon="0.322">
        <ele>41.4</ele>
        <time>2022-04-05T10:13:52Z</time>
      </trkpt>
      <trkpt lat="44.87663" lon="0.32198">
        <ele>41.5</ele>
        <time>2022-04-05T10:13:53Z</time>
      </trkpt>
      <trkpt lat="44.87663" lon="0.32196">
        <ele>41.5</ele>
        <time>2022-04-05T10:13:54Z</time>
      </trkpt>
      <trkpt lat="44.87664" lon="0.32195">
        <ele>41.7</ele>
        <time>2022-04-05T10:13:56Z</time>
      </trkpt>
      <trkpt lat="44.87665" lon="0.32193">
        <ele>41.7</ele>
        <time>2022-04-05T10:13:57Z</time>
      </trkpt>
      <trkpt lat="44.87665" lon="0.32192">
        <ele>41.7</ele>
        <time>2022-04-05T10:13:58Z</time>
      </trkpt>
      <trkpt lat="44.87665" lon="0.3219">
        <ele>41.9</ele>
        <time>2022-04-05T10:14:00Z</time>
      </trkpt>
      <trkpt lat="44.87666" lon="0.32188">
        <ele>41.9</ele>
        <time>2022-04-05T10:14:01Z</time>
      </trkpt>
      <trkpt lat="44.87664" lon="0.32187">
        <ele>41.9</ele>
        <time>2022-04-05T10:14:02Z</time>
      </trkpt>
      <trkpt lat="44.87664" lon="0.32188">
        <ele>41.8</ele>
        <time>2022-04-05T10:14:03Z</time>
      </trkpt>
      <trkpt lat="44.87663" lon="0.32188">
        <ele>41.8</ele>
        <time>2022-04-05T10:14:04Z</time>
      </trkpt>
      <trkpt lat="44.87661" lon="0.32187">
        <ele>41.8</ele>
        <time>2022-04-05T10:14:06Z</time>
      </trkpt>
      <trkpt lat="44.87661" lon="0.32188">
        <ele>41.8</ele>
        <time>2022-04-05T10:14:07Z</time>
      </trkpt>
      <trkpt lat="44.87661" lon="0.32188">
        <ele>41.8</ele>
        <time>2022-04-05T10:14:09Z</time>
      </trkpt>
      <trkpt lat="44.87661" lon="0.32187">
        <ele>41.8</ele>
        <time>2022-04-05T10:14:10Z</time>
      </trkpt>
      <trkpt lat="44.87662" lon="0.32186">
        <ele>41.9</ele>
        <time>2022-04-05T10:14:11Z</time>
      </trkpt>
      <trkpt lat="44.87662" lon="0.32184">
        <ele>41.9</ele>
        <time>2022-04-05T10:14:12Z</time>
      </trkpt>
      <trkpt lat="44.87663" lon="0.32182">
        <ele>42.1</ele>
        <time>2022-04-05T10:14:14Z</time>
      </trkpt>
      <trkpt lat="44.87664" lon="0.32181">
        <ele>42.1</ele>
        <time>2022-04-05T10:14:15Z</time>
      </trkpt>
      <trkpt lat="44.87665" lon="0.32179">
        <ele>42.2</ele>
        <time>2022-04-05T10:14:17Z</time>
      </trkpt>
      <trkpt lat="44.87666" lon="0.32178">
        <ele>42.2</ele>
        <time>2022-04-05T10:14:18Z</time>
      </trkpt>
      <trkpt lat="44.87667" lon="0.32176">
        <ele>42.3</ele>
        <time>2022-04-05T10:14:19Z</time>
      </trkpt>
      <trkpt lat="44.87668" lon="0.32175">
        <ele>42.4</ele>
        <time>2022-04-05T10:14:20Z</time>
      </trkpt>
      <trkpt lat="44.87668" lon="0.32173">
        <ele>42.5</ele>
        <time>2022-04-05T10:14:21Z</time>
      </trkpt>
      <trkpt lat="44.87669" lon="0.32172">
        <ele>42.5</ele>
        <time>2022-04-05T10:14:22Z</time>
      </trkpt>
      <trkpt lat="44.87669" lon="0.3217">
        <ele>42.5</ele>
        <time>2022-04-05T10:14:23Z</time>
      </trkpt>
      <trkpt lat="44.87671" lon="0.32168">
        <ele>42.7</ele>
        <time>2022-04-05T10:14:24Z</time>
      </trkpt>
      <trkpt lat="44.87671" lon="0.32167">
        <ele>42.7</ele>
        <time>2022-04-05T10:14:25Z</time>
      </trkpt>
      <trkpt lat="44.87672" lon="0.32166">
        <ele>42.7</ele>
        <time>2022-04-05T10:14:26Z</time>
      </trkpt>
      <trkpt lat="44.87673" lon="0.32165">
        <ele>42.7</ele>
        <time>2022-04-05T10:14:28Z</time>
      </trkpt>
      <trkpt lat="44.87674" lon="0.32163">
        <ele>42.9</ele>
        <time>2022-04-05T10:14:29Z</time>
      </trkpt>
      <trkpt lat="44.87675" lon="0.32163">
        <ele>42.9</ele>
        <time>2022-04-05T10:14:30Z</time>
      </trkpt>
      <trkpt lat="44.87675" lon="0.32162">
        <ele>42.9</ele>
        <time>2022-04-05T10:14:31Z</time>
      </trkpt>
      <trkpt lat="44.87676" lon="0.32162">
        <ele>42.9</ele>
        <time>2022-04-05T10:14:32Z</time>
      </trkpt>
      <trkpt lat="44.87677" lon="0.32161">
        <ele>43</ele>
        <time>2022-04-05T10:14:33Z</time>
      </trkpt>
      <trkpt lat="44.87678" lon="0.3216">
        <ele>43.1</ele>
        <time>2022-04-05T10:14:35Z</time>
      </trkpt>
      <trkpt lat="44.87679" lon="0.32159">
        <ele>43.1</ele>
        <time>2022-04-05T10:14:36Z</time>
      </trkpt>
      <trkpt lat="44.87679" lon="0.32158">
        <ele>43.1</ele>
        <time>2022-04-05T10:14:37Z</time>
      </trkpt>
      <trkpt lat="44.8768" lon="0.32157">
        <ele>43.1</ele>
        <time>2022-04-05T10:14:38Z</time>
      </trkpt>
      <trkpt lat="44.87681" lon="0.32156">
        <ele>43.2</ele>
        <time>2022-04-05T10:14:39Z</time>
      </trkpt>
      <trkpt lat="44.87681" lon="0.32154">
        <ele>43.2</ele>
        <time>2022-04-05T10:14:41Z</time>
      </trkpt>
      <trkpt lat="44.87681" lon="0.32153">
        <ele>43.2</ele>
        <time>2022-04-05T10:14:42Z</time>
      </trkpt>
      <trkpt lat="44.87682" lon="0.32152">
        <ele>43.4</ele>
        <time>2022-04-05T10:14:43Z</time>
      </trkpt>
      <trkpt lat="44.87682" lon="0.3215">
        <ele>43.4</ele>
        <time>2022-04-05T10:14:44Z</time>
      </trkpt>
      <trkpt lat="44.87682" lon="0.3215">
        <ele>43.4</ele>
        <time>2022-04-05T10:14:45Z</time>
      </trkpt>
      <trkpt lat="44.87681" lon="0.32149">
        <ele>43.4</ele>
        <time>2022-04-05T10:14:46Z</time>
      </trkpt>
      <trkpt lat="44.87681" lon="0.32148">
        <ele>43.5</ele>
        <time>2022-04-05T10:14:47Z</time>
      </trkpt>
      <trkpt lat="44.8768" lon="0.32146">
        <ele>43.5</ele>
        <time>2022-04-05T10:14:49Z</time>
      </trkpt>
      <trkpt lat="44.87679" lon="0.32145">
        <ele>43.4</ele>
        <time>2022-04-05T10:14:50Z</time>
      </trkpt>
      <trkpt lat="44.87678" lon="0.32144">
        <ele>43.4</ele>
        <time>2022-04-05T10:14:51Z</time>
      </trkpt>
      <trkpt lat="44.87677" lon="0.32143">
        <ele>43.5</ele>
        <time>2022-04-05T10:14:52Z</time>
      </trkpt>
      <trkpt lat="44.87677" lon="0.32141">
        <ele>43.5</ele>
        <time>2022-04-05T10:14:53Z</time>
      </trkpt>
      <trkpt lat="44.87677" lon="0.3214">
        <ele>43.5</ele>
        <time>2022-04-05T10:14:54Z</time>
      </trkpt>
      <trkpt lat="44.87677" lon="0.32139">
        <ele>43.6</ele>
        <time>2022-04-05T10:14:55Z</time>
      </trkpt>
      <trkpt lat="44.87677" lon="0.32138">
        <ele>43.6</ele>
        <time>2022-04-05T10:14:56Z</time>
      </trkpt>
      <trkpt lat="44.87677" lon="0.32136">
        <ele>43.6</ele>
        <time>2022-04-05T10:14:58Z</time>
      </trkpt>
      <trkpt lat="44.87677" lon="0.32134">
        <ele>43.7</ele>
        <time>2022-04-05T10:14:59Z</time>
      </trkpt>
      <trkpt lat="44.87677" lon="0.32133">
        <ele>43.7</ele>
        <time>2022-04-05T10:15:00Z</time>
      </trkpt>
      <trkpt lat="44.87678" lon="0.32132">
        <ele>43.7</ele>
        <time>2022-04-05T10:15:01Z</time>
      </trkpt>
      <trkpt lat="44.87678" lon="0.32131">
        <ele>43.8</ele>
        <time>2022-04-05T10:15:02Z</time>
      </trkpt>
      <trkpt lat="44.87678" lon="0.3213">
        <ele>43.8</ele>
        <time>2022-04-05T10:15:03Z</time>
      </trkpt>
      <trkpt lat="44.87678" lon="0.32127">
        <ele>43.8</ele>
        <time>2022-04-05T10:15:04Z</time>
      </trkpt>
      <trkpt lat="44.87679" lon="0.32126">
        <ele>43.8</ele>
        <time>2022-04-05T10:15:06Z</time>
      </trkpt>
      <trkpt lat="44.87679" lon="0.32125">
        <ele>43.8</ele>
        <time>2022-04-05T10:15:07Z</time>
      </trkpt>
      <trkpt lat="44.87679" lon="0.32123">
        <ele>43.8</ele>
        <time>2022-04-05T10:15:08Z</time>
      </trkpt>
      <trkpt lat="44.87679" lon="0.32121">
        <ele>43.9</ele>
        <time>2022-04-05T10:15:09Z</time>
      </trkpt>
      <trkpt lat="44.87679" lon="0.32121">
        <ele>43.9</ele>
        <time>2022-04-05T10:15:10Z</time>
      </trkpt>
      <trkpt lat="44.87679" lon="0.32119">
        <ele>43.9</ele>
        <time>2022-04-05T10:15:11Z</time>
      </trkpt>
      <trkpt lat="44.87679" lon="0.32118">
        <ele>44</ele>
        <time>2022-04-05T10:15:12Z</time>
      </trkpt>
      <trkpt lat="44.87679" lon="0.32116">
        <ele>44</ele>
        <time>2022-04-05T10:15:13Z</time>
      </trkpt>
      <trkpt lat="44.87679" lon="0.32113">
        <ele>44</ele>
        <time>2022-04-05T10:15:14Z</time>
      </trkpt>
      <trkpt lat="44.87679" lon="0.32112">
        <ele>44</ele>
        <time>2022-04-05T10:15:16Z</time>
      </trkpt>
      <trkpt lat="44.87679" lon="0.32111">
        <ele>44</ele>
        <time>2022-04-05T10:15:17Z</time>
      </trkpt>
      <trkpt lat="44.8768" lon="0.32109">
        <ele>44.1</ele>
        <time>2022-04-05T10:15:18Z</time>
      </trkpt>
      <trkpt lat="44.8768" lon="0.32106">
        <ele>44.1</ele>
        <time>2022-04-05T10:15:19Z</time>
      </trkpt>
      <trkpt lat="44.8768" lon="0.32106">
        <ele>44.1</ele>
        <time>2022-04-05T10:15:20Z</time>
      </trkpt>
      <trkpt lat="44.87681" lon="0.32105">
        <ele>44.2</ele>
        <time>2022-04-05T10:15:21Z</time>
      </trkpt>
      <trkpt lat="44.87682" lon="0.32103">
        <ele>44.2</ele>
        <time>2022-04-05T10:15:23Z</time>
      </trkpt>
      <trkpt lat="44.87683" lon="0.32102">
        <ele>44.2</ele>
        <time>2022-04-05T10:15:24Z</time>
      </trkpt>
      <trkpt lat="44.87685" lon="0.32101">
        <ele>44.2</ele>
        <time>2022-04-05T10:15:25Z</time>
      </trkpt>
      <trkpt lat="44.87687" lon="0.32101">
        <ele>44.3</ele>
        <time>2022-04-05T10:15:26Z</time>
      </trkpt>
      <trkpt lat="44.87688" lon="0.32101">
        <ele>44.3</ele>
        <time>2022-04-05T10:15:27Z</time>
      </trkpt>
      <trkpt lat="44.87689" lon="0.32101">
        <ele>44.3</ele>
        <time>2022-04-05T10:15:28Z</time>
      </trkpt>
      <trkpt lat="44.87691" lon="0.32101">
        <ele>44.4</ele>
        <time>2022-04-05T10:15:29Z</time>
      </trkpt>
      <trkpt lat="44.87691" lon="0.32101">
        <ele>44.4</ele>
        <time>2022-04-05T10:15:30Z</time>
      </trkpt>
      <trkpt lat="44.87692" lon="0.32102">
        <ele>44.4</ele>
        <time>2022-04-05T10:15:31Z</time>
      </trkpt>
      <trkpt lat="44.87692" lon="0.32103">
        <ele>44.4</ele>
        <time>2022-04-05T10:15:32Z</time>
      </trkpt>
      <trkpt lat="44.87692" lon="0.32104">
        <ele>44.4</ele>
        <time>2022-04-05T10:15:33Z</time>
      </trkpt>
      <trkpt lat="44.87692" lon="0.32104">
        <ele>44.4</ele>
        <time>2022-04-05T10:15:35Z</time>
      </trkpt>
      <trkpt lat="44.87691" lon="0.32104">
        <ele>44.4</ele>
        <time>2022-04-05T10:15:36Z</time>
      </trkpt>
      <trkpt lat="44.87691" lon="0.32104">
        <ele>44.4</ele>
        <time>2022-04-05T10:15:37Z</time>
      </trkpt>
      <trkpt lat="44.87691" lon="0.32104">
        <ele>44.4</ele>
        <time>2022-04-05T10:15:38Z</time>
      </trkpt>
      <trkpt lat="44.87691" lon="0.32104">
        <ele>44.4</ele>
        <time>2022-04-05T10:15:39Z</time>
      </trkpt>
      <trkpt lat="44.87691" lon="0.32104">
        <ele>44.4</ele>
        <time>2022-04-05T10:15:40Z</time>
      </trkpt>
      <trkpt lat="44.87691" lon="0.32104">
        <ele>44.4</ele>
        <time>2022-04-05T10:15:41Z</time>
      </trkpt>
      <trkpt lat="44.87691" lon="0.32104">
        <ele>44.4</ele>
        <time>2022-04-05T10:15:42Z</time>
      </trkpt>
      <trkpt lat="44.87691" lon="0.32104">
        <ele>44.4</ele>
        <time>2022-04-05T10:15:43Z</time>
      </trkpt>
      <trkpt lat="44.87691" lon="0.32103">
        <ele>44.4</ele>
        <time>2022-04-05T10:15:44Z</time>
      </trkpt>
      <trkpt lat="44.87691" lon="0.32103">
        <ele>44.4</ele>
        <time>2022-04-05T10:15:45Z</time>
      </trkpt>
      <trkpt lat="44.8769" lon="0.32103">
        <ele>44.4</ele>
        <time>2022-04-05T10:15:46Z</time>
      </trkpt>
      <trkpt lat="44.8769" lon="0.32103">
        <ele>44.4</ele>
        <time>2022-04-05T10:15:47Z</time>
      </trkpt>
      <trkpt lat="44.8769" lon="0.32103">
        <ele>44.4</ele>
        <time>2022-04-05T10:15:48Z</time>
      </trkpt>
      <trkpt lat="44.8769" lon="0.32103">
        <ele>44.4</ele>
        <time>2022-04-05T10:15:49Z</time>
      </trkpt>
      <trkpt lat="44.8769" lon="0.32103">
        <ele>44.4</ele>
        <time>2022-04-05T10:15:50Z</time>
      </trkpt>
      <trkpt lat="44.8769" lon="0.32103">
        <ele>44.4</ele>
        <time>2022-04-05T10:15:51Z</time>
      </trkpt>
      <trkpt lat="44.8769" lon="0.32103">
        <ele>44.4</ele>
        <time>2022-04-05T10:15:53Z</time>
      </trkpt>
      <trkpt lat="44.87691" lon="0.32103">
        <ele>44.4</ele>
        <time>2022-04-05T10:15:54Z</time>
      </trkpt>
      <trkpt lat="44.87691" lon="0.32103">
        <ele>44.4</ele>
        <time>2022-04-05T10:15:55Z</time>
      </trkpt>
      <trkpt lat="44.87691" lon="0.32103">
        <ele>44.4</ele>
        <time>2022-04-05T10:15:56Z</time>
      </trkpt>
      <trkpt lat="44.87691" lon="0.32103">
        <ele>44.4</ele>
        <time>2022-04-05T10:15:57Z</time>
      </trkpt>
      <trkpt lat="44.87691" lon="0.32103">
        <ele>44.4</ele>
        <time>2022-04-05T10:15:58Z</time>
      </trkpt>
      <trkpt lat="44.87691" lon="0.32104">
        <ele>44.4</ele>
        <time>2022-04-05T10:15:59Z</time>
      </trkpt>
      <trkpt lat="44.87692" lon="0.32104">
        <ele>44.4</ele>
        <time>2022-04-05T10:16:00Z</time>
      </trkpt>
      <trkpt lat="44.87692" lon="0.32104">
        <ele>44.4</ele>
        <time>2022-04-05T10:16:01Z</time>
      </trkpt>
      <trkpt lat="44.87692" lon="0.32104">
        <ele>44.4</ele>
        <time>2022-04-05T10:16:02Z</time>
      </trkpt>
      <trkpt lat="44.87693" lon="0.32103">
        <ele>44.4</ele>
        <time>2022-04-05T10:16:03Z</time>
      </trkpt>
      <trkpt lat="44.87693" lon="0.32103">
        <ele>44.4</ele>
        <time>2022-04-05T10:16:04Z</time>
      </trkpt>
      <trkpt lat="44.87693" lon="0.32104">
        <ele>44.4</ele>
        <time>2022-04-05T10:16:05Z</time>
      </trkpt>
      <trkpt lat="44.87693" lon="0.32104">
        <ele>44.4</ele>
        <time>2022-04-05T10:16:06Z</time>
      </trkpt>
      <trkpt lat="44.87693" lon="0.32104">
        <ele>44.4</ele>
        <time>2022-04-05T10:16:07Z</time>
      </trkpt>
      <trkpt lat="44.87693" lon="0.32104">
        <ele>44.4</ele>
        <time>2022-04-05T10:16:08Z</time>
      </trkpt>
      <trkpt lat="44.87693" lon="0.32104">
        <ele>44.4</ele>
        <time>2022-04-05T10:16:09Z</time>
      </trkpt>
      <trkpt lat="44.87693" lon="0.32104">
        <ele>44.4</ele>
        <time>2022-04-05T10:16:10Z</time>
      </trkpt>
      <trkpt lat="44.87693" lon="0.32104">
        <ele>44.4</ele>
        <time>2022-04-05T10:16:11Z</time>
      </trkpt>
      <trkpt lat="44.87693" lon="0.32104">
        <ele>44.4</ele>
        <time>2022-04-05T10:16:12Z</time>
      </trkpt>
      <trkpt lat="44.87694" lon="0.32104">
        <ele>44.4</ele>
        <time>2022-04-05T10:16:13Z</time>
      </trkpt>
      <trkpt lat="44.87694" lon="0.32104">
        <ele>44.4</ele>
        <time>2022-04-05T10:16:14Z</time>
      </trkpt>
      <trkpt lat="44.87694" lon="0.32104">
        <ele>44.4</ele>
        <time>2022-04-05T10:16:15Z</time>
      </trkpt>
      <trkpt lat="44.87694" lon="0.32104">
        <ele>44.4</ele>
        <time>2022-04-05T10:16:16Z</time>
      </trkpt>
      <trkpt lat="44.87694" lon="0.32104">
        <ele>44.4</ele>
        <time>2022-04-05T10:16:17Z</time>
      </trkpt>
      <trkpt lat="44.87694" lon="0.32104">
        <ele>44.4</ele>
        <time>2022-04-05T10:16:18Z</time>
      </trkpt>
      <trkpt lat="44.87694" lon="0.32104">
        <ele>44.4</ele>
        <time>2022-04-05T10:16:19Z</time>
      </trkpt>
      <trkpt lat="44.87694" lon="0.32104">
        <ele>44.4</ele>
        <time>2022-04-05T10:16:20Z</time>
      </trkpt>
      <trkpt lat="44.87694" lon="0.32104">
        <ele>44.4</ele>
        <time>2022-04-05T10:16:21Z</time>
      </trkpt>
      <trkpt lat="44.87694" lon="0.32104">
        <ele>44.4</ele>
        <time>2022-04-05T10:16:22Z</time>
      </trkpt>
      <trkpt lat="44.87694" lon="0.32104">
        <ele>44.4</ele>
        <time>2022-04-05T10:16:23Z</time>
      </trkpt>
      <trkpt lat="44.87694" lon="0.32104">
        <ele>44.4</ele>
        <time>2022-04-05T10:16:24Z</time>
      </trkpt>
      <trkpt lat="44.87694" lon="0.32104">
        <ele>44.4</ele>
        <time>2022-04-05T10:16:25Z</time>
      </trkpt>
      <trkpt lat="44.87694" lon="0.32104">
        <ele>44.4</ele>
        <time>2022-04-05T10:16:26Z</time>
      </trkpt>
      <trkpt lat="44.87694" lon="0.32104">
        <ele>44.4</ele>
        <time>2022-04-05T10:16:27Z</time>
      </trkpt>
      <trkpt lat="44.87694" lon="0.32104">
        <ele>44.4</ele>
        <time>2022-04-05T10:16:28Z</time>
      </trkpt>
      <trkpt lat="44.87694" lon="0.32104">
        <ele>44.4</ele>
        <time>2022-04-05T10:16:29Z</time>
      </trkpt>
      <trkpt lat="44.87694" lon="0.32104">
        <ele>44.4</ele>
        <time>2022-04-05T10:16:30Z</time>
      </trkpt>
      <trkpt lat="44.87694" lon="0.32104">
        <ele>44.4</ele>
        <time>2022-04-05T10:16:31Z</time>
      </trkpt>
      <trkpt lat="44.87694" lon="0.32104">
        <ele>44.4</ele>
        <time>2022-04-05T10:16:32Z</time>
      </trkpt>
      <trkpt lat="44.87694" lon="0.32104">
        <ele>44.4</ele>
        <time>2022-04-05T10:16:33Z</time>
      </trkpt>
      <trkpt lat="44.87694" lon="0.32104">
        <ele>44.4</ele>
        <time>2022-04-05T10:16:34Z</time>
      </trkpt>
      <trkpt lat="44.87694" lon="0.32104">
        <ele>44.4</ele>
        <time>2022-04-05T10:16:35Z</time>
      </trkpt>
      <trkpt lat="44.87694" lon="0.32104">
        <ele>44.4</ele>
        <time>2022-04-05T10:16:36Z</time>
      </trkpt>
      <trkpt lat="44.87694" lon="0.32104">
        <ele>44.4</ele>
        <time>2022-04-05T10:16:37Z</time>
      </trkpt>
      <trkpt lat="44.87694" lon="0.32104">
        <ele>44.4</ele>
        <time>2022-04-05T10:16:38Z</time>
      </trkpt>
      <trkpt lat="44.87694" lon="0.32104">
        <ele>44.4</ele>
        <time>2022-04-05T10:16:39Z</time>
      </trkpt>
      <trkpt lat="44.87694" lon="0.32104">
        <ele>44.4</ele>
        <time>2022-04-05T10:16:40Z</time>
      </trkpt>
      <trkpt lat="44.87694" lon="0.32104">
        <ele>44.4</ele>
        <time>2022-04-05T10:16:41Z</time>
      </trkpt>
      <trkpt lat="44.87694" lon="0.32104">
        <ele>44.4</ele>
        <time>2022-04-05T10:16:42Z</time>
      </trkpt>
      <trkpt lat="44.87694" lon="0.32104">
        <ele>44.4</ele>
        <time>2022-04-05T10:16:43Z</time>
      </trkpt>
      <trkpt lat="44.87694" lon="0.32104">
        <ele>44.4</ele>
        <time>2022-04-05T10:16:44Z</time>
      </trkpt>
      <trkpt lat="44.87694" lon="0.32104">
        <ele>44.4</ele>
        <time>2022-04-05T10:16:45Z</time>
      </trkpt>
      <trkpt lat="44.87694" lon="0.32104">
        <ele>44.4</ele>
        <time>2022-04-05T10:16:46Z</time>
      </trkpt>
      <trkpt lat="44.87694" lon="0.32104">
        <ele>44.4</ele>
        <time>2022-04-05T10:16:47Z</time>
      </trkpt>
      <trkpt lat="44.87694" lon="0.32104">
        <ele>44.4</ele>
        <time>2022-04-05T10:16:48Z</time>
      </trkpt>
      <trkpt lat="44.87694" lon="0.32104">
        <ele>44.4</ele>
        <time>2022-04-05T10:16:49Z</time>
      </trkpt>
      <trkpt lat="44.87694" lon="0.32104">
        <ele>44.4</ele>
        <time>2022-04-05T10:16:50Z</time>
      </trkpt>
      <trkpt lat="44.87694" lon="0.32104">
        <ele>44.4</ele>
        <time>2022-04-05T10:16:51Z</time>
      </trkpt>
      <trkpt lat="44.87694" lon="0.32104">
        <ele>44.4</ele>
        <time>2022-04-05T10:16:52Z</time>
      </trkpt>
      <trkpt lat="44.87694" lon="0.32104">
        <ele>44.4</ele>
        <time>2022-04-05T10:16:53Z</time>
      </trkpt>
      <trkpt lat="44.87694" lon="0.32104">
        <ele>44.4</ele>
        <time>2022-04-05T10:16:54Z</time>
      </trkpt>
      <trkpt lat="44.87694" lon="0.32104">
        <ele>44.4</ele>
        <time>2022-04-05T10:16:55Z</time>
      </trkpt>
      <trkpt lat="44.87694" lon="0.32104">
        <ele>44.4</ele>
        <time>2022-04-05T10:16:56Z</time>
      </trkpt>
      <trkpt lat="44.87694" lon="0.32104">
        <ele>44.4</ele>
        <time>2022-04-05T10:16:57Z</time>
      </trkpt>
      <trkpt lat="44.87694" lon="0.32104">
        <ele>44.4</ele>
        <time>2022-04-05T10:16:58Z</time>
      </trkpt>
      <trkpt lat="44.87694" lon="0.32104">
        <ele>44.4</ele>
        <time>2022-04-05T10:16:59Z</time>
      </trkpt>
      <trkpt lat="44.87694" lon="0.32104">
        <ele>44.4</ele>
        <time>2022-04-05T10:17:00Z</time>
      </trkpt>
      <trkpt lat="44.87694" lon="0.32104">
        <ele>44.4</ele>
        <time>2022-04-05T10:17:01Z</time>
      </trkpt>
      <trkpt lat="44.87695" lon="0.32104">
        <ele>44.4</ele>
        <time>2022-04-05T10:17:02Z</time>
      </trkpt>
      <trkpt lat="44.87695" lon="0.32104">
        <ele>44.4</ele>
        <time>2022-04-05T10:17:03Z</time>
      </trkpt>
      <trkpt lat="44.87695" lon="0.32104">
        <ele>44.4</ele>
        <time>2022-04-05T10:17:04Z</time>
      </trkpt>
      <trkpt lat="44.87695" lon="0.32104">
        <ele>44.4</ele>
        <time>2022-04-05T10:17:05Z</time>
      </trkpt>
      <trkpt lat="44.87695" lon="0.32104">
        <ele>44.4</ele>
        <time>2022-04-05T10:17:06Z</time>
      </trkpt>
      <trkpt lat="44.87695" lon="0.32104">
        <ele>44.4</ele>
        <time>2022-04-05T10:17:07Z</time>
      </trkpt>
      <trkpt lat="44.87695" lon="0.32104">
        <ele>44.4</ele>
        <time>2022-04-05T10:17:08Z</time>
      </trkpt>
      <trkpt lat="44.87695" lon="0.32104">
        <ele>44.4</ele>
        <time>2022-04-05T10:17:09Z</time>
      </trkpt>
      <trkpt lat="44.87695" lon="0.32104">
        <ele>44.4</ele>
        <time>2022-04-05T10:17:10Z</time>
      </trkpt>
      <trkpt lat="44.87695" lon="0.32104">
        <ele>44.4</ele>
        <time>2022-04-05T10:17:11Z</time>
      </trkpt>
      <trkpt lat="44.87695" lon="0.32104">
        <ele>44.4</ele>
        <time>2022-04-05T10:17:12Z</time>
      </trkpt>
      <trkpt lat="44.87695" lon="0.32104">
        <ele>44.4</ele>
        <time>2022-04-05T10:17:13Z</time>
      </trkpt>
      <trkpt lat="44.87695" lon="0.32104">
        <ele>44.4</ele>
        <time>2022-04-05T10:17:14Z</time>
      </trkpt>
      <trkpt lat="44.87695" lon="0.32104">
        <ele>44.4</ele>
        <time>2022-04-05T10:17:15Z</time>
      </trkpt>
      <trkpt lat="44.87695" lon="0.32104">
        <ele>44.4</ele>
        <time>2022-04-05T10:17:16Z</time>
      </trkpt>
      <trkpt lat="44.87695" lon="0.32104">
        <ele>44.4</ele>
        <time>2022-04-05T10:17:17Z</time>
      </trkpt>
      <trkpt lat="44.87695" lon="0.32104">
        <ele>44.4</ele>
        <time>2022-04-05T10:17:18Z</time>
      </trkpt>
      <trkpt lat="44.87695" lon="0.32104">
        <ele>44.4</ele>
        <time>2022-04-05T10:17:19Z</time>
      </trkpt>
      <trkpt lat="44.87695" lon="0.32104">
        <ele>44.4</ele>
        <time>2022-04-05T10:17:20Z</time>
      </trkpt>
      <trkpt lat="44.87695" lon="0.32104">
        <ele>44.4</ele>
        <time>2022-04-05T10:17:21Z</time>
      </trkpt>
      <trkpt lat="44.87695" lon="0.32104">
        <ele>44.4</ele>
        <time>2022-04-05T10:17:22Z</time>
      </trkpt>
      <trkpt lat="44.87695" lon="0.32104">
        <ele>44.4</ele>
        <time>2022-04-05T10:17:23Z</time>
      </trkpt>
      <trkpt lat="44.87695" lon="0.32104">
        <ele>44.4</ele>
        <time>2022-04-05T10:17:24Z</time>
      </trkpt>
      <trkpt lat="44.87695" lon="0.32104">
        <ele>44.4</ele>
        <time>2022-04-05T10:17:25Z</time>
      </trkpt>
      <trkpt lat="44.87695" lon="0.32104">
        <ele>44.4</ele>
        <time>2022-04-05T10:17:26Z</time>
      </trkpt>
      <trkpt lat="44.87695" lon="0.32104">
        <ele>44.4</ele>
        <time>2022-04-05T10:17:27Z</time>
      </trkpt>
      <trkpt lat="44.87695" lon="0.32104">
        <ele>44.4</ele>
        <time>2022-04-05T10:17:28Z</time>
      </trkpt>
      <trkpt lat="44.87695" lon="0.32104">
        <ele>44.4</ele>
        <time>2022-04-05T10:17:29Z</time>
      </trkpt>
      <trkpt lat="44.87695" lon="0.32104">
        <ele>44.5</ele>
        <time>2022-04-05T10:17:30Z</time>
      </trkpt>
      <trkpt lat="44.87695" lon="0.32104">
        <ele>44.5</ele>
        <time>2022-04-05T10:17:31Z</time>
      </trkpt>
      <trkpt lat="44.87695" lon="0.32104">
        <ele>44.5</ele>
        <time>2022-04-05T10:17:32Z</time>
      </trkpt>
      <trkpt lat="44.87695" lon="0.32104">
        <ele>44.5</ele>
        <time>2022-04-05T10:17:33Z</time>
      </trkpt>
      <trkpt lat="44.87695" lon="0.32104">
        <ele>44.5</ele>
        <time>2022-04-05T10:17:34Z</time>
      </trkpt>
      <trkpt lat="44.87695" lon="0.32104">
        <ele>44.5</ele>
        <time>2022-04-05T10:17:35Z</time>
      </trkpt>
      <trkpt lat="44.87695" lon="0.32104">
        <ele>44.5</ele>
        <time>2022-04-05T10:17:36Z</time>
      </trkpt>
      <trkpt lat="44.87695" lon="0.32104">
        <ele>44.5</ele>
        <time>2022-04-05T10:17:37Z</time>
      </trkpt>
      <trkpt lat="44.87695" lon="0.32104">
        <ele>44.5</ele>
        <time>2022-04-05T10:17:38Z</time>
      </trkpt>
      <trkpt lat="44.87695" lon="0.32104">
        <ele>44.5</ele>
        <time>2022-04-05T10:17:39Z</time>
      </trkpt>
      <trkpt lat="44.87695" lon="0.32104">
        <ele>44.5</ele>
        <time>2022-04-05T10:17:40Z</time>
      </trkpt>
      <trkpt lat="44.87695" lon="0.32104">
        <ele>44.5</ele>
        <time>2022-04-05T10:17:41Z</time>
      </trkpt>
      <trkpt lat="44.87695" lon="0.32104">
        <ele>44.5</ele>
        <time>2022-04-05T10:17:42Z</time>
      </trkpt>
      <trkpt lat="44.87695" lon="0.32104">
        <ele>44.5</ele>
        <time>2022-04-05T10:17:43Z</time>
      </trkpt>
      <trkpt lat="44.87695" lon="0.32104">
        <ele>44.5</ele>
        <time>2022-04-05T10:17:44Z</time>
      </trkpt>
      <trkpt lat="44.87695" lon="0.32104">
        <ele>44.5</ele>
        <time>2022-04-05T10:17:45Z</time>
      </trkpt>
      <trkpt lat="44.87695" lon="0.32104">
        <ele>44.5</ele>
        <time>2022-04-05T10:17:46Z</time>
      </trkpt>
      <trkpt lat="44.87695" lon="0.32104">
        <ele>44.5</ele>
        <time>2022-04-05T10:17:47Z</time>
      </trkpt>
      <trkpt lat="44.87695" lon="0.32104">
        <ele>44.5</ele>
        <time>2022-04-05T10:17:48Z</time>
      </trkpt>
      <trkpt lat="44.87695" lon="0.32104">
        <ele>44.5</ele>
        <time>2022-04-05T10:17:49Z</time>
      </trkpt>
      <trkpt lat="44.87695" lon="0.32104">
        <ele>44.5</ele>
        <time>2022-04-05T10:17:50Z</time>
      </trkpt>
      <trkpt lat="44.87695" lon="0.32104">
        <ele>44.5</ele>
        <time>2022-04-05T10:17:51Z</time>
      </trkpt>
      <trkpt lat="44.87695" lon="0.32104">
        <ele>44.5</ele>
        <time>2022-04-05T10:17:52Z</time>
      </trkpt>
      <trkpt lat="44.87695" lon="0.32104">
        <ele>44.5</ele>
        <time>2022-04-05T10:17:53Z</time>
      </trkpt>
      <trkpt lat="44.87695" lon="0.32104">
        <ele>44.5</ele>
        <time>2022-04-05T10:17:54Z</time>
      </trkpt>
      <trkpt lat="44.87695" lon="0.32104">
        <ele>44.5</ele>
        <time>2022-04-05T10:17:55Z</time>
      </trkpt>
      <trkpt lat="44.87695" lon="0.32104">
        <ele>44.5</ele>
        <time>2022-04-05T10:17:56Z</time>
      </trkpt>
      <trkpt lat="44.87695" lon="0.32104">
        <ele>44.5</ele>
        <time>2022-04-05T10:17:57Z</time>
      </trkpt>
      <trkpt lat="44.87695" lon="0.32104">
        <ele>44.5</ele>
        <time>2022-04-05T10:17:58Z</time>
      </trkpt>
      <trkpt lat="44.87695" lon="0.32104">
        <ele>44.5</ele>
        <time>2022-04-05T10:17:59Z</time>
      </trkpt>
      <trkpt lat="44.87695" lon="0.32105">
        <ele>44.5</ele>
        <time>2022-04-05T10:18:00Z</time>
      </trkpt>
      <trkpt lat="44.87695" lon="0.32105">
        <ele>44.5</ele>
        <time>2022-04-05T10:18:01Z</time>
      </trkpt>
      <trkpt lat="44.87695" lon="0.32105">
        <ele>44.5</ele>
        <time>2022-04-05T10:18:02Z</time>
      </trkpt>
      <trkpt lat="44.87695" lon="0.32105">
        <ele>44.5</ele>
        <time>2022-04-05T10:18:03Z</time>
      </trkpt>
      <trkpt lat="44.87695" lon="0.32105">
        <ele>44.5</ele>
        <time>2022-04-05T10:18:04Z</time>
      </trkpt>
      <trkpt lat="44.87695" lon="0.32105">
        <ele>44.5</ele>
        <time>2022-04-05T10:18:05Z</time>
      </trkpt>
      <trkpt lat="44.87695" lon="0.32105">
        <ele>44.5</ele>
        <time>2022-04-05T10:18:06Z</time>
      </trkpt>
      <trkpt lat="44.87695" lon="0.32105">
        <ele>44.5</ele>
        <time>2022-04-05T10:18:07Z</time>
      </trkpt>
      <trkpt lat="44.87695" lon="0.32105">
        <ele>44.5</ele>
        <time>2022-04-05T10:18:08Z</time>
      </trkpt>
      <trkpt lat="44.87695" lon="0.32105">
        <ele>44.5</ele>
        <time>2022-04-05T10:18:09Z</time>
      </trkpt>
      <trkpt lat="44.87695" lon="0.32105">
        <ele>44.5</ele>
        <time>2022-04-05T10:18:10Z</time>
      </trkpt>
      <trkpt lat="44.87695" lon="0.32105">
        <ele>44.5</ele>
        <time>2022-04-05T10:18:11Z</time>
      </trkpt>
      <trkpt lat="44.87695" lon="0.32105">
        <ele>44.5</ele>
        <time>2022-04-05T10:18:12Z</time>
      </trkpt>
      <trkpt lat="44.87695" lon="0.32105">
        <ele>44.5</ele>
        <time>2022-04-05T10:18:13Z</time>
      </trkpt>
      <trkpt lat="44.87695" lon="0.32105">
        <ele>44.5</ele>
        <time>2022-04-05T10:18:14Z</time>
      </trkpt>
      <trkpt lat="44.87695" lon="0.32105">
        <ele>44.5</ele>
        <time>2022-04-05T10:18:15Z</time>
      </trkpt>
      <trkpt lat="44.87695" lon="0.32105">
        <ele>44.5</ele>
        <time>2022-04-05T10:18:16Z</time>
      </trkpt>
      <trkpt lat="44.87695" lon="0.32105">
        <ele>44.5</ele>
        <time>2022-04-05T10:18:17Z</time>
      </trkpt>
      <trkpt lat="44.87696" lon="0.32105">
        <ele>44.5</ele>
        <time>2022-04-05T10:18:18Z</time>
      </trkpt>
      <trkpt lat="44.87696" lon="0.32105">
        <ele>44.5</ele>
        <time>2022-04-05T10:18:19Z</time>
      </trkpt>
      <trkpt lat="44.87696" lon="0.32105">
        <ele>44.5</ele>
        <time>2022-04-05T10:18:20Z</time>
      </trkpt>
      <trkpt lat="44.87696" lon="0.32105">
        <ele>44.5</ele>
        <time>2022-04-05T10:18:21Z</time>
      </trkpt>
      <trkpt lat="44.87696" lon="0.32105">
        <ele>44.5</ele>
        <time>2022-04-05T10:18:22Z</time>
      </trkpt>
      <trkpt lat="44.87696" lon="0.32105">
        <ele>44.5</ele>
        <time>2022-04-05T10:18:23Z</time>
      </trkpt>
      <trkpt lat="44.87696" lon="0.32105">
        <ele>44.5</ele>
        <time>2022-04-05T10:18:24Z</time>
      </trkpt>
      <trkpt lat="44.87696" lon="0.32105">
        <ele>44.5</ele>
        <time>2022-04-05T10:18:25Z</time>
      </trkpt>
      <trkpt lat="44.87696" lon="0.32105">
        <ele>44.5</ele>
        <time>2022-04-05T10:18:26Z</time>
      </trkpt>
      <trkpt lat="44.87696" lon="0.32105">
        <ele>44.5</ele>
        <time>2022-04-05T10:18:27Z</time>
      </trkpt>
      <trkpt lat="44.87696" lon="0.32105">
        <ele>44.5</ele>
        <time>2022-04-05T10:18:28Z</time>
      </trkpt>
      <trkpt lat="44.87696" lon="0.32105">
        <ele>44.5</ele>
        <time>2022-04-05T10:18:29Z</time>
      </trkpt>
      <trkpt lat="44.87696" lon="0.32105">
        <ele>44.5</ele>
        <time>2022-04-05T10:18:30Z</time>
      </trkpt>
      <trkpt lat="44.87695" lon="0.32105">
        <ele>44.4</ele>
        <time>2022-04-05T10:18:31Z</time>
      </trkpt>
      <trkpt lat="44.87695" lon="0.32105">
        <ele>44.4</ele>
        <time>2022-04-05T10:18:32Z</time>
      </trkpt>
      <trkpt lat="44.87696" lon="0.32105">
        <ele>44.4</ele>
        <time>2022-04-05T10:18:33Z</time>
      </trkpt>
      <trkpt lat="44.87696" lon="0.32105">
        <ele>44.4</ele>
        <time>2022-04-05T10:18:34Z</time>
      </trkpt>
      <trkpt lat="44.87696" lon="0.32105">
        <ele>44.4</ele>
        <time>2022-04-05T10:18:35Z</time>
      </trkpt>
      <trkpt lat="44.87696" lon="0.32105">
        <ele>44.4</ele>
        <time>2022-04-05T10:18:36Z</time>
      </trkpt>
      <trkpt lat="44.87696" lon="0.32105">
        <ele>44.4</ele>
        <time>2022-04-05T10:18:37Z</time>
      </trkpt>
      <trkpt lat="44.87696" lon="0.32105">
        <ele>44.4</ele>
        <time>2022-04-05T10:18:38Z</time>
      </trkpt>
      <trkpt lat="44.87696" lon="0.32105">
        <ele>44.4</ele>
        <time>2022-04-05T10:18:39Z</time>
      </trkpt>
      <trkpt lat="44.87696" lon="0.32105">
        <ele>44.4</ele>
        <time>2022-04-05T10:18:40Z</time>
      </trkpt>
      <trkpt lat="44.87696" lon="0.32105">
        <ele>44.4</ele>
        <time>2022-04-05T10:18:41Z</time>
      </trkpt>
      <trkpt lat="44.87696" lon="0.32105">
        <ele>44.4</ele>
        <time>2022-04-05T10:18:42Z</time>
      </trkpt>
      <trkpt lat="44.87696" lon="0.32105">
        <ele>44.4</ele>
        <time>2022-04-05T10:18:43Z</time>
      </trkpt>
      <trkpt lat="44.87696" lon="0.32105">
        <ele>44.4</ele>
        <time>2022-04-05T10:18:44Z</time>
      </trkpt>
      <trkpt lat="44.87696" lon="0.32105">
        <ele>44.4</ele>
        <time>2022-04-05T10:18:45Z</time>
      </trkpt>
      <trkpt lat="44.87696" lon="0.32105">
        <ele>44.4</ele>
        <time>2022-04-05T10:18:46Z</time>
      </trkpt>
      <trkpt lat="44.87696" lon="0.32106">
        <ele>44.4</ele>
        <time>2022-04-05T10:18:47Z</time>
      </trkpt>
      <trkpt lat="44.87697" lon="0.32106">
        <ele>44.4</ele>
        <time>2022-04-05T10:18:48Z</time>
      </trkpt>
      <trkpt lat="44.87697" lon="0.32105">
        <ele>44.4</ele>
        <time>2022-04-05T10:18:49Z</time>
      </trkpt>
      <trkpt lat="44.87697" lon="0.32105">
        <ele>44.4</ele>
        <time>2022-04-05T10:18:50Z</time>
      </trkpt>
      <trkpt lat="44.87697" lon="0.32105">
        <ele>44.4</ele>
        <time>2022-04-05T10:18:51Z</time>
      </trkpt>
      <trkpt lat="44.87696" lon="0.32105">
        <ele>44.4</ele>
        <time>2022-04-05T10:18:52Z</time>
      </trkpt>
      <trkpt lat="44.87697" lon="0.32106">
        <ele>44.4</ele>
        <time>2022-04-05T10:18:54Z</time>
      </trkpt>
      <trkpt lat="44.87698" lon="0.32106">
        <ele>44.5</ele>
        <time>2022-04-05T10:18:56Z</time>
      </trkpt>
      <trkpt lat="44.87699" lon="0.32106">
        <ele>44.5</ele>
        <time>2022-04-05T10:18:57Z</time>
      </trkpt>
      <trkpt lat="44.87701" lon="0.32106">
        <ele>44.5</ele>
        <time>2022-04-05T10:18:58Z</time>
      </trkpt>
      <trkpt lat="44.87703" lon="0.32105">
        <ele>44.6</ele>
        <time>2022-04-05T10:18:59Z</time>
      </trkpt>
      <trkpt lat="44.87704" lon="0.32105">
        <ele>44.7</ele>
        <time>2022-04-05T10:19:00Z</time>
      </trkpt>
      <trkpt lat="44.87705" lon="0.32104">
        <ele>44.7</ele>
        <time>2022-04-05T10:19:01Z</time>
      </trkpt>
      <trkpt lat="44.87708" lon="0.32104">
        <ele>44.8</ele>
        <time>2022-04-05T10:19:02Z</time>
      </trkpt>
      <trkpt lat="44.8771" lon="0.32105">
        <ele>44.8</ele>
        <time>2022-04-05T10:19:03Z</time>
      </trkpt>
      <trkpt lat="44.8771" lon="0.32105">
        <ele>44.8</ele>
        <time>2022-04-05T10:19:05Z</time>
      </trkpt>
      <trkpt lat="44.87711" lon="0.32105">
        <ele>44.7</ele>
        <time>2022-04-05T10:19:06Z</time>
      </trkpt>
      <trkpt lat="44.87712" lon="0.32105">
        <ele>44.8</ele>
        <time>2022-04-05T10:19:07Z</time>
      </trkpt>
      <trkpt lat="44.87713" lon="0.32105">
        <ele>44.9</ele>
        <time>2022-04-05T10:19:08Z</time>
      </trkpt>
      <trkpt lat="44.87715" lon="0.32105">
        <ele>44.8</ele>
        <time>2022-04-05T10:19:09Z</time>
      </trkpt>
      <trkpt lat="44.87716" lon="0.32105">
        <ele>44.9</ele>
        <time>2022-04-05T10:19:10Z</time>
      </trkpt>
      <trkpt lat="44.87717" lon="0.32104">
        <ele>44.9</ele>
        <time>2022-04-05T10:19:11Z</time>
      </trkpt>
      <trkpt lat="44.87718" lon="0.32104">
        <ele>44.9</ele>
        <time>2022-04-05T10:19:12Z</time>
      </trkpt>
      <trkpt lat="44.87721" lon="0.32103">
        <ele>45</ele>
        <time>2022-04-05T10:19:13Z</time>
      </trkpt>
      <trkpt lat="44.87722" lon="0.32103">
        <ele>45</ele>
        <time>2022-04-05T10:19:15Z</time>
      </trkpt>
      <trkpt lat="44.87723" lon="0.32102">
        <ele>45</ele>
        <time>2022-04-05T10:19:16Z</time>
      </trkpt>
      <trkpt lat="44.87724" lon="0.32102">
        <ele>45</ele>
        <time>2022-04-05T10:19:17Z</time>
      </trkpt>
      <trkpt lat="44.87725" lon="0.32101">
        <ele>45</ele>
        <time>2022-04-05T10:19:18Z</time>
      </trkpt>
      <trkpt lat="44.87727" lon="0.32101">
        <ele>45.2</ele>
        <time>2022-04-05T10:19:19Z</time>
      </trkpt>
      <trkpt lat="44.87728" lon="0.321">
        <ele>45.2</ele>
        <time>2022-04-05T10:19:20Z</time>
      </trkpt>
      <trkpt lat="44.87729" lon="0.321">
        <ele>45.2</ele>
        <time>2022-04-05T10:19:21Z</time>
      </trkpt>
      <trkpt lat="44.8773" lon="0.321">
        <ele>45.2</ele>
        <time>2022-04-05T10:19:22Z</time>
      </trkpt>
      <trkpt lat="44.87731" lon="0.321">
        <ele>45.2</ele>
        <time>2022-04-05T10:19:23Z</time>
      </trkpt>
      <trkpt lat="44.87733" lon="0.321">
        <ele>45.2</ele>
        <time>2022-04-05T10:19:24Z</time>
      </trkpt>
      <trkpt lat="44.87734" lon="0.321">
        <ele>45.2</ele>
        <time>2022-04-05T10:19:25Z</time>
      </trkpt>
      <trkpt lat="44.87736" lon="0.32099">
        <ele>45.3</ele>
        <time>2022-04-05T10:19:26Z</time>
      </trkpt>
      <trkpt lat="44.87738" lon="0.32099">
        <ele>45.3</ele>
        <time>2022-04-05T10:19:27Z</time>
      </trkpt>
      <trkpt lat="44.87739" lon="0.32099">
        <ele>45.3</ele>
        <time>2022-04-05T10:19:28Z</time>
      </trkpt>
      <trkpt lat="44.8774" lon="0.32099">
        <ele>45.3</ele>
        <time>2022-04-05T10:19:30Z</time>
      </trkpt>
      <trkpt lat="44.87741" lon="0.32099">
        <ele>45.3</ele>
        <time>2022-04-05T10:19:31Z</time>
      </trkpt>
      <trkpt lat="44.87742" lon="0.32098">
        <ele>45.3</ele>
        <time>2022-04-05T10:19:32Z</time>
      </trkpt>
      <trkpt lat="44.87743" lon="0.32098">
        <ele>45.3</ele>
        <time>2022-04-05T10:19:33Z</time>
      </trkpt>
      <trkpt lat="44.87745" lon="0.32097">
        <ele>45.4</ele>
        <time>2022-04-05T10:19:34Z</time>
      </trkpt>
      <trkpt lat="44.87746" lon="0.32096">
        <ele>45.4</ele>
        <time>2022-04-05T10:19:36Z</time>
      </trkpt>
      <trkpt lat="44.87747" lon="0.32096">
        <ele>45.5</ele>
        <time>2022-04-05T10:19:37Z</time>
      </trkpt>
      <trkpt lat="44.87748" lon="0.32095">
        <ele>45.5</ele>
        <time>2022-04-05T10:19:38Z</time>
      </trkpt>
      <trkpt lat="44.8775" lon="0.32094">
        <ele>45.5</ele>
        <time>2022-04-05T10:19:39Z</time>
      </trkpt>
      <trkpt lat="44.87751" lon="0.32095">
        <ele>45.5</ele>
        <time>2022-04-05T10:19:40Z</time>
      </trkpt>
      <trkpt lat="44.87753" lon="0.32094">
        <ele>45.5</ele>
        <time>2022-04-05T10:19:41Z</time>
      </trkpt>
      <trkpt lat="44.87754" lon="0.32094">
        <ele>45.5</ele>
        <time>2022-04-05T10:19:42Z</time>
      </trkpt>
      <trkpt lat="44.87755" lon="0.32094">
        <ele>45.5</ele>
        <time>2022-04-05T10:19:43Z</time>
      </trkpt>
      <trkpt lat="44.87757" lon="0.32094">
        <ele>45.5</ele>
        <time>2022-04-05T10:19:44Z</time>
      </trkpt>
      <trkpt lat="44.87757" lon="0.32094">
        <ele>45.5</ele>
        <time>2022-04-05T10:19:45Z</time>
      </trkpt>
      <trkpt lat="44.87759" lon="0.32094">
        <ele>45.5</ele>
        <time>2022-04-05T10:19:47Z</time>
      </trkpt>
      <trkpt lat="44.8776" lon="0.32094">
        <ele>45.5</ele>
        <time>2022-04-05T10:19:48Z</time>
      </trkpt>
      <trkpt lat="44.87762" lon="0.32093">
        <ele>45.5</ele>
        <time>2022-04-05T10:19:49Z</time>
      </trkpt>
      <trkpt lat="44.87763" lon="0.32093">
        <ele>45.5</ele>
        <time>2022-04-05T10:19:50Z</time>
      </trkpt>
      <trkpt lat="44.87764" lon="0.32092">
        <ele>45.5</ele>
        <time>2022-04-05T10:19:51Z</time>
      </trkpt>
      <trkpt lat="44.87765" lon="0.32092">
        <ele>45.5</ele>
        <time>2022-04-05T10:19:52Z</time>
      </trkpt>
      <trkpt lat="44.87766" lon="0.32092">
        <ele>45.5</ele>
        <time>2022-04-05T10:19:53Z</time>
      </trkpt>
      <trkpt lat="44.87768" lon="0.32092">
        <ele>45.6</ele>
        <time>2022-04-05T10:19:54Z</time>
      </trkpt>
      <trkpt lat="44.87768" lon="0.32092">
        <ele>45.6</ele>
        <time>2022-04-05T10:19:55Z</time>
      </trkpt>
      <trkpt lat="44.87771" lon="0.32092">
        <ele>45.6</ele>
        <time>2022-04-05T10:19:57Z</time>
      </trkpt>
      <trkpt lat="44.87772" lon="0.32092">
        <ele>45.6</ele>
        <time>2022-04-05T10:19:58Z</time>
      </trkpt>
      <trkpt lat="44.87773" lon="0.32091">
        <ele>45.6</ele>
        <time>2022-04-05T10:19:59Z</time>
      </trkpt>
      <trkpt lat="44.87775" lon="0.32091">
        <ele>45.6</ele>
        <time>2022-04-05T10:20:00Z</time>
      </trkpt>
      <trkpt lat="44.87775" lon="0.32091">
        <ele>45.6</ele>
        <time>2022-04-05T10:20:01Z</time>
      </trkpt>
      <trkpt lat="44.87776" lon="0.3209">
        <ele>45.6</ele>
        <time>2022-04-05T10:20:02Z</time>
      </trkpt>
      <trkpt lat="44.87777" lon="0.3209">
        <ele>45.6</ele>
        <time>2022-04-05T10:20:03Z</time>
      </trkpt>
      <trkpt lat="44.87779" lon="0.32088">
        <ele>45.6</ele>
        <time>2022-04-05T10:20:04Z</time>
      </trkpt>
      <trkpt lat="44.8778" lon="0.32088">
        <ele>45.7</ele>
        <time>2022-04-05T10:20:05Z</time>
      </trkpt>
      <trkpt lat="44.87781" lon="0.32087">
        <ele>45.7</ele>
        <time>2022-04-05T10:20:07Z</time>
      </trkpt>
      <trkpt lat="44.87782" lon="0.32086">
        <ele>45.7</ele>
        <time>2022-04-05T10:20:08Z</time>
      </trkpt>
      <trkpt lat="44.87783" lon="0.32085">
        <ele>45.7</ele>
        <time>2022-04-05T10:20:09Z</time>
      </trkpt>
      <trkpt lat="44.87784" lon="0.32085">
        <ele>45.7</ele>
        <time>2022-04-05T10:20:10Z</time>
      </trkpt>
      <trkpt lat="44.87785" lon="0.32084">
        <ele>45.7</ele>
        <time>2022-04-05T10:20:11Z</time>
      </trkpt>
      <trkpt lat="44.87786" lon="0.32083">
        <ele>45.9</ele>
        <time>2022-04-05T10:20:12Z</time>
      </trkpt>
      <trkpt lat="44.87787" lon="0.32083">
        <ele>45.9</ele>
        <time>2022-04-05T10:20:13Z</time>
      </trkpt>
      <trkpt lat="44.87788" lon="0.32082">
        <ele>45.9</ele>
        <time>2022-04-05T10:20:14Z</time>
      </trkpt>
      <trkpt lat="44.87789" lon="0.32082">
        <ele>45.9</ele>
        <time>2022-04-05T10:20:15Z</time>
      </trkpt>
      <trkpt lat="44.8779" lon="0.32081">
        <ele>46</ele>
        <time>2022-04-05T10:20:16Z</time>
      </trkpt>
      <trkpt lat="44.87792" lon="0.3208">
        <ele>46.2</ele>
        <time>2022-04-05T10:20:18Z</time>
      </trkpt>
      <trkpt lat="44.87794" lon="0.32078">
        <ele>46.4</ele>
        <time>2022-04-05T10:20:19Z</time>
      </trkpt>
      <trkpt lat="44.87794" lon="0.32078">
        <ele>46.5</ele>
        <time>2022-04-05T10:20:20Z</time>
      </trkpt>
      <trkpt lat="44.87795" lon="0.32078">
        <ele>46.7</ele>
        <time>2022-04-05T10:20:21Z</time>
      </trkpt>
      <trkpt lat="44.87796" lon="0.32078">
        <ele>46.8</ele>
        <time>2022-04-05T10:20:22Z</time>
      </trkpt>
      <trkpt lat="44.87797" lon="0.32077">
        <ele>46.9</ele>
        <time>2022-04-05T10:20:23Z</time>
      </trkpt>
      <trkpt lat="44.87799" lon="0.32075">
        <ele>47</ele>
        <time>2022-04-05T10:20:25Z</time>
      </trkpt>
      <trkpt lat="44.878" lon="0.32074">
        <ele>47.3</ele>
        <time>2022-04-05T10:20:26Z</time>
      </trkpt>
      <trkpt lat="44.878" lon="0.32073">
        <ele>47.4</ele>
        <time>2022-04-05T10:20:27Z</time>
      </trkpt>
      <trkpt lat="44.87801" lon="0.32073">
        <ele>47.6</ele>
        <time>2022-04-05T10:20:28Z</time>
      </trkpt>
      <trkpt lat="44.87803" lon="0.32072">
        <ele>47.7</ele>
        <time>2022-04-05T10:20:29Z</time>
      </trkpt>
      <trkpt lat="44.87803" lon="0.32071">
        <ele>47.8</ele>
        <time>2022-04-05T10:20:30Z</time>
      </trkpt>
      <trkpt lat="44.87804" lon="0.32071">
        <ele>48</ele>
        <time>2022-04-05T10:20:31Z</time>
      </trkpt>
      <trkpt lat="44.87805" lon="0.3207">
        <ele>48.2</ele>
        <time>2022-04-05T10:20:32Z</time>
      </trkpt>
      <trkpt lat="44.87808" lon="0.32069">
        <ele>48.2</ele>
        <time>2022-04-05T10:20:34Z</time>
      </trkpt>
      <trkpt lat="44.87808" lon="0.32068">
        <ele>48.3</ele>
        <time>2022-04-05T10:20:35Z</time>
      </trkpt>
      <trkpt lat="44.8781" lon="0.32068">
        <ele>48.5</ele>
        <time>2022-04-05T10:20:36Z</time>
      </trkpt>
      <trkpt lat="44.87811" lon="0.32068">
        <ele>48.6</ele>
        <time>2022-04-05T10:20:37Z</time>
      </trkpt>
      <trkpt lat="44.87813" lon="0.32067">
        <ele>48.7</ele>
        <time>2022-04-05T10:20:39Z</time>
      </trkpt>
      <trkpt lat="44.87814" lon="0.32066">
        <ele>48.8</ele>
        <time>2022-04-05T10:20:40Z</time>
      </trkpt>
      <trkpt lat="44.87815" lon="0.32066">
        <ele>49.1</ele>
        <time>2022-04-05T10:20:41Z</time>
      </trkpt>
      <trkpt lat="44.87816" lon="0.32066">
        <ele>49.2</ele>
        <time>2022-04-05T10:20:42Z</time>
      </trkpt>
      <trkpt lat="44.87818" lon="0.32065">
        <ele>49.2</ele>
        <time>2022-04-05T10:20:43Z</time>
      </trkpt>
      <trkpt lat="44.87819" lon="0.32064">
        <ele>49.4</ele>
        <time>2022-04-05T10:20:44Z</time>
      </trkpt>
      <trkpt lat="44.8782" lon="0.32064">
        <ele>49.4</ele>
        <time>2022-04-05T10:20:45Z</time>
      </trkpt>
      <trkpt lat="44.8782" lon="0.32063">
        <ele>49.6</ele>
        <time>2022-04-05T10:20:46Z</time>
      </trkpt>
      <trkpt lat="44.87821" lon="0.32063">
        <ele>49.7</ele>
        <time>2022-04-05T10:20:47Z</time>
      </trkpt>
      <trkpt lat="44.87824" lon="0.32062">
        <ele>49.8</ele>
        <time>2022-04-05T10:20:49Z</time>
      </trkpt>
      <trkpt lat="44.87825" lon="0.32061">
        <ele>50</ele>
        <time>2022-04-05T10:20:50Z</time>
      </trkpt>
      <trkpt lat="44.87826" lon="0.32061">
        <ele>50</ele>
        <time>2022-04-05T10:20:51Z</time>
      </trkpt>
      <trkpt lat="44.87827" lon="0.3206">
        <ele>50.1</ele>
        <time>2022-04-05T10:20:53Z</time>
      </trkpt>
      <trkpt lat="44.87828" lon="0.3206">
        <ele>50.3</ele>
        <time>2022-04-05T10:20:54Z</time>
      </trkpt>
      <trkpt lat="44.87829" lon="0.32059">
        <ele>50.3</ele>
        <time>2022-04-05T10:20:55Z</time>
      </trkpt>
      <trkpt lat="44.8783" lon="0.32058">
        <ele>50.4</ele>
        <time>2022-04-05T10:20:56Z</time>
      </trkpt>
      <trkpt lat="44.87831" lon="0.32057">
        <ele>50.7</ele>
        <time>2022-04-05T10:20:57Z</time>
      </trkpt>
      <trkpt lat="44.87832" lon="0.32056">
        <ele>50.7</ele>
        <time>2022-04-05T10:20:58Z</time>
      </trkpt>
      <trkpt lat="44.87833" lon="0.32056">
        <ele>50.8</ele>
        <time>2022-04-05T10:20:59Z</time>
      </trkpt>
      <trkpt lat="44.87834" lon="0.32055">
        <ele>50.9</ele>
        <time>2022-04-05T10:21:00Z</time>
      </trkpt>
      <trkpt lat="44.87835" lon="0.32054">
        <ele>50.9</ele>
        <time>2022-04-05T10:21:02Z</time>
      </trkpt>
      <trkpt lat="44.87836" lon="0.32053">
        <ele>51.3</ele>
        <time>2022-04-05T10:21:03Z</time>
      </trkpt>
      <trkpt lat="44.87838" lon="0.32053">
        <ele>51.2</ele>
        <time>2022-04-05T10:21:04Z</time>
      </trkpt>
      <trkpt lat="44.87839" lon="0.32052">
        <ele>51.4</ele>
        <time>2022-04-05T10:21:05Z</time>
      </trkpt>
      <trkpt lat="44.8784" lon="0.32052">
        <ele>51.5</ele>
        <time>2022-04-05T10:21:06Z</time>
      </trkpt>
      <trkpt lat="44.87841" lon="0.32052">
        <ele>51.5</ele>
        <time>2022-04-05T10:21:07Z</time>
      </trkpt>
      <trkpt lat="44.87842" lon="0.32052">
        <ele>51.6</ele>
        <time>2022-04-05T10:21:08Z</time>
      </trkpt>
      <trkpt lat="44.87843" lon="0.32051">
        <ele>51.8</ele>
        <time>2022-04-05T10:21:09Z</time>
      </trkpt>
      <trkpt lat="44.87844" lon="0.3205">
        <ele>51.7</ele>
        <time>2022-04-05T10:21:11Z</time>
      </trkpt>
      <trkpt lat="44.87845" lon="0.3205">
        <ele>51.8</ele>
        <time>2022-04-05T10:21:12Z</time>
      </trkpt>
      <trkpt lat="44.87846" lon="0.32049">
        <ele>52</ele>
        <time>2022-04-05T10:21:13Z</time>
      </trkpt>
      <trkpt lat="44.87848" lon="0.32048">
        <ele>52.2</ele>
        <time>2022-04-05T10:21:14Z</time>
      </trkpt>
      <trkpt lat="44.87849" lon="0.32048">
        <ele>52.3</ele>
        <time>2022-04-05T10:21:15Z</time>
      </trkpt>
      <trkpt lat="44.8785" lon="0.32048">
        <ele>52.4</ele>
        <time>2022-04-05T10:21:16Z</time>
      </trkpt>
      <trkpt lat="44.87851" lon="0.32048">
        <ele>52.4</ele>
        <time>2022-04-05T10:21:17Z</time>
      </trkpt>
      <trkpt lat="44.87852" lon="0.32048">
        <ele>52.6</ele>
        <time>2022-04-05T10:21:19Z</time>
      </trkpt>
      <trkpt lat="44.87853" lon="0.32047">
        <ele>52.5</ele>
        <time>2022-04-05T10:21:20Z</time>
      </trkpt>
      <trkpt lat="44.87854" lon="0.32047">
        <ele>52.6</ele>
        <time>2022-04-05T10:21:21Z</time>
      </trkpt>
      <trkpt lat="44.87855" lon="0.32047">
        <ele>52.8</ele>
        <time>2022-04-05T10:21:22Z</time>
      </trkpt>
      <trkpt lat="44.87856" lon="0.32047">
        <ele>52.7</ele>
        <time>2022-04-05T10:21:23Z</time>
      </trkpt>
      <trkpt lat="44.87859" lon="0.32047">
        <ele>52.8</ele>
        <time>2022-04-05T10:21:24Z</time>
      </trkpt>
      <trkpt lat="44.87859" lon="0.32048">
        <ele>52.8</ele>
        <time>2022-04-05T10:21:26Z</time>
      </trkpt>
      <trkpt lat="44.8786" lon="0.32048">
        <ele>52.9</ele>
        <time>2022-04-05T10:21:27Z</time>
      </trkpt>
      <trkpt lat="44.87863" lon="0.32047">
        <ele>52.8</ele>
        <time>2022-04-05T10:21:28Z</time>
      </trkpt>
      <trkpt lat="44.87864" lon="0.32046">
        <ele>52.9</ele>
        <time>2022-04-05T10:21:29Z</time>
      </trkpt>
      <trkpt lat="44.87864" lon="0.32046">
        <ele>53.1</ele>
        <time>2022-04-05T10:21:30Z</time>
      </trkpt>
      <trkpt lat="44.87865" lon="0.32045">
        <ele>53</ele>
        <time>2022-04-05T10:21:31Z</time>
      </trkpt>
      <trkpt lat="44.87866" lon="0.32044">
        <ele>53.5</ele>
        <time>2022-04-05T10:21:32Z</time>
      </trkpt>
      <trkpt lat="44.87867" lon="0.32043">
        <ele>53.6</ele>
        <time>2022-04-05T10:21:34Z</time>
      </trkpt>
      <trkpt lat="44.87869" lon="0.32042">
        <ele>53.5</ele>
        <time>2022-04-05T10:21:35Z</time>
      </trkpt>
      <trkpt lat="44.8787" lon="0.32042">
        <ele>53.7</ele>
        <time>2022-04-05T10:21:36Z</time>
      </trkpt>
      <trkpt lat="44.87871" lon="0.32042">
        <ele>53.8</ele>
        <time>2022-04-05T10:21:37Z</time>
      </trkpt>
      <trkpt lat="44.87872" lon="0.32041">
        <ele>53.7</ele>
        <time>2022-04-05T10:21:38Z</time>
      </trkpt>
      <trkpt lat="44.87874" lon="0.3204">
        <ele>54.2</ele>
        <time>2022-04-05T10:21:39Z</time>
      </trkpt>
      <trkpt lat="44.87874" lon="0.3204">
        <ele>54.2</ele>
        <time>2022-04-05T10:21:40Z</time>
      </trkpt>
      <trkpt lat="44.87875" lon="0.32039">
        <ele>54.3</ele>
        <time>2022-04-05T10:21:41Z</time>
      </trkpt>
      <trkpt lat="44.87876" lon="0.32038">
        <ele>54.4</ele>
        <time>2022-04-05T10:21:42Z</time>
      </trkpt>
      <trkpt lat="44.87877" lon="0.32037">
        <ele>54.4</ele>
        <time>2022-04-05T10:21:44Z</time>
      </trkpt>
      <trkpt lat="44.87879" lon="0.32036">
        <ele>54.9</ele>
        <time>2022-04-05T10:21:45Z</time>
      </trkpt>
      <trkpt lat="44.8788" lon="0.32035">
        <ele>55</ele>
        <time>2022-04-05T10:21:46Z</time>
      </trkpt>
      <trkpt lat="44.87882" lon="0.32033">
        <ele>55.1</ele>
        <time>2022-04-05T10:21:47Z</time>
      </trkpt>
      <trkpt lat="44.87883" lon="0.32032">
        <ele>55.2</ele>
        <time>2022-04-05T10:21:48Z</time>
      </trkpt>
      <trkpt lat="44.87883" lon="0.32031">
        <ele>55.5</ele>
        <time>2022-04-05T10:21:49Z</time>
      </trkpt>
      <trkpt lat="44.87885" lon="0.32031">
        <ele>55.7</ele>
        <time>2022-04-05T10:21:50Z</time>
      </trkpt>
      <trkpt lat="44.87886" lon="0.3203">
        <ele>55.8</ele>
        <time>2022-04-05T10:21:51Z</time>
      </trkpt>
      <trkpt lat="44.87887" lon="0.3203">
        <ele>55.8</ele>
        <time>2022-04-05T10:21:52Z</time>
      </trkpt>
      <trkpt lat="44.87887" lon="0.3203">
        <ele>56</ele>
        <time>2022-04-05T10:21:53Z</time>
      </trkpt>
      <trkpt lat="44.87889" lon="0.32029">
        <ele>56.1</ele>
        <time>2022-04-05T10:21:55Z</time>
      </trkpt>
      <trkpt lat="44.8789" lon="0.32028">
        <ele>56</ele>
        <time>2022-04-05T10:21:56Z</time>
      </trkpt>
      <trkpt lat="44.87892" lon="0.32028">
        <ele>56.6</ele>
        <time>2022-04-05T10:21:57Z</time>
      </trkpt>
      <trkpt lat="44.87893" lon="0.32027">
        <ele>56.6</ele>
        <time>2022-04-05T10:21:58Z</time>
      </trkpt>
      <trkpt lat="44.87894" lon="0.32026">
        <ele>56.7</ele>
        <time>2022-04-05T10:21:59Z</time>
      </trkpt>
      <trkpt lat="44.87895" lon="0.32026">
        <ele>56.9</ele>
        <time>2022-04-05T10:22:00Z</time>
      </trkpt>
      <trkpt lat="44.87896" lon="0.32025">
        <ele>56.9</ele>
        <time>2022-04-05T10:22:01Z</time>
      </trkpt>
      <trkpt lat="44.87897" lon="0.32024">
        <ele>57</ele>
        <time>2022-04-05T10:22:02Z</time>
      </trkpt>
      <trkpt lat="44.87898" lon="0.32023">
        <ele>57.6</ele>
        <time>2022-04-05T10:22:03Z</time>
      </trkpt>
      <trkpt lat="44.87899" lon="0.32021">
        <ele>57.7</ele>
        <time>2022-04-05T10:22:04Z</time>
      </trkpt>
      <trkpt lat="44.879" lon="0.3202">
        <ele>57.8</ele>
        <time>2022-04-05T10:22:05Z</time>
      </trkpt>
      <trkpt lat="44.87901" lon="0.3202">
        <ele>57.9</ele>
        <time>2022-04-05T10:22:07Z</time>
      </trkpt>
      <trkpt lat="44.87902" lon="0.32019">
        <ele>58.5</ele>
        <time>2022-04-05T10:22:08Z</time>
      </trkpt>
      <trkpt lat="44.87903" lon="0.32019">
        <ele>58.6</ele>
        <time>2022-04-05T10:22:09Z</time>
      </trkpt>
      <trkpt lat="44.87905" lon="0.32018">
        <ele>58.5</ele>
        <time>2022-04-05T10:22:10Z</time>
      </trkpt>
      <trkpt lat="44.87906" lon="0.32017">
        <ele>58.5</ele>
        <time>2022-04-05T10:22:11Z</time>
      </trkpt>
      <trkpt lat="44.87907" lon="0.32017">
        <ele>58.5</ele>
        <time>2022-04-05T10:22:12Z</time>
      </trkpt>
      <trkpt lat="44.87908" lon="0.32016">
        <ele>58.4</ele>
        <time>2022-04-05T10:22:13Z</time>
      </trkpt>
      <trkpt lat="44.8791" lon="0.32014">
        <ele>58.9</ele>
        <time>2022-04-05T10:22:15Z</time>
      </trkpt>
      <trkpt lat="44.87911" lon="0.32013">
        <ele>58.8</ele>
        <time>2022-04-05T10:22:16Z</time>
      </trkpt>
      <trkpt lat="44.87912" lon="0.32013">
        <ele>58.8</ele>
        <time>2022-04-05T10:22:17Z</time>
      </trkpt>
      <trkpt lat="44.87913" lon="0.32012">
        <ele>58.8</ele>
        <time>2022-04-05T10:22:18Z</time>
      </trkpt>
      <trkpt lat="44.87915" lon="0.32011">
        <ele>58.7</ele>
        <time>2022-04-05T10:22:20Z</time>
      </trkpt>
      <trkpt lat="44.87917" lon="0.32011">
        <ele>58.7</ele>
        <time>2022-04-05T10:22:21Z</time>
      </trkpt>
      <trkpt lat="44.87917" lon="0.3201">
        <ele>59.2</ele>
        <time>2022-04-05T10:22:22Z</time>
      </trkpt>
      <trkpt lat="44.87918" lon="0.3201">
        <ele>59.2</ele>
        <time>2022-04-05T10:22:23Z</time>
      </trkpt>
      <trkpt lat="44.8792" lon="0.3201">
        <ele>59.2</ele>
        <time>2022-04-05T10:22:25Z</time>
      </trkpt>
      <trkpt lat="44.8792" lon="0.32009">
        <ele>59.1</ele>
        <time>2022-04-05T10:22:26Z</time>
      </trkpt>
      <trkpt lat="44.87921" lon="0.32008">
        <ele>59.1</ele>
        <time>2022-04-05T10:22:27Z</time>
      </trkpt>
      <trkpt lat="44.87922" lon="0.32006">
        <ele>59.1</ele>
        <time>2022-04-05T10:22:28Z</time>
      </trkpt>
      <trkpt lat="44.87923" lon="0.32005">
        <ele>59.6</ele>
        <time>2022-04-05T10:22:29Z</time>
      </trkpt>
      <trkpt lat="44.87924" lon="0.32004">
        <ele>59.6</ele>
        <time>2022-04-05T10:22:30Z</time>
      </trkpt>
      <trkpt lat="44.87925" lon="0.32004">
        <ele>59.6</ele>
        <time>2022-04-05T10:22:31Z</time>
      </trkpt>
      <trkpt lat="44.87926" lon="0.32003">
        <ele>59.5</ele>
        <time>2022-04-05T10:22:32Z</time>
      </trkpt>
      <trkpt lat="44.87928" lon="0.32">
        <ele>60</ele>
        <time>2022-04-05T10:22:34Z</time>
      </trkpt>
      <trkpt lat="44.87929" lon="0.31999">
        <ele>60</ele>
        <time>2022-04-05T10:22:35Z</time>
      </trkpt>
      <trkpt lat="44.8793" lon="0.31999">
        <ele>59.9</ele>
        <time>2022-04-05T10:22:36Z</time>
      </trkpt>
      <trkpt lat="44.87931" lon="0.31998">
        <ele>59.9</ele>
        <time>2022-04-05T10:22:37Z</time>
      </trkpt>
      <trkpt lat="44.87933" lon="0.31996">
        <ele>60.3</ele>
        <time>2022-04-05T10:22:38Z</time>
      </trkpt>
      <trkpt lat="44.87934" lon="0.31994">
        <ele>60.3</ele>
        <time>2022-04-05T10:22:40Z</time>
      </trkpt>
      <trkpt lat="44.87935" lon="0.31993">
        <ele>60.7</ele>
        <time>2022-04-05T10:22:41Z</time>
      </trkpt>
      <trkpt lat="44.87936" lon="0.31992">
        <ele>60.7</ele>
        <time>2022-04-05T10:22:42Z</time>
      </trkpt>
      <trkpt lat="44.87936" lon="0.31991">
        <ele>60.7</ele>
        <time>2022-04-05T10:22:43Z</time>
      </trkpt>
      <trkpt lat="44.87938" lon="0.3199">
        <ele>60.7</ele>
        <time>2022-04-05T10:22:44Z</time>
      </trkpt>
      <trkpt lat="44.87939" lon="0.31989">
        <ele>61</ele>
        <time>2022-04-05T10:22:45Z</time>
      </trkpt>
      <trkpt lat="44.8794" lon="0.31988">
        <ele>61</ele>
        <time>2022-04-05T10:22:46Z</time>
      </trkpt>
      <trkpt lat="44.8794" lon="0.31987">
        <ele>61</ele>
        <time>2022-04-05T10:22:47Z</time>
      </trkpt>
      <trkpt lat="44.87941" lon="0.31986">
        <ele>61</ele>
        <time>2022-04-05T10:22:48Z</time>
      </trkpt>
      <trkpt lat="44.87944" lon="0.31983">
        <ele>61.3</ele>
        <time>2022-04-05T10:22:50Z</time>
      </trkpt>
      <trkpt lat="44.87944" lon="0.31983">
        <ele>61.3</ele>
        <time>2022-04-05T10:22:51Z</time>
      </trkpt>
      <trkpt lat="44.87945" lon="0.3198">
        <ele>61.6</ele>
        <time>2022-04-05T10:22:52Z</time>
      </trkpt>
      <trkpt lat="44.87946" lon="0.3198">
        <ele>61.6</ele>
        <time>2022-04-05T10:22:53Z</time>
      </trkpt>
      <trkpt lat="44.87947" lon="0.31979">
        <ele>61.6</ele>
        <time>2022-04-05T10:22:54Z</time>
      </trkpt>
      <trkpt lat="44.87948" lon="0.31977">
        <ele>61.6</ele>
        <time>2022-04-05T10:22:55Z</time>
      </trkpt>
      <trkpt lat="44.87949" lon="0.31976">
        <ele>61.6</ele>
        <time>2022-04-05T10:22:56Z</time>
      </trkpt>
      <trkpt lat="44.8795" lon="0.31976">
        <ele>61.9</ele>
        <time>2022-04-05T10:22:57Z</time>
      </trkpt>
      <trkpt lat="44.87951" lon="0.31975">
        <ele>61.8</ele>
        <time>2022-04-05T10:22:58Z</time>
      </trkpt>
      <trkpt lat="44.87952" lon="0.31974">
        <ele>61.8</ele>
        <time>2022-04-05T10:22:59Z</time>
      </trkpt>
      <trkpt lat="44.87952" lon="0.31973">
        <ele>61.8</ele>
        <time>2022-04-05T10:23:00Z</time>
      </trkpt>
      <trkpt lat="44.87953" lon="0.31972">
        <ele>62.1</ele>
        <time>2022-04-05T10:23:02Z</time>
      </trkpt>
      <trkpt lat="44.87953" lon="0.3197">
        <ele>62.1</ele>
        <time>2022-04-05T10:23:03Z</time>
      </trkpt>
      <trkpt lat="44.87954" lon="0.31969">
        <ele>62.1</ele>
        <time>2022-04-05T10:23:04Z</time>
      </trkpt>
      <trkpt lat="44.87955" lon="0.31967">
        <ele>62.4</ele>
        <time>2022-04-05T10:23:05Z</time>
      </trkpt>
      <trkpt lat="44.87955" lon="0.31966">
        <ele>62.4</ele>
        <time>2022-04-05T10:23:06Z</time>
      </trkpt>
      <trkpt lat="44.87956" lon="0.31965">
        <ele>62.4</ele>
        <time>2022-04-05T10:23:07Z</time>
      </trkpt>
      <trkpt lat="44.87957" lon="0.31963">
        <ele>62.6</ele>
        <time>2022-04-05T10:23:08Z</time>
      </trkpt>
      <trkpt lat="44.87958" lon="0.31961">
        <ele>62.6</ele>
        <time>2022-04-05T10:23:10Z</time>
      </trkpt>
      <trkpt lat="44.87959" lon="0.31959">
        <ele>62.6</ele>
        <time>2022-04-05T10:23:11Z</time>
      </trkpt>
      <trkpt lat="44.8796" lon="0.31958">
        <ele>62.9</ele>
        <time>2022-04-05T10:23:12Z</time>
      </trkpt>
      <trkpt lat="44.87961" lon="0.31957">
        <ele>62.9</ele>
        <time>2022-04-05T10:23:13Z</time>
      </trkpt>
      <trkpt lat="44.87961" lon="0.31956">
        <ele>62.9</ele>
        <time>2022-04-05T10:23:14Z</time>
      </trkpt>
      <trkpt lat="44.87962" lon="0.31954">
        <ele>63.1</ele>
        <time>2022-04-05T10:23:15Z</time>
      </trkpt>
      <trkpt lat="44.87963" lon="0.31953">
        <ele>63.1</ele>
        <time>2022-04-05T10:23:16Z</time>
      </trkpt>
      <trkpt lat="44.87963" lon="0.31951">
        <ele>63.1</ele>
        <time>2022-04-05T10:23:17Z</time>
      </trkpt>
      <trkpt lat="44.87963" lon="0.31949">
        <ele>63.4</ele>
        <time>2022-04-05T10:23:19Z</time>
      </trkpt>
      <trkpt lat="44.87962" lon="0.31946">
        <ele>63.4</ele>
        <time>2022-04-05T10:23:20Z</time>
      </trkpt>
      <trkpt lat="44.87962" lon="0.31945">
        <ele>63.7</ele>
        <time>2022-04-05T10:23:21Z</time>
      </trkpt>
      <trkpt lat="44.87961" lon="0.31944">
        <ele>63.7</ele>
        <time>2022-04-05T10:23:22Z</time>
      </trkpt>
      <trkpt lat="44.87961" lon="0.31943">
        <ele>63.7</ele>
        <time>2022-04-05T10:23:23Z</time>
      </trkpt>
      <trkpt lat="44.8796" lon="0.31941">
        <ele>64</ele>
        <time>2022-04-05T10:23:24Z</time>
      </trkpt>
      <trkpt lat="44.8796" lon="0.31939">
        <ele>64</ele>
        <time>2022-04-05T10:23:25Z</time>
      </trkpt>
      <trkpt lat="44.87959" lon="0.31938">
        <ele>64</ele>
        <time>2022-04-05T10:23:26Z</time>
      </trkpt>
      <trkpt lat="44.87959" lon="0.31937">
        <ele>64.3</ele>
        <time>2022-04-05T10:23:27Z</time>
      </trkpt>
      <trkpt lat="44.87958" lon="0.31934">
        <ele>64.3</ele>
        <time>2022-04-05T10:23:28Z</time>
      </trkpt>
      <trkpt lat="44.87958" lon="0.31932">
        <ele>64.5</ele>
        <time>2022-04-05T10:23:29Z</time>
      </trkpt>
      <trkpt lat="44.87958" lon="0.31931">
        <ele>64.5</ele>
        <time>2022-04-05T10:23:30Z</time>
      </trkpt>
      <trkpt lat="44.87957" lon="0.31928">
        <ele>64.7</ele>
        <time>2022-04-05T10:23:32Z</time>
      </trkpt>
      <trkpt lat="44.87957" lon="0.31927">
        <ele>64.7</ele>
        <time>2022-04-05T10:23:33Z</time>
      </trkpt>
      <trkpt lat="44.87957" lon="0.31926">
        <ele>64.7</ele>
        <time>2022-04-05T10:23:34Z</time>
      </trkpt>
      <trkpt lat="44.87957" lon="0.31923">
        <ele>64.9</ele>
        <time>2022-04-05T10:23:35Z</time>
      </trkpt>
      <trkpt lat="44.87957" lon="0.31922">
        <ele>64.9</ele>
        <time>2022-04-05T10:23:36Z</time>
      </trkpt>
      <trkpt lat="44.87957" lon="0.31921">
        <ele>64.9</ele>
        <time>2022-04-05T10:23:37Z</time>
      </trkpt>
      <trkpt lat="44.87957" lon="0.31919">
        <ele>65.1</ele>
        <time>2022-04-05T10:23:38Z</time>
      </trkpt>
      <trkpt lat="44.87957" lon="0.31916">
        <ele>65.3</ele>
        <time>2022-04-05T10:23:39Z</time>
      </trkpt>
      <trkpt lat="44.87957" lon="0.31914">
        <ele>65.3</ele>
        <time>2022-04-05T10:23:41Z</time>
      </trkpt>
      <trkpt lat="44.87957" lon="0.31913">
        <ele>65.3</ele>
        <time>2022-04-05T10:23:42Z</time>
      </trkpt>
      <trkpt lat="44.87957" lon="0.31912">
        <ele>65.3</ele>
        <time>2022-04-05T10:23:43Z</time>
      </trkpt>
      <trkpt lat="44.87957" lon="0.31911">
        <ele>65.5</ele>
        <time>2022-04-05T10:23:44Z</time>
      </trkpt>
      <trkpt lat="44.87957" lon="0.31908">
        <ele>65.5</ele>
        <time>2022-04-05T10:23:45Z</time>
      </trkpt>
      <trkpt lat="44.87956" lon="0.31907">
        <ele>65.8</ele>
        <time>2022-04-05T10:23:46Z</time>
      </trkpt>
      <trkpt lat="44.87956" lon="0.31905">
        <ele>65.8</ele>
        <time>2022-04-05T10:23:47Z</time>
      </trkpt>
      <trkpt lat="44.87956" lon="0.31904">
        <ele>65.8</ele>
        <time>2022-04-05T10:23:48Z</time>
      </trkpt>
      <trkpt lat="44.87956" lon="0.31902">
        <ele>66</ele>
        <time>2022-04-05T10:23:49Z</time>
      </trkpt>
      <trkpt lat="44.87956" lon="0.319">
        <ele>66</ele>
        <time>2022-04-05T10:23:50Z</time>
      </trkpt>
      <trkpt lat="44.87956" lon="0.31898">
        <ele>66.1</ele>
        <time>2022-04-05T10:23:51Z</time>
      </trkpt>
      <trkpt lat="44.87955" lon="0.31897">
        <ele>66.1</ele>
        <time>2022-04-05T10:23:53Z</time>
      </trkpt>
      <trkpt lat="44.87955" lon="0.31895">
        <ele>66.1</ele>
        <time>2022-04-05T10:23:54Z</time>
      </trkpt>
      <trkpt lat="44.87955" lon="0.31892">
        <ele>66.3</ele>
        <time>2022-04-05T10:23:55Z</time>
      </trkpt>
      <trkpt lat="44.87955" lon="0.3189">
        <ele>66.5</ele>
        <time>2022-04-05T10:23:56Z</time>
      </trkpt>
      <trkpt lat="44.87955" lon="0.31889">
        <ele>66.5</ele>
        <time>2022-04-05T10:23:57Z</time>
      </trkpt>
      <trkpt lat="44.87955" lon="0.31888">
        <ele>66.5</ele>
        <time>2022-04-05T10:23:58Z</time>
      </trkpt>
      <trkpt lat="44.87955" lon="0.31887">
        <ele>66.5</ele>
        <time>2022-04-05T10:23:59Z</time>
      </trkpt>
      <trkpt lat="44.87955" lon="0.31884">
        <ele>66.6</ele>
        <time>2022-04-05T10:24:00Z</time>
      </trkpt>
      <trkpt lat="44.87955" lon="0.31883">
        <ele>66.6</ele>
        <time>2022-04-05T10:24:01Z</time>
      </trkpt>
      <trkpt lat="44.87955" lon="0.31881">
        <ele>66.8</ele>
        <time>2022-04-05T10:24:03Z</time>
      </trkpt>
      <trkpt lat="44.87956" lon="0.31879">
        <ele>66.8</ele>
        <time>2022-04-05T10:24:04Z</time>
      </trkpt>
      <trkpt lat="44.87956" lon="0.31877">
        <ele>66.9</ele>
        <time>2022-04-05T10:24:05Z</time>
      </trkpt>
      <trkpt lat="44.87955" lon="0.31875">
        <ele>66.9</ele>
        <time>2022-04-05T10:24:06Z</time>
      </trkpt>
      <trkpt lat="44.87956" lon="0.31874">
        <ele>66.9</ele>
        <time>2022-04-05T10:24:07Z</time>
      </trkpt>
      <trkpt lat="44.87955" lon="0.31872">
        <ele>67</ele>
        <time>2022-04-05T10:24:08Z</time>
      </trkpt>
      <trkpt lat="44.87955" lon="0.31871">
        <ele>67</ele>
        <time>2022-04-05T10:24:09Z</time>
      </trkpt>
      <trkpt lat="44.87955" lon="0.31868">
        <ele>67</ele>
        <time>2022-04-05T10:24:10Z</time>
      </trkpt>
      <trkpt lat="44.87955" lon="0.31867">
        <ele>67</ele>
        <time>2022-04-05T10:24:11Z</time>
      </trkpt>
      <trkpt lat="44.87955" lon="0.31865">
        <ele>67</ele>
        <time>2022-04-05T10:24:13Z</time>
      </trkpt>
      <trkpt lat="44.87955" lon="0.31863">
        <ele>67.1</ele>
        <time>2022-04-05T10:24:14Z</time>
      </trkpt>
      <trkpt lat="44.87954" lon="0.3186">
        <ele>67.1</ele>
        <time>2022-04-05T10:24:15Z</time>
      </trkpt>
      <trkpt lat="44.87954" lon="0.31859">
        <ele>67.2</ele>
        <time>2022-04-05T10:24:16Z</time>
      </trkpt>
      <trkpt lat="44.87954" lon="0.31857">
        <ele>67.2</ele>
        <time>2022-04-05T10:24:17Z</time>
      </trkpt>
      <trkpt lat="44.87953" lon="0.31855">
        <ele>67.2</ele>
        <time>2022-04-05T10:24:18Z</time>
      </trkpt>
      <trkpt lat="44.87953" lon="0.31851">
        <ele>67.2</ele>
        <time>2022-04-05T10:24:20Z</time>
      </trkpt>
      <trkpt lat="44.87953" lon="0.3185">
        <ele>67.2</ele>
        <time>2022-04-05T10:24:21Z</time>
      </trkpt>
      <trkpt lat="44.87953" lon="0.31849">
        <ele>67.2</ele>
        <time>2022-04-05T10:24:22Z</time>
      </trkpt>
      <trkpt lat="44.87953" lon="0.31847">
        <ele>67.1</ele>
        <time>2022-04-05T10:24:23Z</time>
      </trkpt>
      <trkpt lat="44.87952" lon="0.31844">
        <ele>67.1</ele>
        <time>2022-04-05T10:24:25Z</time>
      </trkpt>
      <trkpt lat="44.87952" lon="0.31843">
        <ele>67</ele>
        <time>2022-04-05T10:24:26Z</time>
      </trkpt>
      <trkpt lat="44.87953" lon="0.31842">
        <ele>67</ele>
        <time>2022-04-05T10:24:27Z</time>
      </trkpt>
      <trkpt lat="44.87954" lon="0.31841">
        <ele>67</ele>
        <time>2022-04-05T10:24:28Z</time>
      </trkpt>
      <trkpt lat="44.87955" lon="0.31838">
        <ele>67</ele>
        <time>2022-04-05T10:24:30Z</time>
      </trkpt>
      <trkpt lat="44.87955" lon="0.31838">
        <ele>67</ele>
        <time>2022-04-05T10:24:31Z</time>
      </trkpt>
      <trkpt lat="44.87956" lon="0.31839">
        <ele>67</ele>
        <time>2022-04-05T10:24:32Z</time>
      </trkpt>
      <trkpt lat="44.87956" lon="0.3184">
        <ele>67</ele>
        <time>2022-04-05T10:24:33Z</time>
      </trkpt>
      <trkpt lat="44.87958" lon="0.31841">
        <ele>67</ele>
        <time>2022-04-05T10:24:35Z</time>
      </trkpt>
      <trkpt lat="44.8796" lon="0.31841">
        <ele>67</ele>
        <time>2022-04-05T10:24:36Z</time>
      </trkpt>
      <trkpt lat="44.87961" lon="0.31842">
        <ele>67</ele>
        <time>2022-04-05T10:24:37Z</time>
      </trkpt>
      <trkpt lat="44.87962" lon="0.31843">
        <ele>67</ele>
        <time>2022-04-05T10:24:38Z</time>
      </trkpt>
      <trkpt lat="44.87964" lon="0.31844">
        <ele>67.1</ele>
        <time>2022-04-05T10:24:39Z</time>
      </trkpt>
      <trkpt lat="44.87967" lon="0.31845">
        <ele>67.1</ele>
        <time>2022-04-05T10:24:40Z</time>
      </trkpt>
      <trkpt lat="44.87968" lon="0.31845">
        <ele>67.1</ele>
        <time>2022-04-05T10:24:41Z</time>
      </trkpt>
      <trkpt lat="44.87969" lon="0.31845">
        <ele>67.1</ele>
        <time>2022-04-05T10:24:42Z</time>
      </trkpt>
      <trkpt lat="44.8797" lon="0.31846">
        <ele>67.1</ele>
        <time>2022-04-05T10:24:43Z</time>
      </trkpt>
      <trkpt lat="44.87973" lon="0.31847">
        <ele>67.1</ele>
        <time>2022-04-05T10:24:44Z</time>
      </trkpt>
      <trkpt lat="44.87974" lon="0.31847">
        <ele>67.1</ele>
        <time>2022-04-05T10:24:45Z</time>
      </trkpt>
      <trkpt lat="44.87975" lon="0.31848">
        <ele>67.1</ele>
        <time>2022-04-05T10:24:46Z</time>
      </trkpt>
      <trkpt lat="44.87978" lon="0.31848">
        <ele>67.1</ele>
        <time>2022-04-05T10:24:48Z</time>
      </trkpt>
      <trkpt lat="44.87981" lon="0.31848">
        <ele>67.1</ele>
        <time>2022-04-05T10:24:50Z</time>
      </trkpt>
      <trkpt lat="44.87982" lon="0.31848">
        <ele>67.1</ele>
        <time>2022-04-05T10:24:51Z</time>
      </trkpt>
      <trkpt lat="44.87983" lon="0.31848">
        <ele>67.1</ele>
        <time>2022-04-05T10:24:52Z</time>
      </trkpt>
      <trkpt lat="44.87984" lon="0.31849">
        <ele>67.1</ele>
        <time>2022-04-05T10:24:53Z</time>
      </trkpt>
      <trkpt lat="44.87987" lon="0.31848">
        <ele>67.1</ele>
        <time>2022-04-05T10:24:54Z</time>
      </trkpt>
      <trkpt lat="44.87988" lon="0.31848">
        <ele>67.1</ele>
        <time>2022-04-05T10:24:55Z</time>
      </trkpt>
      <trkpt lat="44.87989" lon="0.31848">
        <ele>67.1</ele>
        <time>2022-04-05T10:24:56Z</time>
      </trkpt>
      <trkpt lat="44.8799" lon="0.31849">
        <ele>67</ele>
        <time>2022-04-05T10:24:57Z</time>
      </trkpt>
      <trkpt lat="44.87991" lon="0.31849">
        <ele>67</ele>
        <time>2022-04-05T10:24:58Z</time>
      </trkpt>
      <trkpt lat="44.87992" lon="0.31849">
        <ele>67</ele>
        <time>2022-04-05T10:24:59Z</time>
      </trkpt>
      <trkpt lat="44.87994" lon="0.3185">
        <ele>67</ele>
        <time>2022-04-05T10:25:00Z</time>
      </trkpt>
      <trkpt lat="44.87995" lon="0.3185">
        <ele>67</ele>
        <time>2022-04-05T10:25:01Z</time>
      </trkpt>
      <trkpt lat="44.87996" lon="0.3185">
        <ele>67</ele>
        <time>2022-04-05T10:25:02Z</time>
      </trkpt>
      <trkpt lat="44.87998" lon="0.3185">
        <ele>67</ele>
        <time>2022-04-05T10:25:03Z</time>
      </trkpt>
      <trkpt lat="44.88" lon="0.3185">
        <ele>67</ele>
        <time>2022-04-05T10:25:04Z</time>
      </trkpt>
      <trkpt lat="44.88001" lon="0.3185">
        <ele>67</ele>
        <time>2022-04-05T10:25:05Z</time>
      </trkpt>
      <trkpt lat="44.88002" lon="0.31849">
        <ele>67</ele>
        <time>2022-04-05T10:25:06Z</time>
      </trkpt>
      <trkpt lat="44.88003" lon="0.31849">
        <ele>67</ele>
        <time>2022-04-05T10:25:07Z</time>
      </trkpt>
      <trkpt lat="44.88005" lon="0.31848">
        <ele>67</ele>
        <time>2022-04-05T10:25:08Z</time>
      </trkpt>
      <trkpt lat="44.88006" lon="0.31847">
        <ele>66.9</ele>
        <time>2022-04-05T10:25:10Z</time>
      </trkpt>
      <trkpt lat="44.88008" lon="0.31847">
        <ele>66.9</ele>
        <time>2022-04-05T10:25:11Z</time>
      </trkpt>
      <trkpt lat="44.8801" lon="0.31846">
        <ele>66.9</ele>
        <time>2022-04-05T10:25:12Z</time>
      </trkpt>
      <trkpt lat="44.88011" lon="0.31846">
        <ele>66.9</ele>
        <time>2022-04-05T10:25:13Z</time>
      </trkpt>
      <trkpt lat="44.88012" lon="0.31845">
        <ele>66.9</ele>
        <time>2022-04-05T10:25:14Z</time>
      </trkpt>
      <trkpt lat="44.88014" lon="0.31845">
        <ele>66.9</ele>
        <time>2022-04-05T10:25:15Z</time>
      </trkpt>
      <trkpt lat="44.88014" lon="0.31845">
        <ele>66.9</ele>
        <time>2022-04-05T10:25:16Z</time>
      </trkpt>
      <trkpt lat="44.88015" lon="0.31844">
        <ele>66.9</ele>
        <time>2022-04-05T10:25:17Z</time>
      </trkpt>
      <trkpt lat="44.88017" lon="0.31844">
        <ele>66.9</ele>
        <time>2022-04-05T10:25:18Z</time>
      </trkpt>
      <trkpt lat="44.88018" lon="0.31844">
        <ele>66.9</ele>
        <time>2022-04-05T10:25:19Z</time>
      </trkpt>
      <trkpt lat="44.8802" lon="0.31843">
        <ele>66.9</ele>
        <time>2022-04-05T10:25:20Z</time>
      </trkpt>
      <trkpt lat="44.8802" lon="0.31843">
        <ele>66.9</ele>
        <time>2022-04-05T10:25:21Z</time>
      </trkpt>
      <trkpt lat="44.88021" lon="0.31843">
        <ele>66.8</ele>
        <time>2022-04-05T10:25:22Z</time>
      </trkpt>
      <trkpt lat="44.88022" lon="0.31842">
        <ele>66.8</ele>
        <time>2022-04-05T10:25:23Z</time>
      </trkpt>
      <trkpt lat="44.88023" lon="0.31842">
        <ele>66.8</ele>
        <time>2022-04-05T10:25:24Z</time>
      </trkpt>
      <trkpt lat="44.88025" lon="0.31841">
        <ele>66.8</ele>
        <time>2022-04-05T10:25:25Z</time>
      </trkpt>
      <trkpt lat="44.88027" lon="0.31839">
        <ele>66.8</ele>
        <time>2022-04-05T10:25:26Z</time>
      </trkpt>
      <trkpt lat="44.88028" lon="0.31839">
        <ele>66.8</ele>
        <time>2022-04-05T10:25:27Z</time>
      </trkpt>
      <trkpt lat="44.88028" lon="0.31838">
        <ele>66.8</ele>
        <time>2022-04-05T10:25:28Z</time>
      </trkpt>
      <trkpt lat="44.8803" lon="0.31837">
        <ele>66.8</ele>
        <time>2022-04-05T10:25:29Z</time>
      </trkpt>
      <trkpt lat="44.88031" lon="0.31836">
        <ele>66.8</ele>
        <time>2022-04-05T10:25:30Z</time>
      </trkpt>
      <trkpt lat="44.88033" lon="0.31835">
        <ele>66.8</ele>
        <time>2022-04-05T10:25:31Z</time>
      </trkpt>
      <trkpt lat="44.88034" lon="0.31835">
        <ele>66.8</ele>
        <time>2022-04-05T10:25:32Z</time>
      </trkpt>
      <trkpt lat="44.88035" lon="0.31834">
        <ele>66.8</ele>
        <time>2022-04-05T10:25:33Z</time>
      </trkpt>
      <trkpt lat="44.88038" lon="0.31833">
        <ele>66.8</ele>
        <time>2022-04-05T10:25:35Z</time>
      </trkpt>
      <trkpt lat="44.88038" lon="0.31833">
        <ele>66.8</ele>
        <time>2022-04-05T10:25:36Z</time>
      </trkpt>
      <trkpt lat="44.88039" lon="0.31833">
        <ele>66.8</ele>
        <time>2022-04-05T10:25:37Z</time>
      </trkpt>
      <trkpt lat="44.88041" lon="0.31832">
        <ele>66.8</ele>
        <time>2022-04-05T10:25:38Z</time>
      </trkpt>
      <trkpt lat="44.88042" lon="0.31832">
        <ele>66.8</ele>
        <time>2022-04-05T10:25:39Z</time>
      </trkpt>
      <trkpt lat="44.88044" lon="0.31831">
        <ele>66.8</ele>
        <time>2022-04-05T10:25:41Z</time>
      </trkpt>
      <trkpt lat="44.88046" lon="0.31829">
        <ele>66.8</ele>
        <time>2022-04-05T10:25:42Z</time>
      </trkpt>
      <trkpt lat="44.88047" lon="0.31829">
        <ele>66.8</ele>
        <time>2022-04-05T10:25:43Z</time>
      </trkpt>
      <trkpt lat="44.88048" lon="0.31828">
        <ele>66.8</ele>
        <time>2022-04-05T10:25:44Z</time>
      </trkpt>
      <trkpt lat="44.88049" lon="0.31828">
        <ele>66.8</ele>
        <time>2022-04-05T10:25:45Z</time>
      </trkpt>
      <trkpt lat="44.88051" lon="0.31827">
        <ele>66.8</ele>
        <time>2022-04-05T10:25:46Z</time>
      </trkpt>
      <trkpt lat="44.88053" lon="0.31826">
        <ele>66.8</ele>
        <time>2022-04-05T10:25:47Z</time>
      </trkpt>
      <trkpt lat="44.88054" lon="0.31826">
        <ele>66.9</ele>
        <time>2022-04-05T10:25:48Z</time>
      </trkpt>
      <trkpt lat="44.88055" lon="0.31825">
        <ele>66.9</ele>
        <time>2022-04-05T10:25:49Z</time>
      </trkpt>
      <trkpt lat="44.88057" lon="0.31824">
        <ele>67</ele>
        <time>2022-04-05T10:25:50Z</time>
      </trkpt>
      <trkpt lat="44.88057" lon="0.31824">
        <ele>67</ele>
        <time>2022-04-05T10:25:51Z</time>
      </trkpt>
      <trkpt lat="44.88059" lon="0.31822">
        <ele>67</ele>
        <time>2022-04-05T10:25:52Z</time>
      </trkpt>
      <trkpt lat="44.8806" lon="0.31822">
        <ele>67.2</ele>
        <time>2022-04-05T10:25:53Z</time>
      </trkpt>
      <trkpt lat="44.88061" lon="0.31821">
        <ele>67.2</ele>
        <time>2022-04-05T10:25:54Z</time>
      </trkpt>
      <trkpt lat="44.88063" lon="0.31819">
        <ele>67.3</ele>
        <time>2022-04-05T10:25:56Z</time>
      </trkpt>
      <trkpt lat="44.88064" lon="0.31819">
        <ele>67.3</ele>
        <time>2022-04-05T10:25:57Z</time>
      </trkpt>
      <trkpt lat="44.88066" lon="0.31817">
        <ele>67.5</ele>
        <time>2022-04-05T10:25:58Z</time>
      </trkpt>
      <trkpt lat="44.88067" lon="0.31816">
        <ele>67.5</ele>
        <time>2022-04-05T10:25:59Z</time>
      </trkpt>
      <trkpt lat="44.88068" lon="0.31815">
        <ele>67.5</ele>
        <time>2022-04-05T10:26:00Z</time>
      </trkpt>
      <trkpt lat="44.88069" lon="0.31815">
        <ele>67.6</ele>
        <time>2022-04-05T10:26:01Z</time>
      </trkpt>
      <trkpt lat="44.8807" lon="0.31815">
        <ele>67.6</ele>
        <time>2022-04-05T10:26:02Z</time>
      </trkpt>
      <trkpt lat="44.88072" lon="0.31814">
        <ele>67.8</ele>
        <time>2022-04-05T10:26:04Z</time>
      </trkpt>
      <trkpt lat="44.88074" lon="0.31813">
        <ele>67.9</ele>
        <time>2022-04-05T10:26:05Z</time>
      </trkpt>
      <trkpt lat="44.88076" lon="0.31813">
        <ele>68.1</ele>
        <time>2022-04-05T10:26:06Z</time>
      </trkpt>
      <trkpt lat="44.88077" lon="0.31813">
        <ele>68.1</ele>
        <time>2022-04-05T10:26:07Z</time>
      </trkpt>
      <trkpt lat="44.88079" lon="0.31812">
        <ele>68.3</ele>
        <time>2022-04-05T10:26:09Z</time>
      </trkpt>
      <trkpt lat="44.88081" lon="0.31811">
        <ele>68.4</ele>
        <time>2022-04-05T10:26:11Z</time>
      </trkpt>
      <trkpt lat="44.88083" lon="0.3181">
        <ele>68.4</ele>
        <time>2022-04-05T10:26:12Z</time>
      </trkpt>
      <trkpt lat="44.88084" lon="0.3181">
        <ele>68.6</ele>
        <time>2022-04-05T10:26:13Z</time>
      </trkpt>
      <trkpt lat="44.88085" lon="0.3181">
        <ele>68.6</ele>
        <time>2022-04-05T10:26:14Z</time>
      </trkpt>
      <trkpt lat="44.88086" lon="0.3181">
        <ele>68.6</ele>
        <time>2022-04-05T10:26:15Z</time>
      </trkpt>
      <trkpt lat="44.88088" lon="0.31809">
        <ele>68.8</ele>
        <time>2022-04-05T10:26:16Z</time>
      </trkpt>
      <trkpt lat="44.8809" lon="0.31809">
        <ele>69</ele>
        <time>2022-04-05T10:26:17Z</time>
      </trkpt>
      <trkpt lat="44.88091" lon="0.31808">
        <ele>69.2</ele>
        <time>2022-04-05T10:26:18Z</time>
      </trkpt>
      <trkpt lat="44.88092" lon="0.31808">
        <ele>69.2</ele>
        <time>2022-04-05T10:26:19Z</time>
      </trkpt>
      <trkpt lat="44.88093" lon="0.31808">
        <ele>69.2</ele>
        <time>2022-04-05T10:26:20Z</time>
      </trkpt>
      <trkpt lat="44.88094" lon="0.31807">
        <ele>69.4</ele>
        <time>2022-04-05T10:26:21Z</time>
      </trkpt>
      <trkpt lat="44.88096" lon="0.31806">
        <ele>69.6</ele>
        <time>2022-04-05T10:26:22Z</time>
      </trkpt>
      <trkpt lat="44.88097" lon="0.31806">
        <ele>69.6</ele>
        <time>2022-04-05T10:26:23Z</time>
      </trkpt>
      <trkpt lat="44.88098" lon="0.31805">
        <ele>69.6</ele>
        <time>2022-04-05T10:26:24Z</time>
      </trkpt>
      <trkpt lat="44.881" lon="0.31804">
        <ele>70</ele>
        <time>2022-04-05T10:26:25Z</time>
      </trkpt>
      <trkpt lat="44.881" lon="0.31804">
        <ele>70</ele>
        <time>2022-04-05T10:26:26Z</time>
      </trkpt>
      <trkpt lat="44.88102" lon="0.31802">
        <ele>70</ele>
        <time>2022-04-05T10:26:27Z</time>
      </trkpt>
      <trkpt lat="44.88103" lon="0.31802">
        <ele>70.3</ele>
        <time>2022-04-05T10:26:28Z</time>
      </trkpt>
      <trkpt lat="44.88104" lon="0.31801">
        <ele>70.3</ele>
        <time>2022-04-05T10:26:29Z</time>
      </trkpt>
      <trkpt lat="44.88105" lon="0.318">
        <ele>70.7</ele>
        <time>2022-04-05T10:26:31Z</time>
      </trkpt>
      <trkpt lat="44.88106" lon="0.31799">
        <ele>70.7</ele>
        <time>2022-04-05T10:26:32Z</time>
      </trkpt>
      <trkpt lat="44.88108" lon="0.31797">
        <ele>70.7</ele>
        <time>2022-04-05T10:26:33Z</time>
      </trkpt>
      <trkpt lat="44.88109" lon="0.31796">
        <ele>70.9</ele>
        <time>2022-04-05T10:26:34Z</time>
      </trkpt>
      <trkpt lat="44.8811" lon="0.31796">
        <ele>71.1</ele>
        <time>2022-04-05T10:26:35Z</time>
      </trkpt>
      <trkpt lat="44.88111" lon="0.31796">
        <ele>71.1</ele>
        <time>2022-04-05T10:26:36Z</time>
      </trkpt>
      <trkpt lat="44.88112" lon="0.31795">
        <ele>71.3</ele>
        <time>2022-04-05T10:26:37Z</time>
      </trkpt>
      <trkpt lat="44.88114" lon="0.31795">
        <ele>71.3</ele>
        <time>2022-04-05T10:26:39Z</time>
      </trkpt>
      <trkpt lat="44.88115" lon="0.31794">
        <ele>71.4</ele>
        <time>2022-04-05T10:26:40Z</time>
      </trkpt>
      <trkpt lat="44.88117" lon="0.31794">
        <ele>71.4</ele>
        <time>2022-04-05T10:26:41Z</time>
      </trkpt>
      <trkpt lat="44.88118" lon="0.31794">
        <ele>71.6</ele>
        <time>2022-04-05T10:26:42Z</time>
      </trkpt>
      <trkpt lat="44.88119" lon="0.31793">
        <ele>71.6</ele>
        <time>2022-04-05T10:26:43Z</time>
      </trkpt>
      <trkpt lat="44.8812" lon="0.31793">
        <ele>71.6</ele>
        <time>2022-04-05T10:26:44Z</time>
      </trkpt>
      <trkpt lat="44.88122" lon="0.31792">
        <ele>71.7</ele>
        <time>2022-04-05T10:26:45Z</time>
      </trkpt>
      <trkpt lat="44.88122" lon="0.31793">
        <ele>71.7</ele>
        <time>2022-04-05T10:26:46Z</time>
      </trkpt>
      <trkpt lat="44.88123" lon="0.31793">
        <ele>71.7</ele>
        <time>2022-04-05T10:26:47Z</time>
      </trkpt>
      <trkpt lat="44.88125" lon="0.31793">
        <ele>71.8</ele>
        <time>2022-04-05T10:26:48Z</time>
      </trkpt>
      <trkpt lat="44.88126" lon="0.31793">
        <ele>71.8</ele>
        <time>2022-04-05T10:26:49Z</time>
      </trkpt>
      <trkpt lat="44.88127" lon="0.31793">
        <ele>71.9</ele>
        <time>2022-04-05T10:26:50Z</time>
      </trkpt>
      <trkpt lat="44.88128" lon="0.31793">
        <ele>71.9</ele>
        <time>2022-04-05T10:26:52Z</time>
      </trkpt>
      <trkpt lat="44.88129" lon="0.31793">
        <ele>71.9</ele>
        <time>2022-04-05T10:26:53Z</time>
      </trkpt>
      <trkpt lat="44.8813" lon="0.31793">
        <ele>72</ele>
        <time>2022-04-05T10:26:54Z</time>
      </trkpt>
      <trkpt lat="44.88132" lon="0.31793">
        <ele>72</ele>
        <time>2022-04-05T10:26:56Z</time>
      </trkpt>
      <trkpt lat="44.88134" lon="0.31793">
        <ele>72.1</ele>
        <time>2022-04-05T10:26:57Z</time>
      </trkpt>
      <trkpt lat="44.88136" lon="0.31793">
        <ele>72.3</ele>
        <time>2022-04-05T10:26:58Z</time>
      </trkpt>
      <trkpt lat="44.88137" lon="0.31793">
        <ele>72.3</ele>
        <time>2022-04-05T10:26:59Z</time>
      </trkpt>
      <trkpt lat="44.88137" lon="0.31793">
        <ele>72.3</ele>
        <time>2022-04-05T10:27:00Z</time>
      </trkpt>
      <trkpt lat="44.88139" lon="0.31793">
        <ele>72.4</ele>
        <time>2022-04-05T10:27:01Z</time>
      </trkpt>
      <trkpt lat="44.8814" lon="0.31793">
        <ele>72.4</ele>
        <time>2022-04-05T10:27:02Z</time>
      </trkpt>
      <trkpt lat="44.88143" lon="0.31793">
        <ele>72.5</ele>
        <time>2022-04-05T10:27:03Z</time>
      </trkpt>
      <trkpt lat="44.88144" lon="0.31794">
        <ele>72.5</ele>
        <time>2022-04-05T10:27:04Z</time>
      </trkpt>
      <trkpt lat="44.88145" lon="0.31794">
        <ele>72.5</ele>
        <time>2022-04-05T10:27:05Z</time>
      </trkpt>
      <trkpt lat="44.88145" lon="0.31794">
        <ele>72.6</ele>
        <time>2022-04-05T10:27:06Z</time>
      </trkpt>
      <trkpt lat="44.88146" lon="0.31794">
        <ele>72.6</ele>
        <time>2022-04-05T10:27:07Z</time>
      </trkpt>
      <trkpt lat="44.88148" lon="0.31794">
        <ele>72.6</ele>
        <time>2022-04-05T10:27:09Z</time>
      </trkpt>
      <trkpt lat="44.88149" lon="0.31793">
        <ele>72.6</ele>
        <time>2022-04-05T10:27:10Z</time>
      </trkpt>
      <trkpt lat="44.8815" lon="0.31793">
        <ele>72.6</ele>
        <time>2022-04-05T10:27:11Z</time>
      </trkpt>
      <trkpt lat="44.88151" lon="0.31793">
        <ele>72.7</ele>
        <time>2022-04-05T10:27:12Z</time>
      </trkpt>
      <trkpt lat="44.88152" lon="0.31793">
        <ele>72.7</ele>
        <time>2022-04-05T10:27:13Z</time>
      </trkpt>
      <trkpt lat="44.88153" lon="0.31792">
        <ele>72.7</ele>
        <time>2022-04-05T10:27:14Z</time>
      </trkpt>
      <trkpt lat="44.88154" lon="0.31792">
        <ele>72.8</ele>
        <time>2022-04-05T10:27:15Z</time>
      </trkpt>
      <trkpt lat="44.88156" lon="0.31791">
        <ele>72.9</ele>
        <time>2022-04-05T10:27:16Z</time>
      </trkpt>
      <trkpt lat="44.88156" lon="0.31791">
        <ele>72.9</ele>
        <time>2022-04-05T10:27:17Z</time>
      </trkpt>
      <trkpt lat="44.88158" lon="0.31791">
        <ele>73</ele>
        <time>2022-04-05T10:27:18Z</time>
      </trkpt>
      <trkpt lat="44.88159" lon="0.31791">
        <ele>73</ele>
        <time>2022-04-05T10:27:19Z</time>
      </trkpt>
      <trkpt lat="44.88161" lon="0.31791">
        <ele>73.1</ele>
        <time>2022-04-05T10:27:21Z</time>
      </trkpt>
      <trkpt lat="44.88162" lon="0.31792">
        <ele>73.1</ele>
        <time>2022-04-05T10:27:22Z</time>
      </trkpt>
      <trkpt lat="44.88163" lon="0.31792">
        <ele>72.9</ele>
        <time>2022-04-05T10:27:23Z</time>
      </trkpt>
      <trkpt lat="44.88164" lon="0.31792">
        <ele>73</ele>
        <time>2022-04-05T10:27:24Z</time>
      </trkpt>
      <trkpt lat="44.88165" lon="0.31793">
        <ele>73</ele>
        <time>2022-04-05T10:27:25Z</time>
      </trkpt>
      <trkpt lat="44.88166" lon="0.31793">
        <ele>73</ele>
        <time>2022-04-05T10:27:26Z</time>
      </trkpt>
      <trkpt lat="44.88167" lon="0.31793">
        <ele>73.1</ele>
        <time>2022-04-05T10:27:27Z</time>
      </trkpt>
      <trkpt lat="44.88169" lon="0.31795">
        <ele>73.1</ele>
        <time>2022-04-05T10:27:28Z</time>
      </trkpt>
      <trkpt lat="44.8817" lon="0.31795">
        <ele>73.3</ele>
        <time>2022-04-05T10:27:30Z</time>
      </trkpt>
      <trkpt lat="44.88171" lon="0.31796">
        <ele>73.3</ele>
        <time>2022-04-05T10:27:31Z</time>
      </trkpt>
      <trkpt lat="44.88172" lon="0.31796">
        <ele>73.3</ele>
        <time>2022-04-05T10:27:32Z</time>
      </trkpt>
      <trkpt lat="44.88173" lon="0.31796">
        <ele>73.3</ele>
        <time>2022-04-05T10:27:33Z</time>
      </trkpt>
      <trkpt lat="44.88174" lon="0.31795">
        <ele>73.3</ele>
        <time>2022-04-05T10:27:34Z</time>
      </trkpt>
      <trkpt lat="44.88175" lon="0.31795">
        <ele>73.3</ele>
        <time>2022-04-05T10:27:35Z</time>
      </trkpt>
      <trkpt lat="44.88176" lon="0.31795">
        <ele>73.4</ele>
        <time>2022-04-05T10:27:36Z</time>
      </trkpt>
      <trkpt lat="44.88177" lon="0.31794">
        <ele>73.4</ele>
        <time>2022-04-05T10:27:37Z</time>
      </trkpt>
      <trkpt lat="44.88178" lon="0.31792">
        <ele>73.5</ele>
        <time>2022-04-05T10:27:38Z</time>
      </trkpt>
      <trkpt lat="44.88178" lon="0.3179">
        <ele>73.5</ele>
        <time>2022-04-05T10:27:39Z</time>
      </trkpt>
      <trkpt lat="44.88178" lon="0.31789">
        <ele>73.5</ele>
        <time>2022-04-05T10:27:40Z</time>
      </trkpt>
      <trkpt lat="44.88177" lon="0.31786">
        <ele>73.6</ele>
        <time>2022-04-05T10:27:42Z</time>
      </trkpt>
      <trkpt lat="44.88176" lon="0.31785">
        <ele>73.6</ele>
        <time>2022-04-05T10:27:43Z</time>
      </trkpt>
      <trkpt lat="44.88176" lon="0.31785">
        <ele>73.6</ele>
        <time>2022-04-05T10:27:44Z</time>
      </trkpt>
      <trkpt lat="44.88175" lon="0.31785">
        <ele>73.6</ele>
        <time>2022-04-05T10:27:45Z</time>
      </trkpt>
      <trkpt lat="44.88175" lon="0.31784">
        <ele>73.5</ele>
        <time>2022-04-05T10:27:46Z</time>
      </trkpt>
      <trkpt lat="44.88175" lon="0.31785">
        <ele>73.5</ele>
        <time>2022-04-05T10:27:47Z</time>
      </trkpt>
      <trkpt lat="44.88174" lon="0.31785">
        <ele>73.5</ele>
        <time>2022-04-05T10:27:48Z</time>
      </trkpt>
      <trkpt lat="44.88174" lon="0.31785">
        <ele>73.5</ele>
        <time>2022-04-05T10:27:49Z</time>
      </trkpt>
      <trkpt lat="44.88174" lon="0.31785">
        <ele>73.5</ele>
        <time>2022-04-05T10:27:50Z</time>
      </trkpt>
      <trkpt lat="44.88174" lon="0.31785">
        <ele>73.5</ele>
        <time>2022-04-05T10:27:51Z</time>
      </trkpt>
      <trkpt lat="44.88174" lon="0.31785">
        <ele>73.5</ele>
        <time>2022-04-05T10:27:52Z</time>
      </trkpt>
      <trkpt lat="44.88174" lon="0.31785">
        <ele>73.5</ele>
        <time>2022-04-05T10:27:53Z</time>
      </trkpt>
      <trkpt lat="44.88174" lon="0.31785">
        <ele>73.5</ele>
        <time>2022-04-05T10:27:54Z</time>
      </trkpt>
      <trkpt lat="44.88173" lon="0.31785">
        <ele>73.5</ele>
        <time>2022-04-05T10:27:55Z</time>
      </trkpt>
      <trkpt lat="44.88173" lon="0.31785">
        <ele>73.5</ele>
        <time>2022-04-05T10:27:56Z</time>
      </trkpt>
      <trkpt lat="44.88173" lon="0.31785">
        <ele>73.5</ele>
        <time>2022-04-05T10:27:57Z</time>
      </trkpt>
      <trkpt lat="44.88173" lon="0.31785">
        <ele>73.5</ele>
        <time>2022-04-05T10:27:58Z</time>
      </trkpt>
      <trkpt lat="44.88173" lon="0.31785">
        <ele>73.5</ele>
        <time>2022-04-05T10:27:59Z</time>
      </trkpt>
      <trkpt lat="44.88173" lon="0.31785">
        <ele>73.5</ele>
        <time>2022-04-05T10:28:00Z</time>
      </trkpt>
      <trkpt lat="44.88173" lon="0.31785">
        <ele>73.5</ele>
        <time>2022-04-05T10:28:01Z</time>
      </trkpt>
      <trkpt lat="44.88172" lon="0.31784">
        <ele>73.5</ele>
        <time>2022-04-05T10:28:02Z</time>
      </trkpt>
      <trkpt lat="44.88172" lon="0.31784">
        <ele>73.5</ele>
        <time>2022-04-05T10:28:03Z</time>
      </trkpt>
      <trkpt lat="44.88172" lon="0.31784">
        <ele>73.5</ele>
        <time>2022-04-05T10:28:04Z</time>
      </trkpt>
      <trkpt lat="44.88172" lon="0.31784">
        <ele>73.5</ele>
        <time>2022-04-05T10:28:05Z</time>
      </trkpt>
      <trkpt lat="44.88172" lon="0.31784">
        <ele>73.4</ele>
        <time>2022-04-05T10:28:06Z</time>
      </trkpt>
      <trkpt lat="44.88172" lon="0.31784">
        <ele>73.4</ele>
        <time>2022-04-05T10:28:07Z</time>
      </trkpt>
      <trkpt lat="44.88172" lon="0.31784">
        <ele>73.4</ele>
        <time>2022-04-05T10:28:08Z</time>
      </trkpt>
      <trkpt lat="44.88172" lon="0.31784">
        <ele>73.4</ele>
        <time>2022-04-05T10:28:09Z</time>
      </trkpt>
      <trkpt lat="44.88172" lon="0.31784">
        <ele>73.4</ele>
        <time>2022-04-05T10:28:10Z</time>
      </trkpt>
      <trkpt lat="44.88171" lon="0.31784">
        <ele>73.4</ele>
        <time>2022-04-05T10:28:11Z</time>
      </trkpt>
      <trkpt lat="44.88171" lon="0.31784">
        <ele>73.4</ele>
        <time>2022-04-05T10:28:12Z</time>
      </trkpt>
      <trkpt lat="44.88171" lon="0.31784">
        <ele>73.4</ele>
        <time>2022-04-05T10:28:13Z</time>
      </trkpt>
      <trkpt lat="44.88171" lon="0.31784">
        <ele>73.4</ele>
        <time>2022-04-05T10:28:14Z</time>
      </trkpt>
      <trkpt lat="44.88171" lon="0.31784">
        <ele>73.4</ele>
        <time>2022-04-05T10:28:15Z</time>
      </trkpt>
      <trkpt lat="44.88171" lon="0.31784">
        <ele>73.4</ele>
        <time>2022-04-05T10:28:16Z</time>
      </trkpt>
      <trkpt lat="44.88171" lon="0.31784">
        <ele>73.4</ele>
        <time>2022-04-05T10:28:17Z</time>
      </trkpt>
      <trkpt lat="44.88171" lon="0.31784">
        <ele>73.4</ele>
        <time>2022-04-05T10:28:18Z</time>
      </trkpt>
      <trkpt lat="44.88171" lon="0.31784">
        <ele>73.4</ele>
        <time>2022-04-05T10:28:19Z</time>
      </trkpt>
      <trkpt lat="44.8817" lon="0.31784">
        <ele>73.4</ele>
        <time>2022-04-05T10:28:21Z</time>
      </trkpt>
      <trkpt lat="44.8817" lon="0.31784">
        <ele>73.4</ele>
        <time>2022-04-05T10:28:22Z</time>
      </trkpt>
      <trkpt lat="44.8817" lon="0.31783">
        <ele>73.4</ele>
        <time>2022-04-05T10:28:23Z</time>
      </trkpt>
      <trkpt lat="44.88167" lon="0.31783">
        <ele>73.5</ele>
        <time>2022-04-05T10:28:24Z</time>
      </trkpt>
      <trkpt lat="44.88166" lon="0.31783">
        <ele>73.5</ele>
        <time>2022-04-05T10:28:25Z</time>
      </trkpt>
      <trkpt lat="44.88165" lon="0.31782">
        <ele>73.4</ele>
        <time>2022-04-05T10:28:27Z</time>
      </trkpt>
      <trkpt lat="44.88163" lon="0.31782">
        <ele>73.4</ele>
        <time>2022-04-05T10:28:28Z</time>
      </trkpt>
      <trkpt lat="44.88161" lon="0.31781">
        <ele>73.3</ele>
        <time>2022-04-05T10:28:29Z</time>
      </trkpt>
      <trkpt lat="44.8816" lon="0.3178">
        <ele>73.3</ele>
        <time>2022-04-05T10:28:30Z</time>
      </trkpt>
      <trkpt lat="44.88159" lon="0.31779">
        <ele>73.3</ele>
        <time>2022-04-05T10:28:32Z</time>
      </trkpt>
      <trkpt lat="44.88157" lon="0.31778">
        <ele>73.4</ele>
        <time>2022-04-05T10:28:33Z</time>
      </trkpt>
      <trkpt lat="44.88155" lon="0.31777">
        <ele>73.4</ele>
        <time>2022-04-05T10:28:34Z</time>
      </trkpt>
      <trkpt lat="44.88155" lon="0.31777">
        <ele>73.4</ele>
        <time>2022-04-05T10:28:35Z</time>
      </trkpt>
      <trkpt lat="44.88154" lon="0.31776">
        <ele>73.3</ele>
        <time>2022-04-05T10:28:36Z</time>
      </trkpt>
      <trkpt lat="44.88152" lon="0.31776">
        <ele>73.3</ele>
        <time>2022-04-05T10:28:37Z</time>
      </trkpt>
      <trkpt lat="44.88151" lon="0.31775">
        <ele>73.3</ele>
        <time>2022-04-05T10:28:38Z</time>
      </trkpt>
      <trkpt lat="44.8815" lon="0.31775">
        <ele>73.3</ele>
        <time>2022-04-05T10:28:39Z</time>
      </trkpt>
      <trkpt lat="44.88149" lon="0.31775">
        <ele>73.3</ele>
        <time>2022-04-05T10:28:40Z</time>
      </trkpt>
      <trkpt lat="44.88148" lon="0.31774">
        <ele>73.4</ele>
        <time>2022-04-05T10:28:41Z</time>
      </trkpt>
      <trkpt lat="44.88146" lon="0.31773">
        <ele>73.4</ele>
        <time>2022-04-05T10:28:42Z</time>
      </trkpt>
      <trkpt lat="44.88145" lon="0.31773">
        <ele>73.4</ele>
        <time>2022-04-05T10:28:43Z</time>
      </trkpt>
      <trkpt lat="44.88144" lon="0.31772">
        <ele>73.3</ele>
        <time>2022-04-05T10:28:45Z</time>
      </trkpt>
      <trkpt lat="44.88142" lon="0.31771">
        <ele>73.2</ele>
        <time>2022-04-05T10:28:47Z</time>
      </trkpt>
      <trkpt lat="44.88141" lon="0.3177">
        <ele>73.2</ele>
        <time>2022-04-05T10:28:48Z</time>
      </trkpt>
      <trkpt lat="44.88139" lon="0.3177">
        <ele>73.4</ele>
        <time>2022-04-05T10:28:49Z</time>
      </trkpt>
      <trkpt lat="44.88138" lon="0.31769">
        <ele>73.3</ele>
        <time>2022-04-05T10:28:50Z</time>
      </trkpt>
      <trkpt lat="44.88137" lon="0.31768">
        <ele>73.3</ele>
        <time>2022-04-05T10:28:51Z</time>
      </trkpt>
      <trkpt lat="44.88136" lon="0.31767">
        <ele>73.3</ele>
        <time>2022-04-05T10:28:52Z</time>
      </trkpt>
      <trkpt lat="44.88135" lon="0.31767">
        <ele>73.3</ele>
        <time>2022-04-05T10:28:53Z</time>
      </trkpt>
      <trkpt lat="44.88133" lon="0.31766">
        <ele>73.3</ele>
        <time>2022-04-05T10:28:54Z</time>
      </trkpt>
      <trkpt lat="44.88133" lon="0.31766">
        <ele>73.3</ele>
        <time>2022-04-05T10:28:55Z</time>
      </trkpt>
      <trkpt lat="44.88132" lon="0.31766">
        <ele>73.4</ele>
        <time>2022-04-05T10:28:56Z</time>
      </trkpt>
      <trkpt lat="44.88131" lon="0.31766">
        <ele>73.4</ele>
        <time>2022-04-05T10:28:57Z</time>
      </trkpt>
      <trkpt lat="44.8813" lon="0.31765">
        <ele>73.4</ele>
        <time>2022-04-05T10:28:58Z</time>
      </trkpt>
      <trkpt lat="44.88129" lon="0.31765">
        <ele>73.3</ele>
        <time>2022-04-05T10:28:59Z</time>
      </trkpt>
      <trkpt lat="44.88127" lon="0.31765">
        <ele>73.3</ele>
        <time>2022-04-05T10:29:00Z</time>
      </trkpt>
      <trkpt lat="44.88126" lon="0.31764">
        <ele>73.3</ele>
        <time>2022-04-05T10:29:01Z</time>
      </trkpt>
      <trkpt lat="44.88126" lon="0.31764">
        <ele>73.3</ele>
        <time>2022-04-05T10:29:02Z</time>
      </trkpt>
      <trkpt lat="44.88124" lon="0.31763">
        <ele>73.3</ele>
        <time>2022-04-05T10:29:03Z</time>
      </trkpt>
      <trkpt lat="44.88124" lon="0.31763">
        <ele>73.3</ele>
        <time>2022-04-05T10:29:04Z</time>
      </trkpt>
      <trkpt lat="44.88123" lon="0.31763">
        <ele>73.2</ele>
        <time>2022-04-05T10:29:05Z</time>
      </trkpt>
      <trkpt lat="44.88121" lon="0.31763">
        <ele>73.2</ele>
        <time>2022-04-05T10:29:06Z</time>
      </trkpt>
      <trkpt lat="44.8812" lon="0.31763">
        <ele>73.1</ele>
        <time>2022-04-05T10:29:07Z</time>
      </trkpt>
      <trkpt lat="44.88119" lon="0.31763">
        <ele>73.1</ele>
        <time>2022-04-05T10:29:08Z</time>
      </trkpt>
      <trkpt lat="44.88117" lon="0.31762">
        <ele>73</ele>
        <time>2022-04-05T10:29:09Z</time>
      </trkpt>
      <trkpt lat="44.88116" lon="0.31762">
        <ele>73</ele>
        <time>2022-04-05T10:29:10Z</time>
      </trkpt>
      <trkpt lat="44.88116" lon="0.31762">
        <ele>73.3</ele>
        <time>2022-04-05T10:29:11Z</time>
      </trkpt>
      <trkpt lat="44.88114" lon="0.31762">
        <ele>73.2</ele>
        <time>2022-04-05T10:29:12Z</time>
      </trkpt>
      <trkpt lat="44.88113" lon="0.31761">
        <ele>73.2</ele>
        <time>2022-04-05T10:29:13Z</time>
      </trkpt>
      <trkpt lat="44.88111" lon="0.31761">
        <ele>73</ele>
        <time>2022-04-05T10:29:15Z</time>
      </trkpt>
      <trkpt lat="44.8811" lon="0.31761">
        <ele>73</ele>
        <time>2022-04-05T10:29:16Z</time>
      </trkpt>
      <trkpt lat="44.88108" lon="0.31762">
        <ele>72.9</ele>
        <time>2022-04-05T10:29:17Z</time>
      </trkpt>
      <trkpt lat="44.88107" lon="0.31762">
        <ele>72.9</ele>
        <time>2022-04-05T10:29:18Z</time>
      </trkpt>
      <trkpt lat="44.88106" lon="0.31762">
        <ele>72.7</ele>
        <time>2022-04-05T10:29:19Z</time>
      </trkpt>
      <trkpt lat="44.88104" lon="0.31762">
        <ele>72.5</ele>
        <time>2022-04-05T10:29:20Z</time>
      </trkpt>
      <trkpt lat="44.88103" lon="0.31762">
        <ele>72.5</ele>
        <time>2022-04-05T10:29:21Z</time>
      </trkpt>
      <trkpt lat="44.88103" lon="0.31762">
        <ele>72.5</ele>
        <time>2022-04-05T10:29:22Z</time>
      </trkpt>
      <trkpt lat="44.881" lon="0.31762">
        <ele>72.4</ele>
        <time>2022-04-05T10:29:23Z</time>
      </trkpt>
      <trkpt lat="44.881" lon="0.31762">
        <ele>72.4</ele>
        <time>2022-04-05T10:29:24Z</time>
      </trkpt>
      <trkpt lat="44.88099" lon="0.31761">
        <ele>72.5</ele>
        <time>2022-04-05T10:29:25Z</time>
      </trkpt>
      <trkpt lat="44.88097" lon="0.31761">
        <ele>72.5</ele>
        <time>2022-04-05T10:29:27Z</time>
      </trkpt>
      <trkpt lat="44.88096" lon="0.31761">
        <ele>72.3</ele>
        <time>2022-04-05T10:29:28Z</time>
      </trkpt>
      <trkpt lat="44.88095" lon="0.3176">
        <ele>72.3</ele>
        <time>2022-04-05T10:29:29Z</time>
      </trkpt>
      <trkpt lat="44.88094" lon="0.3176">
        <ele>72.3</ele>
        <time>2022-04-05T10:29:30Z</time>
      </trkpt>
      <trkpt lat="44.88093" lon="0.3176">
        <ele>72.1</ele>
        <time>2022-04-05T10:29:31Z</time>
      </trkpt>
      <trkpt lat="44.88092" lon="0.3176">
        <ele>72.1</ele>
        <time>2022-04-05T10:29:32Z</time>
      </trkpt>
      <trkpt lat="44.8809" lon="0.3176">
        <ele>72.1</ele>
        <time>2022-04-05T10:29:33Z</time>
      </trkpt>
      <trkpt lat="44.88089" lon="0.31759">
        <ele>71.9</ele>
        <time>2022-04-05T10:29:34Z</time>
      </trkpt>
      <trkpt lat="44.88088" lon="0.31758">
        <ele>71.9</ele>
        <time>2022-04-05T10:29:35Z</time>
      </trkpt>
      <trkpt lat="44.88087" lon="0.31757">
        <ele>72.2</ele>
        <time>2022-04-05T10:29:36Z</time>
      </trkpt>
      <trkpt lat="44.88086" lon="0.31756">
        <ele>72</ele>
        <time>2022-04-05T10:29:37Z</time>
      </trkpt>
      <trkpt lat="44.88085" lon="0.31755">
        <ele>72</ele>
        <time>2022-04-05T10:29:38Z</time>
      </trkpt>
      <trkpt lat="44.88083" lon="0.31753">
        <ele>71.7</ele>
        <time>2022-04-05T10:29:40Z</time>
      </trkpt>
      <trkpt lat="44.88082" lon="0.31752">
        <ele>72</ele>
        <time>2022-04-05T10:29:41Z</time>
      </trkpt>
      <trkpt lat="44.88082" lon="0.31752">
        <ele>72</ele>
        <time>2022-04-05T10:29:42Z</time>
      </trkpt>
      <trkpt lat="44.8808" lon="0.31751">
        <ele>71.7</ele>
        <time>2022-04-05T10:29:43Z</time>
      </trkpt>
      <trkpt lat="44.88079" lon="0.3175">
        <ele>71.7</ele>
        <time>2022-04-05T10:29:44Z</time>
      </trkpt>
      <trkpt lat="44.88077" lon="0.31749">
        <ele>71.5</ele>
        <time>2022-04-05T10:29:45Z</time>
      </trkpt>
      <trkpt lat="44.88076" lon="0.31749">
        <ele>71.7</ele>
        <time>2022-04-05T10:29:46Z</time>
      </trkpt>
      <trkpt lat="44.88075" lon="0.31748">
        <ele>71.7</ele>
        <time>2022-04-05T10:29:47Z</time>
      </trkpt>
      <trkpt lat="44.88074" lon="0.31747">
        <ele>71.5</ele>
        <time>2022-04-05T10:29:48Z</time>
      </trkpt>
      <trkpt lat="44.88072" lon="0.31746">
        <ele>71.3</ele>
        <time>2022-04-05T10:29:49Z</time>
      </trkpt>
      <trkpt lat="44.8807" lon="0.31745">
        <ele>71.3</ele>
        <time>2022-04-05T10:29:50Z</time>
      </trkpt>
      <trkpt lat="44.88069" lon="0.31744">
        <ele>71.6</ele>
        <time>2022-04-05T10:29:51Z</time>
      </trkpt>
      <trkpt lat="44.88068" lon="0.31743">
        <ele>71.4</ele>
        <time>2022-04-05T10:29:52Z</time>
      </trkpt>
      <trkpt lat="44.88067" lon="0.31743">
        <ele>71.4</ele>
        <time>2022-04-05T10:29:53Z</time>
      </trkpt>
      <trkpt lat="44.88067" lon="0.31742">
        <ele>71.4</ele>
        <time>2022-04-05T10:29:54Z</time>
      </trkpt>
      <trkpt lat="44.88064" lon="0.31741">
        <ele>71.1</ele>
        <time>2022-04-05T10:29:55Z</time>
      </trkpt>
      <trkpt lat="44.88063" lon="0.3174">
        <ele>71.1</ele>
        <time>2022-04-05T10:29:56Z</time>
      </trkpt>
      <trkpt lat="44.88062" lon="0.3174">
        <ele>71.1</ele>
        <time>2022-04-05T10:29:57Z</time>
      </trkpt>
      <trkpt lat="44.88061" lon="0.31739">
        <ele>71.1</ele>
        <time>2022-04-05T10:29:59Z</time>
      </trkpt>
      <trkpt lat="44.8806" lon="0.31739">
        <ele>70.9</ele>
        <time>2022-04-05T10:30:00Z</time>
      </trkpt>
      <trkpt lat="44.88059" lon="0.31738">
        <ele>70.9</ele>
        <time>2022-04-05T10:30:01Z</time>
      </trkpt>
      <trkpt lat="44.88058" lon="0.31738">
        <ele>70.9</ele>
        <time>2022-04-05T10:30:02Z</time>
      </trkpt>
      <trkpt lat="44.88056" lon="0.31737">
        <ele>70.6</ele>
        <time>2022-04-05T10:30:03Z</time>
      </trkpt>
      <trkpt lat="44.88055" lon="0.31736">
        <ele>70.6</ele>
        <time>2022-04-05T10:30:04Z</time>
      </trkpt>
      <trkpt lat="44.88053" lon="0.31736">
        <ele>70.6</ele>
        <time>2022-04-05T10:30:05Z</time>
      </trkpt>
      <trkpt lat="44.88052" lon="0.31735">
        <ele>70.6</ele>
        <time>2022-04-05T10:30:06Z</time>
      </trkpt>
      <trkpt lat="44.88051" lon="0.31734">
        <ele>70.6</ele>
        <time>2022-04-05T10:30:07Z</time>
      </trkpt>
      <trkpt lat="44.8805" lon="0.31734">
        <ele>70.3</ele>
        <time>2022-04-05T10:30:08Z</time>
      </trkpt>
      <trkpt lat="44.88049" lon="0.31733">
        <ele>70.3</ele>
        <time>2022-04-05T10:30:09Z</time>
      </trkpt>
      <trkpt lat="44.88047" lon="0.31733">
        <ele>70.1</ele>
        <time>2022-04-05T10:30:10Z</time>
      </trkpt>
      <trkpt lat="44.88046" lon="0.31733">
        <ele>70.1</ele>
        <time>2022-04-05T10:30:11Z</time>
      </trkpt>
      <trkpt lat="44.88044" lon="0.31734">
        <ele>70.1</ele>
        <time>2022-04-05T10:30:12Z</time>
      </trkpt>
      <trkpt lat="44.88044" lon="0.31733">
        <ele>69.8</ele>
        <time>2022-04-05T10:30:13Z</time>
      </trkpt>
      <trkpt lat="44.88043" lon="0.31733">
        <ele>69.8</ele>
        <time>2022-04-05T10:30:14Z</time>
      </trkpt>
      <trkpt lat="44.88041" lon="0.31733">
        <ele>69.6</ele>
        <time>2022-04-05T10:30:15Z</time>
      </trkpt>
      <trkpt lat="44.8804" lon="0.31732">
        <ele>69.6</ele>
        <time>2022-04-05T10:30:16Z</time>
      </trkpt>
      <trkpt lat="44.88038" lon="0.31732">
        <ele>69.6</ele>
        <time>2022-04-05T10:30:17Z</time>
      </trkpt>
      <trkpt lat="44.88037" lon="0.31731">
        <ele>69.5</ele>
        <time>2022-04-05T10:30:19Z</time>
      </trkpt>
      <trkpt lat="44.88034" lon="0.31731">
        <ele>69.3</ele>
        <time>2022-04-05T10:30:20Z</time>
      </trkpt>
      <trkpt lat="44.88034" lon="0.31731">
        <ele>69.3</ele>
        <time>2022-04-05T10:30:21Z</time>
      </trkpt>
      <trkpt lat="44.88032" lon="0.31731">
        <ele>69</ele>
        <time>2022-04-05T10:30:22Z</time>
      </trkpt>
      <trkpt lat="44.88031" lon="0.31731">
        <ele>69</ele>
        <time>2022-04-05T10:30:23Z</time>
      </trkpt>
      <trkpt lat="44.8803" lon="0.31729">
        <ele>69</ele>
        <time>2022-04-05T10:30:24Z</time>
      </trkpt>
      <trkpt lat="44.88027" lon="0.31728">
        <ele>68.8</ele>
        <time>2022-04-05T10:30:26Z</time>
      </trkpt>
      <trkpt lat="44.88025" lon="0.31728">
        <ele>68.5</ele>
        <time>2022-04-05T10:30:27Z</time>
      </trkpt>
      <trkpt lat="44.88024" lon="0.31728">
        <ele>68.5</ele>
        <time>2022-04-05T10:30:28Z</time>
      </trkpt>
      <trkpt lat="44.88023" lon="0.31727">
        <ele>68.5</ele>
        <time>2022-04-05T10:30:29Z</time>
      </trkpt>
      <trkpt lat="44.8802" lon="0.31726">
        <ele>68.5</ele>
        <time>2022-04-05T10:30:30Z</time>
      </trkpt>
      <trkpt lat="44.8802" lon="0.31725">
        <ele>68.5</ele>
        <time>2022-04-05T10:30:31Z</time>
      </trkpt>
      <trkpt lat="44.8802" lon="0.31724">
        <ele>68.3</ele>
        <time>2022-04-05T10:30:32Z</time>
      </trkpt>
      <trkpt lat="44.88019" lon="0.31723">
        <ele>68.4</ele>
        <time>2022-04-05T10:30:33Z</time>
      </trkpt>
      <trkpt lat="44.88018" lon="0.31723">
        <ele>68.4</ele>
        <time>2022-04-05T10:30:34Z</time>
      </trkpt>
      <trkpt lat="44.88016" lon="0.31723">
        <ele>68.3</ele>
        <time>2022-04-05T10:30:35Z</time>
      </trkpt>
      <trkpt lat="44.88014" lon="0.31723">
        <ele>68.1</ele>
        <time>2022-04-05T10:30:36Z</time>
      </trkpt>
      <trkpt lat="44.88013" lon="0.31722">
        <ele>68.1</ele>
        <time>2022-04-05T10:30:37Z</time>
      </trkpt>
      <trkpt lat="44.88012" lon="0.31722">
        <ele>68.1</ele>
        <time>2022-04-05T10:30:38Z</time>
      </trkpt>
      <trkpt lat="44.88009" lon="0.31722">
        <ele>67.9</ele>
        <time>2022-04-05T10:30:39Z</time>
      </trkpt>
      <trkpt lat="44.88008" lon="0.31721">
        <ele>67.9</ele>
        <time>2022-04-05T10:30:40Z</time>
      </trkpt>
      <trkpt lat="44.88007" lon="0.31721">
        <ele>67.7</ele>
        <time>2022-04-05T10:30:41Z</time>
      </trkpt>
      <trkpt lat="44.88006" lon="0.31721">
        <ele>67.7</ele>
        <time>2022-04-05T10:30:42Z</time>
      </trkpt>
      <trkpt lat="44.88005" lon="0.31721">
        <ele>67.5</ele>
        <time>2022-04-05T10:30:43Z</time>
      </trkpt>
      <trkpt lat="44.88003" lon="0.31721">
        <ele>67.5</ele>
        <time>2022-04-05T10:30:44Z</time>
      </trkpt>
      <trkpt lat="44.88001" lon="0.3172">
        <ele>67.3</ele>
        <time>2022-04-05T10:30:46Z</time>
      </trkpt>
      <trkpt lat="44.88" lon="0.3172">
        <ele>67.3</ele>
        <time>2022-04-05T10:30:47Z</time>
      </trkpt>
      <trkpt lat="44.87999" lon="0.31719">
        <ele>67.1</ele>
        <time>2022-04-05T10:30:48Z</time>
      </trkpt>
      <trkpt lat="44.87998" lon="0.31718">
        <ele>67.3</ele>
        <time>2022-04-05T10:30:49Z</time>
      </trkpt>
      <trkpt lat="44.87997" lon="0.31718">
        <ele>67.3</ele>
        <time>2022-04-05T10:30:50Z</time>
      </trkpt>
      <trkpt lat="44.87996" lon="0.31717">
        <ele>67.3</ele>
        <time>2022-04-05T10:30:51Z</time>
      </trkpt>
      <trkpt lat="44.87995" lon="0.31717">
        <ele>67.1</ele>
        <time>2022-04-05T10:30:52Z</time>
      </trkpt>
      <trkpt lat="44.87993" lon="0.31716">
        <ele>67.1</ele>
        <time>2022-04-05T10:30:53Z</time>
      </trkpt>
      <trkpt lat="44.87992" lon="0.31715">
        <ele>66.9</ele>
        <time>2022-04-05T10:30:55Z</time>
      </trkpt>
      <trkpt lat="44.87991" lon="0.31714">
        <ele>66.9</ele>
        <time>2022-04-05T10:30:56Z</time>
      </trkpt>
      <trkpt lat="44.8799" lon="0.31714">
        <ele>67.1</ele>
        <time>2022-04-05T10:30:57Z</time>
      </trkpt>
      <trkpt lat="44.87989" lon="0.31713">
        <ele>66.9</ele>
        <time>2022-04-05T10:30:58Z</time>
      </trkpt>
      <trkpt lat="44.87987" lon="0.31711">
        <ele>66.8</ele>
        <time>2022-04-05T10:30:59Z</time>
      </trkpt>
      <trkpt lat="44.87985" lon="0.3171">
        <ele>66.8</ele>
        <time>2022-04-05T10:31:00Z</time>
      </trkpt>
      <trkpt lat="44.87983" lon="0.31709">
        <ele>66.8</ele>
        <time>2022-04-05T10:31:01Z</time>
      </trkpt>
      <trkpt lat="44.87982" lon="0.31708">
        <ele>66.8</ele>
        <time>2022-04-05T10:31:03Z</time>
      </trkpt>
      <trkpt lat="44.87981" lon="0.31707">
        <ele>66.8</ele>
        <time>2022-04-05T10:31:04Z</time>
      </trkpt>
      <trkpt lat="44.87979" lon="0.31706">
        <ele>66.8</ele>
        <time>2022-04-05T10:31:05Z</time>
      </trkpt>
      <trkpt lat="44.87979" lon="0.31705">
        <ele>66.8</ele>
        <time>2022-04-05T10:31:06Z</time>
      </trkpt>
      <trkpt lat="44.87978" lon="0.31705">
        <ele>66.8</ele>
        <time>2022-04-05T10:31:07Z</time>
      </trkpt>
      <trkpt lat="44.87977" lon="0.31704">
        <ele>66.7</ele>
        <time>2022-04-05T10:31:08Z</time>
      </trkpt>
      <trkpt lat="44.87974" lon="0.31703">
        <ele>66.5</ele>
        <time>2022-04-05T10:31:09Z</time>
      </trkpt>
      <trkpt lat="44.87973" lon="0.31702">
        <ele>66.5</ele>
        <time>2022-04-05T10:31:10Z</time>
      </trkpt>
      <trkpt lat="44.87972" lon="0.31703">
        <ele>66.5</ele>
        <time>2022-04-05T10:31:11Z</time>
      </trkpt>
      <trkpt lat="44.87971" lon="0.31703">
        <ele>66.3</ele>
        <time>2022-04-05T10:31:12Z</time>
      </trkpt>
      <trkpt lat="44.8797" lon="0.31703">
        <ele>66.3</ele>
        <time>2022-04-05T10:31:13Z</time>
      </trkpt>
      <trkpt lat="44.87969" lon="0.31702">
        <ele>66.3</ele>
        <time>2022-04-05T10:31:14Z</time>
      </trkpt>
      <trkpt lat="44.87967" lon="0.317">
        <ele>66.3</ele>
        <time>2022-04-05T10:31:15Z</time>
      </trkpt>
      <trkpt lat="44.87967" lon="0.31699">
        <ele>66.3</ele>
        <time>2022-04-05T10:31:16Z</time>
      </trkpt>
      <trkpt lat="44.87965" lon="0.31697">
        <ele>66.5</ele>
        <time>2022-04-05T10:31:17Z</time>
      </trkpt>
      <trkpt lat="44.87964" lon="0.31695">
        <ele>66.4</ele>
        <time>2022-04-05T10:31:19Z</time>
      </trkpt>
      <trkpt lat="44.87963" lon="0.31693">
        <ele>66.4</ele>
        <time>2022-04-05T10:31:20Z</time>
      </trkpt>
      <trkpt lat="44.87962" lon="0.31693">
        <ele>66.4</ele>
        <time>2022-04-05T10:31:21Z</time>
      </trkpt>
      <trkpt lat="44.87961" lon="0.31692">
        <ele>66.4</ele>
        <time>2022-04-05T10:31:22Z</time>
      </trkpt>
      <trkpt lat="44.8796" lon="0.3169">
        <ele>66.4</ele>
        <time>2022-04-05T10:31:23Z</time>
      </trkpt>
      <trkpt lat="44.87959" lon="0.31689">
        <ele>66.3</ele>
        <time>2022-04-05T10:31:24Z</time>
      </trkpt>
      <trkpt lat="44.87958" lon="0.31688">
        <ele>66.5</ele>
        <time>2022-04-05T10:31:25Z</time>
      </trkpt>
      <trkpt lat="44.87957" lon="0.31687">
        <ele>66.5</ele>
        <time>2022-04-05T10:31:26Z</time>
      </trkpt>
      <trkpt lat="44.87956" lon="0.31686">
        <ele>66.3</ele>
        <time>2022-04-05T10:31:28Z</time>
      </trkpt>
      <trkpt lat="44.87955" lon="0.31685">
        <ele>66.3</ele>
        <time>2022-04-05T10:31:29Z</time>
      </trkpt>
      <trkpt lat="44.87953" lon="0.31685">
        <ele>66.3</ele>
        <time>2022-04-05T10:31:31Z</time>
      </trkpt>
      <trkpt lat="44.87953" lon="0.31685">
        <ele>66.2</ele>
        <time>2022-04-05T10:31:32Z</time>
      </trkpt>
      <trkpt lat="44.87951" lon="0.31684">
        <ele>66.4</ele>
        <time>2022-04-05T10:31:33Z</time>
      </trkpt>
      <trkpt lat="44.8795" lon="0.31683">
        <ele>66.2</ele>
        <time>2022-04-05T10:31:34Z</time>
      </trkpt>
      <trkpt lat="44.87949" lon="0.31682">
        <ele>66.2</ele>
        <time>2022-04-05T10:31:35Z</time>
      </trkpt>
      <trkpt lat="44.87948" lon="0.31681">
        <ele>66.2</ele>
        <time>2022-04-05T10:31:37Z</time>
      </trkpt>
      <trkpt lat="44.87947" lon="0.3168">
        <ele>66.2</ele>
        <time>2022-04-05T10:31:38Z</time>
      </trkpt>
      <trkpt lat="44.87945" lon="0.31677">
        <ele>66.2</ele>
        <time>2022-04-05T10:31:39Z</time>
      </trkpt>
      <trkpt lat="44.87945" lon="0.31675">
        <ele>66.5</ele>
        <time>2022-04-05T10:31:40Z</time>
      </trkpt>
      <trkpt lat="44.87945" lon="0.31674">
        <ele>66.5</ele>
        <time>2022-04-05T10:31:41Z</time>
      </trkpt>
      <trkpt lat="44.87944" lon="0.31672">
        <ele>66.3</ele>
        <time>2022-04-05T10:31:42Z</time>
      </trkpt>
      <trkpt lat="44.87943" lon="0.31671">
        <ele>66.6</ele>
        <time>2022-04-05T10:31:43Z</time>
      </trkpt>
      <trkpt lat="44.87943" lon="0.3167">
        <ele>66.6</ele>
        <time>2022-04-05T10:31:44Z</time>
      </trkpt>
      <trkpt lat="44.87942" lon="0.31667">
        <ele>66.8</ele>
        <time>2022-04-05T10:31:46Z</time>
      </trkpt>
      <trkpt lat="44.87942" lon="0.31665">
        <ele>66.8</ele>
        <time>2022-04-05T10:31:47Z</time>
      </trkpt>
      <trkpt lat="44.87941" lon="0.31663">
        <ele>66.6</ele>
        <time>2022-04-05T10:31:48Z</time>
      </trkpt>
      <trkpt lat="44.8794" lon="0.31662">
        <ele>66.9</ele>
        <time>2022-04-05T10:31:49Z</time>
      </trkpt>
      <trkpt lat="44.87939" lon="0.31661">
        <ele>66.9</ele>
        <time>2022-04-05T10:31:50Z</time>
      </trkpt>
      <trkpt lat="44.87938" lon="0.31659">
        <ele>66.7</ele>
        <time>2022-04-05T10:31:51Z</time>
      </trkpt>
      <trkpt lat="44.87937" lon="0.31659">
        <ele>66.7</ele>
        <time>2022-04-05T10:31:52Z</time>
      </trkpt>
      <trkpt lat="44.87936" lon="0.31657">
        <ele>67</ele>
        <time>2022-04-05T10:31:53Z</time>
      </trkpt>
      <trkpt lat="44.87935" lon="0.31657">
        <ele>67</ele>
        <time>2022-04-05T10:31:54Z</time>
      </trkpt>
      <trkpt lat="44.87934" lon="0.31656">
        <ele>66.8</ele>
        <time>2022-04-05T10:31:55Z</time>
      </trkpt>
      <trkpt lat="44.87933" lon="0.31655">
        <ele>66.8</ele>
        <time>2022-04-05T10:31:56Z</time>
      </trkpt>
      <trkpt lat="44.87931" lon="0.31654">
        <ele>66.8</ele>
        <time>2022-04-05T10:31:58Z</time>
      </trkpt>
      <trkpt lat="44.8793" lon="0.31653">
        <ele>66.8</ele>
        <time>2022-04-05T10:31:59Z</time>
      </trkpt>
      <trkpt lat="44.87929" lon="0.31652">
        <ele>66.8</ele>
        <time>2022-04-05T10:32:00Z</time>
      </trkpt>
      <trkpt lat="44.87928" lon="0.31651">
        <ele>66.6</ele>
        <time>2022-04-05T10:32:01Z</time>
      </trkpt>
      <trkpt lat="44.87927" lon="0.3165">
        <ele>66.9</ele>
        <time>2022-04-05T10:32:02Z</time>
      </trkpt>
      <trkpt lat="44.87926" lon="0.31648">
        <ele>66.7</ele>
        <time>2022-04-05T10:32:03Z</time>
      </trkpt>
      <trkpt lat="44.87924" lon="0.31647">
        <ele>66.7</ele>
        <time>2022-04-05T10:32:04Z</time>
      </trkpt>
      <trkpt lat="44.87923" lon="0.31646">
        <ele>66.7</ele>
        <time>2022-04-05T10:32:05Z</time>
      </trkpt>
      <trkpt lat="44.87922" lon="0.31645">
        <ele>66.6</ele>
        <time>2022-04-05T10:32:06Z</time>
      </trkpt>
      <trkpt lat="44.8792" lon="0.31644">
        <ele>66.6</ele>
        <time>2022-04-05T10:32:07Z</time>
      </trkpt>
      <trkpt lat="44.87919" lon="0.31644">
        <ele>66.4</ele>
        <time>2022-04-05T10:32:09Z</time>
      </trkpt>
      <trkpt lat="44.87918" lon="0.31643">
        <ele>66.4</ele>
        <time>2022-04-05T10:32:10Z</time>
      </trkpt>
      <trkpt lat="44.87916" lon="0.31643">
        <ele>66.1</ele>
        <time>2022-04-05T10:32:11Z</time>
      </trkpt>
      <trkpt lat="44.87914" lon="0.31642">
        <ele>66.1</ele>
        <time>2022-04-05T10:32:13Z</time>
      </trkpt>
      <trkpt lat="44.87913" lon="0.31642">
        <ele>65.9</ele>
        <time>2022-04-05T10:32:14Z</time>
      </trkpt>
      <trkpt lat="44.87912" lon="0.31641">
        <ele>66.3</ele>
        <time>2022-04-05T10:32:15Z</time>
      </trkpt>
      <trkpt lat="44.87911" lon="0.31641">
        <ele>66.3</ele>
        <time>2022-04-05T10:32:16Z</time>
      </trkpt>
      <trkpt lat="44.87909" lon="0.31641">
        <ele>66</ele>
        <time>2022-04-05T10:32:18Z</time>
      </trkpt>
      <trkpt lat="44.87908" lon="0.31642">
        <ele>65.6</ele>
        <time>2022-04-05T10:32:19Z</time>
      </trkpt>
      <trkpt lat="44.87907" lon="0.31642">
        <ele>65.4</ele>
        <time>2022-04-05T10:32:20Z</time>
      </trkpt>
      <trkpt lat="44.87906" lon="0.31642">
        <ele>65.4</ele>
        <time>2022-04-05T10:32:21Z</time>
      </trkpt>
      <trkpt lat="44.87902" lon="0.31642">
        <ele>65.1</ele>
        <time>2022-04-05T10:32:23Z</time>
      </trkpt>
      <trkpt lat="44.87902" lon="0.31642">
        <ele>65.1</ele>
        <time>2022-04-05T10:32:24Z</time>
      </trkpt>
      <trkpt lat="44.87901" lon="0.31642">
        <ele>64.9</ele>
        <time>2022-04-05T10:32:25Z</time>
      </trkpt>
      <trkpt lat="44.879" lon="0.31642">
        <ele>64.9</ele>
        <time>2022-04-05T10:32:26Z</time>
      </trkpt>
      <trkpt lat="44.87898" lon="0.31642">
        <ele>64.7</ele>
        <time>2022-04-05T10:32:27Z</time>
      </trkpt>
      <trkpt lat="44.87896" lon="0.31642">
        <ele>64.7</ele>
        <time>2022-04-05T10:32:28Z</time>
      </trkpt>
      <trkpt lat="44.87895" lon="0.31642">
        <ele>64.5</ele>
        <time>2022-04-05T10:32:29Z</time>
      </trkpt>
      <trkpt lat="44.87893" lon="0.31641">
        <ele>64.9</ele>
        <time>2022-04-05T10:32:30Z</time>
      </trkpt>
      <trkpt lat="44.87892" lon="0.31641">
        <ele>64.7</ele>
        <time>2022-04-05T10:32:31Z</time>
      </trkpt>
      <trkpt lat="44.87892" lon="0.31641">
        <ele>64.7</ele>
        <time>2022-04-05T10:32:32Z</time>
      </trkpt>
      <trkpt lat="44.87889" lon="0.3164">
        <ele>64.7</ele>
        <time>2022-04-05T10:32:33Z</time>
      </trkpt>
      <trkpt lat="44.87889" lon="0.3164">
        <ele>64.4</ele>
        <time>2022-04-05T10:32:34Z</time>
      </trkpt>
      <trkpt lat="44.87887" lon="0.3164">
        <ele>64.4</ele>
        <time>2022-04-05T10:32:35Z</time>
      </trkpt>
      <trkpt lat="44.87886" lon="0.31639">
        <ele>64.2</ele>
        <time>2022-04-05T10:32:36Z</time>
      </trkpt>
      <trkpt lat="44.87885" lon="0.31639">
        <ele>64.2</ele>
        <time>2022-04-05T10:32:37Z</time>
      </trkpt>
      <trkpt lat="44.87883" lon="0.31638">
        <ele>64</ele>
        <time>2022-04-05T10:32:38Z</time>
      </trkpt>
      <trkpt lat="44.87882" lon="0.31638">
        <ele>64</ele>
        <time>2022-04-05T10:32:39Z</time>
      </trkpt>
      <trkpt lat="44.87882" lon="0.31638">
        <ele>64</ele>
        <time>2022-04-05T10:32:40Z</time>
      </trkpt>
      <trkpt lat="44.87879" lon="0.31637">
        <ele>64.3</ele>
        <time>2022-04-05T10:32:41Z</time>
      </trkpt>
      <trkpt lat="44.87878" lon="0.31636">
        <ele>64.3</ele>
        <time>2022-04-05T10:32:42Z</time>
      </trkpt>
      <trkpt lat="44.87877" lon="0.31636">
        <ele>64.3</ele>
        <time>2022-04-05T10:32:44Z</time>
      </trkpt>
      <trkpt lat="44.87876" lon="0.31636">
        <ele>64.1</ele>
        <time>2022-04-05T10:32:45Z</time>
      </trkpt>
      <trkpt lat="44.87875" lon="0.31636">
        <ele>64.1</ele>
        <time>2022-04-05T10:32:46Z</time>
      </trkpt>
      <trkpt lat="44.87874" lon="0.31635">
        <ele>63.9</ele>
        <time>2022-04-05T10:32:47Z</time>
      </trkpt>
      <trkpt lat="44.87872" lon="0.31635">
        <ele>63.9</ele>
        <time>2022-04-05T10:32:48Z</time>
      </trkpt>
      <trkpt lat="44.8787" lon="0.31634">
        <ele>63.8</ele>
        <time>2022-04-05T10:32:50Z</time>
      </trkpt>
      <trkpt lat="44.87869" lon="0.31633">
        <ele>63.8</ele>
        <time>2022-04-05T10:32:51Z</time>
      </trkpt>
      <trkpt lat="44.87868" lon="0.31633">
        <ele>64</ele>
        <time>2022-04-05T10:32:52Z</time>
      </trkpt>
      <trkpt lat="44.87866" lon="0.31632">
        <ele>64</ele>
        <time>2022-04-05T10:32:53Z</time>
      </trkpt>
      <trkpt lat="44.87865" lon="0.31632">
        <ele>64</ele>
        <time>2022-04-05T10:32:54Z</time>
      </trkpt>
      <trkpt lat="44.87864" lon="0.31631">
        <ele>63.9</ele>
        <time>2022-04-05T10:32:55Z</time>
      </trkpt>
      <trkpt lat="44.87863" lon="0.31631">
        <ele>63.9</ele>
        <time>2022-04-05T10:32:56Z</time>
      </trkpt>
      <trkpt lat="44.87861" lon="0.31629">
        <ele>63.7</ele>
        <time>2022-04-05T10:32:57Z</time>
      </trkpt>
      <trkpt lat="44.8786" lon="0.31629">
        <ele>63.7</ele>
        <time>2022-04-05T10:32:59Z</time>
      </trkpt>
      <trkpt lat="44.87859" lon="0.31628">
        <ele>63.9</ele>
        <time>2022-04-05T10:33:00Z</time>
      </trkpt>
      <trkpt lat="44.87858" lon="0.31628">
        <ele>63.9</ele>
        <time>2022-04-05T10:33:01Z</time>
      </trkpt>
      <trkpt lat="44.87857" lon="0.31627">
        <ele>63.9</ele>
        <time>2022-04-05T10:33:02Z</time>
      </trkpt>
      <trkpt lat="44.87854" lon="0.31626">
        <ele>63.8</ele>
        <time>2022-04-05T10:33:03Z</time>
      </trkpt>
      <trkpt lat="44.87854" lon="0.31626">
        <ele>63.8</ele>
        <time>2022-04-05T10:33:04Z</time>
      </trkpt>
      <trkpt lat="44.87853" lon="0.31625">
        <ele>63.8</ele>
        <time>2022-04-05T10:33:05Z</time>
      </trkpt>
      <trkpt lat="44.87852" lon="0.31625">
        <ele>63.7</ele>
        <time>2022-04-05T10:33:06Z</time>
      </trkpt>
      <trkpt lat="44.87851" lon="0.31624">
        <ele>64</ele>
        <time>2022-04-05T10:33:07Z</time>
      </trkpt>
      <trkpt lat="44.87849" lon="0.31623">
        <ele>63.8</ele>
        <time>2022-04-05T10:33:08Z</time>
      </trkpt>
      <trkpt lat="44.87848" lon="0.31621">
        <ele>63.8</ele>
        <time>2022-04-05T10:33:09Z</time>
      </trkpt>
      <trkpt lat="44.87847" lon="0.31621">
        <ele>63.7</ele>
        <time>2022-04-05T10:33:10Z</time>
      </trkpt>
      <trkpt lat="44.87845" lon="0.31619">
        <ele>63.9</ele>
        <time>2022-04-05T10:33:12Z</time>
      </trkpt>
      <trkpt lat="44.87843" lon="0.31619">
        <ele>63.8</ele>
        <time>2022-04-05T10:33:13Z</time>
      </trkpt>
      <trkpt lat="44.87842" lon="0.31618">
        <ele>63.8</ele>
        <time>2022-04-05T10:33:14Z</time>
      </trkpt>
      <trkpt lat="44.87841" lon="0.31616">
        <ele>63.8</ele>
        <time>2022-04-05T10:33:15Z</time>
      </trkpt>
      <trkpt lat="44.8784" lon="0.31615">
        <ele>63.8</ele>
        <time>2022-04-05T10:33:17Z</time>
      </trkpt>
      <trkpt lat="44.87837" lon="0.31613">
        <ele>63.7</ele>
        <time>2022-04-05T10:33:18Z</time>
      </trkpt>
      <trkpt lat="44.87837" lon="0.31613">
        <ele>63.7</ele>
        <time>2022-04-05T10:33:19Z</time>
      </trkpt>
      <trkpt lat="44.87836" lon="0.31612">
        <ele>63.7</ele>
        <time>2022-04-05T10:33:20Z</time>
      </trkpt>
      <trkpt lat="44.87835" lon="0.31611">
        <ele>63.9</ele>
        <time>2022-04-05T10:33:21Z</time>
      </trkpt>
      <trkpt lat="44.87833" lon="0.3161">
        <ele>63.7</ele>
        <time>2022-04-05T10:33:22Z</time>
      </trkpt>
      <trkpt lat="44.87832" lon="0.3161">
        <ele>63.7</ele>
        <time>2022-04-05T10:33:23Z</time>
      </trkpt>
      <trkpt lat="44.87831" lon="0.31609">
        <ele>63.5</ele>
        <time>2022-04-05T10:33:25Z</time>
      </trkpt>
      <trkpt lat="44.87829" lon="0.31608">
        <ele>63.5</ele>
        <time>2022-04-05T10:33:26Z</time>
      </trkpt>
      <trkpt lat="44.87828" lon="0.31607">
        <ele>63.6</ele>
        <time>2022-04-05T10:33:27Z</time>
      </trkpt>
      <trkpt lat="44.87827" lon="0.31606">
        <ele>63.6</ele>
        <time>2022-04-05T10:33:28Z</time>
      </trkpt>
      <trkpt lat="44.87825" lon="0.31605">
        <ele>63.4</ele>
        <time>2022-04-05T10:33:29Z</time>
      </trkpt>
      <trkpt lat="44.87824" lon="0.31604">
        <ele>63.4</ele>
        <time>2022-04-05T10:33:30Z</time>
      </trkpt>
      <trkpt lat="44.87822" lon="0.31603">
        <ele>63.3</ele>
        <time>2022-04-05T10:33:31Z</time>
      </trkpt>
      <trkpt lat="44.87821" lon="0.31603">
        <ele>63.4</ele>
        <time>2022-04-05T10:33:32Z</time>
      </trkpt>
      <trkpt lat="44.8782" lon="0.31602">
        <ele>63.4</ele>
        <time>2022-04-05T10:33:33Z</time>
      </trkpt>
      <trkpt lat="44.87819" lon="0.31601">
        <ele>63.3</ele>
        <time>2022-04-05T10:33:34Z</time>
      </trkpt>
      <trkpt lat="44.87818" lon="0.31601">
        <ele>63.3</ele>
        <time>2022-04-05T10:33:35Z</time>
      </trkpt>
      <trkpt lat="44.87816" lon="0.31601">
        <ele>63.2</ele>
        <time>2022-04-05T10:33:37Z</time>
      </trkpt>
      <trkpt lat="44.87815" lon="0.316">
        <ele>63.2</ele>
        <time>2022-04-05T10:33:38Z</time>
      </trkpt>
      <trkpt lat="44.87813" lon="0.31599">
        <ele>63.2</ele>
        <time>2022-04-05T10:33:39Z</time>
      </trkpt>
      <trkpt lat="44.87812" lon="0.31599">
        <ele>63.2</ele>
        <time>2022-04-05T10:33:40Z</time>
      </trkpt>
      <trkpt lat="44.8781" lon="0.31598">
        <ele>63.2</ele>
        <time>2022-04-05T10:33:41Z</time>
      </trkpt>
      <trkpt lat="44.8781" lon="0.31598">
        <ele>63.1</ele>
        <time>2022-04-05T10:33:42Z</time>
      </trkpt>
      <trkpt lat="44.87809" lon="0.31597">
        <ele>63.1</ele>
        <time>2022-04-05T10:33:43Z</time>
      </trkpt>
      <trkpt lat="44.87807" lon="0.31596">
        <ele>63.1</ele>
        <time>2022-04-05T10:33:44Z</time>
      </trkpt>
      <trkpt lat="44.87806" lon="0.31596">
        <ele>63.1</ele>
        <time>2022-04-05T10:33:45Z</time>
      </trkpt>
      <trkpt lat="44.87806" lon="0.31596">
        <ele>63.1</ele>
        <time>2022-04-05T10:33:46Z</time>
      </trkpt>
      <trkpt lat="44.87806" lon="0.31596">
        <ele>63.1</ele>
        <time>2022-04-05T10:33:47Z</time>
      </trkpt>
      <trkpt lat="44.87807" lon="0.31596">
        <ele>63.1</ele>
        <time>2022-04-05T10:33:48Z</time>
      </trkpt>
      <trkpt lat="44.87807" lon="0.31596">
        <ele>63.1</ele>
        <time>2022-04-05T10:33:49Z</time>
      </trkpt>
      <trkpt lat="44.87807" lon="0.31596">
        <ele>63.1</ele>
        <time>2022-04-05T10:33:50Z</time>
      </trkpt>
      <trkpt lat="44.87808" lon="0.31596">
        <ele>63.1</ele>
        <time>2022-04-05T10:33:51Z</time>
      </trkpt>
      <trkpt lat="44.87808" lon="0.31596">
        <ele>63.1</ele>
        <time>2022-04-05T10:33:52Z</time>
      </trkpt>
      <trkpt lat="44.87808" lon="0.31596">
        <ele>63.1</ele>
        <time>2022-04-05T10:33:53Z</time>
      </trkpt>
      <trkpt lat="44.87808" lon="0.31596">
        <ele>63.1</ele>
        <time>2022-04-05T10:33:54Z</time>
      </trkpt>
      <trkpt lat="44.87809" lon="0.31596">
        <ele>63.1</ele>
        <time>2022-04-05T10:33:55Z</time>
      </trkpt>
      <trkpt lat="44.87812" lon="0.31599">
        <ele>63.2</ele>
        <time>2022-04-05T10:33:56Z</time>
      </trkpt>
      <trkpt lat="44.87813" lon="0.31602">
        <ele>63.2</ele>
        <time>2022-04-05T10:33:58Z</time>
      </trkpt>
      <trkpt lat="44.87814" lon="0.31604">
        <ele>63.2</ele>
        <time>2022-04-05T10:33:59Z</time>
      </trkpt>
      <trkpt lat="44.87816" lon="0.31606">
        <ele>63.2</ele>
        <time>2022-04-05T10:34:00Z</time>
      </trkpt>
      <trkpt lat="44.87818" lon="0.31609">
        <ele>63.1</ele>
        <time>2022-04-05T10:34:01Z</time>
      </trkpt>
      <trkpt lat="44.87821" lon="0.31611">
        <ele>63.2</ele>
        <time>2022-04-05T10:34:02Z</time>
      </trkpt>
      <trkpt lat="44.87822" lon="0.31612">
        <ele>63.1</ele>
        <time>2022-04-05T10:34:03Z</time>
      </trkpt>
      <trkpt lat="44.87824" lon="0.31612">
        <ele>63.2</ele>
        <time>2022-04-05T10:34:04Z</time>
      </trkpt>
      <trkpt lat="44.87825" lon="0.31613">
        <ele>63.2</ele>
        <time>2022-04-05T10:34:05Z</time>
      </trkpt>
      <trkpt lat="44.87829" lon="0.31615">
        <ele>63.4</ele>
        <time>2022-04-05T10:34:07Z</time>
      </trkpt>
      <trkpt lat="44.8783" lon="0.31616">
        <ele>63.4</ele>
        <time>2022-04-05T10:34:08Z</time>
      </trkpt>
      <trkpt lat="44.87831" lon="0.31616">
        <ele>63.2</ele>
        <time>2022-04-05T10:34:09Z</time>
      </trkpt>
      <trkpt lat="44.87833" lon="0.31617">
        <ele>63.3</ele>
        <time>2022-04-05T10:34:10Z</time>
      </trkpt>
      <trkpt lat="44.87834" lon="0.31618">
        <ele>63.3</ele>
        <time>2022-04-05T10:34:11Z</time>
      </trkpt>
      <trkpt lat="44.87836" lon="0.31618">
        <ele>63.5</ele>
        <time>2022-04-05T10:34:12Z</time>
      </trkpt>
      <trkpt lat="44.87839" lon="0.31619">
        <ele>63.6</ele>
        <time>2022-04-05T10:34:13Z</time>
      </trkpt>
      <trkpt lat="44.87839" lon="0.3162">
        <ele>63.6</ele>
        <time>2022-04-05T10:34:14Z</time>
      </trkpt>
      <trkpt lat="44.87842" lon="0.3162">
        <ele>63.6</ele>
        <time>2022-04-05T10:34:15Z</time>
      </trkpt>
      <trkpt lat="44.87843" lon="0.3162">
        <ele>63.6</ele>
        <time>2022-04-05T10:34:16Z</time>
      </trkpt>
      <trkpt lat="44.87847" lon="0.31622">
        <ele>63.8</ele>
        <time>2022-04-05T10:34:18Z</time>
      </trkpt>
      <trkpt lat="44.87848" lon="0.31622">
        <ele>63.8</ele>
        <time>2022-04-05T10:34:19Z</time>
      </trkpt>
      <trkpt lat="44.87849" lon="0.31623">
        <ele>63.8</ele>
        <time>2022-04-05T10:34:20Z</time>
      </trkpt>
      <trkpt lat="44.8785" lon="0.31623">
        <ele>63.8</ele>
        <time>2022-04-05T10:34:21Z</time>
      </trkpt>
      <trkpt lat="44.87852" lon="0.31624">
        <ele>63.7</ele>
        <time>2022-04-05T10:34:22Z</time>
      </trkpt>
      <trkpt lat="44.87854" lon="0.31625">
        <ele>63.8</ele>
        <time>2022-04-05T10:34:23Z</time>
      </trkpt>
      <trkpt lat="44.87855" lon="0.31626">
        <ele>63.8</ele>
        <time>2022-04-05T10:34:24Z</time>
      </trkpt>
      <trkpt lat="44.87856" lon="0.31626">
        <ele>63.9</ele>
        <time>2022-04-05T10:34:25Z</time>
      </trkpt>
      <trkpt lat="44.87857" lon="0.31627">
        <ele>63.9</ele>
        <time>2022-04-05T10:34:26Z</time>
      </trkpt>
      <trkpt lat="44.8786" lon="0.31628">
        <ele>64.1</ele>
        <time>2022-04-05T10:34:27Z</time>
      </trkpt>
      <trkpt lat="44.8786" lon="0.31629">
        <ele>63.7</ele>
        <time>2022-04-05T10:34:28Z</time>
      </trkpt>
      <trkpt lat="44.87862" lon="0.3163">
        <ele>63.7</ele>
        <time>2022-04-05T10:34:30Z</time>
      </trkpt>
      <trkpt lat="44.87863" lon="0.3163">
        <ele>63.9</ele>
        <time>2022-04-05T10:34:31Z</time>
      </trkpt>
      <trkpt lat="44.87866" lon="0.31631">
        <ele>64</ele>
        <time>2022-04-05T10:34:32Z</time>
      </trkpt>
      <trkpt lat="44.87867" lon="0.31632">
        <ele>64</ele>
        <time>2022-04-05T10:34:33Z</time>
      </trkpt>
      <trkpt lat="44.87868" lon="0.31632">
        <ele>64.2</ele>
        <time>2022-04-05T10:34:34Z</time>
      </trkpt>
      <trkpt lat="44.87869" lon="0.31633">
        <ele>64.2</ele>
        <time>2022-04-05T10:34:35Z</time>
      </trkpt>
      <trkpt lat="44.8787" lon="0.31633">
        <ele>63.8</ele>
        <time>2022-04-05T10:34:36Z</time>
      </trkpt>
      <trkpt lat="44.87873" lon="0.31634">
        <ele>63.9</ele>
        <time>2022-04-05T10:34:37Z</time>
      </trkpt>
      <trkpt lat="44.87875" lon="0.31634">
        <ele>64.1</ele>
        <time>2022-04-05T10:34:38Z</time>
      </trkpt>
      <trkpt lat="44.87875" lon="0.31634">
        <ele>64.1</ele>
        <time>2022-04-05T10:34:39Z</time>
      </trkpt>
      <trkpt lat="44.87876" lon="0.31635">
        <ele>64.1</ele>
        <time>2022-04-05T10:34:40Z</time>
      </trkpt>
      <trkpt lat="44.87877" lon="0.31635">
        <ele>64.3</ele>
        <time>2022-04-05T10:34:41Z</time>
      </trkpt>
      <trkpt lat="44.87879" lon="0.31636">
        <ele>64.3</ele>
        <time>2022-04-05T10:34:42Z</time>
      </trkpt>
      <trkpt lat="44.87881" lon="0.31636">
        <ele>64.4</ele>
        <time>2022-04-05T10:34:43Z</time>
      </trkpt>
      <trkpt lat="44.87882" lon="0.31637">
        <ele>64.4</ele>
        <time>2022-04-05T10:34:44Z</time>
      </trkpt>
      <trkpt lat="44.87883" lon="0.31637">
        <ele>64</ele>
        <time>2022-04-05T10:34:45Z</time>
      </trkpt>
      <trkpt lat="44.87885" lon="0.31638">
        <ele>64.2</ele>
        <time>2022-04-05T10:34:47Z</time>
      </trkpt>
      <trkpt lat="44.87886" lon="0.31638">
        <ele>64.2</ele>
        <time>2022-04-05T10:34:48Z</time>
      </trkpt>
      <trkpt lat="44.87888" lon="0.31639">
        <ele>64.4</ele>
        <time>2022-04-05T10:34:49Z</time>
      </trkpt>
      <trkpt lat="44.87889" lon="0.3164">
        <ele>64.4</ele>
        <time>2022-04-05T10:34:50Z</time>
      </trkpt>
      <trkpt lat="44.8789" lon="0.3164">
        <ele>64.7</ele>
        <time>2022-04-05T10:34:51Z</time>
      </trkpt>
      <trkpt lat="44.87891" lon="0.31641">
        <ele>64.7</ele>
        <time>2022-04-05T10:34:52Z</time>
      </trkpt>
      <trkpt lat="44.87894" lon="0.31642">
        <ele>64.5</ele>
        <time>2022-04-05T10:34:53Z</time>
      </trkpt>
      <trkpt lat="44.87895" lon="0.31642">
        <ele>64.5</ele>
        <time>2022-04-05T10:34:54Z</time>
      </trkpt>
      <trkpt lat="44.87896" lon="0.31642">
        <ele>64.7</ele>
        <time>2022-04-05T10:34:55Z</time>
      </trkpt>
      <trkpt lat="44.879" lon="0.31643">
        <ele>64.9</ele>
        <time>2022-04-05T10:34:57Z</time>
      </trkpt>
      <trkpt lat="44.87901" lon="0.31643">
        <ele>64.9</ele>
        <time>2022-04-05T10:34:58Z</time>
      </trkpt>
      <trkpt lat="44.87902" lon="0.31644">
        <ele>65.1</ele>
        <time>2022-04-05T10:34:59Z</time>
      </trkpt>
      <trkpt lat="44.87903" lon="0.31644">
        <ele>65.1</ele>
        <time>2022-04-05T10:35:00Z</time>
      </trkpt>
      <trkpt lat="44.87904" lon="0.31644">
        <ele>65.1</ele>
        <time>2022-04-05T10:35:01Z</time>
      </trkpt>
      <trkpt lat="44.87908" lon="0.31645">
        <ele>65.6</ele>
        <time>2022-04-05T10:35:03Z</time>
      </trkpt>
      <trkpt lat="44.87909" lon="0.31645">
        <ele>65.6</ele>
        <time>2022-04-05T10:35:04Z</time>
      </trkpt>
      <trkpt lat="44.8791" lon="0.31645">
        <ele>65.6</ele>
        <time>2022-04-05T10:35:05Z</time>
      </trkpt>
      <trkpt lat="44.8791" lon="0.31645">
        <ele>65.6</ele>
        <time>2022-04-05T10:35:06Z</time>
      </trkpt>
      <trkpt lat="44.87911" lon="0.31645">
        <ele>65.9</ele>
        <time>2022-04-05T10:35:07Z</time>
      </trkpt>
      <trkpt lat="44.87914" lon="0.31645">
        <ele>66.1</ele>
        <time>2022-04-05T10:35:09Z</time>
      </trkpt>
      <trkpt lat="44.87915" lon="0.31645">
        <ele>66.1</ele>
        <time>2022-04-05T10:35:10Z</time>
      </trkpt>
      <trkpt lat="44.87916" lon="0.31645">
        <ele>66.1</ele>
        <time>2022-04-05T10:35:11Z</time>
      </trkpt>
      <trkpt lat="44.87918" lon="0.31645">
        <ele>66.4</ele>
        <time>2022-04-05T10:35:12Z</time>
      </trkpt>
      <trkpt lat="44.8792" lon="0.31645">
        <ele>66.6</ele>
        <time>2022-04-05T10:35:13Z</time>
      </trkpt>
      <trkpt lat="44.87921" lon="0.31645">
        <ele>66.6</ele>
        <time>2022-04-05T10:35:15Z</time>
      </trkpt>
      <trkpt lat="44.87923" lon="0.31646">
        <ele>66.6</ele>
        <time>2022-04-05T10:35:16Z</time>
      </trkpt>
      <trkpt lat="44.87925" lon="0.31646">
        <ele>66.7</ele>
        <time>2022-04-05T10:35:17Z</time>
      </trkpt>
      <trkpt lat="44.87927" lon="0.31647">
        <ele>66.9</ele>
        <time>2022-04-05T10:35:18Z</time>
      </trkpt>
      <trkpt lat="44.87929" lon="0.31648">
        <ele>66.9</ele>
        <time>2022-04-05T10:35:20Z</time>
      </trkpt>
      <trkpt lat="44.8793" lon="0.31649">
        <ele>67.1</ele>
        <time>2022-04-05T10:35:21Z</time>
      </trkpt>
      <trkpt lat="44.87931" lon="0.3165">
        <ele>66.8</ele>
        <time>2022-04-05T10:35:22Z</time>
      </trkpt>
      <trkpt lat="44.87933" lon="0.31652">
        <ele>67</ele>
        <time>2022-04-05T10:35:23Z</time>
      </trkpt>
      <trkpt lat="44.87934" lon="0.31652">
        <ele>67</ele>
        <time>2022-04-05T10:35:24Z</time>
      </trkpt>
      <trkpt lat="44.87935" lon="0.31653">
        <ele>67.3</ele>
        <time>2022-04-05T10:35:25Z</time>
      </trkpt>
      <trkpt lat="44.87936" lon="0.31654">
        <ele>67.3</ele>
        <time>2022-04-05T10:35:26Z</time>
      </trkpt>
      <trkpt lat="44.87938" lon="0.31654">
        <ele>67.3</ele>
        <time>2022-04-05T10:35:27Z</time>
      </trkpt>
      <trkpt lat="44.87939" lon="0.31655">
        <ele>67.2</ele>
        <time>2022-04-05T10:35:29Z</time>
      </trkpt>
      <trkpt lat="44.8794" lon="0.31655">
        <ele>67.2</ele>
        <time>2022-04-05T10:35:30Z</time>
      </trkpt>
      <trkpt lat="44.87941" lon="0.31656">
        <ele>67.4</ele>
        <time>2022-04-05T10:35:31Z</time>
      </trkpt>
      <trkpt lat="44.87942" lon="0.31657">
        <ele>67.4</ele>
        <time>2022-04-05T10:35:32Z</time>
      </trkpt>
      <trkpt lat="44.87945" lon="0.31657">
        <ele>67.6</ele>
        <time>2022-04-05T10:35:33Z</time>
      </trkpt>
      <trkpt lat="44.87945" lon="0.31657">
        <ele>67.6</ele>
        <time>2022-04-05T10:35:34Z</time>
      </trkpt>
      <trkpt lat="44.87947" lon="0.31658">
        <ele>67.7</ele>
        <time>2022-04-05T10:35:35Z</time>
      </trkpt>
      <trkpt lat="44.87948" lon="0.31658">
        <ele>67.7</ele>
        <time>2022-04-05T10:35:36Z</time>
      </trkpt>
      <trkpt lat="44.87949" lon="0.31659">
        <ele>67.5</ele>
        <time>2022-04-05T10:35:37Z</time>
      </trkpt>
      <trkpt lat="44.87951" lon="0.3166">
        <ele>67.6</ele>
        <time>2022-04-05T10:35:39Z</time>
      </trkpt>
      <trkpt lat="44.87952" lon="0.31661">
        <ele>67.6</ele>
        <time>2022-04-05T10:35:40Z</time>
      </trkpt>
      <trkpt lat="44.87953" lon="0.31662">
        <ele>67.6</ele>
        <time>2022-04-05T10:35:41Z</time>
      </trkpt>
      <trkpt lat="44.87954" lon="0.31664">
        <ele>67.6</ele>
        <time>2022-04-05T10:35:42Z</time>
      </trkpt>
      <trkpt lat="44.87955" lon="0.31665">
        <ele>67.6</ele>
        <time>2022-04-05T10:35:43Z</time>
      </trkpt>
      <trkpt lat="44.87956" lon="0.31666">
        <ele>67.6</ele>
        <time>2022-04-05T10:35:44Z</time>
      </trkpt>
      <trkpt lat="44.87958" lon="0.31668">
        <ele>67.4</ele>
        <time>2022-04-05T10:35:45Z</time>
      </trkpt>
      <trkpt lat="44.87958" lon="0.31669">
        <ele>67.4</ele>
        <time>2022-04-05T10:35:46Z</time>
      </trkpt>
      <trkpt lat="44.87959" lon="0.3167">
        <ele>67.4</ele>
        <time>2022-04-05T10:35:47Z</time>
      </trkpt>
      <trkpt lat="44.87961" lon="0.31672">
        <ele>67.3</ele>
        <time>2022-04-05T10:35:48Z</time>
      </trkpt>
      <trkpt lat="44.87961" lon="0.31672">
        <ele>67.3</ele>
        <time>2022-04-05T10:35:49Z</time>
      </trkpt>
      <trkpt lat="44.87962" lon="0.31672">
        <ele>67.3</ele>
        <time>2022-04-05T10:35:50Z</time>
      </trkpt>
      <trkpt lat="44.87963" lon="0.31674">
        <ele>67.5</ele>
        <time>2022-04-05T10:35:51Z</time>
      </trkpt>
      <trkpt lat="44.87964" lon="0.31675">
        <ele>67.5</ele>
        <time>2022-04-05T10:35:52Z</time>
      </trkpt>
      <trkpt lat="44.87966" lon="0.31677">
        <ele>67.4</ele>
        <time>2022-04-05T10:35:54Z</time>
      </trkpt>
      <trkpt lat="44.87967" lon="0.31678">
        <ele>67.4</ele>
        <time>2022-04-05T10:35:55Z</time>
      </trkpt>
      <trkpt lat="44.87967" lon="0.3168">
        <ele>67.4</ele>
        <time>2022-04-05T10:35:56Z</time>
      </trkpt>
      <trkpt lat="44.87968" lon="0.31681">
        <ele>67.1</ele>
        <time>2022-04-05T10:35:57Z</time>
      </trkpt>
      <trkpt lat="44.87969" lon="0.31682">
        <ele>67.3</ele>
        <time>2022-04-05T10:35:58Z</time>
      </trkpt>
      <trkpt lat="44.87971" lon="0.31684">
        <ele>67.3</ele>
        <time>2022-04-05T10:35:59Z</time>
      </trkpt>
      <trkpt lat="44.87971" lon="0.31684">
        <ele>67.1</ele>
        <time>2022-04-05T10:36:00Z</time>
      </trkpt>
      <trkpt lat="44.87972" lon="0.31685">
        <ele>67.3</ele>
        <time>2022-04-05T10:36:01Z</time>
      </trkpt>
      <trkpt lat="44.87973" lon="0.31686">
        <ele>67.3</ele>
        <time>2022-04-05T10:36:02Z</time>
      </trkpt>
      <trkpt lat="44.87975" lon="0.31687">
        <ele>67.4</ele>
        <time>2022-04-05T10:36:03Z</time>
      </trkpt>
      <trkpt lat="44.87977" lon="0.31688">
        <ele>67.4</ele>
        <time>2022-04-05T10:36:05Z</time>
      </trkpt>
      <trkpt lat="44.87978" lon="0.31688">
        <ele>67.6</ele>
        <time>2022-04-05T10:36:06Z</time>
      </trkpt>
      <trkpt lat="44.87979" lon="0.31689">
        <ele>67.4</ele>
        <time>2022-04-05T10:36:07Z</time>
      </trkpt>
      <trkpt lat="44.8798" lon="0.3169">
        <ele>67.4</ele>
        <time>2022-04-05T10:36:08Z</time>
      </trkpt>
      <trkpt lat="44.87981" lon="0.31691">
        <ele>67.5</ele>
        <time>2022-04-05T10:36:09Z</time>
      </trkpt>
      <trkpt lat="44.87982" lon="0.31692">
        <ele>67.5</ele>
        <time>2022-04-05T10:36:10Z</time>
      </trkpt>
      <trkpt lat="44.87983" lon="0.31693">
        <ele>67.3</ele>
        <time>2022-04-05T10:36:11Z</time>
      </trkpt>
      <trkpt lat="44.87984" lon="0.31695">
        <ele>67.5</ele>
        <time>2022-04-05T10:36:12Z</time>
      </trkpt>
      <trkpt lat="44.87986" lon="0.31697">
        <ele>67.5</ele>
        <time>2022-04-05T10:36:13Z</time>
      </trkpt>
      <trkpt lat="44.87986" lon="0.31698">
        <ele>67.3</ele>
        <time>2022-04-05T10:36:14Z</time>
      </trkpt>
      <trkpt lat="44.87987" lon="0.31698">
        <ele>67.5</ele>
        <time>2022-04-05T10:36:15Z</time>
      </trkpt>
      <trkpt lat="44.87988" lon="0.317">
        <ele>67.5</ele>
        <time>2022-04-05T10:36:16Z</time>
      </trkpt>
      <trkpt lat="44.87989" lon="0.317">
        <ele>67.5</ele>
        <time>2022-04-05T10:36:17Z</time>
      </trkpt>
      <trkpt lat="44.87991" lon="0.31702">
        <ele>67.5</ele>
        <time>2022-04-05T10:36:19Z</time>
      </trkpt>
      <trkpt lat="44.87992" lon="0.31703">
        <ele>67.5</ele>
        <time>2022-04-05T10:36:20Z</time>
      </trkpt>
      <trkpt lat="44.87993" lon="0.31704">
        <ele>67.5</ele>
        <time>2022-04-05T10:36:21Z</time>
      </trkpt>
      <trkpt lat="44.87994" lon="0.31705">
        <ele>67.7</ele>
        <time>2022-04-05T10:36:22Z</time>
      </trkpt>
      <trkpt lat="44.87995" lon="0.31707">
        <ele>67.5</ele>
        <time>2022-04-05T10:36:24Z</time>
      </trkpt>
      <trkpt lat="44.87996" lon="0.31708">
        <ele>67.7</ele>
        <time>2022-04-05T10:36:25Z</time>
      </trkpt>
      <trkpt lat="44.87997" lon="0.3171">
        <ele>67.7</ele>
        <time>2022-04-05T10:36:26Z</time>
      </trkpt>
      <trkpt lat="44.87997" lon="0.3171">
        <ele>67.5</ele>
        <time>2022-04-05T10:36:27Z</time>
      </trkpt>
      <trkpt lat="44.87998" lon="0.31711">
        <ele>67.5</ele>
        <time>2022-04-05T10:36:28Z</time>
      </trkpt>
      <trkpt lat="44.88" lon="0.31712">
        <ele>67.7</ele>
        <time>2022-04-05T10:36:29Z</time>
      </trkpt>
      <trkpt lat="44.88001" lon="0.31712">
        <ele>67.7</ele>
        <time>2022-04-05T10:36:30Z</time>
      </trkpt>
      <trkpt lat="44.88002" lon="0.31712">
        <ele>67.9</ele>
        <time>2022-04-05T10:36:31Z</time>
      </trkpt>
      <trkpt lat="44.88003" lon="0.31712">
        <ele>67.9</ele>
        <time>2022-04-05T10:36:32Z</time>
      </trkpt>
      <trkpt lat="44.88005" lon="0.31712">
        <ele>68.1</ele>
        <time>2022-04-05T10:36:33Z</time>
      </trkpt>
      <trkpt lat="44.88006" lon="0.31711">
        <ele>68.1</ele>
        <time>2022-04-05T10:36:34Z</time>
      </trkpt>
      <trkpt lat="44.88007" lon="0.31712">
        <ele>68.1</ele>
        <time>2022-04-05T10:36:36Z</time>
      </trkpt>
      <trkpt lat="44.88008" lon="0.31713">
        <ele>68.3</ele>
        <time>2022-04-05T10:36:37Z</time>
      </trkpt>
      <trkpt lat="44.88009" lon="0.31714">
        <ele>68.3</ele>
        <time>2022-04-05T10:36:38Z</time>
      </trkpt>
      <trkpt lat="44.88011" lon="0.31715">
        <ele>68.3</ele>
        <time>2022-04-05T10:36:39Z</time>
      </trkpt>
      <trkpt lat="44.88012" lon="0.31716">
        <ele>68.3</ele>
        <time>2022-04-05T10:36:40Z</time>
      </trkpt>
      <trkpt lat="44.88013" lon="0.31716">
        <ele>68.3</ele>
        <time>2022-04-05T10:36:41Z</time>
      </trkpt>
      <trkpt lat="44.88015" lon="0.31717">
        <ele>68.4</ele>
        <time>2022-04-05T10:36:42Z</time>
      </trkpt>
      <trkpt lat="44.88016" lon="0.31718">
        <ele>68.4</ele>
        <time>2022-04-05T10:36:43Z</time>
      </trkpt>
      <trkpt lat="44.88017" lon="0.31718">
        <ele>68.4</ele>
        <time>2022-04-05T10:36:44Z</time>
      </trkpt>
      <trkpt lat="44.88017" lon="0.31719">
        <ele>68.4</ele>
        <time>2022-04-05T10:36:45Z</time>
      </trkpt>
      <trkpt lat="44.88018" lon="0.3172">
        <ele>68.4</ele>
        <time>2022-04-05T10:36:46Z</time>
      </trkpt>
      <trkpt lat="44.88019" lon="0.3172">
        <ele>68.4</ele>
        <time>2022-04-05T10:36:48Z</time>
      </trkpt>
      <trkpt lat="44.88022" lon="0.31721">
        <ele>68.6</ele>
        <time>2022-04-05T10:36:49Z</time>
      </trkpt>
      <trkpt lat="44.88022" lon="0.31721">
        <ele>68.6</ele>
        <time>2022-04-05T10:36:50Z</time>
      </trkpt>
      <trkpt lat="44.88023" lon="0.31721">
        <ele>68.8</ele>
        <time>2022-04-05T10:36:51Z</time>
      </trkpt>
      <trkpt lat="44.88024" lon="0.31721">
        <ele>68.8</ele>
        <time>2022-04-05T10:36:52Z</time>
      </trkpt>
      <trkpt lat="44.88026" lon="0.31722">
        <ele>68.8</ele>
        <time>2022-04-05T10:36:53Z</time>
      </trkpt>
      <trkpt lat="44.88027" lon="0.31722">
        <ele>69.1</ele>
        <time>2022-04-05T10:36:54Z</time>
      </trkpt>
      <trkpt lat="44.88028" lon="0.31722">
        <ele>69.1</ele>
        <time>2022-04-05T10:36:55Z</time>
      </trkpt>
      <trkpt lat="44.88029" lon="0.31722">
        <ele>69.1</ele>
        <time>2022-04-05T10:36:56Z</time>
      </trkpt>
      <trkpt lat="44.88031" lon="0.31723">
        <ele>69.2</ele>
        <time>2022-04-05T10:36:57Z</time>
      </trkpt>
      <trkpt lat="44.88032" lon="0.31724">
        <ele>69.2</ele>
        <time>2022-04-05T10:36:59Z</time>
      </trkpt>
      <trkpt lat="44.88033" lon="0.31724">
        <ele>69.4</ele>
        <time>2022-04-05T10:37:00Z</time>
      </trkpt>
      <trkpt lat="44.88034" lon="0.31725">
        <ele>69.4</ele>
        <time>2022-04-05T10:37:01Z</time>
      </trkpt>
      <trkpt lat="44.88035" lon="0.31725">
        <ele>69.4</ele>
        <time>2022-04-05T10:37:02Z</time>
      </trkpt>
      <trkpt lat="44.88036" lon="0.31726">
        <ele>69.6</ele>
        <time>2022-04-05T10:37:03Z</time>
      </trkpt>
      <trkpt lat="44.88037" lon="0.31726">
        <ele>69.6</ele>
        <time>2022-04-05T10:37:05Z</time>
      </trkpt>
      <trkpt lat="44.88039" lon="0.31727">
        <ele>69.9</ele>
        <time>2022-04-05T10:37:06Z</time>
      </trkpt>
      <trkpt lat="44.8804" lon="0.31728">
        <ele>69.8</ele>
        <time>2022-04-05T10:37:07Z</time>
      </trkpt>
      <trkpt lat="44.88041" lon="0.31729">
        <ele>69.8</ele>
        <time>2022-04-05T10:37:08Z</time>
      </trkpt>
      <trkpt lat="44.88043" lon="0.3173">
        <ele>70</ele>
        <time>2022-04-05T10:37:09Z</time>
      </trkpt>
      <trkpt lat="44.88043" lon="0.31731">
        <ele>70</ele>
        <time>2022-04-05T10:37:10Z</time>
      </trkpt>
      <trkpt lat="44.88045" lon="0.31733">
        <ele>70.1</ele>
        <time>2022-04-05T10:37:11Z</time>
      </trkpt>
      <trkpt lat="44.88046" lon="0.31733">
        <ele>70.1</ele>
        <time>2022-04-05T10:37:12Z</time>
      </trkpt>
      <trkpt lat="44.88047" lon="0.31734">
        <ele>70.1</ele>
        <time>2022-04-05T10:37:13Z</time>
      </trkpt>
      <trkpt lat="44.88049" lon="0.31735">
        <ele>70.3</ele>
        <time>2022-04-05T10:37:14Z</time>
      </trkpt>
      <trkpt lat="44.8805" lon="0.31735">
        <ele>70.3</ele>
        <time>2022-04-05T10:37:15Z</time>
      </trkpt>
      <trkpt lat="44.88052" lon="0.31736">
        <ele>70.6</ele>
        <time>2022-04-05T10:37:17Z</time>
      </trkpt>
      <trkpt lat="44.88053" lon="0.31736">
        <ele>70.6</ele>
        <time>2022-04-05T10:37:18Z</time>
      </trkpt>
      <trkpt lat="44.88054" lon="0.31736">
        <ele>70.8</ele>
        <time>2022-04-05T10:37:19Z</time>
      </trkpt>
      <trkpt lat="44.88055" lon="0.31736">
        <ele>70.8</ele>
        <time>2022-04-05T10:37:21Z</time>
      </trkpt>
      <trkpt lat="44.88056" lon="0.31736">
        <ele>70.6</ele>
        <time>2022-04-05T10:37:22Z</time>
      </trkpt>
      <trkpt lat="44.88058" lon="0.31736">
        <ele>70.9</ele>
        <time>2022-04-05T10:37:23Z</time>
      </trkpt>
      <trkpt lat="44.88059" lon="0.31737">
        <ele>70.9</ele>
        <time>2022-04-05T10:37:24Z</time>
      </trkpt>
      <trkpt lat="44.8806" lon="0.31737">
        <ele>71.1</ele>
        <time>2022-04-05T10:37:25Z</time>
      </trkpt>
      <trkpt lat="44.88061" lon="0.31737">
        <ele>71.1</ele>
        <time>2022-04-05T10:37:26Z</time>
      </trkpt>
      <trkpt lat="44.88063" lon="0.31737">
        <ele>71.4</ele>
        <time>2022-04-05T10:37:27Z</time>
      </trkpt>
      <trkpt lat="44.88064" lon="0.31737">
        <ele>71.4</ele>
        <time>2022-04-05T10:37:28Z</time>
      </trkpt>
      <trkpt lat="44.88065" lon="0.31738">
        <ele>71.4</ele>
        <time>2022-04-05T10:37:29Z</time>
      </trkpt>
      <trkpt lat="44.88065" lon="0.31738">
        <ele>71.4</ele>
        <time>2022-04-05T10:37:30Z</time>
      </trkpt>
      <trkpt lat="44.88066" lon="0.31739">
        <ele>71.6</ele>
        <time>2022-04-05T10:37:31Z</time>
      </trkpt>
      <trkpt lat="44.88067" lon="0.3174">
        <ele>71.6</ele>
        <time>2022-04-05T10:37:32Z</time>
      </trkpt>
      <trkpt lat="44.8807" lon="0.31741">
        <ele>71.6</ele>
        <time>2022-04-05T10:37:33Z</time>
      </trkpt>
      <trkpt lat="44.8807" lon="0.31742">
        <ele>71.6</ele>
        <time>2022-04-05T10:37:35Z</time>
      </trkpt>
      <trkpt lat="44.8807" lon="0.31742">
        <ele>71.6</ele>
        <time>2022-04-05T10:37:36Z</time>
      </trkpt>
      <trkpt lat="44.88073" lon="0.31744">
        <ele>71.8</ele>
        <time>2022-04-05T10:37:37Z</time>
      </trkpt>
      <trkpt lat="44.88073" lon="0.31744">
        <ele>71.8</ele>
        <time>2022-04-05T10:37:38Z</time>
      </trkpt>
      <trkpt lat="44.88074" lon="0.31745">
        <ele>71.5</ele>
        <time>2022-04-05T10:37:39Z</time>
      </trkpt>
      <trkpt lat="44.88075" lon="0.31745">
        <ele>71.7</ele>
        <time>2022-04-05T10:37:40Z</time>
      </trkpt>
      <trkpt lat="44.88077" lon="0.31745">
        <ele>71.7</ele>
        <time>2022-04-05T10:37:42Z</time>
      </trkpt>
      <trkpt lat="44.88078" lon="0.31745">
        <ele>71.7</ele>
        <time>2022-04-05T10:37:43Z</time>
      </trkpt>
      <trkpt lat="44.88079" lon="0.31744">
        <ele>72.2</ele>
        <time>2022-04-05T10:37:44Z</time>
      </trkpt>
      <trkpt lat="44.88078" lon="0.31744">
        <ele>72.2</ele>
        <time>2022-04-05T10:37:45Z</time>
      </trkpt>
      <trkpt lat="44.88077" lon="0.31743">
        <ele>72</ele>
        <time>2022-04-05T10:37:46Z</time>
      </trkpt>
      <trkpt lat="44.88077" lon="0.31743">
        <ele>72</ele>
        <time>2022-04-05T10:37:47Z</time>
      </trkpt>
      <trkpt lat="44.88079" lon="0.31743">
        <ele>72.2</ele>
        <time>2022-04-05T10:37:49Z</time>
      </trkpt>
      <trkpt lat="44.8808" lon="0.31743">
        <ele>72.2</ele>
        <time>2022-04-05T10:37:50Z</time>
      </trkpt>
      <trkpt lat="44.88081" lon="0.31743">
        <ele>72.4</ele>
        <time>2022-04-05T10:37:51Z</time>
      </trkpt>
      <trkpt lat="44.88083" lon="0.31744">
        <ele>72.4</ele>
        <time>2022-04-05T10:37:52Z</time>
      </trkpt>
      <trkpt lat="44.88085" lon="0.31744">
        <ele>72.6</ele>
        <time>2022-04-05T10:37:54Z</time>
      </trkpt>
      <trkpt lat="44.88085" lon="0.31744">
        <ele>72.6</ele>
        <time>2022-04-05T10:37:55Z</time>
      </trkpt>
      <trkpt lat="44.88086" lon="0.31744">
        <ele>72.6</ele>
        <time>2022-04-05T10:37:56Z</time>
      </trkpt>
      <trkpt lat="44.88086" lon="0.31743">
        <ele>72.6</ele>
        <time>2022-04-05T10:37:57Z</time>
      </trkpt>
      <trkpt lat="44.88085" lon="0.31743">
        <ele>72.6</ele>
        <time>2022-04-05T10:37:58Z</time>
      </trkpt>
      <trkpt lat="44.88084" lon="0.31743">
        <ele>72.6</ele>
        <time>2022-04-05T10:37:59Z</time>
      </trkpt>
      <trkpt lat="44.88084" lon="0.31743">
        <ele>72.4</ele>
        <time>2022-04-05T10:38:00Z</time>
      </trkpt>
      <trkpt lat="44.88083" lon="0.31743">
        <ele>72.4</ele>
        <time>2022-04-05T10:38:02Z</time>
      </trkpt>
      <trkpt lat="44.88084" lon="0.31743">
        <ele>72.4</ele>
        <time>2022-04-05T10:38:03Z</time>
      </trkpt>
      <trkpt lat="44.88086" lon="0.31743">
        <ele>72.6</ele>
        <time>2022-04-05T10:38:04Z</time>
      </trkpt>
      <trkpt lat="44.88086" lon="0.31743">
        <ele>72.6</ele>
        <time>2022-04-05T10:38:05Z</time>
      </trkpt>
      <trkpt lat="44.88087" lon="0.31744">
        <ele>72.6</ele>
        <time>2022-04-05T10:38:06Z</time>
      </trkpt>
      <trkpt lat="44.88088" lon="0.31745">
        <ele>72.6</ele>
        <time>2022-04-05T10:38:07Z</time>
      </trkpt>
      <trkpt lat="44.88089" lon="0.31746">
        <ele>72.6</ele>
        <time>2022-04-05T10:38:08Z</time>
      </trkpt>
      <trkpt lat="44.88091" lon="0.31746">
        <ele>72.8</ele>
        <time>2022-04-05T10:38:10Z</time>
      </trkpt>
      <trkpt lat="44.88092" lon="0.31747">
        <ele>72.8</ele>
        <time>2022-04-05T10:38:11Z</time>
      </trkpt>
      <trkpt lat="44.88093" lon="0.31747">
        <ele>73</ele>
        <time>2022-04-05T10:38:12Z</time>
      </trkpt>
      <trkpt lat="44.88094" lon="0.31747">
        <ele>73</ele>
        <time>2022-04-05T10:38:13Z</time>
      </trkpt>
      <trkpt lat="44.88096" lon="0.31749">
        <ele>73</ele>
        <time>2022-04-05T10:38:14Z</time>
      </trkpt>
      <trkpt lat="44.88096" lon="0.31749">
        <ele>72.9</ele>
        <time>2022-04-05T10:38:15Z</time>
      </trkpt>
      <trkpt lat="44.88097" lon="0.31749">
        <ele>72.9</ele>
        <time>2022-04-05T10:38:16Z</time>
      </trkpt>
      <trkpt lat="44.88099" lon="0.3175">
        <ele>72.9</ele>
        <time>2022-04-05T10:38:17Z</time>
      </trkpt>
      <trkpt lat="44.881" lon="0.3175">
        <ele>73.1</ele>
        <time>2022-04-05T10:38:18Z</time>
      </trkpt>
      <trkpt lat="44.88101" lon="0.31751">
        <ele>73.1</ele>
        <time>2022-04-05T10:38:19Z</time>
      </trkpt>
      <trkpt lat="44.88101" lon="0.31751">
        <ele>73.1</ele>
        <time>2022-04-05T10:38:20Z</time>
      </trkpt>
      <trkpt lat="44.88103" lon="0.31752">
        <ele>73.2</ele>
        <time>2022-04-05T10:38:21Z</time>
      </trkpt>
      <trkpt lat="44.88104" lon="0.31752">
        <ele>73.2</ele>
        <time>2022-04-05T10:38:23Z</time>
      </trkpt>
      <trkpt lat="44.88105" lon="0.31753">
        <ele>73.2</ele>
        <time>2022-04-05T10:38:24Z</time>
      </trkpt>
      <trkpt lat="44.88106" lon="0.31753">
        <ele>73.1</ele>
        <time>2022-04-05T10:38:25Z</time>
      </trkpt>
      <trkpt lat="44.88107" lon="0.31754">
        <ele>73.1</ele>
        <time>2022-04-05T10:38:26Z</time>
      </trkpt>
      <trkpt lat="44.88108" lon="0.31755">
        <ele>73.1</ele>
        <time>2022-04-05T10:38:27Z</time>
      </trkpt>
      <trkpt lat="44.88109" lon="0.31756">
        <ele>73.3</ele>
        <time>2022-04-05T10:38:29Z</time>
      </trkpt>
      <trkpt lat="44.8811" lon="0.31757">
        <ele>73.3</ele>
        <time>2022-04-05T10:38:30Z</time>
      </trkpt>
      <trkpt lat="44.88111" lon="0.31757">
        <ele>73</ele>
        <time>2022-04-05T10:38:31Z</time>
      </trkpt>
      <trkpt lat="44.88112" lon="0.31758">
        <ele>73.2</ele>
        <time>2022-04-05T10:38:32Z</time>
      </trkpt>
      <trkpt lat="44.88112" lon="0.31758">
        <ele>73.2</ele>
        <time>2022-04-05T10:38:33Z</time>
      </trkpt>
      <trkpt lat="44.88115" lon="0.31759">
        <ele>73.3</ele>
        <time>2022-04-05T10:38:35Z</time>
      </trkpt>
      <trkpt lat="44.88115" lon="0.31759">
        <ele>73.3</ele>
        <time>2022-04-05T10:38:36Z</time>
      </trkpt>
      <trkpt lat="44.88116" lon="0.31759">
        <ele>73.3</ele>
        <time>2022-04-05T10:38:37Z</time>
      </trkpt>
      <trkpt lat="44.88118" lon="0.31759">
        <ele>73.3</ele>
        <time>2022-04-05T10:38:38Z</time>
      </trkpt>
      <trkpt lat="44.88119" lon="0.31759">
        <ele>73.3</ele>
        <time>2022-04-05T10:38:39Z</time>
      </trkpt>
      <trkpt lat="44.8812" lon="0.31759">
        <ele>73.3</ele>
        <time>2022-04-05T10:38:40Z</time>
      </trkpt>
      <trkpt lat="44.88121" lon="0.31759">
        <ele>73.4</ele>
        <time>2022-04-05T10:38:41Z</time>
      </trkpt>
      <trkpt lat="44.88122" lon="0.3176">
        <ele>73.4</ele>
        <time>2022-04-05T10:38:42Z</time>
      </trkpt>
      <trkpt lat="44.88123" lon="0.3176">
        <ele>73.4</ele>
        <time>2022-04-05T10:38:43Z</time>
      </trkpt>
      <trkpt lat="44.88124" lon="0.3176">
        <ele>73.5</ele>
        <time>2022-04-05T10:38:44Z</time>
      </trkpt>
      <trkpt lat="44.88125" lon="0.31761">
        <ele>73.5</ele>
        <time>2022-04-05T10:38:45Z</time>
      </trkpt>
      <trkpt lat="44.88126" lon="0.31761">
        <ele>73.5</ele>
        <time>2022-04-05T10:38:46Z</time>
      </trkpt>
      <trkpt lat="44.88128" lon="0.31762">
        <ele>73.5</ele>
        <time>2022-04-05T10:38:48Z</time>
      </trkpt>
      <trkpt lat="44.88129" lon="0.31762">
        <ele>73.3</ele>
        <time>2022-04-05T10:38:49Z</time>
      </trkpt>
      <trkpt lat="44.8813" lon="0.31762">
        <ele>73.4</ele>
        <time>2022-04-05T10:38:50Z</time>
      </trkpt>
      <trkpt lat="44.8813" lon="0.31762">
        <ele>73.4</ele>
        <time>2022-04-05T10:38:51Z</time>
      </trkpt>
      <trkpt lat="44.88131" lon="0.31763">
        <ele>73.4</ele>
        <time>2022-04-05T10:38:52Z</time>
      </trkpt>
      <trkpt lat="44.88132" lon="0.31763">
        <ele>73.4</ele>
        <time>2022-04-05T10:38:53Z</time>
      </trkpt>
      <trkpt lat="44.88133" lon="0.31765">
        <ele>73.4</ele>
        <time>2022-04-05T10:38:54Z</time>
      </trkpt>
      <trkpt lat="44.88133" lon="0.31766">
        <ele>73.3</ele>
        <time>2022-04-05T10:38:56Z</time>
      </trkpt>
      <trkpt lat="44.88134" lon="0.31767">
        <ele>73.3</ele>
        <time>2022-04-05T10:38:57Z</time>
      </trkpt>
      <trkpt lat="44.88135" lon="0.31766">
        <ele>73.3</ele>
        <time>2022-04-05T10:38:58Z</time>
      </trkpt>
      <trkpt lat="44.88136" lon="0.31766">
        <ele>73.3</ele>
        <time>2022-04-05T10:38:59Z</time>
      </trkpt>
      <trkpt lat="44.88137" lon="0.31767">
        <ele>73.3</ele>
        <time>2022-04-05T10:39:01Z</time>
      </trkpt>
      <trkpt lat="44.88138" lon="0.31768">
        <ele>73.3</ele>
        <time>2022-04-05T10:39:02Z</time>
      </trkpt>
      <trkpt lat="44.88139" lon="0.31768">
        <ele>73.4</ele>
        <time>2022-04-05T10:39:03Z</time>
      </trkpt>
      <trkpt lat="44.8814" lon="0.31768">
        <ele>73.4</ele>
        <time>2022-04-05T10:39:04Z</time>
      </trkpt>
      <trkpt lat="44.88141" lon="0.31768">
        <ele>73.4</ele>
        <time>2022-04-05T10:39:06Z</time>
      </trkpt>
      <trkpt lat="44.88142" lon="0.31769">
        <ele>73.5</ele>
        <time>2022-04-05T10:39:07Z</time>
      </trkpt>
      <trkpt lat="44.88143" lon="0.31769">
        <ele>73.5</ele>
        <time>2022-04-05T10:39:08Z</time>
      </trkpt>
      <trkpt lat="44.88144" lon="0.31769">
        <ele>73.5</ele>
        <time>2022-04-05T10:39:09Z</time>
      </trkpt>
      <trkpt lat="44.88145" lon="0.3177">
        <ele>73.5</ele>
        <time>2022-04-05T10:39:10Z</time>
      </trkpt>
      <trkpt lat="44.88146" lon="0.3177">
        <ele>73.4</ele>
        <time>2022-04-05T10:39:11Z</time>
      </trkpt>
      <trkpt lat="44.88146" lon="0.31771">
        <ele>73.4</ele>
        <time>2022-04-05T10:39:12Z</time>
      </trkpt>
      <trkpt lat="44.88148" lon="0.31772">
        <ele>73.4</ele>
        <time>2022-04-05T10:39:14Z</time>
      </trkpt>
      <trkpt lat="44.88149" lon="0.31773">
        <ele>73.4</ele>
        <time>2022-04-05T10:39:15Z</time>
      </trkpt>
      <trkpt lat="44.88149" lon="0.31773">
        <ele>73.4</ele>
        <time>2022-04-05T10:39:16Z</time>
      </trkpt>
      <trkpt lat="44.8815" lon="0.31774">
        <ele>73.4</ele>
        <time>2022-04-05T10:39:17Z</time>
      </trkpt>
      <trkpt lat="44.88152" lon="0.31775">
        <ele>73.3</ele>
        <time>2022-04-05T10:39:19Z</time>
      </trkpt>
      <trkpt lat="44.88152" lon="0.31775">
        <ele>73.3</ele>
        <time>2022-04-05T10:39:20Z</time>
      </trkpt>
      <trkpt lat="44.88153" lon="0.31775">
        <ele>73.3</ele>
        <time>2022-04-05T10:39:21Z</time>
      </trkpt>
      <trkpt lat="44.88154" lon="0.31776">
        <ele>73.4</ele>
        <time>2022-04-05T10:39:23Z</time>
      </trkpt>
      <trkpt lat="44.88155" lon="0.31776">
        <ele>73.4</ele>
        <time>2022-04-05T10:39:24Z</time>
      </trkpt>
      <trkpt lat="44.88156" lon="0.31776">
        <ele>73.4</ele>
        <time>2022-04-05T10:39:25Z</time>
      </trkpt>
      <trkpt lat="44.88157" lon="0.31776">
        <ele>73.4</ele>
        <time>2022-04-05T10:39:27Z</time>
      </trkpt>
      <trkpt lat="44.88158" lon="0.31777">
        <ele>73.4</ele>
        <time>2022-04-05T10:39:28Z</time>
      </trkpt>
      <trkpt lat="44.88159" lon="0.31777">
        <ele>73.4</ele>
        <time>2022-04-05T10:39:29Z</time>
      </trkpt>
      <trkpt lat="44.8816" lon="0.31778">
        <ele>73.4</ele>
        <time>2022-04-05T10:39:30Z</time>
      </trkpt>
      <trkpt lat="44.88161" lon="0.31778">
        <ele>73.5</ele>
        <time>2022-04-05T10:39:32Z</time>
      </trkpt>
      <trkpt lat="44.88162" lon="0.31779">
        <ele>73.5</ele>
        <time>2022-04-05T10:39:33Z</time>
      </trkpt>
      <trkpt lat="44.88163" lon="0.31779">
        <ele>73.3</ele>
        <time>2022-04-05T10:39:34Z</time>
      </trkpt>
      <trkpt lat="44.88164" lon="0.3178">
        <ele>73.4</ele>
        <time>2022-04-05T10:39:35Z</time>
      </trkpt>
      <trkpt lat="44.88164" lon="0.3178">
        <ele>73.4</ele>
        <time>2022-04-05T10:39:36Z</time>
      </trkpt>
      <trkpt lat="44.88165" lon="0.31781">
        <ele>73.4</ele>
        <time>2022-04-05T10:39:37Z</time>
      </trkpt>
      <trkpt lat="44.88166" lon="0.31781">
        <ele>73.4</ele>
        <time>2022-04-05T10:39:38Z</time>
      </trkpt>
      <trkpt lat="44.88166" lon="0.31782">
        <ele>73.5</ele>
        <time>2022-04-05T10:39:40Z</time>
      </trkpt>
      <trkpt lat="44.88167" lon="0.31783">
        <ele>73.4</ele>
        <time>2022-04-05T10:39:41Z</time>
      </trkpt>
      <trkpt lat="44.88169" lon="0.31785">
        <ele>73.4</ele>
        <time>2022-04-05T10:39:43Z</time>
      </trkpt>
      <trkpt lat="44.8817" lon="0.31785">
        <ele>73.4</ele>
        <time>2022-04-05T10:39:44Z</time>
      </trkpt>
      <trkpt lat="44.8817" lon="0.31786">
        <ele>73.4</ele>
        <time>2022-04-05T10:39:45Z</time>
      </trkpt>
      <trkpt lat="44.88171" lon="0.31787">
        <ele>73.4</ele>
        <time>2022-04-05T10:39:46Z</time>
      </trkpt>
      <trkpt lat="44.88172" lon="0.31788">
        <ele>73.4</ele>
        <time>2022-04-05T10:39:47Z</time>
      </trkpt>
      <trkpt lat="44.88173" lon="0.31788">
        <ele>73.4</ele>
        <time>2022-04-05T10:39:49Z</time>
      </trkpt>
      <trkpt lat="44.88174" lon="0.31789">
        <ele>73.4</ele>
        <time>2022-04-05T10:39:50Z</time>
      </trkpt>
      <trkpt lat="44.88175" lon="0.3179">
        <ele>73.4</ele>
        <time>2022-04-05T10:39:51Z</time>
      </trkpt>
      <trkpt lat="44.88176" lon="0.31791">
        <ele>73.5</ele>
        <time>2022-04-05T10:39:53Z</time>
      </trkpt>
      <trkpt lat="44.88177" lon="0.31791">
        <ele>73.5</ele>
        <time>2022-04-05T10:39:54Z</time>
      </trkpt>
      <trkpt lat="44.88178" lon="0.31791">
        <ele>73.5</ele>
        <time>2022-04-05T10:39:55Z</time>
      </trkpt>
      <trkpt lat="44.88179" lon="0.31792">
        <ele>73.5</ele>
        <time>2022-04-05T10:39:56Z</time>
      </trkpt>
      <trkpt lat="44.8818" lon="0.31793">
        <ele>73.5</ele>
        <time>2022-04-05T10:39:58Z</time>
      </trkpt>
      <trkpt lat="44.88181" lon="0.31793">
        <ele>73.5</ele>
        <time>2022-04-05T10:39:59Z</time>
      </trkpt>
      <trkpt lat="44.88182" lon="0.31793">
        <ele>73.6</ele>
        <time>2022-04-05T10:40:00Z</time>
      </trkpt>
      <trkpt lat="44.88183" lon="0.31794">
        <ele>73.6</ele>
        <time>2022-04-05T10:40:01Z</time>
      </trkpt>
      <trkpt lat="44.88185" lon="0.31795">
        <ele>73.7</ele>
        <time>2022-04-05T10:40:03Z</time>
      </trkpt>
      <trkpt lat="44.88186" lon="0.31795">
        <ele>73.7</ele>
        <time>2022-04-05T10:40:04Z</time>
      </trkpt>
      <trkpt lat="44.88187" lon="0.31796">
        <ele>73.6</ele>
        <time>2022-04-05T10:40:06Z</time>
      </trkpt>
      <trkpt lat="44.88188" lon="0.31797">
        <ele>73.8</ele>
        <time>2022-04-05T10:40:07Z</time>
      </trkpt>
      <trkpt lat="44.88189" lon="0.31798">
        <ele>73.8</ele>
        <time>2022-04-05T10:40:08Z</time>
      </trkpt>
      <trkpt lat="44.88189" lon="0.31798">
        <ele>73.8</ele>
        <time>2022-04-05T10:40:09Z</time>
      </trkpt>
      <trkpt lat="44.8819" lon="0.31799">
        <ele>73.8</ele>
        <time>2022-04-05T10:40:10Z</time>
      </trkpt>
      <trkpt lat="44.88191" lon="0.31799">
        <ele>73.9</ele>
        <time>2022-04-05T10:40:11Z</time>
      </trkpt>
      <trkpt lat="44.88192" lon="0.31799">
        <ele>73.9</ele>
        <time>2022-04-05T10:40:12Z</time>
      </trkpt>
      <trkpt lat="44.88193" lon="0.31799">
        <ele>73.9</ele>
        <time>2022-04-05T10:40:13Z</time>
      </trkpt>
      <trkpt lat="44.88193" lon="0.31798">
        <ele>73.9</ele>
        <time>2022-04-05T10:40:14Z</time>
      </trkpt>
      <trkpt lat="44.88193" lon="0.31797">
        <ele>73.9</ele>
        <time>2022-04-05T10:40:15Z</time>
      </trkpt>
      <trkpt lat="44.88194" lon="0.31796">
        <ele>74</ele>
        <time>2022-04-05T10:40:16Z</time>
      </trkpt>
      <trkpt lat="44.88196" lon="0.31797">
        <ele>74</ele>
        <time>2022-04-05T10:40:17Z</time>
      </trkpt>
      <trkpt lat="44.88196" lon="0.31797">
        <ele>74</ele>
        <time>2022-04-05T10:40:19Z</time>
      </trkpt>
      <trkpt lat="44.88197" lon="0.31797">
        <ele>74.1</ele>
        <time>2022-04-05T10:40:20Z</time>
      </trkpt>
      <trkpt lat="44.88198" lon="0.31797">
        <ele>74.1</ele>
        <time>2022-04-05T10:40:21Z</time>
      </trkpt>
      <trkpt lat="44.88199" lon="0.31798">
        <ele>74.1</ele>
        <time>2022-04-05T10:40:22Z</time>
      </trkpt>
      <trkpt lat="44.88201" lon="0.31798">
        <ele>74.2</ele>
        <time>2022-04-05T10:40:23Z</time>
      </trkpt>
      <trkpt lat="44.88202" lon="0.31798">
        <ele>74.2</ele>
        <time>2022-04-05T10:40:24Z</time>
      </trkpt>
      <trkpt lat="44.88203" lon="0.31798">
        <ele>74.4</ele>
        <time>2022-04-05T10:40:25Z</time>
      </trkpt>
      <trkpt lat="44.88204" lon="0.31798">
        <ele>74.4</ele>
        <time>2022-04-05T10:40:26Z</time>
      </trkpt>
      <trkpt lat="44.88206" lon="0.31799">
        <ele>74.5</ele>
        <time>2022-04-05T10:40:28Z</time>
      </trkpt>
      <trkpt lat="44.88207" lon="0.31799">
        <ele>74.5</ele>
        <time>2022-04-05T10:40:29Z</time>
      </trkpt>
      <trkpt lat="44.88208" lon="0.31799">
        <ele>74.5</ele>
        <time>2022-04-05T10:40:30Z</time>
      </trkpt>
      <trkpt lat="44.88209" lon="0.31798">
        <ele>74.6</ele>
        <time>2022-04-05T10:40:31Z</time>
      </trkpt>
      <trkpt lat="44.8821" lon="0.31798">
        <ele>74.6</ele>
        <time>2022-04-05T10:40:32Z</time>
      </trkpt>
      <trkpt lat="44.88211" lon="0.31798">
        <ele>74.6</ele>
        <time>2022-04-05T10:40:33Z</time>
      </trkpt>
      <trkpt lat="44.88212" lon="0.31798">
        <ele>74.8</ele>
        <time>2022-04-05T10:40:34Z</time>
      </trkpt>
      <trkpt lat="44.88214" lon="0.31798">
        <ele>74.8</ele>
        <time>2022-04-05T10:40:35Z</time>
      </trkpt>
      <trkpt lat="44.88215" lon="0.31798">
        <ele>74.9</ele>
        <time>2022-04-05T10:40:37Z</time>
      </trkpt>
      <trkpt lat="44.88217" lon="0.31798">
        <ele>74.9</ele>
        <time>2022-04-05T10:40:38Z</time>
      </trkpt>
      <trkpt lat="44.88218" lon="0.31798">
        <ele>75.1</ele>
        <time>2022-04-05T10:40:39Z</time>
      </trkpt>
      <trkpt lat="44.88219" lon="0.31798">
        <ele>75.1</ele>
        <time>2022-04-05T10:40:40Z</time>
      </trkpt>
      <trkpt lat="44.8822" lon="0.31798">
        <ele>75.1</ele>
        <time>2022-04-05T10:40:41Z</time>
      </trkpt>
      <trkpt lat="44.88221" lon="0.31798">
        <ele>75.1</ele>
        <time>2022-04-05T10:40:42Z</time>
      </trkpt>
      <trkpt lat="44.88223" lon="0.31798">
        <ele>75.2</ele>
        <time>2022-04-05T10:40:43Z</time>
      </trkpt>
      <trkpt lat="44.88224" lon="0.31798">
        <ele>75.4</ele>
        <time>2022-04-05T10:40:44Z</time>
      </trkpt>
      <trkpt lat="44.88224" lon="0.31798">
        <ele>75.4</ele>
        <time>2022-04-05T10:40:45Z</time>
      </trkpt>
      <trkpt lat="44.88227" lon="0.31798">
        <ele>75.4</ele>
        <time>2022-04-05T10:40:47Z</time>
      </trkpt>
      <trkpt lat="44.88228" lon="0.31799">
        <ele>75.6</ele>
        <time>2022-04-05T10:40:48Z</time>
      </trkpt>
      <trkpt lat="44.88228" lon="0.318">
        <ele>75.6</ele>
        <time>2022-04-05T10:40:49Z</time>
      </trkpt>
      <trkpt lat="44.88229" lon="0.31801">
        <ele>75.6</ele>
        <time>2022-04-05T10:40:50Z</time>
      </trkpt>
      <trkpt lat="44.88231" lon="0.31801">
        <ele>75.7</ele>
        <time>2022-04-05T10:40:51Z</time>
      </trkpt>
      <trkpt lat="44.88232" lon="0.31801">
        <ele>75.7</ele>
        <time>2022-04-05T10:40:52Z</time>
      </trkpt>
      <trkpt lat="44.88234" lon="0.318">
        <ele>75.8</ele>
        <time>2022-04-05T10:40:53Z</time>
      </trkpt>
      <trkpt lat="44.88235" lon="0.318">
        <ele>75.8</ele>
        <time>2022-04-05T10:40:54Z</time>
      </trkpt>
      <trkpt lat="44.88236" lon="0.318">
        <ele>75.9</ele>
        <time>2022-04-05T10:40:55Z</time>
      </trkpt>
      <trkpt lat="44.88237" lon="0.318">
        <ele>76</ele>
        <time>2022-04-05T10:40:56Z</time>
      </trkpt>
      <trkpt lat="44.88238" lon="0.318">
        <ele>76</ele>
        <time>2022-04-05T10:40:58Z</time>
      </trkpt>
      <trkpt lat="44.8824" lon="0.31799">
        <ele>76.1</ele>
        <time>2022-04-05T10:40:59Z</time>
      </trkpt>
      <trkpt lat="44.88241" lon="0.31799">
        <ele>76.1</ele>
        <time>2022-04-05T10:41:00Z</time>
      </trkpt>
      <trkpt lat="44.88242" lon="0.31799">
        <ele>76.1</ele>
        <time>2022-04-05T10:41:01Z</time>
      </trkpt>
      <trkpt lat="44.88243" lon="0.31799">
        <ele>76.2</ele>
        <time>2022-04-05T10:41:02Z</time>
      </trkpt>
      <trkpt lat="44.88245" lon="0.318">
        <ele>76.2</ele>
        <time>2022-04-05T10:41:03Z</time>
      </trkpt>
      <trkpt lat="44.88246" lon="0.318">
        <ele>76.3</ele>
        <time>2022-04-05T10:41:04Z</time>
      </trkpt>
      <trkpt lat="44.88247" lon="0.318">
        <ele>76.3</ele>
        <time>2022-04-05T10:41:05Z</time>
      </trkpt>
      <trkpt lat="44.88249" lon="0.31799">
        <ele>76.4</ele>
        <time>2022-04-05T10:41:06Z</time>
      </trkpt>
      <trkpt lat="44.8825" lon="0.31799">
        <ele>76.4</ele>
        <time>2022-04-05T10:41:08Z</time>
      </trkpt>
      <trkpt lat="44.8825" lon="0.31799">
        <ele>76.4</ele>
        <time>2022-04-05T10:41:09Z</time>
      </trkpt>
      <trkpt lat="44.88252" lon="0.31799">
        <ele>76.5</ele>
        <time>2022-04-05T10:41:10Z</time>
      </trkpt>
      <trkpt lat="44.88252" lon="0.31799">
        <ele>76.5</ele>
        <time>2022-04-05T10:41:11Z</time>
      </trkpt>
      <trkpt lat="44.88253" lon="0.31799">
        <ele>76.5</ele>
        <time>2022-04-05T10:41:12Z</time>
      </trkpt>
      <trkpt lat="44.88255" lon="0.31798">
        <ele>76.6</ele>
        <time>2022-04-05T10:41:13Z</time>
      </trkpt>
      <trkpt lat="44.88255" lon="0.31797">
        <ele>76.6</ele>
        <time>2022-04-05T10:41:14Z</time>
      </trkpt>
      <trkpt lat="44.88257" lon="0.31796">
        <ele>76.6</ele>
        <time>2022-04-05T10:41:16Z</time>
      </trkpt>
      <trkpt lat="44.88258" lon="0.31796">
        <ele>76.7</ele>
        <time>2022-04-05T10:41:17Z</time>
      </trkpt>
      <trkpt lat="44.88259" lon="0.31795">
        <ele>76.7</ele>
        <time>2022-04-05T10:41:18Z</time>
      </trkpt>
      <trkpt lat="44.8826" lon="0.31795">
        <ele>76.7</ele>
        <time>2022-04-05T10:41:19Z</time>
      </trkpt>
      <trkpt lat="44.88261" lon="0.31794">
        <ele>76.7</ele>
        <time>2022-04-05T10:41:20Z</time>
      </trkpt>
      <trkpt lat="44.88262" lon="0.31793">
        <ele>76.7</ele>
        <time>2022-04-05T10:41:21Z</time>
      </trkpt>
      <trkpt lat="44.88263" lon="0.31793">
        <ele>76.8</ele>
        <time>2022-04-05T10:41:22Z</time>
      </trkpt>
      <trkpt lat="44.88265" lon="0.31792">
        <ele>76.8</ele>
        <time>2022-04-05T10:41:23Z</time>
      </trkpt>
      <trkpt lat="44.88266" lon="0.31792">
        <ele>76.8</ele>
        <time>2022-04-05T10:41:25Z</time>
      </trkpt>
      <trkpt lat="44.88268" lon="0.31791">
        <ele>76.8</ele>
        <time>2022-04-05T10:41:26Z</time>
      </trkpt>
      <trkpt lat="44.8827" lon="0.3179">
        <ele>76.9</ele>
        <time>2022-04-05T10:41:27Z</time>
      </trkpt>
      <trkpt lat="44.88271" lon="0.31789">
        <ele>76.9</ele>
        <time>2022-04-05T10:41:28Z</time>
      </trkpt>
      <trkpt lat="44.88272" lon="0.31789">
        <ele>76.9</ele>
        <time>2022-04-05T10:41:30Z</time>
      </trkpt>
      <trkpt lat="44.88273" lon="0.31789">
        <ele>77</ele>
        <time>2022-04-05T10:41:31Z</time>
      </trkpt>
      <trkpt lat="44.88274" lon="0.31788">
        <ele>77</ele>
        <time>2022-04-05T10:41:32Z</time>
      </trkpt>
      <trkpt lat="44.88276" lon="0.31788">
        <ele>77</ele>
        <time>2022-04-05T10:41:33Z</time>
      </trkpt>
      <trkpt lat="44.88276" lon="0.31788">
        <ele>77</ele>
        <time>2022-04-05T10:41:34Z</time>
      </trkpt>
      <trkpt lat="44.88277" lon="0.31787">
        <ele>77</ele>
        <time>2022-04-05T10:41:35Z</time>
      </trkpt>
      <trkpt lat="44.88278" lon="0.31786">
        <ele>77</ele>
        <time>2022-04-05T10:41:36Z</time>
      </trkpt>
      <trkpt lat="44.88279" lon="0.31786">
        <ele>77.1</ele>
        <time>2022-04-05T10:41:37Z</time>
      </trkpt>
      <trkpt lat="44.8828" lon="0.31785">
        <ele>77.1</ele>
        <time>2022-04-05T10:41:38Z</time>
      </trkpt>
      <trkpt lat="44.88281" lon="0.31785">
        <ele>77.1</ele>
        <time>2022-04-05T10:41:39Z</time>
      </trkpt>
      <trkpt lat="44.88282" lon="0.31785">
        <ele>77.1</ele>
        <time>2022-04-05T10:41:40Z</time>
      </trkpt>
      <trkpt lat="44.88283" lon="0.31784">
        <ele>77.1</ele>
        <time>2022-04-05T10:41:41Z</time>
      </trkpt>
      <trkpt lat="44.88284" lon="0.31783">
        <ele>77.1</ele>
        <time>2022-04-05T10:41:42Z</time>
      </trkpt>
      <trkpt lat="44.88286" lon="0.31783">
        <ele>77.2</ele>
        <time>2022-04-05T10:41:44Z</time>
      </trkpt>
      <trkpt lat="44.88287" lon="0.31782">
        <ele>77.2</ele>
        <time>2022-04-05T10:41:45Z</time>
      </trkpt>
      <trkpt lat="44.88288" lon="0.31782">
        <ele>77.2</ele>
        <time>2022-04-05T10:41:46Z</time>
      </trkpt>
      <trkpt lat="44.88289" lon="0.31781">
        <ele>77.2</ele>
        <time>2022-04-05T10:41:47Z</time>
      </trkpt>
      <trkpt lat="44.88291" lon="0.3178">
        <ele>77.2</ele>
        <time>2022-04-05T10:41:48Z</time>
      </trkpt>
      <trkpt lat="44.88292" lon="0.3178">
        <ele>77.2</ele>
        <time>2022-04-05T10:41:49Z</time>
      </trkpt>
      <trkpt lat="44.88293" lon="0.3178">
        <ele>77.2</ele>
        <time>2022-04-05T10:41:50Z</time>
      </trkpt>
      <trkpt lat="44.88294" lon="0.31779">
        <ele>77.2</ele>
        <time>2022-04-05T10:41:51Z</time>
      </trkpt>
      <trkpt lat="44.88295" lon="0.31779">
        <ele>77.2</ele>
        <time>2022-04-05T10:41:52Z</time>
      </trkpt>
      <trkpt lat="44.88297" lon="0.31778">
        <ele>77.2</ele>
        <time>2022-04-05T10:41:54Z</time>
      </trkpt>
      <trkpt lat="44.88298" lon="0.31778">
        <ele>77.2</ele>
        <time>2022-04-05T10:41:55Z</time>
      </trkpt>
      <trkpt lat="44.88299" lon="0.31777">
        <ele>77.2</ele>
        <time>2022-04-05T10:41:56Z</time>
      </trkpt>
      <trkpt lat="44.883" lon="0.31777">
        <ele>77.2</ele>
        <time>2022-04-05T10:41:57Z</time>
      </trkpt>
      <trkpt lat="44.88302" lon="0.31776">
        <ele>77.3</ele>
        <time>2022-04-05T10:41:58Z</time>
      </trkpt>
      <trkpt lat="44.88302" lon="0.31776">
        <ele>77.3</ele>
        <time>2022-04-05T10:41:59Z</time>
      </trkpt>
      <trkpt lat="44.88303" lon="0.31776">
        <ele>77.3</ele>
        <time>2022-04-05T10:42:00Z</time>
      </trkpt>
      <trkpt lat="44.88304" lon="0.31776">
        <ele>77.3</ele>
        <time>2022-04-05T10:42:01Z</time>
      </trkpt>
      <trkpt lat="44.88305" lon="0.31776">
        <ele>77.3</ele>
        <time>2022-04-05T10:42:02Z</time>
      </trkpt>
      <trkpt lat="44.88307" lon="0.31774">
        <ele>77.2</ele>
        <time>2022-04-05T10:42:03Z</time>
      </trkpt>
      <trkpt lat="44.88308" lon="0.31774">
        <ele>77.2</ele>
        <time>2022-04-05T10:42:05Z</time>
      </trkpt>
      <trkpt lat="44.88309" lon="0.31773">
        <ele>77.2</ele>
        <time>2022-04-05T10:42:06Z</time>
      </trkpt>
      <trkpt lat="44.8831" lon="0.31772">
        <ele>77.2</ele>
        <time>2022-04-05T10:42:07Z</time>
      </trkpt>
      <trkpt lat="44.88311" lon="0.31771">
        <ele>77.2</ele>
        <time>2022-04-05T10:42:08Z</time>
      </trkpt>
      <trkpt lat="44.88313" lon="0.31769">
        <ele>77.2</ele>
        <time>2022-04-05T10:42:10Z</time>
      </trkpt>
      <trkpt lat="44.88314" lon="0.31768">
        <ele>77.2</ele>
        <time>2022-04-05T10:42:11Z</time>
      </trkpt>
      <trkpt lat="44.88314" lon="0.31768">
        <ele>77.2</ele>
        <time>2022-04-05T10:42:12Z</time>
      </trkpt>
      <trkpt lat="44.88316" lon="0.31767">
        <ele>77.2</ele>
        <time>2022-04-05T10:42:13Z</time>
      </trkpt>
      <trkpt lat="44.88317" lon="0.31767">
        <ele>77.2</ele>
        <time>2022-04-05T10:42:14Z</time>
      </trkpt>
      <trkpt lat="44.88319" lon="0.31766">
        <ele>77.2</ele>
        <time>2022-04-05T10:42:15Z</time>
      </trkpt>
      <trkpt lat="44.8832" lon="0.31766">
        <ele>77.2</ele>
        <time>2022-04-05T10:42:16Z</time>
      </trkpt>
      <trkpt lat="44.88321" lon="0.31766">
        <ele>77.2</ele>
        <time>2022-04-05T10:42:17Z</time>
      </trkpt>
      <trkpt lat="44.88323" lon="0.31765">
        <ele>77.2</ele>
        <time>2022-04-05T10:42:19Z</time>
      </trkpt>
      <trkpt lat="44.88324" lon="0.31765">
        <ele>77.2</ele>
        <time>2022-04-05T10:42:20Z</time>
      </trkpt>
      <trkpt lat="44.88324" lon="0.31765">
        <ele>77.1</ele>
        <time>2022-04-05T10:42:21Z</time>
      </trkpt>
      <trkpt lat="44.88326" lon="0.31764">
        <ele>77.1</ele>
        <time>2022-04-05T10:42:22Z</time>
      </trkpt>
      <trkpt lat="44.88328" lon="0.31763">
        <ele>77.1</ele>
        <time>2022-04-05T10:42:23Z</time>
      </trkpt>
      <trkpt lat="44.88328" lon="0.31764">
        <ele>77.1</ele>
        <time>2022-04-05T10:42:24Z</time>
      </trkpt>
      <trkpt lat="44.88329" lon="0.31764">
        <ele>77.1</ele>
        <time>2022-04-05T10:42:25Z</time>
      </trkpt>
      <trkpt lat="44.8833" lon="0.31764">
        <ele>77.1</ele>
        <time>2022-04-05T10:42:26Z</time>
      </trkpt>
      <trkpt lat="44.88331" lon="0.31763">
        <ele>77.1</ele>
        <time>2022-04-05T10:42:27Z</time>
      </trkpt>
      <trkpt lat="44.88333" lon="0.31763">
        <ele>77.1</ele>
        <time>2022-04-05T10:42:28Z</time>
      </trkpt>
      <trkpt lat="44.88334" lon="0.31763">
        <ele>77.1</ele>
        <time>2022-04-05T10:42:29Z</time>
      </trkpt>
      <trkpt lat="44.88336" lon="0.31763">
        <ele>77.1</ele>
        <time>2022-04-05T10:42:30Z</time>
      </trkpt>
      <trkpt lat="44.88337" lon="0.31763">
        <ele>77.1</ele>
        <time>2022-04-05T10:42:31Z</time>
      </trkpt>
      <trkpt lat="44.88338" lon="0.31763">
        <ele>77.1</ele>
        <time>2022-04-05T10:42:32Z</time>
      </trkpt>
      <trkpt lat="44.88339" lon="0.31762">
        <ele>77.1</ele>
        <time>2022-04-05T10:42:34Z</time>
      </trkpt>
      <trkpt lat="44.8834" lon="0.31762">
        <ele>77.1</ele>
        <time>2022-04-05T10:42:35Z</time>
      </trkpt>
      <trkpt lat="44.88342" lon="0.31761">
        <ele>77.1</ele>
        <time>2022-04-05T10:42:36Z</time>
      </trkpt>
      <trkpt lat="44.88343" lon="0.31761">
        <ele>77.1</ele>
        <time>2022-04-05T10:42:37Z</time>
      </trkpt>
      <trkpt lat="44.88344" lon="0.31761">
        <ele>77.1</ele>
        <time>2022-04-05T10:42:38Z</time>
      </trkpt>
      <trkpt lat="44.88345" lon="0.3176">
        <ele>77.1</ele>
        <time>2022-04-05T10:42:39Z</time>
      </trkpt>
      <trkpt lat="44.88346" lon="0.3176">
        <ele>77.1</ele>
        <time>2022-04-05T10:42:40Z</time>
      </trkpt>
      <trkpt lat="44.88347" lon="0.31759">
        <ele>77.1</ele>
        <time>2022-04-05T10:42:41Z</time>
      </trkpt>
      <trkpt lat="44.88348" lon="0.31759">
        <ele>77.1</ele>
        <time>2022-04-05T10:42:42Z</time>
      </trkpt>
      <trkpt lat="44.88349" lon="0.31758">
        <ele>77</ele>
        <time>2022-04-05T10:42:43Z</time>
      </trkpt>
      <trkpt lat="44.8835" lon="0.31758">
        <ele>77</ele>
        <time>2022-04-05T10:42:45Z</time>
      </trkpt>
      <trkpt lat="44.88351" lon="0.31758">
        <ele>77</ele>
        <time>2022-04-05T10:42:46Z</time>
      </trkpt>
      <trkpt lat="44.88352" lon="0.31757">
        <ele>77.1</ele>
        <time>2022-04-05T10:42:47Z</time>
      </trkpt>
      <trkpt lat="44.88353" lon="0.31756">
        <ele>77.1</ele>
        <time>2022-04-05T10:42:48Z</time>
      </trkpt>
      <trkpt lat="44.88356" lon="0.31756">
        <ele>77.1</ele>
        <time>2022-04-05T10:42:49Z</time>
      </trkpt>
      <trkpt lat="44.88356" lon="0.31755">
        <ele>77.1</ele>
        <time>2022-04-05T10:42:50Z</time>
      </trkpt>
      <trkpt lat="44.88357" lon="0.31755">
        <ele>77.1</ele>
        <time>2022-04-05T10:42:51Z</time>
      </trkpt>
      <trkpt lat="44.88358" lon="0.31755">
        <ele>77.1</ele>
        <time>2022-04-05T10:42:52Z</time>
      </trkpt>
      <trkpt lat="44.8836" lon="0.31755">
        <ele>77.1</ele>
        <time>2022-04-05T10:42:54Z</time>
      </trkpt>
      <trkpt lat="44.88361" lon="0.31755">
        <ele>77.1</ele>
        <time>2022-04-05T10:42:55Z</time>
      </trkpt>
      <trkpt lat="44.88362" lon="0.31754">
        <ele>77.1</ele>
        <time>2022-04-05T10:42:56Z</time>
      </trkpt>
      <trkpt lat="44.88363" lon="0.31754">
        <ele>77.1</ele>
        <time>2022-04-05T10:42:57Z</time>
      </trkpt>
      <trkpt lat="44.88366" lon="0.31754">
        <ele>77.1</ele>
        <time>2022-04-05T10:42:58Z</time>
      </trkpt>
      <trkpt lat="44.88366" lon="0.31754">
        <ele>77.1</ele>
        <time>2022-04-05T10:42:59Z</time>
      </trkpt>
      <trkpt lat="44.88367" lon="0.31754">
        <ele>77.2</ele>
        <time>2022-04-05T10:43:00Z</time>
      </trkpt>
      <trkpt lat="44.88369" lon="0.31754">
        <ele>77.2</ele>
        <time>2022-04-05T10:43:01Z</time>
      </trkpt>
      <trkpt lat="44.8837" lon="0.31754">
        <ele>77.2</ele>
        <time>2022-04-05T10:43:02Z</time>
      </trkpt>
      <trkpt lat="44.88371" lon="0.31754">
        <ele>77.3</ele>
        <time>2022-04-05T10:43:03Z</time>
      </trkpt>
      <trkpt lat="44.88372" lon="0.31754">
        <ele>77.3</ele>
        <time>2022-04-05T10:43:05Z</time>
      </trkpt>
      <trkpt lat="44.88373" lon="0.31754">
        <ele>77.3</ele>
        <time>2022-04-05T10:43:06Z</time>
      </trkpt>
      <trkpt lat="44.88374" lon="0.31754">
        <ele>77.3</ele>
        <time>2022-04-05T10:43:07Z</time>
      </trkpt>
      <trkpt lat="44.88375" lon="0.31754">
        <ele>77.3</ele>
        <time>2022-04-05T10:43:08Z</time>
      </trkpt>
      <trkpt lat="44.88376" lon="0.31754">
        <ele>77.4</ele>
        <time>2022-04-05T10:43:09Z</time>
      </trkpt>
      <trkpt lat="44.88377" lon="0.31754">
        <ele>77.4</ele>
        <time>2022-04-05T10:43:10Z</time>
      </trkpt>
      <trkpt lat="44.88378" lon="0.31753">
        <ele>77.4</ele>
        <time>2022-04-05T10:43:11Z</time>
      </trkpt>
      <trkpt lat="44.88379" lon="0.31753">
        <ele>77.6</ele>
        <time>2022-04-05T10:43:12Z</time>
      </trkpt>
      <trkpt lat="44.88381" lon="0.31753">
        <ele>77.8</ele>
        <time>2022-04-05T10:43:13Z</time>
      </trkpt>
      <trkpt lat="44.88381" lon="0.31752">
        <ele>77.8</ele>
        <time>2022-04-05T10:43:15Z</time>
      </trkpt>
      <trkpt lat="44.88383" lon="0.31752">
        <ele>77.9</ele>
        <time>2022-04-05T10:43:16Z</time>
      </trkpt>
      <trkpt lat="44.88384" lon="0.31751">
        <ele>77.9</ele>
        <time>2022-04-05T10:43:17Z</time>
      </trkpt>
      <trkpt lat="44.88386" lon="0.31751">
        <ele>78</ele>
        <time>2022-04-05T10:43:18Z</time>
      </trkpt>
      <trkpt lat="44.88387" lon="0.31751">
        <ele>78</ele>
        <time>2022-04-05T10:43:19Z</time>
      </trkpt>
      <trkpt lat="44.88388" lon="0.3175">
        <ele>77.9</ele>
        <time>2022-04-05T10:43:21Z</time>
      </trkpt>
      <trkpt lat="44.88389" lon="0.3175">
        <ele>78.1</ele>
        <time>2022-04-05T10:43:22Z</time>
      </trkpt>
      <trkpt lat="44.88391" lon="0.31749">
        <ele>78.1</ele>
        <time>2022-04-05T10:43:24Z</time>
      </trkpt>
      <trkpt lat="44.88392" lon="0.31749">
        <ele>78.5</ele>
        <time>2022-04-05T10:43:25Z</time>
      </trkpt>
      <trkpt lat="44.88392" lon="0.31749">
        <ele>78.4</ele>
        <time>2022-04-05T10:43:26Z</time>
      </trkpt>
      <trkpt lat="44.88394" lon="0.31748">
        <ele>78.4</ele>
        <time>2022-04-05T10:43:27Z</time>
      </trkpt>
      <trkpt lat="44.88396" lon="0.31749">
        <ele>78.6</ele>
        <time>2022-04-05T10:43:28Z</time>
      </trkpt>
      <trkpt lat="44.88396" lon="0.31749">
        <ele>78.3</ele>
        <time>2022-04-05T10:43:29Z</time>
      </trkpt>
      <trkpt lat="44.88397" lon="0.3175">
        <ele>78.3</ele>
        <time>2022-04-05T10:43:30Z</time>
      </trkpt>
      <trkpt lat="44.88399" lon="0.3175">
        <ele>78.4</ele>
        <time>2022-04-05T10:43:32Z</time>
      </trkpt>
      <trkpt lat="44.884" lon="0.3175">
        <ele>78.4</ele>
        <time>2022-04-05T10:43:33Z</time>
      </trkpt>
      <trkpt lat="44.88401" lon="0.31749">
        <ele>78.6</ele>
        <time>2022-04-05T10:43:34Z</time>
      </trkpt>
      <trkpt lat="44.88402" lon="0.31749">
        <ele>78.5</ele>
        <time>2022-04-05T10:43:35Z</time>
      </trkpt>
      <trkpt lat="44.88403" lon="0.31748">
        <ele>78.7</ele>
        <time>2022-04-05T10:43:36Z</time>
      </trkpt>
      <trkpt lat="44.88404" lon="0.31747">
        <ele>78.9</ele>
        <time>2022-04-05T10:43:37Z</time>
      </trkpt>
      <trkpt lat="44.88406" lon="0.31747">
        <ele>78.8</ele>
        <time>2022-04-05T10:43:38Z</time>
      </trkpt>
      <trkpt lat="44.88407" lon="0.31746">
        <ele>79.1</ele>
        <time>2022-04-05T10:43:39Z</time>
      </trkpt>
      <trkpt lat="44.88408" lon="0.31746">
        <ele>79</ele>
        <time>2022-04-05T10:43:40Z</time>
      </trkpt>
      <trkpt lat="44.88409" lon="0.31745">
        <ele>79</ele>
        <time>2022-04-05T10:43:41Z</time>
      </trkpt>
      <trkpt lat="44.8841" lon="0.31745">
        <ele>79.1</ele>
        <time>2022-04-05T10:43:43Z</time>
      </trkpt>
      <trkpt lat="44.88412" lon="0.31745">
        <ele>79.1</ele>
        <time>2022-04-05T10:43:44Z</time>
      </trkpt>
      <trkpt lat="44.88413" lon="0.31745">
        <ele>79.3</ele>
        <time>2022-04-05T10:43:45Z</time>
      </trkpt>
      <trkpt lat="44.88414" lon="0.31745">
        <ele>79.3</ele>
        <time>2022-04-05T10:43:46Z</time>
      </trkpt>
      <trkpt lat="44.88415" lon="0.31745">
        <ele>79.2</ele>
        <time>2022-04-05T10:43:47Z</time>
      </trkpt>
      <trkpt lat="44.88417" lon="0.31745">
        <ele>79.4</ele>
        <time>2022-04-05T10:43:48Z</time>
      </trkpt>
      <trkpt lat="44.88418" lon="0.31745">
        <ele>79.4</ele>
        <time>2022-04-05T10:43:49Z</time>
      </trkpt>
      <trkpt lat="44.88419" lon="0.31745">
        <ele>79.6</ele>
        <time>2022-04-05T10:43:50Z</time>
      </trkpt>
      <trkpt lat="44.8842" lon="0.31745">
        <ele>79.5</ele>
        <time>2022-04-05T10:43:51Z</time>
      </trkpt>
      <trkpt lat="44.88421" lon="0.31744">
        <ele>79.7</ele>
        <time>2022-04-05T10:43:52Z</time>
      </trkpt>
      <trkpt lat="44.88423" lon="0.31744">
        <ele>79.9</ele>
        <time>2022-04-05T10:43:54Z</time>
      </trkpt>
      <trkpt lat="44.88424" lon="0.31743">
        <ele>79.9</ele>
        <time>2022-04-05T10:43:55Z</time>
      </trkpt>
      <trkpt lat="44.88424" lon="0.31743">
        <ele>79.8</ele>
        <time>2022-04-05T10:43:56Z</time>
      </trkpt>
      <trkpt lat="44.88427" lon="0.31743">
        <ele>80</ele>
        <time>2022-04-05T10:43:57Z</time>
      </trkpt>
      <trkpt lat="44.88427" lon="0.31742">
        <ele>79.9</ele>
        <time>2022-04-05T10:43:58Z</time>
      </trkpt>
      <trkpt lat="44.88428" lon="0.31742">
        <ele>80.1</ele>
        <time>2022-04-05T10:43:59Z</time>
      </trkpt>
      <trkpt lat="44.8843" lon="0.31742">
        <ele>80</ele>
        <time>2022-04-05T10:44:00Z</time>
      </trkpt>
      <trkpt lat="44.88431" lon="0.31741">
        <ele>80</ele>
        <time>2022-04-05T10:44:01Z</time>
      </trkpt>
      <trkpt lat="44.88431" lon="0.31741">
        <ele>80.1</ele>
        <time>2022-04-05T10:44:02Z</time>
      </trkpt>
      <trkpt lat="44.88434" lon="0.3174">
        <ele>80.3</ele>
        <time>2022-04-05T10:44:04Z</time>
      </trkpt>
      <trkpt lat="44.88435" lon="0.3174">
        <ele>80.3</ele>
        <time>2022-04-05T10:44:05Z</time>
      </trkpt>
      <trkpt lat="44.88436" lon="0.3174">
        <ele>80.3</ele>
        <time>2022-04-05T10:44:06Z</time>
      </trkpt>
      <trkpt lat="44.88437" lon="0.31739">
        <ele>80.4</ele>
        <time>2022-04-05T10:44:07Z</time>
      </trkpt>
      <trkpt lat="44.88438" lon="0.31738">
        <ele>80.4</ele>
        <time>2022-04-05T10:44:09Z</time>
      </trkpt>
      <trkpt lat="44.88439" lon="0.31738">
        <ele>80.3</ele>
        <time>2022-04-05T10:44:10Z</time>
      </trkpt>
      <trkpt lat="44.8844" lon="0.31738">
        <ele>80.4</ele>
        <time>2022-04-05T10:44:11Z</time>
      </trkpt>
      <trkpt lat="44.88441" lon="0.31738">
        <ele>80.4</ele>
        <time>2022-04-05T10:44:12Z</time>
      </trkpt>
      <trkpt lat="44.88443" lon="0.31739">
        <ele>80.5</ele>
        <time>2022-04-05T10:44:13Z</time>
      </trkpt>
      <trkpt lat="44.88444" lon="0.31738">
        <ele>80.4</ele>
        <time>2022-04-05T10:44:14Z</time>
      </trkpt>
      <trkpt lat="44.88445" lon="0.31738">
        <ele>80.4</ele>
        <time>2022-04-05T10:44:15Z</time>
      </trkpt>
      <trkpt lat="44.88446" lon="0.31738">
        <ele>80.5</ele>
        <time>2022-04-05T10:44:16Z</time>
      </trkpt>
      <trkpt lat="44.88448" lon="0.31738">
        <ele>80.4</ele>
        <time>2022-04-05T10:44:17Z</time>
      </trkpt>
      <trkpt lat="44.8845" lon="0.31738">
        <ele>80.5</ele>
        <time>2022-04-05T10:44:19Z</time>
      </trkpt>
      <trkpt lat="44.8845" lon="0.31737">
        <ele>80.5</ele>
        <time>2022-04-05T10:44:20Z</time>
      </trkpt>
      <trkpt lat="44.88451" lon="0.31737">
        <ele>80.4</ele>
        <time>2022-04-05T10:44:21Z</time>
      </trkpt>
      <trkpt lat="44.88453" lon="0.31737">
        <ele>80.5</ele>
        <time>2022-04-05T10:44:22Z</time>
      </trkpt>
      <trkpt lat="44.88454" lon="0.31737">
        <ele>80.4</ele>
        <time>2022-04-05T10:44:23Z</time>
      </trkpt>
      <trkpt lat="44.88456" lon="0.31736">
        <ele>80.6</ele>
        <time>2022-04-05T10:44:24Z</time>
      </trkpt>
      <trkpt lat="44.88457" lon="0.31736">
        <ele>80.5</ele>
        <time>2022-04-05T10:44:25Z</time>
      </trkpt>
      <trkpt lat="44.88457" lon="0.31736">
        <ele>80.4</ele>
        <time>2022-04-05T10:44:26Z</time>
      </trkpt>
      <trkpt lat="44.88458" lon="0.31736">
        <ele>80.5</ele>
        <time>2022-04-05T10:44:27Z</time>
      </trkpt>
      <trkpt lat="44.88461" lon="0.31735">
        <ele>80.4</ele>
        <time>2022-04-05T10:44:28Z</time>
      </trkpt>
      <trkpt lat="44.88461" lon="0.31735">
        <ele>80.5</ele>
        <time>2022-04-05T10:44:30Z</time>
      </trkpt>
      <trkpt lat="44.88462" lon="0.31735">
        <ele>80.5</ele>
        <time>2022-04-05T10:44:31Z</time>
      </trkpt>
      <trkpt lat="44.88463" lon="0.31734">
        <ele>80.4</ele>
        <time>2022-04-05T10:44:32Z</time>
      </trkpt>
      <trkpt lat="44.88464" lon="0.31734">
        <ele>80.4</ele>
        <time>2022-04-05T10:44:33Z</time>
      </trkpt>
      <trkpt lat="44.88466" lon="0.31733">
        <ele>80.4</ele>
        <time>2022-04-05T10:44:34Z</time>
      </trkpt>
      <trkpt lat="44.88467" lon="0.31733">
        <ele>80.4</ele>
        <time>2022-04-05T10:44:35Z</time>
      </trkpt>
      <trkpt lat="44.88468" lon="0.31733">
        <ele>80.5</ele>
        <time>2022-04-05T10:44:36Z</time>
      </trkpt>
      <trkpt lat="44.88469" lon="0.31733">
        <ele>80.5</ele>
        <time>2022-04-05T10:44:37Z</time>
      </trkpt>
      <trkpt lat="44.88471" lon="0.31732">
        <ele>80.5</ele>
        <time>2022-04-05T10:44:39Z</time>
      </trkpt>
      <trkpt lat="44.88472" lon="0.31732">
        <ele>80.4</ele>
        <time>2022-04-05T10:44:40Z</time>
      </trkpt>
      <trkpt lat="44.88473" lon="0.31731">
        <ele>80.4</ele>
        <time>2022-04-05T10:44:41Z</time>
      </trkpt>
      <trkpt lat="44.88474" lon="0.31731">
        <ele>80.5</ele>
        <time>2022-04-05T10:44:42Z</time>
      </trkpt>
      <trkpt lat="44.88475" lon="0.3173">
        <ele>80.4</ele>
        <time>2022-04-05T10:44:43Z</time>
      </trkpt>
      <trkpt lat="44.88477" lon="0.3173">
        <ele>80.5</ele>
        <time>2022-04-05T10:44:44Z</time>
      </trkpt>
      <trkpt lat="44.88478" lon="0.3173">
        <ele>80.4</ele>
        <time>2022-04-05T10:44:45Z</time>
      </trkpt>
      <trkpt lat="44.88479" lon="0.31731">
        <ele>80.4</ele>
        <time>2022-04-05T10:44:46Z</time>
      </trkpt>
      <trkpt lat="44.8848" lon="0.31731">
        <ele>80.5</ele>
        <time>2022-04-05T10:44:47Z</time>
      </trkpt>
      <trkpt lat="44.88483" lon="0.31731">
        <ele>80.6</ele>
        <time>2022-04-05T10:44:48Z</time>
      </trkpt>
      <trkpt lat="44.88483" lon="0.31731">
        <ele>80.5</ele>
        <time>2022-04-05T10:44:49Z</time>
      </trkpt>
      <trkpt lat="44.88484" lon="0.3173">
        <ele>80.5</ele>
        <time>2022-04-05T10:44:51Z</time>
      </trkpt>
      <trkpt lat="44.88486" lon="0.3173">
        <ele>80.5</ele>
        <time>2022-04-05T10:44:52Z</time>
      </trkpt>
      <trkpt lat="44.88487" lon="0.31729">
        <ele>80.5</ele>
        <time>2022-04-05T10:44:53Z</time>
      </trkpt>
      <trkpt lat="44.88488" lon="0.31729">
        <ele>80.4</ele>
        <time>2022-04-05T10:44:54Z</time>
      </trkpt>
      <trkpt lat="44.88487" lon="0.31728">
        <ele>80.4</ele>
        <time>2022-04-05T10:44:55Z</time>
      </trkpt>
      <trkpt lat="44.88487" lon="0.31727">
        <ele>80.2</ele>
        <time>2022-04-05T10:44:56Z</time>
      </trkpt>
      <trkpt lat="44.88487" lon="0.31727">
        <ele>80.1</ele>
        <time>2022-04-05T10:44:57Z</time>
      </trkpt>
      <trkpt lat="44.88487" lon="0.31726">
        <ele>80.1</ele>
        <time>2022-04-05T10:44:58Z</time>
      </trkpt>
      <trkpt lat="44.88488" lon="0.31724">
        <ele>80</ele>
        <time>2022-04-05T10:44:59Z</time>
      </trkpt>
      <trkpt lat="44.88489" lon="0.31724">
        <ele>80.1</ele>
        <time>2022-04-05T10:45:00Z</time>
      </trkpt>
      <trkpt lat="44.88491" lon="0.31724">
        <ele>80.1</ele>
        <time>2022-04-05T10:45:01Z</time>
      </trkpt>
      <trkpt lat="44.88494" lon="0.31725">
        <ele>80.1</ele>
        <time>2022-04-05T10:45:02Z</time>
      </trkpt>
      <trkpt lat="44.88495" lon="0.31725">
        <ele>80.3</ele>
        <time>2022-04-05T10:45:03Z</time>
      </trkpt>
      <trkpt lat="44.88497" lon="0.31727">
        <ele>80.2</ele>
        <time>2022-04-05T10:45:04Z</time>
      </trkpt>
      <trkpt lat="44.88497" lon="0.31727">
        <ele>80.1</ele>
        <time>2022-04-05T10:45:06Z</time>
      </trkpt>
      <trkpt lat="44.88498" lon="0.31728">
        <ele>80.3</ele>
        <time>2022-04-05T10:45:07Z</time>
      </trkpt>
      <trkpt lat="44.88499" lon="0.31728">
        <ele>80.3</ele>
        <time>2022-04-05T10:45:08Z</time>
      </trkpt>
      <trkpt lat="44.88502" lon="0.31729">
        <ele>80.3</ele>
        <time>2022-04-05T10:45:09Z</time>
      </trkpt>
      <trkpt lat="44.88502" lon="0.31729">
        <ele>80.3</ele>
        <time>2022-04-05T10:45:10Z</time>
      </trkpt>
      <trkpt lat="44.88503" lon="0.31729">
        <ele>80.3</ele>
        <time>2022-04-05T10:45:11Z</time>
      </trkpt>
      <trkpt lat="44.88505" lon="0.3173">
        <ele>80.5</ele>
        <time>2022-04-05T10:45:12Z</time>
      </trkpt>
      <trkpt lat="44.88506" lon="0.3173">
        <ele>80.5</ele>
        <time>2022-04-05T10:45:13Z</time>
      </trkpt>
      <trkpt lat="44.88507" lon="0.31731">
        <ele>80.6</ele>
        <time>2022-04-05T10:45:14Z</time>
      </trkpt>
      <trkpt lat="44.88508" lon="0.31732">
        <ele>80.7</ele>
        <time>2022-04-05T10:45:16Z</time>
      </trkpt>
      <trkpt lat="44.8851" lon="0.31732">
        <ele>80.8</ele>
        <time>2022-04-05T10:45:17Z</time>
      </trkpt>
      <trkpt lat="44.8851" lon="0.31732">
        <ele>80.8</ele>
        <time>2022-04-05T10:45:18Z</time>
      </trkpt>
      <trkpt lat="44.88511" lon="0.31731">
        <ele>80.7</ele>
        <time>2022-04-05T10:45:19Z</time>
      </trkpt>
      <trkpt lat="44.88511" lon="0.31731">
        <ele>80.7</ele>
        <time>2022-04-05T10:45:20Z</time>
      </trkpt>
      <trkpt lat="44.88511" lon="0.31731">
        <ele>80.7</ele>
        <time>2022-04-05T10:45:21Z</time>
      </trkpt>
      <trkpt lat="44.88511" lon="0.31731">
        <ele>80.7</ele>
        <time>2022-04-05T10:45:22Z</time>
      </trkpt>
      <trkpt lat="44.88513" lon="0.31733">
        <ele>80.8</ele>
        <time>2022-04-05T10:45:23Z</time>
      </trkpt>
      <trkpt lat="44.88513" lon="0.31734">
        <ele>81</ele>
        <time>2022-04-05T10:45:25Z</time>
      </trkpt>
      <trkpt lat="44.88514" lon="0.31735">
        <ele>81</ele>
        <time>2022-04-05T10:45:26Z</time>
      </trkpt>
      <trkpt lat="44.88514" lon="0.31736">
        <ele>81.1</ele>
        <time>2022-04-05T10:45:27Z</time>
      </trkpt>
      <trkpt lat="44.88516" lon="0.31737">
        <ele>81.1</ele>
        <time>2022-04-05T10:45:28Z</time>
      </trkpt>
      <trkpt lat="44.88517" lon="0.31737">
        <ele>81.2</ele>
        <time>2022-04-05T10:45:29Z</time>
      </trkpt>
      <trkpt lat="44.88517" lon="0.31737">
        <ele>81.2</ele>
        <time>2022-04-05T10:45:30Z</time>
      </trkpt>
      <trkpt lat="44.88518" lon="0.31738">
        <ele>81.2</ele>
        <time>2022-04-05T10:45:31Z</time>
      </trkpt>
      <trkpt lat="44.88519" lon="0.31739">
        <ele>81.4</ele>
        <time>2022-04-05T10:45:32Z</time>
      </trkpt>
      <trkpt lat="44.8852" lon="0.31739">
        <ele>81.4</ele>
        <time>2022-04-05T10:45:33Z</time>
      </trkpt>
      <trkpt lat="44.88522" lon="0.3174">
        <ele>81.5</ele>
        <time>2022-04-05T10:45:34Z</time>
      </trkpt>
      <trkpt lat="44.88522" lon="0.3174">
        <ele>81.5</ele>
        <time>2022-04-05T10:45:35Z</time>
      </trkpt>
      <trkpt lat="44.88524" lon="0.3174">
        <ele>81.5</ele>
        <time>2022-04-05T10:45:37Z</time>
      </trkpt>
      <trkpt lat="44.88525" lon="0.3174">
        <ele>81.6</ele>
        <time>2022-04-05T10:45:38Z</time>
      </trkpt>
      <trkpt lat="44.88526" lon="0.31741">
        <ele>81.8</ele>
        <time>2022-04-05T10:45:39Z</time>
      </trkpt>
      <trkpt lat="44.88527" lon="0.31741">
        <ele>81.8</ele>
        <time>2022-04-05T10:45:40Z</time>
      </trkpt>
      <trkpt lat="44.88528" lon="0.31741">
        <ele>81.8</ele>
        <time>2022-04-05T10:45:41Z</time>
      </trkpt>
      <trkpt lat="44.88529" lon="0.31742">
        <ele>82</ele>
        <time>2022-04-05T10:45:42Z</time>
      </trkpt>
      <trkpt lat="44.88531" lon="0.31742">
        <ele>82</ele>
        <time>2022-04-05T10:45:44Z</time>
      </trkpt>
      <trkpt lat="44.88531" lon="0.31743">
        <ele>82.2</ele>
        <time>2022-04-05T10:45:45Z</time>
      </trkpt>
      <trkpt lat="44.88533" lon="0.31743">
        <ele>82.2</ele>
        <time>2022-04-05T10:45:46Z</time>
      </trkpt>
      <trkpt lat="44.88533" lon="0.31743">
        <ele>82.2</ele>
        <time>2022-04-05T10:45:47Z</time>
      </trkpt>
      <trkpt lat="44.88535" lon="0.31744">
        <ele>82.4</ele>
        <time>2022-04-05T10:45:48Z</time>
      </trkpt>
      <trkpt lat="44.88536" lon="0.31744">
        <ele>82.5</ele>
        <time>2022-04-05T10:45:50Z</time>
      </trkpt>
      <trkpt lat="44.88537" lon="0.31745">
        <ele>82.5</ele>
        <time>2022-04-05T10:45:51Z</time>
      </trkpt>
      <trkpt lat="44.88538" lon="0.31745">
        <ele>82.7</ele>
        <time>2022-04-05T10:45:52Z</time>
      </trkpt>
      <trkpt lat="44.88539" lon="0.31746">
        <ele>82.7</ele>
        <time>2022-04-05T10:45:53Z</time>
      </trkpt>
      <trkpt lat="44.8854" lon="0.31747">
        <ele>83</ele>
        <time>2022-04-05T10:45:54Z</time>
      </trkpt>
      <trkpt lat="44.88541" lon="0.31747">
        <ele>83</ele>
        <time>2022-04-05T10:45:55Z</time>
      </trkpt>
      <trkpt lat="44.88542" lon="0.31747">
        <ele>83</ele>
        <time>2022-04-05T10:45:56Z</time>
      </trkpt>
      <trkpt lat="44.88543" lon="0.31748">
        <ele>83.2</ele>
        <time>2022-04-05T10:45:57Z</time>
      </trkpt>
      <trkpt lat="44.88544" lon="0.31749">
        <ele>83.3</ele>
        <time>2022-04-05T10:45:58Z</time>
      </trkpt>
      <trkpt lat="44.88545" lon="0.3175">
        <ele>83.3</ele>
        <time>2022-04-05T10:45:59Z</time>
      </trkpt>
      <trkpt lat="44.88546" lon="0.31751">
        <ele>83.3</ele>
        <time>2022-04-05T10:46:00Z</time>
      </trkpt>
      <trkpt lat="44.88547" lon="0.31751">
        <ele>83.5</ele>
        <time>2022-04-05T10:46:01Z</time>
      </trkpt>
      <trkpt lat="44.88548" lon="0.31752">
        <ele>83.5</ele>
        <time>2022-04-05T10:46:02Z</time>
      </trkpt>
      <trkpt lat="44.88548" lon="0.31753">
        <ele>83.5</ele>
        <time>2022-04-05T10:46:03Z</time>
      </trkpt>
      <trkpt lat="44.8855" lon="0.31753">
        <ele>84</ele>
        <time>2022-04-05T10:46:04Z</time>
      </trkpt>
      <trkpt lat="44.8855" lon="0.31753">
        <ele>84</ele>
        <time>2022-04-05T10:46:06Z</time>
      </trkpt>
      <trkpt lat="44.88552" lon="0.31754">
        <ele>84</ele>
        <time>2022-04-05T10:46:07Z</time>
      </trkpt>
      <trkpt lat="44.88553" lon="0.31755">
        <ele>84.3</ele>
        <time>2022-04-05T10:46:08Z</time>
      </trkpt>
      <trkpt lat="44.88555" lon="0.31756">
        <ele>84.3</ele>
        <time>2022-04-05T10:46:09Z</time>
      </trkpt>
      <trkpt lat="44.88555" lon="0.31756">
        <ele>84.3</ele>
        <time>2022-04-05T10:46:10Z</time>
      </trkpt>
      <trkpt lat="44.88556" lon="0.31756">
        <ele>84.6</ele>
        <time>2022-04-05T10:46:11Z</time>
      </trkpt>
      <trkpt lat="44.88557" lon="0.31757">
        <ele>84.6</ele>
        <time>2022-04-05T10:46:12Z</time>
      </trkpt>
      <trkpt lat="44.88558" lon="0.31757">
        <ele>84.9</ele>
        <time>2022-04-05T10:46:13Z</time>
      </trkpt>
      <trkpt lat="44.8856" lon="0.31757">
        <ele>84.9</ele>
        <time>2022-04-05T10:46:14Z</time>
      </trkpt>
      <trkpt lat="44.88561" lon="0.31757">
        <ele>84.9</ele>
        <time>2022-04-05T10:46:15Z</time>
      </trkpt>
      <trkpt lat="44.88563" lon="0.31758">
        <ele>85.4</ele>
        <time>2022-04-05T10:46:16Z</time>
      </trkpt>
      <trkpt lat="44.88564" lon="0.31758">
        <ele>85.4</ele>
        <time>2022-04-05T10:46:18Z</time>
      </trkpt>
      <trkpt lat="44.88565" lon="0.31759">
        <ele>85.7</ele>
        <time>2022-04-05T10:46:19Z</time>
      </trkpt>
      <trkpt lat="44.88566" lon="0.31759">
        <ele>85.7</ele>
        <time>2022-04-05T10:46:20Z</time>
      </trkpt>
      <trkpt lat="44.88567" lon="0.3176">
        <ele>85.7</ele>
        <time>2022-04-05T10:46:21Z</time>
      </trkpt>
      <trkpt lat="44.88568" lon="0.3176">
        <ele>85.9</ele>
        <time>2022-04-05T10:46:22Z</time>
      </trkpt>
      <trkpt lat="44.88571" lon="0.31761">
        <ele>86.2</ele>
        <time>2022-04-05T10:46:23Z</time>
      </trkpt>
      <trkpt lat="44.88572" lon="0.31762">
        <ele>86.3</ele>
        <time>2022-04-05T10:46:24Z</time>
      </trkpt>
      <trkpt lat="44.88572" lon="0.31762">
        <ele>86.3</ele>
        <time>2022-04-05T10:46:25Z</time>
      </trkpt>
      <trkpt lat="44.88573" lon="0.31762">
        <ele>86.3</ele>
        <time>2022-04-05T10:46:26Z</time>
      </trkpt>
      <trkpt lat="44.88574" lon="0.31763">
        <ele>86.6</ele>
        <time>2022-04-05T10:46:27Z</time>
      </trkpt>
      <trkpt lat="44.88575" lon="0.31764">
        <ele>86.6</ele>
        <time>2022-04-05T10:46:29Z</time>
      </trkpt>
      <trkpt lat="44.88578" lon="0.31765">
        <ele>86.8</ele>
        <time>2022-04-05T10:46:30Z</time>
      </trkpt>
      <trkpt lat="44.88578" lon="0.31765">
        <ele>86.8</ele>
        <time>2022-04-05T10:46:31Z</time>
      </trkpt>
      <trkpt lat="44.88579" lon="0.31765">
        <ele>86.8</ele>
        <time>2022-04-05T10:46:32Z</time>
      </trkpt>
      <trkpt lat="44.8858" lon="0.31766">
        <ele>87.1</ele>
        <time>2022-04-05T10:46:33Z</time>
      </trkpt>
      <trkpt lat="44.88582" lon="0.31766">
        <ele>87.2</ele>
        <time>2022-04-05T10:46:34Z</time>
      </trkpt>
      <trkpt lat="44.88582" lon="0.31767">
        <ele>87.2</ele>
        <time>2022-04-05T10:46:35Z</time>
      </trkpt>
      <trkpt lat="44.88583" lon="0.31767">
        <ele>87.5</ele>
        <time>2022-04-05T10:46:36Z</time>
      </trkpt>
      <trkpt lat="44.88585" lon="0.31768">
        <ele>87.5</ele>
        <time>2022-04-05T10:46:38Z</time>
      </trkpt>
      <trkpt lat="44.88586" lon="0.31769">
        <ele>87.7</ele>
        <time>2022-04-05T10:46:39Z</time>
      </trkpt>
      <trkpt lat="44.88587" lon="0.3177">
        <ele>87.7</ele>
        <time>2022-04-05T10:46:40Z</time>
      </trkpt>
      <trkpt lat="44.88589" lon="0.31771">
        <ele>88</ele>
        <time>2022-04-05T10:46:42Z</time>
      </trkpt>
      <trkpt lat="44.8859" lon="0.31772">
        <ele>88</ele>
        <time>2022-04-05T10:46:43Z</time>
      </trkpt>
      <trkpt lat="44.88591" lon="0.31773">
        <ele>88</ele>
        <time>2022-04-05T10:46:44Z</time>
      </trkpt>
      <trkpt lat="44.88592" lon="0.31773">
        <ele>88</ele>
        <time>2022-04-05T10:46:45Z</time>
      </trkpt>
      <trkpt lat="44.88593" lon="0.31773">
        <ele>88.3</ele>
        <time>2022-04-05T10:46:46Z</time>
      </trkpt>
      <trkpt lat="44.88594" lon="0.31773">
        <ele>88.3</ele>
        <time>2022-04-05T10:46:47Z</time>
      </trkpt>
      <trkpt lat="44.88596" lon="0.31773">
        <ele>88.5</ele>
        <time>2022-04-05T10:46:48Z</time>
      </trkpt>
      <trkpt lat="44.88596" lon="0.31774">
        <ele>88.5</ele>
        <time>2022-04-05T10:46:49Z</time>
      </trkpt>
      <trkpt lat="44.88597" lon="0.31774">
        <ele>88.5</ele>
        <time>2022-04-05T10:46:50Z</time>
      </trkpt>
      <trkpt lat="44.88599" lon="0.31776">
        <ele>88.9</ele>
        <time>2022-04-05T10:46:52Z</time>
      </trkpt>
      <trkpt lat="44.886" lon="0.31777">
        <ele>88.9</ele>
        <time>2022-04-05T10:46:53Z</time>
      </trkpt>
      <trkpt lat="44.88601" lon="0.31777">
        <ele>89.2</ele>
        <time>2022-04-05T10:46:54Z</time>
      </trkpt>
      <trkpt lat="44.88602" lon="0.31778">
        <ele>89.2</ele>
        <time>2022-04-05T10:46:55Z</time>
      </trkpt>
      <trkpt lat="44.88603" lon="0.31779">
        <ele>89.2</ele>
        <time>2022-04-05T10:46:57Z</time>
      </trkpt>
      <trkpt lat="44.88605" lon="0.31779">
        <ele>89.6</ele>
        <time>2022-04-05T10:46:58Z</time>
      </trkpt>
      <trkpt lat="44.88606" lon="0.3178">
        <ele>89.6</ele>
        <time>2022-04-05T10:46:59Z</time>
      </trkpt>
      <trkpt lat="44.88607" lon="0.3178">
        <ele>89.9</ele>
        <time>2022-04-05T10:47:00Z</time>
      </trkpt>
      <trkpt lat="44.88608" lon="0.3178">
        <ele>89.9</ele>
        <time>2022-04-05T10:47:01Z</time>
      </trkpt>
      <trkpt lat="44.88609" lon="0.31781">
        <ele>89.9</ele>
        <time>2022-04-05T10:47:02Z</time>
      </trkpt>
      <trkpt lat="44.8861" lon="0.31781">
        <ele>89.9</ele>
        <time>2022-04-05T10:47:03Z</time>
      </trkpt>
      <trkpt lat="44.88611" lon="0.31782">
        <ele>90.2</ele>
        <time>2022-04-05T10:47:05Z</time>
      </trkpt>
      <trkpt lat="44.88613" lon="0.31783">
        <ele>90.2</ele>
        <time>2022-04-05T10:47:06Z</time>
      </trkpt>
      <trkpt lat="44.88613" lon="0.31783">
        <ele>90.5</ele>
        <time>2022-04-05T10:47:07Z</time>
      </trkpt>
      <trkpt lat="44.88615" lon="0.31783">
        <ele>90.7</ele>
        <time>2022-04-05T10:47:08Z</time>
      </trkpt>
      <trkpt lat="44.88617" lon="0.31784">
        <ele>91</ele>
        <time>2022-04-05T10:47:09Z</time>
      </trkpt>
      <trkpt lat="44.88617" lon="0.31784">
        <ele>91</ele>
        <time>2022-04-05T10:47:10Z</time>
      </trkpt>
      <trkpt lat="44.88618" lon="0.31785">
        <ele>91</ele>
        <time>2022-04-05T10:47:11Z</time>
      </trkpt>
      <trkpt lat="44.88619" lon="0.31785">
        <ele>91</ele>
        <time>2022-04-05T10:47:12Z</time>
      </trkpt>
      <trkpt lat="44.8862" lon="0.31785">
        <ele>91.3</ele>
        <time>2022-04-05T10:47:13Z</time>
      </trkpt>
      <trkpt lat="44.88622" lon="0.31785">
        <ele>91.3</ele>
        <time>2022-04-05T10:47:15Z</time>
      </trkpt>
      <trkpt lat="44.88623" lon="0.31785">
        <ele>91.5</ele>
        <time>2022-04-05T10:47:16Z</time>
      </trkpt>
      <trkpt lat="44.88624" lon="0.31786">
        <ele>91.5</ele>
        <time>2022-04-05T10:47:17Z</time>
      </trkpt>
      <trkpt lat="44.88625" lon="0.31786">
        <ele>91.5</ele>
        <time>2022-04-05T10:47:18Z</time>
      </trkpt>
      <trkpt lat="44.88628" lon="0.31786">
        <ele>91.7</ele>
        <time>2022-04-05T10:47:19Z</time>
      </trkpt>
      <trkpt lat="44.88628" lon="0.31786">
        <ele>91.7</ele>
        <time>2022-04-05T10:47:20Z</time>
      </trkpt>
      <trkpt lat="44.88629" lon="0.31785">
        <ele>91.8</ele>
        <time>2022-04-05T10:47:21Z</time>
      </trkpt>
      <trkpt lat="44.88631" lon="0.31784">
        <ele>91.9</ele>
        <time>2022-04-05T10:47:22Z</time>
      </trkpt>
      <trkpt lat="44.88632" lon="0.31783">
        <ele>92</ele>
        <time>2022-04-05T10:47:24Z</time>
      </trkpt>
      <trkpt lat="44.88633" lon="0.31783">
        <ele>92</ele>
        <time>2022-04-05T10:47:25Z</time>
      </trkpt>
      <trkpt lat="44.88634" lon="0.31782">
        <ele>92.1</ele>
        <time>2022-04-05T10:47:26Z</time>
      </trkpt>
      <trkpt lat="44.88634" lon="0.31782">
        <ele>92.1</ele>
        <time>2022-04-05T10:47:27Z</time>
      </trkpt>
      <trkpt lat="44.88636" lon="0.31782">
        <ele>92.2</ele>
        <time>2022-04-05T10:47:28Z</time>
      </trkpt>
      <trkpt lat="44.88638" lon="0.31783">
        <ele>92.3</ele>
        <time>2022-04-05T10:47:29Z</time>
      </trkpt>
      <trkpt lat="44.88638" lon="0.31783">
        <ele>92.4</ele>
        <time>2022-04-05T10:47:30Z</time>
      </trkpt>
      <trkpt lat="44.8864" lon="0.31784">
        <ele>92.4</ele>
        <time>2022-04-05T10:47:31Z</time>
      </trkpt>
      <trkpt lat="44.88641" lon="0.31786">
        <ele>92.5</ele>
        <time>2022-04-05T10:47:32Z</time>
      </trkpt>
      <trkpt lat="44.88642" lon="0.31787">
        <ele>92.6</ele>
        <time>2022-04-05T10:47:33Z</time>
      </trkpt>
      <trkpt lat="44.88643" lon="0.31789">
        <ele>92.7</ele>
        <time>2022-04-05T10:47:35Z</time>
      </trkpt>
      <trkpt lat="44.88644" lon="0.31789">
        <ele>92.7</ele>
        <time>2022-04-05T10:47:36Z</time>
      </trkpt>
      <trkpt lat="44.88645" lon="0.3179">
        <ele>92.8</ele>
        <time>2022-04-05T10:47:37Z</time>
      </trkpt>
      <trkpt lat="44.88646" lon="0.31791">
        <ele>92.9</ele>
        <time>2022-04-05T10:47:38Z</time>
      </trkpt>
      <trkpt lat="44.88647" lon="0.31792">
        <ele>92.9</ele>
        <time>2022-04-05T10:47:39Z</time>
      </trkpt>
      <trkpt lat="44.88648" lon="0.31793">
        <ele>93</ele>
        <time>2022-04-05T10:47:40Z</time>
      </trkpt>
      <trkpt lat="44.88649" lon="0.31794">
        <ele>93.1</ele>
        <time>2022-04-05T10:47:41Z</time>
      </trkpt>
      <trkpt lat="44.8865" lon="0.31794">
        <ele>93.1</ele>
        <time>2022-04-05T10:47:42Z</time>
      </trkpt>
      <trkpt lat="44.88651" lon="0.31795">
        <ele>93.2</ele>
        <time>2022-04-05T10:47:43Z</time>
      </trkpt>
      <trkpt lat="44.88654" lon="0.31796">
        <ele>93.3</ele>
        <time>2022-04-05T10:47:44Z</time>
      </trkpt>
      <trkpt lat="44.88654" lon="0.31797">
        <ele>93.3</ele>
        <time>2022-04-05T10:47:45Z</time>
      </trkpt>
      <trkpt lat="44.88655" lon="0.31797">
        <ele>93.4</ele>
        <time>2022-04-05T10:47:46Z</time>
      </trkpt>
      <trkpt lat="44.88656" lon="0.31798">
        <ele>93.5</ele>
        <time>2022-04-05T10:47:47Z</time>
      </trkpt>
      <trkpt lat="44.88658" lon="0.31798">
        <ele>93.5</ele>
        <time>2022-04-05T10:47:49Z</time>
      </trkpt>
      <trkpt lat="44.8866" lon="0.31799">
        <ele>93.7</ele>
        <time>2022-04-05T10:47:50Z</time>
      </trkpt>
      <trkpt lat="44.88661" lon="0.318">
        <ele>93.7</ele>
        <time>2022-04-05T10:47:51Z</time>
      </trkpt>
      <trkpt lat="44.88661" lon="0.318">
        <ele>93.7</ele>
        <time>2022-04-05T10:47:52Z</time>
      </trkpt>
      <trkpt lat="44.88662" lon="0.31801">
        <ele>93.8</ele>
        <time>2022-04-05T10:47:53Z</time>
      </trkpt>
      <trkpt lat="44.88664" lon="0.31802">
        <ele>93.9</ele>
        <time>2022-04-05T10:47:54Z</time>
      </trkpt>
      <trkpt lat="44.88665" lon="0.31802">
        <ele>93.9</ele>
        <time>2022-04-05T10:47:56Z</time>
      </trkpt>
      <trkpt lat="44.88666" lon="0.31803">
        <ele>94</ele>
        <time>2022-04-05T10:47:57Z</time>
      </trkpt>
      <trkpt lat="44.88667" lon="0.31804">
        <ele>94.1</ele>
        <time>2022-04-05T10:47:58Z</time>
      </trkpt>
      <trkpt lat="44.88668" lon="0.31805">
        <ele>94.1</ele>
        <time>2022-04-05T10:47:59Z</time>
      </trkpt>
      <trkpt lat="44.8867" lon="0.31806">
        <ele>94.2</ele>
        <time>2022-04-05T10:48:00Z</time>
      </trkpt>
      <trkpt lat="44.8867" lon="0.31807">
        <ele>94.3</ele>
        <time>2022-04-05T10:48:01Z</time>
      </trkpt>
      <trkpt lat="44.88671" lon="0.31807">
        <ele>94.3</ele>
        <time>2022-04-05T10:48:02Z</time>
      </trkpt>
      <trkpt lat="44.88673" lon="0.31808">
        <ele>94.4</ele>
        <time>2022-04-05T10:48:03Z</time>
      </trkpt>
      <trkpt lat="44.88674" lon="0.31809">
        <ele>94.5</ele>
        <time>2022-04-05T10:48:04Z</time>
      </trkpt>
      <trkpt lat="44.88675" lon="0.3181">
        <ele>94.5</ele>
        <time>2022-04-05T10:48:05Z</time>
      </trkpt>
      <trkpt lat="44.88676" lon="0.3181">
        <ele>94.6</ele>
        <time>2022-04-05T10:48:06Z</time>
      </trkpt>
      <trkpt lat="44.88678" lon="0.31812">
        <ele>94.7</ele>
        <time>2022-04-05T10:48:08Z</time>
      </trkpt>
      <trkpt lat="44.88679" lon="0.31812">
        <ele>94.7</ele>
        <time>2022-04-05T10:48:09Z</time>
      </trkpt>
      <trkpt lat="44.8868" lon="0.31813">
        <ele>94.8</ele>
        <time>2022-04-05T10:48:10Z</time>
      </trkpt>
      <trkpt lat="44.88681" lon="0.31813">
        <ele>94.8</ele>
        <time>2022-04-05T10:48:11Z</time>
      </trkpt>
      <trkpt lat="44.88682" lon="0.31813">
        <ele>94.9</ele>
        <time>2022-04-05T10:48:12Z</time>
      </trkpt>
      <trkpt lat="44.88683" lon="0.31814">
        <ele>94.9</ele>
        <time>2022-04-05T10:48:13Z</time>
      </trkpt>
      <trkpt lat="44.88686" lon="0.31815">
        <ele>95.1</ele>
        <time>2022-04-05T10:48:14Z</time>
      </trkpt>
      <trkpt lat="44.88687" lon="0.31816">
        <ele>95.1</ele>
        <time>2022-04-05T10:48:16Z</time>
      </trkpt>
      <trkpt lat="44.88688" lon="0.31816">
        <ele>95.2</ele>
        <time>2022-04-05T10:48:17Z</time>
      </trkpt>
      <trkpt lat="44.88688" lon="0.31817">
        <ele>95.2</ele>
        <time>2022-04-05T10:48:18Z</time>
      </trkpt>
      <trkpt lat="44.88689" lon="0.31818">
        <ele>95.2</ele>
        <time>2022-04-05T10:48:19Z</time>
      </trkpt>
      <trkpt lat="44.88691" lon="0.31818">
        <ele>95.3</ele>
        <time>2022-04-05T10:48:20Z</time>
      </trkpt>
      <trkpt lat="44.88692" lon="0.31819">
        <ele>95.4</ele>
        <time>2022-04-05T10:48:21Z</time>
      </trkpt>
      <trkpt lat="44.88693" lon="0.31819">
        <ele>95.4</ele>
        <time>2022-04-05T10:48:22Z</time>
      </trkpt>
      <trkpt lat="44.88694" lon="0.3182">
        <ele>95.5</ele>
        <time>2022-04-05T10:48:23Z</time>
      </trkpt>
      <trkpt lat="44.88696" lon="0.31821">
        <ele>95.6</ele>
        <time>2022-04-05T10:48:25Z</time>
      </trkpt>
      <trkpt lat="44.88698" lon="0.31822">
        <ele>95.7</ele>
        <time>2022-04-05T10:48:26Z</time>
      </trkpt>
      <trkpt lat="44.88699" lon="0.31823">
        <ele>95.7</ele>
        <time>2022-04-05T10:48:27Z</time>
      </trkpt>
      <trkpt lat="44.88699" lon="0.31823">
        <ele>95.7</ele>
        <time>2022-04-05T10:48:28Z</time>
      </trkpt>
      <trkpt lat="44.887" lon="0.31824">
        <ele>95.8</ele>
        <time>2022-04-05T10:48:29Z</time>
      </trkpt>
      <trkpt lat="44.88702" lon="0.31825">
        <ele>95.9</ele>
        <time>2022-04-05T10:48:30Z</time>
      </trkpt>
      <trkpt lat="44.88703" lon="0.31826">
        <ele>95.9</ele>
        <time>2022-04-05T10:48:31Z</time>
      </trkpt>
      <trkpt lat="44.88704" lon="0.31827">
        <ele>96</ele>
        <time>2022-04-05T10:48:33Z</time>
      </trkpt>
      <trkpt lat="44.88705" lon="0.31827">
        <ele>96</ele>
        <time>2022-04-05T10:48:34Z</time>
      </trkpt>
      <trkpt lat="44.88708" lon="0.31827">
        <ele>96.1</ele>
        <time>2022-04-05T10:48:35Z</time>
      </trkpt>
      <trkpt lat="44.88708" lon="0.31828">
        <ele>96.1</ele>
        <time>2022-04-05T10:48:36Z</time>
      </trkpt>
      <trkpt lat="44.88709" lon="0.31828">
        <ele>96.2</ele>
        <time>2022-04-05T10:48:37Z</time>
      </trkpt>
      <trkpt lat="44.8871" lon="0.31829">
        <ele>96.2</ele>
        <time>2022-04-05T10:48:38Z</time>
      </trkpt>
      <trkpt lat="44.88711" lon="0.31829">
        <ele>96.3</ele>
        <time>2022-04-05T10:48:39Z</time>
      </trkpt>
      <trkpt lat="44.88713" lon="0.3183">
        <ele>96.4</ele>
        <time>2022-04-05T10:48:40Z</time>
      </trkpt>
      <trkpt lat="44.88713" lon="0.3183">
        <ele>96.4</ele>
        <time>2022-04-05T10:48:41Z</time>
      </trkpt>
      <trkpt lat="44.88714" lon="0.3183">
        <ele>96.4</ele>
        <time>2022-04-05T10:48:42Z</time>
      </trkpt>
      <trkpt lat="44.88717" lon="0.31832">
        <ele>96.6</ele>
        <time>2022-04-05T10:48:43Z</time>
      </trkpt>
      <trkpt lat="44.88718" lon="0.31832">
        <ele>96.6</ele>
        <time>2022-04-05T10:48:44Z</time>
      </trkpt>
      <trkpt lat="44.88719" lon="0.31832">
        <ele>96.6</ele>
        <time>2022-04-05T10:48:46Z</time>
      </trkpt>
      <trkpt lat="44.8872" lon="0.31832">
        <ele>96.7</ele>
        <time>2022-04-05T10:48:47Z</time>
      </trkpt>
      <trkpt lat="44.88722" lon="0.31832">
        <ele>96.8</ele>
        <time>2022-04-05T10:48:49Z</time>
      </trkpt>
      <trkpt lat="44.88724" lon="0.31832">
        <ele>96.9</ele>
        <time>2022-04-05T10:48:50Z</time>
      </trkpt>
      <trkpt lat="44.88725" lon="0.31832">
        <ele>96.9</ele>
        <time>2022-04-05T10:48:51Z</time>
      </trkpt>
      <trkpt lat="44.88727" lon="0.31833">
        <ele>97</ele>
        <time>2022-04-05T10:48:52Z</time>
      </trkpt>
      <trkpt lat="44.88728" lon="0.31833">
        <ele>97.1</ele>
        <time>2022-04-05T10:48:54Z</time>
      </trkpt>
      <trkpt lat="44.88729" lon="0.31833">
        <ele>97.1</ele>
        <time>2022-04-05T10:48:55Z</time>
      </trkpt>
      <trkpt lat="44.8873" lon="0.31833">
        <ele>97.1</ele>
        <time>2022-04-05T10:48:56Z</time>
      </trkpt>
      <trkpt lat="44.8873" lon="0.31834">
        <ele>97.2</ele>
        <time>2022-04-05T10:48:57Z</time>
      </trkpt>
      <trkpt lat="44.88732" lon="0.31834">
        <ele>97.3</ele>
        <time>2022-04-05T10:48:58Z</time>
      </trkpt>
      <trkpt lat="44.88733" lon="0.31835">
        <ele>97.3</ele>
        <time>2022-04-05T10:48:59Z</time>
      </trkpt>
      <trkpt lat="44.88735" lon="0.31836">
        <ele>97.4</ele>
        <time>2022-04-05T10:49:00Z</time>
      </trkpt>
      <trkpt lat="44.88736" lon="0.31836">
        <ele>97.4</ele>
        <time>2022-04-05T10:49:01Z</time>
      </trkpt>
      <trkpt lat="44.88737" lon="0.31837">
        <ele>97.5</ele>
        <time>2022-04-05T10:49:02Z</time>
      </trkpt>
      <trkpt lat="44.88738" lon="0.31837">
        <ele>97.5</ele>
        <time>2022-04-05T10:49:04Z</time>
      </trkpt>
      <trkpt lat="44.88741" lon="0.31838">
        <ele>97.6</ele>
        <time>2022-04-05T10:49:05Z</time>
      </trkpt>
      <trkpt lat="44.88741" lon="0.31838">
        <ele>97.6</ele>
        <time>2022-04-05T10:49:06Z</time>
      </trkpt>
      <trkpt lat="44.88742" lon="0.31839">
        <ele>97.7</ele>
        <time>2022-04-05T10:49:07Z</time>
      </trkpt>
      <trkpt lat="44.88744" lon="0.3184">
        <ele>97.7</ele>
        <time>2022-04-05T10:49:08Z</time>
      </trkpt>
      <trkpt lat="44.88745" lon="0.3184">
        <ele>97.7</ele>
        <time>2022-04-05T10:49:09Z</time>
      </trkpt>
      <trkpt lat="44.88747" lon="0.31841">
        <ele>97.8</ele>
        <time>2022-04-05T10:49:10Z</time>
      </trkpt>
      <trkpt lat="44.88748" lon="0.31842">
        <ele>97.8</ele>
        <time>2022-04-05T10:49:11Z</time>
      </trkpt>
      <trkpt lat="44.88749" lon="0.31842">
        <ele>97.8</ele>
        <time>2022-04-05T10:49:12Z</time>
      </trkpt>
      <trkpt lat="44.8875" lon="0.31843">
        <ele>97.8</ele>
        <time>2022-04-05T10:49:13Z</time>
      </trkpt>
      <trkpt lat="44.88752" lon="0.31843">
        <ele>97.8</ele>
        <time>2022-04-05T10:49:14Z</time>
      </trkpt>
      <trkpt lat="44.88753" lon="0.31843">
        <ele>97.9</ele>
        <time>2022-04-05T10:49:15Z</time>
      </trkpt>
      <trkpt lat="44.88755" lon="0.31844">
        <ele>97.9</ele>
        <time>2022-04-05T10:49:16Z</time>
      </trkpt>
      <trkpt lat="44.88756" lon="0.31845">
        <ele>97.9</ele>
        <time>2022-04-05T10:49:17Z</time>
      </trkpt>
      <trkpt lat="44.88757" lon="0.31845">
        <ele>97.9</ele>
        <time>2022-04-05T10:49:18Z</time>
      </trkpt>
      <trkpt lat="44.8876" lon="0.31846">
        <ele>97.8</ele>
        <time>2022-04-05T10:49:20Z</time>
      </trkpt>
      <trkpt lat="44.88761" lon="0.31847">
        <ele>97.7</ele>
        <time>2022-04-05T10:49:22Z</time>
      </trkpt>
      <trkpt lat="44.88762" lon="0.31847">
        <ele>97.6</ele>
        <time>2022-04-05T10:49:23Z</time>
      </trkpt>
      <trkpt lat="44.88763" lon="0.31848">
        <ele>97.6</ele>
        <time>2022-04-05T10:49:24Z</time>
      </trkpt>
      <trkpt lat="44.88765" lon="0.31848">
        <ele>97.5</ele>
        <time>2022-04-05T10:49:25Z</time>
      </trkpt>
      <trkpt lat="44.88766" lon="0.31849">
        <ele>97.5</ele>
        <time>2022-04-05T10:49:26Z</time>
      </trkpt>
      <trkpt lat="44.88767" lon="0.31849">
        <ele>97.4</ele>
        <time>2022-04-05T10:49:27Z</time>
      </trkpt>
      <trkpt lat="44.88769" lon="0.3185">
        <ele>97.3</ele>
        <time>2022-04-05T10:49:28Z</time>
      </trkpt>
      <trkpt lat="44.88769" lon="0.3185">
        <ele>97.3</ele>
        <time>2022-04-05T10:49:29Z</time>
      </trkpt>
      <trkpt lat="44.88771" lon="0.31851">
        <ele>97.2</ele>
        <time>2022-04-05T10:49:30Z</time>
      </trkpt>
      <trkpt lat="44.88773" lon="0.31853">
        <ele>97.1</ele>
        <time>2022-04-05T10:49:31Z</time>
      </trkpt>
      <trkpt lat="44.88773" lon="0.31854">
        <ele>97.1</ele>
        <time>2022-04-05T10:49:32Z</time>
      </trkpt>
      <trkpt lat="44.88774" lon="0.31855">
        <ele>97.1</ele>
        <time>2022-04-05T10:49:33Z</time>
      </trkpt>
      <trkpt lat="44.88775" lon="0.31856">
        <ele>97</ele>
        <time>2022-04-05T10:49:34Z</time>
      </trkpt>
      <trkpt lat="44.88777" lon="0.31857">
        <ele>96.9</ele>
        <time>2022-04-05T10:49:35Z</time>
      </trkpt>
      <trkpt lat="44.88778" lon="0.31858">
        <ele>96.9</ele>
        <time>2022-04-05T10:49:37Z</time>
      </trkpt>
      <trkpt lat="44.88779" lon="0.31859">
        <ele>96.8</ele>
        <time>2022-04-05T10:49:38Z</time>
      </trkpt>
      <trkpt lat="44.8878" lon="0.3186">
        <ele>96.8</ele>
        <time>2022-04-05T10:49:39Z</time>
      </trkpt>
      <trkpt lat="44.88782" lon="0.31861">
        <ele>96.7</ele>
        <time>2022-04-05T10:49:40Z</time>
      </trkpt>
      <trkpt lat="44.88782" lon="0.31861">
        <ele>96.7</ele>
        <time>2022-04-05T10:49:41Z</time>
      </trkpt>
      <trkpt lat="44.88784" lon="0.31862">
        <ele>96.6</ele>
        <time>2022-04-05T10:49:42Z</time>
      </trkpt>
      <trkpt lat="44.88785" lon="0.31863">
        <ele>96.6</ele>
        <time>2022-04-05T10:49:43Z</time>
      </trkpt>
      <trkpt lat="44.88785" lon="0.31865">
        <ele>96.6</ele>
        <time>2022-04-05T10:49:44Z</time>
      </trkpt>
      <trkpt lat="44.88786" lon="0.31867">
        <ele>96.5</ele>
        <time>2022-04-05T10:49:45Z</time>
      </trkpt>
      <trkpt lat="44.88787" lon="0.31868">
        <ele>96.5</ele>
        <time>2022-04-05T10:49:46Z</time>
      </trkpt>
      <trkpt lat="44.88788" lon="0.31868">
        <ele>96.4</ele>
        <time>2022-04-05T10:49:47Z</time>
      </trkpt>
      <trkpt lat="44.8879" lon="0.3187">
        <ele>96.4</ele>
        <time>2022-04-05T10:49:49Z</time>
      </trkpt>
      <trkpt lat="44.88791" lon="0.31872">
        <ele>96.3</ele>
        <time>2022-04-05T10:49:50Z</time>
      </trkpt>
      <trkpt lat="44.88791" lon="0.31873">
        <ele>96.3</ele>
        <time>2022-04-05T10:49:51Z</time>
      </trkpt>
      <trkpt lat="44.88792" lon="0.31875">
        <ele>96.2</ele>
        <time>2022-04-05T10:49:52Z</time>
      </trkpt>
      <trkpt lat="44.88792" lon="0.31876">
        <ele>96.2</ele>
        <time>2022-04-05T10:49:53Z</time>
      </trkpt>
      <trkpt lat="44.88792" lon="0.31877">
        <ele>96.2</ele>
        <time>2022-04-05T10:49:54Z</time>
      </trkpt>
      <trkpt lat="44.88792" lon="0.31878">
        <ele>96.1</ele>
        <time>2022-04-05T10:49:55Z</time>
      </trkpt>
      <trkpt lat="44.88791" lon="0.31879">
        <ele>96.1</ele>
        <time>2022-04-05T10:49:56Z</time>
      </trkpt>
      <trkpt lat="44.88791" lon="0.3188">
        <ele>96.1</ele>
        <time>2022-04-05T10:49:57Z</time>
      </trkpt>
      <trkpt lat="44.88792" lon="0.3188">
        <ele>96</ele>
        <time>2022-04-05T10:49:58Z</time>
      </trkpt>
      <trkpt lat="44.88794" lon="0.3188">
        <ele>96</ele>
        <time>2022-04-05T10:49:59Z</time>
      </trkpt>
      <trkpt lat="44.88795" lon="0.31881">
        <ele>95.9</ele>
        <time>2022-04-05T10:50:01Z</time>
      </trkpt>
      <trkpt lat="44.88797" lon="0.31881">
        <ele>95.9</ele>
        <time>2022-04-05T10:50:02Z</time>
      </trkpt>
      <trkpt lat="44.88798" lon="0.31881">
        <ele>95.9</ele>
        <time>2022-04-05T10:50:03Z</time>
      </trkpt>
      <trkpt lat="44.88799" lon="0.3188">
        <ele>95.8</ele>
        <time>2022-04-05T10:50:04Z</time>
      </trkpt>
      <trkpt lat="44.88801" lon="0.3188">
        <ele>95.8</ele>
        <time>2022-04-05T10:50:05Z</time>
      </trkpt>
      <trkpt lat="44.88802" lon="0.3188">
        <ele>95.7</ele>
        <time>2022-04-05T10:50:06Z</time>
      </trkpt>
      <trkpt lat="44.88804" lon="0.31881">
        <ele>95.7</ele>
        <time>2022-04-05T10:50:07Z</time>
      </trkpt>
      <trkpt lat="44.88805" lon="0.31882">
        <ele>95.7</ele>
        <time>2022-04-05T10:50:09Z</time>
      </trkpt>
      <trkpt lat="44.88806" lon="0.31882">
        <ele>95.6</ele>
        <time>2022-04-05T10:50:10Z</time>
      </trkpt>
      <trkpt lat="44.88806" lon="0.31883">
        <ele>95.6</ele>
        <time>2022-04-05T10:50:11Z</time>
      </trkpt>
      <trkpt lat="44.88807" lon="0.31884">
        <ele>95.6</ele>
        <time>2022-04-05T10:50:12Z</time>
      </trkpt>
      <trkpt lat="44.88808" lon="0.31886">
        <ele>95.6</ele>
        <time>2022-04-05T10:50:13Z</time>
      </trkpt>
      <trkpt lat="44.8881" lon="0.31888">
        <ele>95.5</ele>
        <time>2022-04-05T10:50:14Z</time>
      </trkpt>
      <trkpt lat="44.88811" lon="0.31889">
        <ele>95.5</ele>
        <time>2022-04-05T10:50:15Z</time>
      </trkpt>
      <trkpt lat="44.88811" lon="0.31889">
        <ele>95.5</ele>
        <time>2022-04-05T10:50:16Z</time>
      </trkpt>
      <trkpt lat="44.88812" lon="0.3189">
        <ele>95.4</ele>
        <time>2022-04-05T10:50:17Z</time>
      </trkpt>
      <trkpt lat="44.88813" lon="0.31891">
        <ele>95.4</ele>
        <time>2022-04-05T10:50:18Z</time>
      </trkpt>
      <trkpt lat="44.88814" lon="0.31892">
        <ele>95.4</ele>
        <time>2022-04-05T10:50:19Z</time>
      </trkpt>
      <trkpt lat="44.88815" lon="0.31892">
        <ele>95.4</ele>
        <time>2022-04-05T10:50:20Z</time>
      </trkpt>
      <trkpt lat="44.88817" lon="0.31893">
        <ele>95.3</ele>
        <time>2022-04-05T10:50:21Z</time>
      </trkpt>
      <trkpt lat="44.88818" lon="0.31893">
        <ele>95.3</ele>
        <time>2022-04-05T10:50:23Z</time>
      </trkpt>
      <trkpt lat="44.88819" lon="0.31893">
        <ele>95.3</ele>
        <time>2022-04-05T10:50:24Z</time>
      </trkpt>
      <trkpt lat="44.88821" lon="0.31894">
        <ele>95.3</ele>
        <time>2022-04-05T10:50:25Z</time>
      </trkpt>
      <trkpt lat="44.88822" lon="0.31894">
        <ele>95.3</ele>
        <time>2022-04-05T10:50:26Z</time>
      </trkpt>
      <trkpt lat="44.88822" lon="0.31894">
        <ele>95.3</ele>
        <time>2022-04-05T10:50:27Z</time>
      </trkpt>
      <trkpt lat="44.88824" lon="0.31896">
        <ele>95.3</ele>
        <time>2022-04-05T10:50:28Z</time>
      </trkpt>
      <trkpt lat="44.88825" lon="0.31897">
        <ele>95.2</ele>
        <time>2022-04-05T10:50:29Z</time>
      </trkpt>
      <trkpt lat="44.88826" lon="0.31897">
        <ele>95.2</ele>
        <time>2022-04-05T10:50:30Z</time>
      </trkpt>
      <trkpt lat="44.88827" lon="0.31898">
        <ele>95.2</ele>
        <time>2022-04-05T10:50:31Z</time>
      </trkpt>
      <trkpt lat="44.88828" lon="0.31899">
        <ele>95.2</ele>
        <time>2022-04-05T10:50:32Z</time>
      </trkpt>
      <trkpt lat="44.88829" lon="0.319">
        <ele>95.2</ele>
        <time>2022-04-05T10:50:33Z</time>
      </trkpt>
      <trkpt lat="44.88831" lon="0.31902">
        <ele>95.2</ele>
        <time>2022-04-05T10:50:35Z</time>
      </trkpt>
      <trkpt lat="44.88832" lon="0.31903">
        <ele>95.2</ele>
        <time>2022-04-05T10:50:36Z</time>
      </trkpt>
      <trkpt lat="44.88833" lon="0.31904">
        <ele>95.1</ele>
        <time>2022-04-05T10:50:37Z</time>
      </trkpt>
      <trkpt lat="44.88834" lon="0.31905">
        <ele>95.1</ele>
        <time>2022-04-05T10:50:38Z</time>
      </trkpt>
      <trkpt lat="44.88835" lon="0.31907">
        <ele>95.1</ele>
        <time>2022-04-05T10:50:39Z</time>
      </trkpt>
      <trkpt lat="44.88836" lon="0.31908">
        <ele>95.1</ele>
        <time>2022-04-05T10:50:40Z</time>
      </trkpt>
      <trkpt lat="44.88837" lon="0.3191">
        <ele>95.1</ele>
        <time>2022-04-05T10:50:42Z</time>
      </trkpt>
      <trkpt lat="44.88838" lon="0.3191">
        <ele>95.1</ele>
        <time>2022-04-05T10:50:43Z</time>
      </trkpt>
      <trkpt lat="44.88838" lon="0.31911">
        <ele>95.1</ele>
        <time>2022-04-05T10:50:44Z</time>
      </trkpt>
      <trkpt lat="44.8884" lon="0.31913">
        <ele>95</ele>
        <time>2022-04-05T10:50:45Z</time>
      </trkpt>
      <trkpt lat="44.88841" lon="0.31914">
        <ele>95</ele>
        <time>2022-04-05T10:50:46Z</time>
      </trkpt>
      <trkpt lat="44.88841" lon="0.31916">
        <ele>95</ele>
        <time>2022-04-05T10:50:47Z</time>
      </trkpt>
      <trkpt lat="44.88842" lon="0.31917">
        <ele>95</ele>
        <time>2022-04-05T10:50:49Z</time>
      </trkpt>
      <trkpt lat="44.88845" lon="0.31918">
        <ele>95</ele>
        <time>2022-04-05T10:50:50Z</time>
      </trkpt>
      <trkpt lat="44.88845" lon="0.31918">
        <ele>95</ele>
        <time>2022-04-05T10:50:51Z</time>
      </trkpt>
      <trkpt lat="44.88846" lon="0.31919">
        <ele>94.9</ele>
        <time>2022-04-05T10:50:52Z</time>
      </trkpt>
      <trkpt lat="44.88847" lon="0.3192">
        <ele>94.9</ele>
        <time>2022-04-05T10:50:53Z</time>
      </trkpt>
      <trkpt lat="44.88848" lon="0.3192">
        <ele>94.9</ele>
        <time>2022-04-05T10:50:54Z</time>
      </trkpt>
      <trkpt lat="44.88849" lon="0.31921">
        <ele>94.9</ele>
        <time>2022-04-05T10:50:55Z</time>
      </trkpt>
      <trkpt lat="44.88849" lon="0.31921">
        <ele>94.9</ele>
        <time>2022-04-05T10:50:56Z</time>
      </trkpt>
      <trkpt lat="44.8885" lon="0.31921">
        <ele>94.9</ele>
        <time>2022-04-05T10:50:57Z</time>
      </trkpt>
      <trkpt lat="44.8885" lon="0.31921">
        <ele>94.9</ele>
        <time>2022-04-05T10:50:58Z</time>
      </trkpt>
      <trkpt lat="44.8885" lon="0.31921">
        <ele>94.9</ele>
        <time>2022-04-05T10:50:59Z</time>
      </trkpt>
      <trkpt lat="44.8885" lon="0.31922">
        <ele>94.9</ele>
        <time>2022-04-05T10:51:00Z</time>
      </trkpt>
      <trkpt lat="44.8885" lon="0.31922">
        <ele>94.9</ele>
        <time>2022-04-05T10:51:01Z</time>
      </trkpt>
      <trkpt lat="44.8885" lon="0.31922">
        <ele>94.9</ele>
        <time>2022-04-05T10:51:02Z</time>
      </trkpt>
      <trkpt lat="44.88851" lon="0.31923">
        <ele>94.9</ele>
        <time>2022-04-05T10:51:03Z</time>
      </trkpt>
      <trkpt lat="44.88851" lon="0.31923">
        <ele>94.9</ele>
        <time>2022-04-05T10:51:04Z</time>
      </trkpt>
      <trkpt lat="44.88851" lon="0.31923">
        <ele>94.9</ele>
        <time>2022-04-05T10:51:06Z</time>
      </trkpt>
      <trkpt lat="44.88851" lon="0.31923">
        <ele>94.9</ele>
        <time>2022-04-05T10:51:07Z</time>
      </trkpt>
      <trkpt lat="44.88852" lon="0.31924">
        <ele>94.9</ele>
        <time>2022-04-05T10:51:08Z</time>
      </trkpt>
      <trkpt lat="44.88853" lon="0.31926">
        <ele>94.9</ele>
        <time>2022-04-05T10:51:09Z</time>
      </trkpt>
      <trkpt lat="44.88855" lon="0.31928">
        <ele>94.9</ele>
        <time>2022-04-05T10:51:10Z</time>
      </trkpt>
      <trkpt lat="44.88856" lon="0.31928">
        <ele>94.9</ele>
        <time>2022-04-05T10:51:11Z</time>
      </trkpt>
      <trkpt lat="44.88858" lon="0.31929">
        <ele>94.9</ele>
        <time>2022-04-05T10:51:12Z</time>
      </trkpt>
      <trkpt lat="44.88859" lon="0.3193">
        <ele>94.9</ele>
        <time>2022-04-05T10:51:13Z</time>
      </trkpt>
      <trkpt lat="44.8886" lon="0.31931">
        <ele>94.9</ele>
        <time>2022-04-05T10:51:14Z</time>
      </trkpt>
      <trkpt lat="44.88861" lon="0.31933">
        <ele>94.9</ele>
        <time>2022-04-05T10:51:15Z</time>
      </trkpt>
      <trkpt lat="44.88862" lon="0.31933">
        <ele>94.9</ele>
        <time>2022-04-05T10:51:16Z</time>
      </trkpt>
      <trkpt lat="44.88862" lon="0.31934">
        <ele>94.9</ele>
        <time>2022-04-05T10:51:17Z</time>
      </trkpt>
      <trkpt lat="44.88864" lon="0.31935">
        <ele>95</ele>
        <time>2022-04-05T10:51:18Z</time>
      </trkpt>
      <trkpt lat="44.88865" lon="0.31936">
        <ele>95</ele>
        <time>2022-04-05T10:51:19Z</time>
      </trkpt>
      <trkpt lat="44.88866" lon="0.31936">
        <ele>95</ele>
        <time>2022-04-05T10:51:20Z</time>
      </trkpt>
      <trkpt lat="44.88868" lon="0.31937">
        <ele>95</ele>
        <time>2022-04-05T10:51:22Z</time>
      </trkpt>
      <trkpt lat="44.88869" lon="0.31938">
        <ele>95</ele>
        <time>2022-04-05T10:51:23Z</time>
      </trkpt>
      <trkpt lat="44.8887" lon="0.31938">
        <ele>95</ele>
        <time>2022-04-05T10:51:24Z</time>
      </trkpt>
      <trkpt lat="44.88872" lon="0.3194">
        <ele>95.1</ele>
        <time>2022-04-05T10:51:25Z</time>
      </trkpt>
      <trkpt lat="44.88873" lon="0.3194">
        <ele>95.1</ele>
        <time>2022-04-05T10:51:26Z</time>
      </trkpt>
      <trkpt lat="44.88874" lon="0.3194">
        <ele>95.1</ele>
        <time>2022-04-05T10:51:27Z</time>
      </trkpt>
      <trkpt lat="44.88875" lon="0.31941">
        <ele>95.1</ele>
        <time>2022-04-05T10:51:29Z</time>
      </trkpt>
      <trkpt lat="44.88877" lon="0.31942">
        <ele>95.1</ele>
        <time>2022-04-05T10:51:30Z</time>
      </trkpt>
      <trkpt lat="44.88878" lon="0.31943">
        <ele>95.2</ele>
        <time>2022-04-05T10:51:31Z</time>
      </trkpt>
      <trkpt lat="44.88879" lon="0.31943">
        <ele>95.2</ele>
        <time>2022-04-05T10:51:32Z</time>
      </trkpt>
      <trkpt lat="44.88881" lon="0.31944">
        <ele>95.2</ele>
        <time>2022-04-05T10:51:33Z</time>
      </trkpt>
      <trkpt lat="44.88881" lon="0.31944">
        <ele>95.2</ele>
        <time>2022-04-05T10:51:34Z</time>
      </trkpt>
      <trkpt lat="44.88882" lon="0.31944">
        <ele>95.2</ele>
        <time>2022-04-05T10:51:35Z</time>
      </trkpt>
      <trkpt lat="44.88884" lon="0.31946">
        <ele>95.3</ele>
        <time>2022-04-05T10:51:36Z</time>
      </trkpt>
      <trkpt lat="44.88885" lon="0.31946">
        <ele>95.3</ele>
        <time>2022-04-05T10:51:38Z</time>
      </trkpt>
      <trkpt lat="44.88886" lon="0.31947">
        <ele>95.3</ele>
        <time>2022-04-05T10:51:39Z</time>
      </trkpt>
      <trkpt lat="44.88888" lon="0.31948">
        <ele>95.3</ele>
        <time>2022-04-05T10:51:40Z</time>
      </trkpt>
      <trkpt lat="44.88888" lon="0.31949">
        <ele>95.4</ele>
        <time>2022-04-05T10:51:41Z</time>
      </trkpt>
      <trkpt lat="44.8889" lon="0.31951">
        <ele>95.4</ele>
        <time>2022-04-05T10:51:43Z</time>
      </trkpt>
      <trkpt lat="44.88891" lon="0.31952">
        <ele>95.4</ele>
        <time>2022-04-05T10:51:44Z</time>
      </trkpt>
      <trkpt lat="44.88891" lon="0.31953">
        <ele>95.4</ele>
        <time>2022-04-05T10:51:45Z</time>
      </trkpt>
      <trkpt lat="44.88894" lon="0.31954">
        <ele>95.5</ele>
        <time>2022-04-05T10:51:46Z</time>
      </trkpt>
      <trkpt lat="44.88894" lon="0.31954">
        <ele>95.5</ele>
        <time>2022-04-05T10:51:47Z</time>
      </trkpt>
      <trkpt lat="44.88895" lon="0.31955">
        <ele>95.5</ele>
        <time>2022-04-05T10:51:48Z</time>
      </trkpt>
      <trkpt lat="44.88897" lon="0.31956">
        <ele>95.5</ele>
        <time>2022-04-05T10:51:49Z</time>
      </trkpt>
      <trkpt lat="44.88898" lon="0.31957">
        <ele>95.6</ele>
        <time>2022-04-05T10:51:50Z</time>
      </trkpt>
      <trkpt lat="44.88899" lon="0.31957">
        <ele>95.6</ele>
        <time>2022-04-05T10:51:51Z</time>
      </trkpt>
      <trkpt lat="44.889" lon="0.31958">
        <ele>95.6</ele>
        <time>2022-04-05T10:51:52Z</time>
      </trkpt>
      <trkpt lat="44.88901" lon="0.31959">
        <ele>95.6</ele>
        <time>2022-04-05T10:51:53Z</time>
      </trkpt>
      <trkpt lat="44.88904" lon="0.3196">
        <ele>95.7</ele>
        <time>2022-04-05T10:51:54Z</time>
      </trkpt>
      <trkpt lat="44.88905" lon="0.31961">
        <ele>95.7</ele>
        <time>2022-04-05T10:51:55Z</time>
      </trkpt>
      <trkpt lat="44.88906" lon="0.31961">
        <ele>95.7</ele>
        <time>2022-04-05T10:51:56Z</time>
      </trkpt>
      <trkpt lat="44.88907" lon="0.31962">
        <ele>95.7</ele>
        <time>2022-04-05T10:51:57Z</time>
      </trkpt>
      <trkpt lat="44.88908" lon="0.31963">
        <ele>95.7</ele>
        <time>2022-04-05T10:51:59Z</time>
      </trkpt>
      <trkpt lat="44.88909" lon="0.31964">
        <ele>95.8</ele>
        <time>2022-04-05T10:52:00Z</time>
      </trkpt>
      <trkpt lat="44.88911" lon="0.31965">
        <ele>95.8</ele>
        <time>2022-04-05T10:52:01Z</time>
      </trkpt>
      <trkpt lat="44.88912" lon="0.31967">
        <ele>95.8</ele>
        <time>2022-04-05T10:52:02Z</time>
      </trkpt>
      <trkpt lat="44.88913" lon="0.31967">
        <ele>95.9</ele>
        <time>2022-04-05T10:52:03Z</time>
      </trkpt>
      <trkpt lat="44.88914" lon="0.31968">
        <ele>95.9</ele>
        <time>2022-04-05T10:52:04Z</time>
      </trkpt>
      <trkpt lat="44.88915" lon="0.31969">
        <ele>95.9</ele>
        <time>2022-04-05T10:52:05Z</time>
      </trkpt>
      <trkpt lat="44.88916" lon="0.3197">
        <ele>95.9</ele>
        <time>2022-04-05T10:52:06Z</time>
      </trkpt>
      <trkpt lat="44.88918" lon="0.31972">
        <ele>96</ele>
        <time>2022-04-05T10:52:07Z</time>
      </trkpt>
      <trkpt lat="44.88919" lon="0.31972">
        <ele>96</ele>
        <time>2022-04-05T10:52:08Z</time>
      </trkpt>
      <trkpt lat="44.88919" lon="0.31973">
        <ele>96</ele>
        <time>2022-04-05T10:52:09Z</time>
      </trkpt>
      <trkpt lat="44.88922" lon="0.31974">
        <ele>96</ele>
        <time>2022-04-05T10:52:10Z</time>
      </trkpt>
      <trkpt lat="44.88922" lon="0.31974">
        <ele>96</ele>
        <time>2022-04-05T10:52:11Z</time>
      </trkpt>
      <trkpt lat="44.88923" lon="0.31975">
        <ele>96.1</ele>
        <time>2022-04-05T10:52:12Z</time>
      </trkpt>
      <trkpt lat="44.88924" lon="0.31975">
        <ele>96.1</ele>
        <time>2022-04-05T10:52:13Z</time>
      </trkpt>
      <trkpt lat="44.88925" lon="0.31976">
        <ele>96.1</ele>
        <time>2022-04-05T10:52:14Z</time>
      </trkpt>
      <trkpt lat="44.88928" lon="0.31978">
        <ele>96.2</ele>
        <time>2022-04-05T10:52:16Z</time>
      </trkpt>
      <trkpt lat="44.88929" lon="0.31978">
        <ele>96.2</ele>
        <time>2022-04-05T10:52:17Z</time>
      </trkpt>
      <trkpt lat="44.8893" lon="0.31979">
        <ele>96.2</ele>
        <time>2022-04-05T10:52:18Z</time>
      </trkpt>
      <trkpt lat="44.88931" lon="0.3198">
        <ele>96.2</ele>
        <time>2022-04-05T10:52:19Z</time>
      </trkpt>
      <trkpt lat="44.88933" lon="0.31982">
        <ele>96.3</ele>
        <time>2022-04-05T10:52:20Z</time>
      </trkpt>
      <trkpt lat="44.88934" lon="0.31982">
        <ele>96.3</ele>
        <time>2022-04-05T10:52:21Z</time>
      </trkpt>
      <trkpt lat="44.88935" lon="0.31984">
        <ele>96.3</ele>
        <time>2022-04-05T10:52:22Z</time>
      </trkpt>
      <trkpt lat="44.88936" lon="0.31984">
        <ele>96.4</ele>
        <time>2022-04-05T10:52:23Z</time>
      </trkpt>
      <trkpt lat="44.88937" lon="0.31985">
        <ele>96.4</ele>
        <time>2022-04-05T10:52:24Z</time>
      </trkpt>
      <trkpt lat="44.88939" lon="0.31986">
        <ele>96.4</ele>
        <time>2022-04-05T10:52:26Z</time>
      </trkpt>
      <trkpt lat="44.8894" lon="0.31987">
        <ele>96.4</ele>
        <time>2022-04-05T10:52:27Z</time>
      </trkpt>
      <trkpt lat="44.8894" lon="0.31988">
        <ele>96.5</ele>
        <time>2022-04-05T10:52:28Z</time>
      </trkpt>
      <trkpt lat="44.88942" lon="0.31989">
        <ele>96.5</ele>
        <time>2022-04-05T10:52:29Z</time>
      </trkpt>
      <trkpt lat="44.88942" lon="0.3199">
        <ele>96.5</ele>
        <time>2022-04-05T10:52:30Z</time>
      </trkpt>
      <trkpt lat="44.88944" lon="0.31991">
        <ele>96.5</ele>
        <time>2022-04-05T10:52:31Z</time>
      </trkpt>
      <trkpt lat="44.88945" lon="0.31991">
        <ele>96.6</ele>
        <time>2022-04-05T10:52:32Z</time>
      </trkpt>
      <trkpt lat="44.88946" lon="0.31991">
        <ele>96.6</ele>
        <time>2022-04-05T10:52:33Z</time>
      </trkpt>
      <trkpt lat="44.88948" lon="0.31993">
        <ele>96.6</ele>
        <time>2022-04-05T10:52:34Z</time>
      </trkpt>
      <trkpt lat="44.88949" lon="0.31994">
        <ele>96.6</ele>
        <time>2022-04-05T10:52:36Z</time>
      </trkpt>
      <trkpt lat="44.88949" lon="0.31995">
        <ele>96.7</ele>
        <time>2022-04-05T10:52:37Z</time>
      </trkpt>
      <trkpt lat="44.8895" lon="0.31996">
        <ele>96.7</ele>
        <time>2022-04-05T10:52:38Z</time>
      </trkpt>
      <trkpt lat="44.88951" lon="0.31997">
        <ele>96.7</ele>
        <time>2022-04-05T10:52:39Z</time>
      </trkpt>
      <trkpt lat="44.88952" lon="0.31998">
        <ele>96.7</ele>
        <time>2022-04-05T10:52:40Z</time>
      </trkpt>
      <trkpt lat="44.88954" lon="0.31999">
        <ele>96.8</ele>
        <time>2022-04-05T10:52:41Z</time>
      </trkpt>
      <trkpt lat="44.88955" lon="0.31999">
        <ele>96.8</ele>
        <time>2022-04-05T10:52:42Z</time>
      </trkpt>
      <trkpt lat="44.88956" lon="0.32">
        <ele>96.8</ele>
        <time>2022-04-05T10:52:43Z</time>
      </trkpt>
      <trkpt lat="44.88957" lon="0.32">
        <ele>96.8</ele>
        <time>2022-04-05T10:52:44Z</time>
      </trkpt>
      <trkpt lat="44.88958" lon="0.32">
        <ele>96.8</ele>
        <time>2022-04-05T10:52:45Z</time>
      </trkpt>
      <trkpt lat="44.88959" lon="0.32001">
        <ele>96.9</ele>
        <time>2022-04-05T10:52:46Z</time>
      </trkpt>
      <trkpt lat="44.8896" lon="0.32002">
        <ele>96.9</ele>
        <time>2022-04-05T10:52:47Z</time>
      </trkpt>
      <trkpt lat="44.88962" lon="0.32002">
        <ele>96.9</ele>
        <time>2022-04-05T10:52:48Z</time>
      </trkpt>
      <trkpt lat="44.88963" lon="0.32002">
        <ele>96.9</ele>
        <time>2022-04-05T10:52:50Z</time>
      </trkpt>
      <trkpt lat="44.88964" lon="0.32002">
        <ele>96.9</ele>
        <time>2022-04-05T10:52:51Z</time>
      </trkpt>
      <trkpt lat="44.88966" lon="0.32002">
        <ele>97</ele>
        <time>2022-04-05T10:52:52Z</time>
      </trkpt>
      <trkpt lat="44.88967" lon="0.32002">
        <ele>97</ele>
        <time>2022-04-05T10:52:53Z</time>
      </trkpt>
      <trkpt lat="44.88968" lon="0.32001">
        <ele>97</ele>
        <time>2022-04-05T10:52:54Z</time>
      </trkpt>
      <trkpt lat="44.88969" lon="0.32001">
        <ele>97</ele>
        <time>2022-04-05T10:52:55Z</time>
      </trkpt>
      <trkpt lat="44.88971" lon="0.32002">
        <ele>97</ele>
        <time>2022-04-05T10:52:56Z</time>
      </trkpt>
      <trkpt lat="44.88972" lon="0.32002">
        <ele>97</ele>
        <time>2022-04-05T10:52:57Z</time>
      </trkpt>
      <trkpt lat="44.88973" lon="0.32003">
        <ele>97</ele>
        <time>2022-04-05T10:52:58Z</time>
      </trkpt>
      <trkpt lat="44.88974" lon="0.32003">
        <ele>97</ele>
        <time>2022-04-05T10:52:59Z</time>
      </trkpt>
      <trkpt lat="44.88976" lon="0.32003">
        <ele>97</ele>
        <time>2022-04-05T10:53:01Z</time>
      </trkpt>
      <trkpt lat="44.88976" lon="0.32003">
        <ele>97</ele>
        <time>2022-04-05T10:53:02Z</time>
      </trkpt>
      <trkpt lat="44.88977" lon="0.32004">
        <ele>97</ele>
        <time>2022-04-05T10:53:03Z</time>
      </trkpt>
      <trkpt lat="44.88978" lon="0.32004">
        <ele>97</ele>
        <time>2022-04-05T10:53:04Z</time>
      </trkpt>
      <trkpt lat="44.88979" lon="0.32005">
        <ele>97</ele>
        <time>2022-04-05T10:53:05Z</time>
      </trkpt>
      <trkpt lat="44.88981" lon="0.32005">
        <ele>97</ele>
        <time>2022-04-05T10:53:06Z</time>
      </trkpt>
      <trkpt lat="44.88982" lon="0.32005">
        <ele>96.9</ele>
        <time>2022-04-05T10:53:07Z</time>
      </trkpt>
      <trkpt lat="44.88983" lon="0.32005">
        <ele>96.9</ele>
        <time>2022-04-05T10:53:08Z</time>
      </trkpt>
      <trkpt lat="44.88985" lon="0.32005">
        <ele>96.9</ele>
        <time>2022-04-05T10:53:09Z</time>
      </trkpt>
      <trkpt lat="44.88986" lon="0.32005">
        <ele>96.9</ele>
        <time>2022-04-05T10:53:10Z</time>
      </trkpt>
      <trkpt lat="44.88988" lon="0.32006">
        <ele>96.9</ele>
        <time>2022-04-05T10:53:11Z</time>
      </trkpt>
      <trkpt lat="44.88989" lon="0.32007">
        <ele>96.8</ele>
        <time>2022-04-05T10:53:12Z</time>
      </trkpt>
      <trkpt lat="44.8899" lon="0.32008">
        <ele>96.8</ele>
        <time>2022-04-05T10:53:13Z</time>
      </trkpt>
      <trkpt lat="44.88991" lon="0.32009">
        <ele>96.8</ele>
        <time>2022-04-05T10:53:14Z</time>
      </trkpt>
      <trkpt lat="44.88992" lon="0.3201">
        <ele>96.8</ele>
        <time>2022-04-05T10:53:15Z</time>
      </trkpt>
      <trkpt lat="44.88994" lon="0.32011">
        <ele>96.7</ele>
        <time>2022-04-05T10:53:16Z</time>
      </trkpt>
      <trkpt lat="44.88995" lon="0.32011">
        <ele>96.7</ele>
        <time>2022-04-05T10:53:17Z</time>
      </trkpt>
      <trkpt lat="44.88996" lon="0.32012">
        <ele>96.7</ele>
        <time>2022-04-05T10:53:18Z</time>
      </trkpt>
      <trkpt lat="44.88998" lon="0.32013">
        <ele>96.6</ele>
        <time>2022-04-05T10:53:20Z</time>
      </trkpt>
      <trkpt lat="44.89001" lon="0.32014">
        <ele>96.6</ele>
        <time>2022-04-05T10:53:21Z</time>
      </trkpt>
      <trkpt lat="44.89001" lon="0.32014">
        <ele>96.6</ele>
        <time>2022-04-05T10:53:22Z</time>
      </trkpt>
      <trkpt lat="44.89002" lon="0.32015">
        <ele>96.5</ele>
        <time>2022-04-05T10:53:23Z</time>
      </trkpt>
      <trkpt lat="44.89003" lon="0.32016">
        <ele>96.5</ele>
        <time>2022-04-05T10:53:24Z</time>
      </trkpt>
      <trkpt lat="44.89005" lon="0.32017">
        <ele>96.5</ele>
        <time>2022-04-05T10:53:25Z</time>
      </trkpt>
      <trkpt lat="44.89006" lon="0.32018">
        <ele>96.4</ele>
        <time>2022-04-05T10:53:26Z</time>
      </trkpt>
      <trkpt lat="44.89007" lon="0.32019">
        <ele>96.4</ele>
        <time>2022-04-05T10:53:27Z</time>
      </trkpt>
      <trkpt lat="44.89009" lon="0.32019">
        <ele>96.3</ele>
        <time>2022-04-05T10:53:28Z</time>
      </trkpt>
      <trkpt lat="44.8901" lon="0.3202">
        <ele>96.3</ele>
        <time>2022-04-05T10:53:29Z</time>
      </trkpt>
      <trkpt lat="44.89012" lon="0.32022">
        <ele>96.2</ele>
        <time>2022-04-05T10:53:31Z</time>
      </trkpt>
      <trkpt lat="44.89014" lon="0.32023">
        <ele>96.1</ele>
        <time>2022-04-05T10:53:32Z</time>
      </trkpt>
      <trkpt lat="44.89015" lon="0.32023">
        <ele>96.1</ele>
        <time>2022-04-05T10:53:33Z</time>
      </trkpt>
      <trkpt lat="44.89016" lon="0.32024">
        <ele>96.1</ele>
        <time>2022-04-05T10:53:34Z</time>
      </trkpt>
      <trkpt lat="44.89017" lon="0.32025">
        <ele>96</ele>
        <time>2022-04-05T10:53:35Z</time>
      </trkpt>
      <trkpt lat="44.89019" lon="0.32026">
        <ele>96</ele>
        <time>2022-04-05T10:53:36Z</time>
      </trkpt>
      <trkpt lat="44.8902" lon="0.32028">
        <ele>95.9</ele>
        <time>2022-04-05T10:53:38Z</time>
      </trkpt>
      <trkpt lat="44.89021" lon="0.32029">
        <ele>95.9</ele>
        <time>2022-04-05T10:53:39Z</time>
      </trkpt>
      <trkpt lat="44.89023" lon="0.3203">
        <ele>95.8</ele>
        <time>2022-04-05T10:53:40Z</time>
      </trkpt>
      <trkpt lat="44.89024" lon="0.32031">
        <ele>95.7</ele>
        <time>2022-04-05T10:53:41Z</time>
      </trkpt>
      <trkpt lat="44.89026" lon="0.32031">
        <ele>95.7</ele>
        <time>2022-04-05T10:53:42Z</time>
      </trkpt>
      <trkpt lat="44.89027" lon="0.32031">
        <ele>95.6</ele>
        <time>2022-04-05T10:53:43Z</time>
      </trkpt>
      <trkpt lat="44.89028" lon="0.32032">
        <ele>95.6</ele>
        <time>2022-04-05T10:53:45Z</time>
      </trkpt>
      <trkpt lat="44.89029" lon="0.32032">
        <ele>95.6</ele>
        <time>2022-04-05T10:53:46Z</time>
      </trkpt>
      <trkpt lat="44.8903" lon="0.32033">
        <ele>95.5</ele>
        <time>2022-04-05T10:53:47Z</time>
      </trkpt>
      <trkpt lat="44.89031" lon="0.32033">
        <ele>95.5</ele>
        <time>2022-04-05T10:53:48Z</time>
      </trkpt>
      <trkpt lat="44.89032" lon="0.32034">
        <ele>95.4</ele>
        <time>2022-04-05T10:53:49Z</time>
      </trkpt>
      <trkpt lat="44.89034" lon="0.32035">
        <ele>95.4</ele>
        <time>2022-04-05T10:53:50Z</time>
      </trkpt>
      <trkpt lat="44.89035" lon="0.32036">
        <ele>95.3</ele>
        <time>2022-04-05T10:53:51Z</time>
      </trkpt>
      <trkpt lat="44.89036" lon="0.32037">
        <ele>95.3</ele>
        <time>2022-04-05T10:53:52Z</time>
      </trkpt>
      <trkpt lat="44.89037" lon="0.32038">
        <ele>95.2</ele>
        <time>2022-04-05T10:53:53Z</time>
      </trkpt>
      <trkpt lat="44.89039" lon="0.32038">
        <ele>95.2</ele>
        <time>2022-04-05T10:53:54Z</time>
      </trkpt>
      <trkpt lat="44.8904" lon="0.32039">
        <ele>95.1</ele>
        <time>2022-04-05T10:53:56Z</time>
      </trkpt>
      <trkpt lat="44.89041" lon="0.32039">
        <ele>95.1</ele>
        <time>2022-04-05T10:53:57Z</time>
      </trkpt>
      <trkpt lat="44.89042" lon="0.3204">
        <ele>95</ele>
        <time>2022-04-05T10:53:58Z</time>
      </trkpt>
      <trkpt lat="44.89043" lon="0.32041">
        <ele>95</ele>
        <time>2022-04-05T10:53:59Z</time>
      </trkpt>
      <trkpt lat="44.89045" lon="0.32042">
        <ele>94.9</ele>
        <time>2022-04-05T10:54:00Z</time>
      </trkpt>
      <trkpt lat="44.89045" lon="0.32042">
        <ele>94.9</ele>
        <time>2022-04-05T10:54:01Z</time>
      </trkpt>
      <trkpt lat="44.89048" lon="0.32042">
        <ele>94.8</ele>
        <time>2022-04-05T10:54:02Z</time>
      </trkpt>
      <trkpt lat="44.89049" lon="0.32043">
        <ele>94.7</ele>
        <time>2022-04-05T10:54:03Z</time>
      </trkpt>
      <trkpt lat="44.8905" lon="0.32043">
        <ele>94.7</ele>
        <time>2022-04-05T10:54:04Z</time>
      </trkpt>
      <trkpt lat="44.89051" lon="0.32043">
        <ele>94.6</ele>
        <time>2022-04-05T10:54:05Z</time>
      </trkpt>
      <trkpt lat="44.89051" lon="0.32043">
        <ele>94.6</ele>
        <time>2022-04-05T10:54:06Z</time>
      </trkpt>
      <trkpt lat="44.89053" lon="0.32044">
        <ele>94.6</ele>
        <time>2022-04-05T10:54:07Z</time>
      </trkpt>
      <trkpt lat="44.89054" lon="0.32045">
        <ele>94.5</ele>
        <time>2022-04-05T10:54:08Z</time>
      </trkpt>
      <trkpt lat="44.89055" lon="0.32045">
        <ele>94.5</ele>
        <time>2022-04-05T10:54:10Z</time>
      </trkpt>
      <trkpt lat="44.89057" lon="0.32046">
        <ele>94.4</ele>
        <time>2022-04-05T10:54:11Z</time>
      </trkpt>
      <trkpt lat="44.89059" lon="0.32047">
        <ele>94.3</ele>
        <time>2022-04-05T10:54:12Z</time>
      </trkpt>
      <trkpt lat="44.8906" lon="0.32047">
        <ele>94.3</ele>
        <time>2022-04-05T10:54:13Z</time>
      </trkpt>
      <trkpt lat="44.89061" lon="0.32048">
        <ele>94.3</ele>
        <time>2022-04-05T10:54:14Z</time>
      </trkpt>
      <trkpt lat="44.89062" lon="0.32048">
        <ele>94.2</ele>
        <time>2022-04-05T10:54:15Z</time>
      </trkpt>
      <trkpt lat="44.89063" lon="0.32049">
        <ele>94.2</ele>
        <time>2022-04-05T10:54:17Z</time>
      </trkpt>
      <trkpt lat="44.89064" lon="0.32049">
        <ele>94.1</ele>
        <time>2022-04-05T10:54:18Z</time>
      </trkpt>
      <trkpt lat="44.89065" lon="0.3205">
        <ele>94.1</ele>
        <time>2022-04-05T10:54:19Z</time>
      </trkpt>
      <trkpt lat="44.89066" lon="0.32051">
        <ele>94</ele>
        <time>2022-04-05T10:54:20Z</time>
      </trkpt>
      <trkpt lat="44.89067" lon="0.32053">
        <ele>94</ele>
        <time>2022-04-05T10:54:22Z</time>
      </trkpt>
      <trkpt lat="44.89069" lon="0.32055">
        <ele>93.9</ele>
        <time>2022-04-05T10:54:23Z</time>
      </trkpt>
      <trkpt lat="44.89069" lon="0.32055">
        <ele>93.9</ele>
        <time>2022-04-05T10:54:24Z</time>
      </trkpt>
      <trkpt lat="44.8907" lon="0.32056">
        <ele>93.8</ele>
        <time>2022-04-05T10:54:25Z</time>
      </trkpt>
      <trkpt lat="44.89071" lon="0.32057">
        <ele>93.8</ele>
        <time>2022-04-05T10:54:26Z</time>
      </trkpt>
      <trkpt lat="44.89072" lon="0.32057">
        <ele>93.8</ele>
        <time>2022-04-05T10:54:27Z</time>
      </trkpt>
      <trkpt lat="44.89073" lon="0.32057">
        <ele>93.7</ele>
        <time>2022-04-05T10:54:28Z</time>
      </trkpt>
      <trkpt lat="44.89074" lon="0.32058">
        <ele>93.7</ele>
        <time>2022-04-05T10:54:29Z</time>
      </trkpt>
      <trkpt lat="44.89076" lon="0.32059">
        <ele>93.6</ele>
        <time>2022-04-05T10:54:30Z</time>
      </trkpt>
      <trkpt lat="44.89077" lon="0.32061">
        <ele>93.6</ele>
        <time>2022-04-05T10:54:31Z</time>
      </trkpt>
      <trkpt lat="44.89078" lon="0.32061">
        <ele>93.5</ele>
        <time>2022-04-05T10:54:32Z</time>
      </trkpt>
      <trkpt lat="44.89079" lon="0.32061">
        <ele>93.5</ele>
        <time>2022-04-05T10:54:33Z</time>
      </trkpt>
      <trkpt lat="44.8908" lon="0.32062">
        <ele>93.5</ele>
        <time>2022-04-05T10:54:34Z</time>
      </trkpt>
      <trkpt lat="44.89081" lon="0.32063">
        <ele>93.4</ele>
        <time>2022-04-05T10:54:35Z</time>
      </trkpt>
      <trkpt lat="44.89082" lon="0.32064">
        <ele>93.4</ele>
        <time>2022-04-05T10:54:36Z</time>
      </trkpt>
      <trkpt lat="44.89083" lon="0.32065">
        <ele>93.4</ele>
        <time>2022-04-05T10:54:37Z</time>
      </trkpt>
      <trkpt lat="44.89085" lon="0.32066">
        <ele>93.3</ele>
        <time>2022-04-05T10:54:39Z</time>
      </trkpt>
      <trkpt lat="44.89087" lon="0.32067">
        <ele>93.2</ele>
        <time>2022-04-05T10:54:40Z</time>
      </trkpt>
      <trkpt lat="44.89088" lon="0.32067">
        <ele>93.2</ele>
        <time>2022-04-05T10:54:41Z</time>
      </trkpt>
      <trkpt lat="44.89089" lon="0.32068">
        <ele>93.2</ele>
        <time>2022-04-05T10:54:42Z</time>
      </trkpt>
      <trkpt lat="44.8909" lon="0.32069">
        <ele>93.1</ele>
        <time>2022-04-05T10:54:43Z</time>
      </trkpt>
      <trkpt lat="44.89093" lon="0.32071">
        <ele>93</ele>
        <time>2022-04-05T10:54:44Z</time>
      </trkpt>
      <trkpt lat="44.89093" lon="0.32071">
        <ele>93</ele>
        <time>2022-04-05T10:54:45Z</time>
      </trkpt>
      <trkpt lat="44.89094" lon="0.32072">
        <ele>93</ele>
        <time>2022-04-05T10:54:46Z</time>
      </trkpt>
      <trkpt lat="44.89096" lon="0.32073">
        <ele>92.9</ele>
        <time>2022-04-05T10:54:48Z</time>
      </trkpt>
      <trkpt lat="44.89097" lon="0.32074">
        <ele>92.9</ele>
        <time>2022-04-05T10:54:49Z</time>
      </trkpt>
      <trkpt lat="44.89099" lon="0.32075">
        <ele>92.8</ele>
        <time>2022-04-05T10:54:50Z</time>
      </trkpt>
      <trkpt lat="44.891" lon="0.32076">
        <ele>92.8</ele>
        <time>2022-04-05T10:54:51Z</time>
      </trkpt>
      <trkpt lat="44.89101" lon="0.32077">
        <ele>92.8</ele>
        <time>2022-04-05T10:54:52Z</time>
      </trkpt>
      <trkpt lat="44.89101" lon="0.32078">
        <ele>92.7</ele>
        <time>2022-04-05T10:54:53Z</time>
      </trkpt>
      <trkpt lat="44.89102" lon="0.32079">
        <ele>92.7</ele>
        <time>2022-04-05T10:54:54Z</time>
      </trkpt>
      <trkpt lat="44.89104" lon="0.32081">
        <ele>92.6</ele>
        <time>2022-04-05T10:54:55Z</time>
      </trkpt>
      <trkpt lat="44.89105" lon="0.32082">
        <ele>92.6</ele>
        <time>2022-04-05T10:54:56Z</time>
      </trkpt>
      <trkpt lat="44.89106" lon="0.32082">
        <ele>92.6</ele>
        <time>2022-04-05T10:54:57Z</time>
      </trkpt>
      <trkpt lat="44.89107" lon="0.32083">
        <ele>92.6</ele>
        <time>2022-04-05T10:54:58Z</time>
      </trkpt>
      <trkpt lat="44.89109" lon="0.32085">
        <ele>92.5</ele>
        <time>2022-04-05T10:54:59Z</time>
      </trkpt>
      <trkpt lat="44.8911" lon="0.32085">
        <ele>92.5</ele>
        <time>2022-04-05T10:55:00Z</time>
      </trkpt>
      <trkpt lat="44.89111" lon="0.32086">
        <ele>92.4</ele>
        <time>2022-04-05T10:55:01Z</time>
      </trkpt>
      <trkpt lat="44.89112" lon="0.32087">
        <ele>92.4</ele>
        <time>2022-04-05T10:55:02Z</time>
      </trkpt>
      <trkpt lat="44.89113" lon="0.32087">
        <ele>92.4</ele>
        <time>2022-04-05T10:55:03Z</time>
      </trkpt>
      <trkpt lat="44.89116" lon="0.32089">
        <ele>92.3</ele>
        <time>2022-04-05T10:55:04Z</time>
      </trkpt>
      <trkpt lat="44.89116" lon="0.3209">
        <ele>92.3</ele>
        <time>2022-04-05T10:55:05Z</time>
      </trkpt>
      <trkpt lat="44.89117" lon="0.32091">
        <ele>92.3</ele>
        <time>2022-04-05T10:55:06Z</time>
      </trkpt>
      <trkpt lat="44.89118" lon="0.32092">
        <ele>92.2</ele>
        <time>2022-04-05T10:55:07Z</time>
      </trkpt>
      <trkpt lat="44.89119" lon="0.32093">
        <ele>92.2</ele>
        <time>2022-04-05T10:55:08Z</time>
      </trkpt>
      <trkpt lat="44.8912" lon="0.32094">
        <ele>92.2</ele>
        <time>2022-04-05T10:55:09Z</time>
      </trkpt>
      <trkpt lat="44.89122" lon="0.32096">
        <ele>92.1</ele>
        <time>2022-04-05T10:55:10Z</time>
      </trkpt>
      <trkpt lat="44.89124" lon="0.32097">
        <ele>92.1</ele>
        <time>2022-04-05T10:55:11Z</time>
      </trkpt>
      <trkpt lat="44.89124" lon="0.32098">
        <ele>92.1</ele>
        <time>2022-04-05T10:55:13Z</time>
      </trkpt>
      <trkpt lat="44.89125" lon="0.32099">
        <ele>92</ele>
        <time>2022-04-05T10:55:14Z</time>
      </trkpt>
      <trkpt lat="44.89127" lon="0.32101">
        <ele>92</ele>
        <time>2022-04-05T10:55:15Z</time>
      </trkpt>
      <trkpt lat="44.89128" lon="0.32103">
        <ele>92</ele>
        <time>2022-04-05T10:55:16Z</time>
      </trkpt>
      <trkpt lat="44.89129" lon="0.32104">
        <ele>91.9</ele>
        <time>2022-04-05T10:55:17Z</time>
      </trkpt>
      <trkpt lat="44.89129" lon="0.32105">
        <ele>91.9</ele>
        <time>2022-04-05T10:55:18Z</time>
      </trkpt>
      <trkpt lat="44.8913" lon="0.32106">
        <ele>91.9</ele>
        <time>2022-04-05T10:55:19Z</time>
      </trkpt>
      <trkpt lat="44.89132" lon="0.32109">
        <ele>91.9</ele>
        <time>2022-04-05T10:55:20Z</time>
      </trkpt>
      <trkpt lat="44.89132" lon="0.32109">
        <ele>91.8</ele>
        <time>2022-04-05T10:55:21Z</time>
      </trkpt>
      <trkpt lat="44.89133" lon="0.3211">
        <ele>91.8</ele>
        <time>2022-04-05T10:55:22Z</time>
      </trkpt>
      <trkpt lat="44.89133" lon="0.32112">
        <ele>91.8</ele>
        <time>2022-04-05T10:55:23Z</time>
      </trkpt>
      <trkpt lat="44.89136" lon="0.32114">
        <ele>91.8</ele>
        <time>2022-04-05T10:55:24Z</time>
      </trkpt>
      <trkpt lat="44.89136" lon="0.32115">
        <ele>91.8</ele>
        <time>2022-04-05T10:55:25Z</time>
      </trkpt>
      <trkpt lat="44.89137" lon="0.32116">
        <ele>91.8</ele>
        <time>2022-04-05T10:55:26Z</time>
      </trkpt>
      <trkpt lat="44.89138" lon="0.32117">
        <ele>91.7</ele>
        <time>2022-04-05T10:55:27Z</time>
      </trkpt>
      <trkpt lat="44.89139" lon="0.32119">
        <ele>91.7</ele>
        <time>2022-04-05T10:55:28Z</time>
      </trkpt>
      <trkpt lat="44.89141" lon="0.32121">
        <ele>91.7</ele>
        <time>2022-04-05T10:55:29Z</time>
      </trkpt>
      <trkpt lat="44.89142" lon="0.32121">
        <ele>91.7</ele>
        <time>2022-04-05T10:55:30Z</time>
      </trkpt>
      <trkpt lat="44.89143" lon="0.32123">
        <ele>91.7</ele>
        <time>2022-04-05T10:55:31Z</time>
      </trkpt>
      <trkpt lat="44.89144" lon="0.32123">
        <ele>91.7</ele>
        <time>2022-04-05T10:55:32Z</time>
      </trkpt>
      <trkpt lat="44.89145" lon="0.32123">
        <ele>91.7</ele>
        <time>2022-04-05T10:55:33Z</time>
      </trkpt>
      <trkpt lat="44.89146" lon="0.32124">
        <ele>91.7</ele>
        <time>2022-04-05T10:55:34Z</time>
      </trkpt>
      <trkpt lat="44.89148" lon="0.32125">
        <ele>91.6</ele>
        <time>2022-04-05T10:55:35Z</time>
      </trkpt>
      <trkpt lat="44.89148" lon="0.32126">
        <ele>91.6</ele>
        <time>2022-04-05T10:55:36Z</time>
      </trkpt>
      <trkpt lat="44.89149" lon="0.32127">
        <ele>91.6</ele>
        <time>2022-04-05T10:55:37Z</time>
      </trkpt>
      <trkpt lat="44.8915" lon="0.32128">
        <ele>91.6</ele>
        <time>2022-04-05T10:55:38Z</time>
      </trkpt>
      <trkpt lat="44.89152" lon="0.32131">
        <ele>91.6</ele>
        <time>2022-04-05T10:55:40Z</time>
      </trkpt>
      <trkpt lat="44.89153" lon="0.32131">
        <ele>91.6</ele>
        <time>2022-04-05T10:55:41Z</time>
      </trkpt>
      <trkpt lat="44.89154" lon="0.32132">
        <ele>91.6</ele>
        <time>2022-04-05T10:55:42Z</time>
      </trkpt>
      <trkpt lat="44.89155" lon="0.32133">
        <ele>91.6</ele>
        <time>2022-04-05T10:55:43Z</time>
      </trkpt>
      <trkpt lat="44.89156" lon="0.32134">
        <ele>91.6</ele>
        <time>2022-04-05T10:55:44Z</time>
      </trkpt>
      <trkpt lat="44.89158" lon="0.32135">
        <ele>91.6</ele>
        <time>2022-04-05T10:55:46Z</time>
      </trkpt>
      <trkpt lat="44.89159" lon="0.32136">
        <ele>91.6</ele>
        <time>2022-04-05T10:55:47Z</time>
      </trkpt>
      <trkpt lat="44.89161" lon="0.32137">
        <ele>91.7</ele>
        <time>2022-04-05T10:55:48Z</time>
      </trkpt>
      <trkpt lat="44.89162" lon="0.32138">
        <ele>91.7</ele>
        <time>2022-04-05T10:55:49Z</time>
      </trkpt>
      <trkpt lat="44.89163" lon="0.32139">
        <ele>91.7</ele>
        <time>2022-04-05T10:55:50Z</time>
      </trkpt>
      <trkpt lat="44.89164" lon="0.32139">
        <ele>91.7</ele>
        <time>2022-04-05T10:55:51Z</time>
      </trkpt>
      <trkpt lat="44.89165" lon="0.3214">
        <ele>91.7</ele>
        <time>2022-04-05T10:55:52Z</time>
      </trkpt>
      <trkpt lat="44.89166" lon="0.32141">
        <ele>91.7</ele>
        <time>2022-04-05T10:55:53Z</time>
      </trkpt>
      <trkpt lat="44.89167" lon="0.32143">
        <ele>91.7</ele>
        <time>2022-04-05T10:55:54Z</time>
      </trkpt>
      <trkpt lat="44.89168" lon="0.32144">
        <ele>91.7</ele>
        <time>2022-04-05T10:55:55Z</time>
      </trkpt>
      <trkpt lat="44.89169" lon="0.32146">
        <ele>91.7</ele>
        <time>2022-04-05T10:55:56Z</time>
      </trkpt>
      <trkpt lat="44.8917" lon="0.32146">
        <ele>91.7</ele>
        <time>2022-04-05T10:55:58Z</time>
      </trkpt>
      <trkpt lat="44.89171" lon="0.32147">
        <ele>91.7</ele>
        <time>2022-04-05T10:55:59Z</time>
      </trkpt>
      <trkpt lat="44.89173" lon="0.32149">
        <ele>91.8</ele>
        <time>2022-04-05T10:56:00Z</time>
      </trkpt>
      <trkpt lat="44.89173" lon="0.3215">
        <ele>91.8</ele>
        <time>2022-04-05T10:56:01Z</time>
      </trkpt>
      <trkpt lat="44.89174" lon="0.3215">
        <ele>91.8</ele>
        <time>2022-04-05T10:56:02Z</time>
      </trkpt>
      <trkpt lat="44.89175" lon="0.32151">
        <ele>91.8</ele>
        <time>2022-04-05T10:56:03Z</time>
      </trkpt>
      <trkpt lat="44.89176" lon="0.32153">
        <ele>91.8</ele>
        <time>2022-04-05T10:56:04Z</time>
      </trkpt>
      <trkpt lat="44.89177" lon="0.32155">
        <ele>91.8</ele>
        <time>2022-04-05T10:56:05Z</time>
      </trkpt>
      <trkpt lat="44.89178" lon="0.32156">
        <ele>91.8</ele>
        <time>2022-04-05T10:56:06Z</time>
      </trkpt>
      <trkpt lat="44.89179" lon="0.32157">
        <ele>91.8</ele>
        <time>2022-04-05T10:56:07Z</time>
      </trkpt>
      <trkpt lat="44.8918" lon="0.32158">
        <ele>91.8</ele>
        <time>2022-04-05T10:56:09Z</time>
      </trkpt>
      <trkpt lat="44.89182" lon="0.3216">
        <ele>91.9</ele>
        <time>2022-04-05T10:56:10Z</time>
      </trkpt>
      <trkpt lat="44.89182" lon="0.3216">
        <ele>91.9</ele>
        <time>2022-04-05T10:56:11Z</time>
      </trkpt>
      <trkpt lat="44.89183" lon="0.32161">
        <ele>91.9</ele>
        <time>2022-04-05T10:56:12Z</time>
      </trkpt>
      <trkpt lat="44.89184" lon="0.32162">
        <ele>91.9</ele>
        <time>2022-04-05T10:56:13Z</time>
      </trkpt>
      <trkpt lat="44.89185" lon="0.32163">
        <ele>91.9</ele>
        <time>2022-04-05T10:56:14Z</time>
      </trkpt>
      <trkpt lat="44.89186" lon="0.32164">
        <ele>92</ele>
        <time>2022-04-05T10:56:15Z</time>
      </trkpt>
      <trkpt lat="44.89187" lon="0.32165">
        <ele>92</ele>
        <time>2022-04-05T10:56:16Z</time>
      </trkpt>
      <trkpt lat="44.89189" lon="0.32167">
        <ele>92</ele>
        <time>2022-04-05T10:56:17Z</time>
      </trkpt>
      <trkpt lat="44.89189" lon="0.32168">
        <ele>92</ele>
        <time>2022-04-05T10:56:18Z</time>
      </trkpt>
      <trkpt lat="44.8919" lon="0.32169">
        <ele>92</ele>
        <time>2022-04-05T10:56:19Z</time>
      </trkpt>
      <trkpt lat="44.89192" lon="0.3217">
        <ele>92.1</ele>
        <time>2022-04-05T10:56:20Z</time>
      </trkpt>
      <trkpt lat="44.89193" lon="0.3217">
        <ele>92.1</ele>
        <time>2022-04-05T10:56:21Z</time>
      </trkpt>
      <trkpt lat="44.89193" lon="0.32171">
        <ele>92.1</ele>
        <time>2022-04-05T10:56:22Z</time>
      </trkpt>
      <trkpt lat="44.89196" lon="0.32172">
        <ele>92.2</ele>
        <time>2022-04-05T10:56:23Z</time>
      </trkpt>
      <trkpt lat="44.89197" lon="0.32173">
        <ele>92.2</ele>
        <time>2022-04-05T10:56:24Z</time>
      </trkpt>
      <trkpt lat="44.89198" lon="0.32173">
        <ele>92.2</ele>
        <time>2022-04-05T10:56:25Z</time>
      </trkpt>
      <trkpt lat="44.89198" lon="0.32174">
        <ele>92.2</ele>
        <time>2022-04-05T10:56:27Z</time>
      </trkpt>
      <trkpt lat="44.892" lon="0.32175">
        <ele>92.2</ele>
        <time>2022-04-05T10:56:28Z</time>
      </trkpt>
      <trkpt lat="44.89201" lon="0.32175">
        <ele>92.3</ele>
        <time>2022-04-05T10:56:29Z</time>
      </trkpt>
      <trkpt lat="44.89203" lon="0.32176">
        <ele>92.3</ele>
        <time>2022-04-05T10:56:30Z</time>
      </trkpt>
      <trkpt lat="44.89203" lon="0.32177">
        <ele>92.3</ele>
        <time>2022-04-05T10:56:31Z</time>
      </trkpt>
      <trkpt lat="44.89205" lon="0.32179">
        <ele>92.4</ele>
        <time>2022-04-05T10:56:32Z</time>
      </trkpt>
      <trkpt lat="44.89206" lon="0.3218">
        <ele>92.4</ele>
        <time>2022-04-05T10:56:34Z</time>
      </trkpt>
      <trkpt lat="44.89207" lon="0.32181">
        <ele>92.4</ele>
        <time>2022-04-05T10:56:35Z</time>
      </trkpt>
      <trkpt lat="44.89208" lon="0.32182">
        <ele>92.4</ele>
        <time>2022-04-05T10:56:36Z</time>
      </trkpt>
      <trkpt lat="44.89209" lon="0.32182">
        <ele>92.5</ele>
        <time>2022-04-05T10:56:37Z</time>
      </trkpt>
      <trkpt lat="44.8921" lon="0.32183">
        <ele>92.5</ele>
        <time>2022-04-05T10:56:38Z</time>
      </trkpt>
      <trkpt lat="44.8921" lon="0.32183">
        <ele>92.5</ele>
        <time>2022-04-05T10:56:39Z</time>
      </trkpt>
      <trkpt lat="44.89213" lon="0.32184">
        <ele>92.5</ele>
        <time>2022-04-05T10:56:40Z</time>
      </trkpt>
      <trkpt lat="44.89213" lon="0.32184">
        <ele>92.6</ele>
        <time>2022-04-05T10:56:41Z</time>
      </trkpt>
      <trkpt lat="44.89214" lon="0.32184">
        <ele>92.6</ele>
        <time>2022-04-05T10:56:42Z</time>
      </trkpt>
      <trkpt lat="44.89216" lon="0.32185">
        <ele>92.6</ele>
        <time>2022-04-05T10:56:43Z</time>
      </trkpt>
      <trkpt lat="44.89217" lon="0.32185">
        <ele>92.6</ele>
        <time>2022-04-05T10:56:45Z</time>
      </trkpt>
      <trkpt lat="44.89218" lon="0.32186">
        <ele>92.6</ele>
        <time>2022-04-05T10:56:46Z</time>
      </trkpt>
      <trkpt lat="44.89219" lon="0.32186">
        <ele>92.7</ele>
        <time>2022-04-05T10:56:47Z</time>
      </trkpt>
      <trkpt lat="44.8922" lon="0.32186">
        <ele>92.7</ele>
        <time>2022-04-05T10:56:48Z</time>
      </trkpt>
      <trkpt lat="44.89221" lon="0.32187">
        <ele>92.7</ele>
        <time>2022-04-05T10:56:49Z</time>
      </trkpt>
      <trkpt lat="44.89223" lon="0.32188">
        <ele>92.8</ele>
        <time>2022-04-05T10:56:50Z</time>
      </trkpt>
      <trkpt lat="44.89224" lon="0.32188">
        <ele>92.8</ele>
        <time>2022-04-05T10:56:51Z</time>
      </trkpt>
      <trkpt lat="44.89225" lon="0.32188">
        <ele>92.8</ele>
        <time>2022-04-05T10:56:52Z</time>
      </trkpt>
      <trkpt lat="44.89226" lon="0.32189">
        <ele>92.8</ele>
        <time>2022-04-05T10:56:54Z</time>
      </trkpt>
      <trkpt lat="44.89228" lon="0.3219">
        <ele>92.9</ele>
        <time>2022-04-05T10:56:55Z</time>
      </trkpt>
      <trkpt lat="44.89229" lon="0.32191">
        <ele>92.9</ele>
        <time>2022-04-05T10:56:56Z</time>
      </trkpt>
      <trkpt lat="44.8923" lon="0.32191">
        <ele>92.9</ele>
        <time>2022-04-05T10:56:57Z</time>
      </trkpt>
      <trkpt lat="44.89231" lon="0.32191">
        <ele>92.9</ele>
        <time>2022-04-05T10:56:58Z</time>
      </trkpt>
      <trkpt lat="44.89231" lon="0.32192">
        <ele>92.9</ele>
        <time>2022-04-05T10:56:59Z</time>
      </trkpt>
      <trkpt lat="44.89233" lon="0.32193">
        <ele>92.9</ele>
        <time>2022-04-05T10:57:00Z</time>
      </trkpt>
      <trkpt lat="44.89234" lon="0.32193">
        <ele>92.9</ele>
        <time>2022-04-05T10:57:01Z</time>
      </trkpt>
      <trkpt lat="44.89235" lon="0.32194">
        <ele>92.9</ele>
        <time>2022-04-05T10:57:02Z</time>
      </trkpt>
      <trkpt lat="44.89236" lon="0.32195">
        <ele>92.9</ele>
        <time>2022-04-05T10:57:03Z</time>
      </trkpt>
      <trkpt lat="44.89236" lon="0.32196">
        <ele>92.8</ele>
        <time>2022-04-05T10:57:04Z</time>
      </trkpt>
      <trkpt lat="44.89239" lon="0.32197">
        <ele>92.8</ele>
        <time>2022-04-05T10:57:05Z</time>
      </trkpt>
      <trkpt lat="44.89239" lon="0.32198">
        <ele>92.8</ele>
        <time>2022-04-05T10:57:06Z</time>
      </trkpt>
      <trkpt lat="44.8924" lon="0.32199">
        <ele>92.8</ele>
        <time>2022-04-05T10:57:07Z</time>
      </trkpt>
      <trkpt lat="44.89241" lon="0.32199">
        <ele>92.8</ele>
        <time>2022-04-05T10:57:08Z</time>
      </trkpt>
      <trkpt lat="44.89242" lon="0.322">
        <ele>92.7</ele>
        <time>2022-04-05T10:57:09Z</time>
      </trkpt>
      <trkpt lat="44.89244" lon="0.32201">
        <ele>92.7</ele>
        <time>2022-04-05T10:57:11Z</time>
      </trkpt>
      <trkpt lat="44.89245" lon="0.32202">
        <ele>92.7</ele>
        <time>2022-04-05T10:57:12Z</time>
      </trkpt>
      <trkpt lat="44.89247" lon="0.32203">
        <ele>92.6</ele>
        <time>2022-04-05T10:57:13Z</time>
      </trkpt>
      <trkpt lat="44.89248" lon="0.32203">
        <ele>92.6</ele>
        <time>2022-04-05T10:57:14Z</time>
      </trkpt>
      <trkpt lat="44.89249" lon="0.32204">
        <ele>92.6</ele>
        <time>2022-04-05T10:57:15Z</time>
      </trkpt>
      <trkpt lat="44.8925" lon="0.32205">
        <ele>92.5</ele>
        <time>2022-04-05T10:57:17Z</time>
      </trkpt>
      <trkpt lat="44.89251" lon="0.32205">
        <ele>92.5</ele>
        <time>2022-04-05T10:57:18Z</time>
      </trkpt>
      <trkpt lat="44.89253" lon="0.32205">
        <ele>92.5</ele>
        <time>2022-04-05T10:57:19Z</time>
      </trkpt>
      <trkpt lat="44.89255" lon="0.32206">
        <ele>92.4</ele>
        <time>2022-04-05T10:57:20Z</time>
      </trkpt>
      <trkpt lat="44.89255" lon="0.32207">
        <ele>92.4</ele>
        <time>2022-04-05T10:57:21Z</time>
      </trkpt>
      <trkpt lat="44.89257" lon="0.32207">
        <ele>92.4</ele>
        <time>2022-04-05T10:57:22Z</time>
      </trkpt>
      <trkpt lat="44.89258" lon="0.32207">
        <ele>92.3</ele>
        <time>2022-04-05T10:57:24Z</time>
      </trkpt>
      <trkpt lat="44.89259" lon="0.32207">
        <ele>92.3</ele>
        <time>2022-04-05T10:57:25Z</time>
      </trkpt>
      <trkpt lat="44.89261" lon="0.32208">
        <ele>92.3</ele>
        <time>2022-04-05T10:57:26Z</time>
      </trkpt>
      <trkpt lat="44.89263" lon="0.3221">
        <ele>92.2</ele>
        <time>2022-04-05T10:57:27Z</time>
      </trkpt>
      <trkpt lat="44.89264" lon="0.3221">
        <ele>92.2</ele>
        <time>2022-04-05T10:57:28Z</time>
      </trkpt>
      <trkpt lat="44.89264" lon="0.32211">
        <ele>92.2</ele>
        <time>2022-04-05T10:57:29Z</time>
      </trkpt>
      <trkpt lat="44.89266" lon="0.32213">
        <ele>92.1</ele>
        <time>2022-04-05T10:57:30Z</time>
      </trkpt>
      <trkpt lat="44.89267" lon="0.32213">
        <ele>92.1</ele>
        <time>2022-04-05T10:57:31Z</time>
      </trkpt>
      <trkpt lat="44.89268" lon="0.32215">
        <ele>92</ele>
        <time>2022-04-05T10:57:32Z</time>
      </trkpt>
      <trkpt lat="44.89269" lon="0.32216">
        <ele>92</ele>
        <time>2022-04-05T10:57:33Z</time>
      </trkpt>
      <trkpt lat="44.89271" lon="0.32218">
        <ele>91.9</ele>
        <time>2022-04-05T10:57:34Z</time>
      </trkpt>
      <trkpt lat="44.89272" lon="0.32219">
        <ele>91.9</ele>
        <time>2022-04-05T10:57:36Z</time>
      </trkpt>
      <trkpt lat="44.89272" lon="0.32219">
        <ele>91.9</ele>
        <time>2022-04-05T10:57:37Z</time>
      </trkpt>
      <trkpt lat="44.89274" lon="0.3222">
        <ele>91.9</ele>
        <time>2022-04-05T10:57:38Z</time>
      </trkpt>
      <trkpt lat="44.89274" lon="0.32221">
        <ele>91.8</ele>
        <time>2022-04-05T10:57:39Z</time>
      </trkpt>
      <trkpt lat="44.89276" lon="0.32222">
        <ele>91.8</ele>
        <time>2022-04-05T10:57:40Z</time>
      </trkpt>
      <trkpt lat="44.89277" lon="0.32222">
        <ele>91.8</ele>
        <time>2022-04-05T10:57:41Z</time>
      </trkpt>
      <trkpt lat="44.89278" lon="0.32223">
        <ele>91.7</ele>
        <time>2022-04-05T10:57:43Z</time>
      </trkpt>
      <trkpt lat="44.8928" lon="0.32224">
        <ele>91.6</ele>
        <time>2022-04-05T10:57:44Z</time>
      </trkpt>
      <trkpt lat="44.89281" lon="0.32224">
        <ele>91.6</ele>
        <time>2022-04-05T10:57:45Z</time>
      </trkpt>
      <trkpt lat="44.89282" lon="0.32224">
        <ele>91.6</ele>
        <time>2022-04-05T10:57:46Z</time>
      </trkpt>
      <trkpt lat="44.89283" lon="0.32225">
        <ele>91.6</ele>
        <time>2022-04-05T10:57:47Z</time>
      </trkpt>
      <trkpt lat="44.89284" lon="0.32225">
        <ele>91.5</ele>
        <time>2022-04-05T10:57:48Z</time>
      </trkpt>
      <trkpt lat="44.89285" lon="0.32226">
        <ele>91.5</ele>
        <time>2022-04-05T10:57:49Z</time>
      </trkpt>
      <trkpt lat="44.89287" lon="0.32227">
        <ele>91.4</ele>
        <time>2022-04-05T10:57:50Z</time>
      </trkpt>
      <trkpt lat="44.89288" lon="0.32228">
        <ele>91.4</ele>
        <time>2022-04-05T10:57:52Z</time>
      </trkpt>
      <trkpt lat="44.89289" lon="0.32228">
        <ele>91.4</ele>
        <time>2022-04-05T10:57:53Z</time>
      </trkpt>
      <trkpt lat="44.8929" lon="0.32229">
        <ele>91.3</ele>
        <time>2022-04-05T10:57:54Z</time>
      </trkpt>
      <trkpt lat="44.89291" lon="0.3223">
        <ele>91.3</ele>
        <time>2022-04-05T10:57:55Z</time>
      </trkpt>
      <trkpt lat="44.89292" lon="0.32231">
        <ele>91.3</ele>
        <time>2022-04-05T10:57:56Z</time>
      </trkpt>
      <trkpt lat="44.89293" lon="0.32231">
        <ele>91.2</ele>
        <time>2022-04-05T10:57:57Z</time>
      </trkpt>
      <trkpt lat="44.89294" lon="0.32231">
        <ele>91.2</ele>
        <time>2022-04-05T10:57:58Z</time>
      </trkpt>
      <trkpt lat="44.89296" lon="0.32232">
        <ele>91.2</ele>
        <time>2022-04-05T10:57:59Z</time>
      </trkpt>
      <trkpt lat="44.89297" lon="0.32233">
        <ele>91.1</ele>
        <time>2022-04-05T10:58:00Z</time>
      </trkpt>
      <trkpt lat="44.89298" lon="0.32233">
        <ele>91.1</ele>
        <time>2022-04-05T10:58:01Z</time>
      </trkpt>
      <trkpt lat="44.89298" lon="0.32234">
        <ele>91.1</ele>
        <time>2022-04-05T10:58:02Z</time>
      </trkpt>
      <trkpt lat="44.893" lon="0.32235">
        <ele>91.1</ele>
        <time>2022-04-05T10:58:03Z</time>
      </trkpt>
      <trkpt lat="44.89301" lon="0.32235">
        <ele>91</ele>
        <time>2022-04-05T10:58:04Z</time>
      </trkpt>
      <trkpt lat="44.89303" lon="0.32236">
        <ele>91</ele>
        <time>2022-04-05T10:58:05Z</time>
      </trkpt>
      <trkpt lat="44.89304" lon="0.32237">
        <ele>91</ele>
        <time>2022-04-05T10:58:07Z</time>
      </trkpt>
      <trkpt lat="44.89307" lon="0.32239">
        <ele>90.9</ele>
        <time>2022-04-05T10:58:08Z</time>
      </trkpt>
      <trkpt lat="44.89308" lon="0.32239">
        <ele>90.9</ele>
        <time>2022-04-05T10:58:09Z</time>
      </trkpt>
      <trkpt lat="44.89309" lon="0.3224">
        <ele>90.9</ele>
        <time>2022-04-05T10:58:10Z</time>
      </trkpt>
      <trkpt lat="44.8931" lon="0.32241">
        <ele>90.9</ele>
        <time>2022-04-05T10:58:11Z</time>
      </trkpt>
      <trkpt lat="44.89311" lon="0.32242">
        <ele>90.9</ele>
        <time>2022-04-05T10:58:12Z</time>
      </trkpt>
      <trkpt lat="44.89311" lon="0.32242">
        <ele>90.8</ele>
        <time>2022-04-05T10:58:13Z</time>
      </trkpt>
      <trkpt lat="44.89312" lon="0.32243">
        <ele>90.8</ele>
        <time>2022-04-05T10:58:14Z</time>
      </trkpt>
      <trkpt lat="44.89314" lon="0.32244">
        <ele>90.8</ele>
        <time>2022-04-05T10:58:16Z</time>
      </trkpt>
      <trkpt lat="44.89316" lon="0.32244">
        <ele>90.8</ele>
        <time>2022-04-05T10:58:17Z</time>
      </trkpt>
      <trkpt lat="44.89318" lon="0.32245">
        <ele>90.8</ele>
        <time>2022-04-05T10:58:18Z</time>
      </trkpt>
      <trkpt lat="44.89319" lon="0.32245">
        <ele>90.8</ele>
        <time>2022-04-05T10:58:19Z</time>
      </trkpt>
      <trkpt lat="44.89319" lon="0.32246">
        <ele>90.7</ele>
        <time>2022-04-05T10:58:20Z</time>
      </trkpt>
      <trkpt lat="44.89322" lon="0.32247">
        <ele>90.7</ele>
        <time>2022-04-05T10:58:21Z</time>
      </trkpt>
      <trkpt lat="44.89322" lon="0.32247">
        <ele>90.7</ele>
        <time>2022-04-05T10:58:22Z</time>
      </trkpt>
      <trkpt lat="44.89323" lon="0.32247">
        <ele>90.7</ele>
        <time>2022-04-05T10:58:23Z</time>
      </trkpt>
      <trkpt lat="44.89324" lon="0.32248">
        <ele>90.7</ele>
        <time>2022-04-05T10:58:24Z</time>
      </trkpt>
      <trkpt lat="44.89325" lon="0.32249">
        <ele>90.7</ele>
        <time>2022-04-05T10:58:25Z</time>
      </trkpt>
      <trkpt lat="44.89327" lon="0.3225">
        <ele>90.7</ele>
        <time>2022-04-05T10:58:26Z</time>
      </trkpt>
      <trkpt lat="44.89328" lon="0.3225">
        <ele>90.7</ele>
        <time>2022-04-05T10:58:27Z</time>
      </trkpt>
      <trkpt lat="44.8933" lon="0.32252">
        <ele>90.6</ele>
        <time>2022-04-05T10:58:28Z</time>
      </trkpt>
      <trkpt lat="44.89331" lon="0.32252">
        <ele>90.6</ele>
        <time>2022-04-05T10:58:29Z</time>
      </trkpt>
      <trkpt lat="44.89332" lon="0.32253">
        <ele>90.6</ele>
        <time>2022-04-05T10:58:30Z</time>
      </trkpt>
      <trkpt lat="44.89333" lon="0.32253">
        <ele>90.6</ele>
        <time>2022-04-05T10:58:32Z</time>
      </trkpt>
      <trkpt lat="44.89335" lon="0.32254">
        <ele>90.6</ele>
        <time>2022-04-05T10:58:33Z</time>
      </trkpt>
      <trkpt lat="44.89336" lon="0.32254">
        <ele>90.5</ele>
        <time>2022-04-05T10:58:34Z</time>
      </trkpt>
      <trkpt lat="44.89338" lon="0.32255">
        <ele>90.5</ele>
        <time>2022-04-05T10:58:36Z</time>
      </trkpt>
      <trkpt lat="44.8934" lon="0.32256">
        <ele>90.5</ele>
        <time>2022-04-05T10:58:37Z</time>
      </trkpt>
      <trkpt lat="44.89341" lon="0.32256">
        <ele>90.5</ele>
        <time>2022-04-05T10:58:38Z</time>
      </trkpt>
      <trkpt lat="44.89344" lon="0.32257">
        <ele>90.4</ele>
        <time>2022-04-05T10:58:39Z</time>
      </trkpt>
      <trkpt lat="44.89345" lon="0.32258">
        <ele>90.4</ele>
        <time>2022-04-05T10:58:40Z</time>
      </trkpt>
      <trkpt lat="44.89346" lon="0.32259">
        <ele>90.4</ele>
        <time>2022-04-05T10:58:41Z</time>
      </trkpt>
      <trkpt lat="44.89347" lon="0.32259">
        <ele>90.4</ele>
        <time>2022-04-05T10:58:42Z</time>
      </trkpt>
      <trkpt lat="44.89347" lon="0.32259">
        <ele>90.4</ele>
        <time>2022-04-05T10:58:43Z</time>
      </trkpt>
      <trkpt lat="44.89348" lon="0.3226">
        <ele>90.4</ele>
        <time>2022-04-05T10:58:44Z</time>
      </trkpt>
      <trkpt lat="44.8935" lon="0.32261">
        <ele>90.3</ele>
        <time>2022-04-05T10:58:46Z</time>
      </trkpt>
      <trkpt lat="44.89351" lon="0.32262">
        <ele>90.3</ele>
        <time>2022-04-05T10:58:47Z</time>
      </trkpt>
      <trkpt lat="44.89353" lon="0.32262">
        <ele>90.3</ele>
        <time>2022-04-05T10:58:48Z</time>
      </trkpt>
      <trkpt lat="44.89354" lon="0.32262">
        <ele>90.3</ele>
        <time>2022-04-05T10:58:49Z</time>
      </trkpt>
      <trkpt lat="44.89356" lon="0.32263">
        <ele>90.2</ele>
        <time>2022-04-05T10:58:51Z</time>
      </trkpt>
      <trkpt lat="44.89358" lon="0.32265">
        <ele>90.2</ele>
        <time>2022-04-05T10:58:52Z</time>
      </trkpt>
      <trkpt lat="44.89359" lon="0.32265">
        <ele>90.2</ele>
        <time>2022-04-05T10:58:53Z</time>
      </trkpt>
      <trkpt lat="44.8936" lon="0.32265">
        <ele>90.2</ele>
        <time>2022-04-05T10:58:54Z</time>
      </trkpt>
      <trkpt lat="44.89361" lon="0.32266">
        <ele>90.2</ele>
        <time>2022-04-05T10:58:55Z</time>
      </trkpt>
      <trkpt lat="44.89363" lon="0.32266">
        <ele>90.1</ele>
        <time>2022-04-05T10:58:56Z</time>
      </trkpt>
      <trkpt lat="44.89365" lon="0.32267">
        <ele>90.1</ele>
        <time>2022-04-05T10:58:57Z</time>
      </trkpt>
      <trkpt lat="44.89365" lon="0.32268">
        <ele>90.1</ele>
        <time>2022-04-05T10:58:58Z</time>
      </trkpt>
      <trkpt lat="44.89366" lon="0.32268">
        <ele>90.1</ele>
        <time>2022-04-05T10:58:59Z</time>
      </trkpt>
      <trkpt lat="44.89367" lon="0.32268">
        <ele>90.1</ele>
        <time>2022-04-05T10:59:00Z</time>
      </trkpt>
      <trkpt lat="44.89369" lon="0.3227">
        <ele>90</ele>
        <time>2022-04-05T10:59:01Z</time>
      </trkpt>
      <trkpt lat="44.89371" lon="0.32271">
        <ele>90</ele>
        <time>2022-04-05T10:59:02Z</time>
      </trkpt>
      <trkpt lat="44.89372" lon="0.32271">
        <ele>90</ele>
        <time>2022-04-05T10:59:03Z</time>
      </trkpt>
      <trkpt lat="44.89373" lon="0.32272">
        <ele>90</ele>
        <time>2022-04-05T10:59:04Z</time>
      </trkpt>
      <trkpt lat="44.89375" lon="0.32273">
        <ele>89.9</ele>
        <time>2022-04-05T10:59:05Z</time>
      </trkpt>
      <trkpt lat="44.89376" lon="0.32274">
        <ele>89.9</ele>
        <time>2022-04-05T10:59:07Z</time>
      </trkpt>
      <trkpt lat="44.89377" lon="0.32275">
        <ele>89.9</ele>
        <time>2022-04-05T10:59:08Z</time>
      </trkpt>
      <trkpt lat="44.89378" lon="0.32275">
        <ele>89.9</ele>
        <time>2022-04-05T10:59:09Z</time>
      </trkpt>
      <trkpt lat="44.89379" lon="0.32276">
        <ele>89.9</ele>
        <time>2022-04-05T10:59:10Z</time>
      </trkpt>
      <trkpt lat="44.89381" lon="0.32278">
        <ele>89.8</ele>
        <time>2022-04-05T10:59:11Z</time>
      </trkpt>
      <trkpt lat="44.89382" lon="0.32279">
        <ele>89.8</ele>
        <time>2022-04-05T10:59:12Z</time>
      </trkpt>
      <trkpt lat="44.89383" lon="0.3228">
        <ele>89.8</ele>
        <time>2022-04-05T10:59:13Z</time>
      </trkpt>
      <trkpt lat="44.89384" lon="0.32281">
        <ele>89.8</ele>
        <time>2022-04-05T10:59:14Z</time>
      </trkpt>
      <trkpt lat="44.89386" lon="0.32283">
        <ele>89.8</ele>
        <time>2022-04-05T10:59:15Z</time>
      </trkpt>
      <trkpt lat="44.89387" lon="0.32283">
        <ele>89.8</ele>
        <time>2022-04-05T10:59:16Z</time>
      </trkpt>
      <trkpt lat="44.89388" lon="0.32284">
        <ele>89.7</ele>
        <time>2022-04-05T10:59:17Z</time>
      </trkpt>
      <trkpt lat="44.89389" lon="0.32285">
        <ele>89.7</ele>
        <time>2022-04-05T10:59:18Z</time>
      </trkpt>
      <trkpt lat="44.89392" lon="0.32287">
        <ele>89.7</ele>
        <time>2022-04-05T10:59:20Z</time>
      </trkpt>
      <trkpt lat="44.89392" lon="0.32288">
        <ele>89.7</ele>
        <time>2022-04-05T10:59:21Z</time>
      </trkpt>
      <trkpt lat="44.89393" lon="0.32289">
        <ele>89.7</ele>
        <time>2022-04-05T10:59:22Z</time>
      </trkpt>
      <trkpt lat="44.89393" lon="0.32291">
        <ele>89.7</ele>
        <time>2022-04-05T10:59:23Z</time>
      </trkpt>
      <trkpt lat="44.89394" lon="0.32293">
        <ele>89.6</ele>
        <time>2022-04-05T10:59:25Z</time>
      </trkpt>
      <trkpt lat="44.89396" lon="0.32295">
        <ele>89.6</ele>
        <time>2022-04-05T10:59:26Z</time>
      </trkpt>
      <trkpt lat="44.89396" lon="0.32295">
        <ele>89.6</ele>
        <time>2022-04-05T10:59:27Z</time>
      </trkpt>
      <trkpt lat="44.89398" lon="0.32296">
        <ele>89.6</ele>
        <time>2022-04-05T10:59:28Z</time>
      </trkpt>
      <trkpt lat="44.89399" lon="0.32296">
        <ele>89.6</ele>
        <time>2022-04-05T10:59:29Z</time>
      </trkpt>
      <trkpt lat="44.89402" lon="0.32297">
        <ele>89.6</ele>
        <time>2022-04-05T10:59:31Z</time>
      </trkpt>
      <trkpt lat="44.89403" lon="0.32297">
        <ele>89.6</ele>
        <time>2022-04-05T10:59:32Z</time>
      </trkpt>
      <trkpt lat="44.89404" lon="0.32297">
        <ele>89.6</ele>
        <time>2022-04-05T10:59:33Z</time>
      </trkpt>
      <trkpt lat="44.89405" lon="0.32297">
        <ele>89.6</ele>
        <time>2022-04-05T10:59:34Z</time>
      </trkpt>
      <trkpt lat="44.89407" lon="0.32297">
        <ele>89.6</ele>
        <time>2022-04-05T10:59:35Z</time>
      </trkpt>
      <trkpt lat="44.89407" lon="0.32297">
        <ele>89.6</ele>
        <time>2022-04-05T10:59:37Z</time>
      </trkpt>
      <trkpt lat="44.89408" lon="0.32296">
        <ele>89.6</ele>
        <time>2022-04-05T10:59:38Z</time>
      </trkpt>
      <trkpt lat="44.8941" lon="0.32296">
        <ele>89.6</ele>
        <time>2022-04-05T10:59:39Z</time>
      </trkpt>
      <trkpt lat="44.89411" lon="0.32296">
        <ele>89.6</ele>
        <time>2022-04-05T10:59:40Z</time>
      </trkpt>
      <trkpt lat="44.89412" lon="0.32296">
        <ele>89.6</ele>
        <time>2022-04-05T10:59:41Z</time>
      </trkpt>
      <trkpt lat="44.89414" lon="0.32297">
        <ele>89.5</ele>
        <time>2022-04-05T10:59:42Z</time>
      </trkpt>
      <trkpt lat="44.89415" lon="0.32298">
        <ele>89.5</ele>
        <time>2022-04-05T10:59:43Z</time>
      </trkpt>
      <trkpt lat="44.89416" lon="0.32298">
        <ele>89.5</ele>
        <time>2022-04-05T10:59:45Z</time>
      </trkpt>
      <trkpt lat="44.89417" lon="0.32299">
        <ele>89.5</ele>
        <time>2022-04-05T10:59:46Z</time>
      </trkpt>
      <trkpt lat="44.89417" lon="0.323">
        <ele>89.5</ele>
        <time>2022-04-05T10:59:47Z</time>
      </trkpt>
      <trkpt lat="44.89418" lon="0.323">
        <ele>89.5</ele>
        <time>2022-04-05T10:59:48Z</time>
      </trkpt>
      <trkpt lat="44.89419" lon="0.32301">
        <ele>89.5</ele>
        <time>2022-04-05T10:59:50Z</time>
      </trkpt>
      <trkpt lat="44.89421" lon="0.32302">
        <ele>89.5</ele>
        <time>2022-04-05T10:59:51Z</time>
      </trkpt>
      <trkpt lat="44.89421" lon="0.32302">
        <ele>89.5</ele>
        <time>2022-04-05T10:59:52Z</time>
      </trkpt>
      <trkpt lat="44.89422" lon="0.32303">
        <ele>89.5</ele>
        <time>2022-04-05T10:59:54Z</time>
      </trkpt>
      <trkpt lat="44.89422" lon="0.32305">
        <ele>89.5</ele>
        <time>2022-04-05T10:59:55Z</time>
      </trkpt>
      <trkpt lat="44.89422" lon="0.32308">
        <ele>89.5</ele>
        <time>2022-04-05T10:59:57Z</time>
      </trkpt>
      <trkpt lat="44.89421" lon="0.32309">
        <ele>89.5</ele>
        <time>2022-04-05T10:59:58Z</time>
      </trkpt>
      <trkpt lat="44.89421" lon="0.32309">
        <ele>89.5</ele>
        <time>2022-04-05T10:59:59Z</time>
      </trkpt>
      <trkpt lat="44.8942" lon="0.32309">
        <ele>89.5</ele>
        <time>2022-04-05T11:00:00Z</time>
      </trkpt>
      <trkpt lat="44.8942" lon="0.32309">
        <ele>89.5</ele>
        <time>2022-04-05T11:00:01Z</time>
      </trkpt>
      <trkpt lat="44.8942" lon="0.32309">
        <ele>89.5</ele>
        <time>2022-04-05T11:00:02Z</time>
      </trkpt>
      <trkpt lat="44.8942" lon="0.32308">
        <ele>89.5</ele>
        <time>2022-04-05T11:00:03Z</time>
      </trkpt>
      <trkpt lat="44.8942" lon="0.32308">
        <ele>89.5</ele>
        <time>2022-04-05T11:00:04Z</time>
      </trkpt>
      <trkpt lat="44.8942" lon="0.32308">
        <ele>89.5</ele>
        <time>2022-04-05T11:00:05Z</time>
      </trkpt>
      <trkpt lat="44.8942" lon="0.32308">
        <ele>89.5</ele>
        <time>2022-04-05T11:00:06Z</time>
      </trkpt>
      <trkpt lat="44.8942" lon="0.32308">
        <ele>89.5</ele>
        <time>2022-04-05T11:00:07Z</time>
      </trkpt>
      <trkpt lat="44.89419" lon="0.32308">
        <ele>89.5</ele>
        <time>2022-04-05T11:00:08Z</time>
      </trkpt>
      <trkpt lat="44.89419" lon="0.32308">
        <ele>89.5</ele>
        <time>2022-04-05T11:00:09Z</time>
      </trkpt>
      <trkpt lat="44.89419" lon="0.32308">
        <ele>89.5</ele>
        <time>2022-04-05T11:00:10Z</time>
      </trkpt>
      <trkpt lat="44.89419" lon="0.32308">
        <ele>89.5</ele>
        <time>2022-04-05T11:00:11Z</time>
      </trkpt>
      <trkpt lat="44.89419" lon="0.32309">
        <ele>89.5</ele>
        <time>2022-04-05T11:00:12Z</time>
      </trkpt>
      <trkpt lat="44.89419" lon="0.32309">
        <ele>89.5</ele>
        <time>2022-04-05T11:00:13Z</time>
      </trkpt>
      <trkpt lat="44.89419" lon="0.32309">
        <ele>89.5</ele>
        <time>2022-04-05T11:00:14Z</time>
      </trkpt>
      <trkpt lat="44.89419" lon="0.32309">
        <ele>89.5</ele>
        <time>2022-04-05T11:00:15Z</time>
      </trkpt>
      <trkpt lat="44.8942" lon="0.32309">
        <ele>89.5</ele>
        <time>2022-04-05T11:00:16Z</time>
      </trkpt>
      <trkpt lat="44.8942" lon="0.32308">
        <ele>89.5</ele>
        <time>2022-04-05T11:00:17Z</time>
      </trkpt>
      <trkpt lat="44.89419" lon="0.32308">
        <ele>89.5</ele>
        <time>2022-04-05T11:00:18Z</time>
      </trkpt>
      <trkpt lat="44.8942" lon="0.32308">
        <ele>89.5</ele>
        <time>2022-04-05T11:00:19Z</time>
      </trkpt>
      <trkpt lat="44.8942" lon="0.32309">
        <ele>89.5</ele>
        <time>2022-04-05T11:00:20Z</time>
      </trkpt>
      <trkpt lat="44.8942" lon="0.3231">
        <ele>89.5</ele>
        <time>2022-04-05T11:00:21Z</time>
      </trkpt>
      <trkpt lat="44.89421" lon="0.32312">
        <ele>89.5</ele>
        <time>2022-04-05T11:00:22Z</time>
      </trkpt>
      <trkpt lat="44.89422" lon="0.32314">
        <ele>89.5</ele>
        <time>2022-04-05T11:00:24Z</time>
      </trkpt>
      <trkpt lat="44.89422" lon="0.32316">
        <ele>89.5</ele>
        <time>2022-04-05T11:00:25Z</time>
      </trkpt>
      <trkpt lat="44.89422" lon="0.32318">
        <ele>89.5</ele>
        <time>2022-04-05T11:00:26Z</time>
      </trkpt>
      <trkpt lat="44.89423" lon="0.3232">
        <ele>89.5</ele>
        <time>2022-04-05T11:00:27Z</time>
      </trkpt>
      <trkpt lat="44.89423" lon="0.3232">
        <ele>89.5</ele>
        <time>2022-04-05T11:00:28Z</time>
      </trkpt>
      <trkpt lat="44.89423" lon="0.3232">
        <ele>89.5</ele>
        <time>2022-04-05T11:00:29Z</time>
      </trkpt>
      <trkpt lat="44.89423" lon="0.32321">
        <ele>89.5</ele>
        <time>2022-04-05T11:00:30Z</time>
      </trkpt>
      <trkpt lat="44.89424" lon="0.32321">
        <ele>89.5</ele>
        <time>2022-04-05T11:00:31Z</time>
      </trkpt>
      <trkpt lat="44.89424" lon="0.32322">
        <ele>89.5</ele>
        <time>2022-04-05T11:00:32Z</time>
      </trkpt>
      <trkpt lat="44.89425" lon="0.32322">
        <ele>89.5</ele>
        <time>2022-04-05T11:00:34Z</time>
      </trkpt>
      <trkpt lat="44.89425" lon="0.32323">
        <ele>89.5</ele>
        <time>2022-04-05T11:00:35Z</time>
      </trkpt>
      <trkpt lat="44.89425" lon="0.32323">
        <ele>89.5</ele>
        <time>2022-04-05T11:00:36Z</time>
      </trkpt>
      <trkpt lat="44.89426" lon="0.32324">
        <ele>89.5</ele>
        <time>2022-04-05T11:00:37Z</time>
      </trkpt>
      <trkpt lat="44.89426" lon="0.32324">
        <ele>89.5</ele>
        <time>2022-04-05T11:00:38Z</time>
      </trkpt>
      <trkpt lat="44.89426" lon="0.32325">
        <ele>89.5</ele>
        <time>2022-04-05T11:00:39Z</time>
      </trkpt>
      <trkpt lat="44.89427" lon="0.32325">
        <ele>89.5</ele>
        <time>2022-04-05T11:00:40Z</time>
      </trkpt>
      <trkpt lat="44.89426" lon="0.32325">
        <ele>89.5</ele>
        <time>2022-04-05T11:00:41Z</time>
      </trkpt>
      <trkpt lat="44.89426" lon="0.32325">
        <ele>89.5</ele>
        <time>2022-04-05T11:00:42Z</time>
      </trkpt>
      <trkpt lat="44.89426" lon="0.32324">
        <ele>89.6</ele>
        <time>2022-04-05T11:00:43Z</time>
      </trkpt>
      <trkpt lat="44.89425" lon="0.32323">
        <ele>89.6</ele>
        <time>2022-04-05T11:00:44Z</time>
      </trkpt>
      <trkpt lat="44.89423" lon="0.32323">
        <ele>89.6</ele>
        <time>2022-04-05T11:00:45Z</time>
      </trkpt>
      <trkpt lat="44.8942" lon="0.32324">
        <ele>89.6</ele>
        <time>2022-04-05T11:00:46Z</time>
      </trkpt>
      <trkpt lat="44.8942" lon="0.32325">
        <ele>89.6</ele>
        <time>2022-04-05T11:00:47Z</time>
      </trkpt>
      <trkpt lat="44.8942" lon="0.32326">
        <ele>89.6</ele>
        <time>2022-04-05T11:00:48Z</time>
      </trkpt>
      <trkpt lat="44.89417" lon="0.32325">
        <ele>89.6</ele>
        <time>2022-04-05T11:00:49Z</time>
      </trkpt>
      <trkpt lat="44.89417" lon="0.32321">
        <ele>89.6</ele>
        <time>2022-04-05T11:00:50Z</time>
      </trkpt>
      <trkpt lat="44.89417" lon="0.32321">
        <ele>89.6</ele>
        <time>2022-04-05T11:00:51Z</time>
      </trkpt>
      <trkpt lat="44.89418" lon="0.32319">
        <ele>89.6</ele>
        <time>2022-04-05T11:00:52Z</time>
      </trkpt>
      <trkpt lat="44.89418" lon="0.32319">
        <ele>89.6</ele>
        <time>2022-04-05T11:00:53Z</time>
      </trkpt>
      <trkpt lat="44.89418" lon="0.32318">
        <ele>89.6</ele>
        <time>2022-04-05T11:00:54Z</time>
      </trkpt>
      <trkpt lat="44.89418" lon="0.32318">
        <ele>89.6</ele>
        <time>2022-04-05T11:00:55Z</time>
      </trkpt>
      <trkpt lat="44.89418" lon="0.32318">
        <ele>89.6</ele>
        <time>2022-04-05T11:00:56Z</time>
      </trkpt>
      <trkpt lat="44.89418" lon="0.32317">
        <ele>89.6</ele>
        <time>2022-04-05T11:00:57Z</time>
      </trkpt>
      <trkpt lat="44.89419" lon="0.32317">
        <ele>89.6</ele>
        <time>2022-04-05T11:00:58Z</time>
      </trkpt>
      <trkpt lat="44.89419" lon="0.32314">
        <ele>89.6</ele>
        <time>2022-04-05T11:01:00Z</time>
      </trkpt>
      <trkpt lat="44.8942" lon="0.32313">
        <ele>89.7</ele>
        <time>2022-04-05T11:01:01Z</time>
      </trkpt>
      <trkpt lat="44.89421" lon="0.32312">
        <ele>89.7</ele>
        <time>2022-04-05T11:01:02Z</time>
      </trkpt>
      <trkpt lat="44.89421" lon="0.32311">
        <ele>89.7</ele>
        <time>2022-04-05T11:01:03Z</time>
      </trkpt>
      <trkpt lat="44.89421" lon="0.3231">
        <ele>89.7</ele>
        <time>2022-04-05T11:01:04Z</time>
      </trkpt>
      <trkpt lat="44.89421" lon="0.3231">
        <ele>89.7</ele>
        <time>2022-04-05T11:01:05Z</time>
      </trkpt>
      <trkpt lat="44.89421" lon="0.32309">
        <ele>89.7</ele>
        <time>2022-04-05T11:01:06Z</time>
      </trkpt>
      <trkpt lat="44.89421" lon="0.32309">
        <ele>89.7</ele>
        <time>2022-04-05T11:01:07Z</time>
      </trkpt>
      <trkpt lat="44.89421" lon="0.32309">
        <ele>89.7</ele>
        <time>2022-04-05T11:01:08Z</time>
      </trkpt>
      <trkpt lat="44.89421" lon="0.32309">
        <ele>89.7</ele>
        <time>2022-04-05T11:01:09Z</time>
      </trkpt>
      <trkpt lat="44.89421" lon="0.32309">
        <ele>89.7</ele>
        <time>2022-04-05T11:01:10Z</time>
      </trkpt>
      <trkpt lat="44.89421" lon="0.32309">
        <ele>89.7</ele>
        <time>2022-04-05T11:01:11Z</time>
      </trkpt>
      <trkpt lat="44.89421" lon="0.32309">
        <ele>89.7</ele>
        <time>2022-04-05T11:01:12Z</time>
      </trkpt>
      <trkpt lat="44.89421" lon="0.32309">
        <ele>89.7</ele>
        <time>2022-04-05T11:01:13Z</time>
      </trkpt>
      <trkpt lat="44.89421" lon="0.32309">
        <ele>89.7</ele>
        <time>2022-04-05T11:01:14Z</time>
      </trkpt>
      <trkpt lat="44.89421" lon="0.32309">
        <ele>89.7</ele>
        <time>2022-04-05T11:01:15Z</time>
      </trkpt>
      <trkpt lat="44.89421" lon="0.32309">
        <ele>89.7</ele>
        <time>2022-04-05T11:01:16Z</time>
      </trkpt>
      <trkpt lat="44.89421" lon="0.32309">
        <ele>89.7</ele>
        <time>2022-04-05T11:01:17Z</time>
      </trkpt>
      <trkpt lat="44.89422" lon="0.32307">
        <ele>89.7</ele>
        <time>2022-04-05T11:01:19Z</time>
      </trkpt>
      <trkpt lat="44.89423" lon="0.32306">
        <ele>89.7</ele>
        <time>2022-04-05T11:01:20Z</time>
      </trkpt>
      <trkpt lat="44.89424" lon="0.32304">
        <ele>89.7</ele>
        <time>2022-04-05T11:01:21Z</time>
      </trkpt>
      <trkpt lat="44.89425" lon="0.32303">
        <ele>89.7</ele>
        <time>2022-04-05T11:01:22Z</time>
      </trkpt>
      <trkpt lat="44.89426" lon="0.32302">
        <ele>89.6</ele>
        <time>2022-04-05T11:01:23Z</time>
      </trkpt>
      <trkpt lat="44.89427" lon="0.323">
        <ele>89.4</ele>
        <time>2022-04-05T11:01:25Z</time>
      </trkpt>
      <trkpt lat="44.89428" lon="0.32299">
        <ele>89.4</ele>
        <time>2022-04-05T11:01:26Z</time>
      </trkpt>
      <trkpt lat="44.89428" lon="0.323">
        <ele>89.3</ele>
        <time>2022-04-05T11:01:28Z</time>
      </trkpt>
      <trkpt lat="44.89428" lon="0.323">
        <ele>89.3</ele>
        <time>2022-04-05T11:01:29Z</time>
      </trkpt>
      <trkpt lat="44.89428" lon="0.323">
        <ele>89.3</ele>
        <time>2022-04-05T11:01:30Z</time>
      </trkpt>
      <trkpt lat="44.89428" lon="0.323">
        <ele>89.3</ele>
        <time>2022-04-05T11:01:31Z</time>
      </trkpt>
      <trkpt lat="44.89428" lon="0.323">
        <ele>89.3</ele>
        <time>2022-04-05T11:01:32Z</time>
      </trkpt>
      <trkpt lat="44.89428" lon="0.323">
        <ele>89.3</ele>
        <time>2022-04-05T11:01:33Z</time>
      </trkpt>
      <trkpt lat="44.89428" lon="0.323">
        <ele>89.3</ele>
        <time>2022-04-05T11:01:34Z</time>
      </trkpt>
      <trkpt lat="44.89428" lon="0.323">
        <ele>89.3</ele>
        <time>2022-04-05T11:01:35Z</time>
      </trkpt>
      <trkpt lat="44.89428" lon="0.323">
        <ele>89.3</ele>
        <time>2022-04-05T11:01:36Z</time>
      </trkpt>
      <trkpt lat="44.89428" lon="0.323">
        <ele>89.3</ele>
        <time>2022-04-05T11:01:37Z</time>
      </trkpt>
      <trkpt lat="44.89429" lon="0.323">
        <ele>89.3</ele>
        <time>2022-04-05T11:01:38Z</time>
      </trkpt>
      <trkpt lat="44.89429" lon="0.323">
        <ele>89.2</ele>
        <time>2022-04-05T11:01:39Z</time>
      </trkpt>
      <trkpt lat="44.8943" lon="0.32299">
        <ele>89.2</ele>
        <time>2022-04-05T11:01:40Z</time>
      </trkpt>
      <trkpt lat="44.89431" lon="0.32298">
        <ele>89.1</ele>
        <time>2022-04-05T11:01:42Z</time>
      </trkpt>
      <trkpt lat="44.89432" lon="0.32297">
        <ele>89</ele>
        <time>2022-04-05T11:01:43Z</time>
      </trkpt>
      <trkpt lat="44.89433" lon="0.32296">
        <ele>88.9</ele>
        <time>2022-04-05T11:01:44Z</time>
      </trkpt>
      <trkpt lat="44.89433" lon="0.32296">
        <ele>88.8</ele>
        <time>2022-04-05T11:01:45Z</time>
      </trkpt>
      <trkpt lat="44.89433" lon="0.32296">
        <ele>88.8</ele>
        <time>2022-04-05T11:01:46Z</time>
      </trkpt>
      <trkpt lat="44.89433" lon="0.32296">
        <ele>88.8</ele>
        <time>2022-04-05T11:01:47Z</time>
      </trkpt>
      <trkpt lat="44.89433" lon="0.32296">
        <ele>88.8</ele>
        <time>2022-04-05T11:01:48Z</time>
      </trkpt>
      <trkpt lat="44.89433" lon="0.32296">
        <ele>88.8</ele>
        <time>2022-04-05T11:01:49Z</time>
      </trkpt>
      <trkpt lat="44.89433" lon="0.32296">
        <ele>88.8</ele>
        <time>2022-04-05T11:01:50Z</time>
      </trkpt>
      <trkpt lat="44.89433" lon="0.32296">
        <ele>88.8</ele>
        <time>2022-04-05T11:01:51Z</time>
      </trkpt>
      <trkpt lat="44.89433" lon="0.32296">
        <ele>88.8</ele>
        <time>2022-04-05T11:01:52Z</time>
      </trkpt>
      <trkpt lat="44.89433" lon="0.32296">
        <ele>88.8</ele>
        <time>2022-04-05T11:01:53Z</time>
      </trkpt>
      <trkpt lat="44.89433" lon="0.32296">
        <ele>88.8</ele>
        <time>2022-04-05T11:01:54Z</time>
      </trkpt>
      <trkpt lat="44.89433" lon="0.32296">
        <ele>88.8</ele>
        <time>2022-04-05T11:01:55Z</time>
      </trkpt>
      <trkpt lat="44.89433" lon="0.32296">
        <ele>88.7</ele>
        <time>2022-04-05T11:01:56Z</time>
      </trkpt>
      <trkpt lat="44.89433" lon="0.32296">
        <ele>88.7</ele>
        <time>2022-04-05T11:01:57Z</time>
      </trkpt>
      <trkpt lat="44.89434" lon="0.32295">
        <ele>88.7</ele>
        <time>2022-04-05T11:01:58Z</time>
      </trkpt>
      <trkpt lat="44.89434" lon="0.32296">
        <ele>88.7</ele>
        <time>2022-04-05T11:02:00Z</time>
      </trkpt>
      <trkpt lat="44.89434" lon="0.32296">
        <ele>88.7</ele>
        <time>2022-04-05T11:02:01Z</time>
      </trkpt>
      <trkpt lat="44.89434" lon="0.32296">
        <ele>88.7</ele>
        <time>2022-04-05T11:02:02Z</time>
      </trkpt>
      <trkpt lat="44.89434" lon="0.32295">
        <ele>88.7</ele>
        <time>2022-04-05T11:02:03Z</time>
      </trkpt>
      <trkpt lat="44.89434" lon="0.32296">
        <ele>88.6</ele>
        <time>2022-04-05T11:02:04Z</time>
      </trkpt>
      <trkpt lat="44.89434" lon="0.32296">
        <ele>88.6</ele>
        <time>2022-04-05T11:02:05Z</time>
      </trkpt>
      <trkpt lat="44.89434" lon="0.32296">
        <ele>88.6</ele>
        <time>2022-04-05T11:02:06Z</time>
      </trkpt>
      <trkpt lat="44.89434" lon="0.32296">
        <ele>88.6</ele>
        <time>2022-04-05T11:02:07Z</time>
      </trkpt>
      <trkpt lat="44.89434" lon="0.32296">
        <ele>88.6</ele>
        <time>2022-04-05T11:02:08Z</time>
      </trkpt>
      <trkpt lat="44.89435" lon="0.32296">
        <ele>88.5</ele>
        <time>2022-04-05T11:02:09Z</time>
      </trkpt>
      <trkpt lat="44.89435" lon="0.32296">
        <ele>88.5</ele>
        <time>2022-04-05T11:02:10Z</time>
      </trkpt>
      <trkpt lat="44.89436" lon="0.32296">
        <ele>88.4</ele>
        <time>2022-04-05T11:02:11Z</time>
      </trkpt>
      <trkpt lat="44.89438" lon="0.32297">
        <ele>88.3</ele>
        <time>2022-04-05T11:02:12Z</time>
      </trkpt>
      <trkpt lat="44.89439" lon="0.32298">
        <ele>88.1</ele>
        <time>2022-04-05T11:02:13Z</time>
      </trkpt>
      <trkpt lat="44.89442" lon="0.32301">
        <ele>87.8</ele>
        <time>2022-04-05T11:02:14Z</time>
      </trkpt>
      <trkpt lat="44.89443" lon="0.32301">
        <ele>87.6</ele>
        <time>2022-04-05T11:02:15Z</time>
      </trkpt>
      <trkpt lat="44.89446" lon="0.32304">
        <ele>87.3</ele>
        <time>2022-04-05T11:02:17Z</time>
      </trkpt>
      <trkpt lat="44.89446" lon="0.32305">
        <ele>87.2</ele>
        <time>2022-04-05T11:02:18Z</time>
      </trkpt>
      <trkpt lat="44.89449" lon="0.32307">
        <ele>86.9</ele>
        <time>2022-04-05T11:02:19Z</time>
      </trkpt>
      <trkpt lat="44.89451" lon="0.3231">
        <ele>86.6</ele>
        <time>2022-04-05T11:02:21Z</time>
      </trkpt>
      <trkpt lat="44.89453" lon="0.32311">
        <ele>86.2</ele>
        <time>2022-04-05T11:02:22Z</time>
      </trkpt>
      <trkpt lat="44.89454" lon="0.32312">
        <ele>86.1</ele>
        <time>2022-04-05T11:02:23Z</time>
      </trkpt>
      <trkpt lat="44.89454" lon="0.32312">
        <ele>86.1</ele>
        <time>2022-04-05T11:02:24Z</time>
      </trkpt>
      <trkpt lat="44.89451" lon="0.3231">
        <ele>85.7</ele>
        <time>2022-04-05T11:02:25Z</time>
      </trkpt>
      <trkpt lat="44.89451" lon="0.32309">
        <ele>85.7</ele>
        <time>2022-04-05T11:02:26Z</time>
      </trkpt>
      <trkpt lat="44.89452" lon="0.3231">
        <ele>85.6</ele>
        <time>2022-04-05T11:02:28Z</time>
      </trkpt>
      <trkpt lat="44.89453" lon="0.32311">
        <ele>85.4</ele>
        <time>2022-04-05T11:02:29Z</time>
      </trkpt>
      <trkpt lat="44.89454" lon="0.32312">
        <ele>85.3</ele>
        <time>2022-04-05T11:02:30Z</time>
      </trkpt>
      <trkpt lat="44.89455" lon="0.32313">
        <ele>85.1</ele>
        <time>2022-04-05T11:02:31Z</time>
      </trkpt>
      <trkpt lat="44.89456" lon="0.32315">
        <ele>84.9</ele>
        <time>2022-04-05T11:02:32Z</time>
      </trkpt>
      <trkpt lat="44.89457" lon="0.32316">
        <ele>84.8</ele>
        <time>2022-04-05T11:02:34Z</time>
      </trkpt>
      <trkpt lat="44.89458" lon="0.32317">
        <ele>84.7</ele>
        <time>2022-04-05T11:02:35Z</time>
      </trkpt>
      <trkpt lat="44.89459" lon="0.32319">
        <ele>84.5</ele>
        <time>2022-04-05T11:02:36Z</time>
      </trkpt>
      <trkpt lat="44.8946" lon="0.32322">
        <ele>84.2</ele>
        <time>2022-04-05T11:02:38Z</time>
      </trkpt>
      <trkpt lat="44.89461" lon="0.32323">
        <ele>84.1</ele>
        <time>2022-04-05T11:02:39Z</time>
      </trkpt>
      <trkpt lat="44.89461" lon="0.32325">
        <ele>84</ele>
        <time>2022-04-05T11:02:40Z</time>
      </trkpt>
      <trkpt lat="44.89462" lon="0.32326">
        <ele>83.8</ele>
        <time>2022-04-05T11:02:41Z</time>
      </trkpt>
      <trkpt lat="44.89462" lon="0.32328">
        <ele>83.6</ele>
        <time>2022-04-05T11:02:42Z</time>
      </trkpt>
      <trkpt lat="44.89463" lon="0.32329">
        <ele>83.6</ele>
        <time>2022-04-05T11:02:43Z</time>
      </trkpt>
      <trkpt lat="44.89464" lon="0.3233">
        <ele>83.4</ele>
        <time>2022-04-05T11:02:45Z</time>
      </trkpt>
      <trkpt lat="44.89464" lon="0.32331">
        <ele>83.4</ele>
        <time>2022-04-05T11:02:46Z</time>
      </trkpt>
      <trkpt lat="44.89464" lon="0.32331">
        <ele>83.3</ele>
        <time>2022-04-05T11:02:48Z</time>
      </trkpt>
      <trkpt lat="44.89463" lon="0.3233">
        <ele>83.2</ele>
        <time>2022-04-05T11:02:49Z</time>
      </trkpt>
      <trkpt lat="44.89463" lon="0.32329">
        <ele>83.2</ele>
        <time>2022-04-05T11:02:50Z</time>
      </trkpt>
      <trkpt lat="44.89463" lon="0.32329">
        <ele>83.1</ele>
        <time>2022-04-05T11:02:51Z</time>
      </trkpt>
      <trkpt lat="44.89462" lon="0.32328">
        <ele>83.1</ele>
        <time>2022-04-05T11:02:53Z</time>
      </trkpt>
      <trkpt lat="44.89462" lon="0.32328">
        <ele>83.1</ele>
        <time>2022-04-05T11:02:54Z</time>
      </trkpt>
      <trkpt lat="44.89462" lon="0.32328">
        <ele>83</ele>
        <time>2022-04-05T11:02:55Z</time>
      </trkpt>
      <trkpt lat="44.89462" lon="0.32328">
        <ele>83</ele>
        <time>2022-04-05T11:02:56Z</time>
      </trkpt>
      <trkpt lat="44.89462" lon="0.32328">
        <ele>83</ele>
        <time>2022-04-05T11:02:58Z</time>
      </trkpt>
      <trkpt lat="44.89462" lon="0.32328">
        <ele>83</ele>
        <time>2022-04-05T11:02:59Z</time>
      </trkpt>
      <trkpt lat="44.89462" lon="0.32328">
        <ele>83</ele>
        <time>2022-04-05T11:03:00Z</time>
      </trkpt>
      <trkpt lat="44.89462" lon="0.32328">
        <ele>83</ele>
        <time>2022-04-05T11:03:01Z</time>
      </trkpt>
      <trkpt lat="44.89462" lon="0.32328">
        <ele>83</ele>
        <time>2022-04-05T11:03:02Z</time>
      </trkpt>
      <trkpt lat="44.89462" lon="0.32328">
        <ele>83</ele>
        <time>2022-04-05T11:03:03Z</time>
      </trkpt>
      <trkpt lat="44.89462" lon="0.32327">
        <ele>83</ele>
        <time>2022-04-05T11:03:04Z</time>
      </trkpt>
      <trkpt lat="44.89462" lon="0.32327">
        <ele>82.9</ele>
        <time>2022-04-05T11:03:05Z</time>
      </trkpt>
      <trkpt lat="44.89462" lon="0.32327">
        <ele>82.9</ele>
        <time>2022-04-05T11:03:06Z</time>
      </trkpt>
      <trkpt lat="44.89462" lon="0.32327">
        <ele>82.8</ele>
        <time>2022-04-05T11:03:07Z</time>
      </trkpt>
      <trkpt lat="44.89463" lon="0.32328">
        <ele>82.7</ele>
        <time>2022-04-05T11:03:08Z</time>
      </trkpt>
      <trkpt lat="44.89463" lon="0.32329">
        <ele>82.7</ele>
        <time>2022-04-05T11:03:09Z</time>
      </trkpt>
      <trkpt lat="44.89463" lon="0.3233">
        <ele>82.6</ele>
        <time>2022-04-05T11:03:10Z</time>
      </trkpt>
      <trkpt lat="44.89464" lon="0.3233">
        <ele>82.5</ele>
        <time>2022-04-05T11:03:11Z</time>
      </trkpt>
      <trkpt lat="44.89465" lon="0.32331">
        <ele>82.4</ele>
        <time>2022-04-05T11:03:12Z</time>
      </trkpt>
      <trkpt lat="44.89467" lon="0.32333">
        <ele>82.2</ele>
        <time>2022-04-05T11:03:13Z</time>
      </trkpt>
      <trkpt lat="44.89469" lon="0.32334">
        <ele>82</ele>
        <time>2022-04-05T11:03:14Z</time>
      </trkpt>
      <trkpt lat="44.8947" lon="0.32334">
        <ele>81.9</ele>
        <time>2022-04-05T11:03:15Z</time>
      </trkpt>
      <trkpt lat="44.8947" lon="0.32335">
        <ele>81.8</ele>
        <time>2022-04-05T11:03:16Z</time>
      </trkpt>
      <trkpt lat="44.89472" lon="0.32336">
        <ele>81.6</ele>
        <time>2022-04-05T11:03:17Z</time>
      </trkpt>
      <trkpt lat="44.89473" lon="0.32338">
        <ele>81.4</ele>
        <time>2022-04-05T11:03:19Z</time>
      </trkpt>
      <trkpt lat="44.89474" lon="0.32338">
        <ele>81.3</ele>
        <time>2022-04-05T11:03:20Z</time>
      </trkpt>
      <trkpt lat="44.89475" lon="0.32339">
        <ele>81.2</ele>
        <time>2022-04-05T11:03:21Z</time>
      </trkpt>
      <trkpt lat="44.89476" lon="0.3234">
        <ele>81.1</ele>
        <time>2022-04-05T11:03:22Z</time>
      </trkpt>
      <trkpt lat="44.89477" lon="0.32339">
        <ele>81</ele>
        <time>2022-04-05T11:03:23Z</time>
      </trkpt>
      <trkpt lat="44.89478" lon="0.32337">
        <ele>80.9</ele>
        <time>2022-04-05T11:03:25Z</time>
      </trkpt>
      <trkpt lat="44.89478" lon="0.32337">
        <ele>80.9</ele>
        <time>2022-04-05T11:03:26Z</time>
      </trkpt>
      <trkpt lat="44.89478" lon="0.32336">
        <ele>80.8</ele>
        <time>2022-04-05T11:03:27Z</time>
      </trkpt>
      <trkpt lat="44.89478" lon="0.32336">
        <ele>80.8</ele>
        <time>2022-04-05T11:03:28Z</time>
      </trkpt>
      <trkpt lat="44.89478" lon="0.32336">
        <ele>80.8</ele>
        <time>2022-04-05T11:03:29Z</time>
      </trkpt>
      <trkpt lat="44.89479" lon="0.32337">
        <ele>80.6</ele>
        <time>2022-04-05T11:03:30Z</time>
      </trkpt>
      <trkpt lat="44.8948" lon="0.32337">
        <ele>80.5</ele>
        <time>2022-04-05T11:03:31Z</time>
      </trkpt>
      <trkpt lat="44.89483" lon="0.32338">
        <ele>80.3</ele>
        <time>2022-04-05T11:03:32Z</time>
      </trkpt>
      <trkpt lat="44.89484" lon="0.32339">
        <ele>80.2</ele>
        <time>2022-04-05T11:03:33Z</time>
      </trkpt>
      <trkpt lat="44.89485" lon="0.3234">
        <ele>80.1</ele>
        <time>2022-04-05T11:03:34Z</time>
      </trkpt>
      <trkpt lat="44.89486" lon="0.32341">
        <ele>80</ele>
        <time>2022-04-05T11:03:36Z</time>
      </trkpt>
      <trkpt lat="44.89487" lon="0.32341">
        <ele>79.9</ele>
        <time>2022-04-05T11:03:37Z</time>
      </trkpt>
      <trkpt lat="44.89488" lon="0.32341">
        <ele>79.8</ele>
        <time>2022-04-05T11:03:38Z</time>
      </trkpt>
      <trkpt lat="44.89489" lon="0.32341">
        <ele>79.7</ele>
        <time>2022-04-05T11:03:39Z</time>
      </trkpt>
      <trkpt lat="44.89492" lon="0.32341">
        <ele>79.5</ele>
        <time>2022-04-05T11:03:40Z</time>
      </trkpt>
      <trkpt lat="44.89492" lon="0.32341">
        <ele>79.5</ele>
        <time>2022-04-05T11:03:41Z</time>
      </trkpt>
      <trkpt lat="44.89493" lon="0.32341">
        <ele>79.5</ele>
        <time>2022-04-05T11:03:42Z</time>
      </trkpt>
      <trkpt lat="44.89495" lon="0.32341">
        <ele>79.3</ele>
        <time>2022-04-05T11:03:43Z</time>
      </trkpt>
      <trkpt lat="44.89496" lon="0.32341">
        <ele>79.3</ele>
        <time>2022-04-05T11:03:45Z</time>
      </trkpt>
      <trkpt lat="44.89497" lon="0.32342">
        <ele>79.2</ele>
        <time>2022-04-05T11:03:46Z</time>
      </trkpt>
      <trkpt lat="44.89498" lon="0.32341">
        <ele>79.1</ele>
        <time>2022-04-05T11:03:47Z</time>
      </trkpt>
      <trkpt lat="44.89499" lon="0.32341">
        <ele>79.1</ele>
        <time>2022-04-05T11:03:48Z</time>
      </trkpt>
      <trkpt lat="44.895" lon="0.32341">
        <ele>79</ele>
        <time>2022-04-05T11:03:49Z</time>
      </trkpt>
      <trkpt lat="44.89501" lon="0.32341">
        <ele>79</ele>
        <time>2022-04-05T11:03:50Z</time>
      </trkpt>
      <trkpt lat="44.89501" lon="0.32341">
        <ele>78.9</ele>
        <time>2022-04-05T11:03:52Z</time>
      </trkpt>
      <trkpt lat="44.89502" lon="0.32342">
        <ele>78.9</ele>
        <time>2022-04-05T11:03:53Z</time>
      </trkpt>
      <trkpt lat="44.89502" lon="0.32343">
        <ele>78.8</ele>
        <time>2022-04-05T11:03:54Z</time>
      </trkpt>
      <trkpt lat="44.89503" lon="0.32345">
        <ele>78.8</ele>
        <time>2022-04-05T11:03:56Z</time>
      </trkpt>
      <trkpt lat="44.89503" lon="0.32345">
        <ele>78.8</ele>
        <time>2022-04-05T11:03:57Z</time>
      </trkpt>
      <trkpt lat="44.89502" lon="0.32345">
        <ele>78.7</ele>
        <time>2022-04-05T11:03:58Z</time>
      </trkpt>
      <trkpt lat="44.89502" lon="0.32345">
        <ele>78.7</ele>
        <time>2022-04-05T11:03:59Z</time>
      </trkpt>
      <trkpt lat="44.89502" lon="0.32345">
        <ele>78.7</ele>
        <time>2022-04-05T11:04:01Z</time>
      </trkpt>
      <trkpt lat="44.89502" lon="0.32344">
        <ele>78.7</ele>
        <time>2022-04-05T11:04:02Z</time>
      </trkpt>
      <trkpt lat="44.89503" lon="0.32344">
        <ele>78.7</ele>
        <time>2022-04-05T11:04:03Z</time>
      </trkpt>
      <trkpt lat="44.89504" lon="0.32343">
        <ele>78.6</ele>
        <time>2022-04-05T11:04:04Z</time>
      </trkpt>
      <trkpt lat="44.89506" lon="0.32342">
        <ele>78.5</ele>
        <time>2022-04-05T11:04:06Z</time>
      </trkpt>
      <trkpt lat="44.89507" lon="0.32341">
        <ele>78.4</ele>
        <time>2022-04-05T11:04:07Z</time>
      </trkpt>
      <trkpt lat="44.89508" lon="0.3234">
        <ele>78.4</ele>
        <time>2022-04-05T11:04:08Z</time>
      </trkpt>
      <trkpt lat="44.89509" lon="0.3234">
        <ele>78.3</ele>
        <time>2022-04-05T11:04:09Z</time>
      </trkpt>
      <trkpt lat="44.89511" lon="0.32339">
        <ele>78.2</ele>
        <time>2022-04-05T11:04:10Z</time>
      </trkpt>
      <trkpt lat="44.89511" lon="0.32338">
        <ele>78.2</ele>
        <time>2022-04-05T11:04:11Z</time>
      </trkpt>
      <trkpt lat="44.89512" lon="0.32338">
        <ele>78.2</ele>
        <time>2022-04-05T11:04:13Z</time>
      </trkpt>
      <trkpt lat="44.89512" lon="0.32338">
        <ele>78.2</ele>
        <time>2022-04-05T11:04:14Z</time>
      </trkpt>
      <trkpt lat="44.89511" lon="0.32338">
        <ele>78.2</ele>
        <time>2022-04-05T11:04:15Z</time>
      </trkpt>
      <trkpt lat="44.89511" lon="0.32338">
        <ele>78.2</ele>
        <time>2022-04-05T11:04:16Z</time>
      </trkpt>
      <trkpt lat="44.89512" lon="0.32338">
        <ele>78.1</ele>
        <time>2022-04-05T11:04:17Z</time>
      </trkpt>
      <trkpt lat="44.89513" lon="0.32337">
        <ele>78.1</ele>
        <time>2022-04-05T11:04:18Z</time>
      </trkpt>
      <trkpt lat="44.89514" lon="0.32337">
        <ele>78</ele>
        <time>2022-04-05T11:04:19Z</time>
      </trkpt>
      <trkpt lat="44.89517" lon="0.32335">
        <ele>77.9</ele>
        <time>2022-04-05T11:04:20Z</time>
      </trkpt>
      <trkpt lat="44.89518" lon="0.32335">
        <ele>77.9</ele>
        <time>2022-04-05T11:04:21Z</time>
      </trkpt>
      <trkpt lat="44.89519" lon="0.32334">
        <ele>77.8</ele>
        <time>2022-04-05T11:04:22Z</time>
      </trkpt>
      <trkpt lat="44.89521" lon="0.32333">
        <ele>77.8</ele>
        <time>2022-04-05T11:04:24Z</time>
      </trkpt>
      <trkpt lat="44.89521" lon="0.32332">
        <ele>77.7</ele>
        <time>2022-04-05T11:04:26Z</time>
      </trkpt>
      <trkpt lat="44.8952" lon="0.32331">
        <ele>77.7</ele>
        <time>2022-04-05T11:04:27Z</time>
      </trkpt>
      <trkpt lat="44.8952" lon="0.32331">
        <ele>77.7</ele>
        <time>2022-04-05T11:04:28Z</time>
      </trkpt>
      <trkpt lat="44.8952" lon="0.32331">
        <ele>77.7</ele>
        <time>2022-04-05T11:04:29Z</time>
      </trkpt>
      <trkpt lat="44.8952" lon="0.32331">
        <ele>77.7</ele>
        <time>2022-04-05T11:04:30Z</time>
      </trkpt>
      <trkpt lat="44.8952" lon="0.32331">
        <ele>77.7</ele>
        <time>2022-04-05T11:04:31Z</time>
      </trkpt>
      <trkpt lat="44.8952" lon="0.32331">
        <ele>77.7</ele>
        <time>2022-04-05T11:04:32Z</time>
      </trkpt>
      <trkpt lat="44.8952" lon="0.32332">
        <ele>77.7</ele>
        <time>2022-04-05T11:04:33Z</time>
      </trkpt>
      <trkpt lat="44.8952" lon="0.32332">
        <ele>77.7</ele>
        <time>2022-04-05T11:04:34Z</time>
      </trkpt>
      <trkpt lat="44.8952" lon="0.32332">
        <ele>77.7</ele>
        <time>2022-04-05T11:04:35Z</time>
      </trkpt>
      <trkpt lat="44.8952" lon="0.32332">
        <ele>77.7</ele>
        <time>2022-04-05T11:04:36Z</time>
      </trkpt>
      <trkpt lat="44.8952" lon="0.32332">
        <ele>77.6</ele>
        <time>2022-04-05T11:04:37Z</time>
      </trkpt>
      <trkpt lat="44.8952" lon="0.32332">
        <ele>77.6</ele>
        <time>2022-04-05T11:04:38Z</time>
      </trkpt>
      <trkpt lat="44.8952" lon="0.32332">
        <ele>77.6</ele>
        <time>2022-04-05T11:04:39Z</time>
      </trkpt>
      <trkpt lat="44.89519" lon="0.32332">
        <ele>77.6</ele>
        <time>2022-04-05T11:04:40Z</time>
      </trkpt>
      <trkpt lat="44.89519" lon="0.32332">
        <ele>77.6</ele>
        <time>2022-04-05T11:04:41Z</time>
      </trkpt>
      <trkpt lat="44.89519" lon="0.32332">
        <ele>77.6</ele>
        <time>2022-04-05T11:04:42Z</time>
      </trkpt>
      <trkpt lat="44.89519" lon="0.32332">
        <ele>77.6</ele>
        <time>2022-04-05T11:04:43Z</time>
      </trkpt>
      <trkpt lat="44.89519" lon="0.32332">
        <ele>77.6</ele>
        <time>2022-04-05T11:04:44Z</time>
      </trkpt>
      <trkpt lat="44.89519" lon="0.32332">
        <ele>77.6</ele>
        <time>2022-04-05T11:04:45Z</time>
      </trkpt>
      <trkpt lat="44.89519" lon="0.32332">
        <ele>77.6</ele>
        <time>2022-04-05T11:04:46Z</time>
      </trkpt>
      <trkpt lat="44.89519" lon="0.32332">
        <ele>77.6</ele>
        <time>2022-04-05T11:04:47Z</time>
      </trkpt>
      <trkpt lat="44.89519" lon="0.32332">
        <ele>77.6</ele>
        <time>2022-04-05T11:04:48Z</time>
      </trkpt>
      <trkpt lat="44.89519" lon="0.32332">
        <ele>77.6</ele>
        <time>2022-04-05T11:04:49Z</time>
      </trkpt>
      <trkpt lat="44.8952" lon="0.32332">
        <ele>77.6</ele>
        <time>2022-04-05T11:04:50Z</time>
      </trkpt>
      <trkpt lat="44.8952" lon="0.32333">
        <ele>77.6</ele>
        <time>2022-04-05T11:04:51Z</time>
      </trkpt>
      <trkpt lat="44.8952" lon="0.32333">
        <ele>77.6</ele>
        <time>2022-04-05T11:04:52Z</time>
      </trkpt>
      <trkpt lat="44.8952" lon="0.32333">
        <ele>77.6</ele>
        <time>2022-04-05T11:04:53Z</time>
      </trkpt>
      <trkpt lat="44.8952" lon="0.32333">
        <ele>77.6</ele>
        <time>2022-04-05T11:04:54Z</time>
      </trkpt>
      <trkpt lat="44.8952" lon="0.32333">
        <ele>77.6</ele>
        <time>2022-04-05T11:04:55Z</time>
      </trkpt>
      <trkpt lat="44.8952" lon="0.32333">
        <ele>77.6</ele>
        <time>2022-04-05T11:04:56Z</time>
      </trkpt>
      <trkpt lat="44.8952" lon="0.32333">
        <ele>77.6</ele>
        <time>2022-04-05T11:04:57Z</time>
      </trkpt>
      <trkpt lat="44.8952" lon="0.32333">
        <ele>77.6</ele>
        <time>2022-04-05T11:04:58Z</time>
      </trkpt>
      <trkpt lat="44.8952" lon="0.32333">
        <ele>77.6</ele>
        <time>2022-04-05T11:04:59Z</time>
      </trkpt>
      <trkpt lat="44.8952" lon="0.32333">
        <ele>77.6</ele>
        <time>2022-04-05T11:05:00Z</time>
      </trkpt>
      <trkpt lat="44.8952" lon="0.32333">
        <ele>77.6</ele>
        <time>2022-04-05T11:05:01Z</time>
      </trkpt>
      <trkpt lat="44.8952" lon="0.32333">
        <ele>77.6</ele>
        <time>2022-04-05T11:05:02Z</time>
      </trkpt>
      <trkpt lat="44.8952" lon="0.32333">
        <ele>77.6</ele>
        <time>2022-04-05T11:05:03Z</time>
      </trkpt>
      <trkpt lat="44.8952" lon="0.32333">
        <ele>77.6</ele>
        <time>2022-04-05T11:05:04Z</time>
      </trkpt>
      <trkpt lat="44.8952" lon="0.32333">
        <ele>77.6</ele>
        <time>2022-04-05T11:05:05Z</time>
      </trkpt>
      <trkpt lat="44.8952" lon="0.32333">
        <ele>77.6</ele>
        <time>2022-04-05T11:05:06Z</time>
      </trkpt>
      <trkpt lat="44.8952" lon="0.32333">
        <ele>77.6</ele>
        <time>2022-04-05T11:05:07Z</time>
      </trkpt>
      <trkpt lat="44.8952" lon="0.32333">
        <ele>77.6</ele>
        <time>2022-04-05T11:05:08Z</time>
      </trkpt>
      <trkpt lat="44.8952" lon="0.32333">
        <ele>77.6</ele>
        <time>2022-04-05T11:05:09Z</time>
      </trkpt>
      <trkpt lat="44.8952" lon="0.32333">
        <ele>77.6</ele>
        <time>2022-04-05T11:05:10Z</time>
      </trkpt>
      <trkpt lat="44.8952" lon="0.32333">
        <ele>77.6</ele>
        <time>2022-04-05T11:05:11Z</time>
      </trkpt>
      <trkpt lat="44.8952" lon="0.32333">
        <ele>77.6</ele>
        <time>2022-04-05T11:05:12Z</time>
      </trkpt>
      <trkpt lat="44.8952" lon="0.32333">
        <ele>77.6</ele>
        <time>2022-04-05T11:05:13Z</time>
      </trkpt>
      <trkpt lat="44.8952" lon="0.32333">
        <ele>77.6</ele>
        <time>2022-04-05T11:05:14Z</time>
      </trkpt>
      <trkpt lat="44.8952" lon="0.32333">
        <ele>77.6</ele>
        <time>2022-04-05T11:05:15Z</time>
      </trkpt>
      <trkpt lat="44.8952" lon="0.32333">
        <ele>77.6</ele>
        <time>2022-04-05T11:05:16Z</time>
      </trkpt>
      <trkpt lat="44.8952" lon="0.32333">
        <ele>77.6</ele>
        <time>2022-04-05T11:05:17Z</time>
      </trkpt>
      <trkpt lat="44.8952" lon="0.32332">
        <ele>77.6</ele>
        <time>2022-04-05T11:05:18Z</time>
      </trkpt>
      <trkpt lat="44.89521" lon="0.32332">
        <ele>77.5</ele>
        <time>2022-04-05T11:05:19Z</time>
      </trkpt>
      <trkpt lat="44.89522" lon="0.32332">
        <ele>77.5</ele>
        <time>2022-04-05T11:05:20Z</time>
      </trkpt>
      <trkpt lat="44.89523" lon="0.32331">
        <ele>77.4</ele>
        <time>2022-04-05T11:05:21Z</time>
      </trkpt>
      <trkpt lat="44.89525" lon="0.32329">
        <ele>77.3</ele>
        <time>2022-04-05T11:05:23Z</time>
      </trkpt>
      <trkpt lat="44.89525" lon="0.32328">
        <ele>77.3</ele>
        <time>2022-04-05T11:05:24Z</time>
      </trkpt>
      <trkpt lat="44.89526" lon="0.32328">
        <ele>77.3</ele>
        <time>2022-04-05T11:05:25Z</time>
      </trkpt>
      <trkpt lat="44.89528" lon="0.32327">
        <ele>77.2</ele>
        <time>2022-04-05T11:05:26Z</time>
      </trkpt>
      <trkpt lat="44.89529" lon="0.32326">
        <ele>77.2</ele>
        <time>2022-04-05T11:05:27Z</time>
      </trkpt>
      <trkpt lat="44.8953" lon="0.32325">
        <ele>77.1</ele>
        <time>2022-04-05T11:05:28Z</time>
      </trkpt>
      <trkpt lat="44.89531" lon="0.32324">
        <ele>77.1</ele>
        <time>2022-04-05T11:05:29Z</time>
      </trkpt>
      <trkpt lat="44.89533" lon="0.32323">
        <ele>77</ele>
        <time>2022-04-05T11:05:31Z</time>
      </trkpt>
      <trkpt lat="44.89534" lon="0.32323">
        <ele>77</ele>
        <time>2022-04-05T11:05:32Z</time>
      </trkpt>
      <trkpt lat="44.89534" lon="0.32322">
        <ele>76.9</ele>
        <time>2022-04-05T11:05:33Z</time>
      </trkpt>
      <trkpt lat="44.89535" lon="0.32322">
        <ele>76.9</ele>
        <time>2022-04-05T11:05:34Z</time>
      </trkpt>
      <trkpt lat="44.89537" lon="0.32321">
        <ele>76.9</ele>
        <time>2022-04-05T11:05:35Z</time>
      </trkpt>
      <trkpt lat="44.89538" lon="0.32321">
        <ele>76.8</ele>
        <time>2022-04-05T11:05:36Z</time>
      </trkpt>
      <trkpt lat="44.89539" lon="0.3232">
        <ele>76.8</ele>
        <time>2022-04-05T11:05:37Z</time>
      </trkpt>
      <trkpt lat="44.8954" lon="0.3232">
        <ele>76.7</ele>
        <time>2022-04-05T11:05:39Z</time>
      </trkpt>
      <trkpt lat="44.89541" lon="0.32319">
        <ele>76.7</ele>
        <time>2022-04-05T11:05:40Z</time>
      </trkpt>
      <trkpt lat="44.89543" lon="0.32318">
        <ele>76.6</ele>
        <time>2022-04-05T11:05:41Z</time>
      </trkpt>
      <trkpt lat="44.89544" lon="0.32317">
        <ele>76.6</ele>
        <time>2022-04-05T11:05:42Z</time>
      </trkpt>
      <trkpt lat="44.89545" lon="0.32317">
        <ele>76.6</ele>
        <time>2022-04-05T11:05:43Z</time>
      </trkpt>
      <trkpt lat="44.89546" lon="0.32317">
        <ele>76.5</ele>
        <time>2022-04-05T11:05:44Z</time>
      </trkpt>
      <trkpt lat="44.89547" lon="0.32316">
        <ele>76.5</ele>
        <time>2022-04-05T11:05:45Z</time>
      </trkpt>
      <trkpt lat="44.89548" lon="0.32315">
        <ele>76.4</ele>
        <time>2022-04-05T11:05:46Z</time>
      </trkpt>
      <trkpt lat="44.89549" lon="0.32314">
        <ele>76.4</ele>
        <time>2022-04-05T11:05:47Z</time>
      </trkpt>
      <trkpt lat="44.8955" lon="0.32314">
        <ele>76.4</ele>
        <time>2022-04-05T11:05:48Z</time>
      </trkpt>
      <trkpt lat="44.89552" lon="0.32312">
        <ele>76.3</ele>
        <time>2022-04-05T11:05:50Z</time>
      </trkpt>
      <trkpt lat="44.89553" lon="0.32311">
        <ele>76.3</ele>
        <time>2022-04-05T11:05:51Z</time>
      </trkpt>
      <trkpt lat="44.89554" lon="0.32311">
        <ele>76.2</ele>
        <time>2022-04-05T11:05:52Z</time>
      </trkpt>
      <trkpt lat="44.89557" lon="0.3231">
        <ele>76.1</ele>
        <time>2022-04-05T11:05:53Z</time>
      </trkpt>
      <trkpt lat="44.89557" lon="0.3231">
        <ele>76.1</ele>
        <time>2022-04-05T11:05:54Z</time>
      </trkpt>
      <trkpt lat="44.89558" lon="0.3231">
        <ele>76.1</ele>
        <time>2022-04-05T11:05:55Z</time>
      </trkpt>
      <trkpt lat="44.89561" lon="0.32309">
        <ele>76</ele>
        <time>2022-04-05T11:05:56Z</time>
      </trkpt>
      <trkpt lat="44.89561" lon="0.32309">
        <ele>76</ele>
        <time>2022-04-05T11:05:57Z</time>
      </trkpt>
      <trkpt lat="44.89563" lon="0.32308">
        <ele>75.9</ele>
        <time>2022-04-05T11:05:58Z</time>
      </trkpt>
      <trkpt lat="44.89564" lon="0.32308">
        <ele>75.9</ele>
        <time>2022-04-05T11:05:59Z</time>
      </trkpt>
      <trkpt lat="44.89565" lon="0.32307">
        <ele>75.9</ele>
        <time>2022-04-05T11:06:00Z</time>
      </trkpt>
      <trkpt lat="44.89567" lon="0.32306">
        <ele>75.8</ele>
        <time>2022-04-05T11:06:01Z</time>
      </trkpt>
      <trkpt lat="44.89568" lon="0.32306">
        <ele>75.8</ele>
        <time>2022-04-05T11:06:02Z</time>
      </trkpt>
      <trkpt lat="44.8957" lon="0.32305">
        <ele>75.7</ele>
        <time>2022-04-05T11:06:03Z</time>
      </trkpt>
      <trkpt lat="44.89571" lon="0.32305">
        <ele>75.7</ele>
        <time>2022-04-05T11:06:04Z</time>
      </trkpt>
      <trkpt lat="44.89571" lon="0.32304">
        <ele>75.7</ele>
        <time>2022-04-05T11:06:05Z</time>
      </trkpt>
      <trkpt lat="44.89574" lon="0.32304">
        <ele>75.7</ele>
        <time>2022-04-05T11:06:06Z</time>
      </trkpt>
      <trkpt lat="44.89575" lon="0.32304">
        <ele>75.6</ele>
        <time>2022-04-05T11:06:07Z</time>
      </trkpt>
      <trkpt lat="44.89577" lon="0.32305">
        <ele>75.6</ele>
        <time>2022-04-05T11:06:08Z</time>
      </trkpt>
      <trkpt lat="44.89577" lon="0.32305">
        <ele>75.6</ele>
        <time>2022-04-05T11:06:09Z</time>
      </trkpt>
      <trkpt lat="44.89578" lon="0.32305">
        <ele>75.6</ele>
        <time>2022-04-05T11:06:10Z</time>
      </trkpt>
      <trkpt lat="44.8958" lon="0.32305">
        <ele>75.6</ele>
        <time>2022-04-05T11:06:11Z</time>
      </trkpt>
      <trkpt lat="44.89581" lon="0.32305">
        <ele>75.5</ele>
        <time>2022-04-05T11:06:12Z</time>
      </trkpt>
      <trkpt lat="44.89581" lon="0.32304">
        <ele>75.5</ele>
        <time>2022-04-05T11:06:13Z</time>
      </trkpt>
      <trkpt lat="44.89581" lon="0.32304">
        <ele>75.5</ele>
        <time>2022-04-05T11:06:14Z</time>
      </trkpt>
      <trkpt lat="44.8958" lon="0.32304">
        <ele>75.5</ele>
        <time>2022-04-05T11:06:15Z</time>
      </trkpt>
      <trkpt lat="44.89581" lon="0.32304">
        <ele>75.5</ele>
        <time>2022-04-05T11:06:16Z</time>
      </trkpt>
      <trkpt lat="44.89581" lon="0.32304">
        <ele>75.5</ele>
        <time>2022-04-05T11:06:17Z</time>
      </trkpt>
      <trkpt lat="44.89582" lon="0.32304">
        <ele>75.5</ele>
        <time>2022-04-05T11:06:18Z</time>
      </trkpt>
      <trkpt lat="44.89583" lon="0.32304">
        <ele>75.5</ele>
        <time>2022-04-05T11:06:19Z</time>
      </trkpt>
      <trkpt lat="44.89584" lon="0.32304">
        <ele>75.5</ele>
        <time>2022-04-05T11:06:20Z</time>
      </trkpt>
      <trkpt lat="44.89585" lon="0.32305">
        <ele>75.5</ele>
        <time>2022-04-05T11:06:22Z</time>
      </trkpt>
      <trkpt lat="44.89587" lon="0.32305">
        <ele>75.5</ele>
        <time>2022-04-05T11:06:23Z</time>
      </trkpt>
      <trkpt lat="44.89588" lon="0.32306">
        <ele>75.4</ele>
        <time>2022-04-05T11:06:24Z</time>
      </trkpt>
      <trkpt lat="44.89589" lon="0.32306">
        <ele>75.4</ele>
        <time>2022-04-05T11:06:25Z</time>
      </trkpt>
      <trkpt lat="44.89591" lon="0.32307">
        <ele>75.4</ele>
        <time>2022-04-05T11:06:26Z</time>
      </trkpt>
      <trkpt lat="44.89592" lon="0.32307">
        <ele>75.4</ele>
        <time>2022-04-05T11:06:27Z</time>
      </trkpt>
      <trkpt lat="44.89594" lon="0.32308">
        <ele>75.4</ele>
        <time>2022-04-05T11:06:28Z</time>
      </trkpt>
      <trkpt lat="44.89595" lon="0.32308">
        <ele>75.4</ele>
        <time>2022-04-05T11:06:30Z</time>
      </trkpt>
      <trkpt lat="44.89596" lon="0.32308">
        <ele>75.4</ele>
        <time>2022-04-05T11:06:31Z</time>
      </trkpt>
      <trkpt lat="44.89597" lon="0.32309">
        <ele>75.4</ele>
        <time>2022-04-05T11:06:32Z</time>
      </trkpt>
      <trkpt lat="44.89598" lon="0.32309">
        <ele>75.4</ele>
        <time>2022-04-05T11:06:33Z</time>
      </trkpt>
      <trkpt lat="44.896" lon="0.32309">
        <ele>75.4</ele>
        <time>2022-04-05T11:06:35Z</time>
      </trkpt>
      <trkpt lat="44.89601" lon="0.3231">
        <ele>75.4</ele>
        <time>2022-04-05T11:06:36Z</time>
      </trkpt>
      <trkpt lat="44.89603" lon="0.3231">
        <ele>75.4</ele>
        <time>2022-04-05T11:06:37Z</time>
      </trkpt>
      <trkpt lat="44.89605" lon="0.32311">
        <ele>75.4</ele>
        <time>2022-04-05T11:06:38Z</time>
      </trkpt>
      <trkpt lat="44.89605" lon="0.32311">
        <ele>75.4</ele>
        <time>2022-04-05T11:06:39Z</time>
      </trkpt>
      <trkpt lat="44.89606" lon="0.32312">
        <ele>75.4</ele>
        <time>2022-04-05T11:06:40Z</time>
      </trkpt>
      <trkpt lat="44.89608" lon="0.32312">
        <ele>75.4</ele>
        <time>2022-04-05T11:06:41Z</time>
      </trkpt>
      <trkpt lat="44.89609" lon="0.32312">
        <ele>75.3</ele>
        <time>2022-04-05T11:06:42Z</time>
      </trkpt>
      <trkpt lat="44.89611" lon="0.32313">
        <ele>75.3</ele>
        <time>2022-04-05T11:06:44Z</time>
      </trkpt>
      <trkpt lat="44.89612" lon="0.32313">
        <ele>75.3</ele>
        <time>2022-04-05T11:06:45Z</time>
      </trkpt>
      <trkpt lat="44.89615" lon="0.32313">
        <ele>75.3</ele>
        <time>2022-04-05T11:06:46Z</time>
      </trkpt>
      <trkpt lat="44.89615" lon="0.32313">
        <ele>75.3</ele>
        <time>2022-04-05T11:06:47Z</time>
      </trkpt>
      <trkpt lat="44.89617" lon="0.32313">
        <ele>75.3</ele>
        <time>2022-04-05T11:06:48Z</time>
      </trkpt>
      <trkpt lat="44.89617" lon="0.32312">
        <ele>75.3</ele>
        <time>2022-04-05T11:06:49Z</time>
      </trkpt>
      <trkpt lat="44.89617" lon="0.32311">
        <ele>75.3</ele>
        <time>2022-04-05T11:06:50Z</time>
      </trkpt>
      <trkpt lat="44.89617" lon="0.3231">
        <ele>75.3</ele>
        <time>2022-04-05T11:06:51Z</time>
      </trkpt>
      <trkpt lat="44.89616" lon="0.32309">
        <ele>75.3</ele>
        <time>2022-04-05T11:06:52Z</time>
      </trkpt>
      <trkpt lat="44.89616" lon="0.32309">
        <ele>75.3</ele>
        <time>2022-04-05T11:06:53Z</time>
      </trkpt>
      <trkpt lat="44.89617" lon="0.3231">
        <ele>75.3</ele>
        <time>2022-04-05T11:06:54Z</time>
      </trkpt>
      <trkpt lat="44.89618" lon="0.32311">
        <ele>75.3</ele>
        <time>2022-04-05T11:06:56Z</time>
      </trkpt>
      <trkpt lat="44.89619" lon="0.32313">
        <ele>75.3</ele>
        <time>2022-04-05T11:06:57Z</time>
      </trkpt>
      <trkpt lat="44.89621" lon="0.32314">
        <ele>75.2</ele>
        <time>2022-04-05T11:06:58Z</time>
      </trkpt>
      <trkpt lat="44.89622" lon="0.32314">
        <ele>75.2</ele>
        <time>2022-04-05T11:06:59Z</time>
      </trkpt>
      <trkpt lat="44.89623" lon="0.32314">
        <ele>75.2</ele>
        <time>2022-04-05T11:07:00Z</time>
      </trkpt>
      <trkpt lat="44.89625" lon="0.32315">
        <ele>75.2</ele>
        <time>2022-04-05T11:07:01Z</time>
      </trkpt>
      <trkpt lat="44.89626" lon="0.32314">
        <ele>75.1</ele>
        <time>2022-04-05T11:07:02Z</time>
      </trkpt>
      <trkpt lat="44.89628" lon="0.32314">
        <ele>75.1</ele>
        <time>2022-04-05T11:07:03Z</time>
      </trkpt>
      <trkpt lat="44.89629" lon="0.32314">
        <ele>75.1</ele>
        <time>2022-04-05T11:07:04Z</time>
      </trkpt>
      <trkpt lat="44.89631" lon="0.32314">
        <ele>75.1</ele>
        <time>2022-04-05T11:07:05Z</time>
      </trkpt>
      <trkpt lat="44.89634" lon="0.32314">
        <ele>75.1</ele>
        <time>2022-04-05T11:07:07Z</time>
      </trkpt>
      <trkpt lat="44.89635" lon="0.32314">
        <ele>75.1</ele>
        <time>2022-04-05T11:07:08Z</time>
      </trkpt>
      <trkpt lat="44.89637" lon="0.32314">
        <ele>75</ele>
        <time>2022-04-05T11:07:09Z</time>
      </trkpt>
      <trkpt lat="44.89639" lon="0.32314">
        <ele>75</ele>
        <time>2022-04-05T11:07:10Z</time>
      </trkpt>
      <trkpt lat="44.89641" lon="0.32314">
        <ele>75</ele>
        <time>2022-04-05T11:07:11Z</time>
      </trkpt>
      <trkpt lat="44.89642" lon="0.32315">
        <ele>75</ele>
        <time>2022-04-05T11:07:12Z</time>
      </trkpt>
      <trkpt lat="44.89644" lon="0.32315">
        <ele>74.9</ele>
        <time>2022-04-05T11:07:13Z</time>
      </trkpt>
      <trkpt lat="44.89646" lon="0.32315">
        <ele>74.9</ele>
        <time>2022-04-05T11:07:14Z</time>
      </trkpt>
      <trkpt lat="44.89649" lon="0.32315">
        <ele>74.9</ele>
        <time>2022-04-05T11:07:16Z</time>
      </trkpt>
      <trkpt lat="44.89652" lon="0.32316">
        <ele>74.8</ele>
        <time>2022-04-05T11:07:17Z</time>
      </trkpt>
      <trkpt lat="44.89652" lon="0.32316">
        <ele>74.8</ele>
        <time>2022-04-05T11:07:18Z</time>
      </trkpt>
      <trkpt lat="44.89654" lon="0.32317">
        <ele>74.8</ele>
        <time>2022-04-05T11:07:19Z</time>
      </trkpt>
      <trkpt lat="44.89656" lon="0.32317">
        <ele>74.8</ele>
        <time>2022-04-05T11:07:20Z</time>
      </trkpt>
      <trkpt lat="44.89657" lon="0.32317">
        <ele>74.8</ele>
        <time>2022-04-05T11:07:21Z</time>
      </trkpt>
      <trkpt lat="44.89659" lon="0.32318">
        <ele>74.7</ele>
        <time>2022-04-05T11:07:22Z</time>
      </trkpt>
      <trkpt lat="44.89662" lon="0.32319">
        <ele>74.7</ele>
        <time>2022-04-05T11:07:23Z</time>
      </trkpt>
      <trkpt lat="44.89662" lon="0.32319">
        <ele>74.7</ele>
        <time>2022-04-05T11:07:24Z</time>
      </trkpt>
      <trkpt lat="44.89663" lon="0.3232">
        <ele>74.7</ele>
        <time>2022-04-05T11:07:25Z</time>
      </trkpt>
      <trkpt lat="44.89665" lon="0.3232">
        <ele>74.6</ele>
        <time>2022-04-05T11:07:27Z</time>
      </trkpt>
      <trkpt lat="44.89667" lon="0.32321">
        <ele>74.5</ele>
        <time>2022-04-05T11:07:28Z</time>
      </trkpt>
      <trkpt lat="44.89668" lon="0.32321">
        <ele>74.5</ele>
        <time>2022-04-05T11:07:29Z</time>
      </trkpt>
      <trkpt lat="44.8967" lon="0.32321">
        <ele>74.5</ele>
        <time>2022-04-05T11:07:31Z</time>
      </trkpt>
      <trkpt lat="44.89671" lon="0.32321">
        <ele>74.4</ele>
        <time>2022-04-05T11:07:32Z</time>
      </trkpt>
      <trkpt lat="44.89672" lon="0.32321">
        <ele>74.4</ele>
        <time>2022-04-05T11:07:33Z</time>
      </trkpt>
      <trkpt lat="44.89674" lon="0.32321">
        <ele>74.4</ele>
        <time>2022-04-05T11:07:34Z</time>
      </trkpt>
      <trkpt lat="44.89675" lon="0.32321">
        <ele>74.3</ele>
        <time>2022-04-05T11:07:35Z</time>
      </trkpt>
      <trkpt lat="44.89676" lon="0.32321">
        <ele>74.3</ele>
        <time>2022-04-05T11:07:36Z</time>
      </trkpt>
      <trkpt lat="44.89677" lon="0.32321">
        <ele>74.2</ele>
        <time>2022-04-05T11:07:37Z</time>
      </trkpt>
      <trkpt lat="44.89679" lon="0.3232">
        <ele>74.1</ele>
        <time>2022-04-05T11:07:39Z</time>
      </trkpt>
      <trkpt lat="44.89678" lon="0.32319">
        <ele>74.1</ele>
        <time>2022-04-05T11:07:40Z</time>
      </trkpt>
      <trkpt lat="44.89677" lon="0.32319">
        <ele>74.1</ele>
        <time>2022-04-05T11:07:41Z</time>
      </trkpt>
      <trkpt lat="44.89676" lon="0.32319">
        <ele>73.9</ele>
        <time>2022-04-05T11:07:42Z</time>
      </trkpt>
      <trkpt lat="44.89676" lon="0.32318">
        <ele>73.9</ele>
        <time>2022-04-05T11:07:43Z</time>
      </trkpt>
      <trkpt lat="44.89677" lon="0.32318">
        <ele>73.9</ele>
        <time>2022-04-05T11:07:45Z</time>
      </trkpt>
      <trkpt lat="44.89678" lon="0.32319">
        <ele>73.8</ele>
        <time>2022-04-05T11:07:46Z</time>
      </trkpt>
      <trkpt lat="44.89679" lon="0.32319">
        <ele>73.8</ele>
        <time>2022-04-05T11:07:47Z</time>
      </trkpt>
      <trkpt lat="44.89681" lon="0.32319">
        <ele>73.6</ele>
        <time>2022-04-05T11:07:48Z</time>
      </trkpt>
      <trkpt lat="44.89682" lon="0.3232">
        <ele>73.6</ele>
        <time>2022-04-05T11:07:49Z</time>
      </trkpt>
      <trkpt lat="44.89683" lon="0.3232">
        <ele>73.5</ele>
        <time>2022-04-05T11:07:50Z</time>
      </trkpt>
      <trkpt lat="44.89684" lon="0.3232">
        <ele>73.4</ele>
        <time>2022-04-05T11:07:51Z</time>
      </trkpt>
      <trkpt lat="44.89685" lon="0.3232">
        <ele>73.3</ele>
        <time>2022-04-05T11:07:52Z</time>
      </trkpt>
      <trkpt lat="44.89687" lon="0.32321">
        <ele>73.2</ele>
        <time>2022-04-05T11:07:53Z</time>
      </trkpt>
      <trkpt lat="44.89688" lon="0.32322">
        <ele>73.1</ele>
        <time>2022-04-05T11:07:54Z</time>
      </trkpt>
      <trkpt lat="44.8969" lon="0.32323">
        <ele>72.9</ele>
        <time>2022-04-05T11:07:55Z</time>
      </trkpt>
      <trkpt lat="44.89691" lon="0.32323">
        <ele>72.8</ele>
        <time>2022-04-05T11:07:57Z</time>
      </trkpt>
      <trkpt lat="44.89692" lon="0.32324">
        <ele>72.8</ele>
        <time>2022-04-05T11:07:58Z</time>
      </trkpt>
      <trkpt lat="44.89694" lon="0.32324">
        <ele>72.5</ele>
        <time>2022-04-05T11:07:59Z</time>
      </trkpt>
      <trkpt lat="44.89695" lon="0.32325">
        <ele>72.4</ele>
        <time>2022-04-05T11:08:00Z</time>
      </trkpt>
      <trkpt lat="44.89696" lon="0.32325">
        <ele>72.4</ele>
        <time>2022-04-05T11:08:01Z</time>
      </trkpt>
      <trkpt lat="44.89698" lon="0.32325">
        <ele>72.2</ele>
        <time>2022-04-05T11:08:02Z</time>
      </trkpt>
      <trkpt lat="44.89698" lon="0.32325">
        <ele>72.1</ele>
        <time>2022-04-05T11:08:03Z</time>
      </trkpt>
      <trkpt lat="44.89699" lon="0.32325">
        <ele>72</ele>
        <time>2022-04-05T11:08:04Z</time>
      </trkpt>
      <trkpt lat="44.89701" lon="0.32326">
        <ele>71.7</ele>
        <time>2022-04-05T11:08:05Z</time>
      </trkpt>
      <trkpt lat="44.89702" lon="0.32326">
        <ele>71.6</ele>
        <time>2022-04-05T11:08:06Z</time>
      </trkpt>
      <trkpt lat="44.89703" lon="0.32326">
        <ele>71.5</ele>
        <time>2022-04-05T11:08:07Z</time>
      </trkpt>
      <trkpt lat="44.89704" lon="0.32326">
        <ele>71.4</ele>
        <time>2022-04-05T11:08:08Z</time>
      </trkpt>
      <trkpt lat="44.89706" lon="0.32327">
        <ele>71.2</ele>
        <time>2022-04-05T11:08:09Z</time>
      </trkpt>
      <trkpt lat="44.89707" lon="0.32327">
        <ele>71.1</ele>
        <time>2022-04-05T11:08:10Z</time>
      </trkpt>
      <trkpt lat="44.89708" lon="0.32327">
        <ele>70.9</ele>
        <time>2022-04-05T11:08:11Z</time>
      </trkpt>
      <trkpt lat="44.89709" lon="0.32327">
        <ele>70.8</ele>
        <time>2022-04-05T11:08:12Z</time>
      </trkpt>
      <trkpt lat="44.89711" lon="0.32327">
        <ele>70.5</ele>
        <time>2022-04-05T11:08:14Z</time>
      </trkpt>
      <trkpt lat="44.89713" lon="0.32327">
        <ele>70.3</ele>
        <time>2022-04-05T11:08:15Z</time>
      </trkpt>
      <trkpt lat="44.89714" lon="0.32327">
        <ele>70.2</ele>
        <time>2022-04-05T11:08:16Z</time>
      </trkpt>
      <trkpt lat="44.89715" lon="0.32328">
        <ele>70</ele>
        <time>2022-04-05T11:08:17Z</time>
      </trkpt>
      <trkpt lat="44.89717" lon="0.32328">
        <ele>69.7</ele>
        <time>2022-04-05T11:08:18Z</time>
      </trkpt>
      <trkpt lat="44.89718" lon="0.32328">
        <ele>69.7</ele>
        <time>2022-04-05T11:08:19Z</time>
      </trkpt>
      <trkpt lat="44.89719" lon="0.32329">
        <ele>69.5</ele>
        <time>2022-04-05T11:08:21Z</time>
      </trkpt>
      <trkpt lat="44.89721" lon="0.32329">
        <ele>69.3</ele>
        <time>2022-04-05T11:08:22Z</time>
      </trkpt>
      <trkpt lat="44.89722" lon="0.32329">
        <ele>69.1</ele>
        <time>2022-04-05T11:08:23Z</time>
      </trkpt>
      <trkpt lat="44.89724" lon="0.32329">
        <ele>68.9</ele>
        <time>2022-04-05T11:08:24Z</time>
      </trkpt>
      <trkpt lat="44.89725" lon="0.3233">
        <ele>68.7</ele>
        <time>2022-04-05T11:08:25Z</time>
      </trkpt>
      <trkpt lat="44.89726" lon="0.3233">
        <ele>68.6</ele>
        <time>2022-04-05T11:08:26Z</time>
      </trkpt>
      <trkpt lat="44.89727" lon="0.3233">
        <ele>68.5</ele>
        <time>2022-04-05T11:08:27Z</time>
      </trkpt>
      <trkpt lat="44.89728" lon="0.3233">
        <ele>68.3</ele>
        <time>2022-04-05T11:08:28Z</time>
      </trkpt>
      <trkpt lat="44.8973" lon="0.3233">
        <ele>68</ele>
        <time>2022-04-05T11:08:29Z</time>
      </trkpt>
      <trkpt lat="44.89731" lon="0.32331">
        <ele>67.9</ele>
        <time>2022-04-05T11:08:30Z</time>
      </trkpt>
      <trkpt lat="44.89732" lon="0.32331">
        <ele>67.8</ele>
        <time>2022-04-05T11:08:31Z</time>
      </trkpt>
      <trkpt lat="44.89734" lon="0.32331">
        <ele>67.6</ele>
        <time>2022-04-05T11:08:32Z</time>
      </trkpt>
      <trkpt lat="44.89735" lon="0.32331">
        <ele>67.4</ele>
        <time>2022-04-05T11:08:33Z</time>
      </trkpt>
      <trkpt lat="44.89737" lon="0.32331">
        <ele>67.2</ele>
        <time>2022-04-05T11:08:34Z</time>
      </trkpt>
      <trkpt lat="44.89738" lon="0.32331">
        <ele>67.1</ele>
        <time>2022-04-05T11:08:35Z</time>
      </trkpt>
      <trkpt lat="44.89739" lon="0.32332">
        <ele>66.9</ele>
        <time>2022-04-05T11:08:36Z</time>
      </trkpt>
      <trkpt lat="44.8974" lon="0.32332">
        <ele>66.8</ele>
        <time>2022-04-05T11:08:37Z</time>
      </trkpt>
      <trkpt lat="44.89741" lon="0.32332">
        <ele>66.6</ele>
        <time>2022-04-05T11:08:38Z</time>
      </trkpt>
      <trkpt lat="44.89743" lon="0.32332">
        <ele>66.4</ele>
        <time>2022-04-05T11:08:39Z</time>
      </trkpt>
      <trkpt lat="44.89745" lon="0.32333">
        <ele>66.1</ele>
        <time>2022-04-05T11:08:40Z</time>
      </trkpt>
      <trkpt lat="44.89746" lon="0.32333">
        <ele>66</ele>
        <time>2022-04-05T11:08:41Z</time>
      </trkpt>
      <trkpt lat="44.89747" lon="0.32334">
        <ele>65.9</ele>
        <time>2022-04-05T11:08:42Z</time>
      </trkpt>
      <trkpt lat="44.89748" lon="0.32335">
        <ele>65.7</ele>
        <time>2022-04-05T11:08:43Z</time>
      </trkpt>
      <trkpt lat="44.89749" lon="0.32335">
        <ele>65.6</ele>
        <time>2022-04-05T11:08:44Z</time>
      </trkpt>
      <trkpt lat="44.8975" lon="0.32336">
        <ele>65.4</ele>
        <time>2022-04-05T11:08:45Z</time>
      </trkpt>
      <trkpt lat="44.89751" lon="0.32337">
        <ele>65.3</ele>
        <time>2022-04-05T11:08:46Z</time>
      </trkpt>
      <trkpt lat="44.89753" lon="0.32338">
        <ele>65.1</ele>
        <time>2022-04-05T11:08:48Z</time>
      </trkpt>
      <trkpt lat="44.89754" lon="0.32339">
        <ele>64.8</ele>
        <time>2022-04-05T11:08:49Z</time>
      </trkpt>
      <trkpt lat="44.89755" lon="0.3234">
        <ele>64.7</ele>
        <time>2022-04-05T11:08:50Z</time>
      </trkpt>
      <trkpt lat="44.89756" lon="0.32341">
        <ele>64.5</ele>
        <time>2022-04-05T11:08:51Z</time>
      </trkpt>
      <trkpt lat="44.89757" lon="0.32342">
        <ele>64.3</ele>
        <time>2022-04-05T11:08:52Z</time>
      </trkpt>
      <trkpt lat="44.89759" lon="0.32344">
        <ele>64.2</ele>
        <time>2022-04-05T11:08:53Z</time>
      </trkpt>
      <trkpt lat="44.8976" lon="0.32345">
        <ele>63.9</ele>
        <time>2022-04-05T11:08:54Z</time>
      </trkpt>
      <trkpt lat="44.89761" lon="0.32346">
        <ele>63.8</ele>
        <time>2022-04-05T11:08:56Z</time>
      </trkpt>
      <trkpt lat="44.89762" lon="0.32348">
        <ele>63.6</ele>
        <time>2022-04-05T11:08:57Z</time>
      </trkpt>
      <trkpt lat="44.89764" lon="0.32351">
        <ele>63.3</ele>
        <time>2022-04-05T11:08:58Z</time>
      </trkpt>
      <trkpt lat="44.89764" lon="0.32352">
        <ele>63.2</ele>
        <time>2022-04-05T11:08:59Z</time>
      </trkpt>
      <trkpt lat="44.89765" lon="0.32353">
        <ele>63.1</ele>
        <time>2022-04-05T11:09:01Z</time>
      </trkpt>
      <trkpt lat="44.89766" lon="0.32354">
        <ele>63</ele>
        <time>2022-04-05T11:09:02Z</time>
      </trkpt>
      <trkpt lat="44.89767" lon="0.32356">
        <ele>62.8</ele>
        <time>2022-04-05T11:09:03Z</time>
      </trkpt>
      <trkpt lat="44.89768" lon="0.32358">
        <ele>62.6</ele>
        <time>2022-04-05T11:09:04Z</time>
      </trkpt>
      <trkpt lat="44.89769" lon="0.32359">
        <ele>62.5</ele>
        <time>2022-04-05T11:09:05Z</time>
      </trkpt>
      <trkpt lat="44.89769" lon="0.3236">
        <ele>62.5</ele>
        <time>2022-04-05T11:09:06Z</time>
      </trkpt>
      <trkpt lat="44.8977" lon="0.32361">
        <ele>62.3</ele>
        <time>2022-04-05T11:09:07Z</time>
      </trkpt>
      <trkpt lat="44.89772" lon="0.32364">
        <ele>62.1</ele>
        <time>2022-04-05T11:09:09Z</time>
      </trkpt>
      <trkpt lat="44.89772" lon="0.32364">
        <ele>62</ele>
        <time>2022-04-05T11:09:10Z</time>
      </trkpt>
      <trkpt lat="44.89773" lon="0.32366">
        <ele>61.9</ele>
        <time>2022-04-05T11:09:11Z</time>
      </trkpt>
      <trkpt lat="44.89774" lon="0.32367">
        <ele>61.8</ele>
        <time>2022-04-05T11:09:12Z</time>
      </trkpt>
      <trkpt lat="44.89774" lon="0.32369">
        <ele>61.7</ele>
        <time>2022-04-05T11:09:13Z</time>
      </trkpt>
      <trkpt lat="44.89775" lon="0.32371">
        <ele>61.6</ele>
        <time>2022-04-05T11:09:14Z</time>
      </trkpt>
      <trkpt lat="44.89775" lon="0.32374">
        <ele>61.4</ele>
        <time>2022-04-05T11:09:15Z</time>
      </trkpt>
      <trkpt lat="44.89776" lon="0.32375">
        <ele>61.3</ele>
        <time>2022-04-05T11:09:17Z</time>
      </trkpt>
      <trkpt lat="44.89776" lon="0.32376">
        <ele>61.2</ele>
        <time>2022-04-05T11:09:18Z</time>
      </trkpt>
      <trkpt lat="44.89777" lon="0.32379">
        <ele>61.1</ele>
        <time>2022-04-05T11:09:19Z</time>
      </trkpt>
      <trkpt lat="44.89777" lon="0.32379">
        <ele>61</ele>
        <time>2022-04-05T11:09:20Z</time>
      </trkpt>
      <trkpt lat="44.89778" lon="0.32381">
        <ele>60.9</ele>
        <time>2022-04-05T11:09:21Z</time>
      </trkpt>
      <trkpt lat="44.89778" lon="0.32382">
        <ele>60.9</ele>
        <time>2022-04-05T11:09:22Z</time>
      </trkpt>
      <trkpt lat="44.89778" lon="0.32384">
        <ele>60.8</ele>
        <time>2022-04-05T11:09:23Z</time>
      </trkpt>
      <trkpt lat="44.89778" lon="0.32386">
        <ele>60.7</ele>
        <time>2022-04-05T11:09:24Z</time>
      </trkpt>
      <trkpt lat="44.89778" lon="0.32387">
        <ele>60.6</ele>
        <time>2022-04-05T11:09:25Z</time>
      </trkpt>
      <trkpt lat="44.89778" lon="0.32388">
        <ele>60.6</ele>
        <time>2022-04-05T11:09:26Z</time>
      </trkpt>
      <trkpt lat="44.89779" lon="0.32391">
        <ele>60.4</ele>
        <time>2022-04-05T11:09:27Z</time>
      </trkpt>
      <trkpt lat="44.8978" lon="0.32392">
        <ele>60.3</ele>
        <time>2022-04-05T11:09:28Z</time>
      </trkpt>
      <trkpt lat="44.8978" lon="0.32393">
        <ele>60.3</ele>
        <time>2022-04-05T11:09:29Z</time>
      </trkpt>
      <trkpt lat="44.8978" lon="0.32395">
        <ele>60.2</ele>
        <time>2022-04-05T11:09:30Z</time>
      </trkpt>
      <trkpt lat="44.89781" lon="0.32396">
        <ele>60.1</ele>
        <time>2022-04-05T11:09:31Z</time>
      </trkpt>
      <trkpt lat="44.89781" lon="0.32398">
        <ele>60.1</ele>
        <time>2022-04-05T11:09:32Z</time>
      </trkpt>
      <trkpt lat="44.89782" lon="0.324">
        <ele>59.9</ele>
        <time>2022-04-05T11:09:34Z</time>
      </trkpt>
      <trkpt lat="44.89782" lon="0.32401">
        <ele>59.9</ele>
        <time>2022-04-05T11:09:35Z</time>
      </trkpt>
      <trkpt lat="44.89783" lon="0.32402">
        <ele>59.9</ele>
        <time>2022-04-05T11:09:36Z</time>
      </trkpt>
      <trkpt lat="44.89783" lon="0.32405">
        <ele>59.8</ele>
        <time>2022-04-05T11:09:37Z</time>
      </trkpt>
      <trkpt lat="44.89784" lon="0.32406">
        <ele>59.7</ele>
        <time>2022-04-05T11:09:38Z</time>
      </trkpt>
      <trkpt lat="44.89784" lon="0.32407">
        <ele>59.7</ele>
        <time>2022-04-05T11:09:39Z</time>
      </trkpt>
      <trkpt lat="44.89784" lon="0.32408">
        <ele>59.6</ele>
        <time>2022-04-05T11:09:40Z</time>
      </trkpt>
      <trkpt lat="44.89785" lon="0.3241">
        <ele>59.6</ele>
        <time>2022-04-05T11:09:42Z</time>
      </trkpt>
      <trkpt lat="44.89785" lon="0.32412">
        <ele>59.5</ele>
        <time>2022-04-05T11:09:43Z</time>
      </trkpt>
      <trkpt lat="44.89786" lon="0.32415">
        <ele>59.4</ele>
        <time>2022-04-05T11:09:44Z</time>
      </trkpt>
      <trkpt lat="44.89786" lon="0.32415">
        <ele>59.4</ele>
        <time>2022-04-05T11:09:45Z</time>
      </trkpt>
      <trkpt lat="44.89786" lon="0.32417">
        <ele>59.3</ele>
        <time>2022-04-05T11:09:46Z</time>
      </trkpt>
      <trkpt lat="44.89787" lon="0.32419">
        <ele>59.2</ele>
        <time>2022-04-05T11:09:47Z</time>
      </trkpt>
      <trkpt lat="44.89787" lon="0.32421">
        <ele>59.2</ele>
        <time>2022-04-05T11:09:48Z</time>
      </trkpt>
      <trkpt lat="44.89787" lon="0.32422">
        <ele>59.2</ele>
        <time>2022-04-05T11:09:49Z</time>
      </trkpt>
      <trkpt lat="44.89787" lon="0.32423">
        <ele>59.1</ele>
        <time>2022-04-05T11:09:50Z</time>
      </trkpt>
      <trkpt lat="44.89787" lon="0.32424">
        <ele>59.1</ele>
        <time>2022-04-05T11:09:51Z</time>
      </trkpt>
      <trkpt lat="44.89787" lon="0.32426">
        <ele>59</ele>
        <time>2022-04-05T11:09:52Z</time>
      </trkpt>
      <trkpt lat="44.89788" lon="0.32429">
        <ele>58.9</ele>
        <time>2022-04-05T11:09:53Z</time>
      </trkpt>
      <trkpt lat="44.89788" lon="0.32431">
        <ele>58.9</ele>
        <time>2022-04-05T11:09:55Z</time>
      </trkpt>
      <trkpt lat="44.89788" lon="0.32432">
        <ele>58.9</ele>
        <time>2022-04-05T11:09:56Z</time>
      </trkpt>
      <trkpt lat="44.89788" lon="0.32434">
        <ele>58.8</ele>
        <time>2022-04-05T11:09:57Z</time>
      </trkpt>
      <trkpt lat="44.89789" lon="0.32435">
        <ele>58.8</ele>
        <time>2022-04-05T11:09:58Z</time>
      </trkpt>
      <trkpt lat="44.89789" lon="0.32439">
        <ele>58.7</ele>
        <time>2022-04-05T11:09:59Z</time>
      </trkpt>
      <trkpt lat="44.89789" lon="0.32439">
        <ele>58.7</ele>
        <time>2022-04-05T11:10:00Z</time>
      </trkpt>
      <trkpt lat="44.8979" lon="0.32441">
        <ele>58.7</ele>
        <time>2022-04-05T11:10:01Z</time>
      </trkpt>
      <trkpt lat="44.8979" lon="0.32442">
        <ele>58.6</ele>
        <time>2022-04-05T11:10:02Z</time>
      </trkpt>
      <trkpt lat="44.8979" lon="0.32444">
        <ele>58.6</ele>
        <time>2022-04-05T11:10:03Z</time>
      </trkpt>
      <trkpt lat="44.89791" lon="0.32446">
        <ele>58.5</ele>
        <time>2022-04-05T11:10:05Z</time>
      </trkpt>
      <trkpt lat="44.89792" lon="0.32447">
        <ele>58.5</ele>
        <time>2022-04-05T11:10:06Z</time>
      </trkpt>
      <trkpt lat="44.89793" lon="0.3245">
        <ele>58.5</ele>
        <time>2022-04-05T11:10:07Z</time>
      </trkpt>
      <trkpt lat="44.89794" lon="0.32451">
        <ele>58.5</ele>
        <time>2022-04-05T11:10:08Z</time>
      </trkpt>
      <trkpt lat="44.89794" lon="0.32452">
        <ele>58.4</ele>
        <time>2022-04-05T11:10:09Z</time>
      </trkpt>
      <trkpt lat="44.89796" lon="0.32455">
        <ele>58.4</ele>
        <time>2022-04-05T11:10:11Z</time>
      </trkpt>
      <trkpt lat="44.89796" lon="0.32456">
        <ele>58.4</ele>
        <time>2022-04-05T11:10:12Z</time>
      </trkpt>
      <trkpt lat="44.89797" lon="0.32457">
        <ele>58.4</ele>
        <time>2022-04-05T11:10:13Z</time>
      </trkpt>
      <trkpt lat="44.89798" lon="0.32459">
        <ele>58.4</ele>
        <time>2022-04-05T11:10:14Z</time>
      </trkpt>
      <trkpt lat="44.898" lon="0.32461">
        <ele>58.4</ele>
        <time>2022-04-05T11:10:15Z</time>
      </trkpt>
      <trkpt lat="44.898" lon="0.32462">
        <ele>58.4</ele>
        <time>2022-04-05T11:10:17Z</time>
      </trkpt>
      <trkpt lat="44.89801" lon="0.32463">
        <ele>58.4</ele>
        <time>2022-04-05T11:10:18Z</time>
      </trkpt>
      <trkpt lat="44.89802" lon="0.32466">
        <ele>58.4</ele>
        <time>2022-04-05T11:10:19Z</time>
      </trkpt>
      <trkpt lat="44.89803" lon="0.32467">
        <ele>58.4</ele>
        <time>2022-04-05T11:10:20Z</time>
      </trkpt>
      <trkpt lat="44.89803" lon="0.32468">
        <ele>58.4</ele>
        <time>2022-04-05T11:10:21Z</time>
      </trkpt>
      <trkpt lat="44.89804" lon="0.32469">
        <ele>58.4</ele>
        <time>2022-04-05T11:10:22Z</time>
      </trkpt>
      <trkpt lat="44.89805" lon="0.3247">
        <ele>58.4</ele>
        <time>2022-04-05T11:10:23Z</time>
      </trkpt>
      <trkpt lat="44.89807" lon="0.32471">
        <ele>58.5</ele>
        <time>2022-04-05T11:10:25Z</time>
      </trkpt>
      <trkpt lat="44.89808" lon="0.32473">
        <ele>58.5</ele>
        <time>2022-04-05T11:10:26Z</time>
      </trkpt>
      <trkpt lat="44.89809" lon="0.32474">
        <ele>58.5</ele>
        <time>2022-04-05T11:10:27Z</time>
      </trkpt>
      <trkpt lat="44.89809" lon="0.32475">
        <ele>58.6</ele>
        <time>2022-04-05T11:10:28Z</time>
      </trkpt>
      <trkpt lat="44.8981" lon="0.32476">
        <ele>58.6</ele>
        <time>2022-04-05T11:10:29Z</time>
      </trkpt>
      <trkpt lat="44.89811" lon="0.32477">
        <ele>58.6</ele>
        <time>2022-04-05T11:10:30Z</time>
      </trkpt>
      <trkpt lat="44.89812" lon="0.32479">
        <ele>58.7</ele>
        <time>2022-04-05T11:10:31Z</time>
      </trkpt>
      <trkpt lat="44.89813" lon="0.3248">
        <ele>58.7</ele>
        <time>2022-04-05T11:10:32Z</time>
      </trkpt>
      <trkpt lat="44.89813" lon="0.32481">
        <ele>58.8</ele>
        <time>2022-04-05T11:10:33Z</time>
      </trkpt>
      <trkpt lat="44.89815" lon="0.32483">
        <ele>58.8</ele>
        <time>2022-04-05T11:10:34Z</time>
      </trkpt>
      <trkpt lat="44.89816" lon="0.32483">
        <ele>58.9</ele>
        <time>2022-04-05T11:10:35Z</time>
      </trkpt>
      <trkpt lat="44.89817" lon="0.32485">
        <ele>59</ele>
        <time>2022-04-05T11:10:36Z</time>
      </trkpt>
      <trkpt lat="44.89818" lon="0.32485">
        <ele>59</ele>
        <time>2022-04-05T11:10:37Z</time>
      </trkpt>
      <trkpt lat="44.89819" lon="0.32486">
        <ele>59.1</ele>
        <time>2022-04-05T11:10:38Z</time>
      </trkpt>
      <trkpt lat="44.89821" lon="0.32488">
        <ele>59.3</ele>
        <time>2022-04-05T11:10:40Z</time>
      </trkpt>
      <trkpt lat="44.89822" lon="0.32488">
        <ele>59.3</ele>
        <time>2022-04-05T11:10:41Z</time>
      </trkpt>
      <trkpt lat="44.89823" lon="0.32489">
        <ele>59.4</ele>
        <time>2022-04-05T11:10:42Z</time>
      </trkpt>
      <trkpt lat="44.89824" lon="0.32489">
        <ele>59.4</ele>
        <time>2022-04-05T11:10:43Z</time>
      </trkpt>
      <trkpt lat="44.89826" lon="0.3249">
        <ele>59.6</ele>
        <time>2022-04-05T11:10:44Z</time>
      </trkpt>
      <trkpt lat="44.89827" lon="0.3249">
        <ele>59.7</ele>
        <time>2022-04-05T11:10:45Z</time>
      </trkpt>
      <trkpt lat="44.89828" lon="0.3249">
        <ele>59.8</ele>
        <time>2022-04-05T11:10:46Z</time>
      </trkpt>
      <trkpt lat="44.89829" lon="0.3249">
        <ele>59.9</ele>
        <time>2022-04-05T11:10:47Z</time>
      </trkpt>
      <trkpt lat="44.8983" lon="0.3249">
        <ele>60</ele>
        <time>2022-04-05T11:10:48Z</time>
      </trkpt>
      <trkpt lat="44.89832" lon="0.32491">
        <ele>60.2</ele>
        <time>2022-04-05T11:10:49Z</time>
      </trkpt>
      <trkpt lat="44.89833" lon="0.32491">
        <ele>60.2</ele>
        <time>2022-04-05T11:10:50Z</time>
      </trkpt>
      <trkpt lat="44.89834" lon="0.32491">
        <ele>60.3</ele>
        <time>2022-04-05T11:10:51Z</time>
      </trkpt>
      <trkpt lat="44.89835" lon="0.32492">
        <ele>60.5</ele>
        <time>2022-04-05T11:10:52Z</time>
      </trkpt>
      <trkpt lat="44.89837" lon="0.32492">
        <ele>60.7</ele>
        <time>2022-04-05T11:10:53Z</time>
      </trkpt>
      <trkpt lat="44.89838" lon="0.32492">
        <ele>60.8</ele>
        <time>2022-04-05T11:10:55Z</time>
      </trkpt>
      <trkpt lat="44.89839" lon="0.32492">
        <ele>61</ele>
        <time>2022-04-05T11:10:56Z</time>
      </trkpt>
      <trkpt lat="44.89841" lon="0.32492">
        <ele>61.1</ele>
        <time>2022-04-05T11:10:57Z</time>
      </trkpt>
      <trkpt lat="44.89842" lon="0.32492">
        <ele>61.2</ele>
        <time>2022-04-05T11:10:58Z</time>
      </trkpt>
      <trkpt lat="44.89844" lon="0.32491">
        <ele>61.5</ele>
        <time>2022-04-05T11:10:59Z</time>
      </trkpt>
      <trkpt lat="44.89845" lon="0.32491">
        <ele>61.6</ele>
        <time>2022-04-05T11:11:00Z</time>
      </trkpt>
      <trkpt lat="44.89846" lon="0.3249">
        <ele>61.7</ele>
        <time>2022-04-05T11:11:01Z</time>
      </trkpt>
      <trkpt lat="44.89847" lon="0.3249">
        <ele>61.9</ele>
        <time>2022-04-05T11:11:03Z</time>
      </trkpt>
      <trkpt lat="44.89848" lon="0.3249">
        <ele>62</ele>
        <time>2022-04-05T11:11:04Z</time>
      </trkpt>
      <trkpt lat="44.8985" lon="0.32489">
        <ele>62.2</ele>
        <time>2022-04-05T11:11:05Z</time>
      </trkpt>
      <trkpt lat="44.89851" lon="0.32489">
        <ele>62.3</ele>
        <time>2022-04-05T11:11:06Z</time>
      </trkpt>
      <trkpt lat="44.89852" lon="0.32489">
        <ele>62.4</ele>
        <time>2022-04-05T11:11:07Z</time>
      </trkpt>
      <trkpt lat="44.89853" lon="0.32488">
        <ele>62.6</ele>
        <time>2022-04-05T11:11:08Z</time>
      </trkpt>
      <trkpt lat="44.89854" lon="0.32488">
        <ele>62.8</ele>
        <time>2022-04-05T11:11:10Z</time>
      </trkpt>
      <trkpt lat="44.89855" lon="0.32488">
        <ele>62.9</ele>
        <time>2022-04-05T11:11:11Z</time>
      </trkpt>
      <trkpt lat="44.89857" lon="0.32488">
        <ele>63.1</ele>
        <time>2022-04-05T11:11:12Z</time>
      </trkpt>
      <trkpt lat="44.89858" lon="0.32488">
        <ele>63.2</ele>
        <time>2022-04-05T11:11:13Z</time>
      </trkpt>
      <trkpt lat="44.89859" lon="0.32488">
        <ele>63.4</ele>
        <time>2022-04-05T11:11:14Z</time>
      </trkpt>
      <trkpt lat="44.8986" lon="0.32488">
        <ele>63.5</ele>
        <time>2022-04-05T11:11:16Z</time>
      </trkpt>
      <trkpt lat="44.89861" lon="0.32488">
        <ele>63.6</ele>
        <time>2022-04-05T11:11:17Z</time>
      </trkpt>
      <trkpt lat="44.89862" lon="0.32488">
        <ele>63.7</ele>
        <time>2022-04-05T11:11:18Z</time>
      </trkpt>
      <trkpt lat="44.89864" lon="0.32488">
        <ele>63.9</ele>
        <time>2022-04-05T11:11:20Z</time>
      </trkpt>
      <trkpt lat="44.89865" lon="0.32488">
        <ele>64.1</ele>
        <time>2022-04-05T11:11:21Z</time>
      </trkpt>
      <trkpt lat="44.89866" lon="0.32488">
        <ele>64.2</ele>
        <time>2022-04-05T11:11:22Z</time>
      </trkpt>
      <trkpt lat="44.89867" lon="0.32489">
        <ele>64.4</ele>
        <time>2022-04-05T11:11:23Z</time>
      </trkpt>
      <trkpt lat="44.89868" lon="0.32489">
        <ele>64.5</ele>
        <time>2022-04-05T11:11:25Z</time>
      </trkpt>
      <trkpt lat="44.89869" lon="0.32489">
        <ele>64.7</ele>
        <time>2022-04-05T11:11:26Z</time>
      </trkpt>
      <trkpt lat="44.8987" lon="0.3249">
        <ele>64.8</ele>
        <time>2022-04-05T11:11:27Z</time>
      </trkpt>
      <trkpt lat="44.89871" lon="0.3249">
        <ele>64.9</ele>
        <time>2022-04-05T11:11:28Z</time>
      </trkpt>
      <trkpt lat="44.89873" lon="0.3249">
        <ele>65.1</ele>
        <time>2022-04-05T11:11:30Z</time>
      </trkpt>
      <trkpt lat="44.89874" lon="0.3249">
        <ele>65.2</ele>
        <time>2022-04-05T11:11:31Z</time>
      </trkpt>
      <trkpt lat="44.89876" lon="0.3249">
        <ele>65.5</ele>
        <time>2022-04-05T11:11:32Z</time>
      </trkpt>
      <trkpt lat="44.89877" lon="0.3249">
        <ele>65.6</ele>
        <time>2022-04-05T11:11:33Z</time>
      </trkpt>
      <trkpt lat="44.89878" lon="0.3249">
        <ele>65.7</ele>
        <time>2022-04-05T11:11:34Z</time>
      </trkpt>
      <trkpt lat="44.89878" lon="0.3249">
        <ele>65.7</ele>
        <time>2022-04-05T11:11:35Z</time>
      </trkpt>
      <trkpt lat="44.89879" lon="0.32491">
        <ele>65.8</ele>
        <time>2022-04-05T11:11:36Z</time>
      </trkpt>
      <trkpt lat="44.8988" lon="0.32491">
        <ele>66</ele>
        <time>2022-04-05T11:11:37Z</time>
      </trkpt>
      <trkpt lat="44.89881" lon="0.32492">
        <ele>66.1</ele>
        <time>2022-04-05T11:11:39Z</time>
      </trkpt>
      <trkpt lat="44.89882" lon="0.32493">
        <ele>66.3</ele>
        <time>2022-04-05T11:11:40Z</time>
      </trkpt>
      <trkpt lat="44.89884" lon="0.32493">
        <ele>66.4</ele>
        <time>2022-04-05T11:11:41Z</time>
      </trkpt>
      <trkpt lat="44.89885" lon="0.32494">
        <ele>66.5</ele>
        <time>2022-04-05T11:11:43Z</time>
      </trkpt>
      <trkpt lat="44.89886" lon="0.32494">
        <ele>66.6</ele>
        <time>2022-04-05T11:11:44Z</time>
      </trkpt>
      <trkpt lat="44.89887" lon="0.32495">
        <ele>66.8</ele>
        <time>2022-04-05T11:11:45Z</time>
      </trkpt>
      <trkpt lat="44.89888" lon="0.32495">
        <ele>66.8</ele>
        <time>2022-04-05T11:11:47Z</time>
      </trkpt>
      <trkpt lat="44.89889" lon="0.32494">
        <ele>66.9</ele>
        <time>2022-04-05T11:11:48Z</time>
      </trkpt>
      <trkpt lat="44.89891" lon="0.32494">
        <ele>67.1</ele>
        <time>2022-04-05T11:11:49Z</time>
      </trkpt>
      <trkpt lat="44.89891" lon="0.32494">
        <ele>67.2</ele>
        <time>2022-04-05T11:11:50Z</time>
      </trkpt>
      <trkpt lat="44.89892" lon="0.32494">
        <ele>67.2</ele>
        <time>2022-04-05T11:11:51Z</time>
      </trkpt>
      <trkpt lat="44.89892" lon="0.32493">
        <ele>67.3</ele>
        <time>2022-04-05T11:11:52Z</time>
      </trkpt>
      <trkpt lat="44.89893" lon="0.32493">
        <ele>67.3</ele>
        <time>2022-04-05T11:11:53Z</time>
      </trkpt>
      <trkpt lat="44.89895" lon="0.32493">
        <ele>67.5</ele>
        <time>2022-04-05T11:11:54Z</time>
      </trkpt>
      <trkpt lat="44.89895" lon="0.32493">
        <ele>67.5</ele>
        <time>2022-04-05T11:11:55Z</time>
      </trkpt>
      <trkpt lat="44.89895" lon="0.32493">
        <ele>67.5</ele>
        <time>2022-04-05T11:11:56Z</time>
      </trkpt>
      <trkpt lat="44.89896" lon="0.32494">
        <ele>67.6</ele>
        <time>2022-04-05T11:11:57Z</time>
      </trkpt>
      <trkpt lat="44.89897" lon="0.32494">
        <ele>67.7</ele>
        <time>2022-04-05T11:11:59Z</time>
      </trkpt>
      <trkpt lat="44.89899" lon="0.32494">
        <ele>67.8</ele>
        <time>2022-04-05T11:12:00Z</time>
      </trkpt>
      <trkpt lat="44.89899" lon="0.32494">
        <ele>67.8</ele>
        <time>2022-04-05T11:12:01Z</time>
      </trkpt>
      <trkpt lat="44.899" lon="0.32494">
        <ele>67.9</ele>
        <time>2022-04-05T11:12:02Z</time>
      </trkpt>
      <trkpt lat="44.89901" lon="0.32494">
        <ele>68</ele>
        <time>2022-04-05T11:12:03Z</time>
      </trkpt>
      <trkpt lat="44.89902" lon="0.32493">
        <ele>68.1</ele>
        <time>2022-04-05T11:12:04Z</time>
      </trkpt>
      <trkpt lat="44.89903" lon="0.32493">
        <ele>68.1</ele>
        <time>2022-04-05T11:12:06Z</time>
      </trkpt>
      <trkpt lat="44.89904" lon="0.32493">
        <ele>68.2</ele>
        <time>2022-04-05T11:12:07Z</time>
      </trkpt>
      <trkpt lat="44.89905" lon="0.32492">
        <ele>68.3</ele>
        <time>2022-04-05T11:12:08Z</time>
      </trkpt>
      <trkpt lat="44.89905" lon="0.32492">
        <ele>68.4</ele>
        <time>2022-04-05T11:12:09Z</time>
      </trkpt>
      <trkpt lat="44.89906" lon="0.32491">
        <ele>68.5</ele>
        <time>2022-04-05T11:12:11Z</time>
      </trkpt>
      <trkpt lat="44.89907" lon="0.3249">
        <ele>68.6</ele>
        <time>2022-04-05T11:12:12Z</time>
      </trkpt>
      <trkpt lat="44.89908" lon="0.3249">
        <ele>68.6</ele>
        <time>2022-04-05T11:12:13Z</time>
      </trkpt>
      <trkpt lat="44.8991" lon="0.3249">
        <ele>68.7</ele>
        <time>2022-04-05T11:12:14Z</time>
      </trkpt>
      <trkpt lat="44.89911" lon="0.3249">
        <ele>68.8</ele>
        <time>2022-04-05T11:12:15Z</time>
      </trkpt>
      <trkpt lat="44.89912" lon="0.3249">
        <ele>68.9</ele>
        <time>2022-04-05T11:12:16Z</time>
      </trkpt>
      <trkpt lat="44.89913" lon="0.32491">
        <ele>69</ele>
        <time>2022-04-05T11:12:17Z</time>
      </trkpt>
      <trkpt lat="44.89914" lon="0.32491">
        <ele>69.1</ele>
        <time>2022-04-05T11:12:18Z</time>
      </trkpt>
      <trkpt lat="44.89916" lon="0.32491">
        <ele>69.2</ele>
        <time>2022-04-05T11:12:20Z</time>
      </trkpt>
      <trkpt lat="44.89917" lon="0.32491">
        <ele>69.3</ele>
        <time>2022-04-05T11:12:21Z</time>
      </trkpt>
      <trkpt lat="44.89918" lon="0.32491">
        <ele>69.4</ele>
        <time>2022-04-05T11:12:22Z</time>
      </trkpt>
      <trkpt lat="44.89918" lon="0.32491">
        <ele>69.5</ele>
        <time>2022-04-05T11:12:23Z</time>
      </trkpt>
      <trkpt lat="44.89921" lon="0.32491">
        <ele>69.6</ele>
        <time>2022-04-05T11:12:25Z</time>
      </trkpt>
      <trkpt lat="44.89922" lon="0.32491">
        <ele>69.7</ele>
        <time>2022-04-05T11:12:26Z</time>
      </trkpt>
      <trkpt lat="44.89923" lon="0.32491">
        <ele>69.8</ele>
        <time>2022-04-05T11:12:27Z</time>
      </trkpt>
      <trkpt lat="44.89924" lon="0.32492">
        <ele>69.9</ele>
        <time>2022-04-05T11:12:28Z</time>
      </trkpt>
      <trkpt lat="44.89925" lon="0.32492">
        <ele>70</ele>
        <time>2022-04-05T11:12:30Z</time>
      </trkpt>
      <trkpt lat="44.89926" lon="0.32493">
        <ele>70.1</ele>
        <time>2022-04-05T11:12:31Z</time>
      </trkpt>
      <trkpt lat="44.89927" lon="0.32493">
        <ele>70.2</ele>
        <time>2022-04-05T11:12:32Z</time>
      </trkpt>
      <trkpt lat="44.89928" lon="0.32494">
        <ele>70.3</ele>
        <time>2022-04-05T11:12:33Z</time>
      </trkpt>
      <trkpt lat="44.8993" lon="0.32495">
        <ele>70.4</ele>
        <time>2022-04-05T11:12:34Z</time>
      </trkpt>
      <trkpt lat="44.89931" lon="0.32495">
        <ele>70.4</ele>
        <time>2022-04-05T11:12:35Z</time>
      </trkpt>
      <trkpt lat="44.89932" lon="0.32495">
        <ele>70.5</ele>
        <time>2022-04-05T11:12:37Z</time>
      </trkpt>
      <trkpt lat="44.89933" lon="0.32495">
        <ele>70.6</ele>
        <time>2022-04-05T11:12:38Z</time>
      </trkpt>
      <trkpt lat="44.89934" lon="0.32495">
        <ele>70.7</ele>
        <time>2022-04-05T11:12:39Z</time>
      </trkpt>
      <trkpt lat="44.89935" lon="0.32495">
        <ele>70.8</ele>
        <time>2022-04-05T11:12:40Z</time>
      </trkpt>
      <trkpt lat="44.89936" lon="0.32495">
        <ele>70.9</ele>
        <time>2022-04-05T11:12:41Z</time>
      </trkpt>
      <trkpt lat="44.89937" lon="0.32495">
        <ele>71</ele>
        <time>2022-04-05T11:12:42Z</time>
      </trkpt>
      <trkpt lat="44.89938" lon="0.32495">
        <ele>71</ele>
        <time>2022-04-05T11:12:43Z</time>
      </trkpt>
      <trkpt lat="44.89939" lon="0.32495">
        <ele>71.1</ele>
        <time>2022-04-05T11:12:44Z</time>
      </trkpt>
      <trkpt lat="44.89941" lon="0.32496">
        <ele>71.3</ele>
        <time>2022-04-05T11:12:45Z</time>
      </trkpt>
      <trkpt lat="44.89942" lon="0.32496">
        <ele>71.3</ele>
        <time>2022-04-05T11:12:46Z</time>
      </trkpt>
      <trkpt lat="44.89943" lon="0.32496">
        <ele>71.4</ele>
        <time>2022-04-05T11:12:48Z</time>
      </trkpt>
      <trkpt lat="44.89944" lon="0.32496">
        <ele>71.6</ele>
        <time>2022-04-05T11:12:49Z</time>
      </trkpt>
      <trkpt lat="44.89945" lon="0.32497">
        <ele>71.6</ele>
        <time>2022-04-05T11:12:50Z</time>
      </trkpt>
      <trkpt lat="44.89947" lon="0.32497">
        <ele>71.7</ele>
        <time>2022-04-05T11:12:51Z</time>
      </trkpt>
      <trkpt lat="44.89947" lon="0.32497">
        <ele>71.8</ele>
        <time>2022-04-05T11:12:52Z</time>
      </trkpt>
      <trkpt lat="44.8995" lon="0.32497">
        <ele>72</ele>
        <time>2022-04-05T11:12:54Z</time>
      </trkpt>
      <trkpt lat="44.8995" lon="0.32497">
        <ele>72</ele>
        <time>2022-04-05T11:12:55Z</time>
      </trkpt>
      <trkpt lat="44.89951" lon="0.32498">
        <ele>72.1</ele>
        <time>2022-04-05T11:12:56Z</time>
      </trkpt>
      <trkpt lat="44.89953" lon="0.32498">
        <ele>72.3</ele>
        <time>2022-04-05T11:12:57Z</time>
      </trkpt>
      <trkpt lat="44.89954" lon="0.32498">
        <ele>72.4</ele>
        <time>2022-04-05T11:12:58Z</time>
      </trkpt>
      <trkpt lat="44.89955" lon="0.32498">
        <ele>72.4</ele>
        <time>2022-04-05T11:12:59Z</time>
      </trkpt>
      <trkpt lat="44.89956" lon="0.32498">
        <ele>72.5</ele>
        <time>2022-04-05T11:13:00Z</time>
      </trkpt>
      <trkpt lat="44.89957" lon="0.32498">
        <ele>72.6</ele>
        <time>2022-04-05T11:13:02Z</time>
      </trkpt>
      <trkpt lat="44.89958" lon="0.32498">
        <ele>72.7</ele>
        <time>2022-04-05T11:13:03Z</time>
      </trkpt>
      <trkpt lat="44.89959" lon="0.32499">
        <ele>72.8</ele>
        <time>2022-04-05T11:13:04Z</time>
      </trkpt>
      <trkpt lat="44.89959" lon="0.32499">
        <ele>72.8</ele>
        <time>2022-04-05T11:13:05Z</time>
      </trkpt>
      <trkpt lat="44.89961" lon="0.32499">
        <ele>72.9</ele>
        <time>2022-04-05T11:13:06Z</time>
      </trkpt>
      <trkpt lat="44.89962" lon="0.32499">
        <ele>73</ele>
        <time>2022-04-05T11:13:07Z</time>
      </trkpt>
      <trkpt lat="44.89964" lon="0.32499">
        <ele>73.2</ele>
        <time>2022-04-05T11:13:09Z</time>
      </trkpt>
      <trkpt lat="44.89965" lon="0.32499">
        <ele>73.3</ele>
        <time>2022-04-05T11:13:10Z</time>
      </trkpt>
      <trkpt lat="44.89966" lon="0.32499">
        <ele>73.4</ele>
        <time>2022-04-05T11:13:11Z</time>
      </trkpt>
      <trkpt lat="44.89967" lon="0.32499">
        <ele>73.4</ele>
        <time>2022-04-05T11:13:12Z</time>
      </trkpt>
      <trkpt lat="44.8997" lon="0.32499">
        <ele>73.7</ele>
        <time>2022-04-05T11:13:13Z</time>
      </trkpt>
      <trkpt lat="44.89971" lon="0.32499">
        <ele>73.8</ele>
        <time>2022-04-05T11:13:15Z</time>
      </trkpt>
      <trkpt lat="44.89972" lon="0.32498">
        <ele>73.9</ele>
        <time>2022-04-05T11:13:16Z</time>
      </trkpt>
      <trkpt lat="44.89973" lon="0.32498">
        <ele>73.9</ele>
        <time>2022-04-05T11:13:17Z</time>
      </trkpt>
      <trkpt lat="44.89974" lon="0.32498">
        <ele>74</ele>
        <time>2022-04-05T11:13:18Z</time>
      </trkpt>
      <trkpt lat="44.89975" lon="0.32498">
        <ele>74.1</ele>
        <time>2022-04-05T11:13:20Z</time>
      </trkpt>
      <trkpt lat="44.89976" lon="0.32498">
        <ele>74.2</ele>
        <time>2022-04-05T11:13:21Z</time>
      </trkpt>
      <trkpt lat="44.89977" lon="0.32498">
        <ele>74.2</ele>
        <time>2022-04-05T11:13:22Z</time>
      </trkpt>
      <trkpt lat="44.89977" lon="0.32499">
        <ele>74.3</ele>
        <time>2022-04-05T11:13:23Z</time>
      </trkpt>
      <trkpt lat="44.89979" lon="0.32498">
        <ele>74.5</ele>
        <time>2022-04-05T11:13:24Z</time>
      </trkpt>
      <trkpt lat="44.8998" lon="0.32497">
        <ele>74.6</ele>
        <time>2022-04-05T11:13:25Z</time>
      </trkpt>
      <trkpt lat="44.89981" lon="0.32497">
        <ele>74.6</ele>
        <time>2022-04-05T11:13:26Z</time>
      </trkpt>
      <trkpt lat="44.89982" lon="0.32498">
        <ele>74.7</ele>
        <time>2022-04-05T11:13:27Z</time>
      </trkpt>
      <trkpt lat="44.89984" lon="0.32498">
        <ele>74.9</ele>
        <time>2022-04-05T11:13:29Z</time>
      </trkpt>
      <trkpt lat="44.89985" lon="0.32498">
        <ele>75</ele>
        <time>2022-04-05T11:13:30Z</time>
      </trkpt>
      <trkpt lat="44.89986" lon="0.32498">
        <ele>75</ele>
        <time>2022-04-05T11:13:31Z</time>
      </trkpt>
      <trkpt lat="44.89986" lon="0.32498">
        <ele>75.1</ele>
        <time>2022-04-05T11:13:32Z</time>
      </trkpt>
      <trkpt lat="44.89987" lon="0.32499">
        <ele>75.2</ele>
        <time>2022-04-05T11:13:33Z</time>
      </trkpt>
      <trkpt lat="44.89989" lon="0.32499">
        <ele>75.3</ele>
        <time>2022-04-05T11:13:34Z</time>
      </trkpt>
      <trkpt lat="44.89989" lon="0.325">
        <ele>75.4</ele>
        <time>2022-04-05T11:13:35Z</time>
      </trkpt>
      <trkpt lat="44.8999" lon="0.32502">
        <ele>75.5</ele>
        <time>2022-04-05T11:13:37Z</time>
      </trkpt>
      <trkpt lat="44.89991" lon="0.32503">
        <ele>75.5</ele>
        <time>2022-04-05T11:13:38Z</time>
      </trkpt>
      <trkpt lat="44.89993" lon="0.32503">
        <ele>75.6</ele>
        <time>2022-04-05T11:13:39Z</time>
      </trkpt>
      <trkpt lat="44.89994" lon="0.32502">
        <ele>75.7</ele>
        <time>2022-04-05T11:13:40Z</time>
      </trkpt>
      <trkpt lat="44.89995" lon="0.32502">
        <ele>75.7</ele>
        <time>2022-04-05T11:13:41Z</time>
      </trkpt>
      <trkpt lat="44.89996" lon="0.32502">
        <ele>75.7</ele>
        <time>2022-04-05T11:13:42Z</time>
      </trkpt>
      <trkpt lat="44.89996" lon="0.32502">
        <ele>75.8</ele>
        <time>2022-04-05T11:13:43Z</time>
      </trkpt>
      <trkpt lat="44.89997" lon="0.32502">
        <ele>75.8</ele>
        <time>2022-04-05T11:13:44Z</time>
      </trkpt>
      <trkpt lat="44.89999" lon="0.32502">
        <ele>75.9</ele>
        <time>2022-04-05T11:13:46Z</time>
      </trkpt>
      <trkpt lat="44.89999" lon="0.32503">
        <ele>75.9</ele>
        <time>2022-04-05T11:13:47Z</time>
      </trkpt>
      <trkpt lat="44.9" lon="0.32503">
        <ele>76</ele>
        <time>2022-04-05T11:13:48Z</time>
      </trkpt>
      <trkpt lat="44.90001" lon="0.32504">
        <ele>76</ele>
        <time>2022-04-05T11:13:49Z</time>
      </trkpt>
      <trkpt lat="44.90001" lon="0.32503">
        <ele>76</ele>
        <time>2022-04-05T11:13:50Z</time>
      </trkpt>
      <trkpt lat="44.90002" lon="0.32504">
        <ele>76.1</ele>
        <time>2022-04-05T11:13:51Z</time>
      </trkpt>
      <trkpt lat="44.90003" lon="0.32505">
        <ele>76.1</ele>
        <time>2022-04-05T11:13:52Z</time>
      </trkpt>
      <trkpt lat="44.90003" lon="0.32507">
        <ele>76.2</ele>
        <time>2022-04-05T11:13:53Z</time>
      </trkpt>
      <trkpt lat="44.90004" lon="0.3251">
        <ele>76.3</ele>
        <time>2022-04-05T11:13:54Z</time>
      </trkpt>
      <trkpt lat="44.90004" lon="0.32512">
        <ele>76.3</ele>
        <time>2022-04-05T11:13:55Z</time>
      </trkpt>
      <trkpt lat="44.90005" lon="0.32514">
        <ele>76.4</ele>
        <time>2022-04-05T11:13:56Z</time>
      </trkpt>
      <trkpt lat="44.90005" lon="0.32516">
        <ele>76.4</ele>
        <time>2022-04-05T11:13:57Z</time>
      </trkpt>
      <trkpt lat="44.90007" lon="0.32518">
        <ele>76.5</ele>
        <time>2022-04-05T11:13:59Z</time>
      </trkpt>
      <trkpt lat="44.90007" lon="0.32518">
        <ele>76.5</ele>
        <time>2022-04-05T11:14:00Z</time>
      </trkpt>
      <trkpt lat="44.90008" lon="0.32519">
        <ele>76.5</ele>
        <time>2022-04-05T11:14:01Z</time>
      </trkpt>
      <trkpt lat="44.90009" lon="0.32522">
        <ele>76.6</ele>
        <time>2022-04-05T11:14:02Z</time>
      </trkpt>
      <trkpt lat="44.9001" lon="0.32523">
        <ele>76.6</ele>
        <time>2022-04-05T11:14:03Z</time>
      </trkpt>
      <trkpt lat="44.9001" lon="0.32525">
        <ele>76.6</ele>
        <time>2022-04-05T11:14:04Z</time>
      </trkpt>
      <trkpt lat="44.90011" lon="0.32525">
        <ele>76.6</ele>
        <time>2022-04-05T11:14:05Z</time>
      </trkpt>
      <trkpt lat="44.90012" lon="0.32527">
        <ele>76.7</ele>
        <time>2022-04-05T11:14:06Z</time>
      </trkpt>
      <trkpt lat="44.90012" lon="0.32528">
        <ele>76.7</ele>
        <time>2022-04-05T11:14:07Z</time>
      </trkpt>
      <trkpt lat="44.90013" lon="0.32528">
        <ele>76.7</ele>
        <time>2022-04-05T11:14:08Z</time>
      </trkpt>
      <trkpt lat="44.90015" lon="0.3253">
        <ele>76.8</ele>
        <time>2022-04-05T11:14:09Z</time>
      </trkpt>
      <trkpt lat="44.90015" lon="0.3253">
        <ele>76.8</ele>
        <time>2022-04-05T11:14:10Z</time>
      </trkpt>
      <trkpt lat="44.90016" lon="0.32531">
        <ele>76.8</ele>
        <time>2022-04-05T11:14:11Z</time>
      </trkpt>
      <trkpt lat="44.90017" lon="0.32533">
        <ele>76.8</ele>
        <time>2022-04-05T11:14:12Z</time>
      </trkpt>
      <trkpt lat="44.90019" lon="0.32535">
        <ele>76.9</ele>
        <time>2022-04-05T11:14:14Z</time>
      </trkpt>
      <trkpt lat="44.90019" lon="0.32536">
        <ele>76.9</ele>
        <time>2022-04-05T11:14:15Z</time>
      </trkpt>
      <trkpt lat="44.9002" lon="0.32537">
        <ele>77</ele>
        <time>2022-04-05T11:14:16Z</time>
      </trkpt>
      <trkpt lat="44.90021" lon="0.32538">
        <ele>77</ele>
        <time>2022-04-05T11:14:17Z</time>
      </trkpt>
      <trkpt lat="44.90022" lon="0.32539">
        <ele>77</ele>
        <time>2022-04-05T11:14:18Z</time>
      </trkpt>
      <trkpt lat="44.90023" lon="0.3254">
        <ele>77.1</ele>
        <time>2022-04-05T11:14:19Z</time>
      </trkpt>
      <trkpt lat="44.90024" lon="0.3254">
        <ele>77.1</ele>
        <time>2022-04-05T11:14:20Z</time>
      </trkpt>
      <trkpt lat="44.90024" lon="0.32541">
        <ele>77.1</ele>
        <time>2022-04-05T11:14:21Z</time>
      </trkpt>
      <trkpt lat="44.90025" lon="0.32542">
        <ele>77.1</ele>
        <time>2022-04-05T11:14:22Z</time>
      </trkpt>
      <trkpt lat="44.90026" lon="0.32543">
        <ele>77.1</ele>
        <time>2022-04-05T11:14:23Z</time>
      </trkpt>
      <trkpt lat="44.90027" lon="0.32544">
        <ele>77.2</ele>
        <time>2022-04-05T11:14:24Z</time>
      </trkpt>
      <trkpt lat="44.90028" lon="0.32546">
        <ele>77.2</ele>
        <time>2022-04-05T11:14:26Z</time>
      </trkpt>
      <trkpt lat="44.90029" lon="0.32547">
        <ele>77.2</ele>
        <time>2022-04-05T11:14:27Z</time>
      </trkpt>
      <trkpt lat="44.90031" lon="0.32549">
        <ele>77.3</ele>
        <time>2022-04-05T11:14:28Z</time>
      </trkpt>
      <trkpt lat="44.90032" lon="0.32551">
        <ele>77.3</ele>
        <time>2022-04-05T11:14:29Z</time>
      </trkpt>
      <trkpt lat="44.90033" lon="0.32551">
        <ele>77.3</ele>
        <time>2022-04-05T11:14:30Z</time>
      </trkpt>
      <trkpt lat="44.90033" lon="0.32551">
        <ele>77.4</ele>
        <time>2022-04-05T11:14:31Z</time>
      </trkpt>
      <trkpt lat="44.90034" lon="0.32552">
        <ele>77.4</ele>
        <time>2022-04-05T11:14:32Z</time>
      </trkpt>
      <trkpt lat="44.90035" lon="0.32554">
        <ele>77.4</ele>
        <time>2022-04-05T11:14:33Z</time>
      </trkpt>
      <trkpt lat="44.90037" lon="0.32555">
        <ele>77.5</ele>
        <time>2022-04-05T11:14:34Z</time>
      </trkpt>
      <trkpt lat="44.90037" lon="0.32556">
        <ele>77.5</ele>
        <time>2022-04-05T11:14:36Z</time>
      </trkpt>
      <trkpt lat="44.90039" lon="0.32557">
        <ele>77.5</ele>
        <time>2022-04-05T11:14:37Z</time>
      </trkpt>
      <trkpt lat="44.90039" lon="0.32558">
        <ele>77.5</ele>
        <time>2022-04-05T11:14:38Z</time>
      </trkpt>
      <trkpt lat="44.90041" lon="0.32561">
        <ele>77.6</ele>
        <time>2022-04-05T11:14:39Z</time>
      </trkpt>
      <trkpt lat="44.90041" lon="0.32561">
        <ele>77.6</ele>
        <time>2022-04-05T11:14:40Z</time>
      </trkpt>
      <trkpt lat="44.90042" lon="0.32562">
        <ele>77.6</ele>
        <time>2022-04-05T11:14:41Z</time>
      </trkpt>
      <trkpt lat="44.90043" lon="0.32563">
        <ele>77.6</ele>
        <time>2022-04-05T11:14:42Z</time>
      </trkpt>
      <trkpt lat="44.90044" lon="0.32563">
        <ele>77.7</ele>
        <time>2022-04-05T11:14:43Z</time>
      </trkpt>
      <trkpt lat="44.90046" lon="0.32564">
        <ele>77.7</ele>
        <time>2022-04-05T11:14:44Z</time>
      </trkpt>
      <trkpt lat="44.90046" lon="0.32565">
        <ele>77.7</ele>
        <time>2022-04-05T11:14:45Z</time>
      </trkpt>
      <trkpt lat="44.90048" lon="0.32566">
        <ele>77.8</ele>
        <time>2022-04-05T11:14:47Z</time>
      </trkpt>
      <trkpt lat="44.9005" lon="0.32568">
        <ele>77.8</ele>
        <time>2022-04-05T11:14:48Z</time>
      </trkpt>
      <trkpt lat="44.90051" lon="0.32569">
        <ele>77.8</ele>
        <time>2022-04-05T11:14:49Z</time>
      </trkpt>
      <trkpt lat="44.90051" lon="0.32569">
        <ele>77.8</ele>
        <time>2022-04-05T11:14:50Z</time>
      </trkpt>
      <trkpt lat="44.90052" lon="0.3257">
        <ele>77.9</ele>
        <time>2022-04-05T11:14:51Z</time>
      </trkpt>
      <trkpt lat="44.90054" lon="0.3257">
        <ele>77.9</ele>
        <time>2022-04-05T11:14:52Z</time>
      </trkpt>
      <trkpt lat="44.90055" lon="0.32571">
        <ele>77.9</ele>
        <time>2022-04-05T11:14:53Z</time>
      </trkpt>
      <trkpt lat="44.90057" lon="0.32572">
        <ele>78</ele>
        <time>2022-04-05T11:14:54Z</time>
      </trkpt>
      <trkpt lat="44.90059" lon="0.32573">
        <ele>78</ele>
        <time>2022-04-05T11:14:56Z</time>
      </trkpt>
      <trkpt lat="44.90059" lon="0.32573">
        <ele>78</ele>
        <time>2022-04-05T11:14:57Z</time>
      </trkpt>
      <trkpt lat="44.9006" lon="0.32574">
        <ele>78.1</ele>
        <time>2022-04-05T11:14:58Z</time>
      </trkpt>
      <trkpt lat="44.90062" lon="0.32575">
        <ele>78.1</ele>
        <time>2022-04-05T11:14:59Z</time>
      </trkpt>
      <trkpt lat="44.90063" lon="0.32575">
        <ele>78.1</ele>
        <time>2022-04-05T11:15:00Z</time>
      </trkpt>
      <trkpt lat="44.90064" lon="0.32575">
        <ele>78.2</ele>
        <time>2022-04-05T11:15:01Z</time>
      </trkpt>
      <trkpt lat="44.90066" lon="0.32575">
        <ele>78.2</ele>
        <time>2022-04-05T11:15:03Z</time>
      </trkpt>
      <trkpt lat="44.90068" lon="0.32577">
        <ele>78.3</ele>
        <time>2022-04-05T11:15:04Z</time>
      </trkpt>
      <trkpt lat="44.90069" lon="0.32578">
        <ele>78.3</ele>
        <time>2022-04-05T11:15:06Z</time>
      </trkpt>
      <trkpt lat="44.9007" lon="0.32578">
        <ele>78.4</ele>
        <time>2022-04-05T11:15:07Z</time>
      </trkpt>
      <trkpt lat="44.90072" lon="0.32579">
        <ele>78.4</ele>
        <time>2022-04-05T11:15:08Z</time>
      </trkpt>
      <trkpt lat="44.90074" lon="0.3258">
        <ele>78.5</ele>
        <time>2022-04-05T11:15:09Z</time>
      </trkpt>
      <trkpt lat="44.90075" lon="0.3258">
        <ele>78.5</ele>
        <time>2022-04-05T11:15:10Z</time>
      </trkpt>
      <trkpt lat="44.90076" lon="0.32581">
        <ele>78.5</ele>
        <time>2022-04-05T11:15:12Z</time>
      </trkpt>
      <trkpt lat="44.90077" lon="0.32581">
        <ele>78.6</ele>
        <time>2022-04-05T11:15:13Z</time>
      </trkpt>
      <trkpt lat="44.90079" lon="0.3258">
        <ele>78.6</ele>
        <time>2022-04-05T11:15:15Z</time>
      </trkpt>
      <trkpt lat="44.9008" lon="0.32579">
        <ele>78.6</ele>
        <time>2022-04-05T11:15:16Z</time>
      </trkpt>
      <trkpt lat="44.90081" lon="0.32579">
        <ele>78.7</ele>
        <time>2022-04-05T11:15:17Z</time>
      </trkpt>
      <trkpt lat="44.90082" lon="0.32579">
        <ele>78.7</ele>
        <time>2022-04-05T11:15:18Z</time>
      </trkpt>
      <trkpt lat="44.90084" lon="0.3258">
        <ele>78.8</ele>
        <time>2022-04-05T11:15:20Z</time>
      </trkpt>
      <trkpt lat="44.90085" lon="0.3258">
        <ele>78.8</ele>
        <time>2022-04-05T11:15:21Z</time>
      </trkpt>
      <trkpt lat="44.90086" lon="0.32581">
        <ele>78.8</ele>
        <time>2022-04-05T11:15:22Z</time>
      </trkpt>
      <trkpt lat="44.90087" lon="0.32581">
        <ele>78.8</ele>
        <time>2022-04-05T11:15:23Z</time>
      </trkpt>
      <trkpt lat="44.90087" lon="0.32581">
        <ele>78.9</ele>
        <time>2022-04-05T11:15:24Z</time>
      </trkpt>
      <trkpt lat="44.90088" lon="0.32581">
        <ele>78.9</ele>
        <time>2022-04-05T11:15:25Z</time>
      </trkpt>
      <trkpt lat="44.90089" lon="0.32582">
        <ele>78.9</ele>
        <time>2022-04-05T11:15:26Z</time>
      </trkpt>
      <trkpt lat="44.9009" lon="0.32583">
        <ele>79</ele>
        <time>2022-04-05T11:15:27Z</time>
      </trkpt>
      <trkpt lat="44.90092" lon="0.32584">
        <ele>79</ele>
        <time>2022-04-05T11:15:28Z</time>
      </trkpt>
      <trkpt lat="44.90093" lon="0.32585">
        <ele>79.1</ele>
        <time>2022-04-05T11:15:29Z</time>
      </trkpt>
      <trkpt lat="44.90095" lon="0.32586">
        <ele>79.1</ele>
        <time>2022-04-05T11:15:31Z</time>
      </trkpt>
      <trkpt lat="44.90096" lon="0.32587">
        <ele>79.2</ele>
        <time>2022-04-05T11:15:32Z</time>
      </trkpt>
      <trkpt lat="44.90097" lon="0.32587">
        <ele>79.2</ele>
        <time>2022-04-05T11:15:33Z</time>
      </trkpt>
      <trkpt lat="44.901" lon="0.32588">
        <ele>79.3</ele>
        <time>2022-04-05T11:15:34Z</time>
      </trkpt>
      <trkpt lat="44.901" lon="0.32588">
        <ele>79.3</ele>
        <time>2022-04-05T11:15:35Z</time>
      </trkpt>
      <trkpt lat="44.90101" lon="0.32589">
        <ele>79.4</ele>
        <time>2022-04-05T11:15:36Z</time>
      </trkpt>
      <trkpt lat="44.90102" lon="0.3259">
        <ele>79.4</ele>
        <time>2022-04-05T11:15:37Z</time>
      </trkpt>
      <trkpt lat="44.90104" lon="0.32591">
        <ele>79.5</ele>
        <time>2022-04-05T11:15:39Z</time>
      </trkpt>
      <trkpt lat="44.90105" lon="0.32592">
        <ele>79.5</ele>
        <time>2022-04-05T11:15:40Z</time>
      </trkpt>
      <trkpt lat="44.90106" lon="0.32592">
        <ele>79.6</ele>
        <time>2022-04-05T11:15:41Z</time>
      </trkpt>
      <trkpt lat="44.90107" lon="0.32593">
        <ele>79.6</ele>
        <time>2022-04-05T11:15:42Z</time>
      </trkpt>
      <trkpt lat="44.90108" lon="0.32593">
        <ele>79.7</ele>
        <time>2022-04-05T11:15:43Z</time>
      </trkpt>
      <trkpt lat="44.9011" lon="0.32595">
        <ele>79.7</ele>
        <time>2022-04-05T11:15:44Z</time>
      </trkpt>
      <trkpt lat="44.90111" lon="0.32595">
        <ele>79.7</ele>
        <time>2022-04-05T11:15:45Z</time>
      </trkpt>
      <trkpt lat="44.90112" lon="0.32595">
        <ele>79.8</ele>
        <time>2022-04-05T11:15:47Z</time>
      </trkpt>
      <trkpt lat="44.90113" lon="0.32596">
        <ele>79.8</ele>
        <time>2022-04-05T11:15:48Z</time>
      </trkpt>
      <trkpt lat="44.90114" lon="0.32597">
        <ele>79.9</ele>
        <time>2022-04-05T11:15:49Z</time>
      </trkpt>
      <trkpt lat="44.90115" lon="0.32598">
        <ele>79.9</ele>
        <time>2022-04-05T11:15:50Z</time>
      </trkpt>
      <trkpt lat="44.90116" lon="0.32599">
        <ele>79.9</ele>
        <time>2022-04-05T11:15:51Z</time>
      </trkpt>
      <trkpt lat="44.90118" lon="0.32599">
        <ele>80</ele>
        <time>2022-04-05T11:15:52Z</time>
      </trkpt>
      <trkpt lat="44.90119" lon="0.326">
        <ele>80</ele>
        <time>2022-04-05T11:15:53Z</time>
      </trkpt>
      <trkpt lat="44.90121" lon="0.32601">
        <ele>80.1</ele>
        <time>2022-04-05T11:15:54Z</time>
      </trkpt>
      <trkpt lat="44.90122" lon="0.32602">
        <ele>80.2</ele>
        <time>2022-04-05T11:15:56Z</time>
      </trkpt>
      <trkpt lat="44.90123" lon="0.32603">
        <ele>80.2</ele>
        <time>2022-04-05T11:15:57Z</time>
      </trkpt>
      <trkpt lat="44.90124" lon="0.32603">
        <ele>80.2</ele>
        <time>2022-04-05T11:15:58Z</time>
      </trkpt>
      <trkpt lat="44.90125" lon="0.32604">
        <ele>80.3</ele>
        <time>2022-04-05T11:15:59Z</time>
      </trkpt>
      <trkpt lat="44.90126" lon="0.32605">
        <ele>80.3</ele>
        <time>2022-04-05T11:16:00Z</time>
      </trkpt>
      <trkpt lat="44.90127" lon="0.32606">
        <ele>80.4</ele>
        <time>2022-04-05T11:16:01Z</time>
      </trkpt>
      <trkpt lat="44.90129" lon="0.32608">
        <ele>80.5</ele>
        <time>2022-04-05T11:16:02Z</time>
      </trkpt>
      <trkpt lat="44.9013" lon="0.32608">
        <ele>80.5</ele>
        <time>2022-04-05T11:16:03Z</time>
      </trkpt>
      <trkpt lat="44.90131" lon="0.32609">
        <ele>80.6</ele>
        <time>2022-04-05T11:16:04Z</time>
      </trkpt>
      <trkpt lat="44.90132" lon="0.3261">
        <ele>80.6</ele>
        <time>2022-04-05T11:16:05Z</time>
      </trkpt>
      <trkpt lat="44.90133" lon="0.32611">
        <ele>80.6</ele>
        <time>2022-04-05T11:16:07Z</time>
      </trkpt>
      <trkpt lat="44.90135" lon="0.32611">
        <ele>80.7</ele>
        <time>2022-04-05T11:16:08Z</time>
      </trkpt>
      <trkpt lat="44.90136" lon="0.32612">
        <ele>80.8</ele>
        <time>2022-04-05T11:16:09Z</time>
      </trkpt>
      <trkpt lat="44.90138" lon="0.32613">
        <ele>80.9</ele>
        <time>2022-04-05T11:16:10Z</time>
      </trkpt>
      <trkpt lat="44.9014" lon="0.32614">
        <ele>81</ele>
        <time>2022-04-05T11:16:11Z</time>
      </trkpt>
      <trkpt lat="44.9014" lon="0.32614">
        <ele>81</ele>
        <time>2022-04-05T11:16:12Z</time>
      </trkpt>
      <trkpt lat="44.90141" lon="0.32615">
        <ele>81</ele>
        <time>2022-04-05T11:16:13Z</time>
      </trkpt>
      <trkpt lat="44.90143" lon="0.32616">
        <ele>81.1</ele>
        <time>2022-04-05T11:16:14Z</time>
      </trkpt>
      <trkpt lat="44.90144" lon="0.32616">
        <ele>81.2</ele>
        <time>2022-04-05T11:16:16Z</time>
      </trkpt>
      <trkpt lat="44.90145" lon="0.32617">
        <ele>81.3</ele>
        <time>2022-04-05T11:16:17Z</time>
      </trkpt>
      <trkpt lat="44.90146" lon="0.32617">
        <ele>81.3</ele>
        <time>2022-04-05T11:16:18Z</time>
      </trkpt>
      <trkpt lat="44.90148" lon="0.32618">
        <ele>81.5</ele>
        <time>2022-04-05T11:16:20Z</time>
      </trkpt>
      <trkpt lat="44.9015" lon="0.32619">
        <ele>81.6</ele>
        <time>2022-04-05T11:16:21Z</time>
      </trkpt>
      <trkpt lat="44.90151" lon="0.32619">
        <ele>81.7</ele>
        <time>2022-04-05T11:16:22Z</time>
      </trkpt>
      <trkpt lat="44.90152" lon="0.32619">
        <ele>81.7</ele>
        <time>2022-04-05T11:16:23Z</time>
      </trkpt>
      <trkpt lat="44.90154" lon="0.3262">
        <ele>81.9</ele>
        <time>2022-04-05T11:16:25Z</time>
      </trkpt>
      <trkpt lat="44.90155" lon="0.3262">
        <ele>82</ele>
        <time>2022-04-05T11:16:26Z</time>
      </trkpt>
      <trkpt lat="44.90157" lon="0.32621">
        <ele>82.1</ele>
        <time>2022-04-05T11:16:27Z</time>
      </trkpt>
      <trkpt lat="44.90158" lon="0.32621">
        <ele>82.2</ele>
        <time>2022-04-05T11:16:28Z</time>
      </trkpt>
      <trkpt lat="44.90159" lon="0.32622">
        <ele>82.3</ele>
        <time>2022-04-05T11:16:29Z</time>
      </trkpt>
      <trkpt lat="44.90159" lon="0.32622">
        <ele>82.3</ele>
        <time>2022-04-05T11:16:30Z</time>
      </trkpt>
      <trkpt lat="44.9016" lon="0.32622">
        <ele>82.3</ele>
        <time>2022-04-05T11:16:32Z</time>
      </trkpt>
      <trkpt lat="44.90161" lon="0.32622">
        <ele>82.4</ele>
        <time>2022-04-05T11:16:33Z</time>
      </trkpt>
      <trkpt lat="44.90162" lon="0.32623">
        <ele>82.5</ele>
        <time>2022-04-05T11:16:34Z</time>
      </trkpt>
      <trkpt lat="44.90163" lon="0.32623">
        <ele>82.6</ele>
        <time>2022-04-05T11:16:35Z</time>
      </trkpt>
      <trkpt lat="44.90164" lon="0.32623">
        <ele>82.6</ele>
        <time>2022-04-05T11:16:36Z</time>
      </trkpt>
      <trkpt lat="44.90165" lon="0.32623">
        <ele>82.7</ele>
        <time>2022-04-05T11:16:37Z</time>
      </trkpt>
      <trkpt lat="44.90167" lon="0.32624">
        <ele>82.9</ele>
        <time>2022-04-05T11:16:39Z</time>
      </trkpt>
      <trkpt lat="44.90168" lon="0.32624">
        <ele>82.9</ele>
        <time>2022-04-05T11:16:40Z</time>
      </trkpt>
      <trkpt lat="44.90169" lon="0.32625">
        <ele>83</ele>
        <time>2022-04-05T11:16:41Z</time>
      </trkpt>
      <trkpt lat="44.9017" lon="0.32626">
        <ele>83.1</ele>
        <time>2022-04-05T11:16:42Z</time>
      </trkpt>
      <trkpt lat="44.90171" lon="0.32626">
        <ele>83.2</ele>
        <time>2022-04-05T11:16:43Z</time>
      </trkpt>
      <trkpt lat="44.90173" lon="0.32627">
        <ele>83.3</ele>
        <time>2022-04-05T11:16:45Z</time>
      </trkpt>
      <trkpt lat="44.90174" lon="0.32627">
        <ele>83.4</ele>
        <time>2022-04-05T11:16:46Z</time>
      </trkpt>
      <trkpt lat="44.90175" lon="0.32627">
        <ele>83.4</ele>
        <time>2022-04-05T11:16:47Z</time>
      </trkpt>
      <trkpt lat="44.90176" lon="0.32628">
        <ele>83.5</ele>
        <time>2022-04-05T11:16:48Z</time>
      </trkpt>
      <trkpt lat="44.90178" lon="0.3263">
        <ele>83.6</ele>
        <time>2022-04-05T11:16:50Z</time>
      </trkpt>
      <trkpt lat="44.90179" lon="0.32631">
        <ele>83.7</ele>
        <time>2022-04-05T11:16:51Z</time>
      </trkpt>
      <trkpt lat="44.90179" lon="0.32632">
        <ele>83.8</ele>
        <time>2022-04-05T11:16:52Z</time>
      </trkpt>
      <trkpt lat="44.9018" lon="0.32633">
        <ele>83.8</ele>
        <time>2022-04-05T11:16:53Z</time>
      </trkpt>
      <trkpt lat="44.90181" lon="0.32634">
        <ele>83.9</ele>
        <time>2022-04-05T11:16:54Z</time>
      </trkpt>
      <trkpt lat="44.90183" lon="0.32636">
        <ele>84</ele>
        <time>2022-04-05T11:16:55Z</time>
      </trkpt>
      <trkpt lat="44.90184" lon="0.32636">
        <ele>84</ele>
        <time>2022-04-05T11:16:56Z</time>
      </trkpt>
      <trkpt lat="44.90185" lon="0.32637">
        <ele>84</ele>
        <time>2022-04-05T11:16:57Z</time>
      </trkpt>
      <trkpt lat="44.90186" lon="0.32638">
        <ele>84.1</ele>
        <time>2022-04-05T11:16:58Z</time>
      </trkpt>
      <trkpt lat="44.90188" lon="0.32639">
        <ele>84.2</ele>
        <time>2022-04-05T11:16:59Z</time>
      </trkpt>
      <trkpt lat="44.90188" lon="0.3264">
        <ele>84.2</ele>
        <time>2022-04-05T11:17:01Z</time>
      </trkpt>
      <trkpt lat="44.90189" lon="0.3264">
        <ele>84.2</ele>
        <time>2022-04-05T11:17:02Z</time>
      </trkpt>
      <trkpt lat="44.90191" lon="0.32642">
        <ele>84.3</ele>
        <time>2022-04-05T11:17:03Z</time>
      </trkpt>
      <trkpt lat="44.90191" lon="0.32643">
        <ele>84.3</ele>
        <time>2022-04-05T11:17:04Z</time>
      </trkpt>
      <trkpt lat="44.90192" lon="0.32643">
        <ele>84.3</ele>
        <time>2022-04-05T11:17:05Z</time>
      </trkpt>
      <trkpt lat="44.90193" lon="0.32644">
        <ele>84.3</ele>
        <time>2022-04-05T11:17:06Z</time>
      </trkpt>
      <trkpt lat="44.90194" lon="0.32644">
        <ele>84.4</ele>
        <time>2022-04-05T11:17:07Z</time>
      </trkpt>
      <trkpt lat="44.90195" lon="0.32645">
        <ele>84.4</ele>
        <time>2022-04-05T11:17:08Z</time>
      </trkpt>
      <trkpt lat="44.90197" lon="0.32646">
        <ele>84.4</ele>
        <time>2022-04-05T11:17:09Z</time>
      </trkpt>
      <trkpt lat="44.90198" lon="0.32646">
        <ele>84.5</ele>
        <time>2022-04-05T11:17:11Z</time>
      </trkpt>
      <trkpt lat="44.902" lon="0.32646">
        <ele>84.5</ele>
        <time>2022-04-05T11:17:12Z</time>
      </trkpt>
      <trkpt lat="44.90201" lon="0.32647">
        <ele>84.5</ele>
        <time>2022-04-05T11:17:13Z</time>
      </trkpt>
      <trkpt lat="44.90202" lon="0.32648">
        <ele>84.5</ele>
        <time>2022-04-05T11:17:14Z</time>
      </trkpt>
      <trkpt lat="44.90203" lon="0.32648">
        <ele>84.6</ele>
        <time>2022-04-05T11:17:15Z</time>
      </trkpt>
      <trkpt lat="44.90204" lon="0.32648">
        <ele>84.6</ele>
        <time>2022-04-05T11:17:16Z</time>
      </trkpt>
      <trkpt lat="44.90205" lon="0.32649">
        <ele>84.6</ele>
        <time>2022-04-05T11:17:17Z</time>
      </trkpt>
      <trkpt lat="44.90206" lon="0.32649">
        <ele>84.6</ele>
        <time>2022-04-05T11:17:18Z</time>
      </trkpt>
      <trkpt lat="44.90207" lon="0.3265">
        <ele>84.6</ele>
        <time>2022-04-05T11:17:19Z</time>
      </trkpt>
      <trkpt lat="44.90209" lon="0.32651">
        <ele>84.6</ele>
        <time>2022-04-05T11:17:20Z</time>
      </trkpt>
      <trkpt lat="44.90211" lon="0.32652">
        <ele>84.7</ele>
        <time>2022-04-05T11:17:21Z</time>
      </trkpt>
      <trkpt lat="44.90212" lon="0.32653">
        <ele>84.7</ele>
        <time>2022-04-05T11:17:23Z</time>
      </trkpt>
      <trkpt lat="44.90213" lon="0.32653">
        <ele>84.7</ele>
        <time>2022-04-05T11:17:24Z</time>
      </trkpt>
      <trkpt lat="44.90215" lon="0.32654">
        <ele>84.7</ele>
        <time>2022-04-05T11:17:25Z</time>
      </trkpt>
      <trkpt lat="44.90215" lon="0.32654">
        <ele>84.7</ele>
        <time>2022-04-05T11:17:26Z</time>
      </trkpt>
      <trkpt lat="44.90216" lon="0.32654">
        <ele>84.7</ele>
        <time>2022-04-05T11:17:27Z</time>
      </trkpt>
      <trkpt lat="44.90218" lon="0.32655">
        <ele>84.7</ele>
        <time>2022-04-05T11:17:28Z</time>
      </trkpt>
      <trkpt lat="44.90219" lon="0.32656">
        <ele>84.7</ele>
        <time>2022-04-05T11:17:29Z</time>
      </trkpt>
      <trkpt lat="44.9022" lon="0.32657">
        <ele>84.7</ele>
        <time>2022-04-05T11:17:30Z</time>
      </trkpt>
      <trkpt lat="44.90221" lon="0.32657">
        <ele>84.7</ele>
        <time>2022-04-05T11:17:31Z</time>
      </trkpt>
      <trkpt lat="44.90222" lon="0.32658">
        <ele>84.8</ele>
        <time>2022-04-05T11:17:33Z</time>
      </trkpt>
      <trkpt lat="44.90223" lon="0.32658">
        <ele>84.8</ele>
        <time>2022-04-05T11:17:34Z</time>
      </trkpt>
      <trkpt lat="44.90225" lon="0.32659">
        <ele>84.8</ele>
        <time>2022-04-05T11:17:35Z</time>
      </trkpt>
      <trkpt lat="44.90226" lon="0.32659">
        <ele>84.8</ele>
        <time>2022-04-05T11:17:36Z</time>
      </trkpt>
      <trkpt lat="44.90227" lon="0.32659">
        <ele>84.8</ele>
        <time>2022-04-05T11:17:37Z</time>
      </trkpt>
      <trkpt lat="44.90228" lon="0.3266">
        <ele>84.8</ele>
        <time>2022-04-05T11:17:38Z</time>
      </trkpt>
      <trkpt lat="44.9023" lon="0.32661">
        <ele>84.8</ele>
        <time>2022-04-05T11:17:39Z</time>
      </trkpt>
      <trkpt lat="44.9023" lon="0.32661">
        <ele>84.8</ele>
        <time>2022-04-05T11:17:40Z</time>
      </trkpt>
      <trkpt lat="44.90231" lon="0.32662">
        <ele>84.8</ele>
        <time>2022-04-05T11:17:41Z</time>
      </trkpt>
      <trkpt lat="44.90233" lon="0.32662">
        <ele>84.7</ele>
        <time>2022-04-05T11:17:43Z</time>
      </trkpt>
      <trkpt lat="44.90234" lon="0.32663">
        <ele>84.7</ele>
        <time>2022-04-05T11:17:44Z</time>
      </trkpt>
      <trkpt lat="44.90236" lon="0.32663">
        <ele>84.7</ele>
        <time>2022-04-05T11:17:45Z</time>
      </trkpt>
      <trkpt lat="44.90237" lon="0.32663">
        <ele>84.7</ele>
        <time>2022-04-05T11:17:46Z</time>
      </trkpt>
      <trkpt lat="44.90238" lon="0.32664">
        <ele>84.7</ele>
        <time>2022-04-05T11:17:47Z</time>
      </trkpt>
      <trkpt lat="44.90239" lon="0.32665">
        <ele>84.7</ele>
        <time>2022-04-05T11:17:48Z</time>
      </trkpt>
      <trkpt lat="44.90242" lon="0.32666">
        <ele>84.6</ele>
        <time>2022-04-05T11:17:49Z</time>
      </trkpt>
      <trkpt lat="44.90243" lon="0.32667">
        <ele>84.6</ele>
        <time>2022-04-05T11:17:51Z</time>
      </trkpt>
      <trkpt lat="44.90245" lon="0.32667">
        <ele>84.5</ele>
        <time>2022-04-05T11:17:52Z</time>
      </trkpt>
      <trkpt lat="44.90246" lon="0.32668">
        <ele>84.5</ele>
        <time>2022-04-05T11:17:54Z</time>
      </trkpt>
      <trkpt lat="44.90247" lon="0.32668">
        <ele>84.5</ele>
        <time>2022-04-05T11:17:55Z</time>
      </trkpt>
      <trkpt lat="44.90248" lon="0.32669">
        <ele>84.4</ele>
        <time>2022-04-05T11:17:56Z</time>
      </trkpt>
      <trkpt lat="44.90249" lon="0.32669">
        <ele>84.4</ele>
        <time>2022-04-05T11:17:57Z</time>
      </trkpt>
      <trkpt lat="44.9025" lon="0.3267">
        <ele>84.4</ele>
        <time>2022-04-05T11:17:58Z</time>
      </trkpt>
      <trkpt lat="44.9025" lon="0.32671">
        <ele>84.4</ele>
        <time>2022-04-05T11:17:59Z</time>
      </trkpt>
      <trkpt lat="44.90252" lon="0.32672">
        <ele>84.3</ele>
        <time>2022-04-05T11:18:00Z</time>
      </trkpt>
      <trkpt lat="44.90253" lon="0.32672">
        <ele>84.3</ele>
        <time>2022-04-05T11:18:01Z</time>
      </trkpt>
      <trkpt lat="44.90254" lon="0.32672">
        <ele>84.2</ele>
        <time>2022-04-05T11:18:03Z</time>
      </trkpt>
      <trkpt lat="44.90256" lon="0.32673">
        <ele>84.2</ele>
        <time>2022-04-05T11:18:04Z</time>
      </trkpt>
      <trkpt lat="44.90258" lon="0.32674">
        <ele>84.1</ele>
        <time>2022-04-05T11:18:05Z</time>
      </trkpt>
      <trkpt lat="44.90259" lon="0.32675">
        <ele>84</ele>
        <time>2022-04-05T11:18:06Z</time>
      </trkpt>
      <trkpt lat="44.9026" lon="0.32676">
        <ele>84</ele>
        <time>2022-04-05T11:18:07Z</time>
      </trkpt>
      <trkpt lat="44.90261" lon="0.32677">
        <ele>83.9</ele>
        <time>2022-04-05T11:18:08Z</time>
      </trkpt>
      <trkpt lat="44.90262" lon="0.32678">
        <ele>83.8</ele>
        <time>2022-04-05T11:18:09Z</time>
      </trkpt>
      <trkpt lat="44.90264" lon="0.32679">
        <ele>83.7</ele>
        <time>2022-04-05T11:18:10Z</time>
      </trkpt>
      <trkpt lat="44.90265" lon="0.32681">
        <ele>83.7</ele>
        <time>2022-04-05T11:18:11Z</time>
      </trkpt>
      <trkpt lat="44.90266" lon="0.32681">
        <ele>83.6</ele>
        <time>2022-04-05T11:18:12Z</time>
      </trkpt>
      <trkpt lat="44.90267" lon="0.32682">
        <ele>83.6</ele>
        <time>2022-04-05T11:18:13Z</time>
      </trkpt>
      <trkpt lat="44.90269" lon="0.32683">
        <ele>83.5</ele>
        <time>2022-04-05T11:18:15Z</time>
      </trkpt>
      <trkpt lat="44.9027" lon="0.32683">
        <ele>83.4</ele>
        <time>2022-04-05T11:18:16Z</time>
      </trkpt>
      <trkpt lat="44.90271" lon="0.32684">
        <ele>83.3</ele>
        <time>2022-04-05T11:18:17Z</time>
      </trkpt>
      <trkpt lat="44.90272" lon="0.32685">
        <ele>83.3</ele>
        <time>2022-04-05T11:18:18Z</time>
      </trkpt>
      <trkpt lat="44.90274" lon="0.32686">
        <ele>83.1</ele>
        <time>2022-04-05T11:18:20Z</time>
      </trkpt>
      <trkpt lat="44.90275" lon="0.32687">
        <ele>83.1</ele>
        <time>2022-04-05T11:18:21Z</time>
      </trkpt>
      <trkpt lat="44.90276" lon="0.32688">
        <ele>83</ele>
        <time>2022-04-05T11:18:22Z</time>
      </trkpt>
      <trkpt lat="44.90277" lon="0.32689">
        <ele>82.9</ele>
        <time>2022-04-05T11:18:23Z</time>
      </trkpt>
      <trkpt lat="44.90278" lon="0.32689">
        <ele>82.9</ele>
        <time>2022-04-05T11:18:24Z</time>
      </trkpt>
      <trkpt lat="44.9028" lon="0.32691">
        <ele>82.7</ele>
        <time>2022-04-05T11:18:25Z</time>
      </trkpt>
      <trkpt lat="44.90282" lon="0.32692">
        <ele>82.6</ele>
        <time>2022-04-05T11:18:27Z</time>
      </trkpt>
      <trkpt lat="44.90282" lon="0.32693">
        <ele>82.5</ele>
        <time>2022-04-05T11:18:28Z</time>
      </trkpt>
      <trkpt lat="44.90283" lon="0.32694">
        <ele>82.5</ele>
        <time>2022-04-05T11:18:29Z</time>
      </trkpt>
      <trkpt lat="44.90285" lon="0.32696">
        <ele>82.3</ele>
        <time>2022-04-05T11:18:30Z</time>
      </trkpt>
      <trkpt lat="44.90286" lon="0.32697">
        <ele>82.3</ele>
        <time>2022-04-05T11:18:31Z</time>
      </trkpt>
      <trkpt lat="44.90286" lon="0.32697">
        <ele>82.2</ele>
        <time>2022-04-05T11:18:32Z</time>
      </trkpt>
      <trkpt lat="44.90288" lon="0.32698">
        <ele>82.1</ele>
        <time>2022-04-05T11:18:33Z</time>
      </trkpt>
      <trkpt lat="44.90289" lon="0.32699">
        <ele>82</ele>
        <time>2022-04-05T11:18:34Z</time>
      </trkpt>
      <trkpt lat="44.9029" lon="0.32701">
        <ele>81.9</ele>
        <time>2022-04-05T11:18:35Z</time>
      </trkpt>
      <trkpt lat="44.90291" lon="0.32701">
        <ele>81.8</ele>
        <time>2022-04-05T11:18:36Z</time>
      </trkpt>
      <trkpt lat="44.90292" lon="0.32702">
        <ele>81.7</ele>
        <time>2022-04-05T11:18:37Z</time>
      </trkpt>
      <trkpt lat="44.90293" lon="0.32703">
        <ele>81.6</ele>
        <time>2022-04-05T11:18:38Z</time>
      </trkpt>
      <trkpt lat="44.90294" lon="0.32704">
        <ele>81.6</ele>
        <time>2022-04-05T11:18:39Z</time>
      </trkpt>
      <trkpt lat="44.90296" lon="0.32706">
        <ele>81.4</ele>
        <time>2022-04-05T11:18:40Z</time>
      </trkpt>
      <trkpt lat="44.90297" lon="0.32706">
        <ele>81.3</ele>
        <time>2022-04-05T11:18:41Z</time>
      </trkpt>
      <trkpt lat="44.90298" lon="0.32707">
        <ele>81.3</ele>
        <time>2022-04-05T11:18:42Z</time>
      </trkpt>
      <trkpt lat="44.90298" lon="0.32709">
        <ele>81.2</ele>
        <time>2022-04-05T11:18:43Z</time>
      </trkpt>
      <trkpt lat="44.90298" lon="0.3271">
        <ele>81.1</ele>
        <time>2022-04-05T11:18:44Z</time>
      </trkpt>
      <trkpt lat="44.90299" lon="0.32712">
        <ele>81</ele>
        <time>2022-04-05T11:18:45Z</time>
      </trkpt>
      <trkpt lat="44.903" lon="0.32713">
        <ele>80.9</ele>
        <time>2022-04-05T11:18:46Z</time>
      </trkpt>
      <trkpt lat="44.90301" lon="0.32714">
        <ele>80.8</ele>
        <time>2022-04-05T11:18:47Z</time>
      </trkpt>
      <trkpt lat="44.90302" lon="0.32715">
        <ele>80.7</ele>
        <time>2022-04-05T11:18:48Z</time>
      </trkpt>
      <trkpt lat="44.90304" lon="0.32716">
        <ele>80.6</ele>
        <time>2022-04-05T11:18:49Z</time>
      </trkpt>
      <trkpt lat="44.90305" lon="0.32717">
        <ele>80.5</ele>
        <time>2022-04-05T11:18:50Z</time>
      </trkpt>
      <trkpt lat="44.90307" lon="0.32719">
        <ele>80.4</ele>
        <time>2022-04-05T11:18:51Z</time>
      </trkpt>
      <trkpt lat="44.90308" lon="0.3272">
        <ele>80.3</ele>
        <time>2022-04-05T11:18:53Z</time>
      </trkpt>
      <trkpt lat="44.90308" lon="0.3272">
        <ele>80.2</ele>
        <time>2022-04-05T11:18:54Z</time>
      </trkpt>
      <trkpt lat="44.9031" lon="0.32722">
        <ele>80.1</ele>
        <time>2022-04-05T11:18:55Z</time>
      </trkpt>
      <trkpt lat="44.90311" lon="0.32722">
        <ele>80</ele>
        <time>2022-04-05T11:18:56Z</time>
      </trkpt>
      <trkpt lat="44.90311" lon="0.32724">
        <ele>80</ele>
        <time>2022-04-05T11:18:57Z</time>
      </trkpt>
      <trkpt lat="44.90312" lon="0.32725">
        <ele>79.9</ele>
        <time>2022-04-05T11:18:58Z</time>
      </trkpt>
      <trkpt lat="44.90314" lon="0.32728">
        <ele>79.7</ele>
        <time>2022-04-05T11:19:00Z</time>
      </trkpt>
      <trkpt lat="44.90315" lon="0.32729">
        <ele>79.6</ele>
        <time>2022-04-05T11:19:01Z</time>
      </trkpt>
      <trkpt lat="44.90316" lon="0.3273">
        <ele>79.6</ele>
        <time>2022-04-05T11:19:02Z</time>
      </trkpt>
      <trkpt lat="44.90317" lon="0.3273">
        <ele>79.5</ele>
        <time>2022-04-05T11:19:03Z</time>
      </trkpt>
      <trkpt lat="44.90319" lon="0.32733">
        <ele>79.3</ele>
        <time>2022-04-05T11:19:05Z</time>
      </trkpt>
      <trkpt lat="44.9032" lon="0.32733">
        <ele>79.3</ele>
        <time>2022-04-05T11:19:06Z</time>
      </trkpt>
      <trkpt lat="44.90321" lon="0.32735">
        <ele>79.2</ele>
        <time>2022-04-05T11:19:07Z</time>
      </trkpt>
      <trkpt lat="44.90322" lon="0.32736">
        <ele>79.1</ele>
        <time>2022-04-05T11:19:09Z</time>
      </trkpt>
      <trkpt lat="44.90323" lon="0.32738">
        <ele>79</ele>
        <time>2022-04-05T11:19:10Z</time>
      </trkpt>
      <trkpt lat="44.90324" lon="0.32739">
        <ele>78.9</ele>
        <time>2022-04-05T11:19:11Z</time>
      </trkpt>
      <trkpt lat="44.90325" lon="0.32742">
        <ele>78.8</ele>
        <time>2022-04-05T11:19:12Z</time>
      </trkpt>
      <trkpt lat="44.90325" lon="0.32743">
        <ele>78.8</ele>
        <time>2022-04-05T11:19:14Z</time>
      </trkpt>
      <trkpt lat="44.90326" lon="0.32744">
        <ele>78.7</ele>
        <time>2022-04-05T11:19:15Z</time>
      </trkpt>
      <trkpt lat="44.90325" lon="0.32745">
        <ele>78.7</ele>
        <time>2022-04-05T11:19:16Z</time>
      </trkpt>
      <trkpt lat="44.90325" lon="0.32747">
        <ele>78.6</ele>
        <time>2022-04-05T11:19:17Z</time>
      </trkpt>
      <trkpt lat="44.90325" lon="0.32748">
        <ele>78.6</ele>
        <time>2022-04-05T11:19:18Z</time>
      </trkpt>
      <trkpt lat="44.90324" lon="0.32748">
        <ele>78.6</ele>
        <time>2022-04-05T11:19:19Z</time>
      </trkpt>
      <trkpt lat="44.90323" lon="0.32749">
        <ele>78.8</ele>
        <time>2022-04-05T11:19:20Z</time>
      </trkpt>
      <trkpt lat="44.90323" lon="0.32749">
        <ele>78.8</ele>
        <time>2022-04-05T11:19:21Z</time>
      </trkpt>
      <trkpt lat="44.90322" lon="0.32749">
        <ele>78.8</ele>
        <time>2022-04-05T11:19:22Z</time>
      </trkpt>
      <trkpt lat="44.90322" lon="0.32749">
        <ele>78.9</ele>
        <time>2022-04-05T11:19:23Z</time>
      </trkpt>
      <trkpt lat="44.90322" lon="0.32749">
        <ele>78.9</ele>
        <time>2022-04-05T11:19:24Z</time>
      </trkpt>
      <trkpt lat="44.90321" lon="0.32749">
        <ele>78.9</ele>
        <time>2022-04-05T11:19:25Z</time>
      </trkpt>
      <trkpt lat="44.90321" lon="0.3275">
        <ele>79</ele>
        <time>2022-04-05T11:19:27Z</time>
      </trkpt>
      <trkpt lat="44.9032" lon="0.3275">
        <ele>79</ele>
        <time>2022-04-05T11:19:28Z</time>
      </trkpt>
      <trkpt lat="44.90318" lon="0.32751">
        <ele>79.2</ele>
        <time>2022-04-05T11:19:29Z</time>
      </trkpt>
      <trkpt lat="44.90317" lon="0.32752">
        <ele>79.3</ele>
        <time>2022-04-05T11:19:30Z</time>
      </trkpt>
      <trkpt lat="44.90315" lon="0.32753">
        <ele>79.4</ele>
        <time>2022-04-05T11:19:31Z</time>
      </trkpt>
      <trkpt lat="44.90314" lon="0.32753">
        <ele>79.5</ele>
        <time>2022-04-05T11:19:32Z</time>
      </trkpt>
      <trkpt lat="44.90313" lon="0.32754">
        <ele>79.5</ele>
        <time>2022-04-05T11:19:33Z</time>
      </trkpt>
      <trkpt lat="44.90311" lon="0.32756">
        <ele>79.7</ele>
        <time>2022-04-05T11:19:34Z</time>
      </trkpt>
      <trkpt lat="44.9031" lon="0.32757">
        <ele>79.8</ele>
        <time>2022-04-05T11:19:36Z</time>
      </trkpt>
      <trkpt lat="44.90309" lon="0.32757">
        <ele>79.9</ele>
        <time>2022-04-05T11:19:37Z</time>
      </trkpt>
      <trkpt lat="44.90308" lon="0.32758">
        <ele>80</ele>
        <time>2022-04-05T11:19:38Z</time>
      </trkpt>
      <trkpt lat="44.90307" lon="0.32758">
        <ele>80</ele>
        <time>2022-04-05T11:19:39Z</time>
      </trkpt>
      <trkpt lat="44.90305" lon="0.3276">
        <ele>80.2</ele>
        <time>2022-04-05T11:19:40Z</time>
      </trkpt>
      <trkpt lat="44.90304" lon="0.32761">
        <ele>80.3</ele>
        <time>2022-04-05T11:19:41Z</time>
      </trkpt>
      <trkpt lat="44.90303" lon="0.32763">
        <ele>80.4</ele>
        <time>2022-04-05T11:19:42Z</time>
      </trkpt>
      <trkpt lat="44.90302" lon="0.32764">
        <ele>80.5</ele>
        <time>2022-04-05T11:19:43Z</time>
      </trkpt>
      <trkpt lat="44.90302" lon="0.32765">
        <ele>80.5</ele>
        <time>2022-04-05T11:19:44Z</time>
      </trkpt>
      <trkpt lat="44.903" lon="0.32767">
        <ele>80.6</ele>
        <time>2022-04-05T11:19:46Z</time>
      </trkpt>
      <trkpt lat="44.90299" lon="0.32768">
        <ele>80.7</ele>
        <time>2022-04-05T11:19:47Z</time>
      </trkpt>
      <trkpt lat="44.90298" lon="0.3277">
        <ele>80.9</ele>
        <time>2022-04-05T11:19:48Z</time>
      </trkpt>
      <trkpt lat="44.90297" lon="0.32771">
        <ele>81</ele>
        <time>2022-04-05T11:19:49Z</time>
      </trkpt>
      <trkpt lat="44.90296" lon="0.32772">
        <ele>81.1</ele>
        <time>2022-04-05T11:19:50Z</time>
      </trkpt>
      <trkpt lat="44.90295" lon="0.32774">
        <ele>81.1</ele>
        <time>2022-04-05T11:19:51Z</time>
      </trkpt>
      <trkpt lat="44.90294" lon="0.32775">
        <ele>81.2</ele>
        <time>2022-04-05T11:19:52Z</time>
      </trkpt>
      <trkpt lat="44.90293" lon="0.32776">
        <ele>81.3</ele>
        <time>2022-04-05T11:19:54Z</time>
      </trkpt>
      <trkpt lat="44.90292" lon="0.32777">
        <ele>81.4</ele>
        <time>2022-04-05T11:19:55Z</time>
      </trkpt>
      <trkpt lat="44.9029" lon="0.32778">
        <ele>81.5</ele>
        <time>2022-04-05T11:19:56Z</time>
      </trkpt>
      <trkpt lat="44.90289" lon="0.3278">
        <ele>81.7</ele>
        <time>2022-04-05T11:19:57Z</time>
      </trkpt>
      <trkpt lat="44.90288" lon="0.3278">
        <ele>81.7</ele>
        <time>2022-04-05T11:19:58Z</time>
      </trkpt>
      <trkpt lat="44.90287" lon="0.32781">
        <ele>81.8</ele>
        <time>2022-04-05T11:19:59Z</time>
      </trkpt>
      <trkpt lat="44.90286" lon="0.32783">
        <ele>81.9</ele>
        <time>2022-04-05T11:20:00Z</time>
      </trkpt>
      <trkpt lat="44.90285" lon="0.32784">
        <ele>82</ele>
        <time>2022-04-05T11:20:01Z</time>
      </trkpt>
      <trkpt lat="44.90285" lon="0.32785">
        <ele>82</ele>
        <time>2022-04-05T11:20:02Z</time>
      </trkpt>
      <trkpt lat="44.90283" lon="0.32787">
        <ele>82.2</ele>
        <time>2022-04-05T11:20:03Z</time>
      </trkpt>
      <trkpt lat="44.90282" lon="0.32787">
        <ele>82.3</ele>
        <time>2022-04-05T11:20:04Z</time>
      </trkpt>
      <trkpt lat="44.90282" lon="0.32788">
        <ele>82.3</ele>
        <time>2022-04-05T11:20:05Z</time>
      </trkpt>
      <trkpt lat="44.9028" lon="0.32789">
        <ele>82.5</ele>
        <time>2022-04-05T11:20:07Z</time>
      </trkpt>
      <trkpt lat="44.90279" lon="0.3279">
        <ele>82.5</ele>
        <time>2022-04-05T11:20:08Z</time>
      </trkpt>
      <trkpt lat="44.90278" lon="0.3279">
        <ele>82.6</ele>
        <time>2022-04-05T11:20:09Z</time>
      </trkpt>
      <trkpt lat="44.90277" lon="0.32792">
        <ele>82.7</ele>
        <time>2022-04-05T11:20:10Z</time>
      </trkpt>
      <trkpt lat="44.90276" lon="0.32792">
        <ele>82.7</ele>
        <time>2022-04-05T11:20:11Z</time>
      </trkpt>
      <trkpt lat="44.90276" lon="0.32793">
        <ele>82.8</ele>
        <time>2022-04-05T11:20:12Z</time>
      </trkpt>
      <trkpt lat="44.90274" lon="0.32795">
        <ele>83</ele>
        <time>2022-04-05T11:20:13Z</time>
      </trkpt>
      <trkpt lat="44.90273" lon="0.32796">
        <ele>83.1</ele>
        <time>2022-04-05T11:20:15Z</time>
      </trkpt>
      <trkpt lat="44.90272" lon="0.32797">
        <ele>83.1</ele>
        <time>2022-04-05T11:20:16Z</time>
      </trkpt>
      <trkpt lat="44.90271" lon="0.32797">
        <ele>83.2</ele>
        <time>2022-04-05T11:20:17Z</time>
      </trkpt>
      <trkpt lat="44.9027" lon="0.32798">
        <ele>83.3</ele>
        <time>2022-04-05T11:20:18Z</time>
      </trkpt>
      <trkpt lat="44.90269" lon="0.32799">
        <ele>83.4</ele>
        <time>2022-04-05T11:20:19Z</time>
      </trkpt>
      <trkpt lat="44.90267" lon="0.32801">
        <ele>83.5</ele>
        <time>2022-04-05T11:20:20Z</time>
      </trkpt>
      <trkpt lat="44.90267" lon="0.32801">
        <ele>83.5</ele>
        <time>2022-04-05T11:20:21Z</time>
      </trkpt>
      <trkpt lat="44.90266" lon="0.32802">
        <ele>83.6</ele>
        <time>2022-04-05T11:20:22Z</time>
      </trkpt>
      <trkpt lat="44.90265" lon="0.32804">
        <ele>83.7</ele>
        <time>2022-04-05T11:20:23Z</time>
      </trkpt>
      <trkpt lat="44.90264" lon="0.32805">
        <ele>83.8</ele>
        <time>2022-04-05T11:20:25Z</time>
      </trkpt>
      <trkpt lat="44.90263" lon="0.32807">
        <ele>83.9</ele>
        <time>2022-04-05T11:20:26Z</time>
      </trkpt>
      <trkpt lat="44.90263" lon="0.32808">
        <ele>84</ele>
        <time>2022-04-05T11:20:27Z</time>
      </trkpt>
      <trkpt lat="44.90262" lon="0.32809">
        <ele>84</ele>
        <time>2022-04-05T11:20:28Z</time>
      </trkpt>
      <trkpt lat="44.90261" lon="0.3281">
        <ele>84.1</ele>
        <time>2022-04-05T11:20:29Z</time>
      </trkpt>
      <trkpt lat="44.90259" lon="0.32812">
        <ele>84.3</ele>
        <time>2022-04-05T11:20:31Z</time>
      </trkpt>
      <trkpt lat="44.90258" lon="0.32813">
        <ele>84.3</ele>
        <time>2022-04-05T11:20:32Z</time>
      </trkpt>
      <trkpt lat="44.90256" lon="0.32814">
        <ele>84.5</ele>
        <time>2022-04-05T11:20:33Z</time>
      </trkpt>
      <trkpt lat="44.90256" lon="0.32815">
        <ele>84.5</ele>
        <time>2022-04-05T11:20:34Z</time>
      </trkpt>
      <trkpt lat="44.90255" lon="0.32816">
        <ele>84.6</ele>
        <time>2022-04-05T11:20:35Z</time>
      </trkpt>
      <trkpt lat="44.90254" lon="0.32817">
        <ele>84.7</ele>
        <time>2022-04-05T11:20:36Z</time>
      </trkpt>
      <trkpt lat="44.90253" lon="0.32818">
        <ele>84.7</ele>
        <time>2022-04-05T11:20:38Z</time>
      </trkpt>
      <trkpt lat="44.90253" lon="0.32819">
        <ele>84.8</ele>
        <time>2022-04-05T11:20:39Z</time>
      </trkpt>
      <trkpt lat="44.90251" lon="0.32821">
        <ele>85</ele>
        <time>2022-04-05T11:20:41Z</time>
      </trkpt>
      <trkpt lat="44.9025" lon="0.32823">
        <ele>85</ele>
        <time>2022-04-05T11:20:42Z</time>
      </trkpt>
      <trkpt lat="44.90248" lon="0.32825">
        <ele>85.2</ele>
        <time>2022-04-05T11:20:43Z</time>
      </trkpt>
      <trkpt lat="44.90248" lon="0.32826">
        <ele>85.2</ele>
        <time>2022-04-05T11:20:44Z</time>
      </trkpt>
      <trkpt lat="44.90247" lon="0.32828">
        <ele>85.3</ele>
        <time>2022-04-05T11:20:45Z</time>
      </trkpt>
      <trkpt lat="44.90246" lon="0.32828">
        <ele>85.4</ele>
        <time>2022-04-05T11:20:46Z</time>
      </trkpt>
      <trkpt lat="44.90246" lon="0.32829">
        <ele>85.4</ele>
        <time>2022-04-05T11:20:47Z</time>
      </trkpt>
      <trkpt lat="44.90245" lon="0.32831">
        <ele>85.5</ele>
        <time>2022-04-05T11:20:49Z</time>
      </trkpt>
      <trkpt lat="44.90243" lon="0.32833">
        <ele>85.6</ele>
        <time>2022-04-05T11:20:50Z</time>
      </trkpt>
      <trkpt lat="44.90243" lon="0.32834">
        <ele>85.7</ele>
        <time>2022-04-05T11:20:51Z</time>
      </trkpt>
      <trkpt lat="44.90242" lon="0.32835">
        <ele>85.7</ele>
        <time>2022-04-05T11:20:52Z</time>
      </trkpt>
      <trkpt lat="44.90241" lon="0.32836">
        <ele>85.8</ele>
        <time>2022-04-05T11:20:53Z</time>
      </trkpt>
      <trkpt lat="44.9024" lon="0.32837">
        <ele>85.9</ele>
        <time>2022-04-05T11:20:54Z</time>
      </trkpt>
      <trkpt lat="44.90238" lon="0.3284">
        <ele>86</ele>
        <time>2022-04-05T11:20:55Z</time>
      </trkpt>
      <trkpt lat="44.90238" lon="0.3284">
        <ele>86.1</ele>
        <time>2022-04-05T11:20:56Z</time>
      </trkpt>
      <trkpt lat="44.90237" lon="0.32842">
        <ele>86.1</ele>
        <time>2022-04-05T11:20:58Z</time>
      </trkpt>
      <trkpt lat="44.90236" lon="0.32843">
        <ele>86.2</ele>
        <time>2022-04-05T11:20:59Z</time>
      </trkpt>
      <trkpt lat="44.90235" lon="0.32845">
        <ele>86.3</ele>
        <time>2022-04-05T11:21:00Z</time>
      </trkpt>
      <trkpt lat="44.90234" lon="0.32846">
        <ele>86.4</ele>
        <time>2022-04-05T11:21:01Z</time>
      </trkpt>
      <trkpt lat="44.90233" lon="0.32848">
        <ele>86.5</ele>
        <time>2022-04-05T11:21:02Z</time>
      </trkpt>
      <trkpt lat="44.90232" lon="0.32848">
        <ele>86.5</ele>
        <time>2022-04-05T11:21:03Z</time>
      </trkpt>
      <trkpt lat="44.90231" lon="0.32849">
        <ele>86.6</ele>
        <time>2022-04-05T11:21:04Z</time>
      </trkpt>
      <trkpt lat="44.90229" lon="0.32851">
        <ele>86.7</ele>
        <time>2022-04-05T11:21:06Z</time>
      </trkpt>
      <trkpt lat="44.90228" lon="0.32852">
        <ele>86.8</ele>
        <time>2022-04-05T11:21:07Z</time>
      </trkpt>
      <trkpt lat="44.90227" lon="0.32853">
        <ele>86.8</ele>
        <time>2022-04-05T11:21:08Z</time>
      </trkpt>
      <trkpt lat="44.90226" lon="0.32854">
        <ele>86.9</ele>
        <time>2022-04-05T11:21:09Z</time>
      </trkpt>
      <trkpt lat="44.90225" lon="0.32855">
        <ele>87</ele>
        <time>2022-04-05T11:21:10Z</time>
      </trkpt>
      <trkpt lat="44.90224" lon="0.32856">
        <ele>87.1</ele>
        <time>2022-04-05T11:21:11Z</time>
      </trkpt>
      <trkpt lat="44.90223" lon="0.32858">
        <ele>87.2</ele>
        <time>2022-04-05T11:21:12Z</time>
      </trkpt>
      <trkpt lat="44.90221" lon="0.3286">
        <ele>87.3</ele>
        <time>2022-04-05T11:21:14Z</time>
      </trkpt>
      <trkpt lat="44.9022" lon="0.32861">
        <ele>87.3</ele>
        <time>2022-04-05T11:21:15Z</time>
      </trkpt>
      <trkpt lat="44.9022" lon="0.32862">
        <ele>87.4</ele>
        <time>2022-04-05T11:21:16Z</time>
      </trkpt>
      <trkpt lat="44.90219" lon="0.32863">
        <ele>87.4</ele>
        <time>2022-04-05T11:21:17Z</time>
      </trkpt>
      <trkpt lat="44.90218" lon="0.32864">
        <ele>87.5</ele>
        <time>2022-04-05T11:21:18Z</time>
      </trkpt>
      <trkpt lat="44.90217" lon="0.32866">
        <ele>87.6</ele>
        <time>2022-04-05T11:21:19Z</time>
      </trkpt>
      <trkpt lat="44.90215" lon="0.32868">
        <ele>87.7</ele>
        <time>2022-04-05T11:21:20Z</time>
      </trkpt>
      <trkpt lat="44.90215" lon="0.32869">
        <ele>87.8</ele>
        <time>2022-04-05T11:21:21Z</time>
      </trkpt>
      <trkpt lat="44.90214" lon="0.32869">
        <ele>87.8</ele>
        <time>2022-04-05T11:21:22Z</time>
      </trkpt>
      <trkpt lat="44.90213" lon="0.32871">
        <ele>87.9</ele>
        <time>2022-04-05T11:21:23Z</time>
      </trkpt>
      <trkpt lat="44.90212" lon="0.32872">
        <ele>88</ele>
        <time>2022-04-05T11:21:25Z</time>
      </trkpt>
      <trkpt lat="44.90211" lon="0.32874">
        <ele>88</ele>
        <time>2022-04-05T11:21:26Z</time>
      </trkpt>
      <trkpt lat="44.90211" lon="0.32874">
        <ele>88.1</ele>
        <time>2022-04-05T11:21:27Z</time>
      </trkpt>
      <trkpt lat="44.9021" lon="0.32875">
        <ele>88.1</ele>
        <time>2022-04-05T11:21:28Z</time>
      </trkpt>
      <trkpt lat="44.90209" lon="0.32876">
        <ele>88.2</ele>
        <time>2022-04-05T11:21:29Z</time>
      </trkpt>
      <trkpt lat="44.90208" lon="0.32879">
        <ele>88.3</ele>
        <time>2022-04-05T11:21:30Z</time>
      </trkpt>
      <trkpt lat="44.90208" lon="0.3288">
        <ele>88.4</ele>
        <time>2022-04-05T11:21:31Z</time>
      </trkpt>
      <trkpt lat="44.90207" lon="0.32881">
        <ele>88.4</ele>
        <time>2022-04-05T11:21:32Z</time>
      </trkpt>
      <trkpt lat="44.90206" lon="0.32884">
        <ele>88.5</ele>
        <time>2022-04-05T11:21:34Z</time>
      </trkpt>
      <trkpt lat="44.90206" lon="0.32885">
        <ele>88.6</ele>
        <time>2022-04-05T11:21:35Z</time>
      </trkpt>
      <trkpt lat="44.90205" lon="0.32886">
        <ele>88.6</ele>
        <time>2022-04-05T11:21:36Z</time>
      </trkpt>
      <trkpt lat="44.90205" lon="0.32887">
        <ele>88.7</ele>
        <time>2022-04-05T11:21:37Z</time>
      </trkpt>
      <trkpt lat="44.90204" lon="0.32888">
        <ele>88.7</ele>
        <time>2022-04-05T11:21:38Z</time>
      </trkpt>
      <trkpt lat="44.90203" lon="0.32889">
        <ele>88.8</ele>
        <time>2022-04-05T11:21:39Z</time>
      </trkpt>
      <trkpt lat="44.90201" lon="0.32892">
        <ele>89</ele>
        <time>2022-04-05T11:21:40Z</time>
      </trkpt>
      <trkpt lat="44.902" lon="0.32893">
        <ele>89</ele>
        <time>2022-04-05T11:21:42Z</time>
      </trkpt>
      <trkpt lat="44.902" lon="0.32894">
        <ele>89.1</ele>
        <time>2022-04-05T11:21:43Z</time>
      </trkpt>
      <trkpt lat="44.90199" lon="0.32895">
        <ele>89.2</ele>
        <time>2022-04-05T11:21:44Z</time>
      </trkpt>
      <trkpt lat="44.90198" lon="0.32896">
        <ele>89.2</ele>
        <time>2022-04-05T11:21:45Z</time>
      </trkpt>
      <trkpt lat="44.90198" lon="0.32897">
        <ele>89.3</ele>
        <time>2022-04-05T11:21:47Z</time>
      </trkpt>
      <trkpt lat="44.90197" lon="0.32898">
        <ele>89.3</ele>
        <time>2022-04-05T11:21:48Z</time>
      </trkpt>
      <trkpt lat="44.90196" lon="0.32899">
        <ele>89.4</ele>
        <time>2022-04-05T11:21:49Z</time>
      </trkpt>
      <trkpt lat="44.90195" lon="0.32901">
        <ele>89.4</ele>
        <time>2022-04-05T11:21:50Z</time>
      </trkpt>
      <trkpt lat="44.90195" lon="0.32902">
        <ele>89.5</ele>
        <time>2022-04-05T11:21:51Z</time>
      </trkpt>
      <trkpt lat="44.90194" lon="0.32903">
        <ele>89.6</ele>
        <time>2022-04-05T11:21:52Z</time>
      </trkpt>
      <trkpt lat="44.90194" lon="0.32904">
        <ele>89.6</ele>
        <time>2022-04-05T11:21:53Z</time>
      </trkpt>
      <trkpt lat="44.90193" lon="0.32905">
        <ele>89.7</ele>
        <time>2022-04-05T11:21:54Z</time>
      </trkpt>
      <trkpt lat="44.90191" lon="0.32907">
        <ele>89.8</ele>
        <time>2022-04-05T11:21:56Z</time>
      </trkpt>
      <trkpt lat="44.9019" lon="0.32908">
        <ele>89.8</ele>
        <time>2022-04-05T11:21:57Z</time>
      </trkpt>
      <trkpt lat="44.90189" lon="0.32909">
        <ele>89.9</ele>
        <time>2022-04-05T11:21:58Z</time>
      </trkpt>
      <trkpt lat="44.90189" lon="0.32909">
        <ele>89.9</ele>
        <time>2022-04-05T11:21:59Z</time>
      </trkpt>
      <trkpt lat="44.90188" lon="0.3291">
        <ele>90</ele>
        <time>2022-04-05T11:22:00Z</time>
      </trkpt>
      <trkpt lat="44.90187" lon="0.32912">
        <ele>90</ele>
        <time>2022-04-05T11:22:01Z</time>
      </trkpt>
      <trkpt lat="44.90186" lon="0.32913">
        <ele>90.1</ele>
        <time>2022-04-05T11:22:02Z</time>
      </trkpt>
      <trkpt lat="44.90185" lon="0.32915">
        <ele>90.2</ele>
        <time>2022-04-05T11:22:03Z</time>
      </trkpt>
      <trkpt lat="44.90184" lon="0.32916">
        <ele>90.3</ele>
        <time>2022-04-05T11:22:05Z</time>
      </trkpt>
      <trkpt lat="44.90183" lon="0.32918">
        <ele>90.3</ele>
        <time>2022-04-05T11:22:06Z</time>
      </trkpt>
      <trkpt lat="44.90182" lon="0.32919">
        <ele>90.4</ele>
        <time>2022-04-05T11:22:07Z</time>
      </trkpt>
      <trkpt lat="44.90181" lon="0.3292">
        <ele>90.4</ele>
        <time>2022-04-05T11:22:08Z</time>
      </trkpt>
      <trkpt lat="44.90181" lon="0.32921">
        <ele>90.5</ele>
        <time>2022-04-05T11:22:09Z</time>
      </trkpt>
      <trkpt lat="44.9018" lon="0.32922">
        <ele>90.5</ele>
        <time>2022-04-05T11:22:10Z</time>
      </trkpt>
      <trkpt lat="44.90179" lon="0.32923">
        <ele>90.6</ele>
        <time>2022-04-05T11:22:11Z</time>
      </trkpt>
      <trkpt lat="44.90178" lon="0.32925">
        <ele>90.6</ele>
        <time>2022-04-05T11:22:12Z</time>
      </trkpt>
      <trkpt lat="44.90177" lon="0.32926">
        <ele>90.7</ele>
        <time>2022-04-05T11:22:13Z</time>
      </trkpt>
      <trkpt lat="44.90177" lon="0.32927">
        <ele>90.7</ele>
        <time>2022-04-05T11:22:14Z</time>
      </trkpt>
      <trkpt lat="44.90176" lon="0.32929">
        <ele>90.8</ele>
        <time>2022-04-05T11:22:16Z</time>
      </trkpt>
      <trkpt lat="44.90175" lon="0.3293">
        <ele>90.8</ele>
        <time>2022-04-05T11:22:17Z</time>
      </trkpt>
      <trkpt lat="44.90174" lon="0.32932">
        <ele>90.9</ele>
        <time>2022-04-05T11:22:18Z</time>
      </trkpt>
      <trkpt lat="44.90174" lon="0.32934">
        <ele>91</ele>
        <time>2022-04-05T11:22:19Z</time>
      </trkpt>
      <trkpt lat="44.90173" lon="0.32935">
        <ele>91</ele>
        <time>2022-04-05T11:22:20Z</time>
      </trkpt>
      <trkpt lat="44.90172" lon="0.32937">
        <ele>91.1</ele>
        <time>2022-04-05T11:22:21Z</time>
      </trkpt>
      <trkpt lat="44.90171" lon="0.32939">
        <ele>91.2</ele>
        <time>2022-04-05T11:22:23Z</time>
      </trkpt>
      <trkpt lat="44.9017" lon="0.32941">
        <ele>91.2</ele>
        <time>2022-04-05T11:22:24Z</time>
      </trkpt>
      <trkpt lat="44.90169" lon="0.32942">
        <ele>91.3</ele>
        <time>2022-04-05T11:22:25Z</time>
      </trkpt>
      <trkpt lat="44.90168" lon="0.32944">
        <ele>91.4</ele>
        <time>2022-04-05T11:22:26Z</time>
      </trkpt>
      <trkpt lat="44.90167" lon="0.32948">
        <ele>91.5</ele>
        <time>2022-04-05T11:22:28Z</time>
      </trkpt>
      <trkpt lat="44.90166" lon="0.32949">
        <ele>91.6</ele>
        <time>2022-04-05T11:22:29Z</time>
      </trkpt>
      <trkpt lat="44.90166" lon="0.32951">
        <ele>91.6</ele>
        <time>2022-04-05T11:22:30Z</time>
      </trkpt>
      <trkpt lat="44.90165" lon="0.32952">
        <ele>91.7</ele>
        <time>2022-04-05T11:22:31Z</time>
      </trkpt>
      <trkpt lat="44.90164" lon="0.32953">
        <ele>91.7</ele>
        <time>2022-04-05T11:22:32Z</time>
      </trkpt>
      <trkpt lat="44.90163" lon="0.32955">
        <ele>91.8</ele>
        <time>2022-04-05T11:22:33Z</time>
      </trkpt>
      <trkpt lat="44.90162" lon="0.32958">
        <ele>91.9</ele>
        <time>2022-04-05T11:22:34Z</time>
      </trkpt>
      <trkpt lat="44.90161" lon="0.32959">
        <ele>91.9</ele>
        <time>2022-04-05T11:22:35Z</time>
      </trkpt>
      <trkpt lat="44.90161" lon="0.3296">
        <ele>92</ele>
        <time>2022-04-05T11:22:36Z</time>
      </trkpt>
      <trkpt lat="44.9016" lon="0.32963">
        <ele>92.1</ele>
        <time>2022-04-05T11:22:38Z</time>
      </trkpt>
      <trkpt lat="44.90159" lon="0.32963">
        <ele>92.1</ele>
        <time>2022-04-05T11:22:39Z</time>
      </trkpt>
      <trkpt lat="44.90158" lon="0.32965">
        <ele>92.2</ele>
        <time>2022-04-05T11:22:40Z</time>
      </trkpt>
      <trkpt lat="44.90158" lon="0.32966">
        <ele>92.2</ele>
        <time>2022-04-05T11:22:41Z</time>
      </trkpt>
      <trkpt lat="44.90157" lon="0.32968">
        <ele>92.3</ele>
        <time>2022-04-05T11:22:42Z</time>
      </trkpt>
      <trkpt lat="44.90156" lon="0.3297">
        <ele>92.3</ele>
        <time>2022-04-05T11:22:43Z</time>
      </trkpt>
      <trkpt lat="44.90156" lon="0.32971">
        <ele>92.4</ele>
        <time>2022-04-05T11:22:44Z</time>
      </trkpt>
      <trkpt lat="44.90154" lon="0.32973">
        <ele>92.5</ele>
        <time>2022-04-05T11:22:45Z</time>
      </trkpt>
      <trkpt lat="44.90153" lon="0.32975">
        <ele>92.6</ele>
        <time>2022-04-05T11:22:47Z</time>
      </trkpt>
      <trkpt lat="44.90152" lon="0.32976">
        <ele>92.6</ele>
        <time>2022-04-05T11:22:48Z</time>
      </trkpt>
      <trkpt lat="44.90152" lon="0.32976">
        <ele>92.6</ele>
        <time>2022-04-05T11:22:49Z</time>
      </trkpt>
      <trkpt lat="44.90151" lon="0.32977">
        <ele>92.7</ele>
        <time>2022-04-05T11:22:50Z</time>
      </trkpt>
      <trkpt lat="44.9015" lon="0.32978">
        <ele>92.7</ele>
        <time>2022-04-05T11:22:51Z</time>
      </trkpt>
      <trkpt lat="44.9015" lon="0.3298">
        <ele>92.8</ele>
        <time>2022-04-05T11:22:52Z</time>
      </trkpt>
      <trkpt lat="44.90149" lon="0.32982">
        <ele>92.9</ele>
        <time>2022-04-05T11:22:53Z</time>
      </trkpt>
      <trkpt lat="44.90148" lon="0.32983">
        <ele>92.9</ele>
        <time>2022-04-05T11:22:54Z</time>
      </trkpt>
      <trkpt lat="44.90148" lon="0.32985">
        <ele>93</ele>
        <time>2022-04-05T11:22:55Z</time>
      </trkpt>
      <trkpt lat="44.90147" lon="0.32987">
        <ele>93</ele>
        <time>2022-04-05T11:22:56Z</time>
      </trkpt>
      <trkpt lat="44.90146" lon="0.32988">
        <ele>93.1</ele>
        <time>2022-04-05T11:22:57Z</time>
      </trkpt>
      <trkpt lat="44.90145" lon="0.32991">
        <ele>93.2</ele>
        <time>2022-04-05T11:22:58Z</time>
      </trkpt>
      <trkpt lat="44.90145" lon="0.32991">
        <ele>93.2</ele>
        <time>2022-04-05T11:22:59Z</time>
      </trkpt>
      <trkpt lat="44.90145" lon="0.32993">
        <ele>93.3</ele>
        <time>2022-04-05T11:23:00Z</time>
      </trkpt>
      <trkpt lat="44.90144" lon="0.32995">
        <ele>93.4</ele>
        <time>2022-04-05T11:23:01Z</time>
      </trkpt>
      <trkpt lat="44.90143" lon="0.32997">
        <ele>93.4</ele>
        <time>2022-04-05T11:23:02Z</time>
      </trkpt>
      <trkpt lat="44.90142" lon="0.32998">
        <ele>93.5</ele>
        <time>2022-04-05T11:23:03Z</time>
      </trkpt>
      <trkpt lat="44.90142" lon="0.33">
        <ele>93.5</ele>
        <time>2022-04-05T11:23:04Z</time>
      </trkpt>
      <trkpt lat="44.90141" lon="0.33001">
        <ele>93.6</ele>
        <time>2022-04-05T11:23:05Z</time>
      </trkpt>
      <trkpt lat="44.90141" lon="0.33003">
        <ele>93.7</ele>
        <time>2022-04-05T11:23:06Z</time>
      </trkpt>
      <trkpt lat="44.90139" lon="0.33006">
        <ele>93.7</ele>
        <time>2022-04-05T11:23:07Z</time>
      </trkpt>
      <trkpt lat="44.90139" lon="0.33006">
        <ele>93.8</ele>
        <time>2022-04-05T11:23:08Z</time>
      </trkpt>
      <trkpt lat="44.90139" lon="0.33009">
        <ele>93.8</ele>
        <time>2022-04-05T11:23:10Z</time>
      </trkpt>
      <trkpt lat="44.90138" lon="0.3301">
        <ele>93.9</ele>
        <time>2022-04-05T11:23:11Z</time>
      </trkpt>
      <trkpt lat="44.90138" lon="0.33011">
        <ele>93.9</ele>
        <time>2022-04-05T11:23:12Z</time>
      </trkpt>
      <trkpt lat="44.90137" lon="0.33014">
        <ele>94</ele>
        <time>2022-04-05T11:23:13Z</time>
      </trkpt>
      <trkpt lat="44.90137" lon="0.33015">
        <ele>94</ele>
        <time>2022-04-05T11:23:14Z</time>
      </trkpt>
      <trkpt lat="44.90136" lon="0.33016">
        <ele>94.1</ele>
        <time>2022-04-05T11:23:15Z</time>
      </trkpt>
      <trkpt lat="44.90135" lon="0.3302">
        <ele>94.2</ele>
        <time>2022-04-05T11:23:16Z</time>
      </trkpt>
      <trkpt lat="44.90134" lon="0.33021">
        <ele>94.2</ele>
        <time>2022-04-05T11:23:17Z</time>
      </trkpt>
      <trkpt lat="44.90134" lon="0.33022">
        <ele>94.2</ele>
        <time>2022-04-05T11:23:18Z</time>
      </trkpt>
      <trkpt lat="44.90133" lon="0.33024">
        <ele>94.3</ele>
        <time>2022-04-05T11:23:20Z</time>
      </trkpt>
      <trkpt lat="44.90132" lon="0.33025">
        <ele>94.3</ele>
        <time>2022-04-05T11:23:21Z</time>
      </trkpt>
      <trkpt lat="44.90132" lon="0.33026">
        <ele>94.4</ele>
        <time>2022-04-05T11:23:22Z</time>
      </trkpt>
      <trkpt lat="44.90131" lon="0.33029">
        <ele>94.4</ele>
        <time>2022-04-05T11:23:23Z</time>
      </trkpt>
      <trkpt lat="44.90131" lon="0.3303">
        <ele>94.5</ele>
        <time>2022-04-05T11:23:24Z</time>
      </trkpt>
      <trkpt lat="44.9013" lon="0.33031">
        <ele>94.5</ele>
        <time>2022-04-05T11:23:25Z</time>
      </trkpt>
      <trkpt lat="44.90129" lon="0.33033">
        <ele>94.6</ele>
        <time>2022-04-05T11:23:26Z</time>
      </trkpt>
      <trkpt lat="44.90129" lon="0.33035">
        <ele>94.6</ele>
        <time>2022-04-05T11:23:27Z</time>
      </trkpt>
      <trkpt lat="44.90128" lon="0.33037">
        <ele>94.7</ele>
        <time>2022-04-05T11:23:28Z</time>
      </trkpt>
      <trkpt lat="44.90127" lon="0.3304">
        <ele>94.8</ele>
        <time>2022-04-05T11:23:29Z</time>
      </trkpt>
      <trkpt lat="44.90127" lon="0.33041">
        <ele>94.8</ele>
        <time>2022-04-05T11:23:31Z</time>
      </trkpt>
      <trkpt lat="44.90127" lon="0.33042">
        <ele>94.8</ele>
        <time>2022-04-05T11:23:32Z</time>
      </trkpt>
      <trkpt lat="44.90125" lon="0.33045">
        <ele>94.9</ele>
        <time>2022-04-05T11:23:33Z</time>
      </trkpt>
      <trkpt lat="44.90125" lon="0.33046">
        <ele>94.9</ele>
        <time>2022-04-05T11:23:34Z</time>
      </trkpt>
      <trkpt lat="44.90125" lon="0.33046">
        <ele>95</ele>
        <time>2022-04-05T11:23:35Z</time>
      </trkpt>
      <trkpt lat="44.90124" lon="0.33049">
        <ele>95.1</ele>
        <time>2022-04-05T11:23:36Z</time>
      </trkpt>
      <trkpt lat="44.90123" lon="0.3305">
        <ele>95.1</ele>
        <time>2022-04-05T11:23:37Z</time>
      </trkpt>
      <trkpt lat="44.90123" lon="0.33052">
        <ele>95.1</ele>
        <time>2022-04-05T11:23:38Z</time>
      </trkpt>
      <trkpt lat="44.90123" lon="0.33053">
        <ele>95.2</ele>
        <time>2022-04-05T11:23:39Z</time>
      </trkpt>
      <trkpt lat="44.90122" lon="0.33055">
        <ele>95.2</ele>
        <time>2022-04-05T11:23:41Z</time>
      </trkpt>
      <trkpt lat="44.90121" lon="0.33056">
        <ele>95.3</ele>
        <time>2022-04-05T11:23:42Z</time>
      </trkpt>
      <trkpt lat="44.9012" lon="0.33058">
        <ele>95.4</ele>
        <time>2022-04-05T11:23:43Z</time>
      </trkpt>
      <trkpt lat="44.9012" lon="0.33059">
        <ele>95.4</ele>
        <time>2022-04-05T11:23:44Z</time>
      </trkpt>
      <trkpt lat="44.90119" lon="0.33062">
        <ele>95.5</ele>
        <time>2022-04-05T11:23:45Z</time>
      </trkpt>
      <trkpt lat="44.90119" lon="0.33063">
        <ele>95.6</ele>
        <time>2022-04-05T11:23:46Z</time>
      </trkpt>
      <trkpt lat="44.90118" lon="0.33064">
        <ele>95.6</ele>
        <time>2022-04-05T11:23:47Z</time>
      </trkpt>
      <trkpt lat="44.90117" lon="0.33068">
        <ele>95.8</ele>
        <time>2022-04-05T11:23:48Z</time>
      </trkpt>
      <trkpt lat="44.90116" lon="0.33069">
        <ele>95.8</ele>
        <time>2022-04-05T11:23:50Z</time>
      </trkpt>
      <trkpt lat="44.90115" lon="0.33071">
        <ele>95.9</ele>
        <time>2022-04-05T11:23:51Z</time>
      </trkpt>
      <trkpt lat="44.90115" lon="0.33072">
        <ele>95.9</ele>
        <time>2022-04-05T11:23:52Z</time>
      </trkpt>
      <trkpt lat="44.90114" lon="0.33073">
        <ele>96</ele>
        <time>2022-04-05T11:23:53Z</time>
      </trkpt>
      <trkpt lat="44.90114" lon="0.33075">
        <ele>96.1</ele>
        <time>2022-04-05T11:23:54Z</time>
      </trkpt>
      <trkpt lat="44.90113" lon="0.33076">
        <ele>96.1</ele>
        <time>2022-04-05T11:23:55Z</time>
      </trkpt>
      <trkpt lat="44.90113" lon="0.33077">
        <ele>96.2</ele>
        <time>2022-04-05T11:23:56Z</time>
      </trkpt>
      <trkpt lat="44.90112" lon="0.33078">
        <ele>96.2</ele>
        <time>2022-04-05T11:23:57Z</time>
      </trkpt>
      <trkpt lat="44.90111" lon="0.33081">
        <ele>96.3</ele>
        <time>2022-04-05T11:23:58Z</time>
      </trkpt>
      <trkpt lat="44.90111" lon="0.33082">
        <ele>96.4</ele>
        <time>2022-04-05T11:24:00Z</time>
      </trkpt>
      <trkpt lat="44.90111" lon="0.33083">
        <ele>96.4</ele>
        <time>2022-04-05T11:24:01Z</time>
      </trkpt>
      <trkpt lat="44.9011" lon="0.33085">
        <ele>96.5</ele>
        <time>2022-04-05T11:24:02Z</time>
      </trkpt>
      <trkpt lat="44.9011" lon="0.33087">
        <ele>96.6</ele>
        <time>2022-04-05T11:24:03Z</time>
      </trkpt>
      <trkpt lat="44.90109" lon="0.33088">
        <ele>96.6</ele>
        <time>2022-04-05T11:24:04Z</time>
      </trkpt>
      <trkpt lat="44.90109" lon="0.3309">
        <ele>96.7</ele>
        <time>2022-04-05T11:24:05Z</time>
      </trkpt>
      <trkpt lat="44.90108" lon="0.33092">
        <ele>96.8</ele>
        <time>2022-04-05T11:24:07Z</time>
      </trkpt>
      <trkpt lat="44.90108" lon="0.33094">
        <ele>96.9</ele>
        <time>2022-04-05T11:24:08Z</time>
      </trkpt>
      <trkpt lat="44.90107" lon="0.33095">
        <ele>96.9</ele>
        <time>2022-04-05T11:24:09Z</time>
      </trkpt>
      <trkpt lat="44.90107" lon="0.33096">
        <ele>97</ele>
        <time>2022-04-05T11:24:10Z</time>
      </trkpt>
      <trkpt lat="44.90107" lon="0.33099">
        <ele>97.1</ele>
        <time>2022-04-05T11:24:11Z</time>
      </trkpt>
      <trkpt lat="44.90106" lon="0.33101">
        <ele>97.2</ele>
        <time>2022-04-05T11:24:12Z</time>
      </trkpt>
      <trkpt lat="44.90106" lon="0.33102">
        <ele>97.2</ele>
        <time>2022-04-05T11:24:13Z</time>
      </trkpt>
      <trkpt lat="44.90105" lon="0.33104">
        <ele>97.3</ele>
        <time>2022-04-05T11:24:15Z</time>
      </trkpt>
      <trkpt lat="44.90105" lon="0.33105">
        <ele>97.4</ele>
        <time>2022-04-05T11:24:16Z</time>
      </trkpt>
      <trkpt lat="44.90104" lon="0.33106">
        <ele>97.4</ele>
        <time>2022-04-05T11:24:17Z</time>
      </trkpt>
      <trkpt lat="44.90103" lon="0.33109">
        <ele>97.6</ele>
        <time>2022-04-05T11:24:18Z</time>
      </trkpt>
      <trkpt lat="44.90103" lon="0.3311">
        <ele>97.6</ele>
        <time>2022-04-05T11:24:19Z</time>
      </trkpt>
      <trkpt lat="44.90103" lon="0.33111">
        <ele>97.7</ele>
        <time>2022-04-05T11:24:20Z</time>
      </trkpt>
      <trkpt lat="44.90102" lon="0.33112">
        <ele>97.7</ele>
        <time>2022-04-05T11:24:21Z</time>
      </trkpt>
      <trkpt lat="44.90101" lon="0.33115">
        <ele>97.9</ele>
        <time>2022-04-05T11:24:23Z</time>
      </trkpt>
      <trkpt lat="44.90101" lon="0.33116">
        <ele>97.9</ele>
        <time>2022-04-05T11:24:24Z</time>
      </trkpt>
      <trkpt lat="44.901" lon="0.33117">
        <ele>98</ele>
        <time>2022-04-05T11:24:25Z</time>
      </trkpt>
      <trkpt lat="44.901" lon="0.33119">
        <ele>98.1</ele>
        <time>2022-04-05T11:24:26Z</time>
      </trkpt>
      <trkpt lat="44.901" lon="0.3312">
        <ele>98.1</ele>
        <time>2022-04-05T11:24:27Z</time>
      </trkpt>
      <trkpt lat="44.90099" lon="0.33122">
        <ele>98.2</ele>
        <time>2022-04-05T11:24:29Z</time>
      </trkpt>
      <trkpt lat="44.90098" lon="0.33124">
        <ele>98.3</ele>
        <time>2022-04-05T11:24:30Z</time>
      </trkpt>
      <trkpt lat="44.90098" lon="0.33125">
        <ele>98.3</ele>
        <time>2022-04-05T11:24:31Z</time>
      </trkpt>
      <trkpt lat="44.90097" lon="0.33127">
        <ele>98.4</ele>
        <time>2022-04-05T11:24:32Z</time>
      </trkpt>
      <trkpt lat="44.90096" lon="0.3313">
        <ele>98.5</ele>
        <time>2022-04-05T11:24:33Z</time>
      </trkpt>
      <trkpt lat="44.90096" lon="0.3313">
        <ele>98.6</ele>
        <time>2022-04-05T11:24:34Z</time>
      </trkpt>
      <trkpt lat="44.90096" lon="0.33132">
        <ele>98.6</ele>
        <time>2022-04-05T11:24:35Z</time>
      </trkpt>
      <trkpt lat="44.90095" lon="0.33133">
        <ele>98.7</ele>
        <time>2022-04-05T11:24:36Z</time>
      </trkpt>
      <trkpt lat="44.90095" lon="0.33135">
        <ele>98.8</ele>
        <time>2022-04-05T11:24:37Z</time>
      </trkpt>
      <trkpt lat="44.90094" lon="0.33137">
        <ele>98.9</ele>
        <time>2022-04-05T11:24:39Z</time>
      </trkpt>
      <trkpt lat="44.90093" lon="0.33138">
        <ele>98.9</ele>
        <time>2022-04-05T11:24:40Z</time>
      </trkpt>
      <trkpt lat="44.90092" lon="0.33141">
        <ele>99</ele>
        <time>2022-04-05T11:24:41Z</time>
      </trkpt>
      <trkpt lat="44.90092" lon="0.33142">
        <ele>99.1</ele>
        <time>2022-04-05T11:24:42Z</time>
      </trkpt>
      <trkpt lat="44.90091" lon="0.33143">
        <ele>99.1</ele>
        <time>2022-04-05T11:24:43Z</time>
      </trkpt>
      <trkpt lat="44.90091" lon="0.33144">
        <ele>99.1</ele>
        <time>2022-04-05T11:24:44Z</time>
      </trkpt>
      <trkpt lat="44.9009" lon="0.33145">
        <ele>99.2</ele>
        <time>2022-04-05T11:24:45Z</time>
      </trkpt>
      <trkpt lat="44.9009" lon="0.33146">
        <ele>99.3</ele>
        <time>2022-04-05T11:24:46Z</time>
      </trkpt>
      <trkpt lat="44.90089" lon="0.33148">
        <ele>99.3</ele>
        <time>2022-04-05T11:24:47Z</time>
      </trkpt>
      <trkpt lat="44.90088" lon="0.3315">
        <ele>99.4</ele>
        <time>2022-04-05T11:24:48Z</time>
      </trkpt>
      <trkpt lat="44.90087" lon="0.33153">
        <ele>99.5</ele>
        <time>2022-04-05T11:24:49Z</time>
      </trkpt>
      <trkpt lat="44.90087" lon="0.33154">
        <ele>99.6</ele>
        <time>2022-04-05T11:24:50Z</time>
      </trkpt>
      <trkpt lat="44.90087" lon="0.33155">
        <ele>99.6</ele>
        <time>2022-04-05T11:24:51Z</time>
      </trkpt>
      <trkpt lat="44.90086" lon="0.33157">
        <ele>99.7</ele>
        <time>2022-04-05T11:24:52Z</time>
      </trkpt>
      <trkpt lat="44.90086" lon="0.33159">
        <ele>99.8</ele>
        <time>2022-04-05T11:24:54Z</time>
      </trkpt>
      <trkpt lat="44.90085" lon="0.3316">
        <ele>99.8</ele>
        <time>2022-04-05T11:24:55Z</time>
      </trkpt>
      <trkpt lat="44.90085" lon="0.33162">
        <ele>99.9</ele>
        <time>2022-04-05T11:24:56Z</time>
      </trkpt>
      <trkpt lat="44.90085" lon="0.33163">
        <ele>99.9</ele>
        <time>2022-04-05T11:24:57Z</time>
      </trkpt>
      <trkpt lat="44.90083" lon="0.33167">
        <ele>100.1</ele>
        <time>2022-04-05T11:24:58Z</time>
      </trkpt>
      <trkpt lat="44.90083" lon="0.33167">
        <ele>100.1</ele>
        <time>2022-04-05T11:24:59Z</time>
      </trkpt>
      <trkpt lat="44.90083" lon="0.33168">
        <ele>100.1</ele>
        <time>2022-04-05T11:25:00Z</time>
      </trkpt>
      <trkpt lat="44.90082" lon="0.33169">
        <ele>100.2</ele>
        <time>2022-04-05T11:25:01Z</time>
      </trkpt>
      <trkpt lat="44.90081" lon="0.33172">
        <ele>100.3</ele>
        <time>2022-04-05T11:25:03Z</time>
      </trkpt>
      <trkpt lat="44.90081" lon="0.33172">
        <ele>100.3</ele>
        <time>2022-04-05T11:25:04Z</time>
      </trkpt>
      <trkpt lat="44.9008" lon="0.33173">
        <ele>100.4</ele>
        <time>2022-04-05T11:25:05Z</time>
      </trkpt>
      <trkpt lat="44.90079" lon="0.33174">
        <ele>100.4</ele>
        <time>2022-04-05T11:25:06Z</time>
      </trkpt>
      <trkpt lat="44.90078" lon="0.33175">
        <ele>100.5</ele>
        <time>2022-04-05T11:25:07Z</time>
      </trkpt>
      <trkpt lat="44.90077" lon="0.33178">
        <ele>100.5</ele>
        <time>2022-04-05T11:25:08Z</time>
      </trkpt>
      <trkpt lat="44.90077" lon="0.33179">
        <ele>100.6</ele>
        <time>2022-04-05T11:25:10Z</time>
      </trkpt>
      <trkpt lat="44.90076" lon="0.3318">
        <ele>100.6</ele>
        <time>2022-04-05T11:25:11Z</time>
      </trkpt>
      <trkpt lat="44.90076" lon="0.33181">
        <ele>100.6</ele>
        <time>2022-04-05T11:25:12Z</time>
      </trkpt>
      <trkpt lat="44.90074" lon="0.33184">
        <ele>100.7</ele>
        <time>2022-04-05T11:25:13Z</time>
      </trkpt>
      <trkpt lat="44.90074" lon="0.33184">
        <ele>100.8</ele>
        <time>2022-04-05T11:25:14Z</time>
      </trkpt>
      <trkpt lat="44.90074" lon="0.33186">
        <ele>100.8</ele>
        <time>2022-04-05T11:25:16Z</time>
      </trkpt>
      <trkpt lat="44.90073" lon="0.33188">
        <ele>100.8</ele>
        <time>2022-04-05T11:25:17Z</time>
      </trkpt>
      <trkpt lat="44.90072" lon="0.33191">
        <ele>100.9</ele>
        <time>2022-04-05T11:25:18Z</time>
      </trkpt>
      <trkpt lat="44.90072" lon="0.33192">
        <ele>101</ele>
        <time>2022-04-05T11:25:19Z</time>
      </trkpt>
      <trkpt lat="44.90072" lon="0.33194">
        <ele>101</ele>
        <time>2022-04-05T11:25:21Z</time>
      </trkpt>
      <trkpt lat="44.90071" lon="0.33196">
        <ele>101.1</ele>
        <time>2022-04-05T11:25:22Z</time>
      </trkpt>
      <trkpt lat="44.90071" lon="0.33199">
        <ele>101.1</ele>
        <time>2022-04-05T11:25:23Z</time>
      </trkpt>
      <trkpt lat="44.90071" lon="0.33201">
        <ele>101.2</ele>
        <time>2022-04-05T11:25:24Z</time>
      </trkpt>
      <trkpt lat="44.9007" lon="0.33204">
        <ele>101.2</ele>
        <time>2022-04-05T11:25:25Z</time>
      </trkpt>
      <trkpt lat="44.90069" lon="0.33205">
        <ele>101.3</ele>
        <time>2022-04-05T11:25:26Z</time>
      </trkpt>
      <trkpt lat="44.90069" lon="0.33206">
        <ele>101.3</ele>
        <time>2022-04-05T11:25:27Z</time>
      </trkpt>
      <trkpt lat="44.90068" lon="0.33209">
        <ele>101.3</ele>
        <time>2022-04-05T11:25:29Z</time>
      </trkpt>
      <trkpt lat="44.90068" lon="0.3321">
        <ele>101.4</ele>
        <time>2022-04-05T11:25:30Z</time>
      </trkpt>
      <trkpt lat="44.90067" lon="0.33213">
        <ele>101.4</ele>
        <time>2022-04-05T11:25:31Z</time>
      </trkpt>
      <trkpt lat="44.90067" lon="0.33214">
        <ele>101.5</ele>
        <time>2022-04-05T11:25:32Z</time>
      </trkpt>
      <trkpt lat="44.90066" lon="0.33215">
        <ele>101.5</ele>
        <time>2022-04-05T11:25:33Z</time>
      </trkpt>
      <trkpt lat="44.90065" lon="0.33218">
        <ele>101.6</ele>
        <time>2022-04-05T11:25:35Z</time>
      </trkpt>
      <trkpt lat="44.90065" lon="0.33219">
        <ele>101.6</ele>
        <time>2022-04-05T11:25:36Z</time>
      </trkpt>
      <trkpt lat="44.90064" lon="0.3322">
        <ele>101.6</ele>
        <time>2022-04-05T11:25:37Z</time>
      </trkpt>
      <trkpt lat="44.90064" lon="0.33223">
        <ele>101.7</ele>
        <time>2022-04-05T11:25:39Z</time>
      </trkpt>
      <trkpt lat="44.90063" lon="0.33224">
        <ele>101.7</ele>
        <time>2022-04-05T11:25:40Z</time>
      </trkpt>
      <trkpt lat="44.90062" lon="0.33227">
        <ele>101.8</ele>
        <time>2022-04-05T11:25:41Z</time>
      </trkpt>
      <trkpt lat="44.90061" lon="0.33228">
        <ele>101.9</ele>
        <time>2022-04-05T11:25:42Z</time>
      </trkpt>
      <trkpt lat="44.90061" lon="0.3323">
        <ele>101.9</ele>
        <time>2022-04-05T11:25:43Z</time>
      </trkpt>
      <trkpt lat="44.9006" lon="0.33231">
        <ele>102</ele>
        <time>2022-04-05T11:25:44Z</time>
      </trkpt>
      <trkpt lat="44.9006" lon="0.33232">
        <ele>102</ele>
        <time>2022-04-05T11:25:45Z</time>
      </trkpt>
      <trkpt lat="44.90059" lon="0.33234">
        <ele>102</ele>
        <time>2022-04-05T11:25:46Z</time>
      </trkpt>
      <trkpt lat="44.90059" lon="0.33235">
        <ele>102.1</ele>
        <time>2022-04-05T11:25:47Z</time>
      </trkpt>
      <trkpt lat="44.90058" lon="0.33238">
        <ele>102.2</ele>
        <time>2022-04-05T11:25:48Z</time>
      </trkpt>
      <trkpt lat="44.90057" lon="0.33239">
        <ele>102.2</ele>
        <time>2022-04-05T11:25:49Z</time>
      </trkpt>
      <trkpt lat="44.90056" lon="0.3324">
        <ele>102.3</ele>
        <time>2022-04-05T11:25:50Z</time>
      </trkpt>
      <trkpt lat="44.90056" lon="0.33242">
        <ele>102.3</ele>
        <time>2022-04-05T11:25:51Z</time>
      </trkpt>
      <trkpt lat="44.90055" lon="0.33243">
        <ele>102.4</ele>
        <time>2022-04-05T11:25:53Z</time>
      </trkpt>
      <trkpt lat="44.90054" lon="0.33246">
        <ele>102.4</ele>
        <time>2022-04-05T11:25:54Z</time>
      </trkpt>
      <trkpt lat="44.90054" lon="0.33247">
        <ele>102.5</ele>
        <time>2022-04-05T11:25:55Z</time>
      </trkpt>
      <trkpt lat="44.90053" lon="0.33248">
        <ele>102.5</ele>
        <time>2022-04-05T11:25:56Z</time>
      </trkpt>
      <trkpt lat="44.90052" lon="0.3325">
        <ele>102.6</ele>
        <time>2022-04-05T11:25:57Z</time>
      </trkpt>
      <trkpt lat="44.90052" lon="0.33252">
        <ele>102.6</ele>
        <time>2022-04-05T11:25:58Z</time>
      </trkpt>
      <trkpt lat="44.90052" lon="0.33253">
        <ele>102.6</ele>
        <time>2022-04-05T11:25:59Z</time>
      </trkpt>
      <trkpt lat="44.90052" lon="0.33254">
        <ele>102.7</ele>
        <time>2022-04-05T11:26:00Z</time>
      </trkpt>
      <trkpt lat="44.90051" lon="0.33258">
        <ele>102.8</ele>
        <time>2022-04-05T11:26:01Z</time>
      </trkpt>
      <trkpt lat="44.9005" lon="0.33259">
        <ele>102.8</ele>
        <time>2022-04-05T11:26:02Z</time>
      </trkpt>
      <trkpt lat="44.9005" lon="0.33261">
        <ele>102.9</ele>
        <time>2022-04-05T11:26:03Z</time>
      </trkpt>
      <trkpt lat="44.90049" lon="0.33261">
        <ele>102.9</ele>
        <time>2022-04-05T11:26:04Z</time>
      </trkpt>
      <trkpt lat="44.90049" lon="0.33263">
        <ele>102.9</ele>
        <time>2022-04-05T11:26:05Z</time>
      </trkpt>
      <trkpt lat="44.90048" lon="0.33264">
        <ele>103</ele>
        <time>2022-04-05T11:26:06Z</time>
      </trkpt>
      <trkpt lat="44.90047" lon="0.33266">
        <ele>103</ele>
        <time>2022-04-05T11:26:07Z</time>
      </trkpt>
      <trkpt lat="44.90047" lon="0.33268">
        <ele>103.1</ele>
        <time>2022-04-05T11:26:09Z</time>
      </trkpt>
      <trkpt lat="44.90046" lon="0.33269">
        <ele>103.1</ele>
        <time>2022-04-05T11:26:10Z</time>
      </trkpt>
      <trkpt lat="44.90046" lon="0.33271">
        <ele>103.2</ele>
        <time>2022-04-05T11:26:11Z</time>
      </trkpt>
      <trkpt lat="44.90045" lon="0.33272">
        <ele>103.2</ele>
        <time>2022-04-05T11:26:12Z</time>
      </trkpt>
      <trkpt lat="44.90044" lon="0.33276">
        <ele>103.3</ele>
        <time>2022-04-05T11:26:13Z</time>
      </trkpt>
      <trkpt lat="44.90043" lon="0.33277">
        <ele>103.4</ele>
        <time>2022-04-05T11:26:14Z</time>
      </trkpt>
      <trkpt lat="44.90043" lon="0.33278">
        <ele>103.4</ele>
        <time>2022-04-05T11:26:15Z</time>
      </trkpt>
      <trkpt lat="44.90042" lon="0.3328">
        <ele>103.5</ele>
        <time>2022-04-05T11:26:16Z</time>
      </trkpt>
      <trkpt lat="44.90042" lon="0.33281">
        <ele>103.5</ele>
        <time>2022-04-05T11:26:18Z</time>
      </trkpt>
      <trkpt lat="44.90041" lon="0.33283">
        <ele>103.6</ele>
        <time>2022-04-05T11:26:19Z</time>
      </trkpt>
      <trkpt lat="44.9004" lon="0.33284">
        <ele>103.6</ele>
        <time>2022-04-05T11:26:20Z</time>
      </trkpt>
      <trkpt lat="44.9004" lon="0.33286">
        <ele>103.7</ele>
        <time>2022-04-05T11:26:21Z</time>
      </trkpt>
      <trkpt lat="44.90038" lon="0.33288">
        <ele>103.8</ele>
        <time>2022-04-05T11:26:22Z</time>
      </trkpt>
      <trkpt lat="44.90038" lon="0.33289">
        <ele>103.8</ele>
        <time>2022-04-05T11:26:23Z</time>
      </trkpt>
      <trkpt lat="44.90037" lon="0.33289">
        <ele>103.8</ele>
        <time>2022-04-05T11:26:24Z</time>
      </trkpt>
      <trkpt lat="44.90036" lon="0.33288">
        <ele>103.9</ele>
        <time>2022-04-05T11:26:25Z</time>
      </trkpt>
      <trkpt lat="44.90036" lon="0.33287">
        <ele>103.9</ele>
        <time>2022-04-05T11:26:26Z</time>
      </trkpt>
      <trkpt lat="44.90036" lon="0.33287">
        <ele>103.9</ele>
        <time>2022-04-05T11:26:27Z</time>
      </trkpt>
      <trkpt lat="44.90036" lon="0.33286">
        <ele>103.9</ele>
        <time>2022-04-05T11:26:28Z</time>
      </trkpt>
      <trkpt lat="44.90036" lon="0.33285">
        <ele>104</ele>
        <time>2022-04-05T11:26:29Z</time>
      </trkpt>
      <trkpt lat="44.90036" lon="0.33285">
        <ele>104</ele>
        <time>2022-04-05T11:26:30Z</time>
      </trkpt>
      <trkpt lat="44.90036" lon="0.33286">
        <ele>104</ele>
        <time>2022-04-05T11:26:31Z</time>
      </trkpt>
      <trkpt lat="44.90035" lon="0.33288">
        <ele>104</ele>
        <time>2022-04-05T11:26:32Z</time>
      </trkpt>
      <trkpt lat="44.90034" lon="0.33292">
        <ele>104.1</ele>
        <time>2022-04-05T11:26:34Z</time>
      </trkpt>
      <trkpt lat="44.90034" lon="0.33294">
        <ele>104.1</ele>
        <time>2022-04-05T11:26:35Z</time>
      </trkpt>
      <trkpt lat="44.90033" lon="0.33296">
        <ele>104.2</ele>
        <time>2022-04-05T11:26:36Z</time>
      </trkpt>
      <trkpt lat="44.90033" lon="0.33298">
        <ele>104.2</ele>
        <time>2022-04-05T11:26:37Z</time>
      </trkpt>
      <trkpt lat="44.90032" lon="0.333">
        <ele>104.2</ele>
        <time>2022-04-05T11:26:38Z</time>
      </trkpt>
      <trkpt lat="44.90031" lon="0.33303">
        <ele>104.3</ele>
        <time>2022-04-05T11:26:39Z</time>
      </trkpt>
      <trkpt lat="44.9003" lon="0.33304">
        <ele>104.3</ele>
        <time>2022-04-05T11:26:40Z</time>
      </trkpt>
      <trkpt lat="44.90029" lon="0.33306">
        <ele>104.3</ele>
        <time>2022-04-05T11:26:41Z</time>
      </trkpt>
      <trkpt lat="44.90029" lon="0.33307">
        <ele>104.3</ele>
        <time>2022-04-05T11:26:42Z</time>
      </trkpt>
      <trkpt lat="44.90027" lon="0.33311">
        <ele>104.2</ele>
        <time>2022-04-05T11:26:43Z</time>
      </trkpt>
      <trkpt lat="44.90027" lon="0.33313">
        <ele>104.2</ele>
        <time>2022-04-05T11:26:44Z</time>
      </trkpt>
      <trkpt lat="44.90027" lon="0.33315">
        <ele>104.2</ele>
        <time>2022-04-05T11:26:45Z</time>
      </trkpt>
      <trkpt lat="44.90026" lon="0.33317">
        <ele>104.2</ele>
        <time>2022-04-05T11:26:46Z</time>
      </trkpt>
      <trkpt lat="44.90025" lon="0.3332">
        <ele>104.1</ele>
        <time>2022-04-05T11:26:47Z</time>
      </trkpt>
      <trkpt lat="44.90025" lon="0.33322">
        <ele>104</ele>
        <time>2022-04-05T11:26:49Z</time>
      </trkpt>
      <trkpt lat="44.90025" lon="0.33323">
        <ele>104</ele>
        <time>2022-04-05T11:26:50Z</time>
      </trkpt>
      <trkpt lat="44.90024" lon="0.33325">
        <ele>103.9</ele>
        <time>2022-04-05T11:26:51Z</time>
      </trkpt>
      <trkpt lat="44.90024" lon="0.33326">
        <ele>103.9</ele>
        <time>2022-04-05T11:26:52Z</time>
      </trkpt>
      <trkpt lat="44.90023" lon="0.33328">
        <ele>103.8</ele>
        <time>2022-04-05T11:26:53Z</time>
      </trkpt>
      <trkpt lat="44.90023" lon="0.3333">
        <ele>103.7</ele>
        <time>2022-04-05T11:26:54Z</time>
      </trkpt>
      <trkpt lat="44.90022" lon="0.33333">
        <ele>103.6</ele>
        <time>2022-04-05T11:26:55Z</time>
      </trkpt>
      <trkpt lat="44.90022" lon="0.33334">
        <ele>103.5</ele>
        <time>2022-04-05T11:26:56Z</time>
      </trkpt>
      <trkpt lat="44.90021" lon="0.33335">
        <ele>103.4</ele>
        <time>2022-04-05T11:26:57Z</time>
      </trkpt>
      <trkpt lat="44.9002" lon="0.33339">
        <ele>103.2</ele>
        <time>2022-04-05T11:26:59Z</time>
      </trkpt>
      <trkpt lat="44.9002" lon="0.3334">
        <ele>103.1</ele>
        <time>2022-04-05T11:27:00Z</time>
      </trkpt>
      <trkpt lat="44.90019" lon="0.33343">
        <ele>102.9</ele>
        <time>2022-04-05T11:27:01Z</time>
      </trkpt>
      <trkpt lat="44.90018" lon="0.33345">
        <ele>102.8</ele>
        <time>2022-04-05T11:27:02Z</time>
      </trkpt>
      <trkpt lat="44.90018" lon="0.33346">
        <ele>102.7</ele>
        <time>2022-04-05T11:27:03Z</time>
      </trkpt>
      <trkpt lat="44.90017" lon="0.33347">
        <ele>102.6</ele>
        <time>2022-04-05T11:27:05Z</time>
      </trkpt>
      <trkpt lat="44.90016" lon="0.33349">
        <ele>102.5</ele>
        <time>2022-04-05T11:27:06Z</time>
      </trkpt>
      <trkpt lat="44.90016" lon="0.3335">
        <ele>102.3</ele>
        <time>2022-04-05T11:27:07Z</time>
      </trkpt>
      <trkpt lat="44.90015" lon="0.33352">
        <ele>102.2</ele>
        <time>2022-04-05T11:27:08Z</time>
      </trkpt>
      <trkpt lat="44.90014" lon="0.33355">
        <ele>102</ele>
        <time>2022-04-05T11:27:09Z</time>
      </trkpt>
      <trkpt lat="44.90014" lon="0.33355">
        <ele>102</ele>
        <time>2022-04-05T11:27:10Z</time>
      </trkpt>
      <trkpt lat="44.90014" lon="0.33356">
        <ele>101.8</ele>
        <time>2022-04-05T11:27:11Z</time>
      </trkpt>
      <trkpt lat="44.90013" lon="0.33358">
        <ele>101.7</ele>
        <time>2022-04-05T11:27:12Z</time>
      </trkpt>
      <trkpt lat="44.90013" lon="0.33359">
        <ele>101.5</ele>
        <time>2022-04-05T11:27:13Z</time>
      </trkpt>
      <trkpt lat="44.90012" lon="0.33362">
        <ele>101.2</ele>
        <time>2022-04-05T11:27:14Z</time>
      </trkpt>
      <trkpt lat="44.90011" lon="0.33363">
        <ele>101.2</ele>
        <time>2022-04-05T11:27:15Z</time>
      </trkpt>
      <trkpt lat="44.90011" lon="0.33364">
        <ele>101.1</ele>
        <time>2022-04-05T11:27:16Z</time>
      </trkpt>
      <trkpt lat="44.9001" lon="0.33367">
        <ele>100.8</ele>
        <time>2022-04-05T11:27:17Z</time>
      </trkpt>
      <trkpt lat="44.9001" lon="0.33368">
        <ele>100.7</ele>
        <time>2022-04-05T11:27:18Z</time>
      </trkpt>
      <trkpt lat="44.9001" lon="0.33369">
        <ele>100.6</ele>
        <time>2022-04-05T11:27:19Z</time>
      </trkpt>
      <trkpt lat="44.90009" lon="0.3337">
        <ele>100.5</ele>
        <time>2022-04-05T11:27:20Z</time>
      </trkpt>
      <trkpt lat="44.90009" lon="0.33372">
        <ele>100.4</ele>
        <time>2022-04-05T11:27:21Z</time>
      </trkpt>
      <trkpt lat="44.90008" lon="0.33373">
        <ele>100.2</ele>
        <time>2022-04-05T11:27:22Z</time>
      </trkpt>
      <trkpt lat="44.90007" lon="0.33374">
        <ele>100.1</ele>
        <time>2022-04-05T11:27:23Z</time>
      </trkpt>
      <trkpt lat="44.90006" lon="0.33376">
        <ele>99.9</ele>
        <time>2022-04-05T11:27:24Z</time>
      </trkpt>
      <trkpt lat="44.90006" lon="0.33377">
        <ele>99.9</ele>
        <time>2022-04-05T11:27:25Z</time>
      </trkpt>
      <trkpt lat="44.90004" lon="0.33378">
        <ele>99.7</ele>
        <time>2022-04-05T11:27:27Z</time>
      </trkpt>
      <trkpt lat="44.90004" lon="0.33379">
        <ele>99.6</ele>
        <time>2022-04-05T11:27:28Z</time>
      </trkpt>
      <trkpt lat="44.90003" lon="0.33381">
        <ele>99.4</ele>
        <time>2022-04-05T11:27:29Z</time>
      </trkpt>
      <trkpt lat="44.90002" lon="0.33382">
        <ele>99.3</ele>
        <time>2022-04-05T11:27:30Z</time>
      </trkpt>
      <trkpt lat="44.90002" lon="0.33383">
        <ele>99.3</ele>
        <time>2022-04-05T11:27:31Z</time>
      </trkpt>
      <trkpt lat="44.90002" lon="0.33384">
        <ele>99.2</ele>
        <time>2022-04-05T11:27:32Z</time>
      </trkpt>
      <trkpt lat="44.90001" lon="0.33384">
        <ele>99.1</ele>
        <time>2022-04-05T11:27:33Z</time>
      </trkpt>
      <trkpt lat="44.9" lon="0.33384">
        <ele>99</ele>
        <time>2022-04-05T11:27:34Z</time>
      </trkpt>
      <trkpt lat="44.9" lon="0.33382">
        <ele>98.9</ele>
        <time>2022-04-05T11:27:35Z</time>
      </trkpt>
      <trkpt lat="44.9" lon="0.33383">
        <ele>98.8</ele>
        <time>2022-04-05T11:27:36Z</time>
      </trkpt>
      <trkpt lat="44.89999" lon="0.33383">
        <ele>98.7</ele>
        <time>2022-04-05T11:27:37Z</time>
      </trkpt>
      <trkpt lat="44.89998" lon="0.33385">
        <ele>98.6</ele>
        <time>2022-04-05T11:27:39Z</time>
      </trkpt>
      <trkpt lat="44.89998" lon="0.33387">
        <ele>98.5</ele>
        <time>2022-04-05T11:27:40Z</time>
      </trkpt>
      <trkpt lat="44.89999" lon="0.33388">
        <ele>98.4</ele>
        <time>2022-04-05T11:27:41Z</time>
      </trkpt>
      <trkpt lat="44.9" lon="0.33389">
        <ele>98.3</ele>
        <time>2022-04-05T11:27:42Z</time>
      </trkpt>
      <trkpt lat="44.90001" lon="0.33389">
        <ele>98.1</ele>
        <time>2022-04-05T11:27:43Z</time>
      </trkpt>
      <trkpt lat="44.90004" lon="0.33387">
        <ele>97.8</ele>
        <time>2022-04-05T11:27:44Z</time>
      </trkpt>
      <trkpt lat="44.90004" lon="0.33387">
        <ele>97.8</ele>
        <time>2022-04-05T11:27:45Z</time>
      </trkpt>
      <trkpt lat="44.90005" lon="0.33384">
        <ele>97.6</ele>
        <time>2022-04-05T11:27:46Z</time>
      </trkpt>
      <trkpt lat="44.90005" lon="0.33382">
        <ele>97.5</ele>
        <time>2022-04-05T11:27:47Z</time>
      </trkpt>
      <trkpt lat="44.90006" lon="0.33377">
        <ele>97.1</ele>
        <time>2022-04-05T11:27:48Z</time>
      </trkpt>
      <trkpt lat="44.90006" lon="0.33376">
        <ele>97</ele>
        <time>2022-04-05T11:27:49Z</time>
      </trkpt>
      <trkpt lat="44.90006" lon="0.33374">
        <ele>97</ele>
        <time>2022-04-05T11:27:51Z</time>
      </trkpt>
      <trkpt lat="44.90006" lon="0.33371">
        <ele>97.1</ele>
        <time>2022-04-05T11:27:52Z</time>
      </trkpt>
      <trkpt lat="44.90007" lon="0.33369">
        <ele>97.1</ele>
        <time>2022-04-05T11:27:53Z</time>
      </trkpt>
      <trkpt lat="44.90007" lon="0.33367">
        <ele>97.2</ele>
        <time>2022-04-05T11:27:54Z</time>
      </trkpt>
      <trkpt lat="44.90007" lon="0.33365">
        <ele>97.2</ele>
        <time>2022-04-05T11:27:55Z</time>
      </trkpt>
      <trkpt lat="44.90007" lon="0.33363">
        <ele>97.2</ele>
        <time>2022-04-05T11:27:56Z</time>
      </trkpt>
      <trkpt lat="44.90007" lon="0.33362">
        <ele>97.3</ele>
        <time>2022-04-05T11:27:57Z</time>
      </trkpt>
      <trkpt lat="44.90007" lon="0.33358">
        <ele>97.3</ele>
        <time>2022-04-05T11:27:59Z</time>
      </trkpt>
      <trkpt lat="44.90007" lon="0.33357">
        <ele>97.4</ele>
        <time>2022-04-05T11:28:00Z</time>
      </trkpt>
      <trkpt lat="44.90006" lon="0.33354">
        <ele>97.4</ele>
        <time>2022-04-05T11:28:01Z</time>
      </trkpt>
      <trkpt lat="44.90006" lon="0.33352">
        <ele>97.5</ele>
        <time>2022-04-05T11:28:03Z</time>
      </trkpt>
      <trkpt lat="44.90006" lon="0.33351">
        <ele>97.5</ele>
        <time>2022-04-05T11:28:04Z</time>
      </trkpt>
      <trkpt lat="44.90006" lon="0.33349">
        <ele>97.5</ele>
        <time>2022-04-05T11:28:05Z</time>
      </trkpt>
      <trkpt lat="44.90006" lon="0.33348">
        <ele>97.5</ele>
        <time>2022-04-05T11:28:06Z</time>
      </trkpt>
      <trkpt lat="44.90006" lon="0.33345">
        <ele>97.6</ele>
        <time>2022-04-05T11:28:07Z</time>
      </trkpt>
      <trkpt lat="44.90006" lon="0.33343">
        <ele>97.6</ele>
        <time>2022-04-05T11:28:08Z</time>
      </trkpt>
      <trkpt lat="44.90006" lon="0.33341">
        <ele>97.6</ele>
        <time>2022-04-05T11:28:09Z</time>
      </trkpt>
      <trkpt lat="44.90006" lon="0.33341">
        <ele>97.6</ele>
        <time>2022-04-05T11:28:10Z</time>
      </trkpt>
      <trkpt lat="44.90005" lon="0.33339">
        <ele>97.6</ele>
        <time>2022-04-05T11:28:11Z</time>
      </trkpt>
      <trkpt lat="44.90005" lon="0.33337">
        <ele>97.7</ele>
        <time>2022-04-05T11:28:12Z</time>
      </trkpt>
      <trkpt lat="44.90005" lon="0.33335">
        <ele>97.7</ele>
        <time>2022-04-05T11:28:13Z</time>
      </trkpt>
      <trkpt lat="44.90005" lon="0.33333">
        <ele>97.7</ele>
        <time>2022-04-05T11:28:14Z</time>
      </trkpt>
      <trkpt lat="44.90005" lon="0.33331">
        <ele>97.7</ele>
        <time>2022-04-05T11:28:15Z</time>
      </trkpt>
      <trkpt lat="44.90005" lon="0.33329">
        <ele>97.7</ele>
        <time>2022-04-05T11:28:16Z</time>
      </trkpt>
      <trkpt lat="44.90004" lon="0.33328">
        <ele>97.7</ele>
        <time>2022-04-05T11:28:17Z</time>
      </trkpt>
      <trkpt lat="44.90004" lon="0.33325">
        <ele>97.7</ele>
        <time>2022-04-05T11:28:18Z</time>
      </trkpt>
      <trkpt lat="44.90004" lon="0.33323">
        <ele>97.7</ele>
        <time>2022-04-05T11:28:20Z</time>
      </trkpt>
      <trkpt lat="44.90003" lon="0.33322">
        <ele>97.6</ele>
        <time>2022-04-05T11:28:21Z</time>
      </trkpt>
      <trkpt lat="44.90003" lon="0.33321">
        <ele>97.6</ele>
        <time>2022-04-05T11:28:22Z</time>
      </trkpt>
      <trkpt lat="44.90003" lon="0.33319">
        <ele>97.6</ele>
        <time>2022-04-05T11:28:23Z</time>
      </trkpt>
      <trkpt lat="44.90002" lon="0.33316">
        <ele>97.5</ele>
        <time>2022-04-05T11:28:24Z</time>
      </trkpt>
      <trkpt lat="44.90002" lon="0.33315">
        <ele>97.5</ele>
        <time>2022-04-05T11:28:25Z</time>
      </trkpt>
      <trkpt lat="44.90001" lon="0.33313">
        <ele>97.5</ele>
        <time>2022-04-05T11:28:26Z</time>
      </trkpt>
      <trkpt lat="44.9" lon="0.33312">
        <ele>97.4</ele>
        <time>2022-04-05T11:28:27Z</time>
      </trkpt>
      <trkpt lat="44.9" lon="0.33308">
        <ele>97.3</ele>
        <time>2022-04-05T11:28:29Z</time>
      </trkpt>
      <trkpt lat="44.9" lon="0.33306">
        <ele>97.2</ele>
        <time>2022-04-05T11:28:30Z</time>
      </trkpt>
      <trkpt lat="44.89999" lon="0.33304">
        <ele>97.1</ele>
        <time>2022-04-05T11:28:31Z</time>
      </trkpt>
      <trkpt lat="44.89999" lon="0.33303">
        <ele>97.1</ele>
        <time>2022-04-05T11:28:32Z</time>
      </trkpt>
      <trkpt lat="44.89999" lon="0.33301">
        <ele>97</ele>
        <time>2022-04-05T11:28:33Z</time>
      </trkpt>
      <trkpt lat="44.89998" lon="0.33298">
        <ele>96.8</ele>
        <time>2022-04-05T11:28:35Z</time>
      </trkpt>
      <trkpt lat="44.89998" lon="0.33297">
        <ele>96.7</ele>
        <time>2022-04-05T11:28:36Z</time>
      </trkpt>
      <trkpt lat="44.89997" lon="0.33295">
        <ele>96.6</ele>
        <time>2022-04-05T11:28:37Z</time>
      </trkpt>
      <trkpt lat="44.89997" lon="0.33293">
        <ele>96.5</ele>
        <time>2022-04-05T11:28:38Z</time>
      </trkpt>
      <trkpt lat="44.89996" lon="0.3329">
        <ele>96.3</ele>
        <time>2022-04-05T11:28:39Z</time>
      </trkpt>
      <trkpt lat="44.89995" lon="0.33288">
        <ele>96.1</ele>
        <time>2022-04-05T11:28:40Z</time>
      </trkpt>
      <trkpt lat="44.89995" lon="0.33286">
        <ele>96</ele>
        <time>2022-04-05T11:28:42Z</time>
      </trkpt>
      <trkpt lat="44.89995" lon="0.33285">
        <ele>95.9</ele>
        <time>2022-04-05T11:28:43Z</time>
      </trkpt>
      <trkpt lat="44.89994" lon="0.33283">
        <ele>95.7</ele>
        <time>2022-04-05T11:28:44Z</time>
      </trkpt>
      <trkpt lat="44.89994" lon="0.33281">
        <ele>95.5</ele>
        <time>2022-04-05T11:28:45Z</time>
      </trkpt>
      <trkpt lat="44.89994" lon="0.3328">
        <ele>95.5</ele>
        <time>2022-04-05T11:28:46Z</time>
      </trkpt>
      <trkpt lat="44.89993" lon="0.33278">
        <ele>95.3</ele>
        <time>2022-04-05T11:28:47Z</time>
      </trkpt>
      <trkpt lat="44.89993" lon="0.33277">
        <ele>95.2</ele>
        <time>2022-04-05T11:28:48Z</time>
      </trkpt>
      <trkpt lat="44.89992" lon="0.33275">
        <ele>95</ele>
        <time>2022-04-05T11:28:49Z</time>
      </trkpt>
      <trkpt lat="44.89991" lon="0.33273">
        <ele>94.8</ele>
        <time>2022-04-05T11:28:50Z</time>
      </trkpt>
      <trkpt lat="44.8999" lon="0.33272">
        <ele>94.7</ele>
        <time>2022-04-05T11:28:51Z</time>
      </trkpt>
      <trkpt lat="44.8999" lon="0.33271">
        <ele>94.6</ele>
        <time>2022-04-05T11:28:52Z</time>
      </trkpt>
      <trkpt lat="44.89989" lon="0.3327">
        <ele>94.5</ele>
        <time>2022-04-05T11:28:53Z</time>
      </trkpt>
      <trkpt lat="44.89987" lon="0.33268">
        <ele>94.2</ele>
        <time>2022-04-05T11:28:54Z</time>
      </trkpt>
      <trkpt lat="44.89986" lon="0.33267">
        <ele>94.1</ele>
        <time>2022-04-05T11:28:55Z</time>
      </trkpt>
      <trkpt lat="44.89985" lon="0.33266">
        <ele>93.9</ele>
        <time>2022-04-05T11:28:57Z</time>
      </trkpt>
      <trkpt lat="44.89984" lon="0.33265">
        <ele>93.8</ele>
        <time>2022-04-05T11:28:58Z</time>
      </trkpt>
      <trkpt lat="44.89983" lon="0.33263">
        <ele>93.5</ele>
        <time>2022-04-05T11:29:00Z</time>
      </trkpt>
      <trkpt lat="44.89981" lon="0.33261">
        <ele>93.2</ele>
        <time>2022-04-05T11:29:01Z</time>
      </trkpt>
      <trkpt lat="44.8998" lon="0.3326">
        <ele>93.1</ele>
        <time>2022-04-05T11:29:02Z</time>
      </trkpt>
      <trkpt lat="44.8998" lon="0.33259">
        <ele>93</ele>
        <time>2022-04-05T11:29:03Z</time>
      </trkpt>
      <trkpt lat="44.89978" lon="0.33257">
        <ele>92.7</ele>
        <time>2022-04-05T11:29:04Z</time>
      </trkpt>
      <trkpt lat="44.89978" lon="0.33256">
        <ele>92.6</ele>
        <time>2022-04-05T11:29:05Z</time>
      </trkpt>
      <trkpt lat="44.89977" lon="0.33255">
        <ele>92.5</ele>
        <time>2022-04-05T11:29:06Z</time>
      </trkpt>
      <trkpt lat="44.89976" lon="0.33254">
        <ele>92.4</ele>
        <time>2022-04-05T11:29:07Z</time>
      </trkpt>
      <trkpt lat="44.89975" lon="0.33253">
        <ele>92.2</ele>
        <time>2022-04-05T11:29:08Z</time>
      </trkpt>
      <trkpt lat="44.89974" lon="0.33251">
        <ele>91.9</ele>
        <time>2022-04-05T11:29:09Z</time>
      </trkpt>
      <trkpt lat="44.89973" lon="0.3325">
        <ele>91.8</ele>
        <time>2022-04-05T11:29:10Z</time>
      </trkpt>
      <trkpt lat="44.89972" lon="0.33248">
        <ele>91.6</ele>
        <time>2022-04-05T11:29:12Z</time>
      </trkpt>
      <trkpt lat="44.89971" lon="0.33247">
        <ele>91.5</ele>
        <time>2022-04-05T11:29:13Z</time>
      </trkpt>
      <trkpt lat="44.89969" lon="0.33244">
        <ele>91.2</ele>
        <time>2022-04-05T11:29:14Z</time>
      </trkpt>
      <trkpt lat="44.89968" lon="0.33243">
        <ele>91.1</ele>
        <time>2022-04-05T11:29:15Z</time>
      </trkpt>
      <trkpt lat="44.89967" lon="0.33242">
        <ele>90.9</ele>
        <time>2022-04-05T11:29:17Z</time>
      </trkpt>
      <trkpt lat="44.89966" lon="0.33241">
        <ele>90.7</ele>
        <time>2022-04-05T11:29:18Z</time>
      </trkpt>
      <trkpt lat="44.89964" lon="0.33239">
        <ele>90.4</ele>
        <time>2022-04-05T11:29:20Z</time>
      </trkpt>
      <trkpt lat="44.89963" lon="0.33238">
        <ele>90.3</ele>
        <time>2022-04-05T11:29:21Z</time>
      </trkpt>
      <trkpt lat="44.89962" lon="0.33236">
        <ele>90.1</ele>
        <time>2022-04-05T11:29:22Z</time>
      </trkpt>
      <trkpt lat="44.89961" lon="0.33235">
        <ele>90</ele>
        <time>2022-04-05T11:29:23Z</time>
      </trkpt>
      <trkpt lat="44.8996" lon="0.33235">
        <ele>89.9</ele>
        <time>2022-04-05T11:29:24Z</time>
      </trkpt>
      <trkpt lat="44.89959" lon="0.33233">
        <ele>89.7</ele>
        <time>2022-04-05T11:29:25Z</time>
      </trkpt>
      <trkpt lat="44.89958" lon="0.33232">
        <ele>89.6</ele>
        <time>2022-04-05T11:29:26Z</time>
      </trkpt>
      <trkpt lat="44.89957" lon="0.33232">
        <ele>89.5</ele>
        <time>2022-04-05T11:29:27Z</time>
      </trkpt>
      <trkpt lat="44.89956" lon="0.33231">
        <ele>89.4</ele>
        <time>2022-04-05T11:29:28Z</time>
      </trkpt>
      <trkpt lat="44.89954" lon="0.33229">
        <ele>89.1</ele>
        <time>2022-04-05T11:29:30Z</time>
      </trkpt>
      <trkpt lat="44.89953" lon="0.33228">
        <ele>89</ele>
        <time>2022-04-05T11:29:31Z</time>
      </trkpt>
      <trkpt lat="44.89952" lon="0.33228">
        <ele>88.9</ele>
        <time>2022-04-05T11:29:32Z</time>
      </trkpt>
      <trkpt lat="44.89951" lon="0.33227">
        <ele>88.8</ele>
        <time>2022-04-05T11:29:33Z</time>
      </trkpt>
      <trkpt lat="44.8995" lon="0.33226">
        <ele>88.6</ele>
        <time>2022-04-05T11:29:34Z</time>
      </trkpt>
      <trkpt lat="44.89949" lon="0.33225">
        <ele>88.5</ele>
        <time>2022-04-05T11:29:35Z</time>
      </trkpt>
      <trkpt lat="44.89947" lon="0.33223">
        <ele>88.2</ele>
        <time>2022-04-05T11:29:36Z</time>
      </trkpt>
      <trkpt lat="44.89946" lon="0.33223">
        <ele>88.1</ele>
        <time>2022-04-05T11:29:37Z</time>
      </trkpt>
      <trkpt lat="44.89945" lon="0.33222">
        <ele>88</ele>
        <time>2022-04-05T11:29:38Z</time>
      </trkpt>
      <trkpt lat="44.89944" lon="0.3322">
        <ele>87.8</ele>
        <time>2022-04-05T11:29:39Z</time>
      </trkpt>
      <trkpt lat="44.89943" lon="0.33219">
        <ele>87.8</ele>
        <time>2022-04-05T11:29:40Z</time>
      </trkpt>
      <trkpt lat="44.89943" lon="0.33218">
        <ele>87.7</ele>
        <time>2022-04-05T11:29:41Z</time>
      </trkpt>
      <trkpt lat="44.89942" lon="0.33217">
        <ele>87.5</ele>
        <time>2022-04-05T11:29:42Z</time>
      </trkpt>
      <trkpt lat="44.89941" lon="0.33215">
        <ele>87.4</ele>
        <time>2022-04-05T11:29:44Z</time>
      </trkpt>
      <trkpt lat="44.89939" lon="0.33214">
        <ele>87.2</ele>
        <time>2022-04-05T11:29:45Z</time>
      </trkpt>
      <trkpt lat="44.89938" lon="0.33213">
        <ele>87.1</ele>
        <time>2022-04-05T11:29:46Z</time>
      </trkpt>
      <trkpt lat="44.89936" lon="0.33211">
        <ele>86.9</ele>
        <time>2022-04-05T11:29:47Z</time>
      </trkpt>
      <trkpt lat="44.89935" lon="0.3321">
        <ele>86.8</ele>
        <time>2022-04-05T11:29:48Z</time>
      </trkpt>
      <trkpt lat="44.89934" lon="0.3321">
        <ele>86.7</ele>
        <time>2022-04-05T11:29:49Z</time>
      </trkpt>
      <trkpt lat="44.89933" lon="0.33209">
        <ele>86.7</ele>
        <time>2022-04-05T11:29:50Z</time>
      </trkpt>
      <trkpt lat="44.89932" lon="0.33208">
        <ele>86.6</ele>
        <time>2022-04-05T11:29:51Z</time>
      </trkpt>
      <trkpt lat="44.89931" lon="0.33208">
        <ele>86.5</ele>
        <time>2022-04-05T11:29:52Z</time>
      </trkpt>
      <trkpt lat="44.89931" lon="0.33207">
        <ele>86.4</ele>
        <time>2022-04-05T11:29:53Z</time>
      </trkpt>
      <trkpt lat="44.89929" lon="0.33206">
        <ele>86.3</ele>
        <time>2022-04-05T11:29:55Z</time>
      </trkpt>
      <trkpt lat="44.89928" lon="0.33205">
        <ele>86.2</ele>
        <time>2022-04-05T11:29:56Z</time>
      </trkpt>
      <trkpt lat="44.89927" lon="0.33204">
        <ele>86.1</ele>
        <time>2022-04-05T11:29:57Z</time>
      </trkpt>
      <trkpt lat="44.89926" lon="0.33202">
        <ele>86</ele>
        <time>2022-04-05T11:29:58Z</time>
      </trkpt>
      <trkpt lat="44.89925" lon="0.33201">
        <ele>85.9</ele>
        <time>2022-04-05T11:29:59Z</time>
      </trkpt>
      <trkpt lat="44.89924" lon="0.33199">
        <ele>85.8</ele>
        <time>2022-04-05T11:30:00Z</time>
      </trkpt>
      <trkpt lat="44.89923" lon="0.33198">
        <ele>85.7</ele>
        <time>2022-04-05T11:30:01Z</time>
      </trkpt>
      <trkpt lat="44.89922" lon="0.33196">
        <ele>85.6</ele>
        <time>2022-04-05T11:30:02Z</time>
      </trkpt>
      <trkpt lat="44.8992" lon="0.33194">
        <ele>85.4</ele>
        <time>2022-04-05T11:30:03Z</time>
      </trkpt>
      <trkpt lat="44.89919" lon="0.33193">
        <ele>85.3</ele>
        <time>2022-04-05T11:30:04Z</time>
      </trkpt>
      <trkpt lat="44.89917" lon="0.33192">
        <ele>85.2</ele>
        <time>2022-04-05T11:30:06Z</time>
      </trkpt>
      <trkpt lat="44.89917" lon="0.33191">
        <ele>85.1</ele>
        <time>2022-04-05T11:30:07Z</time>
      </trkpt>
      <trkpt lat="44.89916" lon="0.3319">
        <ele>85</ele>
        <time>2022-04-05T11:30:08Z</time>
      </trkpt>
      <trkpt lat="44.89915" lon="0.33189">
        <ele>84.9</ele>
        <time>2022-04-05T11:30:09Z</time>
      </trkpt>
      <trkpt lat="44.89913" lon="0.33188">
        <ele>84.8</ele>
        <time>2022-04-05T11:30:10Z</time>
      </trkpt>
      <trkpt lat="44.89911" lon="0.33186">
        <ele>84.7</ele>
        <time>2022-04-05T11:30:11Z</time>
      </trkpt>
      <trkpt lat="44.8991" lon="0.33185">
        <ele>84.5</ele>
        <time>2022-04-05T11:30:12Z</time>
      </trkpt>
      <trkpt lat="44.8991" lon="0.33184">
        <ele>84.5</ele>
        <time>2022-04-05T11:30:13Z</time>
      </trkpt>
      <trkpt lat="44.89907" lon="0.33182">
        <ele>84.3</ele>
        <time>2022-04-05T11:30:14Z</time>
      </trkpt>
      <trkpt lat="44.89907" lon="0.33182">
        <ele>84.3</ele>
        <time>2022-04-05T11:30:15Z</time>
      </trkpt>
      <trkpt lat="44.89905" lon="0.33181">
        <ele>84.2</ele>
        <time>2022-04-05T11:30:17Z</time>
      </trkpt>
      <trkpt lat="44.89904" lon="0.33181">
        <ele>84.1</ele>
        <time>2022-04-05T11:30:18Z</time>
      </trkpt>
      <trkpt lat="44.89902" lon="0.3318">
        <ele>83.9</ele>
        <time>2022-04-05T11:30:19Z</time>
      </trkpt>
      <trkpt lat="44.89901" lon="0.33179">
        <ele>83.9</ele>
        <time>2022-04-05T11:30:20Z</time>
      </trkpt>
      <trkpt lat="44.899" lon="0.33179">
        <ele>83.8</ele>
        <time>2022-04-05T11:30:21Z</time>
      </trkpt>
      <trkpt lat="44.89899" lon="0.33178">
        <ele>83.8</ele>
        <time>2022-04-05T11:30:22Z</time>
      </trkpt>
      <trkpt lat="44.89898" lon="0.33178">
        <ele>83.7</ele>
        <time>2022-04-05T11:30:23Z</time>
      </trkpt>
      <trkpt lat="44.89896" lon="0.33177">
        <ele>83.6</ele>
        <time>2022-04-05T11:30:24Z</time>
      </trkpt>
      <trkpt lat="44.89895" lon="0.33175">
        <ele>83.5</ele>
        <time>2022-04-05T11:30:25Z</time>
      </trkpt>
      <trkpt lat="44.89894" lon="0.33174">
        <ele>83.4</ele>
        <time>2022-04-05T11:30:26Z</time>
      </trkpt>
      <trkpt lat="44.89893" lon="0.33173">
        <ele>83.3</ele>
        <time>2022-04-05T11:30:28Z</time>
      </trkpt>
      <trkpt lat="44.89892" lon="0.33172">
        <ele>83.3</ele>
        <time>2022-04-05T11:30:29Z</time>
      </trkpt>
      <trkpt lat="44.8989" lon="0.33171">
        <ele>83.2</ele>
        <time>2022-04-05T11:30:30Z</time>
      </trkpt>
      <trkpt lat="44.89889" lon="0.3317">
        <ele>83.1</ele>
        <time>2022-04-05T11:30:31Z</time>
      </trkpt>
      <trkpt lat="44.89888" lon="0.3317">
        <ele>83.1</ele>
        <time>2022-04-05T11:30:32Z</time>
      </trkpt>
      <trkpt lat="44.89887" lon="0.33169">
        <ele>83</ele>
        <time>2022-04-05T11:30:33Z</time>
      </trkpt>
      <trkpt lat="44.89886" lon="0.33168">
        <ele>82.9</ele>
        <time>2022-04-05T11:30:34Z</time>
      </trkpt>
      <trkpt lat="44.89884" lon="0.33168">
        <ele>82.9</ele>
        <time>2022-04-05T11:30:35Z</time>
      </trkpt>
      <trkpt lat="44.89882" lon="0.33167">
        <ele>82.8</ele>
        <time>2022-04-05T11:30:37Z</time>
      </trkpt>
      <trkpt lat="44.89881" lon="0.33166">
        <ele>82.8</ele>
        <time>2022-04-05T11:30:38Z</time>
      </trkpt>
      <trkpt lat="44.89879" lon="0.33164">
        <ele>82.7</ele>
        <time>2022-04-05T11:30:39Z</time>
      </trkpt>
      <trkpt lat="44.89878" lon="0.33164">
        <ele>82.6</ele>
        <time>2022-04-05T11:30:41Z</time>
      </trkpt>
      <trkpt lat="44.89877" lon="0.33163">
        <ele>82.6</ele>
        <time>2022-04-05T11:30:42Z</time>
      </trkpt>
      <trkpt lat="44.89875" lon="0.33162">
        <ele>82.6</ele>
        <time>2022-04-05T11:30:43Z</time>
      </trkpt>
      <trkpt lat="44.89874" lon="0.33162">
        <ele>82.5</ele>
        <time>2022-04-05T11:30:44Z</time>
      </trkpt>
      <trkpt lat="44.89872" lon="0.33161">
        <ele>82.5</ele>
        <time>2022-04-05T11:30:45Z</time>
      </trkpt>
      <trkpt lat="44.89872" lon="0.3316">
        <ele>82.5</ele>
        <time>2022-04-05T11:30:46Z</time>
      </trkpt>
      <trkpt lat="44.89871" lon="0.33159">
        <ele>82.4</ele>
        <time>2022-04-05T11:30:47Z</time>
      </trkpt>
      <trkpt lat="44.89869" lon="0.33157">
        <ele>82.4</ele>
        <time>2022-04-05T11:30:48Z</time>
      </trkpt>
      <trkpt lat="44.89868" lon="0.33156">
        <ele>82.3</ele>
        <time>2022-04-05T11:30:50Z</time>
      </trkpt>
      <trkpt lat="44.89867" lon="0.33155">
        <ele>82.3</ele>
        <time>2022-04-05T11:30:51Z</time>
      </trkpt>
      <trkpt lat="44.89866" lon="0.33154">
        <ele>82.3</ele>
        <time>2022-04-05T11:30:52Z</time>
      </trkpt>
      <trkpt lat="44.89865" lon="0.33153">
        <ele>82.2</ele>
        <time>2022-04-05T11:30:53Z</time>
      </trkpt>
      <trkpt lat="44.89864" lon="0.33152">
        <ele>82.2</ele>
        <time>2022-04-05T11:30:54Z</time>
      </trkpt>
      <trkpt lat="44.89863" lon="0.33151">
        <ele>82.2</ele>
        <time>2022-04-05T11:30:55Z</time>
      </trkpt>
      <trkpt lat="44.89863" lon="0.3315">
        <ele>82.2</ele>
        <time>2022-04-05T11:30:56Z</time>
      </trkpt>
      <trkpt lat="44.89862" lon="0.33149">
        <ele>82.1</ele>
        <time>2022-04-05T11:30:57Z</time>
      </trkpt>
      <trkpt lat="44.89861" lon="0.33148">
        <ele>82.1</ele>
        <time>2022-04-05T11:30:58Z</time>
      </trkpt>
      <trkpt lat="44.8986" lon="0.33146">
        <ele>82.1</ele>
        <time>2022-04-05T11:30:59Z</time>
      </trkpt>
      <trkpt lat="44.89859" lon="0.33145">
        <ele>82</ele>
        <time>2022-04-05T11:31:00Z</time>
      </trkpt>
      <trkpt lat="44.89858" lon="0.33144">
        <ele>82</ele>
        <time>2022-04-05T11:31:01Z</time>
      </trkpt>
      <trkpt lat="44.89856" lon="0.33143">
        <ele>82</ele>
        <time>2022-04-05T11:31:03Z</time>
      </trkpt>
      <trkpt lat="44.89854" lon="0.33142">
        <ele>81.9</ele>
        <time>2022-04-05T11:31:04Z</time>
      </trkpt>
      <trkpt lat="44.89853" lon="0.33141">
        <ele>81.9</ele>
        <time>2022-04-05T11:31:05Z</time>
      </trkpt>
      <trkpt lat="44.89852" lon="0.33141">
        <ele>81.9</ele>
        <time>2022-04-05T11:31:06Z</time>
      </trkpt>
      <trkpt lat="44.89851" lon="0.33141">
        <ele>81.9</ele>
        <time>2022-04-05T11:31:07Z</time>
      </trkpt>
      <trkpt lat="44.8985" lon="0.3314">
        <ele>81.8</ele>
        <time>2022-04-05T11:31:08Z</time>
      </trkpt>
      <trkpt lat="44.89848" lon="0.33139">
        <ele>81.8</ele>
        <time>2022-04-05T11:31:09Z</time>
      </trkpt>
      <trkpt lat="44.89846" lon="0.33138">
        <ele>81.8</ele>
        <time>2022-04-05T11:31:10Z</time>
      </trkpt>
      <trkpt lat="44.89845" lon="0.33137">
        <ele>81.8</ele>
        <time>2022-04-05T11:31:11Z</time>
      </trkpt>
      <trkpt lat="44.89844" lon="0.33136">
        <ele>81.7</ele>
        <time>2022-04-05T11:31:13Z</time>
      </trkpt>
      <trkpt lat="44.89842" lon="0.33135">
        <ele>81.7</ele>
        <time>2022-04-05T11:31:14Z</time>
      </trkpt>
      <trkpt lat="44.89841" lon="0.33134">
        <ele>81.7</ele>
        <time>2022-04-05T11:31:15Z</time>
      </trkpt>
      <trkpt lat="44.89839" lon="0.33132">
        <ele>81.7</ele>
        <time>2022-04-05T11:31:16Z</time>
      </trkpt>
      <trkpt lat="44.89839" lon="0.33131">
        <ele>81.6</ele>
        <time>2022-04-05T11:31:17Z</time>
      </trkpt>
      <trkpt lat="44.89838" lon="0.33129">
        <ele>81.6</ele>
        <time>2022-04-05T11:31:18Z</time>
      </trkpt>
      <trkpt lat="44.89836" lon="0.33127">
        <ele>81.6</ele>
        <time>2022-04-05T11:31:20Z</time>
      </trkpt>
      <trkpt lat="44.89834" lon="0.33125">
        <ele>81.5</ele>
        <time>2022-04-05T11:31:22Z</time>
      </trkpt>
      <trkpt lat="44.89833" lon="0.33125">
        <ele>81.5</ele>
        <time>2022-04-05T11:31:23Z</time>
      </trkpt>
      <trkpt lat="44.89831" lon="0.33122">
        <ele>81.5</ele>
        <time>2022-04-05T11:31:24Z</time>
      </trkpt>
      <trkpt lat="44.8983" lon="0.33121">
        <ele>81.5</ele>
        <time>2022-04-05T11:31:25Z</time>
      </trkpt>
      <trkpt lat="44.89829" lon="0.3312">
        <ele>81.4</ele>
        <time>2022-04-05T11:31:26Z</time>
      </trkpt>
      <trkpt lat="44.89828" lon="0.33119">
        <ele>81.4</ele>
        <time>2022-04-05T11:31:27Z</time>
      </trkpt>
      <trkpt lat="44.89827" lon="0.33119">
        <ele>81.4</ele>
        <time>2022-04-05T11:31:28Z</time>
      </trkpt>
      <trkpt lat="44.89827" lon="0.33118">
        <ele>81.4</ele>
        <time>2022-04-05T11:31:29Z</time>
      </trkpt>
      <trkpt lat="44.89825" lon="0.33116">
        <ele>81.4</ele>
        <time>2022-04-05T11:31:30Z</time>
      </trkpt>
      <trkpt lat="44.89824" lon="0.33115">
        <ele>81.4</ele>
        <time>2022-04-05T11:31:31Z</time>
      </trkpt>
      <trkpt lat="44.89824" lon="0.33115">
        <ele>81.4</ele>
        <time>2022-04-05T11:31:32Z</time>
      </trkpt>
      <trkpt lat="44.89823" lon="0.33114">
        <ele>81.3</ele>
        <time>2022-04-05T11:31:33Z</time>
      </trkpt>
      <trkpt lat="44.89822" lon="0.33114">
        <ele>81.3</ele>
        <time>2022-04-05T11:31:34Z</time>
      </trkpt>
      <trkpt lat="44.8982" lon="0.33112">
        <ele>81.3</ele>
        <time>2022-04-05T11:31:35Z</time>
      </trkpt>
      <trkpt lat="44.89819" lon="0.33112">
        <ele>81.3</ele>
        <time>2022-04-05T11:31:36Z</time>
      </trkpt>
      <trkpt lat="44.89819" lon="0.33111">
        <ele>81.3</ele>
        <time>2022-04-05T11:31:37Z</time>
      </trkpt>
      <trkpt lat="44.89818" lon="0.33109">
        <ele>81.3</ele>
        <time>2022-04-05T11:31:38Z</time>
      </trkpt>
      <trkpt lat="44.89817" lon="0.33108">
        <ele>81.3</ele>
        <time>2022-04-05T11:31:39Z</time>
      </trkpt>
      <trkpt lat="44.89814" lon="0.33105">
        <ele>81.3</ele>
        <time>2022-04-05T11:31:40Z</time>
      </trkpt>
      <trkpt lat="44.89813" lon="0.33104">
        <ele>81.3</ele>
        <time>2022-04-05T11:31:42Z</time>
      </trkpt>
      <trkpt lat="44.89813" lon="0.33103">
        <ele>81.3</ele>
        <time>2022-04-05T11:31:43Z</time>
      </trkpt>
      <trkpt lat="44.89812" lon="0.33102">
        <ele>81.3</ele>
        <time>2022-04-05T11:31:44Z</time>
      </trkpt>
      <trkpt lat="44.89811" lon="0.33102">
        <ele>81.3</ele>
        <time>2022-04-05T11:31:45Z</time>
      </trkpt>
      <trkpt lat="44.8981" lon="0.33099">
        <ele>81.3</ele>
        <time>2022-04-05T11:31:46Z</time>
      </trkpt>
      <trkpt lat="44.89809" lon="0.33098">
        <ele>81.3</ele>
        <time>2022-04-05T11:31:47Z</time>
      </trkpt>
      <trkpt lat="44.89809" lon="0.33097">
        <ele>81.3</ele>
        <time>2022-04-05T11:31:48Z</time>
      </trkpt>
      <trkpt lat="44.89808" lon="0.33096">
        <ele>81.3</ele>
        <time>2022-04-05T11:31:49Z</time>
      </trkpt>
      <trkpt lat="44.89807" lon="0.33094">
        <ele>81.3</ele>
        <time>2022-04-05T11:31:50Z</time>
      </trkpt>
      <trkpt lat="44.89806" lon="0.33093">
        <ele>81.3</ele>
        <time>2022-04-05T11:31:51Z</time>
      </trkpt>
      <trkpt lat="44.89805" lon="0.33092">
        <ele>81.3</ele>
        <time>2022-04-05T11:31:52Z</time>
      </trkpt>
      <trkpt lat="44.89804" lon="0.33092">
        <ele>81.3</ele>
        <time>2022-04-05T11:31:53Z</time>
      </trkpt>
      <trkpt lat="44.89803" lon="0.33091">
        <ele>81.3</ele>
        <time>2022-04-05T11:31:54Z</time>
      </trkpt>
      <trkpt lat="44.89801" lon="0.3309">
        <ele>81.3</ele>
        <time>2022-04-05T11:31:56Z</time>
      </trkpt>
      <trkpt lat="44.898" lon="0.33089">
        <ele>81.3</ele>
        <time>2022-04-05T11:31:57Z</time>
      </trkpt>
      <trkpt lat="44.89799" lon="0.33088">
        <ele>81.3</ele>
        <time>2022-04-05T11:31:58Z</time>
      </trkpt>
      <trkpt lat="44.89798" lon="0.33087">
        <ele>81.3</ele>
        <time>2022-04-05T11:31:59Z</time>
      </trkpt>
      <trkpt lat="44.89796" lon="0.33086">
        <ele>81.4</ele>
        <time>2022-04-05T11:32:00Z</time>
      </trkpt>
      <trkpt lat="44.89796" lon="0.33086">
        <ele>81.4</ele>
        <time>2022-04-05T11:32:01Z</time>
      </trkpt>
      <trkpt lat="44.89795" lon="0.33083">
        <ele>81.4</ele>
        <time>2022-04-05T11:32:03Z</time>
      </trkpt>
      <trkpt lat="44.89796" lon="0.33082">
        <ele>81.4</ele>
        <time>2022-04-05T11:32:04Z</time>
      </trkpt>
      <trkpt lat="44.89798" lon="0.3308">
        <ele>81.4</ele>
        <time>2022-04-05T11:32:05Z</time>
      </trkpt>
      <trkpt lat="44.89799" lon="0.3308">
        <ele>81.4</ele>
        <time>2022-04-05T11:32:06Z</time>
      </trkpt>
      <trkpt lat="44.89799" lon="0.3308">
        <ele>81.4</ele>
        <time>2022-04-05T11:32:07Z</time>
      </trkpt>
      <trkpt lat="44.89799" lon="0.3308">
        <ele>81.4</ele>
        <time>2022-04-05T11:32:08Z</time>
      </trkpt>
      <trkpt lat="44.89797" lon="0.33079">
        <ele>81.4</ele>
        <time>2022-04-05T11:32:10Z</time>
      </trkpt>
      <trkpt lat="44.89795" lon="0.3308">
        <ele>81.4</ele>
        <time>2022-04-05T11:32:11Z</time>
      </trkpt>
      <trkpt lat="44.89792" lon="0.3308">
        <ele>81.5</ele>
        <time>2022-04-05T11:32:13Z</time>
      </trkpt>
      <trkpt lat="44.89791" lon="0.3308">
        <ele>81.5</ele>
        <time>2022-04-05T11:32:14Z</time>
      </trkpt>
      <trkpt lat="44.89788" lon="0.33081">
        <ele>81.5</ele>
        <time>2022-04-05T11:32:16Z</time>
      </trkpt>
      <trkpt lat="44.89788" lon="0.33081">
        <ele>81.5</ele>
        <time>2022-04-05T11:32:17Z</time>
      </trkpt>
      <trkpt lat="44.89787" lon="0.3308">
        <ele>81.5</ele>
        <time>2022-04-05T11:32:18Z</time>
      </trkpt>
      <trkpt lat="44.89786" lon="0.3308">
        <ele>81.5</ele>
        <time>2022-04-05T11:32:19Z</time>
      </trkpt>
      <trkpt lat="44.89786" lon="0.3308">
        <ele>81.5</ele>
        <time>2022-04-05T11:32:21Z</time>
      </trkpt>
      <trkpt lat="44.89785" lon="0.33079">
        <ele>81.5</ele>
        <time>2022-04-05T11:32:22Z</time>
      </trkpt>
      <trkpt lat="44.89784" lon="0.33079">
        <ele>81.5</ele>
        <time>2022-04-05T11:32:23Z</time>
      </trkpt>
      <trkpt lat="44.89783" lon="0.33079">
        <ele>81.5</ele>
        <time>2022-04-05T11:32:24Z</time>
      </trkpt>
      <trkpt lat="44.89781" lon="0.33078">
        <ele>81.6</ele>
        <time>2022-04-05T11:32:25Z</time>
      </trkpt>
      <trkpt lat="44.89779" lon="0.33076">
        <ele>81.6</ele>
        <time>2022-04-05T11:32:26Z</time>
      </trkpt>
      <trkpt lat="44.89778" lon="0.33075">
        <ele>81.6</ele>
        <time>2022-04-05T11:32:27Z</time>
      </trkpt>
      <trkpt lat="44.89777" lon="0.33073">
        <ele>81.6</ele>
        <time>2022-04-05T11:32:28Z</time>
      </trkpt>
      <trkpt lat="44.89776" lon="0.33072">
        <ele>81.6</ele>
        <time>2022-04-05T11:32:29Z</time>
      </trkpt>
      <trkpt lat="44.89774" lon="0.3307">
        <ele>81.7</ele>
        <time>2022-04-05T11:32:31Z</time>
      </trkpt>
      <trkpt lat="44.89773" lon="0.33069">
        <ele>81.7</ele>
        <time>2022-04-05T11:32:32Z</time>
      </trkpt>
      <trkpt lat="44.89771" lon="0.33068">
        <ele>81.7</ele>
        <time>2022-04-05T11:32:33Z</time>
      </trkpt>
      <trkpt lat="44.8977" lon="0.33067">
        <ele>81.7</ele>
        <time>2022-04-05T11:32:34Z</time>
      </trkpt>
      <trkpt lat="44.89769" lon="0.33066">
        <ele>81.8</ele>
        <time>2022-04-05T11:32:35Z</time>
      </trkpt>
      <trkpt lat="44.89767" lon="0.33065">
        <ele>81.8</ele>
        <time>2022-04-05T11:32:36Z</time>
      </trkpt>
      <trkpt lat="44.89766" lon="0.33064">
        <ele>81.8</ele>
        <time>2022-04-05T11:32:37Z</time>
      </trkpt>
      <trkpt lat="44.89765" lon="0.33063">
        <ele>81.9</ele>
        <time>2022-04-05T11:32:38Z</time>
      </trkpt>
      <trkpt lat="44.89763" lon="0.33061">
        <ele>81.9</ele>
        <time>2022-04-05T11:32:39Z</time>
      </trkpt>
      <trkpt lat="44.89762" lon="0.3306">
        <ele>81.9</ele>
        <time>2022-04-05T11:32:40Z</time>
      </trkpt>
      <trkpt lat="44.8976" lon="0.33058">
        <ele>82</ele>
        <time>2022-04-05T11:32:42Z</time>
      </trkpt>
      <trkpt lat="44.89759" lon="0.33057">
        <ele>82</ele>
        <time>2022-04-05T11:32:43Z</time>
      </trkpt>
      <trkpt lat="44.89758" lon="0.33056">
        <ele>82</ele>
        <time>2022-04-05T11:32:44Z</time>
      </trkpt>
      <trkpt lat="44.89757" lon="0.33055">
        <ele>82.1</ele>
        <time>2022-04-05T11:32:45Z</time>
      </trkpt>
      <trkpt lat="44.89756" lon="0.33054">
        <ele>82.1</ele>
        <time>2022-04-05T11:32:46Z</time>
      </trkpt>
      <trkpt lat="44.89754" lon="0.33053">
        <ele>82.1</ele>
        <time>2022-04-05T11:32:47Z</time>
      </trkpt>
      <trkpt lat="44.89753" lon="0.33051">
        <ele>82.2</ele>
        <time>2022-04-05T11:32:48Z</time>
      </trkpt>
      <trkpt lat="44.89752" lon="0.3305">
        <ele>82.2</ele>
        <time>2022-04-05T11:32:49Z</time>
      </trkpt>
      <trkpt lat="44.8975" lon="0.33048">
        <ele>82.3</ele>
        <time>2022-04-05T11:32:51Z</time>
      </trkpt>
      <trkpt lat="44.89749" lon="0.33047">
        <ele>82.3</ele>
        <time>2022-04-05T11:32:52Z</time>
      </trkpt>
      <trkpt lat="44.89748" lon="0.33046">
        <ele>82.4</ele>
        <time>2022-04-05T11:32:53Z</time>
      </trkpt>
      <trkpt lat="44.89746" lon="0.33043">
        <ele>82.4</ele>
        <time>2022-04-05T11:32:54Z</time>
      </trkpt>
      <trkpt lat="44.89745" lon="0.33042">
        <ele>82.5</ele>
        <time>2022-04-05T11:32:55Z</time>
      </trkpt>
      <trkpt lat="44.89745" lon="0.33041">
        <ele>82.5</ele>
        <time>2022-04-05T11:32:56Z</time>
      </trkpt>
      <trkpt lat="44.89743" lon="0.3304">
        <ele>82.6</ele>
        <time>2022-04-05T11:32:57Z</time>
      </trkpt>
      <trkpt lat="44.89742" lon="0.33039">
        <ele>82.6</ele>
        <time>2022-04-05T11:32:58Z</time>
      </trkpt>
      <trkpt lat="44.89741" lon="0.33039">
        <ele>82.6</ele>
        <time>2022-04-05T11:32:59Z</time>
      </trkpt>
      <trkpt lat="44.89738" lon="0.33035">
        <ele>82.7</ele>
        <time>2022-04-05T11:33:01Z</time>
      </trkpt>
      <trkpt lat="44.89738" lon="0.33034">
        <ele>82.7</ele>
        <time>2022-04-05T11:33:02Z</time>
      </trkpt>
      <trkpt lat="44.89737" lon="0.33033">
        <ele>82.8</ele>
        <time>2022-04-05T11:33:03Z</time>
      </trkpt>
      <trkpt lat="44.89736" lon="0.33032">
        <ele>82.8</ele>
        <time>2022-04-05T11:33:04Z</time>
      </trkpt>
      <trkpt lat="44.89735" lon="0.33029">
        <ele>82.9</ele>
        <time>2022-04-05T11:33:05Z</time>
      </trkpt>
      <trkpt lat="44.89734" lon="0.33029">
        <ele>82.9</ele>
        <time>2022-04-05T11:33:06Z</time>
      </trkpt>
      <trkpt lat="44.89732" lon="0.33027">
        <ele>82.9</ele>
        <time>2022-04-05T11:33:08Z</time>
      </trkpt>
      <trkpt lat="44.89731" lon="0.33026">
        <ele>83</ele>
        <time>2022-04-05T11:33:09Z</time>
      </trkpt>
      <trkpt lat="44.89729" lon="0.33024">
        <ele>83</ele>
        <time>2022-04-05T11:33:11Z</time>
      </trkpt>
      <trkpt lat="44.89728" lon="0.33024">
        <ele>83</ele>
        <time>2022-04-05T11:33:12Z</time>
      </trkpt>
      <trkpt lat="44.89726" lon="0.33023">
        <ele>83.1</ele>
        <time>2022-04-05T11:33:13Z</time>
      </trkpt>
      <trkpt lat="44.89725" lon="0.33023">
        <ele>83.1</ele>
        <time>2022-04-05T11:33:14Z</time>
      </trkpt>
      <trkpt lat="44.89724" lon="0.33023">
        <ele>83.1</ele>
        <time>2022-04-05T11:33:15Z</time>
      </trkpt>
      <trkpt lat="44.89724" lon="0.33022">
        <ele>83.1</ele>
        <time>2022-04-05T11:33:16Z</time>
      </trkpt>
      <trkpt lat="44.89724" lon="0.33021">
        <ele>83.1</ele>
        <time>2022-04-05T11:33:17Z</time>
      </trkpt>
      <trkpt lat="44.89723" lon="0.33021">
        <ele>83.1</ele>
        <time>2022-04-05T11:33:18Z</time>
      </trkpt>
      <trkpt lat="44.89722" lon="0.3302">
        <ele>83.1</ele>
        <time>2022-04-05T11:33:19Z</time>
      </trkpt>
      <trkpt lat="44.8972" lon="0.33018">
        <ele>83.2</ele>
        <time>2022-04-05T11:33:20Z</time>
      </trkpt>
      <trkpt lat="44.8972" lon="0.33017">
        <ele>83.2</ele>
        <time>2022-04-05T11:33:21Z</time>
      </trkpt>
      <trkpt lat="44.89719" lon="0.33016">
        <ele>83.2</ele>
        <time>2022-04-05T11:33:22Z</time>
      </trkpt>
      <trkpt lat="44.89718" lon="0.33014">
        <ele>83.2</ele>
        <time>2022-04-05T11:33:24Z</time>
      </trkpt>
      <trkpt lat="44.89717" lon="0.33013">
        <ele>83.2</ele>
        <time>2022-04-05T11:33:25Z</time>
      </trkpt>
      <trkpt lat="44.89715" lon="0.33011">
        <ele>83.2</ele>
        <time>2022-04-05T11:33:26Z</time>
      </trkpt>
      <trkpt lat="44.89715" lon="0.3301">
        <ele>83.2</ele>
        <time>2022-04-05T11:33:27Z</time>
      </trkpt>
      <trkpt lat="44.89714" lon="0.33009">
        <ele>83.2</ele>
        <time>2022-04-05T11:33:28Z</time>
      </trkpt>
      <trkpt lat="44.89713" lon="0.33008">
        <ele>83.1</ele>
        <time>2022-04-05T11:33:29Z</time>
      </trkpt>
      <trkpt lat="44.89712" lon="0.33007">
        <ele>83.1</ele>
        <time>2022-04-05T11:33:30Z</time>
      </trkpt>
      <trkpt lat="44.8971" lon="0.33005">
        <ele>83.1</ele>
        <time>2022-04-05T11:33:31Z</time>
      </trkpt>
      <trkpt lat="44.89709" lon="0.33003">
        <ele>83.1</ele>
        <time>2022-04-05T11:33:32Z</time>
      </trkpt>
      <trkpt lat="44.89708" lon="0.33002">
        <ele>83.1</ele>
        <time>2022-04-05T11:33:33Z</time>
      </trkpt>
      <trkpt lat="44.89708" lon="0.33001">
        <ele>83</ele>
        <time>2022-04-05T11:33:34Z</time>
      </trkpt>
      <trkpt lat="44.89706" lon="0.33">
        <ele>83</ele>
        <time>2022-04-05T11:33:35Z</time>
      </trkpt>
      <trkpt lat="44.89705" lon="0.32998">
        <ele>83</ele>
        <time>2022-04-05T11:33:36Z</time>
      </trkpt>
      <trkpt lat="44.89704" lon="0.32996">
        <ele>83</ele>
        <time>2022-04-05T11:33:37Z</time>
      </trkpt>
      <trkpt lat="44.89703" lon="0.32995">
        <ele>82.9</ele>
        <time>2022-04-05T11:33:38Z</time>
      </trkpt>
      <trkpt lat="44.89701" lon="0.32994">
        <ele>82.9</ele>
        <time>2022-04-05T11:33:39Z</time>
      </trkpt>
      <trkpt lat="44.89699" lon="0.32992">
        <ele>82.9</ele>
        <time>2022-04-05T11:33:41Z</time>
      </trkpt>
      <trkpt lat="44.89698" lon="0.32991">
        <ele>82.9</ele>
        <time>2022-04-05T11:33:42Z</time>
      </trkpt>
      <trkpt lat="44.89697" lon="0.32991">
        <ele>82.8</ele>
        <time>2022-04-05T11:33:43Z</time>
      </trkpt>
      <trkpt lat="44.89696" lon="0.3299">
        <ele>82.8</ele>
        <time>2022-04-05T11:33:44Z</time>
      </trkpt>
      <trkpt lat="44.89695" lon="0.32989">
        <ele>82.8</ele>
        <time>2022-04-05T11:33:45Z</time>
      </trkpt>
      <trkpt lat="44.89693" lon="0.32987">
        <ele>82.8</ele>
        <time>2022-04-05T11:33:46Z</time>
      </trkpt>
      <trkpt lat="44.89693" lon="0.32987">
        <ele>82.8</ele>
        <time>2022-04-05T11:33:47Z</time>
      </trkpt>
      <trkpt lat="44.89692" lon="0.32985">
        <ele>82.8</ele>
        <time>2022-04-05T11:33:48Z</time>
      </trkpt>
      <trkpt lat="44.89691" lon="0.32984">
        <ele>82.7</ele>
        <time>2022-04-05T11:33:49Z</time>
      </trkpt>
      <trkpt lat="44.8969" lon="0.32983">
        <ele>82.7</ele>
        <time>2022-04-05T11:33:50Z</time>
      </trkpt>
      <trkpt lat="44.89688" lon="0.32981">
        <ele>82.7</ele>
        <time>2022-04-05T11:33:51Z</time>
      </trkpt>
      <trkpt lat="44.89688" lon="0.32981">
        <ele>82.7</ele>
        <time>2022-04-05T11:33:52Z</time>
      </trkpt>
      <trkpt lat="44.89686" lon="0.32979">
        <ele>82.7</ele>
        <time>2022-04-05T11:33:53Z</time>
      </trkpt>
      <trkpt lat="44.89685" lon="0.32977">
        <ele>82.7</ele>
        <time>2022-04-05T11:33:55Z</time>
      </trkpt>
      <trkpt lat="44.89683" lon="0.32976">
        <ele>82.6</ele>
        <time>2022-04-05T11:33:56Z</time>
      </trkpt>
      <trkpt lat="44.89682" lon="0.32975">
        <ele>82.6</ele>
        <time>2022-04-05T11:33:57Z</time>
      </trkpt>
      <trkpt lat="44.89681" lon="0.32973">
        <ele>82.6</ele>
        <time>2022-04-05T11:33:58Z</time>
      </trkpt>
      <trkpt lat="44.8968" lon="0.32972">
        <ele>82.6</ele>
        <time>2022-04-05T11:33:59Z</time>
      </trkpt>
      <trkpt lat="44.89679" lon="0.32971">
        <ele>82.6</ele>
        <time>2022-04-05T11:34:00Z</time>
      </trkpt>
      <trkpt lat="44.89678" lon="0.32969">
        <ele>82.6</ele>
        <time>2022-04-05T11:34:01Z</time>
      </trkpt>
      <trkpt lat="44.89677" lon="0.32968">
        <ele>82.6</ele>
        <time>2022-04-05T11:34:02Z</time>
      </trkpt>
      <trkpt lat="44.89676" lon="0.32967">
        <ele>82.6</ele>
        <time>2022-04-05T11:34:03Z</time>
      </trkpt>
      <trkpt lat="44.89674" lon="0.32965">
        <ele>82.5</ele>
        <time>2022-04-05T11:34:04Z</time>
      </trkpt>
      <trkpt lat="44.89672" lon="0.32963">
        <ele>82.5</ele>
        <time>2022-04-05T11:34:06Z</time>
      </trkpt>
      <trkpt lat="44.89672" lon="0.32962">
        <ele>82.5</ele>
        <time>2022-04-05T11:34:07Z</time>
      </trkpt>
      <trkpt lat="44.89671" lon="0.32961">
        <ele>82.5</ele>
        <time>2022-04-05T11:34:08Z</time>
      </trkpt>
      <trkpt lat="44.89669" lon="0.3296">
        <ele>82.5</ele>
        <time>2022-04-05T11:34:09Z</time>
      </trkpt>
      <trkpt lat="44.89667" lon="0.32957">
        <ele>82.5</ele>
        <time>2022-04-05T11:34:10Z</time>
      </trkpt>
      <trkpt lat="44.89666" lon="0.32956">
        <ele>82.5</ele>
        <time>2022-04-05T11:34:11Z</time>
      </trkpt>
      <trkpt lat="44.89664" lon="0.32954">
        <ele>82.4</ele>
        <time>2022-04-05T11:34:12Z</time>
      </trkpt>
      <trkpt lat="44.89663" lon="0.32953">
        <ele>82.4</ele>
        <time>2022-04-05T11:34:14Z</time>
      </trkpt>
      <trkpt lat="44.89662" lon="0.32951">
        <ele>82.4</ele>
        <time>2022-04-05T11:34:15Z</time>
      </trkpt>
      <trkpt lat="44.89661" lon="0.3295">
        <ele>82.4</ele>
        <time>2022-04-05T11:34:16Z</time>
      </trkpt>
      <trkpt lat="44.89659" lon="0.32948">
        <ele>82.4</ele>
        <time>2022-04-05T11:34:17Z</time>
      </trkpt>
      <trkpt lat="44.89659" lon="0.32947">
        <ele>82.4</ele>
        <time>2022-04-05T11:34:18Z</time>
      </trkpt>
      <trkpt lat="44.89658" lon="0.32947">
        <ele>82.4</ele>
        <time>2022-04-05T11:34:19Z</time>
      </trkpt>
      <trkpt lat="44.89656" lon="0.32943">
        <ele>82.5</ele>
        <time>2022-04-05T11:34:21Z</time>
      </trkpt>
      <trkpt lat="44.89655" lon="0.32942">
        <ele>82.5</ele>
        <time>2022-04-05T11:34:22Z</time>
      </trkpt>
      <trkpt lat="44.89655" lon="0.32941">
        <ele>82.5</ele>
        <time>2022-04-05T11:34:23Z</time>
      </trkpt>
      <trkpt lat="44.89654" lon="0.3294">
        <ele>82.5</ele>
        <time>2022-04-05T11:34:24Z</time>
      </trkpt>
      <trkpt lat="44.89652" lon="0.32938">
        <ele>82.5</ele>
        <time>2022-04-05T11:34:25Z</time>
      </trkpt>
      <trkpt lat="44.89651" lon="0.32937">
        <ele>82.5</ele>
        <time>2022-04-05T11:34:26Z</time>
      </trkpt>
      <trkpt lat="44.8965" lon="0.32937">
        <ele>82.5</ele>
        <time>2022-04-05T11:34:27Z</time>
      </trkpt>
      <trkpt lat="44.89649" lon="0.32936">
        <ele>82.5</ele>
        <time>2022-04-05T11:34:28Z</time>
      </trkpt>
      <trkpt lat="44.89648" lon="0.32935">
        <ele>82.6</ele>
        <time>2022-04-05T11:34:29Z</time>
      </trkpt>
      <trkpt lat="44.89646" lon="0.32932">
        <ele>82.6</ele>
        <time>2022-04-05T11:34:30Z</time>
      </trkpt>
      <trkpt lat="44.89645" lon="0.32932">
        <ele>82.6</ele>
        <time>2022-04-05T11:34:31Z</time>
      </trkpt>
      <trkpt lat="44.89644" lon="0.32931">
        <ele>82.6</ele>
        <time>2022-04-05T11:34:32Z</time>
      </trkpt>
      <trkpt lat="44.89643" lon="0.3293">
        <ele>82.6</ele>
        <time>2022-04-05T11:34:33Z</time>
      </trkpt>
      <trkpt lat="44.89642" lon="0.32929">
        <ele>82.7</ele>
        <time>2022-04-05T11:34:34Z</time>
      </trkpt>
      <trkpt lat="44.8964" lon="0.32926">
        <ele>82.7</ele>
        <time>2022-04-05T11:34:35Z</time>
      </trkpt>
      <trkpt lat="44.89639" lon="0.32925">
        <ele>82.7</ele>
        <time>2022-04-05T11:34:36Z</time>
      </trkpt>
      <trkpt lat="44.89639" lon="0.32925">
        <ele>82.7</ele>
        <time>2022-04-05T11:34:37Z</time>
      </trkpt>
      <trkpt lat="44.89638" lon="0.32924">
        <ele>82.7</ele>
        <time>2022-04-05T11:34:38Z</time>
      </trkpt>
      <trkpt lat="44.89637" lon="0.32923">
        <ele>82.7</ele>
        <time>2022-04-05T11:34:39Z</time>
      </trkpt>
      <trkpt lat="44.89635" lon="0.32919">
        <ele>82.8</ele>
        <time>2022-04-05T11:34:41Z</time>
      </trkpt>
      <trkpt lat="44.89634" lon="0.32917">
        <ele>82.8</ele>
        <time>2022-04-05T11:34:42Z</time>
      </trkpt>
      <trkpt lat="44.89634" lon="0.32915">
        <ele>82.8</ele>
        <time>2022-04-05T11:34:43Z</time>
      </trkpt>
      <trkpt lat="44.89633" lon="0.32914">
        <ele>82.8</ele>
        <time>2022-04-05T11:34:44Z</time>
      </trkpt>
      <trkpt lat="44.89632" lon="0.32913">
        <ele>82.8</ele>
        <time>2022-04-05T11:34:45Z</time>
      </trkpt>
      <trkpt lat="44.89631" lon="0.32911">
        <ele>82.9</ele>
        <time>2022-04-05T11:34:46Z</time>
      </trkpt>
      <trkpt lat="44.8963" lon="0.3291">
        <ele>82.9</ele>
        <time>2022-04-05T11:34:48Z</time>
      </trkpt>
      <trkpt lat="44.89629" lon="0.32909">
        <ele>82.9</ele>
        <time>2022-04-05T11:34:49Z</time>
      </trkpt>
      <trkpt lat="44.89628" lon="0.32908">
        <ele>82.9</ele>
        <time>2022-04-05T11:34:50Z</time>
      </trkpt>
      <trkpt lat="44.89626" lon="0.32905">
        <ele>82.9</ele>
        <time>2022-04-05T11:34:51Z</time>
      </trkpt>
      <trkpt lat="44.89626" lon="0.32905">
        <ele>82.9</ele>
        <time>2022-04-05T11:34:52Z</time>
      </trkpt>
      <trkpt lat="44.89625" lon="0.32904">
        <ele>82.9</ele>
        <time>2022-04-05T11:34:53Z</time>
      </trkpt>
      <trkpt lat="44.89624" lon="0.32903">
        <ele>82.9</ele>
        <time>2022-04-05T11:34:54Z</time>
      </trkpt>
      <trkpt lat="44.89622" lon="0.329">
        <ele>83</ele>
        <time>2022-04-05T11:34:55Z</time>
      </trkpt>
      <trkpt lat="44.89621" lon="0.32899">
        <ele>83</ele>
        <time>2022-04-05T11:34:56Z</time>
      </trkpt>
      <trkpt lat="44.8962" lon="0.32898">
        <ele>83</ele>
        <time>2022-04-05T11:34:58Z</time>
      </trkpt>
      <trkpt lat="44.89619" lon="0.32897">
        <ele>83</ele>
        <time>2022-04-05T11:34:59Z</time>
      </trkpt>
      <trkpt lat="44.89619" lon="0.32896">
        <ele>83</ele>
        <time>2022-04-05T11:35:00Z</time>
      </trkpt>
      <trkpt lat="44.89616" lon="0.32894">
        <ele>83.1</ele>
        <time>2022-04-05T11:35:01Z</time>
      </trkpt>
      <trkpt lat="44.89616" lon="0.32894">
        <ele>83.1</ele>
        <time>2022-04-05T11:35:02Z</time>
      </trkpt>
      <trkpt lat="44.89615" lon="0.32894">
        <ele>83.1</ele>
        <time>2022-04-05T11:35:03Z</time>
      </trkpt>
      <trkpt lat="44.89614" lon="0.32893">
        <ele>83.1</ele>
        <time>2022-04-05T11:35:04Z</time>
      </trkpt>
      <trkpt lat="44.89611" lon="0.32891">
        <ele>83.2</ele>
        <time>2022-04-05T11:35:06Z</time>
      </trkpt>
      <trkpt lat="44.89611" lon="0.3289">
        <ele>83.2</ele>
        <time>2022-04-05T11:35:07Z</time>
      </trkpt>
      <trkpt lat="44.8961" lon="0.32889">
        <ele>83.2</ele>
        <time>2022-04-05T11:35:08Z</time>
      </trkpt>
      <trkpt lat="44.89609" lon="0.32888">
        <ele>83.3</ele>
        <time>2022-04-05T11:35:09Z</time>
      </trkpt>
      <trkpt lat="44.89608" lon="0.32888">
        <ele>83.3</ele>
        <time>2022-04-05T11:35:10Z</time>
      </trkpt>
      <trkpt lat="44.89606" lon="0.32887">
        <ele>83.3</ele>
        <time>2022-04-05T11:35:11Z</time>
      </trkpt>
      <trkpt lat="44.89606" lon="0.32886">
        <ele>83.3</ele>
        <time>2022-04-05T11:35:12Z</time>
      </trkpt>
      <trkpt lat="44.89605" lon="0.32886">
        <ele>83.4</ele>
        <time>2022-04-05T11:35:13Z</time>
      </trkpt>
      <trkpt lat="44.89603" lon="0.32885">
        <ele>83.4</ele>
        <time>2022-04-05T11:35:14Z</time>
      </trkpt>
      <trkpt lat="44.89601" lon="0.32884">
        <ele>83.5</ele>
        <time>2022-04-05T11:35:15Z</time>
      </trkpt>
      <trkpt lat="44.896" lon="0.32883">
        <ele>83.5</ele>
        <time>2022-04-05T11:35:17Z</time>
      </trkpt>
      <trkpt lat="44.89599" lon="0.32882">
        <ele>83.5</ele>
        <time>2022-04-05T11:35:18Z</time>
      </trkpt>
      <trkpt lat="44.89598" lon="0.32881">
        <ele>83.5</ele>
        <time>2022-04-05T11:35:19Z</time>
      </trkpt>
      <trkpt lat="44.89597" lon="0.3288">
        <ele>83.6</ele>
        <time>2022-04-05T11:35:20Z</time>
      </trkpt>
      <trkpt lat="44.89595" lon="0.32878">
        <ele>83.6</ele>
        <time>2022-04-05T11:35:21Z</time>
      </trkpt>
      <trkpt lat="44.89595" lon="0.32878">
        <ele>83.6</ele>
        <time>2022-04-05T11:35:22Z</time>
      </trkpt>
      <trkpt lat="44.89594" lon="0.32876">
        <ele>83.7</ele>
        <time>2022-04-05T11:35:23Z</time>
      </trkpt>
      <trkpt lat="44.89593" lon="0.32876">
        <ele>83.7</ele>
        <time>2022-04-05T11:35:24Z</time>
      </trkpt>
      <trkpt lat="44.89592" lon="0.32875">
        <ele>83.7</ele>
        <time>2022-04-05T11:35:25Z</time>
      </trkpt>
      <trkpt lat="44.8959" lon="0.32873">
        <ele>83.8</ele>
        <time>2022-04-05T11:35:26Z</time>
      </trkpt>
      <trkpt lat="44.89589" lon="0.32873">
        <ele>83.8</ele>
        <time>2022-04-05T11:35:27Z</time>
      </trkpt>
      <trkpt lat="44.89588" lon="0.32872">
        <ele>83.8</ele>
        <time>2022-04-05T11:35:28Z</time>
      </trkpt>
      <trkpt lat="44.89587" lon="0.32872">
        <ele>83.9</ele>
        <time>2022-04-05T11:35:29Z</time>
      </trkpt>
      <trkpt lat="44.89586" lon="0.32871">
        <ele>83.9</ele>
        <time>2022-04-05T11:35:30Z</time>
      </trkpt>
      <trkpt lat="44.89583" lon="0.32869">
        <ele>84</ele>
        <time>2022-04-05T11:35:31Z</time>
      </trkpt>
      <trkpt lat="44.89583" lon="0.32869">
        <ele>84</ele>
        <time>2022-04-05T11:35:32Z</time>
      </trkpt>
      <trkpt lat="44.89582" lon="0.32868">
        <ele>84</ele>
        <time>2022-04-05T11:35:33Z</time>
      </trkpt>
      <trkpt lat="44.89581" lon="0.32867">
        <ele>84.1</ele>
        <time>2022-04-05T11:35:34Z</time>
      </trkpt>
      <trkpt lat="44.8958" lon="0.32867">
        <ele>84.1</ele>
        <time>2022-04-05T11:35:35Z</time>
      </trkpt>
      <trkpt lat="44.89578" lon="0.32865">
        <ele>84.2</ele>
        <time>2022-04-05T11:35:36Z</time>
      </trkpt>
      <trkpt lat="44.89577" lon="0.32864">
        <ele>84.2</ele>
        <time>2022-04-05T11:35:37Z</time>
      </trkpt>
      <trkpt lat="44.89576" lon="0.32863">
        <ele>84.3</ele>
        <time>2022-04-05T11:35:38Z</time>
      </trkpt>
      <trkpt lat="44.89575" lon="0.32862">
        <ele>84.3</ele>
        <time>2022-04-05T11:35:39Z</time>
      </trkpt>
      <trkpt lat="44.89574" lon="0.3286">
        <ele>84.4</ele>
        <time>2022-04-05T11:35:40Z</time>
      </trkpt>
      <trkpt lat="44.89573" lon="0.32859">
        <ele>84.4</ele>
        <time>2022-04-05T11:35:41Z</time>
      </trkpt>
      <trkpt lat="44.89571" lon="0.32858">
        <ele>84.5</ele>
        <time>2022-04-05T11:35:42Z</time>
      </trkpt>
      <trkpt lat="44.8957" lon="0.32857">
        <ele>84.5</ele>
        <time>2022-04-05T11:35:43Z</time>
      </trkpt>
      <trkpt lat="44.89569" lon="0.32857">
        <ele>84.6</ele>
        <time>2022-04-05T11:35:44Z</time>
      </trkpt>
      <trkpt lat="44.89568" lon="0.32856">
        <ele>84.6</ele>
        <time>2022-04-05T11:35:46Z</time>
      </trkpt>
      <trkpt lat="44.89567" lon="0.32855">
        <ele>84.7</ele>
        <time>2022-04-05T11:35:47Z</time>
      </trkpt>
      <trkpt lat="44.89566" lon="0.32854">
        <ele>84.7</ele>
        <time>2022-04-05T11:35:48Z</time>
      </trkpt>
      <trkpt lat="44.89565" lon="0.32853">
        <ele>84.8</ele>
        <time>2022-04-05T11:35:49Z</time>
      </trkpt>
      <trkpt lat="44.89564" lon="0.32853">
        <ele>84.8</ele>
        <time>2022-04-05T11:35:50Z</time>
      </trkpt>
      <trkpt lat="44.89562" lon="0.32851">
        <ele>85</ele>
        <time>2022-04-05T11:35:51Z</time>
      </trkpt>
      <trkpt lat="44.89561" lon="0.32851">
        <ele>85</ele>
        <time>2022-04-05T11:35:52Z</time>
      </trkpt>
      <trkpt lat="44.89561" lon="0.3285">
        <ele>85</ele>
        <time>2022-04-05T11:35:53Z</time>
      </trkpt>
      <trkpt lat="44.89559" lon="0.3285">
        <ele>85.1</ele>
        <time>2022-04-05T11:35:54Z</time>
      </trkpt>
      <trkpt lat="44.89558" lon="0.32849">
        <ele>85.2</ele>
        <time>2022-04-05T11:35:55Z</time>
      </trkpt>
      <trkpt lat="44.89556" lon="0.32848">
        <ele>85.3</ele>
        <time>2022-04-05T11:35:57Z</time>
      </trkpt>
      <trkpt lat="44.89555" lon="0.32847">
        <ele>85.3</ele>
        <time>2022-04-05T11:35:58Z</time>
      </trkpt>
      <trkpt lat="44.89554" lon="0.32846">
        <ele>85.4</ele>
        <time>2022-04-05T11:35:59Z</time>
      </trkpt>
      <trkpt lat="44.89553" lon="0.32846">
        <ele>85.5</ele>
        <time>2022-04-05T11:36:00Z</time>
      </trkpt>
      <trkpt lat="44.89551" lon="0.32845">
        <ele>85.6</ele>
        <time>2022-04-05T11:36:02Z</time>
      </trkpt>
      <trkpt lat="44.89549" lon="0.32843">
        <ele>85.7</ele>
        <time>2022-04-05T11:36:03Z</time>
      </trkpt>
      <trkpt lat="44.89549" lon="0.32843">
        <ele>85.8</ele>
        <time>2022-04-05T11:36:04Z</time>
      </trkpt>
      <trkpt lat="44.89548" lon="0.32842">
        <ele>85.8</ele>
        <time>2022-04-05T11:36:05Z</time>
      </trkpt>
      <trkpt lat="44.89546" lon="0.3284">
        <ele>86</ele>
        <time>2022-04-05T11:36:06Z</time>
      </trkpt>
      <trkpt lat="44.89545" lon="0.3284">
        <ele>86</ele>
        <time>2022-04-05T11:36:07Z</time>
      </trkpt>
      <trkpt lat="44.89544" lon="0.32839">
        <ele>86.1</ele>
        <time>2022-04-05T11:36:08Z</time>
      </trkpt>
      <trkpt lat="44.89543" lon="0.32839">
        <ele>86.1</ele>
        <time>2022-04-05T11:36:09Z</time>
      </trkpt>
      <trkpt lat="44.89542" lon="0.32838">
        <ele>86.2</ele>
        <time>2022-04-05T11:36:10Z</time>
      </trkpt>
      <trkpt lat="44.8954" lon="0.32837">
        <ele>86.3</ele>
        <time>2022-04-05T11:36:11Z</time>
      </trkpt>
      <trkpt lat="44.89539" lon="0.32837">
        <ele>86.4</ele>
        <time>2022-04-05T11:36:12Z</time>
      </trkpt>
      <trkpt lat="44.89538" lon="0.32836">
        <ele>86.5</ele>
        <time>2022-04-05T11:36:13Z</time>
      </trkpt>
      <trkpt lat="44.89537" lon="0.32836">
        <ele>86.5</ele>
        <time>2022-04-05T11:36:14Z</time>
      </trkpt>
      <trkpt lat="44.89535" lon="0.32835">
        <ele>86.6</ele>
        <time>2022-04-05T11:36:16Z</time>
      </trkpt>
      <trkpt lat="44.89534" lon="0.32834">
        <ele>86.7</ele>
        <time>2022-04-05T11:36:17Z</time>
      </trkpt>
      <trkpt lat="44.89533" lon="0.32834">
        <ele>86.8</ele>
        <time>2022-04-05T11:36:18Z</time>
      </trkpt>
      <trkpt lat="44.89532" lon="0.32833">
        <ele>86.8</ele>
        <time>2022-04-05T11:36:19Z</time>
      </trkpt>
      <trkpt lat="44.89531" lon="0.32833">
        <ele>86.9</ele>
        <time>2022-04-05T11:36:20Z</time>
      </trkpt>
      <trkpt lat="44.89528" lon="0.32831">
        <ele>87.1</ele>
        <time>2022-04-05T11:36:21Z</time>
      </trkpt>
      <trkpt lat="44.89528" lon="0.32831">
        <ele>87.1</ele>
        <time>2022-04-05T11:36:22Z</time>
      </trkpt>
      <trkpt lat="44.89527" lon="0.3283">
        <ele>87.2</ele>
        <time>2022-04-05T11:36:23Z</time>
      </trkpt>
      <trkpt lat="44.89526" lon="0.32829">
        <ele>87.2</ele>
        <time>2022-04-05T11:36:24Z</time>
      </trkpt>
      <trkpt lat="44.89525" lon="0.32829">
        <ele>87.3</ele>
        <time>2022-04-05T11:36:25Z</time>
      </trkpt>
      <trkpt lat="44.89523" lon="0.32827">
        <ele>87.4</ele>
        <time>2022-04-05T11:36:26Z</time>
      </trkpt>
      <trkpt lat="44.89523" lon="0.32827">
        <ele>87.5</ele>
        <time>2022-04-05T11:36:28Z</time>
      </trkpt>
      <trkpt lat="44.89521" lon="0.32826">
        <ele>87.6</ele>
        <time>2022-04-05T11:36:29Z</time>
      </trkpt>
      <trkpt lat="44.8952" lon="0.32826">
        <ele>87.6</ele>
        <time>2022-04-05T11:36:30Z</time>
      </trkpt>
      <trkpt lat="44.89518" lon="0.32825">
        <ele>87.8</ele>
        <time>2022-04-05T11:36:32Z</time>
      </trkpt>
      <trkpt lat="44.89517" lon="0.32825">
        <ele>87.9</ele>
        <time>2022-04-05T11:36:33Z</time>
      </trkpt>
      <trkpt lat="44.89516" lon="0.32824">
        <ele>87.9</ele>
        <time>2022-04-05T11:36:34Z</time>
      </trkpt>
      <trkpt lat="44.89515" lon="0.32823">
        <ele>88</ele>
        <time>2022-04-05T11:36:35Z</time>
      </trkpt>
      <trkpt lat="44.89512" lon="0.32822">
        <ele>88.3</ele>
        <time>2022-04-05T11:36:36Z</time>
      </trkpt>
      <trkpt lat="44.89511" lon="0.32821">
        <ele>88.3</ele>
        <time>2022-04-05T11:36:38Z</time>
      </trkpt>
      <trkpt lat="44.8951" lon="0.32821">
        <ele>88.4</ele>
        <time>2022-04-05T11:36:39Z</time>
      </trkpt>
      <trkpt lat="44.89509" lon="0.32821">
        <ele>88.5</ele>
        <time>2022-04-05T11:36:40Z</time>
      </trkpt>
      <trkpt lat="44.89508" lon="0.32821">
        <ele>88.6</ele>
        <time>2022-04-05T11:36:41Z</time>
      </trkpt>
      <trkpt lat="44.89505" lon="0.3282">
        <ele>88.8</ele>
        <time>2022-04-05T11:36:42Z</time>
      </trkpt>
      <trkpt lat="44.89505" lon="0.32819">
        <ele>88.8</ele>
        <time>2022-04-05T11:36:43Z</time>
      </trkpt>
      <trkpt lat="44.89504" lon="0.32819">
        <ele>88.9</ele>
        <time>2022-04-05T11:36:44Z</time>
      </trkpt>
      <trkpt lat="44.89503" lon="0.32818">
        <ele>89</ele>
        <time>2022-04-05T11:36:45Z</time>
      </trkpt>
      <trkpt lat="44.89501" lon="0.32817">
        <ele>89.1</ele>
        <time>2022-04-05T11:36:46Z</time>
      </trkpt>
      <trkpt lat="44.89501" lon="0.32816">
        <ele>89.2</ele>
        <time>2022-04-05T11:36:47Z</time>
      </trkpt>
      <trkpt lat="44.89499" lon="0.32815">
        <ele>89.3</ele>
        <time>2022-04-05T11:36:48Z</time>
      </trkpt>
      <trkpt lat="44.89498" lon="0.32814">
        <ele>89.5</ele>
        <time>2022-04-05T11:36:50Z</time>
      </trkpt>
      <trkpt lat="44.89496" lon="0.32812">
        <ele>89.7</ele>
        <time>2022-04-05T11:36:51Z</time>
      </trkpt>
      <trkpt lat="44.89495" lon="0.32812">
        <ele>89.8</ele>
        <time>2022-04-05T11:36:52Z</time>
      </trkpt>
      <trkpt lat="44.89494" lon="0.32812">
        <ele>90</ele>
        <time>2022-04-05T11:36:53Z</time>
      </trkpt>
      <trkpt lat="44.89493" lon="0.32812">
        <ele>90</ele>
        <time>2022-04-05T11:36:55Z</time>
      </trkpt>
      <trkpt lat="44.89492" lon="0.32812">
        <ele>90.1</ele>
        <time>2022-04-05T11:36:56Z</time>
      </trkpt>
      <trkpt lat="44.8949" lon="0.32811">
        <ele>90.4</ele>
        <time>2022-04-05T11:36:57Z</time>
      </trkpt>
      <trkpt lat="44.89489" lon="0.32811">
        <ele>90.4</ele>
        <time>2022-04-05T11:36:58Z</time>
      </trkpt>
      <trkpt lat="44.89488" lon="0.32811">
        <ele>90.5</ele>
        <time>2022-04-05T11:36:59Z</time>
      </trkpt>
      <trkpt lat="44.89487" lon="0.3281">
        <ele>90.6</ele>
        <time>2022-04-05T11:37:00Z</time>
      </trkpt>
      <trkpt lat="44.89486" lon="0.32808">
        <ele>90.8</ele>
        <time>2022-04-05T11:37:01Z</time>
      </trkpt>
      <trkpt lat="44.89485" lon="0.32808">
        <ele>90.9</ele>
        <time>2022-04-05T11:37:02Z</time>
      </trkpt>
      <trkpt lat="44.89484" lon="0.32807">
        <ele>91</ele>
        <time>2022-04-05T11:37:04Z</time>
      </trkpt>
      <trkpt lat="44.89483" lon="0.32807">
        <ele>91.1</ele>
        <time>2022-04-05T11:37:05Z</time>
      </trkpt>
      <trkpt lat="44.89481" lon="0.32805">
        <ele>91.3</ele>
        <time>2022-04-05T11:37:07Z</time>
      </trkpt>
      <trkpt lat="44.89481" lon="0.32804">
        <ele>91.4</ele>
        <time>2022-04-05T11:37:08Z</time>
      </trkpt>
      <trkpt lat="44.89478" lon="0.32803">
        <ele>91.7</ele>
        <time>2022-04-05T11:37:09Z</time>
      </trkpt>
      <trkpt lat="44.89478" lon="0.32802">
        <ele>91.8</ele>
        <time>2022-04-05T11:37:10Z</time>
      </trkpt>
      <trkpt lat="44.89476" lon="0.32802">
        <ele>91.9</ele>
        <time>2022-04-05T11:37:11Z</time>
      </trkpt>
      <trkpt lat="44.89476" lon="0.32801">
        <ele>92</ele>
        <time>2022-04-05T11:37:12Z</time>
      </trkpt>
      <trkpt lat="44.89475" lon="0.328">
        <ele>92.1</ele>
        <time>2022-04-05T11:37:13Z</time>
      </trkpt>
      <trkpt lat="44.89474" lon="0.32799">
        <ele>92.3</ele>
        <time>2022-04-05T11:37:15Z</time>
      </trkpt>
      <trkpt lat="44.89473" lon="0.32798">
        <ele>92.4</ele>
        <time>2022-04-05T11:37:16Z</time>
      </trkpt>
      <trkpt lat="44.89472" lon="0.32796">
        <ele>92.5</ele>
        <time>2022-04-05T11:37:17Z</time>
      </trkpt>
      <trkpt lat="44.89472" lon="0.32795">
        <ele>92.6</ele>
        <time>2022-04-05T11:37:18Z</time>
      </trkpt>
      <trkpt lat="44.89471" lon="0.32792">
        <ele>92.8</ele>
        <time>2022-04-05T11:37:19Z</time>
      </trkpt>
      <trkpt lat="44.89471" lon="0.3279">
        <ele>92.9</ele>
        <time>2022-04-05T11:37:20Z</time>
      </trkpt>
      <trkpt lat="44.89471" lon="0.32789">
        <ele>93</ele>
        <time>2022-04-05T11:37:21Z</time>
      </trkpt>
      <trkpt lat="44.89471" lon="0.32788">
        <ele>93.1</ele>
        <time>2022-04-05T11:37:23Z</time>
      </trkpt>
      <trkpt lat="44.89471" lon="0.32786">
        <ele>93.2</ele>
        <time>2022-04-05T11:37:24Z</time>
      </trkpt>
      <trkpt lat="44.89471" lon="0.32784">
        <ele>93.3</ele>
        <time>2022-04-05T11:37:25Z</time>
      </trkpt>
      <trkpt lat="44.8947" lon="0.32781">
        <ele>93.5</ele>
        <time>2022-04-05T11:37:27Z</time>
      </trkpt>
      <trkpt lat="44.89471" lon="0.3278">
        <ele>93.6</ele>
        <time>2022-04-05T11:37:28Z</time>
      </trkpt>
      <trkpt lat="44.89471" lon="0.32778">
        <ele>93.7</ele>
        <time>2022-04-05T11:37:29Z</time>
      </trkpt>
      <trkpt lat="44.89471" lon="0.32777">
        <ele>93.8</ele>
        <time>2022-04-05T11:37:30Z</time>
      </trkpt>
      <trkpt lat="44.89472" lon="0.32773">
        <ele>94</ele>
        <time>2022-04-05T11:37:32Z</time>
      </trkpt>
      <trkpt lat="44.89472" lon="0.32772">
        <ele>94</ele>
        <time>2022-04-05T11:37:33Z</time>
      </trkpt>
      <trkpt lat="44.89472" lon="0.3277">
        <ele>94.1</ele>
        <time>2022-04-05T11:37:34Z</time>
      </trkpt>
      <trkpt lat="44.89472" lon="0.32768">
        <ele>94.2</ele>
        <time>2022-04-05T11:37:35Z</time>
      </trkpt>
      <trkpt lat="44.89472" lon="0.32766">
        <ele>94.6</ele>
        <time>2022-04-05T11:37:37Z</time>
      </trkpt>
      <trkpt lat="44.89471" lon="0.32765">
        <ele>94.6</ele>
        <time>2022-04-05T11:37:38Z</time>
      </trkpt>
      <trkpt lat="44.89471" lon="0.32765">
        <ele>94.7</ele>
        <time>2022-04-05T11:37:39Z</time>
      </trkpt>
      <trkpt lat="44.89471" lon="0.32763">
        <ele>94.7</ele>
        <time>2022-04-05T11:37:40Z</time>
      </trkpt>
      <trkpt lat="44.8947" lon="0.32763">
        <ele>94.8</ele>
        <time>2022-04-05T11:37:41Z</time>
      </trkpt>
      <trkpt lat="44.8947" lon="0.32763">
        <ele>94.8</ele>
        <time>2022-04-05T11:37:42Z</time>
      </trkpt>
      <trkpt lat="44.8947" lon="0.32762">
        <ele>94.9</ele>
        <time>2022-04-05T11:37:43Z</time>
      </trkpt>
      <trkpt lat="44.89469" lon="0.32762">
        <ele>94.9</ele>
        <time>2022-04-05T11:37:44Z</time>
      </trkpt>
      <trkpt lat="44.89469" lon="0.32762">
        <ele>94.9</ele>
        <time>2022-04-05T11:37:45Z</time>
      </trkpt>
      <trkpt lat="44.89468" lon="0.32761">
        <ele>95</ele>
        <time>2022-04-05T11:37:47Z</time>
      </trkpt>
      <trkpt lat="44.89468" lon="0.32761">
        <ele>95</ele>
        <time>2022-04-05T11:37:48Z</time>
      </trkpt>
      <trkpt lat="44.89468" lon="0.32761">
        <ele>95</ele>
        <time>2022-04-05T11:37:49Z</time>
      </trkpt>
      <trkpt lat="44.89467" lon="0.3276">
        <ele>95.1</ele>
        <time>2022-04-05T11:37:51Z</time>
      </trkpt>
      <trkpt lat="44.89467" lon="0.3276">
        <ele>95.1</ele>
        <time>2022-04-05T11:37:52Z</time>
      </trkpt>
      <trkpt lat="44.89466" lon="0.3276">
        <ele>95.2</ele>
        <time>2022-04-05T11:37:53Z</time>
      </trkpt>
      <trkpt lat="44.89466" lon="0.32759">
        <ele>95.2</ele>
        <time>2022-04-05T11:37:54Z</time>
      </trkpt>
      <trkpt lat="44.89464" lon="0.32759">
        <ele>95.3</ele>
        <time>2022-04-05T11:37:56Z</time>
      </trkpt>
      <trkpt lat="44.89462" lon="0.32759">
        <ele>95.4</ele>
        <time>2022-04-05T11:37:57Z</time>
      </trkpt>
      <trkpt lat="44.89461" lon="0.3276">
        <ele>95.5</ele>
        <time>2022-04-05T11:37:58Z</time>
      </trkpt>
      <trkpt lat="44.8946" lon="0.3276">
        <ele>95.6</ele>
        <time>2022-04-05T11:37:59Z</time>
      </trkpt>
      <trkpt lat="44.89458" lon="0.32761">
        <ele>95.8</ele>
        <time>2022-04-05T11:38:01Z</time>
      </trkpt>
      <trkpt lat="44.89456" lon="0.32761">
        <ele>95.9</ele>
        <time>2022-04-05T11:38:02Z</time>
      </trkpt>
      <trkpt lat="44.89455" lon="0.32762">
        <ele>95.9</ele>
        <time>2022-04-05T11:38:03Z</time>
      </trkpt>
      <trkpt lat="44.89454" lon="0.32762">
        <ele>96</ele>
        <time>2022-04-05T11:38:04Z</time>
      </trkpt>
      <trkpt lat="44.89453" lon="0.32762">
        <ele>96</ele>
        <time>2022-04-05T11:38:05Z</time>
      </trkpt>
      <trkpt lat="44.89451" lon="0.32763">
        <ele>96.1</ele>
        <time>2022-04-05T11:38:06Z</time>
      </trkpt>
      <trkpt lat="44.8945" lon="0.32763">
        <ele>96.1</ele>
        <time>2022-04-05T11:38:08Z</time>
      </trkpt>
      <trkpt lat="44.89449" lon="0.32763">
        <ele>96.2</ele>
        <time>2022-04-05T11:38:09Z</time>
      </trkpt>
      <trkpt lat="44.89448" lon="0.32763">
        <ele>96.2</ele>
        <time>2022-04-05T11:38:10Z</time>
      </trkpt>
      <trkpt lat="44.89447" lon="0.32763">
        <ele>96.3</ele>
        <time>2022-04-05T11:38:11Z</time>
      </trkpt>
      <trkpt lat="44.89445" lon="0.32763">
        <ele>96.3</ele>
        <time>2022-04-05T11:38:12Z</time>
      </trkpt>
      <trkpt lat="44.89445" lon="0.32763">
        <ele>96.4</ele>
        <time>2022-04-05T11:38:13Z</time>
      </trkpt>
      <trkpt lat="44.89443" lon="0.32763">
        <ele>96.4</ele>
        <time>2022-04-05T11:38:15Z</time>
      </trkpt>
      <trkpt lat="44.89442" lon="0.32763">
        <ele>96.4</ele>
        <time>2022-04-05T11:38:16Z</time>
      </trkpt>
      <trkpt lat="44.89441" lon="0.32764">
        <ele>96.5</ele>
        <time>2022-04-05T11:38:17Z</time>
      </trkpt>
      <trkpt lat="44.8944" lon="0.32765">
        <ele>96.5</ele>
        <time>2022-04-05T11:38:18Z</time>
      </trkpt>
      <trkpt lat="44.89439" lon="0.32765">
        <ele>96.5</ele>
        <time>2022-04-05T11:38:19Z</time>
      </trkpt>
      <trkpt lat="44.89437" lon="0.32767">
        <ele>96.6</ele>
        <time>2022-04-05T11:38:20Z</time>
      </trkpt>
      <trkpt lat="44.89436" lon="0.32768">
        <ele>96.6</ele>
        <time>2022-04-05T11:38:21Z</time>
      </trkpt>
      <trkpt lat="44.89435" lon="0.32768">
        <ele>96.6</ele>
        <time>2022-04-05T11:38:22Z</time>
      </trkpt>
      <trkpt lat="44.89434" lon="0.32771">
        <ele>96.6</ele>
        <time>2022-04-05T11:38:23Z</time>
      </trkpt>
      <trkpt lat="44.89434" lon="0.32772">
        <ele>96.6</ele>
        <time>2022-04-05T11:38:25Z</time>
      </trkpt>
      <trkpt lat="44.89434" lon="0.32774">
        <ele>96.6</ele>
        <time>2022-04-05T11:38:26Z</time>
      </trkpt>
      <trkpt lat="44.89433" lon="0.32777">
        <ele>96.6</ele>
        <time>2022-04-05T11:38:27Z</time>
      </trkpt>
      <trkpt lat="44.89433" lon="0.32778">
        <ele>96.6</ele>
        <time>2022-04-05T11:38:28Z</time>
      </trkpt>
      <trkpt lat="44.89433" lon="0.3278">
        <ele>96.7</ele>
        <time>2022-04-05T11:38:29Z</time>
      </trkpt>
      <trkpt lat="44.89434" lon="0.32782">
        <ele>96.7</ele>
        <time>2022-04-05T11:38:30Z</time>
      </trkpt>
      <trkpt lat="44.89433" lon="0.32784">
        <ele>96.7</ele>
        <time>2022-04-05T11:38:31Z</time>
      </trkpt>
      <trkpt lat="44.89433" lon="0.32787">
        <ele>96.7</ele>
        <time>2022-04-05T11:38:32Z</time>
      </trkpt>
      <trkpt lat="44.89434" lon="0.32788">
        <ele>96.7</ele>
        <time>2022-04-05T11:38:33Z</time>
      </trkpt>
      <trkpt lat="44.89433" lon="0.3279">
        <ele>96.7</ele>
        <time>2022-04-05T11:38:34Z</time>
      </trkpt>
      <trkpt lat="44.89433" lon="0.32792">
        <ele>96.8</ele>
        <time>2022-04-05T11:38:36Z</time>
      </trkpt>
      <trkpt lat="44.89432" lon="0.32795">
        <ele>96.8</ele>
        <time>2022-04-05T11:38:37Z</time>
      </trkpt>
      <trkpt lat="44.89432" lon="0.32795">
        <ele>96.8</ele>
        <time>2022-04-05T11:38:38Z</time>
      </trkpt>
      <trkpt lat="44.89431" lon="0.32796">
        <ele>96.8</ele>
        <time>2022-04-05T11:38:39Z</time>
      </trkpt>
      <trkpt lat="44.89431" lon="0.32798">
        <ele>96.8</ele>
        <time>2022-04-05T11:38:40Z</time>
      </trkpt>
      <trkpt lat="44.89432" lon="0.328">
        <ele>96.8</ele>
        <time>2022-04-05T11:38:41Z</time>
      </trkpt>
      <trkpt lat="44.89431" lon="0.32804">
        <ele>96.9</ele>
        <time>2022-04-05T11:38:43Z</time>
      </trkpt>
      <trkpt lat="44.89431" lon="0.32805">
        <ele>96.9</ele>
        <time>2022-04-05T11:38:44Z</time>
      </trkpt>
      <trkpt lat="44.89431" lon="0.32807">
        <ele>96.9</ele>
        <time>2022-04-05T11:38:45Z</time>
      </trkpt>
      <trkpt lat="44.89432" lon="0.32809">
        <ele>96.9</ele>
        <time>2022-04-05T11:38:47Z</time>
      </trkpt>
      <trkpt lat="44.89432" lon="0.32811">
        <ele>97</ele>
        <time>2022-04-05T11:38:48Z</time>
      </trkpt>
      <trkpt lat="44.89433" lon="0.32813">
        <ele>97</ele>
        <time>2022-04-05T11:38:49Z</time>
      </trkpt>
      <trkpt lat="44.89433" lon="0.32815">
        <ele>97</ele>
        <time>2022-04-05T11:38:50Z</time>
      </trkpt>
      <trkpt lat="44.89433" lon="0.32817">
        <ele>97</ele>
        <time>2022-04-05T11:38:51Z</time>
      </trkpt>
      <trkpt lat="44.89433" lon="0.32819">
        <ele>97.1</ele>
        <time>2022-04-05T11:38:52Z</time>
      </trkpt>
      <trkpt lat="44.89433" lon="0.32821">
        <ele>97.1</ele>
        <time>2022-04-05T11:38:54Z</time>
      </trkpt>
      <trkpt lat="44.89433" lon="0.32823">
        <ele>97.1</ele>
        <time>2022-04-05T11:38:55Z</time>
      </trkpt>
      <trkpt lat="44.89432" lon="0.32826">
        <ele>97.2</ele>
        <time>2022-04-05T11:38:56Z</time>
      </trkpt>
      <trkpt lat="44.89431" lon="0.32827">
        <ele>97.2</ele>
        <time>2022-04-05T11:38:57Z</time>
      </trkpt>
      <trkpt lat="44.89431" lon="0.32828">
        <ele>97.2</ele>
        <time>2022-04-05T11:38:58Z</time>
      </trkpt>
      <trkpt lat="44.8943" lon="0.3283">
        <ele>97.2</ele>
        <time>2022-04-05T11:38:59Z</time>
      </trkpt>
      <trkpt lat="44.89429" lon="0.32832">
        <ele>97.3</ele>
        <time>2022-04-05T11:39:00Z</time>
      </trkpt>
      <trkpt lat="44.89429" lon="0.32833">
        <ele>97.3</ele>
        <time>2022-04-05T11:39:01Z</time>
      </trkpt>
      <trkpt lat="44.89429" lon="0.32835">
        <ele>97.3</ele>
        <time>2022-04-05T11:39:02Z</time>
      </trkpt>
      <trkpt lat="44.89429" lon="0.32837">
        <ele>97.3</ele>
        <time>2022-04-05T11:39:03Z</time>
      </trkpt>
      <trkpt lat="44.89429" lon="0.3284">
        <ele>97.4</ele>
        <time>2022-04-05T11:39:04Z</time>
      </trkpt>
      <trkpt lat="44.89428" lon="0.32842">
        <ele>97.4</ele>
        <time>2022-04-05T11:39:06Z</time>
      </trkpt>
      <trkpt lat="44.89428" lon="0.32843">
        <ele>97.4</ele>
        <time>2022-04-05T11:39:07Z</time>
      </trkpt>
      <trkpt lat="44.89428" lon="0.32845">
        <ele>97.5</ele>
        <time>2022-04-05T11:39:08Z</time>
      </trkpt>
      <trkpt lat="44.89427" lon="0.32846">
        <ele>97.5</ele>
        <time>2022-04-05T11:39:09Z</time>
      </trkpt>
      <trkpt lat="44.89427" lon="0.32848">
        <ele>97.5</ele>
        <time>2022-04-05T11:39:10Z</time>
      </trkpt>
      <trkpt lat="44.89426" lon="0.3285">
        <ele>97.6</ele>
        <time>2022-04-05T11:39:11Z</time>
      </trkpt>
      <trkpt lat="44.89426" lon="0.32852">
        <ele>97.6</ele>
        <time>2022-04-05T11:39:12Z</time>
      </trkpt>
      <trkpt lat="44.89426" lon="0.32853">
        <ele>97.6</ele>
        <time>2022-04-05T11:39:13Z</time>
      </trkpt>
      <trkpt lat="44.89426" lon="0.32855">
        <ele>97.6</ele>
        <time>2022-04-05T11:39:14Z</time>
      </trkpt>
      <trkpt lat="44.89426" lon="0.32858">
        <ele>97.7</ele>
        <time>2022-04-05T11:39:15Z</time>
      </trkpt>
      <trkpt lat="44.89426" lon="0.32859">
        <ele>97.7</ele>
        <time>2022-04-05T11:39:16Z</time>
      </trkpt>
      <trkpt lat="44.89426" lon="0.3286">
        <ele>97.7</ele>
        <time>2022-04-05T11:39:17Z</time>
      </trkpt>
      <trkpt lat="44.89426" lon="0.32862">
        <ele>97.8</ele>
        <time>2022-04-05T11:39:18Z</time>
      </trkpt>
      <trkpt lat="44.89426" lon="0.32866">
        <ele>97.8</ele>
        <time>2022-04-05T11:39:20Z</time>
      </trkpt>
      <trkpt lat="44.89426" lon="0.32869">
        <ele>97.9</ele>
        <time>2022-04-05T11:39:21Z</time>
      </trkpt>
      <trkpt lat="44.89426" lon="0.3287">
        <ele>97.9</ele>
        <time>2022-04-05T11:39:22Z</time>
      </trkpt>
      <trkpt lat="44.89426" lon="0.32871">
        <ele>97.9</ele>
        <time>2022-04-05T11:39:23Z</time>
      </trkpt>
      <trkpt lat="44.89426" lon="0.32873">
        <ele>97.9</ele>
        <time>2022-04-05T11:39:24Z</time>
      </trkpt>
      <trkpt lat="44.89426" lon="0.32876">
        <ele>98</ele>
        <time>2022-04-05T11:39:25Z</time>
      </trkpt>
      <trkpt lat="44.89426" lon="0.32878">
        <ele>98</ele>
        <time>2022-04-05T11:39:27Z</time>
      </trkpt>
      <trkpt lat="44.89426" lon="0.3288">
        <ele>98</ele>
        <time>2022-04-05T11:39:28Z</time>
      </trkpt>
      <trkpt lat="44.89426" lon="0.32882">
        <ele>98.1</ele>
        <time>2022-04-05T11:39:29Z</time>
      </trkpt>
      <trkpt lat="44.89426" lon="0.32885">
        <ele>98.1</ele>
        <time>2022-04-05T11:39:31Z</time>
      </trkpt>
      <trkpt lat="44.89427" lon="0.32886">
        <ele>98.1</ele>
        <time>2022-04-05T11:39:32Z</time>
      </trkpt>
      <trkpt lat="44.89427" lon="0.32888">
        <ele>98.2</ele>
        <time>2022-04-05T11:39:33Z</time>
      </trkpt>
      <trkpt lat="44.89427" lon="0.32891">
        <ele>98.2</ele>
        <time>2022-04-05T11:39:34Z</time>
      </trkpt>
      <trkpt lat="44.89427" lon="0.32893">
        <ele>98.2</ele>
        <time>2022-04-05T11:39:35Z</time>
      </trkpt>
      <trkpt lat="44.89428" lon="0.32896">
        <ele>98.3</ele>
        <time>2022-04-05T11:39:36Z</time>
      </trkpt>
      <trkpt lat="44.89428" lon="0.32898">
        <ele>98.3</ele>
        <time>2022-04-05T11:39:37Z</time>
      </trkpt>
      <trkpt lat="44.89428" lon="0.32899">
        <ele>98.3</ele>
        <time>2022-04-05T11:39:38Z</time>
      </trkpt>
      <trkpt lat="44.89428" lon="0.32901">
        <ele>98.4</ele>
        <time>2022-04-05T11:39:39Z</time>
      </trkpt>
      <trkpt lat="44.89428" lon="0.32904">
        <ele>98.4</ele>
        <time>2022-04-05T11:39:40Z</time>
      </trkpt>
      <trkpt lat="44.89428" lon="0.32907">
        <ele>98.5</ele>
        <time>2022-04-05T11:39:42Z</time>
      </trkpt>
      <trkpt lat="44.89428" lon="0.32908">
        <ele>98.5</ele>
        <time>2022-04-05T11:39:43Z</time>
      </trkpt>
      <trkpt lat="44.89428" lon="0.3291">
        <ele>98.5</ele>
        <time>2022-04-05T11:39:44Z</time>
      </trkpt>
      <trkpt lat="44.89429" lon="0.32912">
        <ele>98.6</ele>
        <time>2022-04-05T11:39:45Z</time>
      </trkpt>
      <trkpt lat="44.89429" lon="0.32913">
        <ele>98.6</ele>
        <time>2022-04-05T11:39:46Z</time>
      </trkpt>
      <trkpt lat="44.89429" lon="0.32916">
        <ele>98.7</ele>
        <time>2022-04-05T11:39:47Z</time>
      </trkpt>
      <trkpt lat="44.89429" lon="0.32918">
        <ele>98.7</ele>
        <time>2022-04-05T11:39:49Z</time>
      </trkpt>
      <trkpt lat="44.8943" lon="0.32919">
        <ele>98.7</ele>
        <time>2022-04-05T11:39:50Z</time>
      </trkpt>
      <trkpt lat="44.8943" lon="0.32921">
        <ele>98.8</ele>
        <time>2022-04-05T11:39:51Z</time>
      </trkpt>
      <trkpt lat="44.89431" lon="0.32924">
        <ele>98.8</ele>
        <time>2022-04-05T11:39:52Z</time>
      </trkpt>
      <trkpt lat="44.89431" lon="0.32925">
        <ele>98.8</ele>
        <time>2022-04-05T11:39:53Z</time>
      </trkpt>
      <trkpt lat="44.89431" lon="0.32926">
        <ele>98.9</ele>
        <time>2022-04-05T11:39:54Z</time>
      </trkpt>
      <trkpt lat="44.89432" lon="0.32929">
        <ele>99</ele>
        <time>2022-04-05T11:39:56Z</time>
      </trkpt>
      <trkpt lat="44.89432" lon="0.3293">
        <ele>99</ele>
        <time>2022-04-05T11:39:57Z</time>
      </trkpt>
      <trkpt lat="44.89432" lon="0.32932">
        <ele>99</ele>
        <time>2022-04-05T11:39:58Z</time>
      </trkpt>
      <trkpt lat="44.89432" lon="0.32933">
        <ele>99.1</ele>
        <time>2022-04-05T11:39:59Z</time>
      </trkpt>
      <trkpt lat="44.89433" lon="0.32937">
        <ele>99.2</ele>
        <time>2022-04-05T11:40:00Z</time>
      </trkpt>
      <trkpt lat="44.89433" lon="0.32938">
        <ele>99.2</ele>
        <time>2022-04-05T11:40:01Z</time>
      </trkpt>
      <trkpt lat="44.89433" lon="0.32941">
        <ele>99.3</ele>
        <time>2022-04-05T11:40:02Z</time>
      </trkpt>
      <trkpt lat="44.89433" lon="0.32942">
        <ele>99.4</ele>
        <time>2022-04-05T11:40:03Z</time>
      </trkpt>
      <trkpt lat="44.89433" lon="0.32943">
        <ele>99.4</ele>
        <time>2022-04-05T11:40:04Z</time>
      </trkpt>
      <trkpt lat="44.89433" lon="0.32945">
        <ele>99.5</ele>
        <time>2022-04-05T11:40:06Z</time>
      </trkpt>
      <trkpt lat="44.89434" lon="0.32947">
        <ele>99.5</ele>
        <time>2022-04-05T11:40:07Z</time>
      </trkpt>
      <trkpt lat="44.89434" lon="0.32951">
        <ele>99.6</ele>
        <time>2022-04-05T11:40:08Z</time>
      </trkpt>
      <trkpt lat="44.89434" lon="0.32952">
        <ele>99.7</ele>
        <time>2022-04-05T11:40:09Z</time>
      </trkpt>
      <trkpt lat="44.89434" lon="0.32954">
        <ele>99.8</ele>
        <time>2022-04-05T11:40:10Z</time>
      </trkpt>
      <trkpt lat="44.89434" lon="0.32955">
        <ele>99.8</ele>
        <time>2022-04-05T11:40:11Z</time>
      </trkpt>
      <trkpt lat="44.89434" lon="0.32956">
        <ele>99.8</ele>
        <time>2022-04-05T11:40:12Z</time>
      </trkpt>
      <trkpt lat="44.89435" lon="0.32958">
        <ele>99.9</ele>
        <time>2022-04-05T11:40:13Z</time>
      </trkpt>
      <trkpt lat="44.89435" lon="0.3296">
        <ele>100</ele>
        <time>2022-04-05T11:40:14Z</time>
      </trkpt>
      <trkpt lat="44.89435" lon="0.32963">
        <ele>100</ele>
        <time>2022-04-05T11:40:15Z</time>
      </trkpt>
      <trkpt lat="44.89435" lon="0.32965">
        <ele>100.1</ele>
        <time>2022-04-05T11:40:17Z</time>
      </trkpt>
      <trkpt lat="44.89435" lon="0.32967">
        <ele>100.2</ele>
        <time>2022-04-05T11:40:18Z</time>
      </trkpt>
      <trkpt lat="44.89435" lon="0.32968">
        <ele>100.2</ele>
        <time>2022-04-05T11:40:19Z</time>
      </trkpt>
      <trkpt lat="44.89436" lon="0.32971">
        <ele>100.3</ele>
        <time>2022-04-05T11:40:20Z</time>
      </trkpt>
      <trkpt lat="44.89436" lon="0.32972">
        <ele>100.3</ele>
        <time>2022-04-05T11:40:21Z</time>
      </trkpt>
      <trkpt lat="44.89437" lon="0.32974">
        <ele>100.4</ele>
        <time>2022-04-05T11:40:23Z</time>
      </trkpt>
      <trkpt lat="44.89438" lon="0.32975">
        <ele>100.5</ele>
        <time>2022-04-05T11:40:24Z</time>
      </trkpt>
      <trkpt lat="44.89438" lon="0.32977">
        <ele>100.5</ele>
        <time>2022-04-05T11:40:25Z</time>
      </trkpt>
      <trkpt lat="44.89439" lon="0.32975">
        <ele>100.6</ele>
        <time>2022-04-05T11:40:26Z</time>
      </trkpt>
      <trkpt lat="44.89439" lon="0.32975">
        <ele>100.6</ele>
        <time>2022-04-05T11:40:27Z</time>
      </trkpt>
      <trkpt lat="44.89439" lon="0.32974">
        <ele>100.6</ele>
        <time>2022-04-05T11:40:28Z</time>
      </trkpt>
      <trkpt lat="44.89439" lon="0.32973">
        <ele>100.7</ele>
        <time>2022-04-05T11:40:29Z</time>
      </trkpt>
      <trkpt lat="44.89439" lon="0.32973">
        <ele>100.7</ele>
        <time>2022-04-05T11:40:30Z</time>
      </trkpt>
      <trkpt lat="44.89439" lon="0.32972">
        <ele>100.7</ele>
        <time>2022-04-05T11:40:31Z</time>
      </trkpt>
      <trkpt lat="44.89439" lon="0.32972">
        <ele>100.7</ele>
        <time>2022-04-05T11:40:32Z</time>
      </trkpt>
      <trkpt lat="44.89439" lon="0.32971">
        <ele>100.7</ele>
        <time>2022-04-05T11:40:33Z</time>
      </trkpt>
      <trkpt lat="44.89439" lon="0.32971">
        <ele>100.7</ele>
        <time>2022-04-05T11:40:34Z</time>
      </trkpt>
      <trkpt lat="44.89439" lon="0.32971">
        <ele>100.8</ele>
        <time>2022-04-05T11:40:35Z</time>
      </trkpt>
      <trkpt lat="44.89439" lon="0.3297">
        <ele>100.8</ele>
        <time>2022-04-05T11:40:36Z</time>
      </trkpt>
      <trkpt lat="44.89439" lon="0.3297">
        <ele>100.8</ele>
        <time>2022-04-05T11:40:38Z</time>
      </trkpt>
      <trkpt lat="44.89439" lon="0.3297">
        <ele>100.8</ele>
        <time>2022-04-05T11:40:39Z</time>
      </trkpt>
      <trkpt lat="44.89439" lon="0.3297">
        <ele>100.8</ele>
        <time>2022-04-05T11:40:41Z</time>
      </trkpt>
      <trkpt lat="44.89439" lon="0.3297">
        <ele>100.8</ele>
        <time>2022-04-05T11:40:42Z</time>
      </trkpt>
      <trkpt lat="44.89439" lon="0.3297">
        <ele>100.8</ele>
        <time>2022-04-05T11:40:43Z</time>
      </trkpt>
      <trkpt lat="44.89439" lon="0.3297">
        <ele>100.8</ele>
        <time>2022-04-05T11:40:44Z</time>
      </trkpt>
      <trkpt lat="44.89439" lon="0.3297">
        <ele>100.8</ele>
        <time>2022-04-05T11:40:45Z</time>
      </trkpt>
      <trkpt lat="44.89439" lon="0.3297">
        <ele>100.8</ele>
        <time>2022-04-05T11:40:46Z</time>
      </trkpt>
      <trkpt lat="44.89438" lon="0.3297">
        <ele>100.8</ele>
        <time>2022-04-05T11:40:47Z</time>
      </trkpt>
      <trkpt lat="44.89438" lon="0.3297">
        <ele>100.8</ele>
        <time>2022-04-05T11:40:48Z</time>
      </trkpt>
      <trkpt lat="44.89438" lon="0.3297">
        <ele>100.8</ele>
        <time>2022-04-05T11:40:49Z</time>
      </trkpt>
      <trkpt lat="44.89438" lon="0.3297">
        <ele>100.8</ele>
        <time>2022-04-05T11:40:50Z</time>
      </trkpt>
      <trkpt lat="44.89438" lon="0.3297">
        <ele>100.8</ele>
        <time>2022-04-05T11:40:51Z</time>
      </trkpt>
      <trkpt lat="44.89438" lon="0.3297">
        <ele>100.8</ele>
        <time>2022-04-05T11:40:52Z</time>
      </trkpt>
      <trkpt lat="44.89438" lon="0.32969">
        <ele>100.8</ele>
        <time>2022-04-05T11:40:53Z</time>
      </trkpt>
      <trkpt lat="44.89438" lon="0.32968">
        <ele>100.9</ele>
        <time>2022-04-05T11:40:54Z</time>
      </trkpt>
      <trkpt lat="44.89437" lon="0.32967">
        <ele>100.9</ele>
        <time>2022-04-05T11:40:55Z</time>
      </trkpt>
      <trkpt lat="44.89437" lon="0.32967">
        <ele>100.9</ele>
        <time>2022-04-05T11:40:56Z</time>
      </trkpt>
      <trkpt lat="44.89437" lon="0.32967">
        <ele>100.9</ele>
        <time>2022-04-05T11:40:57Z</time>
      </trkpt>
      <trkpt lat="44.89437" lon="0.32967">
        <ele>100.9</ele>
        <time>2022-04-05T11:40:58Z</time>
      </trkpt>
      <trkpt lat="44.89437" lon="0.32967">
        <ele>100.9</ele>
        <time>2022-04-05T11:40:59Z</time>
      </trkpt>
      <trkpt lat="44.89437" lon="0.32967">
        <ele>100.9</ele>
        <time>2022-04-05T11:41:00Z</time>
      </trkpt>
      <trkpt lat="44.89437" lon="0.32967">
        <ele>100.9</ele>
        <time>2022-04-05T11:41:01Z</time>
      </trkpt>
      <trkpt lat="44.89437" lon="0.32967">
        <ele>100.9</ele>
        <time>2022-04-05T11:41:02Z</time>
      </trkpt>
      <trkpt lat="44.89437" lon="0.32967">
        <ele>100.9</ele>
        <time>2022-04-05T11:41:03Z</time>
      </trkpt>
      <trkpt lat="44.89437" lon="0.32967">
        <ele>100.9</ele>
        <time>2022-04-05T11:41:04Z</time>
      </trkpt>
      <trkpt lat="44.89437" lon="0.32967">
        <ele>100.9</ele>
        <time>2022-04-05T11:41:05Z</time>
      </trkpt>
      <trkpt lat="44.89437" lon="0.32967">
        <ele>100.9</ele>
        <time>2022-04-05T11:41:06Z</time>
      </trkpt>
      <trkpt lat="44.89437" lon="0.32967">
        <ele>100.9</ele>
        <time>2022-04-05T11:41:07Z</time>
      </trkpt>
      <trkpt lat="44.89437" lon="0.32967">
        <ele>100.9</ele>
        <time>2022-04-05T11:41:08Z</time>
      </trkpt>
      <trkpt lat="44.89437" lon="0.32967">
        <ele>100.9</ele>
        <time>2022-04-05T11:41:09Z</time>
      </trkpt>
      <trkpt lat="44.89437" lon="0.32967">
        <ele>100.9</ele>
        <time>2022-04-05T11:41:10Z</time>
      </trkpt>
      <trkpt lat="44.89437" lon="0.32967">
        <ele>100.9</ele>
        <time>2022-04-05T11:41:11Z</time>
      </trkpt>
      <trkpt lat="44.89437" lon="0.32967">
        <ele>100.9</ele>
        <time>2022-04-05T11:41:12Z</time>
      </trkpt>
      <trkpt lat="44.89437" lon="0.32967">
        <ele>100.9</ele>
        <time>2022-04-05T11:41:13Z</time>
      </trkpt>
      <trkpt lat="44.89437" lon="0.32967">
        <ele>100.9</ele>
        <time>2022-04-05T11:41:14Z</time>
      </trkpt>
      <trkpt lat="44.89437" lon="0.32967">
        <ele>100.9</ele>
        <time>2022-04-05T11:41:15Z</time>
      </trkpt>
      <trkpt lat="44.89437" lon="0.32967">
        <ele>100.9</ele>
        <time>2022-04-05T11:41:16Z</time>
      </trkpt>
      <trkpt lat="44.89437" lon="0.32967">
        <ele>100.9</ele>
        <time>2022-04-05T11:41:17Z</time>
      </trkpt>
      <trkpt lat="44.89437" lon="0.32967">
        <ele>100.9</ele>
        <time>2022-04-05T11:41:18Z</time>
      </trkpt>
      <trkpt lat="44.89437" lon="0.32967">
        <ele>100.9</ele>
        <time>2022-04-05T11:41:19Z</time>
      </trkpt>
      <trkpt lat="44.89437" lon="0.32967">
        <ele>100.9</ele>
        <time>2022-04-05T11:41:20Z</time>
      </trkpt>
      <trkpt lat="44.89437" lon="0.32967">
        <ele>100.9</ele>
        <time>2022-04-05T11:41:21Z</time>
      </trkpt>
      <trkpt lat="44.89437" lon="0.32967">
        <ele>100.9</ele>
        <time>2022-04-05T11:41:22Z</time>
      </trkpt>
      <trkpt lat="44.89437" lon="0.32967">
        <ele>101</ele>
        <time>2022-04-05T11:41:23Z</time>
      </trkpt>
      <trkpt lat="44.89437" lon="0.32966">
        <ele>101</ele>
        <time>2022-04-05T11:41:24Z</time>
      </trkpt>
      <trkpt lat="44.89437" lon="0.32966">
        <ele>101</ele>
        <time>2022-04-05T11:41:25Z</time>
      </trkpt>
      <trkpt lat="44.89437" lon="0.32966">
        <ele>101</ele>
        <time>2022-04-05T11:41:26Z</time>
      </trkpt>
      <trkpt lat="44.89437" lon="0.32966">
        <ele>101</ele>
        <time>2022-04-05T11:41:27Z</time>
      </trkpt>
      <trkpt lat="44.89437" lon="0.32966">
        <ele>101</ele>
        <time>2022-04-05T11:41:28Z</time>
      </trkpt>
      <trkpt lat="44.89437" lon="0.32966">
        <ele>101</ele>
        <time>2022-04-05T11:41:29Z</time>
      </trkpt>
      <trkpt lat="44.89437" lon="0.32966">
        <ele>101</ele>
        <time>2022-04-05T11:41:30Z</time>
      </trkpt>
      <trkpt lat="44.89437" lon="0.32966">
        <ele>101</ele>
        <time>2022-04-05T11:41:31Z</time>
      </trkpt>
      <trkpt lat="44.89437" lon="0.32966">
        <ele>101</ele>
        <time>2022-04-05T11:41:32Z</time>
      </trkpt>
      <trkpt lat="44.89437" lon="0.32967">
        <ele>101</ele>
        <time>2022-04-05T11:41:33Z</time>
      </trkpt>
      <trkpt lat="44.89436" lon="0.32967">
        <ele>101</ele>
        <time>2022-04-05T11:41:34Z</time>
      </trkpt>
      <trkpt lat="44.89436" lon="0.32967">
        <ele>101</ele>
        <time>2022-04-05T11:41:35Z</time>
      </trkpt>
      <trkpt lat="44.89436" lon="0.32967">
        <ele>101</ele>
        <time>2022-04-05T11:41:36Z</time>
      </trkpt>
      <trkpt lat="44.89436" lon="0.32966">
        <ele>101</ele>
        <time>2022-04-05T11:41:37Z</time>
      </trkpt>
      <trkpt lat="44.89436" lon="0.32966">
        <ele>101</ele>
        <time>2022-04-05T11:41:38Z</time>
      </trkpt>
      <trkpt lat="44.89436" lon="0.32966">
        <ele>101</ele>
        <time>2022-04-05T11:41:39Z</time>
      </trkpt>
      <trkpt lat="44.89436" lon="0.32966">
        <ele>101</ele>
        <time>2022-04-05T11:41:40Z</time>
      </trkpt>
      <trkpt lat="44.89436" lon="0.32967">
        <ele>101</ele>
        <time>2022-04-05T11:41:41Z</time>
      </trkpt>
      <trkpt lat="44.89436" lon="0.32967">
        <ele>101</ele>
        <time>2022-04-05T11:41:42Z</time>
      </trkpt>
      <trkpt lat="44.89436" lon="0.32967">
        <ele>101</ele>
        <time>2022-04-05T11:41:43Z</time>
      </trkpt>
      <trkpt lat="44.89436" lon="0.32966">
        <ele>101</ele>
        <time>2022-04-05T11:41:44Z</time>
      </trkpt>
      <trkpt lat="44.89436" lon="0.32966">
        <ele>101</ele>
        <time>2022-04-05T11:41:45Z</time>
      </trkpt>
      <trkpt lat="44.89436" lon="0.32966">
        <ele>101</ele>
        <time>2022-04-05T11:41:46Z</time>
      </trkpt>
      <trkpt lat="44.89436" lon="0.32966">
        <ele>101</ele>
        <time>2022-04-05T11:41:47Z</time>
      </trkpt>
      <trkpt lat="44.89436" lon="0.32966">
        <ele>101</ele>
        <time>2022-04-05T11:41:48Z</time>
      </trkpt>
      <trkpt lat="44.89436" lon="0.32966">
        <ele>101</ele>
        <time>2022-04-05T11:41:49Z</time>
      </trkpt>
      <trkpt lat="44.89436" lon="0.32966">
        <ele>101</ele>
        <time>2022-04-05T11:41:50Z</time>
      </trkpt>
      <trkpt lat="44.89436" lon="0.32966">
        <ele>101</ele>
        <time>2022-04-05T11:41:51Z</time>
      </trkpt>
      <trkpt lat="44.89436" lon="0.32966">
        <ele>101</ele>
        <time>2022-04-05T11:41:52Z</time>
      </trkpt>
      <trkpt lat="44.89436" lon="0.32966">
        <ele>101</ele>
        <time>2022-04-05T11:41:53Z</time>
      </trkpt>
      <trkpt lat="44.89436" lon="0.32966">
        <ele>101</ele>
        <time>2022-04-05T11:41:54Z</time>
      </trkpt>
      <trkpt lat="44.89436" lon="0.32966">
        <ele>101</ele>
        <time>2022-04-05T11:41:55Z</time>
      </trkpt>
      <trkpt lat="44.89436" lon="0.32966">
        <ele>101</ele>
        <time>2022-04-05T11:41:56Z</time>
      </trkpt>
      <trkpt lat="44.89436" lon="0.32966">
        <ele>101</ele>
        <time>2022-04-05T11:41:57Z</time>
      </trkpt>
      <trkpt lat="44.89436" lon="0.32966">
        <ele>101</ele>
        <time>2022-04-05T11:41:58Z</time>
      </trkpt>
      <trkpt lat="44.89436" lon="0.32966">
        <ele>101</ele>
        <time>2022-04-05T11:41:59Z</time>
      </trkpt>
      <trkpt lat="44.89436" lon="0.32966">
        <ele>101</ele>
        <time>2022-04-05T11:42:00Z</time>
      </trkpt>
      <trkpt lat="44.89436" lon="0.32966">
        <ele>101</ele>
        <time>2022-04-05T11:42:01Z</time>
      </trkpt>
      <trkpt lat="44.89436" lon="0.32966">
        <ele>101</ele>
        <time>2022-04-05T11:42:02Z</time>
      </trkpt>
      <trkpt lat="44.89436" lon="0.32966">
        <ele>101</ele>
        <time>2022-04-05T11:42:03Z</time>
      </trkpt>
      <trkpt lat="44.89436" lon="0.32966">
        <ele>101</ele>
        <time>2022-04-05T11:42:04Z</time>
      </trkpt>
      <trkpt lat="44.89437" lon="0.32966">
        <ele>101</ele>
        <time>2022-04-05T11:42:05Z</time>
      </trkpt>
      <trkpt lat="44.89437" lon="0.32966">
        <ele>101</ele>
        <time>2022-04-05T11:42:06Z</time>
      </trkpt>
      <trkpt lat="44.89437" lon="0.32966">
        <ele>101</ele>
        <time>2022-04-05T11:42:07Z</time>
      </trkpt>
      <trkpt lat="44.89437" lon="0.32966">
        <ele>101</ele>
        <time>2022-04-05T11:42:08Z</time>
      </trkpt>
      <trkpt lat="44.89437" lon="0.32966">
        <ele>101</ele>
        <time>2022-04-05T11:42:09Z</time>
      </trkpt>
      <trkpt lat="44.89437" lon="0.32966">
        <ele>101</ele>
        <time>2022-04-05T11:42:10Z</time>
      </trkpt>
      <trkpt lat="44.89437" lon="0.32966">
        <ele>101</ele>
        <time>2022-04-05T11:42:11Z</time>
      </trkpt>
      <trkpt lat="44.89437" lon="0.32966">
        <ele>101</ele>
        <time>2022-04-05T11:42:12Z</time>
      </trkpt>
      <trkpt lat="44.89437" lon="0.32966">
        <ele>101</ele>
        <time>2022-04-05T11:42:13Z</time>
      </trkpt>
      <trkpt lat="44.89437" lon="0.32966">
        <ele>101</ele>
        <time>2022-04-05T11:42:14Z</time>
      </trkpt>
      <trkpt lat="44.89437" lon="0.32966">
        <ele>101</ele>
        <time>2022-04-05T11:42:15Z</time>
      </trkpt>
      <trkpt lat="44.89437" lon="0.32966">
        <ele>101</ele>
        <time>2022-04-05T11:42:16Z</time>
      </trkpt>
      <trkpt lat="44.89437" lon="0.32966">
        <ele>101</ele>
        <time>2022-04-05T11:42:17Z</time>
      </trkpt>
      <trkpt lat="44.89437" lon="0.32966">
        <ele>101</ele>
        <time>2022-04-05T11:42:18Z</time>
      </trkpt>
      <trkpt lat="44.89437" lon="0.32966">
        <ele>101</ele>
        <time>2022-04-05T11:42:19Z</time>
      </trkpt>
      <trkpt lat="44.89437" lon="0.32966">
        <ele>101</ele>
        <time>2022-04-05T11:42:20Z</time>
      </trkpt>
      <trkpt lat="44.89437" lon="0.32966">
        <ele>101</ele>
        <time>2022-04-05T11:42:21Z</time>
      </trkpt>
      <trkpt lat="44.89437" lon="0.32966">
        <ele>101.1</ele>
        <time>2022-04-05T11:42:22Z</time>
      </trkpt>
      <trkpt lat="44.89437" lon="0.32966">
        <ele>101.1</ele>
        <time>2022-04-05T11:42:23Z</time>
      </trkpt>
      <trkpt lat="44.89437" lon="0.32966">
        <ele>101.1</ele>
        <time>2022-04-05T11:42:24Z</time>
      </trkpt>
      <trkpt lat="44.89437" lon="0.32966">
        <ele>101.1</ele>
        <time>2022-04-05T11:42:25Z</time>
      </trkpt>
      <trkpt lat="44.89437" lon="0.32966">
        <ele>101.1</ele>
        <time>2022-04-05T11:42:26Z</time>
      </trkpt>
      <trkpt lat="44.89437" lon="0.32966">
        <ele>101.1</ele>
        <time>2022-04-05T11:42:27Z</time>
      </trkpt>
      <trkpt lat="44.89437" lon="0.32966">
        <ele>101.1</ele>
        <time>2022-04-05T11:42:28Z</time>
      </trkpt>
      <trkpt lat="44.89437" lon="0.32966">
        <ele>101.1</ele>
        <time>2022-04-05T11:42:29Z</time>
      </trkpt>
      <trkpt lat="44.89437" lon="0.32966">
        <ele>101.1</ele>
        <time>2022-04-05T11:42:30Z</time>
      </trkpt>
      <trkpt lat="44.89437" lon="0.32966">
        <ele>101.1</ele>
        <time>2022-04-05T11:42:31Z</time>
      </trkpt>
      <trkpt lat="44.89437" lon="0.32967">
        <ele>101.1</ele>
        <time>2022-04-05T11:42:32Z</time>
      </trkpt>
      <trkpt lat="44.89437" lon="0.32966">
        <ele>101.1</ele>
        <time>2022-04-05T11:42:33Z</time>
      </trkpt>
      <trkpt lat="44.89437" lon="0.32967">
        <ele>101.1</ele>
        <time>2022-04-05T11:42:34Z</time>
      </trkpt>
      <trkpt lat="44.89437" lon="0.32968">
        <ele>101.1</ele>
        <time>2022-04-05T11:42:35Z</time>
      </trkpt>
      <trkpt lat="44.89437" lon="0.32969">
        <ele>101.1</ele>
        <time>2022-04-05T11:42:36Z</time>
      </trkpt>
      <trkpt lat="44.89438" lon="0.32969">
        <ele>101.1</ele>
        <time>2022-04-05T11:42:37Z</time>
      </trkpt>
      <trkpt lat="44.89438" lon="0.32969">
        <ele>101.2</ele>
        <time>2022-04-05T11:42:38Z</time>
      </trkpt>
      <trkpt lat="44.89438" lon="0.3297">
        <ele>101.2</ele>
        <time>2022-04-05T11:42:39Z</time>
      </trkpt>
      <trkpt lat="44.89439" lon="0.3297">
        <ele>101.2</ele>
        <time>2022-04-05T11:42:40Z</time>
      </trkpt>
      <trkpt lat="44.89439" lon="0.3297">
        <ele>101.2</ele>
        <time>2022-04-05T11:42:41Z</time>
      </trkpt>
      <trkpt lat="44.89439" lon="0.3297">
        <ele>101.2</ele>
        <time>2022-04-05T11:42:42Z</time>
      </trkpt>
      <trkpt lat="44.89438" lon="0.3297">
        <ele>101.2</ele>
        <time>2022-04-05T11:42:43Z</time>
      </trkpt>
      <trkpt lat="44.89438" lon="0.3297">
        <ele>101.2</ele>
        <time>2022-04-05T11:42:44Z</time>
      </trkpt>
      <trkpt lat="44.89438" lon="0.3297">
        <ele>101.2</ele>
        <time>2022-04-05T11:42:45Z</time>
      </trkpt>
      <trkpt lat="44.89439" lon="0.3297">
        <ele>101.2</ele>
        <time>2022-04-05T11:42:46Z</time>
      </trkpt>
      <trkpt lat="44.89439" lon="0.32971">
        <ele>101.2</ele>
        <time>2022-04-05T11:42:47Z</time>
      </trkpt>
      <trkpt lat="44.89439" lon="0.32971">
        <ele>101.2</ele>
        <time>2022-04-05T11:42:48Z</time>
      </trkpt>
      <trkpt lat="44.89439" lon="0.32972">
        <ele>101.3</ele>
        <time>2022-04-05T11:42:49Z</time>
      </trkpt>
      <trkpt lat="44.89439" lon="0.32973">
        <ele>101.3</ele>
        <time>2022-04-05T11:42:50Z</time>
      </trkpt>
      <trkpt lat="44.8944" lon="0.32975">
        <ele>101.4</ele>
        <time>2022-04-05T11:42:51Z</time>
      </trkpt>
      <trkpt lat="44.8944" lon="0.32976">
        <ele>101.4</ele>
        <time>2022-04-05T11:42:52Z</time>
      </trkpt>
      <trkpt lat="44.8944" lon="0.32977">
        <ele>101.4</ele>
        <time>2022-04-05T11:42:53Z</time>
      </trkpt>
      <trkpt lat="44.8944" lon="0.32978">
        <ele>101.5</ele>
        <time>2022-04-05T11:42:54Z</time>
      </trkpt>
      <trkpt lat="44.8944" lon="0.32979">
        <ele>101.5</ele>
        <time>2022-04-05T11:42:55Z</time>
      </trkpt>
      <trkpt lat="44.8944" lon="0.3298">
        <ele>101.5</ele>
        <time>2022-04-05T11:42:56Z</time>
      </trkpt>
      <trkpt lat="44.8944" lon="0.3298">
        <ele>101.5</ele>
        <time>2022-04-05T11:42:57Z</time>
      </trkpt>
      <trkpt lat="44.8944" lon="0.32982">
        <ele>101.6</ele>
        <time>2022-04-05T11:42:58Z</time>
      </trkpt>
      <trkpt lat="44.89441" lon="0.32985">
        <ele>101.6</ele>
        <time>2022-04-05T11:42:59Z</time>
      </trkpt>
      <trkpt lat="44.89441" lon="0.32987">
        <ele>101.7</ele>
        <time>2022-04-05T11:43:00Z</time>
      </trkpt>
      <trkpt lat="44.89442" lon="0.32989">
        <ele>101.8</ele>
        <time>2022-04-05T11:43:02Z</time>
      </trkpt>
      <trkpt lat="44.89444" lon="0.32991">
        <ele>101.8</ele>
        <time>2022-04-05T11:43:03Z</time>
      </trkpt>
      <trkpt lat="44.89445" lon="0.32992">
        <ele>101.9</ele>
        <time>2022-04-05T11:43:04Z</time>
      </trkpt>
      <trkpt lat="44.89447" lon="0.32995">
        <ele>102</ele>
        <time>2022-04-05T11:43:05Z</time>
      </trkpt>
      <trkpt lat="44.89447" lon="0.32996">
        <ele>102</ele>
        <time>2022-04-05T11:43:06Z</time>
      </trkpt>
      <trkpt lat="44.89449" lon="0.32997">
        <ele>102.1</ele>
        <time>2022-04-05T11:43:07Z</time>
      </trkpt>
      <trkpt lat="44.89449" lon="0.32997">
        <ele>102.1</ele>
        <time>2022-04-05T11:43:08Z</time>
      </trkpt>
      <trkpt lat="44.8945" lon="0.32998">
        <ele>102.1</ele>
        <time>2022-04-05T11:43:09Z</time>
      </trkpt>
      <trkpt lat="44.8945" lon="0.32999">
        <ele>102.2</ele>
        <time>2022-04-05T11:43:10Z</time>
      </trkpt>
      <trkpt lat="44.89452" lon="0.33001">
        <ele>102.2</ele>
        <time>2022-04-05T11:43:11Z</time>
      </trkpt>
      <trkpt lat="44.89452" lon="0.33003">
        <ele>102.3</ele>
        <time>2022-04-05T11:43:12Z</time>
      </trkpt>
      <trkpt lat="44.89453" lon="0.33006">
        <ele>102.3</ele>
        <time>2022-04-05T11:43:13Z</time>
      </trkpt>
      <trkpt lat="44.89454" lon="0.33007">
        <ele>102.4</ele>
        <time>2022-04-05T11:43:15Z</time>
      </trkpt>
      <trkpt lat="44.89454" lon="0.33008">
        <ele>102.4</ele>
        <time>2022-04-05T11:43:16Z</time>
      </trkpt>
      <trkpt lat="44.89454" lon="0.33009">
        <ele>102.4</ele>
        <time>2022-04-05T11:43:17Z</time>
      </trkpt>
      <trkpt lat="44.89455" lon="0.33011">
        <ele>102.5</ele>
        <time>2022-04-05T11:43:18Z</time>
      </trkpt>
      <trkpt lat="44.89455" lon="0.33012">
        <ele>102.5</ele>
        <time>2022-04-05T11:43:19Z</time>
      </trkpt>
      <trkpt lat="44.89456" lon="0.33014">
        <ele>102.5</ele>
        <time>2022-04-05T11:43:20Z</time>
      </trkpt>
      <trkpt lat="44.89457" lon="0.33016">
        <ele>102.6</ele>
        <time>2022-04-05T11:43:21Z</time>
      </trkpt>
      <trkpt lat="44.89458" lon="0.33017">
        <ele>102.6</ele>
        <time>2022-04-05T11:43:22Z</time>
      </trkpt>
      <trkpt lat="44.89458" lon="0.33018">
        <ele>102.7</ele>
        <time>2022-04-05T11:43:23Z</time>
      </trkpt>
      <trkpt lat="44.89458" lon="0.3302">
        <ele>102.7</ele>
        <time>2022-04-05T11:43:25Z</time>
      </trkpt>
      <trkpt lat="44.89459" lon="0.33023">
        <ele>102.8</ele>
        <time>2022-04-05T11:43:26Z</time>
      </trkpt>
      <trkpt lat="44.89459" lon="0.33024">
        <ele>102.8</ele>
        <time>2022-04-05T11:43:27Z</time>
      </trkpt>
      <trkpt lat="44.8946" lon="0.33027">
        <ele>102.9</ele>
        <time>2022-04-05T11:43:28Z</time>
      </trkpt>
      <trkpt lat="44.8946" lon="0.33029">
        <ele>102.9</ele>
        <time>2022-04-05T11:43:29Z</time>
      </trkpt>
      <trkpt lat="44.8946" lon="0.3303">
        <ele>102.9</ele>
        <time>2022-04-05T11:43:30Z</time>
      </trkpt>
      <trkpt lat="44.89461" lon="0.33032">
        <ele>103</ele>
        <time>2022-04-05T11:43:31Z</time>
      </trkpt>
      <trkpt lat="44.89462" lon="0.33034">
        <ele>103</ele>
        <time>2022-04-05T11:43:33Z</time>
      </trkpt>
      <trkpt lat="44.89463" lon="0.33035">
        <ele>103</ele>
        <time>2022-04-05T11:43:34Z</time>
      </trkpt>
      <trkpt lat="44.89463" lon="0.33037">
        <ele>103.1</ele>
        <time>2022-04-05T11:43:35Z</time>
      </trkpt>
      <trkpt lat="44.89464" lon="0.3304">
        <ele>103.1</ele>
        <time>2022-04-05T11:43:36Z</time>
      </trkpt>
      <trkpt lat="44.89465" lon="0.33041">
        <ele>103.1</ele>
        <time>2022-04-05T11:43:37Z</time>
      </trkpt>
      <trkpt lat="44.89465" lon="0.33042">
        <ele>103.2</ele>
        <time>2022-04-05T11:43:38Z</time>
      </trkpt>
      <trkpt lat="44.89466" lon="0.33044">
        <ele>103.2</ele>
        <time>2022-04-05T11:43:39Z</time>
      </trkpt>
      <trkpt lat="44.89466" lon="0.33048">
        <ele>103.2</ele>
        <time>2022-04-05T11:43:41Z</time>
      </trkpt>
      <trkpt lat="44.89467" lon="0.33049">
        <ele>103.3</ele>
        <time>2022-04-05T11:43:42Z</time>
      </trkpt>
      <trkpt lat="44.89467" lon="0.33051">
        <ele>103.3</ele>
        <time>2022-04-05T11:43:43Z</time>
      </trkpt>
      <trkpt lat="44.89468" lon="0.33053">
        <ele>103.3</ele>
        <time>2022-04-05T11:43:45Z</time>
      </trkpt>
      <trkpt lat="44.89469" lon="0.33056">
        <ele>103.4</ele>
        <time>2022-04-05T11:43:46Z</time>
      </trkpt>
      <trkpt lat="44.8947" lon="0.33056">
        <ele>103.4</ele>
        <time>2022-04-05T11:43:47Z</time>
      </trkpt>
      <trkpt lat="44.89471" lon="0.33059">
        <ele>103.4</ele>
        <time>2022-04-05T11:43:48Z</time>
      </trkpt>
      <trkpt lat="44.89471" lon="0.3306">
        <ele>103.4</ele>
        <time>2022-04-05T11:43:49Z</time>
      </trkpt>
      <trkpt lat="44.89472" lon="0.33061">
        <ele>103.4</ele>
        <time>2022-04-05T11:43:50Z</time>
      </trkpt>
      <trkpt lat="44.89474" lon="0.33064">
        <ele>103.5</ele>
        <time>2022-04-05T11:43:51Z</time>
      </trkpt>
      <trkpt lat="44.89474" lon="0.33064">
        <ele>103.5</ele>
        <time>2022-04-05T11:43:52Z</time>
      </trkpt>
      <trkpt lat="44.89474" lon="0.33065">
        <ele>103.5</ele>
        <time>2022-04-05T11:43:53Z</time>
      </trkpt>
      <trkpt lat="44.89475" lon="0.33067">
        <ele>103.5</ele>
        <time>2022-04-05T11:43:54Z</time>
      </trkpt>
      <trkpt lat="44.89476" lon="0.33069">
        <ele>103.5</ele>
        <time>2022-04-05T11:43:55Z</time>
      </trkpt>
      <trkpt lat="44.89477" lon="0.33071">
        <ele>103.5</ele>
        <time>2022-04-05T11:43:56Z</time>
      </trkpt>
      <trkpt lat="44.89477" lon="0.33072">
        <ele>103.5</ele>
        <time>2022-04-05T11:43:57Z</time>
      </trkpt>
      <trkpt lat="44.89478" lon="0.33074">
        <ele>103.6</ele>
        <time>2022-04-05T11:43:58Z</time>
      </trkpt>
      <trkpt lat="44.89478" lon="0.33075">
        <ele>103.6</ele>
        <time>2022-04-05T11:43:59Z</time>
      </trkpt>
      <trkpt lat="44.8948" lon="0.3308">
        <ele>103.6</ele>
        <time>2022-04-05T11:44:01Z</time>
      </trkpt>
      <trkpt lat="44.8948" lon="0.33081">
        <ele>103.6</ele>
        <time>2022-04-05T11:44:02Z</time>
      </trkpt>
      <trkpt lat="44.8948" lon="0.33082">
        <ele>103.6</ele>
        <time>2022-04-05T11:44:03Z</time>
      </trkpt>
      <trkpt lat="44.8948" lon="0.33083">
        <ele>103.7</ele>
        <time>2022-04-05T11:44:04Z</time>
      </trkpt>
      <trkpt lat="44.89481" lon="0.33084">
        <ele>103.7</ele>
        <time>2022-04-05T11:44:05Z</time>
      </trkpt>
      <trkpt lat="44.89481" lon="0.33087">
        <ele>103.7</ele>
        <time>2022-04-05T11:44:06Z</time>
      </trkpt>
      <trkpt lat="44.89481" lon="0.33088">
        <ele>103.7</ele>
        <time>2022-04-05T11:44:07Z</time>
      </trkpt>
      <trkpt lat="44.89482" lon="0.3309">
        <ele>103.7</ele>
        <time>2022-04-05T11:44:08Z</time>
      </trkpt>
      <trkpt lat="44.89483" lon="0.33091">
        <ele>103.7</ele>
        <time>2022-04-05T11:44:09Z</time>
      </trkpt>
      <trkpt lat="44.89485" lon="0.33093">
        <ele>103.8</ele>
        <time>2022-04-05T11:44:11Z</time>
      </trkpt>
      <trkpt lat="44.89486" lon="0.33092">
        <ele>103.8</ele>
        <time>2022-04-05T11:44:12Z</time>
      </trkpt>
      <trkpt lat="44.89487" lon="0.3309">
        <ele>103.8</ele>
        <time>2022-04-05T11:44:13Z</time>
      </trkpt>
      <trkpt lat="44.89487" lon="0.33089">
        <ele>103.8</ele>
        <time>2022-04-05T11:44:14Z</time>
      </trkpt>
      <trkpt lat="44.89487" lon="0.33088">
        <ele>103.8</ele>
        <time>2022-04-05T11:44:15Z</time>
      </trkpt>
      <trkpt lat="44.89487" lon="0.33087">
        <ele>103.9</ele>
        <time>2022-04-05T11:44:16Z</time>
      </trkpt>
      <trkpt lat="44.89488" lon="0.33088">
        <ele>103.9</ele>
        <time>2022-04-05T11:44:17Z</time>
      </trkpt>
      <trkpt lat="44.89489" lon="0.33089">
        <ele>103.9</ele>
        <time>2022-04-05T11:44:19Z</time>
      </trkpt>
      <trkpt lat="44.89489" lon="0.3309">
        <ele>103.9</ele>
        <time>2022-04-05T11:44:20Z</time>
      </trkpt>
      <trkpt lat="44.8949" lon="0.33091">
        <ele>103.9</ele>
        <time>2022-04-05T11:44:21Z</time>
      </trkpt>
      <trkpt lat="44.8949" lon="0.33094">
        <ele>104</ele>
        <time>2022-04-05T11:44:22Z</time>
      </trkpt>
      <trkpt lat="44.8949" lon="0.33095">
        <ele>104</ele>
        <time>2022-04-05T11:44:23Z</time>
      </trkpt>
      <trkpt lat="44.8949" lon="0.33097">
        <ele>104</ele>
        <time>2022-04-05T11:44:24Z</time>
      </trkpt>
      <trkpt lat="44.89491" lon="0.33099">
        <ele>104</ele>
        <time>2022-04-05T11:44:25Z</time>
      </trkpt>
      <trkpt lat="44.89491" lon="0.33101">
        <ele>104</ele>
        <time>2022-04-05T11:44:26Z</time>
      </trkpt>
      <trkpt lat="44.89491" lon="0.33102">
        <ele>104</ele>
        <time>2022-04-05T11:44:27Z</time>
      </trkpt>
      <trkpt lat="44.89491" lon="0.33105">
        <ele>104.1</ele>
        <time>2022-04-05T11:44:28Z</time>
      </trkpt>
      <trkpt lat="44.89491" lon="0.33108">
        <ele>104.1</ele>
        <time>2022-04-05T11:44:29Z</time>
      </trkpt>
      <trkpt lat="44.89491" lon="0.33109">
        <ele>104.1</ele>
        <time>2022-04-05T11:44:30Z</time>
      </trkpt>
      <trkpt lat="44.89491" lon="0.3311">
        <ele>104.1</ele>
        <time>2022-04-05T11:44:31Z</time>
      </trkpt>
      <trkpt lat="44.89491" lon="0.33112">
        <ele>104.1</ele>
        <time>2022-04-05T11:44:32Z</time>
      </trkpt>
      <trkpt lat="44.8949" lon="0.33115">
        <ele>104.1</ele>
        <time>2022-04-05T11:44:33Z</time>
      </trkpt>
      <trkpt lat="44.8949" lon="0.33116">
        <ele>104.1</ele>
        <time>2022-04-05T11:44:34Z</time>
      </trkpt>
      <trkpt lat="44.8949" lon="0.33119">
        <ele>104.1</ele>
        <time>2022-04-05T11:44:36Z</time>
      </trkpt>
      <trkpt lat="44.8949" lon="0.33121">
        <ele>104.1</ele>
        <time>2022-04-05T11:44:37Z</time>
      </trkpt>
      <trkpt lat="44.8949" lon="0.33123">
        <ele>104.1</ele>
        <time>2022-04-05T11:44:38Z</time>
      </trkpt>
      <trkpt lat="44.8949" lon="0.33126">
        <ele>104.1</ele>
        <time>2022-04-05T11:44:39Z</time>
      </trkpt>
      <trkpt lat="44.8949" lon="0.33127">
        <ele>104.1</ele>
        <time>2022-04-05T11:44:40Z</time>
      </trkpt>
      <trkpt lat="44.8949" lon="0.33128">
        <ele>104.1</ele>
        <time>2022-04-05T11:44:41Z</time>
      </trkpt>
      <trkpt lat="44.8949" lon="0.33134">
        <ele>104.1</ele>
        <time>2022-04-05T11:44:43Z</time>
      </trkpt>
      <trkpt lat="44.89491" lon="0.33135">
        <ele>104.1</ele>
        <time>2022-04-05T11:44:44Z</time>
      </trkpt>
      <trkpt lat="44.89491" lon="0.33136">
        <ele>104.1</ele>
        <time>2022-04-05T11:44:45Z</time>
      </trkpt>
      <trkpt lat="44.89491" lon="0.33138">
        <ele>104.1</ele>
        <time>2022-04-05T11:44:46Z</time>
      </trkpt>
      <trkpt lat="44.89491" lon="0.3314">
        <ele>104</ele>
        <time>2022-04-05T11:44:47Z</time>
      </trkpt>
      <trkpt lat="44.8949" lon="0.33142">
        <ele>104</ele>
        <time>2022-04-05T11:44:48Z</time>
      </trkpt>
      <trkpt lat="44.8949" lon="0.33144">
        <ele>104</ele>
        <time>2022-04-05T11:44:50Z</time>
      </trkpt>
      <trkpt lat="44.8949" lon="0.33146">
        <ele>104</ele>
        <time>2022-04-05T11:44:51Z</time>
      </trkpt>
      <trkpt lat="44.8949" lon="0.33148">
        <ele>104</ele>
        <time>2022-04-05T11:44:52Z</time>
      </trkpt>
      <trkpt lat="44.8949" lon="0.33151">
        <ele>104</ele>
        <time>2022-04-05T11:44:53Z</time>
      </trkpt>
      <trkpt lat="44.89489" lon="0.33153">
        <ele>104</ele>
        <time>2022-04-05T11:44:54Z</time>
      </trkpt>
      <trkpt lat="44.89488" lon="0.33154">
        <ele>104.1</ele>
        <time>2022-04-05T11:44:56Z</time>
      </trkpt>
      <trkpt lat="44.89488" lon="0.33155">
        <ele>104.1</ele>
        <time>2022-04-05T11:44:57Z</time>
      </trkpt>
      <trkpt lat="44.89486" lon="0.33158">
        <ele>104.2</ele>
        <time>2022-04-05T11:44:58Z</time>
      </trkpt>
      <trkpt lat="44.89485" lon="0.33158">
        <ele>104.3</ele>
        <time>2022-04-05T11:44:59Z</time>
      </trkpt>
      <trkpt lat="44.89484" lon="0.33159">
        <ele>104.3</ele>
        <time>2022-04-05T11:45:00Z</time>
      </trkpt>
      <trkpt lat="44.89482" lon="0.3316">
        <ele>104.3</ele>
        <time>2022-04-05T11:45:01Z</time>
      </trkpt>
      <trkpt lat="44.89481" lon="0.3316">
        <ele>104.3</ele>
        <time>2022-04-05T11:45:02Z</time>
      </trkpt>
      <trkpt lat="44.89479" lon="0.33161">
        <ele>104.5</ele>
        <time>2022-04-05T11:45:03Z</time>
      </trkpt>
      <trkpt lat="44.89478" lon="0.33161">
        <ele>104.5</ele>
        <time>2022-04-05T11:45:04Z</time>
      </trkpt>
      <trkpt lat="44.89477" lon="0.33162">
        <ele>104.5</ele>
        <time>2022-04-05T11:45:05Z</time>
      </trkpt>
      <trkpt lat="44.89475" lon="0.33162">
        <ele>104.5</ele>
        <time>2022-04-05T11:45:07Z</time>
      </trkpt>
      <trkpt lat="44.89473" lon="0.33162">
        <ele>104.6</ele>
        <time>2022-04-05T11:45:08Z</time>
      </trkpt>
      <trkpt lat="44.89472" lon="0.33162">
        <ele>104.6</ele>
        <time>2022-04-05T11:45:09Z</time>
      </trkpt>
      <trkpt lat="44.89471" lon="0.33163">
        <ele>104.5</ele>
        <time>2022-04-05T11:45:10Z</time>
      </trkpt>
      <trkpt lat="44.89469" lon="0.33163">
        <ele>104.6</ele>
        <time>2022-04-05T11:45:11Z</time>
      </trkpt>
      <trkpt lat="44.89468" lon="0.33163">
        <ele>104.5</ele>
        <time>2022-04-05T11:45:12Z</time>
      </trkpt>
      <trkpt lat="44.89465" lon="0.33163">
        <ele>104.5</ele>
        <time>2022-04-05T11:45:13Z</time>
      </trkpt>
      <trkpt lat="44.89465" lon="0.33163">
        <ele>104.5</ele>
        <time>2022-04-05T11:45:14Z</time>
      </trkpt>
      <trkpt lat="44.89464" lon="0.33164">
        <ele>104.5</ele>
        <time>2022-04-05T11:45:15Z</time>
      </trkpt>
      <trkpt lat="44.89462" lon="0.33164">
        <ele>104.5</ele>
        <time>2022-04-05T11:45:16Z</time>
      </trkpt>
      <trkpt lat="44.8946" lon="0.33165">
        <ele>104.5</ele>
        <time>2022-04-05T11:45:17Z</time>
      </trkpt>
      <trkpt lat="44.89458" lon="0.33165">
        <ele>104.5</ele>
        <time>2022-04-05T11:45:18Z</time>
      </trkpt>
      <trkpt lat="44.89458" lon="0.33165">
        <ele>104.5</ele>
        <time>2022-04-05T11:45:19Z</time>
      </trkpt>
      <trkpt lat="44.89457" lon="0.33166">
        <ele>104.5</ele>
        <time>2022-04-05T11:45:20Z</time>
      </trkpt>
      <trkpt lat="44.89455" lon="0.33167">
        <ele>104.4</ele>
        <time>2022-04-05T11:45:21Z</time>
      </trkpt>
      <trkpt lat="44.89453" lon="0.33167">
        <ele>104.4</ele>
        <time>2022-04-05T11:45:22Z</time>
      </trkpt>
      <trkpt lat="44.89452" lon="0.33168">
        <ele>104.4</ele>
        <time>2022-04-05T11:45:23Z</time>
      </trkpt>
      <trkpt lat="44.8945" lon="0.33169">
        <ele>104.4</ele>
        <time>2022-04-05T11:45:25Z</time>
      </trkpt>
      <trkpt lat="44.89449" lon="0.3317">
        <ele>104.2</ele>
        <time>2022-04-05T11:45:26Z</time>
      </trkpt>
      <trkpt lat="44.89448" lon="0.3317">
        <ele>104.2</ele>
        <time>2022-04-05T11:45:27Z</time>
      </trkpt>
      <trkpt lat="44.89445" lon="0.33172">
        <ele>104.1</ele>
        <time>2022-04-05T11:45:28Z</time>
      </trkpt>
      <trkpt lat="44.89444" lon="0.33172">
        <ele>104.1</ele>
        <time>2022-04-05T11:45:29Z</time>
      </trkpt>
      <trkpt lat="44.89443" lon="0.33173">
        <ele>104</ele>
        <time>2022-04-05T11:45:30Z</time>
      </trkpt>
      <trkpt lat="44.89442" lon="0.33174">
        <ele>104</ele>
        <time>2022-04-05T11:45:31Z</time>
      </trkpt>
      <trkpt lat="44.89441" lon="0.33174">
        <ele>103.9</ele>
        <time>2022-04-05T11:45:32Z</time>
      </trkpt>
      <trkpt lat="44.8944" lon="0.33175">
        <ele>103.8</ele>
        <time>2022-04-05T11:45:33Z</time>
      </trkpt>
      <trkpt lat="44.89438" lon="0.33175">
        <ele>103.8</ele>
        <time>2022-04-05T11:45:34Z</time>
      </trkpt>
      <trkpt lat="44.89436" lon="0.33175">
        <ele>103.7</ele>
        <time>2022-04-05T11:45:35Z</time>
      </trkpt>
      <trkpt lat="44.89435" lon="0.33176">
        <ele>103.7</ele>
        <time>2022-04-05T11:45:36Z</time>
      </trkpt>
      <trkpt lat="44.89434" lon="0.33176">
        <ele>103.5</ele>
        <time>2022-04-05T11:45:37Z</time>
      </trkpt>
      <trkpt lat="44.89431" lon="0.33177">
        <ele>103.3</ele>
        <time>2022-04-05T11:45:39Z</time>
      </trkpt>
      <trkpt lat="44.8943" lon="0.33177">
        <ele>103.3</ele>
        <time>2022-04-05T11:45:40Z</time>
      </trkpt>
      <trkpt lat="44.89428" lon="0.33178">
        <ele>103.3</ele>
        <time>2022-04-05T11:45:41Z</time>
      </trkpt>
      <trkpt lat="44.89427" lon="0.33178">
        <ele>103</ele>
        <time>2022-04-05T11:45:42Z</time>
      </trkpt>
      <trkpt lat="44.89423" lon="0.3318">
        <ele>102.7</ele>
        <time>2022-04-05T11:45:43Z</time>
      </trkpt>
      <trkpt lat="44.89422" lon="0.3318">
        <ele>102.7</ele>
        <time>2022-04-05T11:45:45Z</time>
      </trkpt>
      <trkpt lat="44.89421" lon="0.33181">
        <ele>102.5</ele>
        <time>2022-04-05T11:45:46Z</time>
      </trkpt>
      <trkpt lat="44.8942" lon="0.33181">
        <ele>102.5</ele>
        <time>2022-04-05T11:45:47Z</time>
      </trkpt>
      <trkpt lat="44.89419" lon="0.33182">
        <ele>102.2</ele>
        <time>2022-04-05T11:45:48Z</time>
      </trkpt>
      <trkpt lat="44.89418" lon="0.33182">
        <ele>102.2</ele>
        <time>2022-04-05T11:45:49Z</time>
      </trkpt>
      <trkpt lat="44.89417" lon="0.33182">
        <ele>102.1</ele>
        <time>2022-04-05T11:45:50Z</time>
      </trkpt>
      <trkpt lat="44.89415" lon="0.33183">
        <ele>101.8</ele>
        <time>2022-04-05T11:45:51Z</time>
      </trkpt>
      <trkpt lat="44.89414" lon="0.33184">
        <ele>101.8</ele>
        <time>2022-04-05T11:45:52Z</time>
      </trkpt>
      <trkpt lat="44.89412" lon="0.33185">
        <ele>101.5</ele>
        <time>2022-04-05T11:45:53Z</time>
      </trkpt>
      <trkpt lat="44.8941" lon="0.33185">
        <ele>101.5</ele>
        <time>2022-04-05T11:45:55Z</time>
      </trkpt>
      <trkpt lat="44.89409" lon="0.33186">
        <ele>101.2</ele>
        <time>2022-04-05T11:45:56Z</time>
      </trkpt>
      <trkpt lat="44.89408" lon="0.33186">
        <ele>101.2</ele>
        <time>2022-04-05T11:45:57Z</time>
      </trkpt>
      <trkpt lat="44.89406" lon="0.33187">
        <ele>100.8</ele>
        <time>2022-04-05T11:45:58Z</time>
      </trkpt>
      <trkpt lat="44.89406" lon="0.33187">
        <ele>100.8</ele>
        <time>2022-04-05T11:45:59Z</time>
      </trkpt>
      <trkpt lat="44.89405" lon="0.33188">
        <ele>100.8</ele>
        <time>2022-04-05T11:46:00Z</time>
      </trkpt>
      <trkpt lat="44.89403" lon="0.33188">
        <ele>100.6</ele>
        <time>2022-04-05T11:46:01Z</time>
      </trkpt>
      <trkpt lat="44.89402" lon="0.33188">
        <ele>100.6</ele>
        <time>2022-04-05T11:46:02Z</time>
      </trkpt>
      <trkpt lat="44.894" lon="0.33189">
        <ele>100.3</ele>
        <time>2022-04-05T11:46:03Z</time>
      </trkpt>
      <trkpt lat="44.89399" lon="0.33189">
        <ele>100.3</ele>
        <time>2022-04-05T11:46:04Z</time>
      </trkpt>
      <trkpt lat="44.89397" lon="0.3319">
        <ele>100.1</ele>
        <time>2022-04-05T11:46:06Z</time>
      </trkpt>
      <trkpt lat="44.89396" lon="0.3319">
        <ele>100.1</ele>
        <time>2022-04-05T11:46:07Z</time>
      </trkpt>
      <trkpt lat="44.89395" lon="0.33191">
        <ele>100.1</ele>
        <time>2022-04-05T11:46:08Z</time>
      </trkpt>
      <trkpt lat="44.89393" lon="0.33191">
        <ele>99.7</ele>
        <time>2022-04-05T11:46:09Z</time>
      </trkpt>
      <trkpt lat="44.89392" lon="0.33192">
        <ele>99.7</ele>
        <time>2022-04-05T11:46:10Z</time>
      </trkpt>
      <trkpt lat="44.89391" lon="0.33193">
        <ele>99.4</ele>
        <time>2022-04-05T11:46:11Z</time>
      </trkpt>
      <trkpt lat="44.8939" lon="0.33194">
        <ele>99.4</ele>
        <time>2022-04-05T11:46:12Z</time>
      </trkpt>
      <trkpt lat="44.89389" lon="0.33195">
        <ele>99.4</ele>
        <time>2022-04-05T11:46:13Z</time>
      </trkpt>
      <trkpt lat="44.89387" lon="0.33196">
        <ele>99.1</ele>
        <time>2022-04-05T11:46:14Z</time>
      </trkpt>
      <trkpt lat="44.89386" lon="0.33197">
        <ele>99.1</ele>
        <time>2022-04-05T11:46:15Z</time>
      </trkpt>
      <trkpt lat="44.89385" lon="0.33197">
        <ele>98.8</ele>
        <time>2022-04-05T11:46:16Z</time>
      </trkpt>
      <trkpt lat="44.89384" lon="0.33198">
        <ele>98.8</ele>
        <time>2022-04-05T11:46:17Z</time>
      </trkpt>
      <trkpt lat="44.89381" lon="0.332">
        <ele>98.4</ele>
        <time>2022-04-05T11:46:19Z</time>
      </trkpt>
      <trkpt lat="44.8938" lon="0.332">
        <ele>98.4</ele>
        <time>2022-04-05T11:46:20Z</time>
      </trkpt>
      <trkpt lat="44.89378" lon="0.33201">
        <ele>98.2</ele>
        <time>2022-04-05T11:46:21Z</time>
      </trkpt>
      <trkpt lat="44.89377" lon="0.33202">
        <ele>98.2</ele>
        <time>2022-04-05T11:46:22Z</time>
      </trkpt>
      <trkpt lat="44.89376" lon="0.33203">
        <ele>97.9</ele>
        <time>2022-04-05T11:46:23Z</time>
      </trkpt>
      <trkpt lat="44.89375" lon="0.33204">
        <ele>97.7</ele>
        <time>2022-04-05T11:46:24Z</time>
      </trkpt>
      <trkpt lat="44.89374" lon="0.33205">
        <ele>97.7</ele>
        <time>2022-04-05T11:46:26Z</time>
      </trkpt>
      <trkpt lat="44.89373" lon="0.33206">
        <ele>97.4</ele>
        <time>2022-04-05T11:46:27Z</time>
      </trkpt>
      <trkpt lat="44.89371" lon="0.33206">
        <ele>97.3</ele>
        <time>2022-04-05T11:46:28Z</time>
      </trkpt>
      <trkpt lat="44.89369" lon="0.33207">
        <ele>97.2</ele>
        <time>2022-04-05T11:46:29Z</time>
      </trkpt>
      <trkpt lat="44.89369" lon="0.33208">
        <ele>97.1</ele>
        <time>2022-04-05T11:46:30Z</time>
      </trkpt>
      <trkpt lat="44.89367" lon="0.33209">
        <ele>97.1</ele>
        <time>2022-04-05T11:46:31Z</time>
      </trkpt>
      <trkpt lat="44.89366" lon="0.3321">
        <ele>97</ele>
        <time>2022-04-05T11:46:32Z</time>
      </trkpt>
      <trkpt lat="44.89364" lon="0.33211">
        <ele>96.9</ele>
        <time>2022-04-05T11:46:33Z</time>
      </trkpt>
      <trkpt lat="44.89364" lon="0.33213">
        <ele>96.8</ele>
        <time>2022-04-05T11:46:35Z</time>
      </trkpt>
      <trkpt lat="44.89363" lon="0.33214">
        <ele>96.8</ele>
        <time>2022-04-05T11:46:36Z</time>
      </trkpt>
      <trkpt lat="44.89362" lon="0.33215">
        <ele>96.7</ele>
        <time>2022-04-05T11:46:37Z</time>
      </trkpt>
      <trkpt lat="44.89361" lon="0.33216">
        <ele>96.6</ele>
        <time>2022-04-05T11:46:38Z</time>
      </trkpt>
      <trkpt lat="44.89359" lon="0.33217">
        <ele>96.6</ele>
        <time>2022-04-05T11:46:39Z</time>
      </trkpt>
      <trkpt lat="44.89358" lon="0.33217">
        <ele>96.5</ele>
        <time>2022-04-05T11:46:40Z</time>
      </trkpt>
      <trkpt lat="44.89357" lon="0.3322">
        <ele>96.5</ele>
        <time>2022-04-05T11:46:41Z</time>
      </trkpt>
      <trkpt lat="44.89356" lon="0.33222">
        <ele>96.4</ele>
        <time>2022-04-05T11:46:42Z</time>
      </trkpt>
      <trkpt lat="44.89355" lon="0.33223">
        <ele>96.4</ele>
        <time>2022-04-05T11:46:43Z</time>
      </trkpt>
      <trkpt lat="44.89355" lon="0.33224">
        <ele>96.4</ele>
        <time>2022-04-05T11:46:44Z</time>
      </trkpt>
      <trkpt lat="44.89354" lon="0.33225">
        <ele>96.3</ele>
        <time>2022-04-05T11:46:45Z</time>
      </trkpt>
      <trkpt lat="44.89354" lon="0.33227">
        <ele>96.3</ele>
        <time>2022-04-05T11:46:46Z</time>
      </trkpt>
      <trkpt lat="44.89353" lon="0.33229">
        <ele>96.2</ele>
        <time>2022-04-05T11:46:48Z</time>
      </trkpt>
      <trkpt lat="44.89352" lon="0.33231">
        <ele>96.2</ele>
        <time>2022-04-05T11:46:49Z</time>
      </trkpt>
      <trkpt lat="44.89352" lon="0.33232">
        <ele>96.1</ele>
        <time>2022-04-05T11:46:50Z</time>
      </trkpt>
      <trkpt lat="44.89351" lon="0.33234">
        <ele>96.1</ele>
        <time>2022-04-05T11:46:51Z</time>
      </trkpt>
      <trkpt lat="44.89351" lon="0.33235">
        <ele>96.1</ele>
        <time>2022-04-05T11:46:52Z</time>
      </trkpt>
      <trkpt lat="44.8935" lon="0.33239">
        <ele>96</ele>
        <time>2022-04-05T11:46:53Z</time>
      </trkpt>
      <trkpt lat="44.89349" lon="0.33239">
        <ele>96</ele>
        <time>2022-04-05T11:46:54Z</time>
      </trkpt>
      <trkpt lat="44.89349" lon="0.3324">
        <ele>95.9</ele>
        <time>2022-04-05T11:46:55Z</time>
      </trkpt>
      <trkpt lat="44.89348" lon="0.33243">
        <ele>95.9</ele>
        <time>2022-04-05T11:46:56Z</time>
      </trkpt>
      <trkpt lat="44.89347" lon="0.33244">
        <ele>95.8</ele>
        <time>2022-04-05T11:46:57Z</time>
      </trkpt>
      <trkpt lat="44.89347" lon="0.33245">
        <ele>95.8</ele>
        <time>2022-04-05T11:46:58Z</time>
      </trkpt>
      <trkpt lat="44.89347" lon="0.33246">
        <ele>95.8</ele>
        <time>2022-04-05T11:46:59Z</time>
      </trkpt>
      <trkpt lat="44.89346" lon="0.33247">
        <ele>95.8</ele>
        <time>2022-04-05T11:47:00Z</time>
      </trkpt>
      <trkpt lat="44.89345" lon="0.33249">
        <ele>95.7</ele>
        <time>2022-04-05T11:47:01Z</time>
      </trkpt>
      <trkpt lat="44.89345" lon="0.3325">
        <ele>95.7</ele>
        <time>2022-04-05T11:47:02Z</time>
      </trkpt>
      <trkpt lat="44.89344" lon="0.33253">
        <ele>95.7</ele>
        <time>2022-04-05T11:47:03Z</time>
      </trkpt>
      <trkpt lat="44.89344" lon="0.33254">
        <ele>95.6</ele>
        <time>2022-04-05T11:47:05Z</time>
      </trkpt>
      <trkpt lat="44.89344" lon="0.33256">
        <ele>95.6</ele>
        <time>2022-04-05T11:47:06Z</time>
      </trkpt>
      <trkpt lat="44.89343" lon="0.33257">
        <ele>95.6</ele>
        <time>2022-04-05T11:47:07Z</time>
      </trkpt>
      <trkpt lat="44.89342" lon="0.3326">
        <ele>95.5</ele>
        <time>2022-04-05T11:47:08Z</time>
      </trkpt>
      <trkpt lat="44.89342" lon="0.33262">
        <ele>95.5</ele>
        <time>2022-04-05T11:47:09Z</time>
      </trkpt>
      <trkpt lat="44.89341" lon="0.33263">
        <ele>95.5</ele>
        <time>2022-04-05T11:47:10Z</time>
      </trkpt>
      <trkpt lat="44.89341" lon="0.33264">
        <ele>95.4</ele>
        <time>2022-04-05T11:47:11Z</time>
      </trkpt>
      <trkpt lat="44.8934" lon="0.33265">
        <ele>95.4</ele>
        <time>2022-04-05T11:47:12Z</time>
      </trkpt>
      <trkpt lat="44.8934" lon="0.33267">
        <ele>95.4</ele>
        <time>2022-04-05T11:47:14Z</time>
      </trkpt>
      <trkpt lat="44.89339" lon="0.33269">
        <ele>95.3</ele>
        <time>2022-04-05T11:47:15Z</time>
      </trkpt>
      <trkpt lat="44.89338" lon="0.3327">
        <ele>95.3</ele>
        <time>2022-04-05T11:47:16Z</time>
      </trkpt>
      <trkpt lat="44.89338" lon="0.33272">
        <ele>95.3</ele>
        <time>2022-04-05T11:47:17Z</time>
      </trkpt>
      <trkpt lat="44.89337" lon="0.33274">
        <ele>95.2</ele>
        <time>2022-04-05T11:47:18Z</time>
      </trkpt>
      <trkpt lat="44.89336" lon="0.33277">
        <ele>95.2</ele>
        <time>2022-04-05T11:47:19Z</time>
      </trkpt>
      <trkpt lat="44.89336" lon="0.33278">
        <ele>95.2</ele>
        <time>2022-04-05T11:47:20Z</time>
      </trkpt>
      <trkpt lat="44.89336" lon="0.33278">
        <ele>95.1</ele>
        <time>2022-04-05T11:47:21Z</time>
      </trkpt>
      <trkpt lat="44.89335" lon="0.33281">
        <ele>95.1</ele>
        <time>2022-04-05T11:47:22Z</time>
      </trkpt>
      <trkpt lat="44.89334" lon="0.33283">
        <ele>95.1</ele>
        <time>2022-04-05T11:47:23Z</time>
      </trkpt>
      <trkpt lat="44.89334" lon="0.33284">
        <ele>95</ele>
        <time>2022-04-05T11:47:24Z</time>
      </trkpt>
      <trkpt lat="44.89332" lon="0.33286">
        <ele>95</ele>
        <time>2022-04-05T11:47:26Z</time>
      </trkpt>
      <trkpt lat="44.89332" lon="0.33287">
        <ele>95</ele>
        <time>2022-04-05T11:47:27Z</time>
      </trkpt>
      <trkpt lat="44.89331" lon="0.33288">
        <ele>95</ele>
        <time>2022-04-05T11:47:28Z</time>
      </trkpt>
      <trkpt lat="44.8933" lon="0.33292">
        <ele>94.9</ele>
        <time>2022-04-05T11:47:29Z</time>
      </trkpt>
      <trkpt lat="44.8933" lon="0.33293">
        <ele>94.9</ele>
        <time>2022-04-05T11:47:30Z</time>
      </trkpt>
      <trkpt lat="44.8933" lon="0.33293">
        <ele>94.9</ele>
        <time>2022-04-05T11:47:31Z</time>
      </trkpt>
      <trkpt lat="44.89329" lon="0.33295">
        <ele>94.8</ele>
        <time>2022-04-05T11:47:32Z</time>
      </trkpt>
      <trkpt lat="44.89328" lon="0.33296">
        <ele>94.8</ele>
        <time>2022-04-05T11:47:33Z</time>
      </trkpt>
      <trkpt lat="44.89327" lon="0.33299">
        <ele>94.8</ele>
        <time>2022-04-05T11:47:34Z</time>
      </trkpt>
      <trkpt lat="44.89327" lon="0.333">
        <ele>94.7</ele>
        <time>2022-04-05T11:47:35Z</time>
      </trkpt>
      <trkpt lat="44.89326" lon="0.33302">
        <ele>94.7</ele>
        <time>2022-04-05T11:47:36Z</time>
      </trkpt>
      <trkpt lat="44.89325" lon="0.33303">
        <ele>94.7</ele>
        <time>2022-04-05T11:47:37Z</time>
      </trkpt>
      <trkpt lat="44.89324" lon="0.33304">
        <ele>94.7</ele>
        <time>2022-04-05T11:47:38Z</time>
      </trkpt>
      <trkpt lat="44.89323" lon="0.33307">
        <ele>94.6</ele>
        <time>2022-04-05T11:47:39Z</time>
      </trkpt>
      <trkpt lat="44.89323" lon="0.33307">
        <ele>94.6</ele>
        <time>2022-04-05T11:47:40Z</time>
      </trkpt>
      <trkpt lat="44.89322" lon="0.33309">
        <ele>94.6</ele>
        <time>2022-04-05T11:47:42Z</time>
      </trkpt>
      <trkpt lat="44.89321" lon="0.3331">
        <ele>94.5</ele>
        <time>2022-04-05T11:47:43Z</time>
      </trkpt>
      <trkpt lat="44.8932" lon="0.33312">
        <ele>94.5</ele>
        <time>2022-04-05T11:47:44Z</time>
      </trkpt>
      <trkpt lat="44.8932" lon="0.33314">
        <ele>94.5</ele>
        <time>2022-04-05T11:47:45Z</time>
      </trkpt>
      <trkpt lat="44.89319" lon="0.33315">
        <ele>94.4</ele>
        <time>2022-04-05T11:47:46Z</time>
      </trkpt>
      <trkpt lat="44.89318" lon="0.33317">
        <ele>94.4</ele>
        <time>2022-04-05T11:47:47Z</time>
      </trkpt>
      <trkpt lat="44.89318" lon="0.33318">
        <ele>94.4</ele>
        <time>2022-04-05T11:47:48Z</time>
      </trkpt>
      <trkpt lat="44.89317" lon="0.33319">
        <ele>94.4</ele>
        <time>2022-04-05T11:47:49Z</time>
      </trkpt>
      <trkpt lat="44.89316" lon="0.33321">
        <ele>94.3</ele>
        <time>2022-04-05T11:47:50Z</time>
      </trkpt>
      <trkpt lat="44.89314" lon="0.33323">
        <ele>94.3</ele>
        <time>2022-04-05T11:47:51Z</time>
      </trkpt>
      <trkpt lat="44.89314" lon="0.33324">
        <ele>94.3</ele>
        <time>2022-04-05T11:47:52Z</time>
      </trkpt>
      <trkpt lat="44.89313" lon="0.33325">
        <ele>94.2</ele>
        <time>2022-04-05T11:47:53Z</time>
      </trkpt>
      <trkpt lat="44.89312" lon="0.33327">
        <ele>94.2</ele>
        <time>2022-04-05T11:47:54Z</time>
      </trkpt>
      <trkpt lat="44.89311" lon="0.33329">
        <ele>94.2</ele>
        <time>2022-04-05T11:47:55Z</time>
      </trkpt>
      <trkpt lat="44.8931" lon="0.33331">
        <ele>94.1</ele>
        <time>2022-04-05T11:47:56Z</time>
      </trkpt>
      <trkpt lat="44.89309" lon="0.33332">
        <ele>94.1</ele>
        <time>2022-04-05T11:47:57Z</time>
      </trkpt>
      <trkpt lat="44.89309" lon="0.33333">
        <ele>94.1</ele>
        <time>2022-04-05T11:47:58Z</time>
      </trkpt>
      <trkpt lat="44.89308" lon="0.33334">
        <ele>94</ele>
        <time>2022-04-05T11:47:59Z</time>
      </trkpt>
      <trkpt lat="44.89307" lon="0.33336">
        <ele>94</ele>
        <time>2022-04-05T11:48:00Z</time>
      </trkpt>
      <trkpt lat="44.89306" lon="0.33338">
        <ele>93.9</ele>
        <time>2022-04-05T11:48:01Z</time>
      </trkpt>
      <trkpt lat="44.89305" lon="0.33339">
        <ele>93.9</ele>
        <time>2022-04-05T11:48:02Z</time>
      </trkpt>
      <trkpt lat="44.89304" lon="0.33342">
        <ele>93.8</ele>
        <time>2022-04-05T11:48:03Z</time>
      </trkpt>
      <trkpt lat="44.89303" lon="0.33344">
        <ele>93.8</ele>
        <time>2022-04-05T11:48:05Z</time>
      </trkpt>
      <trkpt lat="44.89302" lon="0.33345">
        <ele>93.7</ele>
        <time>2022-04-05T11:48:06Z</time>
      </trkpt>
      <trkpt lat="44.89301" lon="0.33346">
        <ele>93.7</ele>
        <time>2022-04-05T11:48:07Z</time>
      </trkpt>
      <trkpt lat="44.89301" lon="0.33348">
        <ele>93.6</ele>
        <time>2022-04-05T11:48:08Z</time>
      </trkpt>
      <trkpt lat="44.893" lon="0.33349">
        <ele>93.6</ele>
        <time>2022-04-05T11:48:09Z</time>
      </trkpt>
      <trkpt lat="44.89298" lon="0.33351">
        <ele>93.5</ele>
        <time>2022-04-05T11:48:10Z</time>
      </trkpt>
      <trkpt lat="44.89297" lon="0.33353">
        <ele>93.5</ele>
        <time>2022-04-05T11:48:11Z</time>
      </trkpt>
      <trkpt lat="44.89296" lon="0.33354">
        <ele>93.4</ele>
        <time>2022-04-05T11:48:12Z</time>
      </trkpt>
      <trkpt lat="44.89295" lon="0.33354">
        <ele>93.4</ele>
        <time>2022-04-05T11:48:13Z</time>
      </trkpt>
      <trkpt lat="44.89293" lon="0.33356">
        <ele>93.3</ele>
        <time>2022-04-05T11:48:14Z</time>
      </trkpt>
      <trkpt lat="44.89292" lon="0.33357">
        <ele>93.3</ele>
        <time>2022-04-05T11:48:15Z</time>
      </trkpt>
      <trkpt lat="44.89291" lon="0.33358">
        <ele>93.2</ele>
        <time>2022-04-05T11:48:17Z</time>
      </trkpt>
      <trkpt lat="44.8929" lon="0.3336">
        <ele>93.2</ele>
        <time>2022-04-05T11:48:18Z</time>
      </trkpt>
      <trkpt lat="44.89289" lon="0.33361">
        <ele>93.1</ele>
        <time>2022-04-05T11:48:19Z</time>
      </trkpt>
      <trkpt lat="44.89288" lon="0.33363">
        <ele>93.1</ele>
        <time>2022-04-05T11:48:20Z</time>
      </trkpt>
      <trkpt lat="44.89287" lon="0.33364">
        <ele>93</ele>
        <time>2022-04-05T11:48:21Z</time>
      </trkpt>
      <trkpt lat="44.89287" lon="0.33365">
        <ele>93</ele>
        <time>2022-04-05T11:48:22Z</time>
      </trkpt>
      <trkpt lat="44.89286" lon="0.33367">
        <ele>93</ele>
        <time>2022-04-05T11:48:23Z</time>
      </trkpt>
      <trkpt lat="44.89285" lon="0.33368">
        <ele>92.9</ele>
        <time>2022-04-05T11:48:24Z</time>
      </trkpt>
      <trkpt lat="44.89284" lon="0.33371">
        <ele>92.9</ele>
        <time>2022-04-05T11:48:25Z</time>
      </trkpt>
      <trkpt lat="44.89283" lon="0.33371">
        <ele>92.8</ele>
        <time>2022-04-05T11:48:26Z</time>
      </trkpt>
      <trkpt lat="44.89282" lon="0.33372">
        <ele>92.8</ele>
        <time>2022-04-05T11:48:27Z</time>
      </trkpt>
      <trkpt lat="44.89281" lon="0.33374">
        <ele>92.8</ele>
        <time>2022-04-05T11:48:28Z</time>
      </trkpt>
      <trkpt lat="44.8928" lon="0.33375">
        <ele>92.7</ele>
        <time>2022-04-05T11:48:29Z</time>
      </trkpt>
      <trkpt lat="44.89279" lon="0.33376">
        <ele>92.7</ele>
        <time>2022-04-05T11:48:30Z</time>
      </trkpt>
      <trkpt lat="44.89277" lon="0.33378">
        <ele>92.6</ele>
        <time>2022-04-05T11:48:31Z</time>
      </trkpt>
      <trkpt lat="44.89276" lon="0.33378">
        <ele>92.6</ele>
        <time>2022-04-05T11:48:32Z</time>
      </trkpt>
      <trkpt lat="44.89276" lon="0.33379">
        <ele>92.5</ele>
        <time>2022-04-05T11:48:33Z</time>
      </trkpt>
      <trkpt lat="44.89274" lon="0.33381">
        <ele>92.5</ele>
        <time>2022-04-05T11:48:34Z</time>
      </trkpt>
      <trkpt lat="44.89273" lon="0.33382">
        <ele>92.4</ele>
        <time>2022-04-05T11:48:35Z</time>
      </trkpt>
      <trkpt lat="44.89271" lon="0.33384">
        <ele>92.4</ele>
        <time>2022-04-05T11:48:36Z</time>
      </trkpt>
      <trkpt lat="44.89271" lon="0.33385">
        <ele>92.3</ele>
        <time>2022-04-05T11:48:38Z</time>
      </trkpt>
      <trkpt lat="44.8927" lon="0.33386">
        <ele>92.3</ele>
        <time>2022-04-05T11:48:39Z</time>
      </trkpt>
      <trkpt lat="44.89268" lon="0.33388">
        <ele>92.3</ele>
        <time>2022-04-05T11:48:40Z</time>
      </trkpt>
      <trkpt lat="44.89268" lon="0.33389">
        <ele>92.2</ele>
        <time>2022-04-05T11:48:41Z</time>
      </trkpt>
      <trkpt lat="44.89267" lon="0.3339">
        <ele>92.2</ele>
        <time>2022-04-05T11:48:42Z</time>
      </trkpt>
      <trkpt lat="44.89266" lon="0.33391">
        <ele>92.2</ele>
        <time>2022-04-05T11:48:43Z</time>
      </trkpt>
      <trkpt lat="44.89265" lon="0.33392">
        <ele>92.2</ele>
        <time>2022-04-05T11:48:44Z</time>
      </trkpt>
      <trkpt lat="44.89264" lon="0.33395">
        <ele>92.1</ele>
        <time>2022-04-05T11:48:45Z</time>
      </trkpt>
      <trkpt lat="44.89264" lon="0.33396">
        <ele>92.1</ele>
        <time>2022-04-05T11:48:46Z</time>
      </trkpt>
      <trkpt lat="44.89263" lon="0.33397">
        <ele>92.1</ele>
        <time>2022-04-05T11:48:47Z</time>
      </trkpt>
      <trkpt lat="44.89262" lon="0.33398">
        <ele>92</ele>
        <time>2022-04-05T11:48:48Z</time>
      </trkpt>
      <trkpt lat="44.89261" lon="0.33399">
        <ele>92</ele>
        <time>2022-04-05T11:48:49Z</time>
      </trkpt>
      <trkpt lat="44.89259" lon="0.33402">
        <ele>92</ele>
        <time>2022-04-05T11:48:50Z</time>
      </trkpt>
      <trkpt lat="44.89259" lon="0.33402">
        <ele>92</ele>
        <time>2022-04-05T11:48:51Z</time>
      </trkpt>
      <trkpt lat="44.89258" lon="0.33403">
        <ele>91.9</ele>
        <time>2022-04-05T11:48:52Z</time>
      </trkpt>
      <trkpt lat="44.89257" lon="0.33405">
        <ele>91.9</ele>
        <time>2022-04-05T11:48:53Z</time>
      </trkpt>
      <trkpt lat="44.89256" lon="0.33406">
        <ele>91.9</ele>
        <time>2022-04-05T11:48:54Z</time>
      </trkpt>
      <trkpt lat="44.89255" lon="0.33407">
        <ele>91.9</ele>
        <time>2022-04-05T11:48:55Z</time>
      </trkpt>
      <trkpt lat="44.89255" lon="0.33407">
        <ele>91.9</ele>
        <time>2022-04-05T11:48:56Z</time>
      </trkpt>
      <trkpt lat="44.89254" lon="0.33408">
        <ele>91.8</ele>
        <time>2022-04-05T11:48:57Z</time>
      </trkpt>
      <trkpt lat="44.89252" lon="0.33409">
        <ele>91.8</ele>
        <time>2022-04-05T11:48:58Z</time>
      </trkpt>
      <trkpt lat="44.8925" lon="0.33411">
        <ele>91.8</ele>
        <time>2022-04-05T11:48:59Z</time>
      </trkpt>
      <trkpt lat="44.8925" lon="0.33413">
        <ele>91.8</ele>
        <time>2022-04-05T11:49:01Z</time>
      </trkpt>
      <trkpt lat="44.89249" lon="0.33414">
        <ele>91.7</ele>
        <time>2022-04-05T11:49:02Z</time>
      </trkpt>
      <trkpt lat="44.89248" lon="0.33415">
        <ele>91.7</ele>
        <time>2022-04-05T11:49:03Z</time>
      </trkpt>
      <trkpt lat="44.89247" lon="0.33416">
        <ele>91.7</ele>
        <time>2022-04-05T11:49:04Z</time>
      </trkpt>
      <trkpt lat="44.89245" lon="0.3342">
        <ele>91.6</ele>
        <time>2022-04-05T11:49:05Z</time>
      </trkpt>
      <trkpt lat="44.89245" lon="0.3342">
        <ele>91.6</ele>
        <time>2022-04-05T11:49:06Z</time>
      </trkpt>
      <trkpt lat="44.89245" lon="0.33421">
        <ele>91.6</ele>
        <time>2022-04-05T11:49:07Z</time>
      </trkpt>
      <trkpt lat="44.89244" lon="0.33423">
        <ele>91.6</ele>
        <time>2022-04-05T11:49:08Z</time>
      </trkpt>
      <trkpt lat="44.89241" lon="0.33426">
        <ele>91.5</ele>
        <time>2022-04-05T11:49:09Z</time>
      </trkpt>
      <trkpt lat="44.89241" lon="0.33427">
        <ele>91.5</ele>
        <time>2022-04-05T11:49:11Z</time>
      </trkpt>
      <trkpt lat="44.8924" lon="0.33428">
        <ele>91.5</ele>
        <time>2022-04-05T11:49:12Z</time>
      </trkpt>
      <trkpt lat="44.89239" lon="0.33429">
        <ele>91.5</ele>
        <time>2022-04-05T11:49:13Z</time>
      </trkpt>
      <trkpt lat="44.89238" lon="0.33429">
        <ele>91.5</ele>
        <time>2022-04-05T11:49:14Z</time>
      </trkpt>
      <trkpt lat="44.89237" lon="0.33431">
        <ele>91.4</ele>
        <time>2022-04-05T11:49:15Z</time>
      </trkpt>
      <trkpt lat="44.89236" lon="0.33432">
        <ele>91.4</ele>
        <time>2022-04-05T11:49:16Z</time>
      </trkpt>
      <trkpt lat="44.89235" lon="0.33433">
        <ele>91.4</ele>
        <time>2022-04-05T11:49:17Z</time>
      </trkpt>
      <trkpt lat="44.89234" lon="0.33434">
        <ele>91.4</ele>
        <time>2022-04-05T11:49:18Z</time>
      </trkpt>
      <trkpt lat="44.89233" lon="0.33434">
        <ele>91.3</ele>
        <time>2022-04-05T11:49:19Z</time>
      </trkpt>
      <trkpt lat="44.89231" lon="0.33436">
        <ele>91.3</ele>
        <time>2022-04-05T11:49:20Z</time>
      </trkpt>
      <trkpt lat="44.8923" lon="0.33437">
        <ele>91.2</ele>
        <time>2022-04-05T11:49:21Z</time>
      </trkpt>
      <trkpt lat="44.89229" lon="0.33437">
        <ele>91.2</ele>
        <time>2022-04-05T11:49:22Z</time>
      </trkpt>
      <trkpt lat="44.89229" lon="0.33438">
        <ele>91.2</ele>
        <time>2022-04-05T11:49:23Z</time>
      </trkpt>
      <trkpt lat="44.89226" lon="0.33441">
        <ele>91.1</ele>
        <time>2022-04-05T11:49:25Z</time>
      </trkpt>
      <trkpt lat="44.89225" lon="0.33442">
        <ele>91.1</ele>
        <time>2022-04-05T11:49:26Z</time>
      </trkpt>
      <trkpt lat="44.89225" lon="0.33443">
        <ele>91</ele>
        <time>2022-04-05T11:49:27Z</time>
      </trkpt>
      <trkpt lat="44.89224" lon="0.33444">
        <ele>91</ele>
        <time>2022-04-05T11:49:28Z</time>
      </trkpt>
      <trkpt lat="44.89224" lon="0.33445">
        <ele>91</ele>
        <time>2022-04-05T11:49:29Z</time>
      </trkpt>
      <trkpt lat="44.89222" lon="0.33447">
        <ele>91</ele>
        <time>2022-04-05T11:49:30Z</time>
      </trkpt>
      <trkpt lat="44.89222" lon="0.33448">
        <ele>91</ele>
        <time>2022-04-05T11:49:31Z</time>
      </trkpt>
      <trkpt lat="44.8922" lon="0.3345">
        <ele>91</ele>
        <time>2022-04-05T11:49:32Z</time>
      </trkpt>
      <trkpt lat="44.89219" lon="0.33451">
        <ele>91</ele>
        <time>2022-04-05T11:49:33Z</time>
      </trkpt>
      <trkpt lat="44.89219" lon="0.33452">
        <ele>91</ele>
        <time>2022-04-05T11:49:34Z</time>
      </trkpt>
      <trkpt lat="44.89218" lon="0.33454">
        <ele>91</ele>
        <time>2022-04-05T11:49:35Z</time>
      </trkpt>
      <trkpt lat="44.89217" lon="0.33455">
        <ele>91</ele>
        <time>2022-04-05T11:49:36Z</time>
      </trkpt>
      <trkpt lat="44.89216" lon="0.33456">
        <ele>91</ele>
        <time>2022-04-05T11:49:37Z</time>
      </trkpt>
      <trkpt lat="44.89215" lon="0.33458">
        <ele>91</ele>
        <time>2022-04-05T11:49:39Z</time>
      </trkpt>
      <trkpt lat="44.89213" lon="0.33461">
        <ele>90.9</ele>
        <time>2022-04-05T11:49:40Z</time>
      </trkpt>
      <trkpt lat="44.89213" lon="0.33461">
        <ele>90.9</ele>
        <time>2022-04-05T11:49:41Z</time>
      </trkpt>
      <trkpt lat="44.89212" lon="0.33464">
        <ele>90.9</ele>
        <time>2022-04-05T11:49:42Z</time>
      </trkpt>
      <trkpt lat="44.89211" lon="0.33465">
        <ele>90.9</ele>
        <time>2022-04-05T11:49:43Z</time>
      </trkpt>
      <trkpt lat="44.89211" lon="0.33466">
        <ele>90.9</ele>
        <time>2022-04-05T11:49:44Z</time>
      </trkpt>
      <trkpt lat="44.8921" lon="0.33468">
        <ele>90.9</ele>
        <time>2022-04-05T11:49:45Z</time>
      </trkpt>
      <trkpt lat="44.89209" lon="0.33469">
        <ele>90.9</ele>
        <time>2022-04-05T11:49:46Z</time>
      </trkpt>
      <trkpt lat="44.89209" lon="0.3347">
        <ele>90.9</ele>
        <time>2022-04-05T11:49:47Z</time>
      </trkpt>
      <trkpt lat="44.89208" lon="0.33472">
        <ele>90.8</ele>
        <time>2022-04-05T11:49:48Z</time>
      </trkpt>
      <trkpt lat="44.89207" lon="0.33473">
        <ele>90.8</ele>
        <time>2022-04-05T11:49:49Z</time>
      </trkpt>
      <trkpt lat="44.89205" lon="0.33475">
        <ele>90.8</ele>
        <time>2022-04-05T11:49:50Z</time>
      </trkpt>
      <trkpt lat="44.89205" lon="0.33476">
        <ele>90.8</ele>
        <time>2022-04-05T11:49:51Z</time>
      </trkpt>
      <trkpt lat="44.89203" lon="0.33477">
        <ele>90.8</ele>
        <time>2022-04-05T11:49:52Z</time>
      </trkpt>
      <trkpt lat="44.89202" lon="0.33478">
        <ele>90.7</ele>
        <time>2022-04-05T11:49:53Z</time>
      </trkpt>
      <trkpt lat="44.89202" lon="0.33479">
        <ele>90.7</ele>
        <time>2022-04-05T11:49:54Z</time>
      </trkpt>
      <trkpt lat="44.892" lon="0.33482">
        <ele>90.7</ele>
        <time>2022-04-05T11:49:55Z</time>
      </trkpt>
      <trkpt lat="44.89199" lon="0.33482">
        <ele>90.7</ele>
        <time>2022-04-05T11:49:56Z</time>
      </trkpt>
      <trkpt lat="44.89199" lon="0.33483">
        <ele>90.7</ele>
        <time>2022-04-05T11:49:57Z</time>
      </trkpt>
      <trkpt lat="44.89198" lon="0.33484">
        <ele>90.6</ele>
        <time>2022-04-05T11:49:58Z</time>
      </trkpt>
      <trkpt lat="44.89197" lon="0.33486">
        <ele>90.6</ele>
        <time>2022-04-05T11:49:59Z</time>
      </trkpt>
      <trkpt lat="44.89196" lon="0.33488">
        <ele>90.6</ele>
        <time>2022-04-05T11:50:00Z</time>
      </trkpt>
      <trkpt lat="44.89195" lon="0.3349">
        <ele>90.5</ele>
        <time>2022-04-05T11:50:02Z</time>
      </trkpt>
      <trkpt lat="44.89194" lon="0.33491">
        <ele>90.5</ele>
        <time>2022-04-05T11:50:03Z</time>
      </trkpt>
      <trkpt lat="44.89193" lon="0.33493">
        <ele>90.5</ele>
        <time>2022-04-05T11:50:04Z</time>
      </trkpt>
      <trkpt lat="44.89192" lon="0.33495">
        <ele>90.4</ele>
        <time>2022-04-05T11:50:05Z</time>
      </trkpt>
      <trkpt lat="44.89191" lon="0.33496">
        <ele>90.4</ele>
        <time>2022-04-05T11:50:06Z</time>
      </trkpt>
      <trkpt lat="44.89191" lon="0.33497">
        <ele>90.4</ele>
        <time>2022-04-05T11:50:07Z</time>
      </trkpt>
      <trkpt lat="44.8919" lon="0.33498">
        <ele>90.4</ele>
        <time>2022-04-05T11:50:08Z</time>
      </trkpt>
      <trkpt lat="44.89189" lon="0.335">
        <ele>90.4</ele>
        <time>2022-04-05T11:50:09Z</time>
      </trkpt>
      <trkpt lat="44.89188" lon="0.33503">
        <ele>90.3</ele>
        <time>2022-04-05T11:50:10Z</time>
      </trkpt>
      <trkpt lat="44.89187" lon="0.33503">
        <ele>90.3</ele>
        <time>2022-04-05T11:50:11Z</time>
      </trkpt>
      <trkpt lat="44.89186" lon="0.33505">
        <ele>90.3</ele>
        <time>2022-04-05T11:50:12Z</time>
      </trkpt>
      <trkpt lat="44.89185" lon="0.33506">
        <ele>90.2</ele>
        <time>2022-04-05T11:50:13Z</time>
      </trkpt>
      <trkpt lat="44.89184" lon="0.33506">
        <ele>90.2</ele>
        <time>2022-04-05T11:50:14Z</time>
      </trkpt>
      <trkpt lat="44.89183" lon="0.33508">
        <ele>90.2</ele>
        <time>2022-04-05T11:50:15Z</time>
      </trkpt>
      <trkpt lat="44.89182" lon="0.3351">
        <ele>90.2</ele>
        <time>2022-04-05T11:50:17Z</time>
      </trkpt>
      <trkpt lat="44.89181" lon="0.33511">
        <ele>90.1</ele>
        <time>2022-04-05T11:50:18Z</time>
      </trkpt>
      <trkpt lat="44.8918" lon="0.33513">
        <ele>90.1</ele>
        <time>2022-04-05T11:50:19Z</time>
      </trkpt>
      <trkpt lat="44.89178" lon="0.33516">
        <ele>90</ele>
        <time>2022-04-05T11:50:20Z</time>
      </trkpt>
      <trkpt lat="44.89177" lon="0.33516">
        <ele>90</ele>
        <time>2022-04-05T11:50:21Z</time>
      </trkpt>
      <trkpt lat="44.89176" lon="0.33517">
        <ele>90</ele>
        <time>2022-04-05T11:50:22Z</time>
      </trkpt>
      <trkpt lat="44.89176" lon="0.33518">
        <ele>90</ele>
        <time>2022-04-05T11:50:23Z</time>
      </trkpt>
      <trkpt lat="44.89174" lon="0.33519">
        <ele>89.9</ele>
        <time>2022-04-05T11:50:24Z</time>
      </trkpt>
      <trkpt lat="44.89173" lon="0.3352">
        <ele>89.9</ele>
        <time>2022-04-05T11:50:25Z</time>
      </trkpt>
      <trkpt lat="44.89172" lon="0.33521">
        <ele>89.9</ele>
        <time>2022-04-05T11:50:26Z</time>
      </trkpt>
      <trkpt lat="44.89171" lon="0.33522">
        <ele>89.8</ele>
        <time>2022-04-05T11:50:27Z</time>
      </trkpt>
      <trkpt lat="44.8917" lon="0.33523">
        <ele>89.8</ele>
        <time>2022-04-05T11:50:28Z</time>
      </trkpt>
      <trkpt lat="44.89169" lon="0.33524">
        <ele>89.8</ele>
        <time>2022-04-05T11:50:29Z</time>
      </trkpt>
      <trkpt lat="44.89168" lon="0.33526">
        <ele>89.7</ele>
        <time>2022-04-05T11:50:30Z</time>
      </trkpt>
      <trkpt lat="44.89167" lon="0.33526">
        <ele>89.6</ele>
        <time>2022-04-05T11:50:31Z</time>
      </trkpt>
      <trkpt lat="44.89166" lon="0.33527">
        <ele>89.6</ele>
        <time>2022-04-05T11:50:32Z</time>
      </trkpt>
      <trkpt lat="44.89165" lon="0.33529">
        <ele>89.5</ele>
        <time>2022-04-05T11:50:34Z</time>
      </trkpt>
      <trkpt lat="44.89163" lon="0.33531">
        <ele>89.4</ele>
        <time>2022-04-05T11:50:35Z</time>
      </trkpt>
      <trkpt lat="44.89162" lon="0.33531">
        <ele>89.4</ele>
        <time>2022-04-05T11:50:36Z</time>
      </trkpt>
      <trkpt lat="44.89161" lon="0.33532">
        <ele>89.3</ele>
        <time>2022-04-05T11:50:37Z</time>
      </trkpt>
      <trkpt lat="44.8916" lon="0.33533">
        <ele>89.2</ele>
        <time>2022-04-05T11:50:38Z</time>
      </trkpt>
      <trkpt lat="44.89157" lon="0.33536">
        <ele>89.1</ele>
        <time>2022-04-05T11:50:40Z</time>
      </trkpt>
      <trkpt lat="44.89157" lon="0.33536">
        <ele>89.1</ele>
        <time>2022-04-05T11:50:41Z</time>
      </trkpt>
      <trkpt lat="44.89156" lon="0.33537">
        <ele>89</ele>
        <time>2022-04-05T11:50:42Z</time>
      </trkpt>
      <trkpt lat="44.89155" lon="0.33538">
        <ele>88.9</ele>
        <time>2022-04-05T11:50:43Z</time>
      </trkpt>
      <trkpt lat="44.89153" lon="0.3354">
        <ele>88.8</ele>
        <time>2022-04-05T11:50:44Z</time>
      </trkpt>
      <trkpt lat="44.89152" lon="0.33541">
        <ele>88.7</ele>
        <time>2022-04-05T11:50:45Z</time>
      </trkpt>
      <trkpt lat="44.8915" lon="0.33542">
        <ele>88.6</ele>
        <time>2022-04-05T11:50:46Z</time>
      </trkpt>
      <trkpt lat="44.89149" lon="0.33542">
        <ele>88.5</ele>
        <time>2022-04-05T11:50:48Z</time>
      </trkpt>
      <trkpt lat="44.89148" lon="0.33543">
        <ele>88.5</ele>
        <time>2022-04-05T11:50:49Z</time>
      </trkpt>
      <trkpt lat="44.89147" lon="0.33544">
        <ele>88.4</ele>
        <time>2022-04-05T11:50:50Z</time>
      </trkpt>
      <trkpt lat="44.89145" lon="0.33546">
        <ele>88.3</ele>
        <time>2022-04-05T11:50:51Z</time>
      </trkpt>
      <trkpt lat="44.89143" lon="0.33547">
        <ele>88.1</ele>
        <time>2022-04-05T11:50:52Z</time>
      </trkpt>
      <trkpt lat="44.89143" lon="0.33548">
        <ele>88.1</ele>
        <time>2022-04-05T11:50:53Z</time>
      </trkpt>
      <trkpt lat="44.89142" lon="0.33549">
        <ele>88</ele>
        <time>2022-04-05T11:50:54Z</time>
      </trkpt>
      <trkpt lat="44.8914" lon="0.33551">
        <ele>87.8</ele>
        <time>2022-04-05T11:50:55Z</time>
      </trkpt>
      <trkpt lat="44.89139" lon="0.33551">
        <ele>87.8</ele>
        <time>2022-04-05T11:50:57Z</time>
      </trkpt>
      <trkpt lat="44.89138" lon="0.33552">
        <ele>87.7</ele>
        <time>2022-04-05T11:50:58Z</time>
      </trkpt>
      <trkpt lat="44.89137" lon="0.33553">
        <ele>87.6</ele>
        <time>2022-04-05T11:50:59Z</time>
      </trkpt>
      <trkpt lat="44.89134" lon="0.33555">
        <ele>87.4</ele>
        <time>2022-04-05T11:51:01Z</time>
      </trkpt>
      <trkpt lat="44.89133" lon="0.33556">
        <ele>87.2</ele>
        <time>2022-04-05T11:51:02Z</time>
      </trkpt>
      <trkpt lat="44.89132" lon="0.33557">
        <ele>87.2</ele>
        <time>2022-04-05T11:51:03Z</time>
      </trkpt>
      <trkpt lat="44.89131" lon="0.33558">
        <ele>87.1</ele>
        <time>2022-04-05T11:51:04Z</time>
      </trkpt>
      <trkpt lat="44.8913" lon="0.33559">
        <ele>87</ele>
        <time>2022-04-05T11:51:05Z</time>
      </trkpt>
      <trkpt lat="44.89129" lon="0.3356">
        <ele>86.9</ele>
        <time>2022-04-05T11:51:06Z</time>
      </trkpt>
      <trkpt lat="44.89128" lon="0.33561">
        <ele>86.8</ele>
        <time>2022-04-05T11:51:07Z</time>
      </trkpt>
      <trkpt lat="44.89127" lon="0.33563">
        <ele>86.7</ele>
        <time>2022-04-05T11:51:08Z</time>
      </trkpt>
      <trkpt lat="44.89126" lon="0.33564">
        <ele>86.7</ele>
        <time>2022-04-05T11:51:09Z</time>
      </trkpt>
      <trkpt lat="44.89124" lon="0.33567">
        <ele>86.5</ele>
        <time>2022-04-05T11:51:11Z</time>
      </trkpt>
      <trkpt lat="44.89124" lon="0.33568">
        <ele>86.4</ele>
        <time>2022-04-05T11:51:12Z</time>
      </trkpt>
      <trkpt lat="44.89123" lon="0.33569">
        <ele>86.3</ele>
        <time>2022-04-05T11:51:13Z</time>
      </trkpt>
      <trkpt lat="44.89122" lon="0.3357">
        <ele>86.3</ele>
        <time>2022-04-05T11:51:14Z</time>
      </trkpt>
      <trkpt lat="44.8912" lon="0.33572">
        <ele>86.1</ele>
        <time>2022-04-05T11:51:15Z</time>
      </trkpt>
      <trkpt lat="44.8912" lon="0.33573">
        <ele>86.1</ele>
        <time>2022-04-05T11:51:16Z</time>
      </trkpt>
      <trkpt lat="44.89119" lon="0.33574">
        <ele>86.1</ele>
        <time>2022-04-05T11:51:17Z</time>
      </trkpt>
      <trkpt lat="44.89118" lon="0.33575">
        <ele>86</ele>
        <time>2022-04-05T11:51:18Z</time>
      </trkpt>
      <trkpt lat="44.89117" lon="0.33576">
        <ele>85.9</ele>
        <time>2022-04-05T11:51:19Z</time>
      </trkpt>
      <trkpt lat="44.89115" lon="0.33577">
        <ele>85.8</ele>
        <time>2022-04-05T11:51:20Z</time>
      </trkpt>
      <trkpt lat="44.89114" lon="0.33577">
        <ele>85.8</ele>
        <time>2022-04-05T11:51:21Z</time>
      </trkpt>
      <trkpt lat="44.89113" lon="0.33578">
        <ele>85.7</ele>
        <time>2022-04-05T11:51:22Z</time>
      </trkpt>
      <trkpt lat="44.89112" lon="0.33579">
        <ele>85.7</ele>
        <time>2022-04-05T11:51:23Z</time>
      </trkpt>
      <trkpt lat="44.89111" lon="0.33579">
        <ele>85.6</ele>
        <time>2022-04-05T11:51:24Z</time>
      </trkpt>
      <trkpt lat="44.89109" lon="0.3358">
        <ele>85.5</ele>
        <time>2022-04-05T11:51:25Z</time>
      </trkpt>
      <trkpt lat="44.89108" lon="0.3358">
        <ele>85.5</ele>
        <time>2022-04-05T11:51:27Z</time>
      </trkpt>
      <trkpt lat="44.89107" lon="0.33579">
        <ele>85.4</ele>
        <time>2022-04-05T11:51:28Z</time>
      </trkpt>
      <trkpt lat="44.89106" lon="0.33578">
        <ele>85.4</ele>
        <time>2022-04-05T11:51:29Z</time>
      </trkpt>
      <trkpt lat="44.89106" lon="0.33577">
        <ele>85.3</ele>
        <time>2022-04-05T11:51:31Z</time>
      </trkpt>
      <trkpt lat="44.89106" lon="0.33577">
        <ele>85.3</ele>
        <time>2022-04-05T11:51:32Z</time>
      </trkpt>
      <trkpt lat="44.89105" lon="0.33578">
        <ele>85.3</ele>
        <time>2022-04-05T11:51:33Z</time>
      </trkpt>
      <trkpt lat="44.89104" lon="0.33579">
        <ele>85.2</ele>
        <time>2022-04-05T11:51:34Z</time>
      </trkpt>
      <trkpt lat="44.89101" lon="0.33581">
        <ele>85.1</ele>
        <time>2022-04-05T11:51:36Z</time>
      </trkpt>
      <trkpt lat="44.891" lon="0.33583">
        <ele>85</ele>
        <time>2022-04-05T11:51:37Z</time>
      </trkpt>
      <trkpt lat="44.89099" lon="0.33583">
        <ele>85</ele>
        <time>2022-04-05T11:51:38Z</time>
      </trkpt>
      <trkpt lat="44.89099" lon="0.33584">
        <ele>84.9</ele>
        <time>2022-04-05T11:51:39Z</time>
      </trkpt>
      <trkpt lat="44.89097" lon="0.33586">
        <ele>84.8</ele>
        <time>2022-04-05T11:51:40Z</time>
      </trkpt>
      <trkpt lat="44.89096" lon="0.33587">
        <ele>84.8</ele>
        <time>2022-04-05T11:51:41Z</time>
      </trkpt>
      <trkpt lat="44.89096" lon="0.33587">
        <ele>84.8</ele>
        <time>2022-04-05T11:51:42Z</time>
      </trkpt>
      <trkpt lat="44.89095" lon="0.33588">
        <ele>84.7</ele>
        <time>2022-04-05T11:51:43Z</time>
      </trkpt>
      <trkpt lat="44.89094" lon="0.33589">
        <ele>84.7</ele>
        <time>2022-04-05T11:51:44Z</time>
      </trkpt>
      <trkpt lat="44.89092" lon="0.33591">
        <ele>84.6</ele>
        <time>2022-04-05T11:51:46Z</time>
      </trkpt>
      <trkpt lat="44.89091" lon="0.33593">
        <ele>84.5</ele>
        <time>2022-04-05T11:51:47Z</time>
      </trkpt>
      <trkpt lat="44.89089" lon="0.33595">
        <ele>84.4</ele>
        <time>2022-04-05T11:51:48Z</time>
      </trkpt>
      <trkpt lat="44.89088" lon="0.33596">
        <ele>84.4</ele>
        <time>2022-04-05T11:51:49Z</time>
      </trkpt>
      <trkpt lat="44.89087" lon="0.33597">
        <ele>84.3</ele>
        <time>2022-04-05T11:51:50Z</time>
      </trkpt>
      <trkpt lat="44.89087" lon="0.33597">
        <ele>84.3</ele>
        <time>2022-04-05T11:51:51Z</time>
      </trkpt>
      <trkpt lat="44.89086" lon="0.33597">
        <ele>84.3</ele>
        <time>2022-04-05T11:51:52Z</time>
      </trkpt>
      <trkpt lat="44.89084" lon="0.33598">
        <ele>84.2</ele>
        <time>2022-04-05T11:51:54Z</time>
      </trkpt>
      <trkpt lat="44.89083" lon="0.33599">
        <ele>84.1</ele>
        <time>2022-04-05T11:51:55Z</time>
      </trkpt>
      <trkpt lat="44.89082" lon="0.33601">
        <ele>84.1</ele>
        <time>2022-04-05T11:51:56Z</time>
      </trkpt>
      <trkpt lat="44.8908" lon="0.33602">
        <ele>84</ele>
        <time>2022-04-05T11:51:57Z</time>
      </trkpt>
      <trkpt lat="44.8908" lon="0.33603">
        <ele>83.9</ele>
        <time>2022-04-05T11:51:58Z</time>
      </trkpt>
      <trkpt lat="44.89079" lon="0.33604">
        <ele>83.9</ele>
        <time>2022-04-05T11:51:59Z</time>
      </trkpt>
      <trkpt lat="44.89077" lon="0.33606">
        <ele>83.8</ele>
        <time>2022-04-05T11:52:00Z</time>
      </trkpt>
      <trkpt lat="44.89077" lon="0.33607">
        <ele>83.8</ele>
        <time>2022-04-05T11:52:01Z</time>
      </trkpt>
      <trkpt lat="44.89076" lon="0.33607">
        <ele>83.7</ele>
        <time>2022-04-05T11:52:02Z</time>
      </trkpt>
      <trkpt lat="44.89075" lon="0.33608">
        <ele>83.7</ele>
        <time>2022-04-05T11:52:03Z</time>
      </trkpt>
      <trkpt lat="44.89074" lon="0.3361">
        <ele>83.6</ele>
        <time>2022-04-05T11:52:04Z</time>
      </trkpt>
      <trkpt lat="44.89072" lon="0.33612">
        <ele>83.5</ele>
        <time>2022-04-05T11:52:05Z</time>
      </trkpt>
      <trkpt lat="44.89071" lon="0.33612">
        <ele>83.5</ele>
        <time>2022-04-05T11:52:06Z</time>
      </trkpt>
      <trkpt lat="44.89071" lon="0.33612">
        <ele>83.4</ele>
        <time>2022-04-05T11:52:07Z</time>
      </trkpt>
      <trkpt lat="44.89069" lon="0.33614">
        <ele>83.3</ele>
        <time>2022-04-05T11:52:08Z</time>
      </trkpt>
      <trkpt lat="44.89068" lon="0.33615">
        <ele>83.2</ele>
        <time>2022-04-05T11:52:09Z</time>
      </trkpt>
      <trkpt lat="44.89067" lon="0.33616">
        <ele>83.1</ele>
        <time>2022-04-05T11:52:10Z</time>
      </trkpt>
      <trkpt lat="44.89066" lon="0.33616">
        <ele>83.1</ele>
        <time>2022-04-05T11:52:12Z</time>
      </trkpt>
      <trkpt lat="44.89065" lon="0.33617">
        <ele>83</ele>
        <time>2022-04-05T11:52:13Z</time>
      </trkpt>
      <trkpt lat="44.89064" lon="0.33618">
        <ele>83</ele>
        <time>2022-04-05T11:52:14Z</time>
      </trkpt>
      <trkpt lat="44.89062" lon="0.33619">
        <ele>82.9</ele>
        <time>2022-04-05T11:52:15Z</time>
      </trkpt>
      <trkpt lat="44.89061" lon="0.3362">
        <ele>82.8</ele>
        <time>2022-04-05T11:52:16Z</time>
      </trkpt>
      <trkpt lat="44.89061" lon="0.3362">
        <ele>82.8</ele>
        <time>2022-04-05T11:52:17Z</time>
      </trkpt>
      <trkpt lat="44.89059" lon="0.33621">
        <ele>82.7</ele>
        <time>2022-04-05T11:52:18Z</time>
      </trkpt>
      <trkpt lat="44.89058" lon="0.33622">
        <ele>82.7</ele>
        <time>2022-04-05T11:52:19Z</time>
      </trkpt>
      <trkpt lat="44.89057" lon="0.33623">
        <ele>82.6</ele>
        <time>2022-04-05T11:52:20Z</time>
      </trkpt>
      <trkpt lat="44.89056" lon="0.33625">
        <ele>82.6</ele>
        <time>2022-04-05T11:52:21Z</time>
      </trkpt>
      <trkpt lat="44.89056" lon="0.33626">
        <ele>82.5</ele>
        <time>2022-04-05T11:52:22Z</time>
      </trkpt>
      <trkpt lat="44.89054" lon="0.33627">
        <ele>82.4</ele>
        <time>2022-04-05T11:52:23Z</time>
      </trkpt>
      <trkpt lat="44.89053" lon="0.33628">
        <ele>82.4</ele>
        <time>2022-04-05T11:52:24Z</time>
      </trkpt>
      <trkpt lat="44.89052" lon="0.33628">
        <ele>82.4</ele>
        <time>2022-04-05T11:52:25Z</time>
      </trkpt>
      <trkpt lat="44.8905" lon="0.33629">
        <ele>82.3</ele>
        <time>2022-04-05T11:52:27Z</time>
      </trkpt>
      <trkpt lat="44.89049" lon="0.3363">
        <ele>82.3</ele>
        <time>2022-04-05T11:52:28Z</time>
      </trkpt>
      <trkpt lat="44.89048" lon="0.3363">
        <ele>82.2</ele>
        <time>2022-04-05T11:52:29Z</time>
      </trkpt>
      <trkpt lat="44.89047" lon="0.33631">
        <ele>82.2</ele>
        <time>2022-04-05T11:52:30Z</time>
      </trkpt>
      <trkpt lat="44.89045" lon="0.33631">
        <ele>82.2</ele>
        <time>2022-04-05T11:52:31Z</time>
      </trkpt>
      <trkpt lat="44.89045" lon="0.33632">
        <ele>82.1</ele>
        <time>2022-04-05T11:52:32Z</time>
      </trkpt>
      <trkpt lat="44.89043" lon="0.33633">
        <ele>82.1</ele>
        <time>2022-04-05T11:52:33Z</time>
      </trkpt>
      <trkpt lat="44.89042" lon="0.33633">
        <ele>82.1</ele>
        <time>2022-04-05T11:52:34Z</time>
      </trkpt>
      <trkpt lat="44.89041" lon="0.33634">
        <ele>82</ele>
        <time>2022-04-05T11:52:35Z</time>
      </trkpt>
      <trkpt lat="44.89039" lon="0.33635">
        <ele>82</ele>
        <time>2022-04-05T11:52:36Z</time>
      </trkpt>
      <trkpt lat="44.89038" lon="0.33635">
        <ele>82</ele>
        <time>2022-04-05T11:52:37Z</time>
      </trkpt>
      <trkpt lat="44.89037" lon="0.33636">
        <ele>81.9</ele>
        <time>2022-04-05T11:52:38Z</time>
      </trkpt>
      <trkpt lat="44.89036" lon="0.33637">
        <ele>81.9</ele>
        <time>2022-04-05T11:52:39Z</time>
      </trkpt>
      <trkpt lat="44.89033" lon="0.33639">
        <ele>81.8</ele>
        <time>2022-04-05T11:52:41Z</time>
      </trkpt>
      <trkpt lat="44.89032" lon="0.33639">
        <ele>81.8</ele>
        <time>2022-04-05T11:52:42Z</time>
      </trkpt>
      <trkpt lat="44.89032" lon="0.3364">
        <ele>81.8</ele>
        <time>2022-04-05T11:52:43Z</time>
      </trkpt>
      <trkpt lat="44.8903" lon="0.3364">
        <ele>81.7</ele>
        <time>2022-04-05T11:52:44Z</time>
      </trkpt>
      <trkpt lat="44.89029" lon="0.33641">
        <ele>81.7</ele>
        <time>2022-04-05T11:52:45Z</time>
      </trkpt>
      <trkpt lat="44.89027" lon="0.33642">
        <ele>81.7</ele>
        <time>2022-04-05T11:52:46Z</time>
      </trkpt>
      <trkpt lat="44.89026" lon="0.33643">
        <ele>81.7</ele>
        <time>2022-04-05T11:52:47Z</time>
      </trkpt>
      <trkpt lat="44.89025" lon="0.33643">
        <ele>81.6</ele>
        <time>2022-04-05T11:52:48Z</time>
      </trkpt>
      <trkpt lat="44.89025" lon="0.33644">
        <ele>81.6</ele>
        <time>2022-04-05T11:52:49Z</time>
      </trkpt>
      <trkpt lat="44.89023" lon="0.33644">
        <ele>81.5</ele>
        <time>2022-04-05T11:52:50Z</time>
      </trkpt>
      <trkpt lat="44.89022" lon="0.33645">
        <ele>81.5</ele>
        <time>2022-04-05T11:52:51Z</time>
      </trkpt>
      <trkpt lat="44.89021" lon="0.33646">
        <ele>81.5</ele>
        <time>2022-04-05T11:52:52Z</time>
      </trkpt>
      <trkpt lat="44.89019" lon="0.33648">
        <ele>81.4</ele>
        <time>2022-04-05T11:52:53Z</time>
      </trkpt>
      <trkpt lat="44.89018" lon="0.33649">
        <ele>81.4</ele>
        <time>2022-04-05T11:52:54Z</time>
      </trkpt>
      <trkpt lat="44.89018" lon="0.33651">
        <ele>81.3</ele>
        <time>2022-04-05T11:52:55Z</time>
      </trkpt>
      <trkpt lat="44.89017" lon="0.33652">
        <ele>81.3</ele>
        <time>2022-04-05T11:52:57Z</time>
      </trkpt>
      <trkpt lat="44.89016" lon="0.33653">
        <ele>81.3</ele>
        <time>2022-04-05T11:52:58Z</time>
      </trkpt>
      <trkpt lat="44.89016" lon="0.33655">
        <ele>81.3</ele>
        <time>2022-04-05T11:52:59Z</time>
      </trkpt>
      <trkpt lat="44.89016" lon="0.33659">
        <ele>81.2</ele>
        <time>2022-04-05T11:53:00Z</time>
      </trkpt>
      <trkpt lat="44.89017" lon="0.3366">
        <ele>81.2</ele>
        <time>2022-04-05T11:53:02Z</time>
      </trkpt>
      <trkpt lat="44.89018" lon="0.33662">
        <ele>81.1</ele>
        <time>2022-04-05T11:53:03Z</time>
      </trkpt>
      <trkpt lat="44.89018" lon="0.33664">
        <ele>81.1</ele>
        <time>2022-04-05T11:53:04Z</time>
      </trkpt>
      <trkpt lat="44.89019" lon="0.33666">
        <ele>81</ele>
        <time>2022-04-05T11:53:05Z</time>
      </trkpt>
      <trkpt lat="44.89019" lon="0.33669">
        <ele>81</ele>
        <time>2022-04-05T11:53:06Z</time>
      </trkpt>
      <trkpt lat="44.89019" lon="0.3367">
        <ele>81</ele>
        <time>2022-04-05T11:53:07Z</time>
      </trkpt>
      <trkpt lat="44.89018" lon="0.33672">
        <ele>80.9</ele>
        <time>2022-04-05T11:53:09Z</time>
      </trkpt>
      <trkpt lat="44.89018" lon="0.33671">
        <ele>80.9</ele>
        <time>2022-04-05T11:53:10Z</time>
      </trkpt>
      <trkpt lat="44.89017" lon="0.3367">
        <ele>80.9</ele>
        <time>2022-04-05T11:53:11Z</time>
      </trkpt>
      <trkpt lat="44.89018" lon="0.33669">
        <ele>80.9</ele>
        <time>2022-04-05T11:53:12Z</time>
      </trkpt>
      <trkpt lat="44.89018" lon="0.33669">
        <ele>80.9</ele>
        <time>2022-04-05T11:53:13Z</time>
      </trkpt>
      <trkpt lat="44.89018" lon="0.33669">
        <ele>80.9</ele>
        <time>2022-04-05T11:53:14Z</time>
      </trkpt>
      <trkpt lat="44.89018" lon="0.33669">
        <ele>80.9</ele>
        <time>2022-04-05T11:53:15Z</time>
      </trkpt>
      <trkpt lat="44.89018" lon="0.33668">
        <ele>80.9</ele>
        <time>2022-04-05T11:53:16Z</time>
      </trkpt>
      <trkpt lat="44.89018" lon="0.33668">
        <ele>80.9</ele>
        <time>2022-04-05T11:53:17Z</time>
      </trkpt>
      <trkpt lat="44.89018" lon="0.33668">
        <ele>80.9</ele>
        <time>2022-04-05T11:53:18Z</time>
      </trkpt>
      <trkpt lat="44.89018" lon="0.33668">
        <ele>80.9</ele>
        <time>2022-04-05T11:53:19Z</time>
      </trkpt>
      <trkpt lat="44.89018" lon="0.33668">
        <ele>80.9</ele>
        <time>2022-04-05T11:53:20Z</time>
      </trkpt>
      <trkpt lat="44.89018" lon="0.33667">
        <ele>80.9</ele>
        <time>2022-04-05T11:53:21Z</time>
      </trkpt>
      <trkpt lat="44.89018" lon="0.33667">
        <ele>80.9</ele>
        <time>2022-04-05T11:53:22Z</time>
      </trkpt>
      <trkpt lat="44.89018" lon="0.33667">
        <ele>80.9</ele>
        <time>2022-04-05T11:53:23Z</time>
      </trkpt>
      <trkpt lat="44.89018" lon="0.33667">
        <ele>80.8</ele>
        <time>2022-04-05T11:53:24Z</time>
      </trkpt>
      <trkpt lat="44.89018" lon="0.33667">
        <ele>80.8</ele>
        <time>2022-04-05T11:53:25Z</time>
      </trkpt>
      <trkpt lat="44.89018" lon="0.33667">
        <ele>80.8</ele>
        <time>2022-04-05T11:53:26Z</time>
      </trkpt>
      <trkpt lat="44.89018" lon="0.33667">
        <ele>80.8</ele>
        <time>2022-04-05T11:53:27Z</time>
      </trkpt>
      <trkpt lat="44.89018" lon="0.33667">
        <ele>80.8</ele>
        <time>2022-04-05T11:53:28Z</time>
      </trkpt>
      <trkpt lat="44.89018" lon="0.33667">
        <ele>80.8</ele>
        <time>2022-04-05T11:53:29Z</time>
      </trkpt>
      <trkpt lat="44.89018" lon="0.33667">
        <ele>80.8</ele>
        <time>2022-04-05T11:53:30Z</time>
      </trkpt>
      <trkpt lat="44.89018" lon="0.33667">
        <ele>80.7</ele>
        <time>2022-04-05T11:53:31Z</time>
      </trkpt>
      <trkpt lat="44.89019" lon="0.33667">
        <ele>80.7</ele>
        <time>2022-04-05T11:53:32Z</time>
      </trkpt>
      <trkpt lat="44.89019" lon="0.33666">
        <ele>80.7</ele>
        <time>2022-04-05T11:53:33Z</time>
      </trkpt>
      <trkpt lat="44.89019" lon="0.33665">
        <ele>80.7</ele>
        <time>2022-04-05T11:53:34Z</time>
      </trkpt>
      <trkpt lat="44.89019" lon="0.33665">
        <ele>80.7</ele>
        <time>2022-04-05T11:53:35Z</time>
      </trkpt>
      <trkpt lat="44.89019" lon="0.33664">
        <ele>80.7</ele>
        <time>2022-04-05T11:53:36Z</time>
      </trkpt>
      <trkpt lat="44.89019" lon="0.33664">
        <ele>80.7</ele>
        <time>2022-04-05T11:53:37Z</time>
      </trkpt>
      <trkpt lat="44.89019" lon="0.33664">
        <ele>80.7</ele>
        <time>2022-04-05T11:53:38Z</time>
      </trkpt>
      <trkpt lat="44.89019" lon="0.33664">
        <ele>80.7</ele>
        <time>2022-04-05T11:53:39Z</time>
      </trkpt>
      <trkpt lat="44.89018" lon="0.33664">
        <ele>80.7</ele>
        <time>2022-04-05T11:53:41Z</time>
      </trkpt>
      <trkpt lat="44.89017" lon="0.33661">
        <ele>80.6</ele>
        <time>2022-04-05T11:53:42Z</time>
      </trkpt>
      <trkpt lat="44.89018" lon="0.33661">
        <ele>80.6</ele>
        <time>2022-04-05T11:53:43Z</time>
      </trkpt>
      <trkpt lat="44.89018" lon="0.33661">
        <ele>80.6</ele>
        <time>2022-04-05T11:53:44Z</time>
      </trkpt>
      <trkpt lat="44.89019" lon="0.3366">
        <ele>80.6</ele>
        <time>2022-04-05T11:53:45Z</time>
      </trkpt>
      <trkpt lat="44.89019" lon="0.33659">
        <ele>80.6</ele>
        <time>2022-04-05T11:53:46Z</time>
      </trkpt>
      <trkpt lat="44.89019" lon="0.33659">
        <ele>80.6</ele>
        <time>2022-04-05T11:53:47Z</time>
      </trkpt>
      <trkpt lat="44.89019" lon="0.33658">
        <ele>80.6</ele>
        <time>2022-04-05T11:53:48Z</time>
      </trkpt>
      <trkpt lat="44.89019" lon="0.33658">
        <ele>80.5</ele>
        <time>2022-04-05T11:53:49Z</time>
      </trkpt>
      <trkpt lat="44.89019" lon="0.33657">
        <ele>80.5</ele>
        <time>2022-04-05T11:53:50Z</time>
      </trkpt>
      <trkpt lat="44.8902" lon="0.33656">
        <ele>80.5</ele>
        <time>2022-04-05T11:53:51Z</time>
      </trkpt>
      <trkpt lat="44.8902" lon="0.33655">
        <ele>80.5</ele>
        <time>2022-04-05T11:53:52Z</time>
      </trkpt>
      <trkpt lat="44.89021" lon="0.33654">
        <ele>80.5</ele>
        <time>2022-04-05T11:53:53Z</time>
      </trkpt>
      <trkpt lat="44.8902" lon="0.3365">
        <ele>80.4</ele>
        <time>2022-04-05T11:53:54Z</time>
      </trkpt>
      <trkpt lat="44.8902" lon="0.33648">
        <ele>80.4</ele>
        <time>2022-04-05T11:53:55Z</time>
      </trkpt>
      <trkpt lat="44.89018" lon="0.33645">
        <ele>80.4</ele>
        <time>2022-04-05T11:53:56Z</time>
      </trkpt>
      <trkpt lat="44.89017" lon="0.33643">
        <ele>80.3</ele>
        <time>2022-04-05T11:53:57Z</time>
      </trkpt>
      <trkpt lat="44.89015" lon="0.33642">
        <ele>80.3</ele>
        <time>2022-04-05T11:53:59Z</time>
      </trkpt>
      <trkpt lat="44.89013" lon="0.33642">
        <ele>80.3</ele>
        <time>2022-04-05T11:54:00Z</time>
      </trkpt>
      <trkpt lat="44.89012" lon="0.33643">
        <ele>80.2</ele>
        <time>2022-04-05T11:54:01Z</time>
      </trkpt>
      <trkpt lat="44.8901" lon="0.33644">
        <ele>80.2</ele>
        <time>2022-04-05T11:54:02Z</time>
      </trkpt>
      <trkpt lat="44.89009" lon="0.33645">
        <ele>80.2</ele>
        <time>2022-04-05T11:54:03Z</time>
      </trkpt>
      <trkpt lat="44.89007" lon="0.33647">
        <ele>80.2</ele>
        <time>2022-04-05T11:54:04Z</time>
      </trkpt>
      <trkpt lat="44.89006" lon="0.33648">
        <ele>80.1</ele>
        <time>2022-04-05T11:54:05Z</time>
      </trkpt>
      <trkpt lat="44.89005" lon="0.3365">
        <ele>80.1</ele>
        <time>2022-04-05T11:54:06Z</time>
      </trkpt>
      <trkpt lat="44.89005" lon="0.33651">
        <ele>80.1</ele>
        <time>2022-04-05T11:54:07Z</time>
      </trkpt>
      <trkpt lat="44.89004" lon="0.33652">
        <ele>80.1</ele>
        <time>2022-04-05T11:54:08Z</time>
      </trkpt>
      <trkpt lat="44.89003" lon="0.33654">
        <ele>80.1</ele>
        <time>2022-04-05T11:54:10Z</time>
      </trkpt>
      <trkpt lat="44.89002" lon="0.33655">
        <ele>80.1</ele>
        <time>2022-04-05T11:54:11Z</time>
      </trkpt>
      <trkpt lat="44.89" lon="0.33657">
        <ele>80</ele>
        <time>2022-04-05T11:54:12Z</time>
      </trkpt>
      <trkpt lat="44.88999" lon="0.33658">
        <ele>80</ele>
        <time>2022-04-05T11:54:13Z</time>
      </trkpt>
      <trkpt lat="44.88998" lon="0.33658">
        <ele>80</ele>
        <time>2022-04-05T11:54:14Z</time>
      </trkpt>
      <trkpt lat="44.88997" lon="0.33659">
        <ele>80</ele>
        <time>2022-04-05T11:54:15Z</time>
      </trkpt>
      <trkpt lat="44.88994" lon="0.3366">
        <ele>80</ele>
        <time>2022-04-05T11:54:16Z</time>
      </trkpt>
      <trkpt lat="44.88993" lon="0.3366">
        <ele>80</ele>
        <time>2022-04-05T11:54:17Z</time>
      </trkpt>
      <trkpt lat="44.88992" lon="0.33661">
        <ele>79.9</ele>
        <time>2022-04-05T11:54:18Z</time>
      </trkpt>
      <trkpt lat="44.8899" lon="0.33662">
        <ele>79.9</ele>
        <time>2022-04-05T11:54:20Z</time>
      </trkpt>
      <trkpt lat="44.88988" lon="0.33663">
        <ele>79.9</ele>
        <time>2022-04-05T11:54:21Z</time>
      </trkpt>
      <trkpt lat="44.88987" lon="0.33663">
        <ele>79.9</ele>
        <time>2022-04-05T11:54:22Z</time>
      </trkpt>
      <trkpt lat="44.88985" lon="0.33664">
        <ele>79.9</ele>
        <time>2022-04-05T11:54:24Z</time>
      </trkpt>
      <trkpt lat="44.88984" lon="0.33665">
        <ele>79.9</ele>
        <time>2022-04-05T11:54:25Z</time>
      </trkpt>
      <trkpt lat="44.88982" lon="0.33666">
        <ele>79.8</ele>
        <time>2022-04-05T11:54:26Z</time>
      </trkpt>
      <trkpt lat="44.88981" lon="0.33666">
        <ele>79.8</ele>
        <time>2022-04-05T11:54:28Z</time>
      </trkpt>
      <trkpt lat="44.88979" lon="0.33667">
        <ele>79.8</ele>
        <time>2022-04-05T11:54:29Z</time>
      </trkpt>
      <trkpt lat="44.88978" lon="0.33667">
        <ele>79.8</ele>
        <time>2022-04-05T11:54:30Z</time>
      </trkpt>
      <trkpt lat="44.88976" lon="0.33667">
        <ele>79.8</ele>
        <time>2022-04-05T11:54:31Z</time>
      </trkpt>
      <trkpt lat="44.88974" lon="0.33668">
        <ele>79.7</ele>
        <time>2022-04-05T11:54:32Z</time>
      </trkpt>
      <trkpt lat="44.88973" lon="0.33668">
        <ele>79.7</ele>
        <time>2022-04-05T11:54:33Z</time>
      </trkpt>
      <trkpt lat="44.88973" lon="0.33669">
        <ele>79.7</ele>
        <time>2022-04-05T11:54:34Z</time>
      </trkpt>
      <trkpt lat="44.88971" lon="0.33669">
        <ele>79.7</ele>
        <time>2022-04-05T11:54:35Z</time>
      </trkpt>
      <trkpt lat="44.8897" lon="0.3367">
        <ele>79.7</ele>
        <time>2022-04-05T11:54:36Z</time>
      </trkpt>
      <trkpt lat="44.88968" lon="0.33671">
        <ele>79.6</ele>
        <time>2022-04-05T11:54:37Z</time>
      </trkpt>
      <trkpt lat="44.88966" lon="0.33671">
        <ele>79.6</ele>
        <time>2022-04-05T11:54:38Z</time>
      </trkpt>
      <trkpt lat="44.88966" lon="0.33671">
        <ele>79.6</ele>
        <time>2022-04-05T11:54:39Z</time>
      </trkpt>
      <trkpt lat="44.88965" lon="0.33671">
        <ele>79.6</ele>
        <time>2022-04-05T11:54:40Z</time>
      </trkpt>
      <trkpt lat="44.88963" lon="0.33672">
        <ele>79.5</ele>
        <time>2022-04-05T11:54:41Z</time>
      </trkpt>
      <trkpt lat="44.88961" lon="0.33672">
        <ele>79.5</ele>
        <time>2022-04-05T11:54:42Z</time>
      </trkpt>
      <trkpt lat="44.8896" lon="0.33672">
        <ele>79.5</ele>
        <time>2022-04-05T11:54:43Z</time>
      </trkpt>
      <trkpt lat="44.88959" lon="0.33673">
        <ele>79.4</ele>
        <time>2022-04-05T11:54:44Z</time>
      </trkpt>
      <trkpt lat="44.88958" lon="0.33673">
        <ele>79.4</ele>
        <time>2022-04-05T11:54:45Z</time>
      </trkpt>
      <trkpt lat="44.88956" lon="0.33673">
        <ele>79.3</ele>
        <time>2022-04-05T11:54:46Z</time>
      </trkpt>
      <trkpt lat="44.88955" lon="0.33673">
        <ele>79.3</ele>
        <time>2022-04-05T11:54:47Z</time>
      </trkpt>
      <trkpt lat="44.88953" lon="0.33674">
        <ele>79.3</ele>
        <time>2022-04-05T11:54:48Z</time>
      </trkpt>
      <trkpt lat="44.88952" lon="0.33675">
        <ele>79.3</ele>
        <time>2022-04-05T11:54:50Z</time>
      </trkpt>
      <trkpt lat="44.8895" lon="0.33676">
        <ele>79.2</ele>
        <time>2022-04-05T11:54:51Z</time>
      </trkpt>
      <trkpt lat="44.88949" lon="0.33676">
        <ele>79.2</ele>
        <time>2022-04-05T11:54:53Z</time>
      </trkpt>
      <trkpt lat="44.88947" lon="0.33677">
        <ele>79.1</ele>
        <time>2022-04-05T11:54:54Z</time>
      </trkpt>
      <trkpt lat="44.88946" lon="0.33677">
        <ele>79.1</ele>
        <time>2022-04-05T11:54:55Z</time>
      </trkpt>
      <trkpt lat="44.88944" lon="0.33679">
        <ele>79</ele>
        <time>2022-04-05T11:54:57Z</time>
      </trkpt>
      <trkpt lat="44.88942" lon="0.33679">
        <ele>78.9</ele>
        <time>2022-04-05T11:54:58Z</time>
      </trkpt>
      <trkpt lat="44.88941" lon="0.3368">
        <ele>78.9</ele>
        <time>2022-04-05T11:54:59Z</time>
      </trkpt>
      <trkpt lat="44.8894" lon="0.3368">
        <ele>78.9</ele>
        <time>2022-04-05T11:55:00Z</time>
      </trkpt>
      <trkpt lat="44.88939" lon="0.3368">
        <ele>78.8</ele>
        <time>2022-04-05T11:55:01Z</time>
      </trkpt>
      <trkpt lat="44.88938" lon="0.33681">
        <ele>78.7</ele>
        <time>2022-04-05T11:55:02Z</time>
      </trkpt>
      <trkpt lat="44.88936" lon="0.33682">
        <ele>78.6</ele>
        <time>2022-04-05T11:55:03Z</time>
      </trkpt>
      <trkpt lat="44.88935" lon="0.33683">
        <ele>78.6</ele>
        <time>2022-04-05T11:55:04Z</time>
      </trkpt>
      <trkpt lat="44.88934" lon="0.33683">
        <ele>78.5</ele>
        <time>2022-04-05T11:55:05Z</time>
      </trkpt>
      <trkpt lat="44.88932" lon="0.33685">
        <ele>78.4</ele>
        <time>2022-04-05T11:55:06Z</time>
      </trkpt>
      <trkpt lat="44.88931" lon="0.33685">
        <ele>78.3</ele>
        <time>2022-04-05T11:55:08Z</time>
      </trkpt>
      <trkpt lat="44.8893" lon="0.33686">
        <ele>78.3</ele>
        <time>2022-04-05T11:55:09Z</time>
      </trkpt>
      <trkpt lat="44.88929" lon="0.33687">
        <ele>78.2</ele>
        <time>2022-04-05T11:55:10Z</time>
      </trkpt>
      <trkpt lat="44.88928" lon="0.33687">
        <ele>78.2</ele>
        <time>2022-04-05T11:55:11Z</time>
      </trkpt>
      <trkpt lat="44.88927" lon="0.33688">
        <ele>78.1</ele>
        <time>2022-04-05T11:55:12Z</time>
      </trkpt>
      <trkpt lat="44.88926" lon="0.33688">
        <ele>78</ele>
        <time>2022-04-05T11:55:13Z</time>
      </trkpt>
      <trkpt lat="44.88925" lon="0.33689">
        <ele>78</ele>
        <time>2022-04-05T11:55:14Z</time>
      </trkpt>
      <trkpt lat="44.88923" lon="0.3369">
        <ele>77.8</ele>
        <time>2022-04-05T11:55:15Z</time>
      </trkpt>
      <trkpt lat="44.88923" lon="0.33691">
        <ele>77.8</ele>
        <time>2022-04-05T11:55:16Z</time>
      </trkpt>
      <trkpt lat="44.88922" lon="0.33692">
        <ele>77.7</ele>
        <time>2022-04-05T11:55:17Z</time>
      </trkpt>
      <trkpt lat="44.88921" lon="0.33693">
        <ele>77.7</ele>
        <time>2022-04-05T11:55:18Z</time>
      </trkpt>
      <trkpt lat="44.8892" lon="0.33693">
        <ele>77.6</ele>
        <time>2022-04-05T11:55:19Z</time>
      </trkpt>
      <trkpt lat="44.88919" lon="0.33694">
        <ele>77.5</ele>
        <time>2022-04-05T11:55:20Z</time>
      </trkpt>
      <trkpt lat="44.88918" lon="0.33695">
        <ele>77.4</ele>
        <time>2022-04-05T11:55:21Z</time>
      </trkpt>
      <trkpt lat="44.88916" lon="0.33696">
        <ele>77.3</ele>
        <time>2022-04-05T11:55:22Z</time>
      </trkpt>
      <trkpt lat="44.88915" lon="0.33697">
        <ele>77.3</ele>
        <time>2022-04-05T11:55:23Z</time>
      </trkpt>
      <trkpt lat="44.88914" lon="0.33697">
        <ele>77.2</ele>
        <time>2022-04-05T11:55:24Z</time>
      </trkpt>
      <trkpt lat="44.88913" lon="0.33698">
        <ele>77.1</ele>
        <time>2022-04-05T11:55:25Z</time>
      </trkpt>
      <trkpt lat="44.88911" lon="0.337">
        <ele>77</ele>
        <time>2022-04-05T11:55:26Z</time>
      </trkpt>
      <trkpt lat="44.88911" lon="0.337">
        <ele>77</ele>
        <time>2022-04-05T11:55:27Z</time>
      </trkpt>
      <trkpt lat="44.8891" lon="0.337">
        <ele>76.9</ele>
        <time>2022-04-05T11:55:28Z</time>
      </trkpt>
      <trkpt lat="44.88907" lon="0.33701">
        <ele>76.8</ele>
        <time>2022-04-05T11:55:29Z</time>
      </trkpt>
      <trkpt lat="44.88906" lon="0.33702">
        <ele>76.7</ele>
        <time>2022-04-05T11:55:30Z</time>
      </trkpt>
      <trkpt lat="44.88905" lon="0.33702">
        <ele>76.6</ele>
        <time>2022-04-05T11:55:31Z</time>
      </trkpt>
      <trkpt lat="44.88904" lon="0.33702">
        <ele>76.6</ele>
        <time>2022-04-05T11:55:32Z</time>
      </trkpt>
      <trkpt lat="44.88904" lon="0.33702">
        <ele>76.5</ele>
        <time>2022-04-05T11:55:33Z</time>
      </trkpt>
      <trkpt lat="44.88902" lon="0.33703">
        <ele>76.4</ele>
        <time>2022-04-05T11:55:34Z</time>
      </trkpt>
      <trkpt lat="44.889" lon="0.33705">
        <ele>76.2</ele>
        <time>2022-04-05T11:55:36Z</time>
      </trkpt>
      <trkpt lat="44.88899" lon="0.33705">
        <ele>76.2</ele>
        <time>2022-04-05T11:55:37Z</time>
      </trkpt>
      <trkpt lat="44.88897" lon="0.33706">
        <ele>76</ele>
        <time>2022-04-05T11:55:38Z</time>
      </trkpt>
      <trkpt lat="44.88896" lon="0.33706">
        <ele>76</ele>
        <time>2022-04-05T11:55:39Z</time>
      </trkpt>
      <trkpt lat="44.88896" lon="0.33707">
        <ele>75.9</ele>
        <time>2022-04-05T11:55:40Z</time>
      </trkpt>
      <trkpt lat="44.88893" lon="0.33708">
        <ele>75.8</ele>
        <time>2022-04-05T11:55:41Z</time>
      </trkpt>
      <trkpt lat="44.88893" lon="0.33709">
        <ele>75.7</ele>
        <time>2022-04-05T11:55:42Z</time>
      </trkpt>
      <trkpt lat="44.88891" lon="0.33712">
        <ele>75.5</ele>
        <time>2022-04-05T11:55:43Z</time>
      </trkpt>
      <trkpt lat="44.8889" lon="0.33713">
        <ele>75.5</ele>
        <time>2022-04-05T11:55:45Z</time>
      </trkpt>
      <trkpt lat="44.88889" lon="0.33714">
        <ele>75.4</ele>
        <time>2022-04-05T11:55:46Z</time>
      </trkpt>
      <trkpt lat="44.88888" lon="0.33715">
        <ele>75.3</ele>
        <time>2022-04-05T11:55:47Z</time>
      </trkpt>
      <trkpt lat="44.88887" lon="0.33716">
        <ele>75.2</ele>
        <time>2022-04-05T11:55:48Z</time>
      </trkpt>
      <trkpt lat="44.88886" lon="0.33718">
        <ele>75.2</ele>
        <time>2022-04-05T11:55:49Z</time>
      </trkpt>
      <trkpt lat="44.88885" lon="0.33718">
        <ele>75.1</ele>
        <time>2022-04-05T11:55:50Z</time>
      </trkpt>
      <trkpt lat="44.88884" lon="0.33719">
        <ele>75</ele>
        <time>2022-04-05T11:55:51Z</time>
      </trkpt>
      <trkpt lat="44.88882" lon="0.3372">
        <ele>74.9</ele>
        <time>2022-04-05T11:55:52Z</time>
      </trkpt>
      <trkpt lat="44.88881" lon="0.33721">
        <ele>74.8</ele>
        <time>2022-04-05T11:55:53Z</time>
      </trkpt>
      <trkpt lat="44.88881" lon="0.33722">
        <ele>74.8</ele>
        <time>2022-04-05T11:55:54Z</time>
      </trkpt>
      <trkpt lat="44.88879" lon="0.33724">
        <ele>74.7</ele>
        <time>2022-04-05T11:55:56Z</time>
      </trkpt>
      <trkpt lat="44.88877" lon="0.33726">
        <ele>74.5</ele>
        <time>2022-04-05T11:55:57Z</time>
      </trkpt>
      <trkpt lat="44.88876" lon="0.33728">
        <ele>74.4</ele>
        <time>2022-04-05T11:55:58Z</time>
      </trkpt>
      <trkpt lat="44.88875" lon="0.33729">
        <ele>74.3</ele>
        <time>2022-04-05T11:55:59Z</time>
      </trkpt>
      <trkpt lat="44.88874" lon="0.33729">
        <ele>74.3</ele>
        <time>2022-04-05T11:56:00Z</time>
      </trkpt>
      <trkpt lat="44.88872" lon="0.33731">
        <ele>74.1</ele>
        <time>2022-04-05T11:56:02Z</time>
      </trkpt>
      <trkpt lat="44.88871" lon="0.33732">
        <ele>74</ele>
        <time>2022-04-05T11:56:03Z</time>
      </trkpt>
      <trkpt lat="44.88869" lon="0.33733">
        <ele>73.9</ele>
        <time>2022-04-05T11:56:04Z</time>
      </trkpt>
      <trkpt lat="44.88868" lon="0.33733">
        <ele>73.8</ele>
        <time>2022-04-05T11:56:05Z</time>
      </trkpt>
      <trkpt lat="44.88867" lon="0.33734">
        <ele>73.8</ele>
        <time>2022-04-05T11:56:06Z</time>
      </trkpt>
      <trkpt lat="44.88864" lon="0.33736">
        <ele>73.6</ele>
        <time>2022-04-05T11:56:07Z</time>
      </trkpt>
      <trkpt lat="44.88863" lon="0.33737">
        <ele>73.5</ele>
        <time>2022-04-05T11:56:09Z</time>
      </trkpt>
      <trkpt lat="44.88862" lon="0.33737">
        <ele>73.4</ele>
        <time>2022-04-05T11:56:10Z</time>
      </trkpt>
      <trkpt lat="44.88861" lon="0.33738">
        <ele>73.4</ele>
        <time>2022-04-05T11:56:11Z</time>
      </trkpt>
      <trkpt lat="44.8886" lon="0.33738">
        <ele>73.3</ele>
        <time>2022-04-05T11:56:12Z</time>
      </trkpt>
      <trkpt lat="44.88859" lon="0.3374">
        <ele>73.2</ele>
        <time>2022-04-05T11:56:13Z</time>
      </trkpt>
      <trkpt lat="44.88858" lon="0.33741">
        <ele>73.1</ele>
        <time>2022-04-05T11:56:14Z</time>
      </trkpt>
      <trkpt lat="44.88857" lon="0.33742">
        <ele>73</ele>
        <time>2022-04-05T11:56:15Z</time>
      </trkpt>
      <trkpt lat="44.88856" lon="0.33744">
        <ele>72.9</ele>
        <time>2022-04-05T11:56:17Z</time>
      </trkpt>
      <trkpt lat="44.88855" lon="0.33745">
        <ele>72.8</ele>
        <time>2022-04-05T11:56:18Z</time>
      </trkpt>
      <trkpt lat="44.88853" lon="0.33746">
        <ele>72.7</ele>
        <time>2022-04-05T11:56:19Z</time>
      </trkpt>
      <trkpt lat="44.88853" lon="0.33747">
        <ele>72.6</ele>
        <time>2022-04-05T11:56:20Z</time>
      </trkpt>
      <trkpt lat="44.88852" lon="0.33748">
        <ele>72.6</ele>
        <time>2022-04-05T11:56:21Z</time>
      </trkpt>
      <trkpt lat="44.88849" lon="0.33748">
        <ele>72.4</ele>
        <time>2022-04-05T11:56:22Z</time>
      </trkpt>
      <trkpt lat="44.88848" lon="0.33748">
        <ele>72.3</ele>
        <time>2022-04-05T11:56:23Z</time>
      </trkpt>
      <trkpt lat="44.88848" lon="0.33748">
        <ele>72.3</ele>
        <time>2022-04-05T11:56:24Z</time>
      </trkpt>
      <trkpt lat="44.88847" lon="0.33747">
        <ele>72.2</ele>
        <time>2022-04-05T11:56:25Z</time>
      </trkpt>
      <trkpt lat="44.88845" lon="0.33747">
        <ele>72.1</ele>
        <time>2022-04-05T11:56:26Z</time>
      </trkpt>
      <trkpt lat="44.88844" lon="0.33748">
        <ele>72</ele>
        <time>2022-04-05T11:56:28Z</time>
      </trkpt>
      <trkpt lat="44.88843" lon="0.33749">
        <ele>71.9</ele>
        <time>2022-04-05T11:56:30Z</time>
      </trkpt>
      <trkpt lat="44.88842" lon="0.33749">
        <ele>71.8</ele>
        <time>2022-04-05T11:56:31Z</time>
      </trkpt>
      <trkpt lat="44.8884" lon="0.3375">
        <ele>71.7</ele>
        <time>2022-04-05T11:56:33Z</time>
      </trkpt>
      <trkpt lat="44.8884" lon="0.33751">
        <ele>71.7</ele>
        <time>2022-04-05T11:56:34Z</time>
      </trkpt>
      <trkpt lat="44.88839" lon="0.33752">
        <ele>71.6</ele>
        <time>2022-04-05T11:56:35Z</time>
      </trkpt>
      <trkpt lat="44.88838" lon="0.33753">
        <ele>71.5</ele>
        <time>2022-04-05T11:56:36Z</time>
      </trkpt>
      <trkpt lat="44.88838" lon="0.33754">
        <ele>71.4</ele>
        <time>2022-04-05T11:56:37Z</time>
      </trkpt>
      <trkpt lat="44.88836" lon="0.33756">
        <ele>71.3</ele>
        <time>2022-04-05T11:56:38Z</time>
      </trkpt>
      <trkpt lat="44.88836" lon="0.33756">
        <ele>71.2</ele>
        <time>2022-04-05T11:56:39Z</time>
      </trkpt>
      <trkpt lat="44.88835" lon="0.33757">
        <ele>71.2</ele>
        <time>2022-04-05T11:56:40Z</time>
      </trkpt>
      <trkpt lat="44.88833" lon="0.33759">
        <ele>71.1</ele>
        <time>2022-04-05T11:56:42Z</time>
      </trkpt>
      <trkpt lat="44.88832" lon="0.33759">
        <ele>71</ele>
        <time>2022-04-05T11:56:43Z</time>
      </trkpt>
      <trkpt lat="44.88831" lon="0.3376">
        <ele>70.9</ele>
        <time>2022-04-05T11:56:44Z</time>
      </trkpt>
      <trkpt lat="44.8883" lon="0.33761">
        <ele>70.8</ele>
        <time>2022-04-05T11:56:45Z</time>
      </trkpt>
      <trkpt lat="44.88829" lon="0.33763">
        <ele>70.7</ele>
        <time>2022-04-05T11:56:46Z</time>
      </trkpt>
      <trkpt lat="44.88828" lon="0.33763">
        <ele>70.7</ele>
        <time>2022-04-05T11:56:47Z</time>
      </trkpt>
      <trkpt lat="44.88826" lon="0.33765">
        <ele>70.5</ele>
        <time>2022-04-05T11:56:48Z</time>
      </trkpt>
      <trkpt lat="44.88825" lon="0.33766">
        <ele>70.5</ele>
        <time>2022-04-05T11:56:49Z</time>
      </trkpt>
      <trkpt lat="44.88825" lon="0.33766">
        <ele>70.4</ele>
        <time>2022-04-05T11:56:50Z</time>
      </trkpt>
      <trkpt lat="44.88823" lon="0.33768">
        <ele>70.3</ele>
        <time>2022-04-05T11:56:52Z</time>
      </trkpt>
      <trkpt lat="44.88821" lon="0.33768">
        <ele>70.2</ele>
        <time>2022-04-05T11:56:53Z</time>
      </trkpt>
      <trkpt lat="44.8882" lon="0.33769">
        <ele>70.1</ele>
        <time>2022-04-05T11:56:54Z</time>
      </trkpt>
      <trkpt lat="44.88819" lon="0.3377">
        <ele>70</ele>
        <time>2022-04-05T11:56:55Z</time>
      </trkpt>
      <trkpt lat="44.88817" lon="0.33771">
        <ele>69.9</ele>
        <time>2022-04-05T11:56:56Z</time>
      </trkpt>
      <trkpt lat="44.88816" lon="0.33771">
        <ele>69.8</ele>
        <time>2022-04-05T11:56:57Z</time>
      </trkpt>
      <trkpt lat="44.88815" lon="0.33772">
        <ele>69.7</ele>
        <time>2022-04-05T11:56:58Z</time>
      </trkpt>
      <trkpt lat="44.88814" lon="0.33772">
        <ele>69.7</ele>
        <time>2022-04-05T11:56:59Z</time>
      </trkpt>
      <trkpt lat="44.88812" lon="0.33773">
        <ele>69.6</ele>
        <time>2022-04-05T11:57:00Z</time>
      </trkpt>
      <trkpt lat="44.8881" lon="0.33774">
        <ele>69.4</ele>
        <time>2022-04-05T11:57:02Z</time>
      </trkpt>
      <trkpt lat="44.8881" lon="0.33775">
        <ele>69.4</ele>
        <time>2022-04-05T11:57:03Z</time>
      </trkpt>
      <trkpt lat="44.88809" lon="0.33775">
        <ele>69.3</ele>
        <time>2022-04-05T11:57:04Z</time>
      </trkpt>
      <trkpt lat="44.88808" lon="0.33777">
        <ele>69.2</ele>
        <time>2022-04-05T11:57:05Z</time>
      </trkpt>
      <trkpt lat="44.88806" lon="0.33779">
        <ele>69.1</ele>
        <time>2022-04-05T11:57:06Z</time>
      </trkpt>
      <trkpt lat="44.88805" lon="0.33779">
        <ele>69</ele>
        <time>2022-04-05T11:57:07Z</time>
      </trkpt>
      <trkpt lat="44.88804" lon="0.33781">
        <ele>68.9</ele>
        <time>2022-04-05T11:57:09Z</time>
      </trkpt>
      <trkpt lat="44.88803" lon="0.33781">
        <ele>68.9</ele>
        <time>2022-04-05T11:57:10Z</time>
      </trkpt>
      <trkpt lat="44.88802" lon="0.33782">
        <ele>68.8</ele>
        <time>2022-04-05T11:57:11Z</time>
      </trkpt>
      <trkpt lat="44.888" lon="0.33783">
        <ele>68.6</ele>
        <time>2022-04-05T11:57:12Z</time>
      </trkpt>
      <trkpt lat="44.88799" lon="0.33784">
        <ele>68.6</ele>
        <time>2022-04-05T11:57:13Z</time>
      </trkpt>
      <trkpt lat="44.88799" lon="0.33784">
        <ele>68.6</ele>
        <time>2022-04-05T11:57:14Z</time>
      </trkpt>
      <trkpt lat="44.88798" lon="0.33785">
        <ele>68.5</ele>
        <time>2022-04-05T11:57:15Z</time>
      </trkpt>
      <trkpt lat="44.88796" lon="0.33786">
        <ele>68.4</ele>
        <time>2022-04-05T11:57:16Z</time>
      </trkpt>
      <trkpt lat="44.88795" lon="0.33786">
        <ele>68.3</ele>
        <time>2022-04-05T11:57:17Z</time>
      </trkpt>
      <trkpt lat="44.88794" lon="0.33787">
        <ele>68.2</ele>
        <time>2022-04-05T11:57:18Z</time>
      </trkpt>
      <trkpt lat="44.88792" lon="0.33788">
        <ele>68.1</ele>
        <time>2022-04-05T11:57:20Z</time>
      </trkpt>
      <trkpt lat="44.8879" lon="0.33789">
        <ele>67.9</ele>
        <time>2022-04-05T11:57:21Z</time>
      </trkpt>
      <trkpt lat="44.88789" lon="0.33789">
        <ele>67.8</ele>
        <time>2022-04-05T11:57:22Z</time>
      </trkpt>
      <trkpt lat="44.88786" lon="0.33791">
        <ele>67.7</ele>
        <time>2022-04-05T11:57:23Z</time>
      </trkpt>
      <trkpt lat="44.88785" lon="0.33791">
        <ele>67.6</ele>
        <time>2022-04-05T11:57:25Z</time>
      </trkpt>
      <trkpt lat="44.88784" lon="0.33792">
        <ele>67.5</ele>
        <time>2022-04-05T11:57:27Z</time>
      </trkpt>
      <trkpt lat="44.88783" lon="0.33793">
        <ele>67.4</ele>
        <time>2022-04-05T11:57:28Z</time>
      </trkpt>
      <trkpt lat="44.88781" lon="0.33793">
        <ele>67.3</ele>
        <time>2022-04-05T11:57:29Z</time>
      </trkpt>
      <trkpt lat="44.8878" lon="0.33794">
        <ele>67.2</ele>
        <time>2022-04-05T11:57:30Z</time>
      </trkpt>
      <trkpt lat="44.88778" lon="0.33795">
        <ele>67.1</ele>
        <time>2022-04-05T11:57:32Z</time>
      </trkpt>
      <trkpt lat="44.88777" lon="0.33795">
        <ele>67</ele>
        <time>2022-04-05T11:57:33Z</time>
      </trkpt>
      <trkpt lat="44.88776" lon="0.33796">
        <ele>66.9</ele>
        <time>2022-04-05T11:57:34Z</time>
      </trkpt>
      <trkpt lat="44.88775" lon="0.33797">
        <ele>66.8</ele>
        <time>2022-04-05T11:57:35Z</time>
      </trkpt>
      <trkpt lat="44.88773" lon="0.33798">
        <ele>66.7</ele>
        <time>2022-04-05T11:57:36Z</time>
      </trkpt>
      <trkpt lat="44.88772" lon="0.33798">
        <ele>66.6</ele>
        <time>2022-04-05T11:57:37Z</time>
      </trkpt>
      <trkpt lat="44.88771" lon="0.33799">
        <ele>66.6</ele>
        <time>2022-04-05T11:57:38Z</time>
      </trkpt>
      <trkpt lat="44.8877" lon="0.338">
        <ele>66.4</ele>
        <time>2022-04-05T11:57:39Z</time>
      </trkpt>
      <trkpt lat="44.88769" lon="0.33801">
        <ele>66.4</ele>
        <time>2022-04-05T11:57:40Z</time>
      </trkpt>
      <trkpt lat="44.88766" lon="0.33803">
        <ele>66.2</ele>
        <time>2022-04-05T11:57:42Z</time>
      </trkpt>
      <trkpt lat="44.88765" lon="0.33803">
        <ele>66.1</ele>
        <time>2022-04-05T11:57:43Z</time>
      </trkpt>
      <trkpt lat="44.88765" lon="0.33803">
        <ele>66.1</ele>
        <time>2022-04-05T11:57:44Z</time>
      </trkpt>
      <trkpt lat="44.88763" lon="0.33804">
        <ele>66</ele>
        <time>2022-04-05T11:57:45Z</time>
      </trkpt>
      <trkpt lat="44.88762" lon="0.33804">
        <ele>65.9</ele>
        <time>2022-04-05T11:57:46Z</time>
      </trkpt>
      <trkpt lat="44.8876" lon="0.33806">
        <ele>65.7</ele>
        <time>2022-04-05T11:57:47Z</time>
      </trkpt>
      <trkpt lat="44.8876" lon="0.33806">
        <ele>65.7</ele>
        <time>2022-04-05T11:57:48Z</time>
      </trkpt>
      <trkpt lat="44.88759" lon="0.33807">
        <ele>65.6</ele>
        <time>2022-04-05T11:57:49Z</time>
      </trkpt>
      <trkpt lat="44.88758" lon="0.33807">
        <ele>65.6</ele>
        <time>2022-04-05T11:57:50Z</time>
      </trkpt>
      <trkpt lat="44.88756" lon="0.33808">
        <ele>65.4</ele>
        <time>2022-04-05T11:57:52Z</time>
      </trkpt>
      <trkpt lat="44.88755" lon="0.33809">
        <ele>65.4</ele>
        <time>2022-04-05T11:57:53Z</time>
      </trkpt>
      <trkpt lat="44.88754" lon="0.3381">
        <ele>65.3</ele>
        <time>2022-04-05T11:57:54Z</time>
      </trkpt>
      <trkpt lat="44.88753" lon="0.33811">
        <ele>65.2</ele>
        <time>2022-04-05T11:57:55Z</time>
      </trkpt>
      <trkpt lat="44.88751" lon="0.33812">
        <ele>65</ele>
        <time>2022-04-05T11:57:56Z</time>
      </trkpt>
      <trkpt lat="44.88751" lon="0.33812">
        <ele>65</ele>
        <time>2022-04-05T11:57:57Z</time>
      </trkpt>
      <trkpt lat="44.8875" lon="0.33813">
        <ele>64.9</ele>
        <time>2022-04-05T11:57:58Z</time>
      </trkpt>
      <trkpt lat="44.88747" lon="0.33814">
        <ele>64.8</ele>
        <time>2022-04-05T11:57:59Z</time>
      </trkpt>
      <trkpt lat="44.88746" lon="0.33815">
        <ele>64.7</ele>
        <time>2022-04-05T11:58:00Z</time>
      </trkpt>
      <trkpt lat="44.88745" lon="0.33815">
        <ele>64.6</ele>
        <time>2022-04-05T11:58:01Z</time>
      </trkpt>
      <trkpt lat="44.88744" lon="0.33817">
        <ele>64.5</ele>
        <time>2022-04-05T11:58:03Z</time>
      </trkpt>
      <trkpt lat="44.88743" lon="0.33817">
        <ele>64.4</ele>
        <time>2022-04-05T11:58:04Z</time>
      </trkpt>
      <trkpt lat="44.88742" lon="0.33818">
        <ele>64.3</ele>
        <time>2022-04-05T11:58:05Z</time>
      </trkpt>
      <trkpt lat="44.8874" lon="0.33819">
        <ele>64.2</ele>
        <time>2022-04-05T11:58:07Z</time>
      </trkpt>
      <trkpt lat="44.88739" lon="0.3382">
        <ele>64.1</ele>
        <time>2022-04-05T11:58:08Z</time>
      </trkpt>
      <trkpt lat="44.88737" lon="0.33821">
        <ele>63.9</ele>
        <time>2022-04-05T11:58:09Z</time>
      </trkpt>
      <trkpt lat="44.88736" lon="0.33822">
        <ele>63.9</ele>
        <time>2022-04-05T11:58:10Z</time>
      </trkpt>
      <trkpt lat="44.88735" lon="0.33822">
        <ele>63.8</ele>
        <time>2022-04-05T11:58:11Z</time>
      </trkpt>
      <trkpt lat="44.88734" lon="0.33823">
        <ele>63.7</ele>
        <time>2022-04-05T11:58:12Z</time>
      </trkpt>
      <trkpt lat="44.88733" lon="0.33824">
        <ele>63.7</ele>
        <time>2022-04-05T11:58:13Z</time>
      </trkpt>
      <trkpt lat="44.88732" lon="0.33825">
        <ele>63.6</ele>
        <time>2022-04-05T11:58:14Z</time>
      </trkpt>
      <trkpt lat="44.88731" lon="0.33825">
        <ele>63.5</ele>
        <time>2022-04-05T11:58:15Z</time>
      </trkpt>
      <trkpt lat="44.8873" lon="0.33825">
        <ele>63.4</ele>
        <time>2022-04-05T11:58:16Z</time>
      </trkpt>
      <trkpt lat="44.88728" lon="0.33826">
        <ele>63.3</ele>
        <time>2022-04-05T11:58:17Z</time>
      </trkpt>
      <trkpt lat="44.88727" lon="0.33827">
        <ele>63.3</ele>
        <time>2022-04-05T11:58:18Z</time>
      </trkpt>
      <trkpt lat="44.88726" lon="0.33827">
        <ele>63.2</ele>
        <time>2022-04-05T11:58:19Z</time>
      </trkpt>
      <trkpt lat="44.88724" lon="0.33828">
        <ele>63.1</ele>
        <time>2022-04-05T11:58:21Z</time>
      </trkpt>
      <trkpt lat="44.88723" lon="0.33829">
        <ele>63</ele>
        <time>2022-04-05T11:58:22Z</time>
      </trkpt>
      <trkpt lat="44.88722" lon="0.33829">
        <ele>63</ele>
        <time>2022-04-05T11:58:23Z</time>
      </trkpt>
      <trkpt lat="44.8872" lon="0.33829">
        <ele>62.9</ele>
        <time>2022-04-05T11:58:24Z</time>
      </trkpt>
      <trkpt lat="44.88719" lon="0.33829">
        <ele>62.8</ele>
        <time>2022-04-05T11:58:25Z</time>
      </trkpt>
      <trkpt lat="44.88718" lon="0.3383">
        <ele>62.8</ele>
        <time>2022-04-05T11:58:26Z</time>
      </trkpt>
      <trkpt lat="44.88716" lon="0.3383">
        <ele>62.7</ele>
        <time>2022-04-05T11:58:27Z</time>
      </trkpt>
      <trkpt lat="44.88715" lon="0.33831">
        <ele>62.7</ele>
        <time>2022-04-05T11:58:28Z</time>
      </trkpt>
      <trkpt lat="44.88713" lon="0.33831">
        <ele>62.6</ele>
        <time>2022-04-05T11:58:30Z</time>
      </trkpt>
      <trkpt lat="44.88712" lon="0.33832">
        <ele>62.5</ele>
        <time>2022-04-05T11:58:31Z</time>
      </trkpt>
      <trkpt lat="44.8871" lon="0.33832">
        <ele>62.4</ele>
        <time>2022-04-05T11:58:32Z</time>
      </trkpt>
      <trkpt lat="44.8871" lon="0.33833">
        <ele>62.4</ele>
        <time>2022-04-05T11:58:33Z</time>
      </trkpt>
      <trkpt lat="44.88707" lon="0.33833">
        <ele>62.2</ele>
        <time>2022-04-05T11:58:34Z</time>
      </trkpt>
      <trkpt lat="44.88707" lon="0.33834">
        <ele>62.2</ele>
        <time>2022-04-05T11:58:35Z</time>
      </trkpt>
      <trkpt lat="44.88706" lon="0.33834">
        <ele>62.1</ele>
        <time>2022-04-05T11:58:36Z</time>
      </trkpt>
      <trkpt lat="44.88703" lon="0.33835">
        <ele>62</ele>
        <time>2022-04-05T11:58:37Z</time>
      </trkpt>
      <trkpt lat="44.88703" lon="0.33835">
        <ele>62</ele>
        <time>2022-04-05T11:58:38Z</time>
      </trkpt>
      <trkpt lat="44.88702" lon="0.33835">
        <ele>61.9</ele>
        <time>2022-04-05T11:58:39Z</time>
      </trkpt>
      <trkpt lat="44.88701" lon="0.33836">
        <ele>61.9</ele>
        <time>2022-04-05T11:58:40Z</time>
      </trkpt>
      <trkpt lat="44.88699" lon="0.33836">
        <ele>61.8</ele>
        <time>2022-04-05T11:58:41Z</time>
      </trkpt>
      <trkpt lat="44.88697" lon="0.33837">
        <ele>61.6</ele>
        <time>2022-04-05T11:58:42Z</time>
      </trkpt>
      <trkpt lat="44.88696" lon="0.33837">
        <ele>61.6</ele>
        <time>2022-04-05T11:58:43Z</time>
      </trkpt>
      <trkpt lat="44.88696" lon="0.33837">
        <ele>61.5</ele>
        <time>2022-04-05T11:58:44Z</time>
      </trkpt>
      <trkpt lat="44.88694" lon="0.33837">
        <ele>61.4</ele>
        <time>2022-04-05T11:58:45Z</time>
      </trkpt>
      <trkpt lat="44.88693" lon="0.33838">
        <ele>61.3</ele>
        <time>2022-04-05T11:58:46Z</time>
      </trkpt>
      <trkpt lat="44.8869" lon="0.33838">
        <ele>61.2</ele>
        <time>2022-04-05T11:58:47Z</time>
      </trkpt>
      <trkpt lat="44.8869" lon="0.33838">
        <ele>61.1</ele>
        <time>2022-04-05T11:58:48Z</time>
      </trkpt>
      <trkpt lat="44.88688" lon="0.33839">
        <ele>61.1</ele>
        <time>2022-04-05T11:58:49Z</time>
      </trkpt>
      <trkpt lat="44.88687" lon="0.33839">
        <ele>61</ele>
        <time>2022-04-05T11:58:50Z</time>
      </trkpt>
      <trkpt lat="44.88684" lon="0.3384">
        <ele>60.8</ele>
        <time>2022-04-05T11:58:52Z</time>
      </trkpt>
      <trkpt lat="44.88683" lon="0.33841">
        <ele>60.8</ele>
        <time>2022-04-05T11:58:53Z</time>
      </trkpt>
      <trkpt lat="44.88682" lon="0.33842">
        <ele>60.7</ele>
        <time>2022-04-05T11:58:54Z</time>
      </trkpt>
      <trkpt lat="44.88682" lon="0.33842">
        <ele>60.6</ele>
        <time>2022-04-05T11:58:55Z</time>
      </trkpt>
      <trkpt lat="44.88681" lon="0.33843">
        <ele>60.6</ele>
        <time>2022-04-05T11:58:56Z</time>
      </trkpt>
      <trkpt lat="44.88679" lon="0.33845">
        <ele>60.5</ele>
        <time>2022-04-05T11:58:57Z</time>
      </trkpt>
      <trkpt lat="44.88678" lon="0.33845">
        <ele>60.4</ele>
        <time>2022-04-05T11:58:58Z</time>
      </trkpt>
      <trkpt lat="44.88677" lon="0.33846">
        <ele>60.4</ele>
        <time>2022-04-05T11:58:59Z</time>
      </trkpt>
      <trkpt lat="44.88676" lon="0.33847">
        <ele>60.3</ele>
        <time>2022-04-05T11:59:00Z</time>
      </trkpt>
      <trkpt lat="44.88673" lon="0.33849">
        <ele>60.2</ele>
        <time>2022-04-05T11:59:02Z</time>
      </trkpt>
      <trkpt lat="44.88672" lon="0.33849">
        <ele>60.2</ele>
        <time>2022-04-05T11:59:03Z</time>
      </trkpt>
      <trkpt lat="44.88671" lon="0.3385">
        <ele>60.1</ele>
        <time>2022-04-05T11:59:04Z</time>
      </trkpt>
      <trkpt lat="44.88669" lon="0.33851">
        <ele>60</ele>
        <time>2022-04-05T11:59:06Z</time>
      </trkpt>
      <trkpt lat="44.88667" lon="0.33852">
        <ele>59.9</ele>
        <time>2022-04-05T11:59:07Z</time>
      </trkpt>
      <trkpt lat="44.88667" lon="0.33853">
        <ele>59.9</ele>
        <time>2022-04-05T11:59:08Z</time>
      </trkpt>
      <trkpt lat="44.88665" lon="0.33854">
        <ele>59.8</ele>
        <time>2022-04-05T11:59:10Z</time>
      </trkpt>
      <trkpt lat="44.88664" lon="0.33854">
        <ele>59.8</ele>
        <time>2022-04-05T11:59:11Z</time>
      </trkpt>
      <trkpt lat="44.88661" lon="0.33855">
        <ele>59.7</ele>
        <time>2022-04-05T11:59:12Z</time>
      </trkpt>
      <trkpt lat="44.88661" lon="0.33856">
        <ele>59.6</ele>
        <time>2022-04-05T11:59:13Z</time>
      </trkpt>
      <trkpt lat="44.88659" lon="0.33857">
        <ele>59.6</ele>
        <time>2022-04-05T11:59:14Z</time>
      </trkpt>
      <trkpt lat="44.88658" lon="0.33857">
        <ele>59.5</ele>
        <time>2022-04-05T11:59:15Z</time>
      </trkpt>
      <trkpt lat="44.88657" lon="0.33858">
        <ele>59.5</ele>
        <time>2022-04-05T11:59:16Z</time>
      </trkpt>
      <trkpt lat="44.88655" lon="0.3386">
        <ele>59.4</ele>
        <time>2022-04-05T11:59:17Z</time>
      </trkpt>
      <trkpt lat="44.88654" lon="0.3386">
        <ele>59.3</ele>
        <time>2022-04-05T11:59:18Z</time>
      </trkpt>
      <trkpt lat="44.88652" lon="0.3386">
        <ele>59.3</ele>
        <time>2022-04-05T11:59:19Z</time>
      </trkpt>
      <trkpt lat="44.88651" lon="0.33861">
        <ele>59.2</ele>
        <time>2022-04-05T11:59:20Z</time>
      </trkpt>
      <trkpt lat="44.8865" lon="0.33861">
        <ele>59.2</ele>
        <time>2022-04-05T11:59:21Z</time>
      </trkpt>
      <trkpt lat="44.88648" lon="0.33862">
        <ele>59.1</ele>
        <time>2022-04-05T11:59:22Z</time>
      </trkpt>
      <trkpt lat="44.88647" lon="0.33862">
        <ele>59.1</ele>
        <time>2022-04-05T11:59:23Z</time>
      </trkpt>
      <trkpt lat="44.88645" lon="0.33862">
        <ele>59</ele>
        <time>2022-04-05T11:59:25Z</time>
      </trkpt>
      <trkpt lat="44.88644" lon="0.33862">
        <ele>59</ele>
        <time>2022-04-05T11:59:26Z</time>
      </trkpt>
      <trkpt lat="44.88642" lon="0.33863">
        <ele>58.9</ele>
        <time>2022-04-05T11:59:27Z</time>
      </trkpt>
      <trkpt lat="44.88641" lon="0.33863">
        <ele>58.9</ele>
        <time>2022-04-05T11:59:28Z</time>
      </trkpt>
      <trkpt lat="44.88639" lon="0.33864">
        <ele>58.8</ele>
        <time>2022-04-05T11:59:29Z</time>
      </trkpt>
      <trkpt lat="44.88638" lon="0.33865">
        <ele>58.8</ele>
        <time>2022-04-05T11:59:30Z</time>
      </trkpt>
      <trkpt lat="44.88638" lon="0.33865">
        <ele>58.7</ele>
        <time>2022-04-05T11:59:31Z</time>
      </trkpt>
      <trkpt lat="44.88636" lon="0.33866">
        <ele>58.7</ele>
        <time>2022-04-05T11:59:33Z</time>
      </trkpt>
      <trkpt lat="44.88635" lon="0.33867">
        <ele>58.6</ele>
        <time>2022-04-05T11:59:34Z</time>
      </trkpt>
      <trkpt lat="44.88633" lon="0.33867">
        <ele>58.5</ele>
        <time>2022-04-05T11:59:35Z</time>
      </trkpt>
      <trkpt lat="44.88632" lon="0.33868">
        <ele>58.5</ele>
        <time>2022-04-05T11:59:36Z</time>
      </trkpt>
      <trkpt lat="44.88631" lon="0.33868">
        <ele>58.4</ele>
        <time>2022-04-05T11:59:37Z</time>
      </trkpt>
      <trkpt lat="44.8863" lon="0.33869">
        <ele>58.4</ele>
        <time>2022-04-05T11:59:38Z</time>
      </trkpt>
      <trkpt lat="44.88629" lon="0.33869">
        <ele>58.4</ele>
        <time>2022-04-05T11:59:39Z</time>
      </trkpt>
      <trkpt lat="44.88628" lon="0.3387">
        <ele>58.3</ele>
        <time>2022-04-05T11:59:40Z</time>
      </trkpt>
      <trkpt lat="44.88625" lon="0.33871">
        <ele>58.2</ele>
        <time>2022-04-05T11:59:41Z</time>
      </trkpt>
      <trkpt lat="44.88624" lon="0.33871">
        <ele>58.1</ele>
        <time>2022-04-05T11:59:42Z</time>
      </trkpt>
      <trkpt lat="44.88623" lon="0.33872">
        <ele>58</ele>
        <time>2022-04-05T11:59:43Z</time>
      </trkpt>
      <trkpt lat="44.88622" lon="0.33872">
        <ele>58</ele>
        <time>2022-04-05T11:59:44Z</time>
      </trkpt>
      <trkpt lat="44.88621" lon="0.33873">
        <ele>57.9</ele>
        <time>2022-04-05T11:59:45Z</time>
      </trkpt>
      <trkpt lat="44.88621" lon="0.33873">
        <ele>57.9</ele>
        <time>2022-04-05T11:59:46Z</time>
      </trkpt>
      <trkpt lat="44.88618" lon="0.33874">
        <ele>57.7</ele>
        <time>2022-04-05T11:59:47Z</time>
      </trkpt>
      <trkpt lat="44.88618" lon="0.33874">
        <ele>57.7</ele>
        <time>2022-04-05T11:59:48Z</time>
      </trkpt>
      <trkpt lat="44.88617" lon="0.33875">
        <ele>57.6</ele>
        <time>2022-04-05T11:59:49Z</time>
      </trkpt>
      <trkpt lat="44.88615" lon="0.33876">
        <ele>57.5</ele>
        <time>2022-04-05T11:59:50Z</time>
      </trkpt>
      <trkpt lat="44.88614" lon="0.33877">
        <ele>57.4</ele>
        <time>2022-04-05T11:59:51Z</time>
      </trkpt>
      <trkpt lat="44.88613" lon="0.33877">
        <ele>57.3</ele>
        <time>2022-04-05T11:59:52Z</time>
      </trkpt>
      <trkpt lat="44.88613" lon="0.33878">
        <ele>57.3</ele>
        <time>2022-04-05T11:59:53Z</time>
      </trkpt>
      <trkpt lat="44.88611" lon="0.33878">
        <ele>57.2</ele>
        <time>2022-04-05T11:59:54Z</time>
      </trkpt>
      <trkpt lat="44.8861" lon="0.33879">
        <ele>57.1</ele>
        <time>2022-04-05T11:59:55Z</time>
      </trkpt>
      <trkpt lat="44.88609" lon="0.3388">
        <ele>57</ele>
        <time>2022-04-05T11:59:56Z</time>
      </trkpt>
      <trkpt lat="44.88607" lon="0.33881">
        <ele>56.8</ele>
        <time>2022-04-05T11:59:57Z</time>
      </trkpt>
      <trkpt lat="44.88607" lon="0.33881">
        <ele>56.8</ele>
        <time>2022-04-05T11:59:58Z</time>
      </trkpt>
      <trkpt lat="44.88605" lon="0.33881">
        <ele>56.7</ele>
        <time>2022-04-05T11:59:59Z</time>
      </trkpt>
      <trkpt lat="44.88604" lon="0.33881">
        <ele>56.6</ele>
        <time>2022-04-05T12:00:00Z</time>
      </trkpt>
      <trkpt lat="44.88603" lon="0.33882">
        <ele>56.5</ele>
        <time>2022-04-05T12:00:01Z</time>
      </trkpt>
      <trkpt lat="44.88601" lon="0.33882">
        <ele>56.3</ele>
        <time>2022-04-05T12:00:02Z</time>
      </trkpt>
      <trkpt lat="44.886" lon="0.33883">
        <ele>56.2</ele>
        <time>2022-04-05T12:00:03Z</time>
      </trkpt>
      <trkpt lat="44.88599" lon="0.33883">
        <ele>56.1</ele>
        <time>2022-04-05T12:00:04Z</time>
      </trkpt>
      <trkpt lat="44.88598" lon="0.33884">
        <ele>56</ele>
        <time>2022-04-05T12:00:05Z</time>
      </trkpt>
      <trkpt lat="44.88595" lon="0.33884">
        <ele>55.8</ele>
        <time>2022-04-05T12:00:06Z</time>
      </trkpt>
      <trkpt lat="44.88594" lon="0.33885">
        <ele>55.7</ele>
        <time>2022-04-05T12:00:07Z</time>
      </trkpt>
      <trkpt lat="44.88593" lon="0.33886">
        <ele>55.6</ele>
        <time>2022-04-05T12:00:08Z</time>
      </trkpt>
      <trkpt lat="44.88592" lon="0.33886">
        <ele>55.5</ele>
        <time>2022-04-05T12:00:09Z</time>
      </trkpt>
      <trkpt lat="44.88591" lon="0.33887">
        <ele>55.4</ele>
        <time>2022-04-05T12:00:10Z</time>
      </trkpt>
      <trkpt lat="44.8859" lon="0.33887">
        <ele>55.3</ele>
        <time>2022-04-05T12:00:11Z</time>
      </trkpt>
      <trkpt lat="44.88588" lon="0.33889">
        <ele>55</ele>
        <time>2022-04-05T12:00:12Z</time>
      </trkpt>
      <trkpt lat="44.88586" lon="0.33889">
        <ele>54.8</ele>
        <time>2022-04-05T12:00:13Z</time>
      </trkpt>
      <trkpt lat="44.88586" lon="0.3389">
        <ele>54.8</ele>
        <time>2022-04-05T12:00:14Z</time>
      </trkpt>
      <trkpt lat="44.88585" lon="0.3389">
        <ele>54.7</ele>
        <time>2022-04-05T12:00:15Z</time>
      </trkpt>
      <trkpt lat="44.88584" lon="0.33891">
        <ele>54.6</ele>
        <time>2022-04-05T12:00:16Z</time>
      </trkpt>
      <trkpt lat="44.88582" lon="0.33892">
        <ele>54.3</ele>
        <time>2022-04-05T12:00:17Z</time>
      </trkpt>
      <trkpt lat="44.88582" lon="0.33892">
        <ele>54.3</ele>
        <time>2022-04-05T12:00:18Z</time>
      </trkpt>
      <trkpt lat="44.8858" lon="0.33893">
        <ele>54.2</ele>
        <time>2022-04-05T12:00:19Z</time>
      </trkpt>
      <trkpt lat="44.88579" lon="0.33893">
        <ele>54.1</ele>
        <time>2022-04-05T12:00:20Z</time>
      </trkpt>
      <trkpt lat="44.88578" lon="0.33893">
        <ele>53.9</ele>
        <time>2022-04-05T12:00:21Z</time>
      </trkpt>
      <trkpt lat="44.88576" lon="0.33895">
        <ele>53.6</ele>
        <time>2022-04-05T12:00:22Z</time>
      </trkpt>
      <trkpt lat="44.88575" lon="0.33895">
        <ele>53.6</ele>
        <time>2022-04-05T12:00:23Z</time>
      </trkpt>
      <trkpt lat="44.88574" lon="0.33895">
        <ele>53.4</ele>
        <time>2022-04-05T12:00:24Z</time>
      </trkpt>
      <trkpt lat="44.88572" lon="0.33896">
        <ele>53.2</ele>
        <time>2022-04-05T12:00:26Z</time>
      </trkpt>
      <trkpt lat="44.88571" lon="0.33897">
        <ele>53.1</ele>
        <time>2022-04-05T12:00:27Z</time>
      </trkpt>
      <trkpt lat="44.88569" lon="0.33897">
        <ele>52.9</ele>
        <time>2022-04-05T12:00:28Z</time>
      </trkpt>
      <trkpt lat="44.88568" lon="0.33897">
        <ele>52.8</ele>
        <time>2022-04-05T12:00:29Z</time>
      </trkpt>
      <trkpt lat="44.88568" lon="0.33898">
        <ele>52.7</ele>
        <time>2022-04-05T12:00:30Z</time>
      </trkpt>
      <trkpt lat="44.88566" lon="0.33899">
        <ele>52.5</ele>
        <time>2022-04-05T12:00:31Z</time>
      </trkpt>
      <trkpt lat="44.88565" lon="0.33899">
        <ele>52.3</ele>
        <time>2022-04-05T12:00:32Z</time>
      </trkpt>
      <trkpt lat="44.88563" lon="0.339">
        <ele>52.1</ele>
        <time>2022-04-05T12:00:33Z</time>
      </trkpt>
      <trkpt lat="44.88561" lon="0.33901">
        <ele>51.9</ele>
        <time>2022-04-05T12:00:34Z</time>
      </trkpt>
      <trkpt lat="44.8856" lon="0.33901">
        <ele>51.8</ele>
        <time>2022-04-05T12:00:35Z</time>
      </trkpt>
      <trkpt lat="44.88559" lon="0.33902">
        <ele>51.7</ele>
        <time>2022-04-05T12:00:36Z</time>
      </trkpt>
      <trkpt lat="44.88557" lon="0.33903">
        <ele>51.3</ele>
        <time>2022-04-05T12:00:37Z</time>
      </trkpt>
      <trkpt lat="44.88556" lon="0.33903">
        <ele>51.3</ele>
        <time>2022-04-05T12:00:39Z</time>
      </trkpt>
      <trkpt lat="44.88555" lon="0.33903">
        <ele>51.1</ele>
        <time>2022-04-05T12:00:40Z</time>
      </trkpt>
      <trkpt lat="44.88553" lon="0.33904">
        <ele>50.9</ele>
        <time>2022-04-05T12:00:41Z</time>
      </trkpt>
      <trkpt lat="44.88552" lon="0.33904">
        <ele>50.7</ele>
        <time>2022-04-05T12:00:42Z</time>
      </trkpt>
      <trkpt lat="44.8855" lon="0.33905">
        <ele>50.5</ele>
        <time>2022-04-05T12:00:43Z</time>
      </trkpt>
      <trkpt lat="44.88549" lon="0.33906">
        <ele>50.4</ele>
        <time>2022-04-05T12:00:44Z</time>
      </trkpt>
      <trkpt lat="44.88548" lon="0.33906">
        <ele>50.3</ele>
        <time>2022-04-05T12:00:45Z</time>
      </trkpt>
      <trkpt lat="44.88547" lon="0.33907">
        <ele>50.1</ele>
        <time>2022-04-05T12:00:46Z</time>
      </trkpt>
      <trkpt lat="44.88545" lon="0.33908">
        <ele>49.8</ele>
        <time>2022-04-05T12:00:47Z</time>
      </trkpt>
      <trkpt lat="44.88544" lon="0.33908">
        <ele>49.7</ele>
        <time>2022-04-05T12:00:48Z</time>
      </trkpt>
      <trkpt lat="44.88542" lon="0.33908">
        <ele>49.5</ele>
        <time>2022-04-05T12:00:49Z</time>
      </trkpt>
      <trkpt lat="44.88541" lon="0.33909">
        <ele>49.4</ele>
        <time>2022-04-05T12:00:50Z</time>
      </trkpt>
      <trkpt lat="44.8854" lon="0.33909">
        <ele>49.3</ele>
        <time>2022-04-05T12:00:51Z</time>
      </trkpt>
      <trkpt lat="44.88539" lon="0.3391">
        <ele>49</ele>
        <time>2022-04-05T12:00:53Z</time>
      </trkpt>
      <trkpt lat="44.88538" lon="0.33911">
        <ele>48.9</ele>
        <time>2022-04-05T12:00:54Z</time>
      </trkpt>
      <trkpt lat="44.88536" lon="0.33913">
        <ele>48.5</ele>
        <time>2022-04-05T12:00:55Z</time>
      </trkpt>
      <trkpt lat="44.88535" lon="0.33914">
        <ele>48.4</ele>
        <time>2022-04-05T12:00:56Z</time>
      </trkpt>
      <trkpt lat="44.88533" lon="0.33915">
        <ele>48.2</ele>
        <time>2022-04-05T12:00:57Z</time>
      </trkpt>
      <trkpt lat="44.88533" lon="0.33915">
        <ele>48.2</ele>
        <time>2022-04-05T12:00:58Z</time>
      </trkpt>
      <trkpt lat="44.88532" lon="0.33915">
        <ele>48</ele>
        <time>2022-04-05T12:00:59Z</time>
      </trkpt>
      <trkpt lat="44.88531" lon="0.33916">
        <ele>47.8</ele>
        <time>2022-04-05T12:01:00Z</time>
      </trkpt>
      <trkpt lat="44.8853" lon="0.33916">
        <ele>47.7</ele>
        <time>2022-04-05T12:01:01Z</time>
      </trkpt>
      <trkpt lat="44.88527" lon="0.33917">
        <ele>47.4</ele>
        <time>2022-04-05T12:01:02Z</time>
      </trkpt>
      <trkpt lat="44.88526" lon="0.33917">
        <ele>47.3</ele>
        <time>2022-04-05T12:01:03Z</time>
      </trkpt>
      <trkpt lat="44.88525" lon="0.33917">
        <ele>47.1</ele>
        <time>2022-04-05T12:01:04Z</time>
      </trkpt>
      <trkpt lat="44.88524" lon="0.33917">
        <ele>47</ele>
        <time>2022-04-05T12:01:05Z</time>
      </trkpt>
      <trkpt lat="44.88522" lon="0.33918">
        <ele>46.7</ele>
        <time>2022-04-05T12:01:06Z</time>
      </trkpt>
      <trkpt lat="44.8852" lon="0.33918">
        <ele>46.5</ele>
        <time>2022-04-05T12:01:07Z</time>
      </trkpt>
      <trkpt lat="44.88519" lon="0.33919">
        <ele>46.3</ele>
        <time>2022-04-05T12:01:08Z</time>
      </trkpt>
      <trkpt lat="44.88517" lon="0.3392">
        <ele>46.1</ele>
        <time>2022-04-05T12:01:10Z</time>
      </trkpt>
      <trkpt lat="44.88516" lon="0.3392">
        <ele>46</ele>
        <time>2022-04-05T12:01:11Z</time>
      </trkpt>
      <trkpt lat="44.88515" lon="0.33921">
        <ele>45.8</ele>
        <time>2022-04-05T12:01:12Z</time>
      </trkpt>
      <trkpt lat="44.88512" lon="0.33922">
        <ele>45.5</ele>
        <time>2022-04-05T12:01:13Z</time>
      </trkpt>
      <trkpt lat="44.88512" lon="0.33922">
        <ele>45.4</ele>
        <time>2022-04-05T12:01:14Z</time>
      </trkpt>
      <trkpt lat="44.88511" lon="0.33922">
        <ele>45.4</ele>
        <time>2022-04-05T12:01:15Z</time>
      </trkpt>
      <trkpt lat="44.88509" lon="0.33923">
        <ele>45.2</ele>
        <time>2022-04-05T12:01:16Z</time>
      </trkpt>
      <trkpt lat="44.88508" lon="0.33923">
        <ele>45.1</ele>
        <time>2022-04-05T12:01:17Z</time>
      </trkpt>
      <trkpt lat="44.88507" lon="0.33924">
        <ele>44.9</ele>
        <time>2022-04-05T12:01:18Z</time>
      </trkpt>
      <trkpt lat="44.88506" lon="0.33926">
        <ele>44.8</ele>
        <time>2022-04-05T12:01:19Z</time>
      </trkpt>
      <trkpt lat="44.88504" lon="0.33927">
        <ele>44.7</ele>
        <time>2022-04-05T12:01:20Z</time>
      </trkpt>
      <trkpt lat="44.88503" lon="0.33928">
        <ele>44.6</ele>
        <time>2022-04-05T12:01:21Z</time>
      </trkpt>
      <trkpt lat="44.88501" lon="0.33931">
        <ele>44.4</ele>
        <time>2022-04-05T12:01:22Z</time>
      </trkpt>
      <trkpt lat="44.88501" lon="0.33932">
        <ele>44.4</ele>
        <time>2022-04-05T12:01:23Z</time>
      </trkpt>
      <trkpt lat="44.885" lon="0.33933">
        <ele>44.3</ele>
        <time>2022-04-05T12:01:24Z</time>
      </trkpt>
      <trkpt lat="44.88499" lon="0.33935">
        <ele>44.2</ele>
        <time>2022-04-05T12:01:25Z</time>
      </trkpt>
      <trkpt lat="44.88497" lon="0.33938">
        <ele>44.1</ele>
        <time>2022-04-05T12:01:27Z</time>
      </trkpt>
      <trkpt lat="44.88497" lon="0.33939">
        <ele>44</ele>
        <time>2022-04-05T12:01:28Z</time>
      </trkpt>
      <trkpt lat="44.88496" lon="0.33941">
        <ele>44</ele>
        <time>2022-04-05T12:01:30Z</time>
      </trkpt>
      <trkpt lat="44.88496" lon="0.33943">
        <ele>43.9</ele>
        <time>2022-04-05T12:01:31Z</time>
      </trkpt>
      <trkpt lat="44.88495" lon="0.33949">
        <ele>43.8</ele>
        <time>2022-04-05T12:01:33Z</time>
      </trkpt>
      <trkpt lat="44.88495" lon="0.3395">
        <ele>43.8</ele>
        <time>2022-04-05T12:01:34Z</time>
      </trkpt>
      <trkpt lat="44.88495" lon="0.33951">
        <ele>43.7</ele>
        <time>2022-04-05T12:01:35Z</time>
      </trkpt>
      <trkpt lat="44.88495" lon="0.33953">
        <ele>43.7</ele>
        <time>2022-04-05T12:01:36Z</time>
      </trkpt>
      <trkpt lat="44.88495" lon="0.33954">
        <ele>43.7</ele>
        <time>2022-04-05T12:01:37Z</time>
      </trkpt>
      <trkpt lat="44.88495" lon="0.33957">
        <ele>43.7</ele>
        <time>2022-04-05T12:01:38Z</time>
      </trkpt>
      <trkpt lat="44.88494" lon="0.33959">
        <ele>43.6</ele>
        <time>2022-04-05T12:01:39Z</time>
      </trkpt>
      <trkpt lat="44.88494" lon="0.33961">
        <ele>43.6</ele>
        <time>2022-04-05T12:01:40Z</time>
      </trkpt>
      <trkpt lat="44.88494" lon="0.33962">
        <ele>43.6</ele>
        <time>2022-04-05T12:01:41Z</time>
      </trkpt>
      <trkpt lat="44.88493" lon="0.33966">
        <ele>43.5</ele>
        <time>2022-04-05T12:01:42Z</time>
      </trkpt>
      <trkpt lat="44.88493" lon="0.33966">
        <ele>43.5</ele>
        <time>2022-04-05T12:01:43Z</time>
      </trkpt>
      <trkpt lat="44.88493" lon="0.33967">
        <ele>43.5</ele>
        <time>2022-04-05T12:01:44Z</time>
      </trkpt>
      <trkpt lat="44.88492" lon="0.33969">
        <ele>43.5</ele>
        <time>2022-04-05T12:01:45Z</time>
      </trkpt>
      <trkpt lat="44.88492" lon="0.3397">
        <ele>43.4</ele>
        <time>2022-04-05T12:01:46Z</time>
      </trkpt>
      <trkpt lat="44.88492" lon="0.33973">
        <ele>43.4</ele>
        <time>2022-04-05T12:01:47Z</time>
      </trkpt>
      <trkpt lat="44.88492" lon="0.33974">
        <ele>43.4</ele>
        <time>2022-04-05T12:01:48Z</time>
      </trkpt>
      <trkpt lat="44.88492" lon="0.33976">
        <ele>43.3</ele>
        <time>2022-04-05T12:01:50Z</time>
      </trkpt>
      <trkpt lat="44.88491" lon="0.33977">
        <ele>43.3</ele>
        <time>2022-04-05T12:01:51Z</time>
      </trkpt>
      <trkpt lat="44.88491" lon="0.33978">
        <ele>43.3</ele>
        <time>2022-04-05T12:01:52Z</time>
      </trkpt>
      <trkpt lat="44.88491" lon="0.3398">
        <ele>43.3</ele>
        <time>2022-04-05T12:01:53Z</time>
      </trkpt>
      <trkpt lat="44.88491" lon="0.33981">
        <ele>43.2</ele>
        <time>2022-04-05T12:01:54Z</time>
      </trkpt>
      <trkpt lat="44.8849" lon="0.33982">
        <ele>43.2</ele>
        <time>2022-04-05T12:01:55Z</time>
      </trkpt>
      <trkpt lat="44.8849" lon="0.33984">
        <ele>43.2</ele>
        <time>2022-04-05T12:01:56Z</time>
      </trkpt>
      <trkpt lat="44.88489" lon="0.33986">
        <ele>43.2</ele>
        <time>2022-04-05T12:01:58Z</time>
      </trkpt>
      <trkpt lat="44.88488" lon="0.33987">
        <ele>43.2</ele>
        <time>2022-04-05T12:01:59Z</time>
      </trkpt>
      <trkpt lat="44.88488" lon="0.33988">
        <ele>43.1</ele>
        <time>2022-04-05T12:02:00Z</time>
      </trkpt>
      <trkpt lat="44.88487" lon="0.33989">
        <ele>43.1</ele>
        <time>2022-04-05T12:02:01Z</time>
      </trkpt>
      <trkpt lat="44.88486" lon="0.33992">
        <ele>43.1</ele>
        <time>2022-04-05T12:02:03Z</time>
      </trkpt>
      <trkpt lat="44.88485" lon="0.33993">
        <ele>43.1</ele>
        <time>2022-04-05T12:02:04Z</time>
      </trkpt>
      <trkpt lat="44.88484" lon="0.33994">
        <ele>43.1</ele>
        <time>2022-04-05T12:02:05Z</time>
      </trkpt>
      <trkpt lat="44.88484" lon="0.33994">
        <ele>43.1</ele>
        <time>2022-04-05T12:02:06Z</time>
      </trkpt>
      <trkpt lat="44.88485" lon="0.33996">
        <ele>43</ele>
        <time>2022-04-05T12:02:08Z</time>
      </trkpt>
      <trkpt lat="44.88486" lon="0.33995">
        <ele>43</ele>
        <time>2022-04-05T12:02:09Z</time>
      </trkpt>
      <trkpt lat="44.88487" lon="0.33996">
        <ele>43</ele>
        <time>2022-04-05T12:02:10Z</time>
      </trkpt>
      <trkpt lat="44.88488" lon="0.33996">
        <ele>43</ele>
        <time>2022-04-05T12:02:11Z</time>
      </trkpt>
      <trkpt lat="44.8849" lon="0.33995">
        <ele>43</ele>
        <time>2022-04-05T12:02:13Z</time>
      </trkpt>
      <trkpt lat="44.8849" lon="0.33994">
        <ele>42.9</ele>
        <time>2022-04-05T12:02:14Z</time>
      </trkpt>
      <trkpt lat="44.8849" lon="0.33993">
        <ele>42.9</ele>
        <time>2022-04-05T12:02:15Z</time>
      </trkpt>
      <trkpt lat="44.88491" lon="0.33993">
        <ele>42.9</ele>
        <time>2022-04-05T12:02:16Z</time>
      </trkpt>
      <trkpt lat="44.88491" lon="0.33992">
        <ele>42.9</ele>
        <time>2022-04-05T12:02:17Z</time>
      </trkpt>
      <trkpt lat="44.88491" lon="0.33992">
        <ele>42.9</ele>
        <time>2022-04-05T12:02:18Z</time>
      </trkpt>
      <trkpt lat="44.8849" lon="0.33991">
        <ele>42.9</ele>
        <time>2022-04-05T12:02:19Z</time>
      </trkpt>
      <trkpt lat="44.88489" lon="0.33991">
        <ele>42.9</ele>
        <time>2022-04-05T12:02:20Z</time>
      </trkpt>
      <trkpt lat="44.88487" lon="0.33988">
        <ele>42.9</ele>
        <time>2022-04-05T12:02:21Z</time>
      </trkpt>
      <trkpt lat="44.88486" lon="0.33988">
        <ele>42.8</ele>
        <time>2022-04-05T12:02:22Z</time>
      </trkpt>
      <trkpt lat="44.88483" lon="0.33984">
        <ele>42.8</ele>
        <time>2022-04-05T12:02:24Z</time>
      </trkpt>
      <trkpt lat="44.88482" lon="0.33982">
        <ele>42.8</ele>
        <time>2022-04-05T12:02:26Z</time>
      </trkpt>
      <trkpt lat="44.88481" lon="0.33981">
        <ele>42.8</ele>
        <time>2022-04-05T12:02:27Z</time>
      </trkpt>
      <trkpt lat="44.88479" lon="0.33978">
        <ele>42.7</ele>
        <time>2022-04-05T12:02:28Z</time>
      </trkpt>
      <trkpt lat="44.88478" lon="0.33978">
        <ele>42.7</ele>
        <time>2022-04-05T12:02:29Z</time>
      </trkpt>
      <trkpt lat="44.88477" lon="0.33976">
        <ele>42.7</ele>
        <time>2022-04-05T12:02:30Z</time>
      </trkpt>
      <trkpt lat="44.88476" lon="0.33975">
        <ele>42.7</ele>
        <time>2022-04-05T12:02:31Z</time>
      </trkpt>
      <trkpt lat="44.88472" lon="0.33972">
        <ele>42.7</ele>
        <time>2022-04-05T12:02:33Z</time>
      </trkpt>
      <trkpt lat="44.88472" lon="0.33971">
        <ele>42.7</ele>
        <time>2022-04-05T12:02:34Z</time>
      </trkpt>
      <trkpt lat="44.88471" lon="0.3397">
        <ele>42.7</ele>
        <time>2022-04-05T12:02:35Z</time>
      </trkpt>
      <trkpt lat="44.8847" lon="0.33969">
        <ele>42.7</ele>
        <time>2022-04-05T12:02:36Z</time>
      </trkpt>
      <trkpt lat="44.88468" lon="0.33967">
        <ele>42.7</ele>
        <time>2022-04-05T12:02:37Z</time>
      </trkpt>
      <trkpt lat="44.88467" lon="0.33967">
        <ele>42.7</ele>
        <time>2022-04-05T12:02:38Z</time>
      </trkpt>
      <trkpt lat="44.88466" lon="0.33966">
        <ele>42.7</ele>
        <time>2022-04-05T12:02:39Z</time>
      </trkpt>
      <trkpt lat="44.88464" lon="0.33966">
        <ele>42.7</ele>
        <time>2022-04-05T12:02:40Z</time>
      </trkpt>
      <trkpt lat="44.88461" lon="0.33964">
        <ele>42.7</ele>
        <time>2022-04-05T12:02:42Z</time>
      </trkpt>
      <trkpt lat="44.8846" lon="0.33963">
        <ele>42.7</ele>
        <time>2022-04-05T12:02:43Z</time>
      </trkpt>
      <trkpt lat="44.88459" lon="0.33962">
        <ele>42.7</ele>
        <time>2022-04-05T12:02:44Z</time>
      </trkpt>
      <trkpt lat="44.88458" lon="0.33961">
        <ele>42.7</ele>
        <time>2022-04-05T12:02:45Z</time>
      </trkpt>
      <trkpt lat="44.88457" lon="0.33961">
        <ele>42.7</ele>
        <time>2022-04-05T12:02:46Z</time>
      </trkpt>
      <trkpt lat="44.88454" lon="0.33958">
        <ele>42.7</ele>
        <time>2022-04-05T12:02:48Z</time>
      </trkpt>
      <trkpt lat="44.88454" lon="0.33958">
        <ele>42.7</ele>
        <time>2022-04-05T12:02:49Z</time>
      </trkpt>
      <trkpt lat="44.88453" lon="0.33957">
        <ele>42.8</ele>
        <time>2022-04-05T12:02:50Z</time>
      </trkpt>
      <trkpt lat="44.88452" lon="0.33956">
        <ele>42.8</ele>
        <time>2022-04-05T12:02:51Z</time>
      </trkpt>
      <trkpt lat="44.88451" lon="0.33955">
        <ele>42.8</ele>
        <time>2022-04-05T12:02:52Z</time>
      </trkpt>
      <trkpt lat="44.88449" lon="0.33954">
        <ele>42.8</ele>
        <time>2022-04-05T12:02:53Z</time>
      </trkpt>
      <trkpt lat="44.88448" lon="0.33953">
        <ele>42.8</ele>
        <time>2022-04-05T12:02:55Z</time>
      </trkpt>
      <trkpt lat="44.88447" lon="0.33952">
        <ele>42.9</ele>
        <time>2022-04-05T12:02:56Z</time>
      </trkpt>
      <trkpt lat="44.88446" lon="0.33952">
        <ele>42.9</ele>
        <time>2022-04-05T12:02:57Z</time>
      </trkpt>
      <trkpt lat="44.88444" lon="0.33951">
        <ele>42.9</ele>
        <time>2022-04-05T12:02:58Z</time>
      </trkpt>
      <trkpt lat="44.88444" lon="0.33951">
        <ele>42.9</ele>
        <time>2022-04-05T12:02:59Z</time>
      </trkpt>
      <trkpt lat="44.88443" lon="0.33951">
        <ele>42.9</ele>
        <time>2022-04-05T12:03:00Z</time>
      </trkpt>
      <trkpt lat="44.88441" lon="0.3395">
        <ele>43</ele>
        <time>2022-04-05T12:03:01Z</time>
      </trkpt>
      <trkpt lat="44.88439" lon="0.3395">
        <ele>43</ele>
        <time>2022-04-05T12:03:02Z</time>
      </trkpt>
      <trkpt lat="44.88438" lon="0.3395">
        <ele>43</ele>
        <time>2022-04-05T12:03:03Z</time>
      </trkpt>
      <trkpt lat="44.88437" lon="0.3395">
        <ele>43</ele>
        <time>2022-04-05T12:03:04Z</time>
      </trkpt>
      <trkpt lat="44.88436" lon="0.33949">
        <ele>43.1</ele>
        <time>2022-04-05T12:03:05Z</time>
      </trkpt>
      <trkpt lat="44.88435" lon="0.33949">
        <ele>43.1</ele>
        <time>2022-04-05T12:03:06Z</time>
      </trkpt>
      <trkpt lat="44.88434" lon="0.33949">
        <ele>43.1</ele>
        <time>2022-04-05T12:03:07Z</time>
      </trkpt>
      <trkpt lat="44.88432" lon="0.33949">
        <ele>43.1</ele>
        <time>2022-04-05T12:03:08Z</time>
      </trkpt>
      <trkpt lat="44.88431" lon="0.3395">
        <ele>43.2</ele>
        <time>2022-04-05T12:03:09Z</time>
      </trkpt>
      <trkpt lat="44.8843" lon="0.33951">
        <ele>43.2</ele>
        <time>2022-04-05T12:03:10Z</time>
      </trkpt>
      <trkpt lat="44.88429" lon="0.33951">
        <ele>43.2</ele>
        <time>2022-04-05T12:03:11Z</time>
      </trkpt>
      <trkpt lat="44.88428" lon="0.33952">
        <ele>43.2</ele>
        <time>2022-04-05T12:03:12Z</time>
      </trkpt>
      <trkpt lat="44.88426" lon="0.33953">
        <ele>43.3</ele>
        <time>2022-04-05T12:03:13Z</time>
      </trkpt>
      <trkpt lat="44.88425" lon="0.33954">
        <ele>43.3</ele>
        <time>2022-04-05T12:03:14Z</time>
      </trkpt>
      <trkpt lat="44.88424" lon="0.33955">
        <ele>43.3</ele>
        <time>2022-04-05T12:03:15Z</time>
      </trkpt>
      <trkpt lat="44.88423" lon="0.33956">
        <ele>43.4</ele>
        <time>2022-04-05T12:03:17Z</time>
      </trkpt>
      <trkpt lat="44.88421" lon="0.33958">
        <ele>43.4</ele>
        <time>2022-04-05T12:03:18Z</time>
      </trkpt>
      <trkpt lat="44.88421" lon="0.33959">
        <ele>43.4</ele>
        <time>2022-04-05T12:03:19Z</time>
      </trkpt>
      <trkpt lat="44.88421" lon="0.3396">
        <ele>43.4</ele>
        <time>2022-04-05T12:03:20Z</time>
      </trkpt>
      <trkpt lat="44.8842" lon="0.33961">
        <ele>43.4</ele>
        <time>2022-04-05T12:03:21Z</time>
      </trkpt>
      <trkpt lat="44.8842" lon="0.33963">
        <ele>43.4</ele>
        <time>2022-04-05T12:03:22Z</time>
      </trkpt>
      <trkpt lat="44.88419" lon="0.33966">
        <ele>43.3</ele>
        <time>2022-04-05T12:03:23Z</time>
      </trkpt>
      <trkpt lat="44.88419" lon="0.33967">
        <ele>43.3</ele>
        <time>2022-04-05T12:03:24Z</time>
      </trkpt>
      <trkpt lat="44.88418" lon="0.33968">
        <ele>43.3</ele>
        <time>2022-04-05T12:03:25Z</time>
      </trkpt>
      <trkpt lat="44.88418" lon="0.33971">
        <ele>43.2</ele>
        <time>2022-04-05T12:03:26Z</time>
      </trkpt>
      <trkpt lat="44.88417" lon="0.33972">
        <ele>43.2</ele>
        <time>2022-04-05T12:03:27Z</time>
      </trkpt>
      <trkpt lat="44.88417" lon="0.33973">
        <ele>43.2</ele>
        <time>2022-04-05T12:03:28Z</time>
      </trkpt>
      <trkpt lat="44.88417" lon="0.33974">
        <ele>43.2</ele>
        <time>2022-04-05T12:03:29Z</time>
      </trkpt>
      <trkpt lat="44.88417" lon="0.33975">
        <ele>43.2</ele>
        <time>2022-04-05T12:03:30Z</time>
      </trkpt>
      <trkpt lat="44.88416" lon="0.33977">
        <ele>43.2</ele>
        <time>2022-04-05T12:03:31Z</time>
      </trkpt>
      <trkpt lat="44.88416" lon="0.33978">
        <ele>43.1</ele>
        <time>2022-04-05T12:03:32Z</time>
      </trkpt>
      <trkpt lat="44.88415" lon="0.33981">
        <ele>43.1</ele>
        <time>2022-04-05T12:03:33Z</time>
      </trkpt>
      <trkpt lat="44.88415" lon="0.33982">
        <ele>43.1</ele>
        <time>2022-04-05T12:03:34Z</time>
      </trkpt>
      <trkpt lat="44.88414" lon="0.33983">
        <ele>43.1</ele>
        <time>2022-04-05T12:03:35Z</time>
      </trkpt>
      <trkpt lat="44.88413" lon="0.33985">
        <ele>43</ele>
        <time>2022-04-05T12:03:36Z</time>
      </trkpt>
      <trkpt lat="44.88413" lon="0.33986">
        <ele>43</ele>
        <time>2022-04-05T12:03:37Z</time>
      </trkpt>
      <trkpt lat="44.88412" lon="0.33989">
        <ele>43</ele>
        <time>2022-04-05T12:03:38Z</time>
      </trkpt>
      <trkpt lat="44.88412" lon="0.3399">
        <ele>43</ele>
        <time>2022-04-05T12:03:39Z</time>
      </trkpt>
      <trkpt lat="44.88411" lon="0.33991">
        <ele>42.9</ele>
        <time>2022-04-05T12:03:40Z</time>
      </trkpt>
      <trkpt lat="44.88411" lon="0.33993">
        <ele>42.9</ele>
        <time>2022-04-05T12:03:41Z</time>
      </trkpt>
      <trkpt lat="44.8841" lon="0.33995">
        <ele>42.9</ele>
        <time>2022-04-05T12:03:42Z</time>
      </trkpt>
      <trkpt lat="44.88409" lon="0.33997">
        <ele>42.8</ele>
        <time>2022-04-05T12:03:43Z</time>
      </trkpt>
      <trkpt lat="44.88409" lon="0.33999">
        <ele>42.8</ele>
        <time>2022-04-05T12:03:44Z</time>
      </trkpt>
      <trkpt lat="44.88408" lon="0.34001">
        <ele>42.8</ele>
        <time>2022-04-05T12:03:46Z</time>
      </trkpt>
      <trkpt lat="44.88408" lon="0.34002">
        <ele>42.8</ele>
        <time>2022-04-05T12:03:47Z</time>
      </trkpt>
      <trkpt lat="44.88407" lon="0.34005">
        <ele>42.7</ele>
        <time>2022-04-05T12:03:48Z</time>
      </trkpt>
      <trkpt lat="44.88406" lon="0.34006">
        <ele>42.7</ele>
        <time>2022-04-05T12:03:49Z</time>
      </trkpt>
      <trkpt lat="44.88405" lon="0.34008">
        <ele>42.7</ele>
        <time>2022-04-05T12:03:50Z</time>
      </trkpt>
      <trkpt lat="44.88405" lon="0.34009">
        <ele>42.6</ele>
        <time>2022-04-05T12:03:51Z</time>
      </trkpt>
      <trkpt lat="44.88405" lon="0.34011">
        <ele>42.6</ele>
        <time>2022-04-05T12:03:52Z</time>
      </trkpt>
      <trkpt lat="44.88404" lon="0.34013">
        <ele>42.6</ele>
        <time>2022-04-05T12:03:53Z</time>
      </trkpt>
      <trkpt lat="44.88403" lon="0.34015">
        <ele>42.6</ele>
        <time>2022-04-05T12:03:54Z</time>
      </trkpt>
      <trkpt lat="44.88402" lon="0.34017">
        <ele>42.5</ele>
        <time>2022-04-05T12:03:55Z</time>
      </trkpt>
      <trkpt lat="44.88402" lon="0.34018">
        <ele>42.5</ele>
        <time>2022-04-05T12:03:56Z</time>
      </trkpt>
      <trkpt lat="44.88401" lon="0.34019">
        <ele>42.5</ele>
        <time>2022-04-05T12:03:57Z</time>
      </trkpt>
      <trkpt lat="44.884" lon="0.34022">
        <ele>42.5</ele>
        <time>2022-04-05T12:03:58Z</time>
      </trkpt>
      <trkpt lat="44.88399" lon="0.34022">
        <ele>42.4</ele>
        <time>2022-04-05T12:03:59Z</time>
      </trkpt>
      <trkpt lat="44.88398" lon="0.34025">
        <ele>42.4</ele>
        <time>2022-04-05T12:04:00Z</time>
      </trkpt>
      <trkpt lat="44.88398" lon="0.34026">
        <ele>42.4</ele>
        <time>2022-04-05T12:04:01Z</time>
      </trkpt>
      <trkpt lat="44.88397" lon="0.34027">
        <ele>42.4</ele>
        <time>2022-04-05T12:04:02Z</time>
      </trkpt>
      <trkpt lat="44.88397" lon="0.34029">
        <ele>42.3</ele>
        <time>2022-04-05T12:04:03Z</time>
      </trkpt>
      <trkpt lat="44.88396" lon="0.3403">
        <ele>42.3</ele>
        <time>2022-04-05T12:04:04Z</time>
      </trkpt>
      <trkpt lat="44.88395" lon="0.34032">
        <ele>42.3</ele>
        <time>2022-04-05T12:04:05Z</time>
      </trkpt>
      <trkpt lat="44.88395" lon="0.34033">
        <ele>42.3</ele>
        <time>2022-04-05T12:04:06Z</time>
      </trkpt>
      <trkpt lat="44.88394" lon="0.34034">
        <ele>42.2</ele>
        <time>2022-04-05T12:04:07Z</time>
      </trkpt>
      <trkpt lat="44.88393" lon="0.34036">
        <ele>42.2</ele>
        <time>2022-04-05T12:04:08Z</time>
      </trkpt>
      <trkpt lat="44.88392" lon="0.34038">
        <ele>42.2</ele>
        <time>2022-04-05T12:04:09Z</time>
      </trkpt>
      <trkpt lat="44.88392" lon="0.34039">
        <ele>42.2</ele>
        <time>2022-04-05T12:04:10Z</time>
      </trkpt>
      <trkpt lat="44.88391" lon="0.34041">
        <ele>42.1</ele>
        <time>2022-04-05T12:04:11Z</time>
      </trkpt>
      <trkpt lat="44.88391" lon="0.34042">
        <ele>42.1</ele>
        <time>2022-04-05T12:04:12Z</time>
      </trkpt>
      <trkpt lat="44.8839" lon="0.34044">
        <ele>42.1</ele>
        <time>2022-04-05T12:04:13Z</time>
      </trkpt>
      <trkpt lat="44.88389" lon="0.34046">
        <ele>42</ele>
        <time>2022-04-05T12:04:14Z</time>
      </trkpt>
      <trkpt lat="44.88389" lon="0.34047">
        <ele>42</ele>
        <time>2022-04-05T12:04:15Z</time>
      </trkpt>
      <trkpt lat="44.88388" lon="0.34049">
        <ele>42</ele>
        <time>2022-04-05T12:04:17Z</time>
      </trkpt>
      <trkpt lat="44.88388" lon="0.34051">
        <ele>41.9</ele>
        <time>2022-04-05T12:04:18Z</time>
      </trkpt>
      <trkpt lat="44.88387" lon="0.34053">
        <ele>41.9</ele>
        <time>2022-04-05T12:04:19Z</time>
      </trkpt>
      <trkpt lat="44.88387" lon="0.34056">
        <ele>41.9</ele>
        <time>2022-04-05T12:04:20Z</time>
      </trkpt>
      <trkpt lat="44.88386" lon="0.34058">
        <ele>41.8</ele>
        <time>2022-04-05T12:04:21Z</time>
      </trkpt>
      <trkpt lat="44.88385" lon="0.3406">
        <ele>41.8</ele>
        <time>2022-04-05T12:04:22Z</time>
      </trkpt>
      <trkpt lat="44.88385" lon="0.34061">
        <ele>41.8</ele>
        <time>2022-04-05T12:04:23Z</time>
      </trkpt>
      <trkpt lat="44.88384" lon="0.34064">
        <ele>41.7</ele>
        <time>2022-04-05T12:04:24Z</time>
      </trkpt>
      <trkpt lat="44.88383" lon="0.34065">
        <ele>41.7</ele>
        <time>2022-04-05T12:04:25Z</time>
      </trkpt>
      <trkpt lat="44.88382" lon="0.34068">
        <ele>41.7</ele>
        <time>2022-04-05T12:04:26Z</time>
      </trkpt>
      <trkpt lat="44.88382" lon="0.34069">
        <ele>41.6</ele>
        <time>2022-04-05T12:04:27Z</time>
      </trkpt>
      <trkpt lat="44.88381" lon="0.3407">
        <ele>41.6</ele>
        <time>2022-04-05T12:04:28Z</time>
      </trkpt>
      <trkpt lat="44.88381" lon="0.34072">
        <ele>41.6</ele>
        <time>2022-04-05T12:04:30Z</time>
      </trkpt>
      <trkpt lat="44.8838" lon="0.34074">
        <ele>41.5</ele>
        <time>2022-04-05T12:04:31Z</time>
      </trkpt>
      <trkpt lat="44.88379" lon="0.34075">
        <ele>41.5</ele>
        <time>2022-04-05T12:04:32Z</time>
      </trkpt>
      <trkpt lat="44.88378" lon="0.34077">
        <ele>41.5</ele>
        <time>2022-04-05T12:04:33Z</time>
      </trkpt>
      <trkpt lat="44.88377" lon="0.34079">
        <ele>41.4</ele>
        <time>2022-04-05T12:04:34Z</time>
      </trkpt>
      <trkpt lat="44.88376" lon="0.34082">
        <ele>41.4</ele>
        <time>2022-04-05T12:04:36Z</time>
      </trkpt>
      <trkpt lat="44.88376" lon="0.34083">
        <ele>41.3</ele>
        <time>2022-04-05T12:04:37Z</time>
      </trkpt>
      <trkpt lat="44.88375" lon="0.34084">
        <ele>41.3</ele>
        <time>2022-04-05T12:04:38Z</time>
      </trkpt>
      <trkpt lat="44.88375" lon="0.34086">
        <ele>41.3</ele>
        <time>2022-04-05T12:04:39Z</time>
      </trkpt>
      <trkpt lat="44.88374" lon="0.34088">
        <ele>41.2</ele>
        <time>2022-04-05T12:04:40Z</time>
      </trkpt>
      <trkpt lat="44.88374" lon="0.34091">
        <ele>41.2</ele>
        <time>2022-04-05T12:04:41Z</time>
      </trkpt>
      <trkpt lat="44.88372" lon="0.34093">
        <ele>41.1</ele>
        <time>2022-04-05T12:04:42Z</time>
      </trkpt>
      <trkpt lat="44.88372" lon="0.34094">
        <ele>41.1</ele>
        <time>2022-04-05T12:04:43Z</time>
      </trkpt>
      <trkpt lat="44.88371" lon="0.34095">
        <ele>41.1</ele>
        <time>2022-04-05T12:04:44Z</time>
      </trkpt>
      <trkpt lat="44.8837" lon="0.34097">
        <ele>41</ele>
        <time>2022-04-05T12:04:45Z</time>
      </trkpt>
      <trkpt lat="44.88369" lon="0.34099">
        <ele>41</ele>
        <time>2022-04-05T12:04:46Z</time>
      </trkpt>
      <trkpt lat="44.88368" lon="0.34101">
        <ele>40.9</ele>
        <time>2022-04-05T12:04:48Z</time>
      </trkpt>
      <trkpt lat="44.88368" lon="0.34103">
        <ele>40.9</ele>
        <time>2022-04-05T12:04:49Z</time>
      </trkpt>
      <trkpt lat="44.88367" lon="0.34104">
        <ele>40.9</ele>
        <time>2022-04-05T12:04:50Z</time>
      </trkpt>
      <trkpt lat="44.88365" lon="0.34106">
        <ele>40.8</ele>
        <time>2022-04-05T12:04:51Z</time>
      </trkpt>
      <trkpt lat="44.88365" lon="0.34107">
        <ele>40.8</ele>
        <time>2022-04-05T12:04:52Z</time>
      </trkpt>
      <trkpt lat="44.88364" lon="0.34108">
        <ele>40.7</ele>
        <time>2022-04-05T12:04:53Z</time>
      </trkpt>
      <trkpt lat="44.88363" lon="0.34109">
        <ele>40.7</ele>
        <time>2022-04-05T12:04:54Z</time>
      </trkpt>
      <trkpt lat="44.88361" lon="0.34112">
        <ele>40.6</ele>
        <time>2022-04-05T12:04:55Z</time>
      </trkpt>
      <trkpt lat="44.88361" lon="0.34113">
        <ele>40.6</ele>
        <time>2022-04-05T12:04:56Z</time>
      </trkpt>
      <trkpt lat="44.8836" lon="0.34115">
        <ele>40.6</ele>
        <time>2022-04-05T12:04:57Z</time>
      </trkpt>
      <trkpt lat="44.88359" lon="0.34116">
        <ele>40.6</ele>
        <time>2022-04-05T12:04:58Z</time>
      </trkpt>
      <trkpt lat="44.88359" lon="0.34117">
        <ele>40.5</ele>
        <time>2022-04-05T12:04:59Z</time>
      </trkpt>
      <trkpt lat="44.88357" lon="0.3412">
        <ele>40.5</ele>
        <time>2022-04-05T12:05:00Z</time>
      </trkpt>
      <trkpt lat="44.88356" lon="0.34121">
        <ele>40.4</ele>
        <time>2022-04-05T12:05:01Z</time>
      </trkpt>
      <trkpt lat="44.88355" lon="0.34122">
        <ele>40.4</ele>
        <time>2022-04-05T12:05:02Z</time>
      </trkpt>
      <trkpt lat="44.88353" lon="0.34123">
        <ele>40.4</ele>
        <time>2022-04-05T12:05:03Z</time>
      </trkpt>
      <trkpt lat="44.88351" lon="0.34125">
        <ele>40.3</ele>
        <time>2022-04-05T12:05:05Z</time>
      </trkpt>
      <trkpt lat="44.88349" lon="0.34126">
        <ele>40.3</ele>
        <time>2022-04-05T12:05:06Z</time>
      </trkpt>
      <trkpt lat="44.88349" lon="0.34126">
        <ele>40.3</ele>
        <time>2022-04-05T12:05:07Z</time>
      </trkpt>
      <trkpt lat="44.88348" lon="0.34127">
        <ele>40.2</ele>
        <time>2022-04-05T12:05:08Z</time>
      </trkpt>
      <trkpt lat="44.88346" lon="0.34128">
        <ele>40.2</ele>
        <time>2022-04-05T12:05:09Z</time>
      </trkpt>
      <trkpt lat="44.88344" lon="0.3413">
        <ele>40.1</ele>
        <time>2022-04-05T12:05:10Z</time>
      </trkpt>
      <trkpt lat="44.88343" lon="0.34131">
        <ele>40.1</ele>
        <time>2022-04-05T12:05:11Z</time>
      </trkpt>
      <trkpt lat="44.88342" lon="0.34133">
        <ele>40</ele>
        <time>2022-04-05T12:05:12Z</time>
      </trkpt>
      <trkpt lat="44.88341" lon="0.34134">
        <ele>40</ele>
        <time>2022-04-05T12:05:13Z</time>
      </trkpt>
      <trkpt lat="44.88341" lon="0.34135">
        <ele>40</ele>
        <time>2022-04-05T12:05:14Z</time>
      </trkpt>
      <trkpt lat="44.88339" lon="0.34136">
        <ele>40</ele>
        <time>2022-04-05T12:05:15Z</time>
      </trkpt>
      <trkpt lat="44.88337" lon="0.34137">
        <ele>39.9</ele>
        <time>2022-04-05T12:05:17Z</time>
      </trkpt>
      <trkpt lat="44.88336" lon="0.34138">
        <ele>39.9</ele>
        <time>2022-04-05T12:05:18Z</time>
      </trkpt>
      <trkpt lat="44.88335" lon="0.34139">
        <ele>39.8</ele>
        <time>2022-04-05T12:05:19Z</time>
      </trkpt>
      <trkpt lat="44.88334" lon="0.34139">
        <ele>39.8</ele>
        <time>2022-04-05T12:05:20Z</time>
      </trkpt>
      <trkpt lat="44.88331" lon="0.34141">
        <ele>39.8</ele>
        <time>2022-04-05T12:05:21Z</time>
      </trkpt>
      <trkpt lat="44.88331" lon="0.34141">
        <ele>39.7</ele>
        <time>2022-04-05T12:05:22Z</time>
      </trkpt>
      <trkpt lat="44.8833" lon="0.34142">
        <ele>39.7</ele>
        <time>2022-04-05T12:05:23Z</time>
      </trkpt>
      <trkpt lat="44.88329" lon="0.34142">
        <ele>39.7</ele>
        <time>2022-04-05T12:05:24Z</time>
      </trkpt>
      <trkpt lat="44.88328" lon="0.34143">
        <ele>39.7</ele>
        <time>2022-04-05T12:05:25Z</time>
      </trkpt>
      <trkpt lat="44.88326" lon="0.34145">
        <ele>39.6</ele>
        <time>2022-04-05T12:05:26Z</time>
      </trkpt>
      <trkpt lat="44.88325" lon="0.34146">
        <ele>39.6</ele>
        <time>2022-04-05T12:05:27Z</time>
      </trkpt>
      <trkpt lat="44.88323" lon="0.34148">
        <ele>39.6</ele>
        <time>2022-04-05T12:05:28Z</time>
      </trkpt>
      <trkpt lat="44.88322" lon="0.34149">
        <ele>39.5</ele>
        <time>2022-04-05T12:05:30Z</time>
      </trkpt>
      <trkpt lat="44.8832" lon="0.34149">
        <ele>39.5</ele>
        <time>2022-04-05T12:05:31Z</time>
      </trkpt>
      <trkpt lat="44.88319" lon="0.3415">
        <ele>39.5</ele>
        <time>2022-04-05T12:05:32Z</time>
      </trkpt>
      <trkpt lat="44.88318" lon="0.34151">
        <ele>39.5</ele>
        <time>2022-04-05T12:05:33Z</time>
      </trkpt>
      <trkpt lat="44.88317" lon="0.34152">
        <ele>39.4</ele>
        <time>2022-04-05T12:05:34Z</time>
      </trkpt>
      <trkpt lat="44.88316" lon="0.34152">
        <ele>39.4</ele>
        <time>2022-04-05T12:05:35Z</time>
      </trkpt>
      <trkpt lat="44.88315" lon="0.34153">
        <ele>39.4</ele>
        <time>2022-04-05T12:05:36Z</time>
      </trkpt>
      <trkpt lat="44.88313" lon="0.34155">
        <ele>39.4</ele>
        <time>2022-04-05T12:05:37Z</time>
      </trkpt>
      <trkpt lat="44.88312" lon="0.34156">
        <ele>39.3</ele>
        <time>2022-04-05T12:05:38Z</time>
      </trkpt>
      <trkpt lat="44.88312" lon="0.34157">
        <ele>39.3</ele>
        <time>2022-04-05T12:05:39Z</time>
      </trkpt>
      <trkpt lat="44.88309" lon="0.34159">
        <ele>39.3</ele>
        <time>2022-04-05T12:05:41Z</time>
      </trkpt>
      <trkpt lat="44.88309" lon="0.3416">
        <ele>39.3</ele>
        <time>2022-04-05T12:05:42Z</time>
      </trkpt>
      <trkpt lat="44.88307" lon="0.34161">
        <ele>39.2</ele>
        <time>2022-04-05T12:05:43Z</time>
      </trkpt>
      <trkpt lat="44.88306" lon="0.34162">
        <ele>39.2</ele>
        <time>2022-04-05T12:05:44Z</time>
      </trkpt>
      <trkpt lat="44.88305" lon="0.34163">
        <ele>39.2</ele>
        <time>2022-04-05T12:05:45Z</time>
      </trkpt>
      <trkpt lat="44.88303" lon="0.34164">
        <ele>39.1</ele>
        <time>2022-04-05T12:05:46Z</time>
      </trkpt>
      <trkpt lat="44.88302" lon="0.34165">
        <ele>39.1</ele>
        <time>2022-04-05T12:05:48Z</time>
      </trkpt>
      <trkpt lat="44.88301" lon="0.34166">
        <ele>39</ele>
        <time>2022-04-05T12:05:49Z</time>
      </trkpt>
      <trkpt lat="44.88299" lon="0.34168">
        <ele>39</ele>
        <time>2022-04-05T12:05:50Z</time>
      </trkpt>
      <trkpt lat="44.88297" lon="0.34169">
        <ele>38.9</ele>
        <time>2022-04-05T12:05:51Z</time>
      </trkpt>
      <trkpt lat="44.88297" lon="0.34169">
        <ele>38.9</ele>
        <time>2022-04-05T12:05:52Z</time>
      </trkpt>
      <trkpt lat="44.88296" lon="0.34169">
        <ele>38.9</ele>
        <time>2022-04-05T12:05:53Z</time>
      </trkpt>
      <trkpt lat="44.88295" lon="0.3417">
        <ele>38.8</ele>
        <time>2022-04-05T12:05:54Z</time>
      </trkpt>
      <trkpt lat="44.88292" lon="0.34172">
        <ele>38.8</ele>
        <time>2022-04-05T12:05:55Z</time>
      </trkpt>
      <trkpt lat="44.88291" lon="0.34172">
        <ele>38.7</ele>
        <time>2022-04-05T12:05:56Z</time>
      </trkpt>
      <trkpt lat="44.8829" lon="0.34174">
        <ele>38.7</ele>
        <time>2022-04-05T12:05:57Z</time>
      </trkpt>
      <trkpt lat="44.88289" lon="0.34175">
        <ele>38.6</ele>
        <time>2022-04-05T12:05:58Z</time>
      </trkpt>
      <trkpt lat="44.88288" lon="0.34175">
        <ele>38.6</ele>
        <time>2022-04-05T12:05:59Z</time>
      </trkpt>
      <trkpt lat="44.88284" lon="0.34178">
        <ele>38.5</ele>
        <time>2022-04-05T12:06:01Z</time>
      </trkpt>
      <trkpt lat="44.88284" lon="0.34179">
        <ele>38.4</ele>
        <time>2022-04-05T12:06:02Z</time>
      </trkpt>
      <trkpt lat="44.88283" lon="0.34179">
        <ele>38.4</ele>
        <time>2022-04-05T12:06:03Z</time>
      </trkpt>
      <trkpt lat="44.88282" lon="0.3418">
        <ele>38.4</ele>
        <time>2022-04-05T12:06:04Z</time>
      </trkpt>
      <trkpt lat="44.88279" lon="0.34182">
        <ele>38.3</ele>
        <time>2022-04-05T12:06:06Z</time>
      </trkpt>
      <trkpt lat="44.88278" lon="0.34182">
        <ele>38.3</ele>
        <time>2022-04-05T12:06:07Z</time>
      </trkpt>
      <trkpt lat="44.88277" lon="0.34183">
        <ele>38.2</ele>
        <time>2022-04-05T12:06:08Z</time>
      </trkpt>
      <trkpt lat="44.88276" lon="0.34185">
        <ele>38.2</ele>
        <time>2022-04-05T12:06:10Z</time>
      </trkpt>
      <trkpt lat="44.88273" lon="0.34187">
        <ele>38.1</ele>
        <time>2022-04-05T12:06:11Z</time>
      </trkpt>
      <trkpt lat="44.88273" lon="0.34187">
        <ele>38.1</ele>
        <time>2022-04-05T12:06:12Z</time>
      </trkpt>
      <trkpt lat="44.88271" lon="0.34188">
        <ele>38</ele>
        <time>2022-04-05T12:06:14Z</time>
      </trkpt>
      <trkpt lat="44.8827" lon="0.34189">
        <ele>38</ele>
        <time>2022-04-05T12:06:15Z</time>
      </trkpt>
      <trkpt lat="44.88268" lon="0.34191">
        <ele>37.9</ele>
        <time>2022-04-05T12:06:16Z</time>
      </trkpt>
      <trkpt lat="44.88268" lon="0.34191">
        <ele>37.9</ele>
        <time>2022-04-05T12:06:17Z</time>
      </trkpt>
      <trkpt lat="44.88267" lon="0.34192">
        <ele>37.9</ele>
        <time>2022-04-05T12:06:18Z</time>
      </trkpt>
      <trkpt lat="44.88266" lon="0.34193">
        <ele>37.9</ele>
        <time>2022-04-05T12:06:19Z</time>
      </trkpt>
      <trkpt lat="44.88265" lon="0.34194">
        <ele>37.8</ele>
        <time>2022-04-05T12:06:20Z</time>
      </trkpt>
      <trkpt lat="44.88263" lon="0.34195">
        <ele>37.8</ele>
        <time>2022-04-05T12:06:21Z</time>
      </trkpt>
      <trkpt lat="44.88262" lon="0.34196">
        <ele>37.8</ele>
        <time>2022-04-05T12:06:22Z</time>
      </trkpt>
      <trkpt lat="44.88261" lon="0.34197">
        <ele>37.8</ele>
        <time>2022-04-05T12:06:23Z</time>
      </trkpt>
      <trkpt lat="44.88261" lon="0.34197">
        <ele>37.8</ele>
        <time>2022-04-05T12:06:24Z</time>
      </trkpt>
      <trkpt lat="44.8826" lon="0.34198">
        <ele>37.7</ele>
        <time>2022-04-05T12:06:25Z</time>
      </trkpt>
      <trkpt lat="44.88258" lon="0.342">
        <ele>37.7</ele>
        <time>2022-04-05T12:06:26Z</time>
      </trkpt>
      <trkpt lat="44.88258" lon="0.34201">
        <ele>37.7</ele>
        <time>2022-04-05T12:06:27Z</time>
      </trkpt>
      <trkpt lat="44.88256" lon="0.34202">
        <ele>37.6</ele>
        <time>2022-04-05T12:06:28Z</time>
      </trkpt>
      <trkpt lat="44.88255" lon="0.34203">
        <ele>37.6</ele>
        <time>2022-04-05T12:06:29Z</time>
      </trkpt>
      <trkpt lat="44.88254" lon="0.34203">
        <ele>37.6</ele>
        <time>2022-04-05T12:06:30Z</time>
      </trkpt>
      <trkpt lat="44.88252" lon="0.34204">
        <ele>37.6</ele>
        <time>2022-04-05T12:06:31Z</time>
      </trkpt>
      <trkpt lat="44.88251" lon="0.34205">
        <ele>37.6</ele>
        <time>2022-04-05T12:06:33Z</time>
      </trkpt>
      <trkpt lat="44.8825" lon="0.34206">
        <ele>37.5</ele>
        <time>2022-04-05T12:06:34Z</time>
      </trkpt>
      <trkpt lat="44.88248" lon="0.34206">
        <ele>37.5</ele>
        <time>2022-04-05T12:06:35Z</time>
      </trkpt>
      <trkpt lat="44.88246" lon="0.34208">
        <ele>37.5</ele>
        <time>2022-04-05T12:06:36Z</time>
      </trkpt>
      <trkpt lat="44.88245" lon="0.34208">
        <ele>37.5</ele>
        <time>2022-04-05T12:06:37Z</time>
      </trkpt>
      <trkpt lat="44.88244" lon="0.34209">
        <ele>37.5</ele>
        <time>2022-04-05T12:06:38Z</time>
      </trkpt>
      <trkpt lat="44.88243" lon="0.34209">
        <ele>37.5</ele>
        <time>2022-04-05T12:06:39Z</time>
      </trkpt>
      <trkpt lat="44.88241" lon="0.34211">
        <ele>37.4</ele>
        <time>2022-04-05T12:06:40Z</time>
      </trkpt>
      <trkpt lat="44.8824" lon="0.34212">
        <ele>37.4</ele>
        <time>2022-04-05T12:06:41Z</time>
      </trkpt>
      <trkpt lat="44.88238" lon="0.34214">
        <ele>37.4</ele>
        <time>2022-04-05T12:06:42Z</time>
      </trkpt>
      <trkpt lat="44.88237" lon="0.34215">
        <ele>37.4</ele>
        <time>2022-04-05T12:06:43Z</time>
      </trkpt>
      <trkpt lat="44.88236" lon="0.34216">
        <ele>37.4</ele>
        <time>2022-04-05T12:06:45Z</time>
      </trkpt>
      <trkpt lat="44.88235" lon="0.34217">
        <ele>37.4</ele>
        <time>2022-04-05T12:06:46Z</time>
      </trkpt>
      <trkpt lat="44.88234" lon="0.34218">
        <ele>37.3</ele>
        <time>2022-04-05T12:06:47Z</time>
      </trkpt>
      <trkpt lat="44.88233" lon="0.3422">
        <ele>37.3</ele>
        <time>2022-04-05T12:06:48Z</time>
      </trkpt>
      <trkpt lat="44.88232" lon="0.34221">
        <ele>37.3</ele>
        <time>2022-04-05T12:06:49Z</time>
      </trkpt>
      <trkpt lat="44.88231" lon="0.34222">
        <ele>37.3</ele>
        <time>2022-04-05T12:06:50Z</time>
      </trkpt>
      <trkpt lat="44.88229" lon="0.34224">
        <ele>37.3</ele>
        <time>2022-04-05T12:06:51Z</time>
      </trkpt>
      <trkpt lat="44.88227" lon="0.34225">
        <ele>37.2</ele>
        <time>2022-04-05T12:06:52Z</time>
      </trkpt>
      <trkpt lat="44.88227" lon="0.34226">
        <ele>37.2</ele>
        <time>2022-04-05T12:06:53Z</time>
      </trkpt>
      <trkpt lat="44.88226" lon="0.34226">
        <ele>37.2</ele>
        <time>2022-04-05T12:06:54Z</time>
      </trkpt>
      <trkpt lat="44.88222" lon="0.34229">
        <ele>37.1</ele>
        <time>2022-04-05T12:06:56Z</time>
      </trkpt>
      <trkpt lat="44.88221" lon="0.34229">
        <ele>37.1</ele>
        <time>2022-04-05T12:06:57Z</time>
      </trkpt>
      <trkpt lat="44.8822" lon="0.3423">
        <ele>37.1</ele>
        <time>2022-04-05T12:06:58Z</time>
      </trkpt>
      <trkpt lat="44.88219" lon="0.34231">
        <ele>37.1</ele>
        <time>2022-04-05T12:06:59Z</time>
      </trkpt>
      <trkpt lat="44.88217" lon="0.34233">
        <ele>37</ele>
        <time>2022-04-05T12:07:02Z</time>
      </trkpt>
      <trkpt lat="44.88215" lon="0.34234">
        <ele>37</ele>
        <time>2022-04-05T12:07:03Z</time>
      </trkpt>
      <trkpt lat="44.88214" lon="0.34235">
        <ele>37</ele>
        <time>2022-04-05T12:07:04Z</time>
      </trkpt>
      <trkpt lat="44.88213" lon="0.34236">
        <ele>37</ele>
        <time>2022-04-05T12:07:05Z</time>
      </trkpt>
      <trkpt lat="44.88211" lon="0.34237">
        <ele>36.9</ele>
        <time>2022-04-05T12:07:06Z</time>
      </trkpt>
      <trkpt lat="44.8821" lon="0.34238">
        <ele>36.9</ele>
        <time>2022-04-05T12:07:07Z</time>
      </trkpt>
      <trkpt lat="44.88209" lon="0.34239">
        <ele>36.9</ele>
        <time>2022-04-05T12:07:08Z</time>
      </trkpt>
      <trkpt lat="44.88208" lon="0.34241">
        <ele>36.9</ele>
        <time>2022-04-05T12:07:09Z</time>
      </trkpt>
      <trkpt lat="44.88207" lon="0.34241">
        <ele>36.8</ele>
        <time>2022-04-05T12:07:10Z</time>
      </trkpt>
      <trkpt lat="44.88205" lon="0.34243">
        <ele>36.8</ele>
        <time>2022-04-05T12:07:11Z</time>
      </trkpt>
      <trkpt lat="44.88204" lon="0.34244">
        <ele>36.8</ele>
        <time>2022-04-05T12:07:12Z</time>
      </trkpt>
      <trkpt lat="44.88202" lon="0.34245">
        <ele>36.8</ele>
        <time>2022-04-05T12:07:14Z</time>
      </trkpt>
      <trkpt lat="44.88201" lon="0.34245">
        <ele>36.7</ele>
        <time>2022-04-05T12:07:15Z</time>
      </trkpt>
      <trkpt lat="44.882" lon="0.34247">
        <ele>36.7</ele>
        <time>2022-04-05T12:07:16Z</time>
      </trkpt>
      <trkpt lat="44.88198" lon="0.34248">
        <ele>36.6</ele>
        <time>2022-04-05T12:07:17Z</time>
      </trkpt>
      <trkpt lat="44.88197" lon="0.34249">
        <ele>36.6</ele>
        <time>2022-04-05T12:07:18Z</time>
      </trkpt>
      <trkpt lat="44.88197" lon="0.3425">
        <ele>36.6</ele>
        <time>2022-04-05T12:07:19Z</time>
      </trkpt>
      <trkpt lat="44.88195" lon="0.34251">
        <ele>36.5</ele>
        <time>2022-04-05T12:07:20Z</time>
      </trkpt>
      <trkpt lat="44.88194" lon="0.34251">
        <ele>36.5</ele>
        <time>2022-04-05T12:07:21Z</time>
      </trkpt>
      <trkpt lat="44.88193" lon="0.34252">
        <ele>36.5</ele>
        <time>2022-04-05T12:07:22Z</time>
      </trkpt>
      <trkpt lat="44.8819" lon="0.34255">
        <ele>36.4</ele>
        <time>2022-04-05T12:07:24Z</time>
      </trkpt>
      <trkpt lat="44.88189" lon="0.34255">
        <ele>36.3</ele>
        <time>2022-04-05T12:07:25Z</time>
      </trkpt>
      <trkpt lat="44.88188" lon="0.34256">
        <ele>36.3</ele>
        <time>2022-04-05T12:07:26Z</time>
      </trkpt>
      <trkpt lat="44.88187" lon="0.34257">
        <ele>36.3</ele>
        <time>2022-04-05T12:07:27Z</time>
      </trkpt>
      <trkpt lat="44.88185" lon="0.34258">
        <ele>36.2</ele>
        <time>2022-04-05T12:07:28Z</time>
      </trkpt>
      <trkpt lat="44.88185" lon="0.34259">
        <ele>36.2</ele>
        <time>2022-04-05T12:07:29Z</time>
      </trkpt>
      <trkpt lat="44.88184" lon="0.3426">
        <ele>36.2</ele>
        <time>2022-04-05T12:07:30Z</time>
      </trkpt>
      <trkpt lat="44.88182" lon="0.34261">
        <ele>36.2</ele>
        <time>2022-04-05T12:07:31Z</time>
      </trkpt>
      <trkpt lat="44.88181" lon="0.34261">
        <ele>36.2</ele>
        <time>2022-04-05T12:07:33Z</time>
      </trkpt>
      <trkpt lat="44.88179" lon="0.34262">
        <ele>36.1</ele>
        <time>2022-04-05T12:07:34Z</time>
      </trkpt>
      <trkpt lat="44.88178" lon="0.34263">
        <ele>36.1</ele>
        <time>2022-04-05T12:07:35Z</time>
      </trkpt>
      <trkpt lat="44.88178" lon="0.34263">
        <ele>36.1</ele>
        <time>2022-04-05T12:07:36Z</time>
      </trkpt>
      <trkpt lat="44.88175" lon="0.34264">
        <ele>36.1</ele>
        <time>2022-04-05T12:07:37Z</time>
      </trkpt>
      <trkpt lat="44.88175" lon="0.34265">
        <ele>36</ele>
        <time>2022-04-05T12:07:38Z</time>
      </trkpt>
      <trkpt lat="44.88174" lon="0.34265">
        <ele>36</ele>
        <time>2022-04-05T12:07:39Z</time>
      </trkpt>
      <trkpt lat="44.88173" lon="0.34265">
        <ele>36</ele>
        <time>2022-04-05T12:07:40Z</time>
      </trkpt>
      <trkpt lat="44.88172" lon="0.34266">
        <ele>36</ele>
        <time>2022-04-05T12:07:41Z</time>
      </trkpt>
      <trkpt lat="44.8817" lon="0.34266">
        <ele>36</ele>
        <time>2022-04-05T12:07:42Z</time>
      </trkpt>
      <trkpt lat="44.88168" lon="0.34268">
        <ele>35.9</ele>
        <time>2022-04-05T12:07:44Z</time>
      </trkpt>
      <trkpt lat="44.88167" lon="0.34268">
        <ele>35.9</ele>
        <time>2022-04-05T12:07:45Z</time>
      </trkpt>
      <trkpt lat="44.88166" lon="0.34269">
        <ele>35.9</ele>
        <time>2022-04-05T12:07:46Z</time>
      </trkpt>
      <trkpt lat="44.88165" lon="0.3427">
        <ele>35.8</ele>
        <time>2022-04-05T12:07:47Z</time>
      </trkpt>
      <trkpt lat="44.88162" lon="0.34271">
        <ele>35.8</ele>
        <time>2022-04-05T12:07:48Z</time>
      </trkpt>
      <trkpt lat="44.88162" lon="0.34271">
        <ele>35.8</ele>
        <time>2022-04-05T12:07:49Z</time>
      </trkpt>
      <trkpt lat="44.8816" lon="0.34272">
        <ele>35.7</ele>
        <time>2022-04-05T12:07:50Z</time>
      </trkpt>
      <trkpt lat="44.88159" lon="0.34273">
        <ele>35.7</ele>
        <time>2022-04-05T12:07:51Z</time>
      </trkpt>
      <trkpt lat="44.88158" lon="0.34273">
        <ele>35.7</ele>
        <time>2022-04-05T12:07:52Z</time>
      </trkpt>
      <trkpt lat="44.88156" lon="0.34273">
        <ele>35.6</ele>
        <time>2022-04-05T12:07:54Z</time>
      </trkpt>
      <trkpt lat="44.88155" lon="0.34273">
        <ele>35.6</ele>
        <time>2022-04-05T12:07:55Z</time>
      </trkpt>
      <trkpt lat="44.88153" lon="0.34273">
        <ele>35.6</ele>
        <time>2022-04-05T12:07:56Z</time>
      </trkpt>
      <trkpt lat="44.88152" lon="0.34273">
        <ele>35.5</ele>
        <time>2022-04-05T12:07:57Z</time>
      </trkpt>
      <trkpt lat="44.88151" lon="0.34273">
        <ele>35.5</ele>
        <time>2022-04-05T12:07:58Z</time>
      </trkpt>
      <trkpt lat="44.88149" lon="0.34272">
        <ele>35.5</ele>
        <time>2022-04-05T12:07:59Z</time>
      </trkpt>
      <trkpt lat="44.88148" lon="0.34272">
        <ele>35.5</ele>
        <time>2022-04-05T12:08:00Z</time>
      </trkpt>
      <trkpt lat="44.88146" lon="0.34272">
        <ele>35.4</ele>
        <time>2022-04-05T12:08:01Z</time>
      </trkpt>
      <trkpt lat="44.88144" lon="0.34272">
        <ele>35.4</ele>
        <time>2022-04-05T12:08:02Z</time>
      </trkpt>
      <trkpt lat="44.88143" lon="0.34272">
        <ele>35.3</ele>
        <time>2022-04-05T12:08:03Z</time>
      </trkpt>
      <trkpt lat="44.88142" lon="0.34272">
        <ele>35.3</ele>
        <time>2022-04-05T12:08:04Z</time>
      </trkpt>
      <trkpt lat="44.8814" lon="0.34272">
        <ele>35.3</ele>
        <time>2022-04-05T12:08:05Z</time>
      </trkpt>
      <trkpt lat="44.88139" lon="0.34272">
        <ele>35.2</ele>
        <time>2022-04-05T12:08:06Z</time>
      </trkpt>
      <trkpt lat="44.88138" lon="0.34272">
        <ele>35.2</ele>
        <time>2022-04-05T12:08:07Z</time>
      </trkpt>
      <trkpt lat="44.88136" lon="0.34272">
        <ele>35.2</ele>
        <time>2022-04-05T12:08:09Z</time>
      </trkpt>
      <trkpt lat="44.88135" lon="0.34272">
        <ele>35.2</ele>
        <time>2022-04-05T12:08:10Z</time>
      </trkpt>
      <trkpt lat="44.88134" lon="0.34271">
        <ele>35.1</ele>
        <time>2022-04-05T12:08:11Z</time>
      </trkpt>
      <trkpt lat="44.88132" lon="0.34271">
        <ele>35.1</ele>
        <time>2022-04-05T12:08:12Z</time>
      </trkpt>
      <trkpt lat="44.88131" lon="0.3427">
        <ele>35.1</ele>
        <time>2022-04-05T12:08:13Z</time>
      </trkpt>
      <trkpt lat="44.8813" lon="0.3427">
        <ele>35</ele>
        <time>2022-04-05T12:08:14Z</time>
      </trkpt>
      <trkpt lat="44.88129" lon="0.3427">
        <ele>35</ele>
        <time>2022-04-05T12:08:15Z</time>
      </trkpt>
      <trkpt lat="44.88128" lon="0.3427">
        <ele>35</ele>
        <time>2022-04-05T12:08:16Z</time>
      </trkpt>
      <trkpt lat="44.88126" lon="0.3427">
        <ele>35</ele>
        <time>2022-04-05T12:08:17Z</time>
      </trkpt>
      <trkpt lat="44.88123" lon="0.3427">
        <ele>34.9</ele>
        <time>2022-04-05T12:08:19Z</time>
      </trkpt>
      <trkpt lat="44.88122" lon="0.3427">
        <ele>34.9</ele>
        <time>2022-04-05T12:08:20Z</time>
      </trkpt>
      <trkpt lat="44.8812" lon="0.3427">
        <ele>34.8</ele>
        <time>2022-04-05T12:08:21Z</time>
      </trkpt>
      <trkpt lat="44.88119" lon="0.34271">
        <ele>34.8</ele>
        <time>2022-04-05T12:08:22Z</time>
      </trkpt>
      <trkpt lat="44.88118" lon="0.34271">
        <ele>34.8</ele>
        <time>2022-04-05T12:08:23Z</time>
      </trkpt>
      <trkpt lat="44.88116" lon="0.34271">
        <ele>34.7</ele>
        <time>2022-04-05T12:08:24Z</time>
      </trkpt>
      <trkpt lat="44.88115" lon="0.34271">
        <ele>34.7</ele>
        <time>2022-04-05T12:08:25Z</time>
      </trkpt>
      <trkpt lat="44.88114" lon="0.3427">
        <ele>34.7</ele>
        <time>2022-04-05T12:08:26Z</time>
      </trkpt>
      <trkpt lat="44.88111" lon="0.3427">
        <ele>34.6</ele>
        <time>2022-04-05T12:08:28Z</time>
      </trkpt>
      <trkpt lat="44.8811" lon="0.3427">
        <ele>34.6</ele>
        <time>2022-04-05T12:08:29Z</time>
      </trkpt>
      <trkpt lat="44.88109" lon="0.34271">
        <ele>34.5</ele>
        <time>2022-04-05T12:08:30Z</time>
      </trkpt>
      <trkpt lat="44.88108" lon="0.34271">
        <ele>34.5</ele>
        <time>2022-04-05T12:08:31Z</time>
      </trkpt>
      <trkpt lat="44.88107" lon="0.34271">
        <ele>34.5</ele>
        <time>2022-04-05T12:08:32Z</time>
      </trkpt>
      <trkpt lat="44.88106" lon="0.34271">
        <ele>34.5</ele>
        <time>2022-04-05T12:08:33Z</time>
      </trkpt>
      <trkpt lat="44.88104" lon="0.34271">
        <ele>34.4</ele>
        <time>2022-04-05T12:08:34Z</time>
      </trkpt>
      <trkpt lat="44.88102" lon="0.34271">
        <ele>34.4</ele>
        <time>2022-04-05T12:08:35Z</time>
      </trkpt>
      <trkpt lat="44.88101" lon="0.34271">
        <ele>34.3</ele>
        <time>2022-04-05T12:08:36Z</time>
      </trkpt>
      <trkpt lat="44.881" lon="0.34271">
        <ele>34.3</ele>
        <time>2022-04-05T12:08:37Z</time>
      </trkpt>
      <trkpt lat="44.88099" lon="0.34271">
        <ele>34.3</ele>
        <time>2022-04-05T12:08:38Z</time>
      </trkpt>
      <trkpt lat="44.88097" lon="0.34271">
        <ele>34.2</ele>
        <time>2022-04-05T12:08:39Z</time>
      </trkpt>
      <trkpt lat="44.88097" lon="0.34271">
        <ele>34.2</ele>
        <time>2022-04-05T12:08:40Z</time>
      </trkpt>
      <trkpt lat="44.88096" lon="0.34271">
        <ele>34.2</ele>
        <time>2022-04-05T12:08:41Z</time>
      </trkpt>
      <trkpt lat="44.88095" lon="0.34271">
        <ele>34.2</ele>
        <time>2022-04-05T12:08:42Z</time>
      </trkpt>
      <trkpt lat="44.88093" lon="0.34272">
        <ele>34.1</ele>
        <time>2022-04-05T12:08:43Z</time>
      </trkpt>
      <trkpt lat="44.88091" lon="0.34272">
        <ele>34.1</ele>
        <time>2022-04-05T12:08:44Z</time>
      </trkpt>
      <trkpt lat="44.88091" lon="0.34272">
        <ele>34.1</ele>
        <time>2022-04-05T12:08:46Z</time>
      </trkpt>
      <trkpt lat="44.88089" lon="0.34272">
        <ele>34.1</ele>
        <time>2022-04-05T12:08:47Z</time>
      </trkpt>
      <trkpt lat="44.88088" lon="0.34272">
        <ele>34.1</ele>
        <time>2022-04-05T12:08:48Z</time>
      </trkpt>
      <trkpt lat="44.88086" lon="0.34272">
        <ele>34</ele>
        <time>2022-04-05T12:08:49Z</time>
      </trkpt>
      <trkpt lat="44.88086" lon="0.34272">
        <ele>34</ele>
        <time>2022-04-05T12:08:50Z</time>
      </trkpt>
      <trkpt lat="44.88085" lon="0.34272">
        <ele>34</ele>
        <time>2022-04-05T12:08:51Z</time>
      </trkpt>
      <trkpt lat="44.88083" lon="0.34273">
        <ele>33.9</ele>
        <time>2022-04-05T12:08:52Z</time>
      </trkpt>
      <trkpt lat="44.88082" lon="0.34273">
        <ele>33.9</ele>
        <time>2022-04-05T12:08:53Z</time>
      </trkpt>
      <trkpt lat="44.88081" lon="0.34273">
        <ele>33.9</ele>
        <time>2022-04-05T12:08:54Z</time>
      </trkpt>
      <trkpt lat="44.8808" lon="0.34273">
        <ele>33.9</ele>
        <time>2022-04-05T12:08:55Z</time>
      </trkpt>
      <trkpt lat="44.88079" lon="0.34273">
        <ele>33.9</ele>
        <time>2022-04-05T12:08:56Z</time>
      </trkpt>
      <trkpt lat="44.88078" lon="0.34273">
        <ele>33.9</ele>
        <time>2022-04-05T12:08:57Z</time>
      </trkpt>
      <trkpt lat="44.88077" lon="0.34273">
        <ele>33.8</ele>
        <time>2022-04-05T12:08:58Z</time>
      </trkpt>
      <trkpt lat="44.88075" lon="0.34273">
        <ele>33.7</ele>
        <time>2022-04-05T12:08:59Z</time>
      </trkpt>
      <trkpt lat="44.88075" lon="0.34272">
        <ele>33.7</ele>
        <time>2022-04-05T12:09:00Z</time>
      </trkpt>
      <trkpt lat="44.88074" lon="0.34272">
        <ele>33.7</ele>
        <time>2022-04-05T12:09:01Z</time>
      </trkpt>
      <trkpt lat="44.88073" lon="0.34272">
        <ele>33.7</ele>
        <time>2022-04-05T12:09:02Z</time>
      </trkpt>
      <trkpt lat="44.88071" lon="0.34272">
        <ele>33.6</ele>
        <time>2022-04-05T12:09:04Z</time>
      </trkpt>
      <trkpt lat="44.8807" lon="0.34272">
        <ele>33.6</ele>
        <time>2022-04-05T12:09:05Z</time>
      </trkpt>
      <trkpt lat="44.88069" lon="0.34271">
        <ele>33.6</ele>
        <time>2022-04-05T12:09:06Z</time>
      </trkpt>
      <trkpt lat="44.88068" lon="0.34272">
        <ele>33.6</ele>
        <time>2022-04-05T12:09:07Z</time>
      </trkpt>
      <trkpt lat="44.88067" lon="0.34272">
        <ele>33.6</ele>
        <time>2022-04-05T12:09:08Z</time>
      </trkpt>
      <trkpt lat="44.88065" lon="0.34272">
        <ele>33.6</ele>
        <time>2022-04-05T12:09:09Z</time>
      </trkpt>
      <trkpt lat="44.88065" lon="0.34272">
        <ele>33.6</ele>
        <time>2022-04-05T12:09:10Z</time>
      </trkpt>
      <trkpt lat="44.88064" lon="0.34272">
        <ele>33.6</ele>
        <time>2022-04-05T12:09:11Z</time>
      </trkpt>
      <trkpt lat="44.88063" lon="0.34272">
        <ele>33.5</ele>
        <time>2022-04-05T12:09:12Z</time>
      </trkpt>
      <trkpt lat="44.88061" lon="0.34272">
        <ele>33.5</ele>
        <time>2022-04-05T12:09:14Z</time>
      </trkpt>
      <trkpt lat="44.8806" lon="0.34273">
        <ele>33.5</ele>
        <time>2022-04-05T12:09:15Z</time>
      </trkpt>
      <trkpt lat="44.88059" lon="0.34273">
        <ele>33.5</ele>
        <time>2022-04-05T12:09:16Z</time>
      </trkpt>
      <trkpt lat="44.88058" lon="0.34274">
        <ele>33.5</ele>
        <time>2022-04-05T12:09:17Z</time>
      </trkpt>
      <trkpt lat="44.88057" lon="0.34275">
        <ele>33.5</ele>
        <time>2022-04-05T12:09:18Z</time>
      </trkpt>
      <trkpt lat="44.88056" lon="0.34276">
        <ele>33.4</ele>
        <time>2022-04-05T12:09:19Z</time>
      </trkpt>
      <trkpt lat="44.88055" lon="0.34276">
        <ele>33.4</ele>
        <time>2022-04-05T12:09:20Z</time>
      </trkpt>
      <trkpt lat="44.88054" lon="0.34277">
        <ele>33.4</ele>
        <time>2022-04-05T12:09:21Z</time>
      </trkpt>
      <trkpt lat="44.88053" lon="0.34278">
        <ele>33.4</ele>
        <time>2022-04-05T12:09:22Z</time>
      </trkpt>
      <trkpt lat="44.88051" lon="0.3428">
        <ele>33.4</ele>
        <time>2022-04-05T12:09:24Z</time>
      </trkpt>
      <trkpt lat="44.8805" lon="0.34281">
        <ele>33.4</ele>
        <time>2022-04-05T12:09:25Z</time>
      </trkpt>
      <trkpt lat="44.88049" lon="0.34282">
        <ele>33.3</ele>
        <time>2022-04-05T12:09:26Z</time>
      </trkpt>
      <trkpt lat="44.88048" lon="0.34283">
        <ele>33.3</ele>
        <time>2022-04-05T12:09:27Z</time>
      </trkpt>
      <trkpt lat="44.88046" lon="0.34284">
        <ele>33.3</ele>
        <time>2022-04-05T12:09:28Z</time>
      </trkpt>
      <trkpt lat="44.88045" lon="0.34284">
        <ele>33.3</ele>
        <time>2022-04-05T12:09:30Z</time>
      </trkpt>
      <trkpt lat="44.88044" lon="0.34284">
        <ele>33.3</ele>
        <time>2022-04-05T12:09:31Z</time>
      </trkpt>
      <trkpt lat="44.88043" lon="0.34285">
        <ele>33.3</ele>
        <time>2022-04-05T12:09:32Z</time>
      </trkpt>
      <trkpt lat="44.88042" lon="0.34285">
        <ele>33.3</ele>
        <time>2022-04-05T12:09:33Z</time>
      </trkpt>
      <trkpt lat="44.8804" lon="0.34287">
        <ele>33.2</ele>
        <time>2022-04-05T12:09:34Z</time>
      </trkpt>
      <trkpt lat="44.8804" lon="0.34287">
        <ele>33.2</ele>
        <time>2022-04-05T12:09:35Z</time>
      </trkpt>
      <trkpt lat="44.88039" lon="0.34287">
        <ele>33.2</ele>
        <time>2022-04-05T12:09:36Z</time>
      </trkpt>
      <trkpt lat="44.88037" lon="0.34288">
        <ele>33.2</ele>
        <time>2022-04-05T12:09:37Z</time>
      </trkpt>
      <trkpt lat="44.88035" lon="0.34288">
        <ele>33.2</ele>
        <time>2022-04-05T12:09:38Z</time>
      </trkpt>
      <trkpt lat="44.88034" lon="0.34289">
        <ele>33.1</ele>
        <time>2022-04-05T12:09:39Z</time>
      </trkpt>
      <trkpt lat="44.88034" lon="0.34289">
        <ele>33.1</ele>
        <time>2022-04-05T12:09:40Z</time>
      </trkpt>
      <trkpt lat="44.88033" lon="0.34289">
        <ele>33.1</ele>
        <time>2022-04-05T12:09:41Z</time>
      </trkpt>
      <trkpt lat="44.88032" lon="0.34289">
        <ele>33.1</ele>
        <time>2022-04-05T12:09:42Z</time>
      </trkpt>
      <trkpt lat="44.88031" lon="0.3429">
        <ele>33.1</ele>
        <time>2022-04-05T12:09:43Z</time>
      </trkpt>
      <trkpt lat="44.88028" lon="0.34291">
        <ele>33.1</ele>
        <time>2022-04-05T12:09:44Z</time>
      </trkpt>
      <trkpt lat="44.88028" lon="0.34291">
        <ele>33.1</ele>
        <time>2022-04-05T12:09:45Z</time>
      </trkpt>
      <trkpt lat="44.88027" lon="0.34291">
        <ele>33.1</ele>
        <time>2022-04-05T12:09:46Z</time>
      </trkpt>
      <trkpt lat="44.88026" lon="0.34293">
        <ele>33</ele>
        <time>2022-04-05T12:09:47Z</time>
      </trkpt>
      <trkpt lat="44.88024" lon="0.34293">
        <ele>33</ele>
        <time>2022-04-05T12:09:48Z</time>
      </trkpt>
      <trkpt lat="44.88024" lon="0.34294">
        <ele>33</ele>
        <time>2022-04-05T12:09:49Z</time>
      </trkpt>
      <trkpt lat="44.88023" lon="0.34294">
        <ele>33</ele>
        <time>2022-04-05T12:09:50Z</time>
      </trkpt>
      <trkpt lat="44.88022" lon="0.34295">
        <ele>33</ele>
        <time>2022-04-05T12:09:51Z</time>
      </trkpt>
      <trkpt lat="44.88021" lon="0.34296">
        <ele>33</ele>
        <time>2022-04-05T12:09:52Z</time>
      </trkpt>
      <trkpt lat="44.8802" lon="0.34297">
        <ele>33</ele>
        <time>2022-04-05T12:09:53Z</time>
      </trkpt>
      <trkpt lat="44.88018" lon="0.34298">
        <ele>32.9</ele>
        <time>2022-04-05T12:09:54Z</time>
      </trkpt>
      <trkpt lat="44.88017" lon="0.34298">
        <ele>32.9</ele>
        <time>2022-04-05T12:09:55Z</time>
      </trkpt>
      <trkpt lat="44.88016" lon="0.34299">
        <ele>32.9</ele>
        <time>2022-04-05T12:09:56Z</time>
      </trkpt>
      <trkpt lat="44.88015" lon="0.34299">
        <ele>32.9</ele>
        <time>2022-04-05T12:09:57Z</time>
      </trkpt>
      <trkpt lat="44.88014" lon="0.34299">
        <ele>32.9</ele>
        <time>2022-04-05T12:09:58Z</time>
      </trkpt>
      <trkpt lat="44.88012" lon="0.34299">
        <ele>32.9</ele>
        <time>2022-04-05T12:09:59Z</time>
      </trkpt>
      <trkpt lat="44.88011" lon="0.343">
        <ele>32.8</ele>
        <time>2022-04-05T12:10:00Z</time>
      </trkpt>
      <trkpt lat="44.88009" lon="0.343">
        <ele>32.8</ele>
        <time>2022-04-05T12:10:01Z</time>
      </trkpt>
      <trkpt lat="44.88008" lon="0.343">
        <ele>32.8</ele>
        <time>2022-04-05T12:10:03Z</time>
      </trkpt>
      <trkpt lat="44.88005" lon="0.34301">
        <ele>32.8</ele>
        <time>2022-04-05T12:10:04Z</time>
      </trkpt>
      <trkpt lat="44.88004" lon="0.34301">
        <ele>32.8</ele>
        <time>2022-04-05T12:10:05Z</time>
      </trkpt>
      <trkpt lat="44.88003" lon="0.34302">
        <ele>32.8</ele>
        <time>2022-04-05T12:10:06Z</time>
      </trkpt>
      <trkpt lat="44.88002" lon="0.34303">
        <ele>32.7</ele>
        <time>2022-04-05T12:10:07Z</time>
      </trkpt>
      <trkpt lat="44.87999" lon="0.34303">
        <ele>32.7</ele>
        <time>2022-04-05T12:10:09Z</time>
      </trkpt>
      <trkpt lat="44.87998" lon="0.34304">
        <ele>32.7</ele>
        <time>2022-04-05T12:10:10Z</time>
      </trkpt>
      <trkpt lat="44.87997" lon="0.34304">
        <ele>32.7</ele>
        <time>2022-04-05T12:10:11Z</time>
      </trkpt>
      <trkpt lat="44.87996" lon="0.34305">
        <ele>32.7</ele>
        <time>2022-04-05T12:10:12Z</time>
      </trkpt>
      <trkpt lat="44.87993" lon="0.34306">
        <ele>32.6</ele>
        <time>2022-04-05T12:10:13Z</time>
      </trkpt>
      <trkpt lat="44.87992" lon="0.34306">
        <ele>32.6</ele>
        <time>2022-04-05T12:10:15Z</time>
      </trkpt>
      <trkpt lat="44.87991" lon="0.34306">
        <ele>32.6</ele>
        <time>2022-04-05T12:10:16Z</time>
      </trkpt>
      <trkpt lat="44.8799" lon="0.34307">
        <ele>32.6</ele>
        <time>2022-04-05T12:10:17Z</time>
      </trkpt>
      <trkpt lat="44.87989" lon="0.34307">
        <ele>32.6</ele>
        <time>2022-04-05T12:10:18Z</time>
      </trkpt>
      <trkpt lat="44.87987" lon="0.34307">
        <ele>32.5</ele>
        <time>2022-04-05T12:10:19Z</time>
      </trkpt>
      <trkpt lat="44.87986" lon="0.34307">
        <ele>32.5</ele>
        <time>2022-04-05T12:10:20Z</time>
      </trkpt>
      <trkpt lat="44.87984" lon="0.34307">
        <ele>32.5</ele>
        <time>2022-04-05T12:10:21Z</time>
      </trkpt>
      <trkpt lat="44.87983" lon="0.34307">
        <ele>32.5</ele>
        <time>2022-04-05T12:10:22Z</time>
      </trkpt>
      <trkpt lat="44.87982" lon="0.34307">
        <ele>32.5</ele>
        <time>2022-04-05T12:10:23Z</time>
      </trkpt>
      <trkpt lat="44.8798" lon="0.34308">
        <ele>32.4</ele>
        <time>2022-04-05T12:10:25Z</time>
      </trkpt>
      <trkpt lat="44.87979" lon="0.34309">
        <ele>32.4</ele>
        <time>2022-04-05T12:10:26Z</time>
      </trkpt>
      <trkpt lat="44.87978" lon="0.34309">
        <ele>32.4</ele>
        <time>2022-04-05T12:10:27Z</time>
      </trkpt>
      <trkpt lat="44.87976" lon="0.34309">
        <ele>32.4</ele>
        <time>2022-04-05T12:10:28Z</time>
      </trkpt>
      <trkpt lat="44.87974" lon="0.3431">
        <ele>32.3</ele>
        <time>2022-04-05T12:10:29Z</time>
      </trkpt>
      <trkpt lat="44.87974" lon="0.34309">
        <ele>32.3</ele>
        <time>2022-04-05T12:10:30Z</time>
      </trkpt>
      <trkpt lat="44.87973" lon="0.34309">
        <ele>32.3</ele>
        <time>2022-04-05T12:10:31Z</time>
      </trkpt>
      <trkpt lat="44.87971" lon="0.34309">
        <ele>32.3</ele>
        <time>2022-04-05T12:10:32Z</time>
      </trkpt>
      <trkpt lat="44.8797" lon="0.34309">
        <ele>32.3</ele>
        <time>2022-04-05T12:10:33Z</time>
      </trkpt>
      <trkpt lat="44.87967" lon="0.3431">
        <ele>32.3</ele>
        <time>2022-04-05T12:10:34Z</time>
      </trkpt>
      <trkpt lat="44.87967" lon="0.34309">
        <ele>32.3</ele>
        <time>2022-04-05T12:10:35Z</time>
      </trkpt>
      <trkpt lat="44.87965" lon="0.34309">
        <ele>32.2</ele>
        <time>2022-04-05T12:10:36Z</time>
      </trkpt>
      <trkpt lat="44.87964" lon="0.34309">
        <ele>32.2</ele>
        <time>2022-04-05T12:10:37Z</time>
      </trkpt>
      <trkpt lat="44.87963" lon="0.3431">
        <ele>32.2</ele>
        <time>2022-04-05T12:10:38Z</time>
      </trkpt>
      <trkpt lat="44.87961" lon="0.3431">
        <ele>32.2</ele>
        <time>2022-04-05T12:10:39Z</time>
      </trkpt>
      <trkpt lat="44.8796" lon="0.3431">
        <ele>32.2</ele>
        <time>2022-04-05T12:10:40Z</time>
      </trkpt>
      <trkpt lat="44.87959" lon="0.34311">
        <ele>32.2</ele>
        <time>2022-04-05T12:10:41Z</time>
      </trkpt>
      <trkpt lat="44.87958" lon="0.34311">
        <ele>32.2</ele>
        <time>2022-04-05T12:10:42Z</time>
      </trkpt>
      <trkpt lat="44.87957" lon="0.34311">
        <ele>32.1</ele>
        <time>2022-04-05T12:10:43Z</time>
      </trkpt>
      <trkpt lat="44.87954" lon="0.34312">
        <ele>32.1</ele>
        <time>2022-04-05T12:10:44Z</time>
      </trkpt>
      <trkpt lat="44.87952" lon="0.34313">
        <ele>32.1</ele>
        <time>2022-04-05T12:10:46Z</time>
      </trkpt>
      <trkpt lat="44.87951" lon="0.34313">
        <ele>32.1</ele>
        <time>2022-04-05T12:10:47Z</time>
      </trkpt>
      <trkpt lat="44.8795" lon="0.34313">
        <ele>32.1</ele>
        <time>2022-04-05T12:10:48Z</time>
      </trkpt>
      <trkpt lat="44.87949" lon="0.34313">
        <ele>32.1</ele>
        <time>2022-04-05T12:10:49Z</time>
      </trkpt>
      <trkpt lat="44.87948" lon="0.34314">
        <ele>32</ele>
        <time>2022-04-05T12:10:50Z</time>
      </trkpt>
      <trkpt lat="44.87947" lon="0.34314">
        <ele>32</ele>
        <time>2022-04-05T12:10:51Z</time>
      </trkpt>
      <trkpt lat="44.87946" lon="0.34315">
        <ele>32</ele>
        <time>2022-04-05T12:10:52Z</time>
      </trkpt>
      <trkpt lat="44.87942" lon="0.34316">
        <ele>32</ele>
        <time>2022-04-05T12:10:54Z</time>
      </trkpt>
      <trkpt lat="44.8794" lon="0.34316">
        <ele>31.9</ele>
        <time>2022-04-05T12:10:56Z</time>
      </trkpt>
      <trkpt lat="44.87938" lon="0.34316">
        <ele>31.9</ele>
        <time>2022-04-05T12:10:58Z</time>
      </trkpt>
      <trkpt lat="44.87936" lon="0.34316">
        <ele>31.9</ele>
        <time>2022-04-05T12:10:59Z</time>
      </trkpt>
      <trkpt lat="44.87935" lon="0.34316">
        <ele>31.9</ele>
        <time>2022-04-05T12:11:01Z</time>
      </trkpt>
      <trkpt lat="44.87933" lon="0.34316">
        <ele>31.8</ele>
        <time>2022-04-05T12:11:02Z</time>
      </trkpt>
      <trkpt lat="44.87932" lon="0.34316">
        <ele>31.8</ele>
        <time>2022-04-05T12:11:03Z</time>
      </trkpt>
      <trkpt lat="44.87929" lon="0.34317">
        <ele>31.8</ele>
        <time>2022-04-05T12:11:05Z</time>
      </trkpt>
      <trkpt lat="44.87928" lon="0.34317">
        <ele>31.8</ele>
        <time>2022-04-05T12:11:06Z</time>
      </trkpt>
      <trkpt lat="44.87927" lon="0.34318">
        <ele>31.7</ele>
        <time>2022-04-05T12:11:07Z</time>
      </trkpt>
      <trkpt lat="44.87926" lon="0.34319">
        <ele>31.7</ele>
        <time>2022-04-05T12:11:08Z</time>
      </trkpt>
      <trkpt lat="44.87924" lon="0.34319">
        <ele>31.7</ele>
        <time>2022-04-05T12:11:09Z</time>
      </trkpt>
      <trkpt lat="44.87922" lon="0.34319">
        <ele>31.7</ele>
        <time>2022-04-05T12:11:10Z</time>
      </trkpt>
      <trkpt lat="44.87922" lon="0.34319">
        <ele>31.7</ele>
        <time>2022-04-05T12:11:11Z</time>
      </trkpt>
      <trkpt lat="44.8792" lon="0.34319">
        <ele>31.7</ele>
        <time>2022-04-05T12:11:12Z</time>
      </trkpt>
      <trkpt lat="44.87919" lon="0.3432">
        <ele>31.7</ele>
        <time>2022-04-05T12:11:13Z</time>
      </trkpt>
      <trkpt lat="44.87917" lon="0.34321">
        <ele>31.7</ele>
        <time>2022-04-05T12:11:14Z</time>
      </trkpt>
      <trkpt lat="44.87917" lon="0.34321">
        <ele>31.7</ele>
        <time>2022-04-05T12:11:15Z</time>
      </trkpt>
      <trkpt lat="44.87916" lon="0.34321">
        <ele>31.7</ele>
        <time>2022-04-05T12:11:16Z</time>
      </trkpt>
      <trkpt lat="44.87917" lon="0.34321">
        <ele>31.6</ele>
        <time>2022-04-05T12:11:17Z</time>
      </trkpt>
      <trkpt lat="44.87917" lon="0.3432">
        <ele>31.6</ele>
        <time>2022-04-05T12:11:18Z</time>
      </trkpt>
      <trkpt lat="44.87917" lon="0.3432">
        <ele>31.6</ele>
        <time>2022-04-05T12:11:19Z</time>
      </trkpt>
      <trkpt lat="44.87917" lon="0.3432">
        <ele>31.6</ele>
        <time>2022-04-05T12:11:20Z</time>
      </trkpt>
      <trkpt lat="44.87917" lon="0.3432">
        <ele>31.6</ele>
        <time>2022-04-05T12:11:21Z</time>
      </trkpt>
      <trkpt lat="44.87918" lon="0.34319">
        <ele>31.6</ele>
        <time>2022-04-05T12:11:22Z</time>
      </trkpt>
      <trkpt lat="44.87918" lon="0.34319">
        <ele>31.6</ele>
        <time>2022-04-05T12:11:23Z</time>
      </trkpt>
      <trkpt lat="44.87918" lon="0.34319">
        <ele>31.6</ele>
        <time>2022-04-05T12:11:25Z</time>
      </trkpt>
      <trkpt lat="44.87918" lon="0.34319">
        <ele>31.6</ele>
        <time>2022-04-05T12:11:26Z</time>
      </trkpt>
      <trkpt lat="44.87918" lon="0.34318">
        <ele>31.6</ele>
        <time>2022-04-05T12:11:27Z</time>
      </trkpt>
      <trkpt lat="44.87918" lon="0.34318">
        <ele>31.6</ele>
        <time>2022-04-05T12:11:28Z</time>
      </trkpt>
      <trkpt lat="44.87918" lon="0.34318">
        <ele>31.6</ele>
        <time>2022-04-05T12:11:29Z</time>
      </trkpt>
      <trkpt lat="44.87917" lon="0.34318">
        <ele>31.6</ele>
        <time>2022-04-05T12:11:31Z</time>
      </trkpt>
      <trkpt lat="44.87917" lon="0.34318">
        <ele>31.6</ele>
        <time>2022-04-05T12:11:32Z</time>
      </trkpt>
      <trkpt lat="44.87916" lon="0.34318">
        <ele>31.6</ele>
        <time>2022-04-05T12:11:33Z</time>
      </trkpt>
      <trkpt lat="44.87915" lon="0.34319">
        <ele>31.6</ele>
        <time>2022-04-05T12:11:34Z</time>
      </trkpt>
      <trkpt lat="44.87913" lon="0.34319">
        <ele>31.6</ele>
        <time>2022-04-05T12:11:35Z</time>
      </trkpt>
      <trkpt lat="44.87912" lon="0.3432">
        <ele>31.6</ele>
        <time>2022-04-05T12:11:36Z</time>
      </trkpt>
      <trkpt lat="44.87911" lon="0.34319">
        <ele>31.6</ele>
        <time>2022-04-05T12:11:37Z</time>
      </trkpt>
      <trkpt lat="44.87909" lon="0.34319">
        <ele>31.5</ele>
        <time>2022-04-05T12:11:38Z</time>
      </trkpt>
      <trkpt lat="44.87908" lon="0.34319">
        <ele>31.5</ele>
        <time>2022-04-05T12:11:40Z</time>
      </trkpt>
      <trkpt lat="44.87907" lon="0.34319">
        <ele>31.5</ele>
        <time>2022-04-05T12:11:41Z</time>
      </trkpt>
      <trkpt lat="44.87906" lon="0.34319">
        <ele>31.4</ele>
        <time>2022-04-05T12:11:42Z</time>
      </trkpt>
      <trkpt lat="44.87904" lon="0.34319">
        <ele>31.4</ele>
        <time>2022-04-05T12:11:43Z</time>
      </trkpt>
      <trkpt lat="44.87902" lon="0.3432">
        <ele>31.4</ele>
        <time>2022-04-05T12:11:44Z</time>
      </trkpt>
      <trkpt lat="44.87901" lon="0.34319">
        <ele>31.3</ele>
        <time>2022-04-05T12:11:45Z</time>
      </trkpt>
      <trkpt lat="44.87899" lon="0.34319">
        <ele>31.3</ele>
        <time>2022-04-05T12:11:47Z</time>
      </trkpt>
      <trkpt lat="44.87898" lon="0.3432">
        <ele>31.3</ele>
        <time>2022-04-05T12:11:48Z</time>
      </trkpt>
      <trkpt lat="44.87895" lon="0.3432">
        <ele>31.2</ele>
        <time>2022-04-05T12:11:49Z</time>
      </trkpt>
      <trkpt lat="44.87895" lon="0.3432">
        <ele>31.2</ele>
        <time>2022-04-05T12:11:50Z</time>
      </trkpt>
      <trkpt lat="44.87892" lon="0.34319">
        <ele>31.1</ele>
        <time>2022-04-05T12:11:51Z</time>
      </trkpt>
      <trkpt lat="44.87891" lon="0.34318">
        <ele>31.1</ele>
        <time>2022-04-05T12:11:53Z</time>
      </trkpt>
      <trkpt lat="44.8789" lon="0.34318">
        <ele>31.1</ele>
        <time>2022-04-05T12:11:54Z</time>
      </trkpt>
      <trkpt lat="44.87889" lon="0.34317">
        <ele>31</ele>
        <time>2022-04-05T12:11:55Z</time>
      </trkpt>
      <trkpt lat="44.87887" lon="0.34317">
        <ele>31</ele>
        <time>2022-04-05T12:11:56Z</time>
      </trkpt>
      <trkpt lat="44.87886" lon="0.34317">
        <ele>31</ele>
        <time>2022-04-05T12:11:57Z</time>
      </trkpt>
      <trkpt lat="44.87884" lon="0.34316">
        <ele>30.9</ele>
        <time>2022-04-05T12:11:58Z</time>
      </trkpt>
      <trkpt lat="44.87882" lon="0.34316">
        <ele>30.9</ele>
        <time>2022-04-05T12:11:59Z</time>
      </trkpt>
      <trkpt lat="44.87881" lon="0.34316">
        <ele>30.9</ele>
        <time>2022-04-05T12:12:01Z</time>
      </trkpt>
      <trkpt lat="44.8788" lon="0.34315">
        <ele>30.8</ele>
        <time>2022-04-05T12:12:02Z</time>
      </trkpt>
      <trkpt lat="44.87878" lon="0.34315">
        <ele>30.8</ele>
        <time>2022-04-05T12:12:03Z</time>
      </trkpt>
      <trkpt lat="44.87877" lon="0.34315">
        <ele>30.8</ele>
        <time>2022-04-05T12:12:04Z</time>
      </trkpt>
      <trkpt lat="44.87875" lon="0.34314">
        <ele>30.7</ele>
        <time>2022-04-05T12:12:05Z</time>
      </trkpt>
      <trkpt lat="44.87873" lon="0.34314">
        <ele>30.7</ele>
        <time>2022-04-05T12:12:06Z</time>
      </trkpt>
      <trkpt lat="44.87873" lon="0.34313">
        <ele>30.7</ele>
        <time>2022-04-05T12:12:07Z</time>
      </trkpt>
      <trkpt lat="44.87872" lon="0.34313">
        <ele>30.6</ele>
        <time>2022-04-05T12:12:08Z</time>
      </trkpt>
      <trkpt lat="44.87869" lon="0.34312">
        <ele>30.6</ele>
        <time>2022-04-05T12:12:09Z</time>
      </trkpt>
      <trkpt lat="44.87868" lon="0.34311">
        <ele>30.5</ele>
        <time>2022-04-05T12:12:11Z</time>
      </trkpt>
      <trkpt lat="44.87867" lon="0.34311">
        <ele>30.5</ele>
        <time>2022-04-05T12:12:12Z</time>
      </trkpt>
      <trkpt lat="44.87866" lon="0.3431">
        <ele>30.5</ele>
        <time>2022-04-05T12:12:13Z</time>
      </trkpt>
      <trkpt lat="44.87865" lon="0.3431">
        <ele>30.5</ele>
        <time>2022-04-05T12:12:14Z</time>
      </trkpt>
      <trkpt lat="44.87863" lon="0.34308">
        <ele>30.4</ele>
        <time>2022-04-05T12:12:15Z</time>
      </trkpt>
      <trkpt lat="44.87862" lon="0.34308">
        <ele>30.4</ele>
        <time>2022-04-05T12:12:16Z</time>
      </trkpt>
      <trkpt lat="44.87862" lon="0.34307">
        <ele>30.4</ele>
        <time>2022-04-05T12:12:17Z</time>
      </trkpt>
      <trkpt lat="44.8786" lon="0.34307">
        <ele>30.3</ele>
        <time>2022-04-05T12:12:18Z</time>
      </trkpt>
      <trkpt lat="44.87858" lon="0.34306">
        <ele>30.3</ele>
        <time>2022-04-05T12:12:20Z</time>
      </trkpt>
      <trkpt lat="44.87857" lon="0.34306">
        <ele>30.2</ele>
        <time>2022-04-05T12:12:21Z</time>
      </trkpt>
      <trkpt lat="44.87856" lon="0.34305">
        <ele>30.2</ele>
        <time>2022-04-05T12:12:22Z</time>
      </trkpt>
      <trkpt lat="44.87855" lon="0.34304">
        <ele>30.2</ele>
        <time>2022-04-05T12:12:23Z</time>
      </trkpt>
      <trkpt lat="44.87854" lon="0.34303">
        <ele>30.2</ele>
        <time>2022-04-05T12:12:24Z</time>
      </trkpt>
      <trkpt lat="44.87852" lon="0.34302">
        <ele>30.1</ele>
        <time>2022-04-05T12:12:25Z</time>
      </trkpt>
      <trkpt lat="44.87851" lon="0.34302">
        <ele>30.1</ele>
        <time>2022-04-05T12:12:26Z</time>
      </trkpt>
      <trkpt lat="44.8785" lon="0.34301">
        <ele>30.1</ele>
        <time>2022-04-05T12:12:27Z</time>
      </trkpt>
      <trkpt lat="44.87849" lon="0.34301">
        <ele>30</ele>
        <time>2022-04-05T12:12:28Z</time>
      </trkpt>
      <trkpt lat="44.87848" lon="0.343">
        <ele>30</ele>
        <time>2022-04-05T12:12:29Z</time>
      </trkpt>
      <trkpt lat="44.87846" lon="0.343">
        <ele>29.9</ele>
        <time>2022-04-05T12:12:30Z</time>
      </trkpt>
      <trkpt lat="44.87845" lon="0.34299">
        <ele>29.9</ele>
        <time>2022-04-05T12:12:31Z</time>
      </trkpt>
      <trkpt lat="44.87844" lon="0.34299">
        <ele>29.9</ele>
        <time>2022-04-05T12:12:32Z</time>
      </trkpt>
      <trkpt lat="44.87843" lon="0.34299">
        <ele>29.8</ele>
        <time>2022-04-05T12:12:33Z</time>
      </trkpt>
      <trkpt lat="44.8784" lon="0.34298">
        <ele>29.8</ele>
        <time>2022-04-05T12:12:35Z</time>
      </trkpt>
      <trkpt lat="44.87839" lon="0.34297">
        <ele>29.7</ele>
        <time>2022-04-05T12:12:36Z</time>
      </trkpt>
      <trkpt lat="44.87838" lon="0.34297">
        <ele>29.7</ele>
        <time>2022-04-05T12:12:37Z</time>
      </trkpt>
      <trkpt lat="44.87837" lon="0.34296">
        <ele>29.7</ele>
        <time>2022-04-05T12:12:38Z</time>
      </trkpt>
      <trkpt lat="44.87836" lon="0.34295">
        <ele>29.6</ele>
        <time>2022-04-05T12:12:39Z</time>
      </trkpt>
      <trkpt lat="44.87834" lon="0.34294">
        <ele>29.6</ele>
        <time>2022-04-05T12:12:40Z</time>
      </trkpt>
      <trkpt lat="44.87833" lon="0.34293">
        <ele>29.6</ele>
        <time>2022-04-05T12:12:41Z</time>
      </trkpt>
      <trkpt lat="44.87832" lon="0.34292">
        <ele>29.6</ele>
        <time>2022-04-05T12:12:42Z</time>
      </trkpt>
      <trkpt lat="44.87831" lon="0.34292">
        <ele>29.5</ele>
        <time>2022-04-05T12:12:43Z</time>
      </trkpt>
      <trkpt lat="44.8783" lon="0.34291">
        <ele>29.5</ele>
        <time>2022-04-05T12:12:44Z</time>
      </trkpt>
      <trkpt lat="44.87828" lon="0.34291">
        <ele>29.5</ele>
        <time>2022-04-05T12:12:45Z</time>
      </trkpt>
      <trkpt lat="44.87826" lon="0.34289">
        <ele>29.4</ele>
        <time>2022-04-05T12:12:46Z</time>
      </trkpt>
      <trkpt lat="44.87826" lon="0.34289">
        <ele>29.4</ele>
        <time>2022-04-05T12:12:47Z</time>
      </trkpt>
      <trkpt lat="44.87825" lon="0.34288">
        <ele>29.4</ele>
        <time>2022-04-05T12:12:48Z</time>
      </trkpt>
      <trkpt lat="44.87822" lon="0.34287">
        <ele>29.4</ele>
        <time>2022-04-05T12:12:49Z</time>
      </trkpt>
      <trkpt lat="44.87821" lon="0.34287">
        <ele>29.3</ele>
        <time>2022-04-05T12:12:50Z</time>
      </trkpt>
      <trkpt lat="44.8782" lon="0.34286">
        <ele>29.3</ele>
        <time>2022-04-05T12:12:51Z</time>
      </trkpt>
      <trkpt lat="44.8782" lon="0.34285">
        <ele>29.3</ele>
        <time>2022-04-05T12:12:52Z</time>
      </trkpt>
      <trkpt lat="44.87818" lon="0.34285">
        <ele>29.3</ele>
        <time>2022-04-05T12:12:53Z</time>
      </trkpt>
      <trkpt lat="44.87816" lon="0.34284">
        <ele>29.2</ele>
        <time>2022-04-05T12:12:54Z</time>
      </trkpt>
      <trkpt lat="44.87815" lon="0.34284">
        <ele>29.2</ele>
        <time>2022-04-05T12:12:55Z</time>
      </trkpt>
      <trkpt lat="44.87814" lon="0.34283">
        <ele>29.2</ele>
        <time>2022-04-05T12:12:56Z</time>
      </trkpt>
      <trkpt lat="44.87813" lon="0.34282">
        <ele>29.2</ele>
        <time>2022-04-05T12:12:57Z</time>
      </trkpt>
      <trkpt lat="44.87812" lon="0.34281">
        <ele>29.2</ele>
        <time>2022-04-05T12:12:58Z</time>
      </trkpt>
      <trkpt lat="44.8781" lon="0.3428">
        <ele>29.2</ele>
        <time>2022-04-05T12:12:59Z</time>
      </trkpt>
      <trkpt lat="44.87809" lon="0.34279">
        <ele>29.1</ele>
        <time>2022-04-05T12:13:00Z</time>
      </trkpt>
      <trkpt lat="44.87808" lon="0.34279">
        <ele>29.1</ele>
        <time>2022-04-05T12:13:01Z</time>
      </trkpt>
      <trkpt lat="44.87807" lon="0.34278">
        <ele>29.1</ele>
        <time>2022-04-05T12:13:02Z</time>
      </trkpt>
      <trkpt lat="44.87806" lon="0.34278">
        <ele>29.1</ele>
        <time>2022-04-05T12:13:03Z</time>
      </trkpt>
      <trkpt lat="44.87805" lon="0.34277">
        <ele>29.1</ele>
        <time>2022-04-05T12:13:04Z</time>
      </trkpt>
      <trkpt lat="44.87803" lon="0.34277">
        <ele>29.1</ele>
        <time>2022-04-05T12:13:05Z</time>
      </trkpt>
      <trkpt lat="44.87801" lon="0.34276">
        <ele>29.1</ele>
        <time>2022-04-05T12:13:06Z</time>
      </trkpt>
      <trkpt lat="44.878" lon="0.34276">
        <ele>29.1</ele>
        <time>2022-04-05T12:13:08Z</time>
      </trkpt>
      <trkpt lat="44.87799" lon="0.34275">
        <ele>29.1</ele>
        <time>2022-04-05T12:13:09Z</time>
      </trkpt>
      <trkpt lat="44.87797" lon="0.34274">
        <ele>29</ele>
        <time>2022-04-05T12:13:10Z</time>
      </trkpt>
      <trkpt lat="44.87796" lon="0.34273">
        <ele>29</ele>
        <time>2022-04-05T12:13:11Z</time>
      </trkpt>
      <trkpt lat="44.87795" lon="0.34273">
        <ele>29</ele>
        <time>2022-04-05T12:13:12Z</time>
      </trkpt>
      <trkpt lat="44.87795" lon="0.34272">
        <ele>29</ele>
        <time>2022-04-05T12:13:13Z</time>
      </trkpt>
      <trkpt lat="44.87793" lon="0.34271">
        <ele>29</ele>
        <time>2022-04-05T12:13:14Z</time>
      </trkpt>
      <trkpt lat="44.87791" lon="0.34271">
        <ele>29</ele>
        <time>2022-04-05T12:13:15Z</time>
      </trkpt>
      <trkpt lat="44.87791" lon="0.3427">
        <ele>29</ele>
        <time>2022-04-05T12:13:16Z</time>
      </trkpt>
      <trkpt lat="44.87788" lon="0.3427">
        <ele>29</ele>
        <time>2022-04-05T12:13:17Z</time>
      </trkpt>
      <trkpt lat="44.87788" lon="0.34269">
        <ele>29</ele>
        <time>2022-04-05T12:13:18Z</time>
      </trkpt>
      <trkpt lat="44.87787" lon="0.34269">
        <ele>29</ele>
        <time>2022-04-05T12:13:19Z</time>
      </trkpt>
      <trkpt lat="44.87785" lon="0.34269">
        <ele>28.9</ele>
        <time>2022-04-05T12:13:20Z</time>
      </trkpt>
      <trkpt lat="44.87784" lon="0.34269">
        <ele>28.9</ele>
        <time>2022-04-05T12:13:21Z</time>
      </trkpt>
      <trkpt lat="44.87783" lon="0.34268">
        <ele>28.9</ele>
        <time>2022-04-05T12:13:22Z</time>
      </trkpt>
      <trkpt lat="44.87782" lon="0.34268">
        <ele>28.9</ele>
        <time>2022-04-05T12:13:23Z</time>
      </trkpt>
      <trkpt lat="44.8778" lon="0.34268">
        <ele>28.9</ele>
        <time>2022-04-05T12:13:24Z</time>
      </trkpt>
      <trkpt lat="44.87778" lon="0.34267">
        <ele>28.9</ele>
        <time>2022-04-05T12:13:25Z</time>
      </trkpt>
      <trkpt lat="44.87777" lon="0.34267">
        <ele>28.9</ele>
        <time>2022-04-05T12:13:26Z</time>
      </trkpt>
      <trkpt lat="44.87777" lon="0.34266">
        <ele>28.9</ele>
        <time>2022-04-05T12:13:27Z</time>
      </trkpt>
      <trkpt lat="44.87775" lon="0.34266">
        <ele>28.9</ele>
        <time>2022-04-05T12:13:28Z</time>
      </trkpt>
      <trkpt lat="44.87774" lon="0.34266">
        <ele>28.9</ele>
        <time>2022-04-05T12:13:29Z</time>
      </trkpt>
      <trkpt lat="44.87772" lon="0.34265">
        <ele>28.9</ele>
        <time>2022-04-05T12:13:31Z</time>
      </trkpt>
      <trkpt lat="44.8777" lon="0.34264">
        <ele>28.8</ele>
        <time>2022-04-05T12:13:32Z</time>
      </trkpt>
      <trkpt lat="44.87769" lon="0.34264">
        <ele>28.8</ele>
        <time>2022-04-05T12:13:33Z</time>
      </trkpt>
      <trkpt lat="44.87768" lon="0.34264">
        <ele>28.8</ele>
        <time>2022-04-05T12:13:34Z</time>
      </trkpt>
      <trkpt lat="44.87765" lon="0.34264">
        <ele>28.8</ele>
        <time>2022-04-05T12:13:35Z</time>
      </trkpt>
      <trkpt lat="44.87765" lon="0.34263">
        <ele>28.8</ele>
        <time>2022-04-05T12:13:36Z</time>
      </trkpt>
      <trkpt lat="44.87763" lon="0.34263">
        <ele>28.8</ele>
        <time>2022-04-05T12:13:37Z</time>
      </trkpt>
      <trkpt lat="44.87762" lon="0.34263">
        <ele>28.8</ele>
        <time>2022-04-05T12:13:38Z</time>
      </trkpt>
      <trkpt lat="44.87761" lon="0.34263">
        <ele>28.8</ele>
        <time>2022-04-05T12:13:39Z</time>
      </trkpt>
      <trkpt lat="44.87758" lon="0.34262">
        <ele>28.8</ele>
        <time>2022-04-05T12:13:40Z</time>
      </trkpt>
      <trkpt lat="44.87757" lon="0.34262">
        <ele>28.7</ele>
        <time>2022-04-05T12:13:42Z</time>
      </trkpt>
      <trkpt lat="44.87756" lon="0.34262">
        <ele>28.7</ele>
        <time>2022-04-05T12:13:43Z</time>
      </trkpt>
      <trkpt lat="44.87755" lon="0.34262">
        <ele>28.7</ele>
        <time>2022-04-05T12:13:44Z</time>
      </trkpt>
      <trkpt lat="44.87753" lon="0.34262">
        <ele>28.7</ele>
        <time>2022-04-05T12:13:45Z</time>
      </trkpt>
      <trkpt lat="44.87752" lon="0.34262">
        <ele>28.7</ele>
        <time>2022-04-05T12:13:46Z</time>
      </trkpt>
      <trkpt lat="44.87751" lon="0.34263">
        <ele>28.7</ele>
        <time>2022-04-05T12:13:47Z</time>
      </trkpt>
      <trkpt lat="44.8775" lon="0.34263">
        <ele>28.7</ele>
        <time>2022-04-05T12:13:48Z</time>
      </trkpt>
      <trkpt lat="44.87749" lon="0.34263">
        <ele>28.7</ele>
        <time>2022-04-05T12:13:49Z</time>
      </trkpt>
      <trkpt lat="44.87747" lon="0.34263">
        <ele>28.7</ele>
        <time>2022-04-05T12:13:50Z</time>
      </trkpt>
      <trkpt lat="44.87745" lon="0.34263">
        <ele>28.7</ele>
        <time>2022-04-05T12:13:51Z</time>
      </trkpt>
      <trkpt lat="44.87744" lon="0.34264">
        <ele>28.7</ele>
        <time>2022-04-05T12:13:52Z</time>
      </trkpt>
      <trkpt lat="44.87744" lon="0.34264">
        <ele>28.6</ele>
        <time>2022-04-05T12:13:53Z</time>
      </trkpt>
      <trkpt lat="44.87742" lon="0.34264">
        <ele>28.6</ele>
        <time>2022-04-05T12:13:54Z</time>
      </trkpt>
      <trkpt lat="44.87741" lon="0.34265">
        <ele>28.6</ele>
        <time>2022-04-05T12:13:55Z</time>
      </trkpt>
      <trkpt lat="44.8774" lon="0.34265">
        <ele>28.6</ele>
        <time>2022-04-05T12:13:56Z</time>
      </trkpt>
      <trkpt lat="44.87739" lon="0.34266">
        <ele>28.6</ele>
        <time>2022-04-05T12:13:57Z</time>
      </trkpt>
      <trkpt lat="44.87738" lon="0.34267">
        <ele>28.6</ele>
        <time>2022-04-05T12:13:58Z</time>
      </trkpt>
      <trkpt lat="44.87736" lon="0.34268">
        <ele>28.6</ele>
        <time>2022-04-05T12:13:59Z</time>
      </trkpt>
      <trkpt lat="44.87735" lon="0.3427">
        <ele>28.6</ele>
        <time>2022-04-05T12:14:00Z</time>
      </trkpt>
      <trkpt lat="44.87733" lon="0.34272">
        <ele>28.6</ele>
        <time>2022-04-05T12:14:01Z</time>
      </trkpt>
      <trkpt lat="44.87732" lon="0.34273">
        <ele>28.6</ele>
        <time>2022-04-05T12:14:03Z</time>
      </trkpt>
      <trkpt lat="44.87731" lon="0.34274">
        <ele>28.5</ele>
        <time>2022-04-05T12:14:04Z</time>
      </trkpt>
      <trkpt lat="44.87729" lon="0.34274">
        <ele>28.5</ele>
        <time>2022-04-05T12:14:05Z</time>
      </trkpt>
      <trkpt lat="44.87728" lon="0.34275">
        <ele>28.5</ele>
        <time>2022-04-05T12:14:06Z</time>
      </trkpt>
      <trkpt lat="44.87727" lon="0.34275">
        <ele>28.5</ele>
        <time>2022-04-05T12:14:07Z</time>
      </trkpt>
      <trkpt lat="44.87725" lon="0.34276">
        <ele>28.5</ele>
        <time>2022-04-05T12:14:09Z</time>
      </trkpt>
      <trkpt lat="44.87723" lon="0.34278">
        <ele>28.5</ele>
        <time>2022-04-05T12:14:10Z</time>
      </trkpt>
      <trkpt lat="44.87723" lon="0.34278">
        <ele>28.5</ele>
        <time>2022-04-05T12:14:11Z</time>
      </trkpt>
      <trkpt lat="44.87721" lon="0.3428">
        <ele>28.5</ele>
        <time>2022-04-05T12:14:12Z</time>
      </trkpt>
      <trkpt lat="44.8772" lon="0.3428">
        <ele>28.4</ele>
        <time>2022-04-05T12:14:13Z</time>
      </trkpt>
      <trkpt lat="44.87719" lon="0.34281">
        <ele>28.4</ele>
        <time>2022-04-05T12:14:14Z</time>
      </trkpt>
      <trkpt lat="44.87717" lon="0.34283">
        <ele>28.4</ele>
        <time>2022-04-05T12:14:15Z</time>
      </trkpt>
      <trkpt lat="44.87716" lon="0.34283">
        <ele>28.4</ele>
        <time>2022-04-05T12:14:16Z</time>
      </trkpt>
      <trkpt lat="44.87716" lon="0.34284">
        <ele>28.4</ele>
        <time>2022-04-05T12:14:17Z</time>
      </trkpt>
      <trkpt lat="44.87715" lon="0.34285">
        <ele>28.4</ele>
        <time>2022-04-05T12:14:18Z</time>
      </trkpt>
      <trkpt lat="44.87713" lon="0.34285">
        <ele>28.4</ele>
        <time>2022-04-05T12:14:19Z</time>
      </trkpt>
      <trkpt lat="44.87712" lon="0.34286">
        <ele>28.4</ele>
        <time>2022-04-05T12:14:21Z</time>
      </trkpt>
      <trkpt lat="44.8771" lon="0.34287">
        <ele>28.4</ele>
        <time>2022-04-05T12:14:22Z</time>
      </trkpt>
      <trkpt lat="44.87709" lon="0.34288">
        <ele>28.3</ele>
        <time>2022-04-05T12:14:23Z</time>
      </trkpt>
      <trkpt lat="44.87708" lon="0.34288">
        <ele>28.3</ele>
        <time>2022-04-05T12:14:24Z</time>
      </trkpt>
      <trkpt lat="44.87705" lon="0.3429">
        <ele>28.3</ele>
        <time>2022-04-05T12:14:25Z</time>
      </trkpt>
      <trkpt lat="44.87705" lon="0.3429">
        <ele>28.3</ele>
        <time>2022-04-05T12:14:26Z</time>
      </trkpt>
      <trkpt lat="44.87704" lon="0.34291">
        <ele>28.3</ele>
        <time>2022-04-05T12:14:27Z</time>
      </trkpt>
      <trkpt lat="44.87703" lon="0.34292">
        <ele>28.3</ele>
        <time>2022-04-05T12:14:28Z</time>
      </trkpt>
      <trkpt lat="44.877" lon="0.34293">
        <ele>28.3</ele>
        <time>2022-04-05T12:14:29Z</time>
      </trkpt>
      <trkpt lat="44.87699" lon="0.34294">
        <ele>28.2</ele>
        <time>2022-04-05T12:14:30Z</time>
      </trkpt>
      <trkpt lat="44.87698" lon="0.34294">
        <ele>28.2</ele>
        <time>2022-04-05T12:14:31Z</time>
      </trkpt>
      <trkpt lat="44.87696" lon="0.34295">
        <ele>28.2</ele>
        <time>2022-04-05T12:14:33Z</time>
      </trkpt>
      <trkpt lat="44.87695" lon="0.34295">
        <ele>28.2</ele>
        <time>2022-04-05T12:14:34Z</time>
      </trkpt>
      <trkpt lat="44.87693" lon="0.34297">
        <ele>28.2</ele>
        <time>2022-04-05T12:14:35Z</time>
      </trkpt>
      <trkpt lat="44.87692" lon="0.34297">
        <ele>28.2</ele>
        <time>2022-04-05T12:14:36Z</time>
      </trkpt>
      <trkpt lat="44.8769" lon="0.34297">
        <ele>28.2</ele>
        <time>2022-04-05T12:14:37Z</time>
      </trkpt>
      <trkpt lat="44.87689" lon="0.34297">
        <ele>28.2</ele>
        <time>2022-04-05T12:14:38Z</time>
      </trkpt>
      <trkpt lat="44.87688" lon="0.34297">
        <ele>28.1</ele>
        <time>2022-04-05T12:14:39Z</time>
      </trkpt>
      <trkpt lat="44.87686" lon="0.34298">
        <ele>28.1</ele>
        <time>2022-04-05T12:14:40Z</time>
      </trkpt>
      <trkpt lat="44.87686" lon="0.34298">
        <ele>28.1</ele>
        <time>2022-04-05T12:14:41Z</time>
      </trkpt>
      <trkpt lat="44.87685" lon="0.34298">
        <ele>28.1</ele>
        <time>2022-04-05T12:14:42Z</time>
      </trkpt>
      <trkpt lat="44.87684" lon="0.34298">
        <ele>28.1</ele>
        <time>2022-04-05T12:14:43Z</time>
      </trkpt>
      <trkpt lat="44.87682" lon="0.34298">
        <ele>28.1</ele>
        <time>2022-04-05T12:14:44Z</time>
      </trkpt>
      <trkpt lat="44.8768" lon="0.34298">
        <ele>28.1</ele>
        <time>2022-04-05T12:14:45Z</time>
      </trkpt>
      <trkpt lat="44.87679" lon="0.34298">
        <ele>28.1</ele>
        <time>2022-04-05T12:14:46Z</time>
      </trkpt>
      <trkpt lat="44.87678" lon="0.34298">
        <ele>28.1</ele>
        <time>2022-04-05T12:14:48Z</time>
      </trkpt>
      <trkpt lat="44.87676" lon="0.34298">
        <ele>28.1</ele>
        <time>2022-04-05T12:14:49Z</time>
      </trkpt>
      <trkpt lat="44.87674" lon="0.34298">
        <ele>28</ele>
        <time>2022-04-05T12:14:50Z</time>
      </trkpt>
      <trkpt lat="44.87673" lon="0.34298">
        <ele>28</ele>
        <time>2022-04-05T12:14:51Z</time>
      </trkpt>
      <trkpt lat="44.87672" lon="0.34298">
        <ele>28</ele>
        <time>2022-04-05T12:14:52Z</time>
      </trkpt>
      <trkpt lat="44.87671" lon="0.34299">
        <ele>28</ele>
        <time>2022-04-05T12:14:53Z</time>
      </trkpt>
      <trkpt lat="44.87669" lon="0.34298">
        <ele>28</ele>
        <time>2022-04-05T12:14:55Z</time>
      </trkpt>
      <trkpt lat="44.87668" lon="0.34298">
        <ele>28</ele>
        <time>2022-04-05T12:14:56Z</time>
      </trkpt>
      <trkpt lat="44.87667" lon="0.34298">
        <ele>28</ele>
        <time>2022-04-05T12:14:57Z</time>
      </trkpt>
      <trkpt lat="44.87664" lon="0.34299">
        <ele>28</ele>
        <time>2022-04-05T12:14:58Z</time>
      </trkpt>
      <trkpt lat="44.87663" lon="0.34299">
        <ele>28</ele>
        <time>2022-04-05T12:14:59Z</time>
      </trkpt>
      <trkpt lat="44.87662" lon="0.34299">
        <ele>28</ele>
        <time>2022-04-05T12:15:00Z</time>
      </trkpt>
      <trkpt lat="44.87662" lon="0.34299">
        <ele>28</ele>
        <time>2022-04-05T12:15:01Z</time>
      </trkpt>
      <trkpt lat="44.8766" lon="0.34299">
        <ele>28</ele>
        <time>2022-04-05T12:15:02Z</time>
      </trkpt>
      <trkpt lat="44.87659" lon="0.34299">
        <ele>28</ele>
        <time>2022-04-05T12:15:03Z</time>
      </trkpt>
      <trkpt lat="44.87657" lon="0.343">
        <ele>28</ele>
        <time>2022-04-05T12:15:04Z</time>
      </trkpt>
      <trkpt lat="44.87656" lon="0.343">
        <ele>28</ele>
        <time>2022-04-05T12:15:05Z</time>
      </trkpt>
      <trkpt lat="44.87654" lon="0.34299">
        <ele>28</ele>
        <time>2022-04-05T12:15:06Z</time>
      </trkpt>
      <trkpt lat="44.87653" lon="0.34299">
        <ele>28</ele>
        <time>2022-04-05T12:15:07Z</time>
      </trkpt>
      <trkpt lat="44.87652" lon="0.34299">
        <ele>28</ele>
        <time>2022-04-05T12:15:08Z</time>
      </trkpt>
      <trkpt lat="44.87651" lon="0.34299">
        <ele>28</ele>
        <time>2022-04-05T12:15:09Z</time>
      </trkpt>
      <trkpt lat="44.87649" lon="0.34299">
        <ele>28</ele>
        <time>2022-04-05T12:15:10Z</time>
      </trkpt>
      <trkpt lat="44.87648" lon="0.34299">
        <ele>28</ele>
        <time>2022-04-05T12:15:11Z</time>
      </trkpt>
      <trkpt lat="44.87646" lon="0.34299">
        <ele>28</ele>
        <time>2022-04-05T12:15:12Z</time>
      </trkpt>
      <trkpt lat="44.87645" lon="0.34299">
        <ele>28</ele>
        <time>2022-04-05T12:15:13Z</time>
      </trkpt>
      <trkpt lat="44.87644" lon="0.34299">
        <ele>28</ele>
        <time>2022-04-05T12:15:14Z</time>
      </trkpt>
      <trkpt lat="44.87642" lon="0.34299">
        <ele>28</ele>
        <time>2022-04-05T12:15:15Z</time>
      </trkpt>
      <trkpt lat="44.87641" lon="0.34299">
        <ele>28</ele>
        <time>2022-04-05T12:15:17Z</time>
      </trkpt>
      <trkpt lat="44.87639" lon="0.34299">
        <ele>28</ele>
        <time>2022-04-05T12:15:18Z</time>
      </trkpt>
      <trkpt lat="44.87638" lon="0.34299">
        <ele>28</ele>
        <time>2022-04-05T12:15:19Z</time>
      </trkpt>
      <trkpt lat="44.87635" lon="0.34299">
        <ele>28</ele>
        <time>2022-04-05T12:15:21Z</time>
      </trkpt>
      <trkpt lat="44.87634" lon="0.34299">
        <ele>28</ele>
        <time>2022-04-05T12:15:22Z</time>
      </trkpt>
      <trkpt lat="44.87633" lon="0.34299">
        <ele>28</ele>
        <time>2022-04-05T12:15:23Z</time>
      </trkpt>
      <trkpt lat="44.87631" lon="0.34299">
        <ele>28.1</ele>
        <time>2022-04-05T12:15:24Z</time>
      </trkpt>
      <trkpt lat="44.87629" lon="0.343">
        <ele>28.1</ele>
        <time>2022-04-05T12:15:25Z</time>
      </trkpt>
      <trkpt lat="44.87628" lon="0.343">
        <ele>28.1</ele>
        <time>2022-04-05T12:15:26Z</time>
      </trkpt>
      <trkpt lat="44.87627" lon="0.343">
        <ele>28.1</ele>
        <time>2022-04-05T12:15:27Z</time>
      </trkpt>
      <trkpt lat="44.87626" lon="0.343">
        <ele>28.1</ele>
        <time>2022-04-05T12:15:28Z</time>
      </trkpt>
      <trkpt lat="44.87625" lon="0.343">
        <ele>28.1</ele>
        <time>2022-04-05T12:15:29Z</time>
      </trkpt>
      <trkpt lat="44.87622" lon="0.343">
        <ele>28.1</ele>
        <time>2022-04-05T12:15:30Z</time>
      </trkpt>
      <trkpt lat="44.87621" lon="0.343">
        <ele>28.2</ele>
        <time>2022-04-05T12:15:31Z</time>
      </trkpt>
      <trkpt lat="44.8762" lon="0.34299">
        <ele>28.2</ele>
        <time>2022-04-05T12:15:32Z</time>
      </trkpt>
      <trkpt lat="44.87619" lon="0.34299">
        <ele>28.2</ele>
        <time>2022-04-05T12:15:34Z</time>
      </trkpt>
      <trkpt lat="44.87617" lon="0.34299">
        <ele>28.2</ele>
        <time>2022-04-05T12:15:35Z</time>
      </trkpt>
      <trkpt lat="44.87615" lon="0.34299">
        <ele>28.2</ele>
        <time>2022-04-05T12:15:36Z</time>
      </trkpt>
      <trkpt lat="44.87614" lon="0.34299">
        <ele>28.2</ele>
        <time>2022-04-05T12:15:37Z</time>
      </trkpt>
      <trkpt lat="44.87613" lon="0.34299">
        <ele>28.3</ele>
        <time>2022-04-05T12:15:38Z</time>
      </trkpt>
      <trkpt lat="44.87612" lon="0.34299">
        <ele>28.3</ele>
        <time>2022-04-05T12:15:39Z</time>
      </trkpt>
      <trkpt lat="44.87609" lon="0.34299">
        <ele>28.3</ele>
        <time>2022-04-05T12:15:40Z</time>
      </trkpt>
      <trkpt lat="44.87609" lon="0.343">
        <ele>28.3</ele>
        <time>2022-04-05T12:15:41Z</time>
      </trkpt>
      <trkpt lat="44.87608" lon="0.343">
        <ele>28.3</ele>
        <time>2022-04-05T12:15:42Z</time>
      </trkpt>
      <trkpt lat="44.87606" lon="0.34301">
        <ele>28.4</ele>
        <time>2022-04-05T12:15:43Z</time>
      </trkpt>
      <trkpt lat="44.87604" lon="0.34301">
        <ele>28.4</ele>
        <time>2022-04-05T12:15:45Z</time>
      </trkpt>
      <trkpt lat="44.87603" lon="0.34301">
        <ele>28.4</ele>
        <time>2022-04-05T12:15:46Z</time>
      </trkpt>
      <trkpt lat="44.87601" lon="0.34301">
        <ele>28.4</ele>
        <time>2022-04-05T12:15:47Z</time>
      </trkpt>
      <trkpt lat="44.876" lon="0.34301">
        <ele>28.4</ele>
        <time>2022-04-05T12:15:48Z</time>
      </trkpt>
      <trkpt lat="44.87597" lon="0.34301">
        <ele>28.5</ele>
        <time>2022-04-05T12:15:49Z</time>
      </trkpt>
      <trkpt lat="44.87596" lon="0.34301">
        <ele>28.5</ele>
        <time>2022-04-05T12:15:50Z</time>
      </trkpt>
      <trkpt lat="44.87596" lon="0.34301">
        <ele>28.5</ele>
        <time>2022-04-05T12:15:51Z</time>
      </trkpt>
      <trkpt lat="44.87594" lon="0.34301">
        <ele>28.5</ele>
        <time>2022-04-05T12:15:53Z</time>
      </trkpt>
      <trkpt lat="44.87593" lon="0.34301">
        <ele>28.5</ele>
        <time>2022-04-05T12:15:54Z</time>
      </trkpt>
      <trkpt lat="44.87592" lon="0.34301">
        <ele>28.5</ele>
        <time>2022-04-05T12:15:55Z</time>
      </trkpt>
      <trkpt lat="44.8759" lon="0.34301">
        <ele>28.6</ele>
        <time>2022-04-05T12:15:56Z</time>
      </trkpt>
      <trkpt lat="44.87589" lon="0.34302">
        <ele>28.6</ele>
        <time>2022-04-05T12:15:57Z</time>
      </trkpt>
      <trkpt lat="44.87587" lon="0.34302">
        <ele>28.6</ele>
        <time>2022-04-05T12:15:58Z</time>
      </trkpt>
      <trkpt lat="44.87586" lon="0.34302">
        <ele>28.6</ele>
        <time>2022-04-05T12:15:59Z</time>
      </trkpt>
      <trkpt lat="44.87584" lon="0.34303">
        <ele>28.6</ele>
        <time>2022-04-05T12:16:00Z</time>
      </trkpt>
      <trkpt lat="44.87583" lon="0.34303">
        <ele>28.6</ele>
        <time>2022-04-05T12:16:01Z</time>
      </trkpt>
      <trkpt lat="44.87583" lon="0.34304">
        <ele>28.6</ele>
        <time>2022-04-05T12:16:02Z</time>
      </trkpt>
      <trkpt lat="44.87581" lon="0.34304">
        <ele>28.6</ele>
        <time>2022-04-05T12:16:03Z</time>
      </trkpt>
      <trkpt lat="44.8758" lon="0.34304">
        <ele>28.6</ele>
        <time>2022-04-05T12:16:04Z</time>
      </trkpt>
      <trkpt lat="44.87577" lon="0.34305">
        <ele>28.6</ele>
        <time>2022-04-05T12:16:06Z</time>
      </trkpt>
      <trkpt lat="44.87576" lon="0.34304">
        <ele>28.6</ele>
        <time>2022-04-05T12:16:07Z</time>
      </trkpt>
      <trkpt lat="44.87575" lon="0.34304">
        <ele>28.6</ele>
        <time>2022-04-05T12:16:08Z</time>
      </trkpt>
      <trkpt lat="44.87574" lon="0.34303">
        <ele>28.6</ele>
        <time>2022-04-05T12:16:09Z</time>
      </trkpt>
      <trkpt lat="44.87571" lon="0.34303">
        <ele>28.6</ele>
        <time>2022-04-05T12:16:10Z</time>
      </trkpt>
      <trkpt lat="44.87571" lon="0.34303">
        <ele>28.6</ele>
        <time>2022-04-05T12:16:11Z</time>
      </trkpt>
      <trkpt lat="44.87569" lon="0.34302">
        <ele>28.6</ele>
        <time>2022-04-05T12:16:12Z</time>
      </trkpt>
      <trkpt lat="44.87568" lon="0.34301">
        <ele>28.6</ele>
        <time>2022-04-05T12:16:13Z</time>
      </trkpt>
      <trkpt lat="44.87565" lon="0.34301">
        <ele>28.6</ele>
        <time>2022-04-05T12:16:15Z</time>
      </trkpt>
      <trkpt lat="44.87565" lon="0.34301">
        <ele>28.6</ele>
        <time>2022-04-05T12:16:16Z</time>
      </trkpt>
      <trkpt lat="44.87563" lon="0.343">
        <ele>28.6</ele>
        <time>2022-04-05T12:16:17Z</time>
      </trkpt>
      <trkpt lat="44.87562" lon="0.343">
        <ele>28.6</ele>
        <time>2022-04-05T12:16:18Z</time>
      </trkpt>
      <trkpt lat="44.87561" lon="0.343">
        <ele>28.6</ele>
        <time>2022-04-05T12:16:19Z</time>
      </trkpt>
      <trkpt lat="44.87559" lon="0.34301">
        <ele>28.6</ele>
        <time>2022-04-05T12:16:20Z</time>
      </trkpt>
      <trkpt lat="44.87558" lon="0.34301">
        <ele>28.6</ele>
        <time>2022-04-05T12:16:21Z</time>
      </trkpt>
      <trkpt lat="44.87557" lon="0.34301">
        <ele>28.5</ele>
        <time>2022-04-05T12:16:22Z</time>
      </trkpt>
      <trkpt lat="44.87555" lon="0.34301">
        <ele>28.5</ele>
        <time>2022-04-05T12:16:24Z</time>
      </trkpt>
      <trkpt lat="44.87554" lon="0.34302">
        <ele>28.5</ele>
        <time>2022-04-05T12:16:25Z</time>
      </trkpt>
      <trkpt lat="44.87552" lon="0.34302">
        <ele>28.5</ele>
        <time>2022-04-05T12:16:26Z</time>
      </trkpt>
      <trkpt lat="44.8755" lon="0.34302">
        <ele>28.5</ele>
        <time>2022-04-05T12:16:27Z</time>
      </trkpt>
      <trkpt lat="44.87549" lon="0.34302">
        <ele>28.4</ele>
        <time>2022-04-05T12:16:28Z</time>
      </trkpt>
      <trkpt lat="44.87548" lon="0.34302">
        <ele>28.4</ele>
        <time>2022-04-05T12:16:29Z</time>
      </trkpt>
      <trkpt lat="44.87546" lon="0.34303">
        <ele>28.4</ele>
        <time>2022-04-05T12:16:30Z</time>
      </trkpt>
      <trkpt lat="44.87546" lon="0.34303">
        <ele>28.4</ele>
        <time>2022-04-05T12:16:31Z</time>
      </trkpt>
      <trkpt lat="44.87544" lon="0.34303">
        <ele>28.4</ele>
        <time>2022-04-05T12:16:33Z</time>
      </trkpt>
      <trkpt lat="44.87543" lon="0.34303">
        <ele>28.4</ele>
        <time>2022-04-05T12:16:34Z</time>
      </trkpt>
      <trkpt lat="44.87541" lon="0.34303">
        <ele>28.3</ele>
        <time>2022-04-05T12:16:35Z</time>
      </trkpt>
      <trkpt lat="44.87539" lon="0.34303">
        <ele>28.3</ele>
        <time>2022-04-05T12:16:36Z</time>
      </trkpt>
      <trkpt lat="44.87539" lon="0.34303">
        <ele>28.3</ele>
        <time>2022-04-05T12:16:37Z</time>
      </trkpt>
      <trkpt lat="44.87536" lon="0.34303">
        <ele>28.3</ele>
        <time>2022-04-05T12:16:38Z</time>
      </trkpt>
      <trkpt lat="44.87535" lon="0.34303">
        <ele>28.3</ele>
        <time>2022-04-05T12:16:39Z</time>
      </trkpt>
      <trkpt lat="44.87535" lon="0.34303">
        <ele>28.3</ele>
        <time>2022-04-05T12:16:40Z</time>
      </trkpt>
      <trkpt lat="44.87533" lon="0.34304">
        <ele>28.3</ele>
        <time>2022-04-05T12:16:41Z</time>
      </trkpt>
      <trkpt lat="44.87532" lon="0.34304">
        <ele>28.3</ele>
        <time>2022-04-05T12:16:42Z</time>
      </trkpt>
      <trkpt lat="44.87531" lon="0.34304">
        <ele>28.3</ele>
        <time>2022-04-05T12:16:43Z</time>
      </trkpt>
      <trkpt lat="44.87529" lon="0.34304">
        <ele>28.2</ele>
        <time>2022-04-05T12:16:44Z</time>
      </trkpt>
      <trkpt lat="44.87528" lon="0.34304">
        <ele>28.2</ele>
        <time>2022-04-05T12:16:45Z</time>
      </trkpt>
      <trkpt lat="44.87527" lon="0.34304">
        <ele>28.2</ele>
        <time>2022-04-05T12:16:46Z</time>
      </trkpt>
      <trkpt lat="44.87526" lon="0.34305">
        <ele>28.2</ele>
        <time>2022-04-05T12:16:47Z</time>
      </trkpt>
      <trkpt lat="44.87524" lon="0.34305">
        <ele>28.2</ele>
        <time>2022-04-05T12:16:49Z</time>
      </trkpt>
      <trkpt lat="44.87523" lon="0.34305">
        <ele>28.1</ele>
        <time>2022-04-05T12:16:50Z</time>
      </trkpt>
      <trkpt lat="44.87521" lon="0.34305">
        <ele>28.1</ele>
        <time>2022-04-05T12:16:51Z</time>
      </trkpt>
      <trkpt lat="44.8752" lon="0.34305">
        <ele>28.1</ele>
        <time>2022-04-05T12:16:52Z</time>
      </trkpt>
      <trkpt lat="44.87519" lon="0.34304">
        <ele>28.1</ele>
        <time>2022-04-05T12:16:53Z</time>
      </trkpt>
      <trkpt lat="44.87518" lon="0.34304">
        <ele>28.1</ele>
        <time>2022-04-05T12:16:54Z</time>
      </trkpt>
      <trkpt lat="44.87518" lon="0.34304">
        <ele>28</ele>
        <time>2022-04-05T12:16:55Z</time>
      </trkpt>
      <trkpt lat="44.87515" lon="0.34304">
        <ele>28</ele>
        <time>2022-04-05T12:16:56Z</time>
      </trkpt>
      <trkpt lat="44.87515" lon="0.34303">
        <ele>28</ele>
        <time>2022-04-05T12:16:57Z</time>
      </trkpt>
      <trkpt lat="44.87514" lon="0.34303">
        <ele>28</ele>
        <time>2022-04-05T12:16:58Z</time>
      </trkpt>
      <trkpt lat="44.87513" lon="0.34302">
        <ele>28</ele>
        <time>2022-04-05T12:16:59Z</time>
      </trkpt>
      <trkpt lat="44.87512" lon="0.34302">
        <ele>27.9</ele>
        <time>2022-04-05T12:17:00Z</time>
      </trkpt>
      <trkpt lat="44.8751" lon="0.343">
        <ele>27.9</ele>
        <time>2022-04-05T12:17:01Z</time>
      </trkpt>
      <trkpt lat="44.87509" lon="0.343">
        <ele>27.9</ele>
        <time>2022-04-05T12:17:02Z</time>
      </trkpt>
      <trkpt lat="44.87508" lon="0.343">
        <ele>27.9</ele>
        <time>2022-04-05T12:17:03Z</time>
      </trkpt>
      <trkpt lat="44.87508" lon="0.34299">
        <ele>27.9</ele>
        <time>2022-04-05T12:17:04Z</time>
      </trkpt>
      <trkpt lat="44.87506" lon="0.34299">
        <ele>27.9</ele>
        <time>2022-04-05T12:17:05Z</time>
      </trkpt>
      <trkpt lat="44.87505" lon="0.34298">
        <ele>27.8</ele>
        <time>2022-04-05T12:17:06Z</time>
      </trkpt>
      <trkpt lat="44.87504" lon="0.34298">
        <ele>27.8</ele>
        <time>2022-04-05T12:17:07Z</time>
      </trkpt>
      <trkpt lat="44.87503" lon="0.34297">
        <ele>27.8</ele>
        <time>2022-04-05T12:17:08Z</time>
      </trkpt>
      <trkpt lat="44.87501" lon="0.34296">
        <ele>27.8</ele>
        <time>2022-04-05T12:17:09Z</time>
      </trkpt>
      <trkpt lat="44.875" lon="0.34296">
        <ele>27.7</ele>
        <time>2022-04-05T12:17:10Z</time>
      </trkpt>
      <trkpt lat="44.87499" lon="0.34295">
        <ele>27.7</ele>
        <time>2022-04-05T12:17:11Z</time>
      </trkpt>
      <trkpt lat="44.87498" lon="0.34295">
        <ele>27.7</ele>
        <time>2022-04-05T12:17:12Z</time>
      </trkpt>
      <trkpt lat="44.87497" lon="0.34294">
        <ele>27.7</ele>
        <time>2022-04-05T12:17:14Z</time>
      </trkpt>
      <trkpt lat="44.87496" lon="0.34294">
        <ele>27.7</ele>
        <time>2022-04-05T12:17:15Z</time>
      </trkpt>
      <trkpt lat="44.87493" lon="0.34293">
        <ele>27.6</ele>
        <time>2022-04-05T12:17:16Z</time>
      </trkpt>
      <trkpt lat="44.87492" lon="0.34292">
        <ele>27.6</ele>
        <time>2022-04-05T12:17:17Z</time>
      </trkpt>
      <trkpt lat="44.87491" lon="0.34291">
        <ele>27.6</ele>
        <time>2022-04-05T12:17:18Z</time>
      </trkpt>
      <trkpt lat="44.8749" lon="0.34291">
        <ele>27.6</ele>
        <time>2022-04-05T12:17:19Z</time>
      </trkpt>
      <trkpt lat="44.87489" lon="0.34291">
        <ele>27.6</ele>
        <time>2022-04-05T12:17:20Z</time>
      </trkpt>
      <trkpt lat="44.87487" lon="0.34289">
        <ele>27.5</ele>
        <time>2022-04-05T12:17:21Z</time>
      </trkpt>
      <trkpt lat="44.87486" lon="0.34288">
        <ele>27.5</ele>
        <time>2022-04-05T12:17:22Z</time>
      </trkpt>
      <trkpt lat="44.87485" lon="0.34288">
        <ele>27.5</ele>
        <time>2022-04-05T12:17:23Z</time>
      </trkpt>
      <trkpt lat="44.87484" lon="0.34287">
        <ele>27.5</ele>
        <time>2022-04-05T12:17:24Z</time>
      </trkpt>
      <trkpt lat="44.87483" lon="0.34287">
        <ele>27.5</ele>
        <time>2022-04-05T12:17:25Z</time>
      </trkpt>
      <trkpt lat="44.87481" lon="0.34285">
        <ele>27.4</ele>
        <time>2022-04-05T12:17:26Z</time>
      </trkpt>
      <trkpt lat="44.8748" lon="0.34285">
        <ele>27.4</ele>
        <time>2022-04-05T12:17:27Z</time>
      </trkpt>
      <trkpt lat="44.87479" lon="0.34284">
        <ele>27.4</ele>
        <time>2022-04-05T12:17:28Z</time>
      </trkpt>
      <trkpt lat="44.87478" lon="0.34283">
        <ele>27.4</ele>
        <time>2022-04-05T12:17:30Z</time>
      </trkpt>
      <trkpt lat="44.87476" lon="0.34281">
        <ele>27.3</ele>
        <time>2022-04-05T12:17:31Z</time>
      </trkpt>
      <trkpt lat="44.87475" lon="0.34281">
        <ele>27.3</ele>
        <time>2022-04-05T12:17:32Z</time>
      </trkpt>
      <trkpt lat="44.87473" lon="0.3428">
        <ele>27.3</ele>
        <time>2022-04-05T12:17:33Z</time>
      </trkpt>
      <trkpt lat="44.87472" lon="0.3428">
        <ele>27.3</ele>
        <time>2022-04-05T12:17:34Z</time>
      </trkpt>
      <trkpt lat="44.87471" lon="0.3428">
        <ele>27.3</ele>
        <time>2022-04-05T12:17:35Z</time>
      </trkpt>
      <trkpt lat="44.87469" lon="0.34278">
        <ele>27.3</ele>
        <time>2022-04-05T12:17:36Z</time>
      </trkpt>
      <trkpt lat="44.87468" lon="0.34278">
        <ele>27.3</ele>
        <time>2022-04-05T12:17:37Z</time>
      </trkpt>
      <trkpt lat="44.87467" lon="0.34277">
        <ele>27.2</ele>
        <time>2022-04-05T12:17:38Z</time>
      </trkpt>
      <trkpt lat="44.87466" lon="0.34276">
        <ele>27.2</ele>
        <time>2022-04-05T12:17:39Z</time>
      </trkpt>
      <trkpt lat="44.87465" lon="0.34275">
        <ele>27.2</ele>
        <time>2022-04-05T12:17:40Z</time>
      </trkpt>
      <trkpt lat="44.87463" lon="0.34274">
        <ele>27.2</ele>
        <time>2022-04-05T12:17:41Z</time>
      </trkpt>
      <trkpt lat="44.87462" lon="0.34272">
        <ele>27.2</ele>
        <time>2022-04-05T12:17:42Z</time>
      </trkpt>
      <trkpt lat="44.8746" lon="0.34272">
        <ele>27.2</ele>
        <time>2022-04-05T12:17:43Z</time>
      </trkpt>
      <trkpt lat="44.8746" lon="0.34271">
        <ele>27.2</ele>
        <time>2022-04-05T12:17:44Z</time>
      </trkpt>
      <trkpt lat="44.87457" lon="0.3427">
        <ele>27.2</ele>
        <time>2022-04-05T12:17:46Z</time>
      </trkpt>
      <trkpt lat="44.87457" lon="0.34269">
        <ele>27.2</ele>
        <time>2022-04-05T12:17:47Z</time>
      </trkpt>
      <trkpt lat="44.87455" lon="0.34268">
        <ele>27.2</ele>
        <time>2022-04-05T12:17:48Z</time>
      </trkpt>
      <trkpt lat="44.87454" lon="0.34268">
        <ele>27.1</ele>
        <time>2022-04-05T12:17:49Z</time>
      </trkpt>
      <trkpt lat="44.87453" lon="0.34268">
        <ele>27.1</ele>
        <time>2022-04-05T12:17:50Z</time>
      </trkpt>
      <trkpt lat="44.87451" lon="0.34266">
        <ele>27.1</ele>
        <time>2022-04-05T12:17:51Z</time>
      </trkpt>
      <trkpt lat="44.8745" lon="0.34266">
        <ele>27.1</ele>
        <time>2022-04-05T12:17:52Z</time>
      </trkpt>
      <trkpt lat="44.87449" lon="0.34265">
        <ele>27.1</ele>
        <time>2022-04-05T12:17:53Z</time>
      </trkpt>
      <trkpt lat="44.87448" lon="0.34264">
        <ele>27.1</ele>
        <time>2022-04-05T12:17:54Z</time>
      </trkpt>
      <trkpt lat="44.87447" lon="0.34264">
        <ele>27.1</ele>
        <time>2022-04-05T12:17:55Z</time>
      </trkpt>
      <trkpt lat="44.87445" lon="0.34263">
        <ele>27.1</ele>
        <time>2022-04-05T12:17:56Z</time>
      </trkpt>
      <trkpt lat="44.87444" lon="0.34262">
        <ele>27.1</ele>
        <time>2022-04-05T12:17:58Z</time>
      </trkpt>
      <trkpt lat="44.87443" lon="0.34261">
        <ele>27.1</ele>
        <time>2022-04-05T12:17:59Z</time>
      </trkpt>
      <trkpt lat="44.87442" lon="0.3426">
        <ele>27.1</ele>
        <time>2022-04-05T12:18:00Z</time>
      </trkpt>
      <trkpt lat="44.87439" lon="0.34259">
        <ele>27.1</ele>
        <time>2022-04-05T12:18:01Z</time>
      </trkpt>
      <trkpt lat="44.87439" lon="0.34259">
        <ele>27.1</ele>
        <time>2022-04-05T12:18:02Z</time>
      </trkpt>
      <trkpt lat="44.87437" lon="0.34258">
        <ele>27.1</ele>
        <time>2022-04-05T12:18:03Z</time>
      </trkpt>
      <trkpt lat="44.87436" lon="0.34257">
        <ele>27</ele>
        <time>2022-04-05T12:18:04Z</time>
      </trkpt>
      <trkpt lat="44.87435" lon="0.34257">
        <ele>27</ele>
        <time>2022-04-05T12:18:05Z</time>
      </trkpt>
      <trkpt lat="44.87433" lon="0.34255">
        <ele>27</ele>
        <time>2022-04-05T12:18:07Z</time>
      </trkpt>
      <trkpt lat="44.87432" lon="0.34255">
        <ele>27</ele>
        <time>2022-04-05T12:18:08Z</time>
      </trkpt>
      <trkpt lat="44.8743" lon="0.34254">
        <ele>27</ele>
        <time>2022-04-05T12:18:09Z</time>
      </trkpt>
      <trkpt lat="44.87428" lon="0.34253">
        <ele>27</ele>
        <time>2022-04-05T12:18:10Z</time>
      </trkpt>
      <trkpt lat="44.87426" lon="0.34253">
        <ele>27</ele>
        <time>2022-04-05T12:18:11Z</time>
      </trkpt>
      <trkpt lat="44.87426" lon="0.34253">
        <ele>27</ele>
        <time>2022-04-05T12:18:12Z</time>
      </trkpt>
      <trkpt lat="44.87425" lon="0.34252">
        <ele>27</ele>
        <time>2022-04-05T12:18:13Z</time>
      </trkpt>
      <trkpt lat="44.87424" lon="0.34252">
        <ele>27</ele>
        <time>2022-04-05T12:18:14Z</time>
      </trkpt>
      <trkpt lat="44.87423" lon="0.34251">
        <ele>27</ele>
        <time>2022-04-05T12:18:15Z</time>
      </trkpt>
      <trkpt lat="44.87421" lon="0.3425">
        <ele>27</ele>
        <time>2022-04-05T12:18:16Z</time>
      </trkpt>
      <trkpt lat="44.87419" lon="0.34249">
        <ele>27</ele>
        <time>2022-04-05T12:18:17Z</time>
      </trkpt>
      <trkpt lat="44.87418" lon="0.34249">
        <ele>27</ele>
        <time>2022-04-05T12:18:18Z</time>
      </trkpt>
      <trkpt lat="44.87417" lon="0.34249">
        <ele>27</ele>
        <time>2022-04-05T12:18:19Z</time>
      </trkpt>
      <trkpt lat="44.87416" lon="0.34249">
        <ele>27</ele>
        <time>2022-04-05T12:18:20Z</time>
      </trkpt>
      <trkpt lat="44.87414" lon="0.34248">
        <ele>27</ele>
        <time>2022-04-05T12:18:21Z</time>
      </trkpt>
      <trkpt lat="44.87413" lon="0.34248">
        <ele>27</ele>
        <time>2022-04-05T12:18:22Z</time>
      </trkpt>
      <trkpt lat="44.87412" lon="0.34248">
        <ele>27</ele>
        <time>2022-04-05T12:18:23Z</time>
      </trkpt>
      <trkpt lat="44.87411" lon="0.34248">
        <ele>27</ele>
        <time>2022-04-05T12:18:24Z</time>
      </trkpt>
      <trkpt lat="44.8741" lon="0.34248">
        <ele>27</ele>
        <time>2022-04-05T12:18:25Z</time>
      </trkpt>
      <trkpt lat="44.87408" lon="0.34248">
        <ele>27</ele>
        <time>2022-04-05T12:18:26Z</time>
      </trkpt>
      <trkpt lat="44.87407" lon="0.34248">
        <ele>27</ele>
        <time>2022-04-05T12:18:28Z</time>
      </trkpt>
      <trkpt lat="44.87405" lon="0.34248">
        <ele>27</ele>
        <time>2022-04-05T12:18:29Z</time>
      </trkpt>
      <trkpt lat="44.87402" lon="0.34249">
        <ele>27</ele>
        <time>2022-04-05T12:18:30Z</time>
      </trkpt>
      <trkpt lat="44.87401" lon="0.34249">
        <ele>27</ele>
        <time>2022-04-05T12:18:31Z</time>
      </trkpt>
      <trkpt lat="44.874" lon="0.3425">
        <ele>27</ele>
        <time>2022-04-05T12:18:32Z</time>
      </trkpt>
      <trkpt lat="44.87399" lon="0.3425">
        <ele>27</ele>
        <time>2022-04-05T12:18:34Z</time>
      </trkpt>
      <trkpt lat="44.87397" lon="0.3425">
        <ele>27</ele>
        <time>2022-04-05T12:18:35Z</time>
      </trkpt>
      <trkpt lat="44.87395" lon="0.3425">
        <ele>27</ele>
        <time>2022-04-05T12:18:36Z</time>
      </trkpt>
      <trkpt lat="44.87395" lon="0.3425">
        <ele>27</ele>
        <time>2022-04-05T12:18:37Z</time>
      </trkpt>
      <trkpt lat="44.87392" lon="0.3425">
        <ele>27</ele>
        <time>2022-04-05T12:18:38Z</time>
      </trkpt>
      <trkpt lat="44.87391" lon="0.3425">
        <ele>27</ele>
        <time>2022-04-05T12:18:39Z</time>
      </trkpt>
      <trkpt lat="44.8739" lon="0.3425">
        <ele>27</ele>
        <time>2022-04-05T12:18:40Z</time>
      </trkpt>
      <trkpt lat="44.87388" lon="0.3425">
        <ele>27</ele>
        <time>2022-04-05T12:18:41Z</time>
      </trkpt>
      <trkpt lat="44.87387" lon="0.3425">
        <ele>27</ele>
        <time>2022-04-05T12:18:42Z</time>
      </trkpt>
      <trkpt lat="44.87386" lon="0.34251">
        <ele>27</ele>
        <time>2022-04-05T12:18:43Z</time>
      </trkpt>
      <trkpt lat="44.87385" lon="0.34251">
        <ele>27</ele>
        <time>2022-04-05T12:18:44Z</time>
      </trkpt>
      <trkpt lat="44.87382" lon="0.34251">
        <ele>27</ele>
        <time>2022-04-05T12:18:46Z</time>
      </trkpt>
      <trkpt lat="44.87381" lon="0.34252">
        <ele>27</ele>
        <time>2022-04-05T12:18:47Z</time>
      </trkpt>
      <trkpt lat="44.8738" lon="0.34252">
        <ele>27</ele>
        <time>2022-04-05T12:18:48Z</time>
      </trkpt>
      <trkpt lat="44.87379" lon="0.34252">
        <ele>27</ele>
        <time>2022-04-05T12:18:49Z</time>
      </trkpt>
      <trkpt lat="44.87378" lon="0.34253">
        <ele>27</ele>
        <time>2022-04-05T12:18:50Z</time>
      </trkpt>
      <trkpt lat="44.87377" lon="0.34254">
        <ele>27</ele>
        <time>2022-04-05T12:18:51Z</time>
      </trkpt>
      <trkpt lat="44.87376" lon="0.34254">
        <ele>27</ele>
        <time>2022-04-05T12:18:52Z</time>
      </trkpt>
      <trkpt lat="44.87375" lon="0.34254">
        <ele>27</ele>
        <time>2022-04-05T12:18:53Z</time>
      </trkpt>
      <trkpt lat="44.87373" lon="0.34254">
        <ele>27</ele>
        <time>2022-04-05T12:18:54Z</time>
      </trkpt>
      <trkpt lat="44.8737" lon="0.34253">
        <ele>27</ele>
        <time>2022-04-05T12:18:56Z</time>
      </trkpt>
      <trkpt lat="44.8737" lon="0.34253">
        <ele>27</ele>
        <time>2022-04-05T12:18:57Z</time>
      </trkpt>
      <trkpt lat="44.87369" lon="0.34253">
        <ele>27</ele>
        <time>2022-04-05T12:18:58Z</time>
      </trkpt>
      <trkpt lat="44.87367" lon="0.34253">
        <ele>27</ele>
        <time>2022-04-05T12:19:00Z</time>
      </trkpt>
      <trkpt lat="44.87366" lon="0.34252">
        <ele>27</ele>
        <time>2022-04-05T12:19:01Z</time>
      </trkpt>
      <trkpt lat="44.87364" lon="0.34253">
        <ele>27</ele>
        <time>2022-04-05T12:19:02Z</time>
      </trkpt>
      <trkpt lat="44.87362" lon="0.34251">
        <ele>27</ele>
        <time>2022-04-05T12:19:03Z</time>
      </trkpt>
      <trkpt lat="44.87362" lon="0.3425">
        <ele>27</ele>
        <time>2022-04-05T12:19:04Z</time>
      </trkpt>
      <trkpt lat="44.87361" lon="0.34249">
        <ele>27</ele>
        <time>2022-04-05T12:19:05Z</time>
      </trkpt>
      <trkpt lat="44.87359" lon="0.34249">
        <ele>27</ele>
        <time>2022-04-05T12:19:07Z</time>
      </trkpt>
      <trkpt lat="44.87358" lon="0.34249">
        <ele>27</ele>
        <time>2022-04-05T12:19:08Z</time>
      </trkpt>
      <trkpt lat="44.87357" lon="0.34249">
        <ele>27</ele>
        <time>2022-04-05T12:19:09Z</time>
      </trkpt>
      <trkpt lat="44.87356" lon="0.34249">
        <ele>27</ele>
        <time>2022-04-05T12:19:10Z</time>
      </trkpt>
      <trkpt lat="44.87354" lon="0.34249">
        <ele>27</ele>
        <time>2022-04-05T12:19:11Z</time>
      </trkpt>
      <trkpt lat="44.87354" lon="0.34249">
        <ele>27</ele>
        <time>2022-04-05T12:19:12Z</time>
      </trkpt>
      <trkpt lat="44.87354" lon="0.34249">
        <ele>27</ele>
        <time>2022-04-05T12:19:13Z</time>
      </trkpt>
      <trkpt lat="44.87354" lon="0.34249">
        <ele>27</ele>
        <time>2022-04-05T12:19:14Z</time>
      </trkpt>
      <trkpt lat="44.87354" lon="0.34249">
        <ele>27</ele>
        <time>2022-04-05T12:19:15Z</time>
      </trkpt>
      <trkpt lat="44.87354" lon="0.34249">
        <ele>27</ele>
        <time>2022-04-05T12:19:16Z</time>
      </trkpt>
      <trkpt lat="44.87354" lon="0.34249">
        <ele>27</ele>
        <time>2022-04-05T12:19:17Z</time>
      </trkpt>
      <trkpt lat="44.87355" lon="0.3425">
        <ele>27</ele>
        <time>2022-04-05T12:19:18Z</time>
      </trkpt>
      <trkpt lat="44.87355" lon="0.3425">
        <ele>27</ele>
        <time>2022-04-05T12:19:19Z</time>
      </trkpt>
      <trkpt lat="44.87355" lon="0.3425">
        <ele>27</ele>
        <time>2022-04-05T12:19:20Z</time>
      </trkpt>
      <trkpt lat="44.87356" lon="0.34251">
        <ele>27</ele>
        <time>2022-04-05T12:19:21Z</time>
      </trkpt>
      <trkpt lat="44.87356" lon="0.34251">
        <ele>27</ele>
        <time>2022-04-05T12:19:22Z</time>
      </trkpt>
      <trkpt lat="44.87356" lon="0.34251">
        <ele>27</ele>
        <time>2022-04-05T12:19:23Z</time>
      </trkpt>
      <trkpt lat="44.87356" lon="0.34251">
        <ele>27</ele>
        <time>2022-04-05T12:19:24Z</time>
      </trkpt>
      <trkpt lat="44.87357" lon="0.34251">
        <ele>27</ele>
        <time>2022-04-05T12:19:25Z</time>
      </trkpt>
      <trkpt lat="44.87357" lon="0.34251">
        <ele>27</ele>
        <time>2022-04-05T12:19:26Z</time>
      </trkpt>
      <trkpt lat="44.87357" lon="0.34251">
        <ele>27</ele>
        <time>2022-04-05T12:19:27Z</time>
      </trkpt>
      <trkpt lat="44.87357" lon="0.34251">
        <ele>27</ele>
        <time>2022-04-05T12:19:28Z</time>
      </trkpt>
      <trkpt lat="44.87358" lon="0.34251">
        <ele>27</ele>
        <time>2022-04-05T12:19:29Z</time>
      </trkpt>
      <trkpt lat="44.87358" lon="0.34252">
        <ele>27</ele>
        <time>2022-04-05T12:19:30Z</time>
      </trkpt>
      <trkpt lat="44.87358" lon="0.34252">
        <ele>27</ele>
        <time>2022-04-05T12:19:32Z</time>
      </trkpt>
      <trkpt lat="44.87358" lon="0.34253">
        <ele>27</ele>
        <time>2022-04-05T12:19:33Z</time>
      </trkpt>
      <trkpt lat="44.87359" lon="0.34253">
        <ele>27</ele>
        <time>2022-04-05T12:19:34Z</time>
      </trkpt>
      <trkpt lat="44.87359" lon="0.34253">
        <ele>27</ele>
        <time>2022-04-05T12:19:35Z</time>
      </trkpt>
      <trkpt lat="44.87359" lon="0.34253">
        <ele>27</ele>
        <time>2022-04-05T12:19:36Z</time>
      </trkpt>
      <trkpt lat="44.87359" lon="0.34253">
        <ele>27</ele>
        <time>2022-04-05T12:19:37Z</time>
      </trkpt>
      <trkpt lat="44.87359" lon="0.34253">
        <ele>27</ele>
        <time>2022-04-05T12:19:38Z</time>
      </trkpt>
      <trkpt lat="44.87359" lon="0.34253">
        <ele>27</ele>
        <time>2022-04-05T12:19:39Z</time>
      </trkpt>
      <trkpt lat="44.87359" lon="0.34253">
        <ele>27</ele>
        <time>2022-04-05T12:19:40Z</time>
      </trkpt>
      <trkpt lat="44.87359" lon="0.34253">
        <ele>27</ele>
        <time>2022-04-05T12:19:41Z</time>
      </trkpt>
      <trkpt lat="44.87359" lon="0.34253">
        <ele>27</ele>
        <time>2022-04-05T12:19:42Z</time>
      </trkpt>
      <trkpt lat="44.87359" lon="0.34253">
        <ele>27</ele>
        <time>2022-04-05T12:19:43Z</time>
      </trkpt>
      <trkpt lat="44.87359" lon="0.34253">
        <ele>27</ele>
        <time>2022-04-05T12:19:44Z</time>
      </trkpt>
      <trkpt lat="44.87359" lon="0.34253">
        <ele>27</ele>
        <time>2022-04-05T12:19:45Z</time>
      </trkpt>
      <trkpt lat="44.87359" lon="0.34253">
        <ele>27</ele>
        <time>2022-04-05T12:19:46Z</time>
      </trkpt>
      <trkpt lat="44.87359" lon="0.34253">
        <ele>27</ele>
        <time>2022-04-05T12:19:47Z</time>
      </trkpt>
      <trkpt lat="44.87359" lon="0.34253">
        <ele>27</ele>
        <time>2022-04-05T12:19:48Z</time>
      </trkpt>
      <trkpt lat="44.87359" lon="0.34253">
        <ele>27</ele>
        <time>2022-04-05T12:19:49Z</time>
      </trkpt>
      <trkpt lat="44.87359" lon="0.34253">
        <ele>27</ele>
        <time>2022-04-05T12:19:50Z</time>
      </trkpt>
      <trkpt lat="44.8736" lon="0.34252">
        <ele>27</ele>
        <time>2022-04-05T12:19:51Z</time>
      </trkpt>
      <trkpt lat="44.8736" lon="0.34251">
        <ele>27</ele>
        <time>2022-04-05T12:19:52Z</time>
      </trkpt>
      <trkpt lat="44.8736" lon="0.34252">
        <ele>27</ele>
        <time>2022-04-05T12:19:53Z</time>
      </trkpt>
      <trkpt lat="44.8736" lon="0.34253">
        <ele>27</ele>
        <time>2022-04-05T12:19:54Z</time>
      </trkpt>
      <trkpt lat="44.8736" lon="0.34254">
        <ele>27</ele>
        <time>2022-04-05T12:19:55Z</time>
      </trkpt>
      <trkpt lat="44.8736" lon="0.34254">
        <ele>27</ele>
        <time>2022-04-05T12:19:56Z</time>
      </trkpt>
      <trkpt lat="44.8736" lon="0.34254">
        <ele>27</ele>
        <time>2022-04-05T12:19:57Z</time>
      </trkpt>
      <trkpt lat="44.8736" lon="0.34254">
        <ele>27</ele>
        <time>2022-04-05T12:19:58Z</time>
      </trkpt>
      <trkpt lat="44.8736" lon="0.34254">
        <ele>27</ele>
        <time>2022-04-05T12:19:59Z</time>
      </trkpt>
      <trkpt lat="44.8736" lon="0.34254">
        <ele>27</ele>
        <time>2022-04-05T12:20:00Z</time>
      </trkpt>
      <trkpt lat="44.8736" lon="0.34253">
        <ele>27</ele>
        <time>2022-04-05T12:20:01Z</time>
      </trkpt>
      <trkpt lat="44.8736" lon="0.34253">
        <ele>27</ele>
        <time>2022-04-05T12:20:02Z</time>
      </trkpt>
      <trkpt lat="44.87361" lon="0.34253">
        <ele>27</ele>
        <time>2022-04-05T12:20:03Z</time>
      </trkpt>
      <trkpt lat="44.87361" lon="0.34253">
        <ele>27</ele>
        <time>2022-04-05T12:20:04Z</time>
      </trkpt>
      <trkpt lat="44.87361" lon="0.34253">
        <ele>27</ele>
        <time>2022-04-05T12:20:05Z</time>
      </trkpt>
      <trkpt lat="44.87361" lon="0.34253">
        <ele>27</ele>
        <time>2022-04-05T12:20:06Z</time>
      </trkpt>
      <trkpt lat="44.87361" lon="0.34253">
        <ele>27</ele>
        <time>2022-04-05T12:20:07Z</time>
      </trkpt>
      <trkpt lat="44.87361" lon="0.34253">
        <ele>27</ele>
        <time>2022-04-05T12:20:08Z</time>
      </trkpt>
      <trkpt lat="44.87361" lon="0.34253">
        <ele>27</ele>
        <time>2022-04-05T12:20:09Z</time>
      </trkpt>
      <trkpt lat="44.87361" lon="0.34253">
        <ele>27</ele>
        <time>2022-04-05T12:20:10Z</time>
      </trkpt>
      <trkpt lat="44.87361" lon="0.34253">
        <ele>27</ele>
        <time>2022-04-05T12:20:11Z</time>
      </trkpt>
      <trkpt lat="44.87361" lon="0.34253">
        <ele>27</ele>
        <time>2022-04-05T12:20:12Z</time>
      </trkpt>
      <trkpt lat="44.87361" lon="0.34253">
        <ele>27</ele>
        <time>2022-04-05T12:20:13Z</time>
      </trkpt>
      <trkpt lat="44.87361" lon="0.34253">
        <ele>27</ele>
        <time>2022-04-05T12:20:14Z</time>
      </trkpt>
      <trkpt lat="44.87361" lon="0.34253">
        <ele>27</ele>
        <time>2022-04-05T12:20:15Z</time>
      </trkpt>
      <trkpt lat="44.87361" lon="0.34253">
        <ele>27</ele>
        <time>2022-04-05T12:20:16Z</time>
      </trkpt>
      <trkpt lat="44.87361" lon="0.34253">
        <ele>27</ele>
        <time>2022-04-05T12:20:17Z</time>
      </trkpt>
      <trkpt lat="44.87361" lon="0.34253">
        <ele>27</ele>
        <time>2022-04-05T12:20:18Z</time>
      </trkpt>
      <trkpt lat="44.87361" lon="0.34253">
        <ele>27</ele>
        <time>2022-04-05T12:20:19Z</time>
      </trkpt>
      <trkpt lat="44.87361" lon="0.34253">
        <ele>27</ele>
        <time>2022-04-05T12:20:20Z</time>
      </trkpt>
      <trkpt lat="44.87361" lon="0.34253">
        <ele>27</ele>
        <time>2022-04-05T12:20:21Z</time>
      </trkpt>
      <trkpt lat="44.87361" lon="0.34253">
        <ele>27</ele>
        <time>2022-04-05T12:20:22Z</time>
      </trkpt>
      <trkpt lat="44.87361" lon="0.34253">
        <ele>27</ele>
        <time>2022-04-05T12:20:23Z</time>
      </trkpt>
      <trkpt lat="44.87361" lon="0.34253">
        <ele>27</ele>
        <time>2022-04-05T12:20:24Z</time>
      </trkpt>
      <trkpt lat="44.87361" lon="0.34253">
        <ele>27</ele>
        <time>2022-04-05T12:20:25Z</time>
      </trkpt>
      <trkpt lat="44.87361" lon="0.34253">
        <ele>27</ele>
        <time>2022-04-05T12:20:26Z</time>
      </trkpt>
      <trkpt lat="44.87362" lon="0.34253">
        <ele>27</ele>
        <time>2022-04-05T12:20:27Z</time>
      </trkpt>
      <trkpt lat="44.87363" lon="0.34253">
        <ele>27</ele>
        <time>2022-04-05T12:20:28Z</time>
      </trkpt>
      <trkpt lat="44.87364" lon="0.34253">
        <ele>27</ele>
        <time>2022-04-05T12:20:29Z</time>
      </trkpt>
      <trkpt lat="44.87365" lon="0.34253">
        <ele>27</ele>
        <time>2022-04-05T12:20:30Z</time>
      </trkpt>
      <trkpt lat="44.87367" lon="0.34253">
        <ele>27</ele>
        <time>2022-04-05T12:20:31Z</time>
      </trkpt>
      <trkpt lat="44.87368" lon="0.34253">
        <ele>27</ele>
        <time>2022-04-05T12:20:32Z</time>
      </trkpt>
      <trkpt lat="44.87369" lon="0.34253">
        <ele>27</ele>
        <time>2022-04-05T12:20:33Z</time>
      </trkpt>
      <trkpt lat="44.8737" lon="0.34252">
        <ele>27</ele>
        <time>2022-04-05T12:20:34Z</time>
      </trkpt>
      <trkpt lat="44.8737" lon="0.34252">
        <ele>27</ele>
        <time>2022-04-05T12:20:35Z</time>
      </trkpt>
      <trkpt lat="44.8737" lon="0.34252">
        <ele>27</ele>
        <time>2022-04-05T12:20:36Z</time>
      </trkpt>
      <trkpt lat="44.8737" lon="0.34252">
        <ele>27</ele>
        <time>2022-04-05T12:20:37Z</time>
      </trkpt>
      <trkpt lat="44.8737" lon="0.34252">
        <ele>27</ele>
        <time>2022-04-05T12:20:39Z</time>
      </trkpt>
      <trkpt lat="44.8737" lon="0.34252">
        <ele>27</ele>
        <time>2022-04-05T12:20:40Z</time>
      </trkpt>
      <trkpt lat="44.8737" lon="0.34252">
        <ele>27</ele>
        <time>2022-04-05T12:20:41Z</time>
      </trkpt>
      <trkpt lat="44.8737" lon="0.34252">
        <ele>27</ele>
        <time>2022-04-05T12:20:43Z</time>
      </trkpt>
      <trkpt lat="44.8737" lon="0.34252">
        <ele>27</ele>
        <time>2022-04-05T12:20:44Z</time>
      </trkpt>
      <trkpt lat="44.8737" lon="0.34252">
        <ele>27</ele>
        <time>2022-04-05T12:20:45Z</time>
      </trkpt>
      <trkpt lat="44.8737" lon="0.34252">
        <ele>27</ele>
        <time>2022-04-05T12:20:46Z</time>
      </trkpt>
      <trkpt lat="44.8737" lon="0.34252">
        <ele>27</ele>
        <time>2022-04-05T12:20:47Z</time>
      </trkpt>
      <trkpt lat="44.8737" lon="0.34252">
        <ele>27</ele>
        <time>2022-04-05T12:20:48Z</time>
      </trkpt>
      <trkpt lat="44.8737" lon="0.34252">
        <ele>27</ele>
        <time>2022-04-05T12:20:49Z</time>
      </trkpt>
      <trkpt lat="44.87371" lon="0.34252">
        <ele>27</ele>
        <time>2022-04-05T12:20:50Z</time>
      </trkpt>
      <trkpt lat="44.87371" lon="0.34252">
        <ele>27</ele>
        <time>2022-04-05T12:20:51Z</time>
      </trkpt>
      <trkpt lat="44.87371" lon="0.34252">
        <ele>27</ele>
        <time>2022-04-05T12:20:52Z</time>
      </trkpt>
      <trkpt lat="44.87371" lon="0.34252">
        <ele>27</ele>
        <time>2022-04-05T12:20:53Z</time>
      </trkpt>
      <trkpt lat="44.87371" lon="0.34252">
        <ele>27</ele>
        <time>2022-04-05T12:20:54Z</time>
      </trkpt>
      <trkpt lat="44.87371" lon="0.34252">
        <ele>27</ele>
        <time>2022-04-05T12:20:55Z</time>
      </trkpt>
      <trkpt lat="44.87371" lon="0.34252">
        <ele>27</ele>
        <time>2022-04-05T12:20:56Z</time>
      </trkpt>
      <trkpt lat="44.87371" lon="0.34252">
        <ele>27</ele>
        <time>2022-04-05T12:20:57Z</time>
      </trkpt>
      <trkpt lat="44.87371" lon="0.34252">
        <ele>27</ele>
        <time>2022-04-05T12:20:58Z</time>
      </trkpt>
      <trkpt lat="44.87371" lon="0.34252">
        <ele>27</ele>
        <time>2022-04-05T12:20:59Z</time>
      </trkpt>
      <trkpt lat="44.87371" lon="0.34252">
        <ele>27</ele>
        <time>2022-04-05T12:21:00Z</time>
      </trkpt>
      <trkpt lat="44.87371" lon="0.34252">
        <ele>27</ele>
        <time>2022-04-05T12:21:01Z</time>
      </trkpt>
      <trkpt lat="44.87371" lon="0.34252">
        <ele>27</ele>
        <time>2022-04-05T12:21:02Z</time>
      </trkpt>
      <trkpt lat="44.87371" lon="0.34252">
        <ele>27</ele>
        <time>2022-04-05T12:21:03Z</time>
      </trkpt>
      <trkpt lat="44.87371" lon="0.34252">
        <ele>27</ele>
        <time>2022-04-05T12:21:04Z</time>
      </trkpt>
      <trkpt lat="44.87371" lon="0.34252">
        <ele>27</ele>
        <time>2022-04-05T12:21:05Z</time>
      </trkpt>
      <trkpt lat="44.87371" lon="0.34251">
        <ele>27</ele>
        <time>2022-04-05T12:21:06Z</time>
      </trkpt>
      <trkpt lat="44.87371" lon="0.34251">
        <ele>27</ele>
        <time>2022-04-05T12:21:07Z</time>
      </trkpt>
      <trkpt lat="44.87371" lon="0.34251">
        <ele>27</ele>
        <time>2022-04-05T12:21:08Z</time>
      </trkpt>
      <trkpt lat="44.87371" lon="0.34251">
        <ele>27</ele>
        <time>2022-04-05T12:21:09Z</time>
      </trkpt>
      <trkpt lat="44.87372" lon="0.34251">
        <ele>27</ele>
        <time>2022-04-05T12:21:10Z</time>
      </trkpt>
      <trkpt lat="44.87372" lon="0.34251">
        <ele>27</ele>
        <time>2022-04-05T12:21:11Z</time>
      </trkpt>
      <trkpt lat="44.87372" lon="0.34251">
        <ele>27</ele>
        <time>2022-04-05T12:21:12Z</time>
      </trkpt>
      <trkpt lat="44.87372" lon="0.34251">
        <ele>27</ele>
        <time>2022-04-05T12:21:13Z</time>
      </trkpt>
      <trkpt lat="44.87372" lon="0.34251">
        <ele>27</ele>
        <time>2022-04-05T12:21:14Z</time>
      </trkpt>
      <trkpt lat="44.87372" lon="0.34251">
        <ele>27</ele>
        <time>2022-04-05T12:21:15Z</time>
      </trkpt>
      <trkpt lat="44.87372" lon="0.34251">
        <ele>27</ele>
        <time>2022-04-05T12:21:16Z</time>
      </trkpt>
      <trkpt lat="44.87372" lon="0.34251">
        <ele>27</ele>
        <time>2022-04-05T12:21:17Z</time>
      </trkpt>
      <trkpt lat="44.87372" lon="0.34251">
        <ele>27</ele>
        <time>2022-04-05T12:21:18Z</time>
      </trkpt>
      <trkpt lat="44.87372" lon="0.34251">
        <ele>27</ele>
        <time>2022-04-05T12:21:19Z</time>
      </trkpt>
      <trkpt lat="44.87372" lon="0.34251">
        <ele>27</ele>
        <time>2022-04-05T12:21:20Z</time>
      </trkpt>
      <trkpt lat="44.87372" lon="0.34251">
        <ele>27</ele>
        <time>2022-04-05T12:21:21Z</time>
      </trkpt>
      <trkpt lat="44.87372" lon="0.34251">
        <ele>27</ele>
        <time>2022-04-05T12:21:22Z</time>
      </trkpt>
      <trkpt lat="44.87372" lon="0.34251">
        <ele>27</ele>
        <time>2022-04-05T12:21:23Z</time>
      </trkpt>
      <trkpt lat="44.87372" lon="0.34251">
        <ele>27</ele>
        <time>2022-04-05T12:21:24Z</time>
      </trkpt>
      <trkpt lat="44.87372" lon="0.34251">
        <ele>27</ele>
        <time>2022-04-05T12:21:25Z</time>
      </trkpt>
      <trkpt lat="44.87373" lon="0.34251">
        <ele>27</ele>
        <time>2022-04-05T12:21:26Z</time>
      </trkpt>
      <trkpt lat="44.87373" lon="0.34251">
        <ele>27</ele>
        <time>2022-04-05T12:21:27Z</time>
      </trkpt>
      <trkpt lat="44.87373" lon="0.34251">
        <ele>27</ele>
        <time>2022-04-05T12:21:28Z</time>
      </trkpt>
      <trkpt lat="44.87373" lon="0.34251">
        <ele>27</ele>
        <time>2022-04-05T12:21:29Z</time>
      </trkpt>
      <trkpt lat="44.87375" lon="0.3425">
        <ele>27</ele>
        <time>2022-04-05T12:21:30Z</time>
      </trkpt>
      <trkpt lat="44.87376" lon="0.34249">
        <ele>27</ele>
        <time>2022-04-05T12:21:31Z</time>
      </trkpt>
      <trkpt lat="44.87378" lon="0.34249">
        <ele>27</ele>
        <time>2022-04-05T12:21:32Z</time>
      </trkpt>
      <trkpt lat="44.8738" lon="0.34248">
        <ele>27</ele>
        <time>2022-04-05T12:21:34Z</time>
      </trkpt>
      <trkpt lat="44.87381" lon="0.34248">
        <ele>27</ele>
        <time>2022-04-05T12:21:35Z</time>
      </trkpt>
      <trkpt lat="44.87383" lon="0.34248">
        <ele>27</ele>
        <time>2022-04-05T12:21:36Z</time>
      </trkpt>
      <trkpt lat="44.87386" lon="0.34248">
        <ele>27</ele>
        <time>2022-04-05T12:21:37Z</time>
      </trkpt>
      <trkpt lat="44.87387" lon="0.34248">
        <ele>27</ele>
        <time>2022-04-05T12:21:38Z</time>
      </trkpt>
      <trkpt lat="44.87388" lon="0.34248">
        <ele>27</ele>
        <time>2022-04-05T12:21:39Z</time>
      </trkpt>
      <trkpt lat="44.8739" lon="0.34248">
        <ele>27</ele>
        <time>2022-04-05T12:21:40Z</time>
      </trkpt>
      <trkpt lat="44.87393" lon="0.34248">
        <ele>27</ele>
        <time>2022-04-05T12:21:42Z</time>
      </trkpt>
      <trkpt lat="44.87394" lon="0.34248">
        <ele>27</ele>
        <time>2022-04-05T12:21:43Z</time>
      </trkpt>
      <trkpt lat="44.87396" lon="0.34248">
        <ele>27</ele>
        <time>2022-04-05T12:21:44Z</time>
      </trkpt>
      <trkpt lat="44.87397" lon="0.34248">
        <ele>27</ele>
        <time>2022-04-05T12:21:45Z</time>
      </trkpt>
      <trkpt lat="44.87398" lon="0.34248">
        <ele>27</ele>
        <time>2022-04-05T12:21:47Z</time>
      </trkpt>
      <trkpt lat="44.874" lon="0.34248">
        <ele>27</ele>
        <time>2022-04-05T12:21:48Z</time>
      </trkpt>
      <trkpt lat="44.87402" lon="0.34248">
        <ele>27</ele>
        <time>2022-04-05T12:21:49Z</time>
      </trkpt>
      <trkpt lat="44.87403" lon="0.34248">
        <ele>27</ele>
        <time>2022-04-05T12:21:50Z</time>
      </trkpt>
      <trkpt lat="44.87404" lon="0.34248">
        <ele>27</ele>
        <time>2022-04-05T12:21:51Z</time>
      </trkpt>
      <trkpt lat="44.87405" lon="0.34248">
        <ele>27</ele>
        <time>2022-04-05T12:21:52Z</time>
      </trkpt>
      <trkpt lat="44.87407" lon="0.34248">
        <ele>27</ele>
        <time>2022-04-05T12:21:53Z</time>
      </trkpt>
      <trkpt lat="44.87408" lon="0.34248">
        <ele>27</ele>
        <time>2022-04-05T12:21:54Z</time>
      </trkpt>
      <trkpt lat="44.87409" lon="0.34248">
        <ele>27</ele>
        <time>2022-04-05T12:21:55Z</time>
      </trkpt>
      <trkpt lat="44.87411" lon="0.34248">
        <ele>27</ele>
        <time>2022-04-05T12:21:56Z</time>
      </trkpt>
      <trkpt lat="44.87414" lon="0.34248">
        <ele>27</ele>
        <time>2022-04-05T12:21:57Z</time>
      </trkpt>
      <trkpt lat="44.87415" lon="0.34248">
        <ele>27</ele>
        <time>2022-04-05T12:21:59Z</time>
      </trkpt>
      <trkpt lat="44.87416" lon="0.34248">
        <ele>27</ele>
        <time>2022-04-05T12:22:00Z</time>
      </trkpt>
      <trkpt lat="44.87417" lon="0.34248">
        <ele>27</ele>
        <time>2022-04-05T12:22:01Z</time>
      </trkpt>
      <trkpt lat="44.87418" lon="0.34248">
        <ele>27</ele>
        <time>2022-04-05T12:22:02Z</time>
      </trkpt>
      <trkpt lat="44.87421" lon="0.34249">
        <ele>27</ele>
        <time>2022-04-05T12:22:03Z</time>
      </trkpt>
      <trkpt lat="44.87421" lon="0.34249">
        <ele>27</ele>
        <time>2022-04-05T12:22:04Z</time>
      </trkpt>
      <trkpt lat="44.87423" lon="0.34249">
        <ele>27</ele>
        <time>2022-04-05T12:22:05Z</time>
      </trkpt>
      <trkpt lat="44.87424" lon="0.34249">
        <ele>27</ele>
        <time>2022-04-05T12:22:06Z</time>
      </trkpt>
      <trkpt lat="44.87425" lon="0.3425">
        <ele>27</ele>
        <time>2022-04-05T12:22:07Z</time>
      </trkpt>
      <trkpt lat="44.87427" lon="0.34251">
        <ele>27</ele>
        <time>2022-04-05T12:22:08Z</time>
      </trkpt>
      <trkpt lat="44.87428" lon="0.34251">
        <ele>27</ele>
        <time>2022-04-05T12:22:09Z</time>
      </trkpt>
      <trkpt lat="44.87429" lon="0.34251">
        <ele>27</ele>
        <time>2022-04-05T12:22:10Z</time>
      </trkpt>
      <trkpt lat="44.87432" lon="0.34252">
        <ele>27</ele>
        <time>2022-04-05T12:22:12Z</time>
      </trkpt>
      <trkpt lat="44.87433" lon="0.34253">
        <ele>27</ele>
        <time>2022-04-05T12:22:14Z</time>
      </trkpt>
      <trkpt lat="44.87434" lon="0.34253">
        <ele>27</ele>
        <time>2022-04-05T12:22:16Z</time>
      </trkpt>
      <trkpt lat="44.87436" lon="0.34254">
        <ele>27</ele>
        <time>2022-04-05T12:22:17Z</time>
      </trkpt>
      <trkpt lat="44.87437" lon="0.34254">
        <ele>27</ele>
        <time>2022-04-05T12:22:18Z</time>
      </trkpt>
      <trkpt lat="44.87438" lon="0.34255">
        <ele>27.1</ele>
        <time>2022-04-05T12:22:19Z</time>
      </trkpt>
      <trkpt lat="44.87439" lon="0.34255">
        <ele>27.1</ele>
        <time>2022-04-05T12:22:20Z</time>
      </trkpt>
      <trkpt lat="44.87441" lon="0.34257">
        <ele>27.1</ele>
        <time>2022-04-05T12:22:21Z</time>
      </trkpt>
      <trkpt lat="44.87442" lon="0.34257">
        <ele>27.1</ele>
        <time>2022-04-05T12:22:22Z</time>
      </trkpt>
      <trkpt lat="44.87443" lon="0.34258">
        <ele>27.1</ele>
        <time>2022-04-05T12:22:23Z</time>
      </trkpt>
      <trkpt lat="44.87444" lon="0.34259">
        <ele>27.1</ele>
        <time>2022-04-05T12:22:24Z</time>
      </trkpt>
      <trkpt lat="44.87445" lon="0.3426">
        <ele>27.1</ele>
        <time>2022-04-05T12:22:25Z</time>
      </trkpt>
      <trkpt lat="44.87447" lon="0.34261">
        <ele>27.1</ele>
        <time>2022-04-05T12:22:26Z</time>
      </trkpt>
      <trkpt lat="44.87448" lon="0.34262">
        <ele>27.1</ele>
        <time>2022-04-05T12:22:27Z</time>
      </trkpt>
      <trkpt lat="44.87449" lon="0.34262">
        <ele>27.1</ele>
        <time>2022-04-05T12:22:28Z</time>
      </trkpt>
      <trkpt lat="44.87451" lon="0.34263">
        <ele>27.1</ele>
        <time>2022-04-05T12:22:29Z</time>
      </trkpt>
      <trkpt lat="44.87452" lon="0.34264">
        <ele>27.1</ele>
        <time>2022-04-05T12:22:31Z</time>
      </trkpt>
      <trkpt lat="44.87453" lon="0.34264">
        <ele>27.1</ele>
        <time>2022-04-05T12:22:32Z</time>
      </trkpt>
      <trkpt lat="44.87454" lon="0.34264">
        <ele>27.1</ele>
        <time>2022-04-05T12:22:33Z</time>
      </trkpt>
      <trkpt lat="44.87455" lon="0.34265">
        <ele>27.2</ele>
        <time>2022-04-05T12:22:34Z</time>
      </trkpt>
      <trkpt lat="44.87456" lon="0.34266">
        <ele>27.2</ele>
        <time>2022-04-05T12:22:35Z</time>
      </trkpt>
      <trkpt lat="44.87457" lon="0.34267">
        <ele>27.2</ele>
        <time>2022-04-05T12:22:36Z</time>
      </trkpt>
      <trkpt lat="44.87458" lon="0.34268">
        <ele>27.2</ele>
        <time>2022-04-05T12:22:37Z</time>
      </trkpt>
      <trkpt lat="44.87459" lon="0.34269">
        <ele>27.2</ele>
        <time>2022-04-05T12:22:38Z</time>
      </trkpt>
      <trkpt lat="44.87461" lon="0.3427">
        <ele>27.2</ele>
        <time>2022-04-05T12:22:39Z</time>
      </trkpt>
      <trkpt lat="44.87462" lon="0.34271">
        <ele>27.2</ele>
        <time>2022-04-05T12:22:40Z</time>
      </trkpt>
      <trkpt lat="44.87463" lon="0.34271">
        <ele>27.2</ele>
        <time>2022-04-05T12:22:41Z</time>
      </trkpt>
      <trkpt lat="44.87464" lon="0.34272">
        <ele>27.2</ele>
        <time>2022-04-05T12:22:42Z</time>
      </trkpt>
      <trkpt lat="44.87466" lon="0.34274">
        <ele>27.2</ele>
        <time>2022-04-05T12:22:44Z</time>
      </trkpt>
      <trkpt lat="44.87467" lon="0.34274">
        <ele>27.2</ele>
        <time>2022-04-05T12:22:45Z</time>
      </trkpt>
      <trkpt lat="44.87469" lon="0.34276">
        <ele>27.3</ele>
        <time>2022-04-05T12:22:46Z</time>
      </trkpt>
      <trkpt lat="44.87469" lon="0.34276">
        <ele>27.3</ele>
        <time>2022-04-05T12:22:47Z</time>
      </trkpt>
      <trkpt lat="44.8747" lon="0.34277">
        <ele>27.3</ele>
        <time>2022-04-05T12:22:48Z</time>
      </trkpt>
      <trkpt lat="44.87473" lon="0.34278">
        <ele>27.3</ele>
        <time>2022-04-05T12:22:49Z</time>
      </trkpt>
      <trkpt lat="44.87474" lon="0.34279">
        <ele>27.3</ele>
        <time>2022-04-05T12:22:51Z</time>
      </trkpt>
      <trkpt lat="44.87475" lon="0.3428">
        <ele>27.3</ele>
        <time>2022-04-05T12:22:52Z</time>
      </trkpt>
      <trkpt lat="44.87476" lon="0.34281">
        <ele>27.3</ele>
        <time>2022-04-05T12:22:53Z</time>
      </trkpt>
      <trkpt lat="44.87477" lon="0.34281">
        <ele>27.4</ele>
        <time>2022-04-05T12:22:54Z</time>
      </trkpt>
      <trkpt lat="44.87478" lon="0.34282">
        <ele>27.4</ele>
        <time>2022-04-05T12:22:55Z</time>
      </trkpt>
      <trkpt lat="44.87479" lon="0.34283">
        <ele>27.4</ele>
        <time>2022-04-05T12:22:56Z</time>
      </trkpt>
      <trkpt lat="44.8748" lon="0.34283">
        <ele>27.4</ele>
        <time>2022-04-05T12:22:57Z</time>
      </trkpt>
      <trkpt lat="44.87482" lon="0.34284">
        <ele>27.4</ele>
        <time>2022-04-05T12:22:58Z</time>
      </trkpt>
      <trkpt lat="44.87483" lon="0.34285">
        <ele>27.4</ele>
        <time>2022-04-05T12:22:59Z</time>
      </trkpt>
      <trkpt lat="44.87484" lon="0.34285">
        <ele>27.5</ele>
        <time>2022-04-05T12:23:00Z</time>
      </trkpt>
      <trkpt lat="44.87485" lon="0.34286">
        <ele>27.5</ele>
        <time>2022-04-05T12:23:01Z</time>
      </trkpt>
      <trkpt lat="44.87486" lon="0.34287">
        <ele>27.5</ele>
        <time>2022-04-05T12:23:03Z</time>
      </trkpt>
      <trkpt lat="44.87488" lon="0.34289">
        <ele>27.5</ele>
        <time>2022-04-05T12:23:04Z</time>
      </trkpt>
      <trkpt lat="44.87489" lon="0.34289">
        <ele>27.5</ele>
        <time>2022-04-05T12:23:05Z</time>
      </trkpt>
      <trkpt lat="44.87489" lon="0.3429">
        <ele>27.5</ele>
        <time>2022-04-05T12:23:06Z</time>
      </trkpt>
      <trkpt lat="44.87491" lon="0.34291">
        <ele>27.6</ele>
        <time>2022-04-05T12:23:07Z</time>
      </trkpt>
      <trkpt lat="44.87492" lon="0.34292">
        <ele>27.6</ele>
        <time>2022-04-05T12:23:08Z</time>
      </trkpt>
      <trkpt lat="44.87493" lon="0.34293">
        <ele>27.6</ele>
        <time>2022-04-05T12:23:09Z</time>
      </trkpt>
      <trkpt lat="44.87494" lon="0.34293">
        <ele>27.6</ele>
        <time>2022-04-05T12:23:10Z</time>
      </trkpt>
      <trkpt lat="44.87495" lon="0.34294">
        <ele>27.6</ele>
        <time>2022-04-05T12:23:11Z</time>
      </trkpt>
      <trkpt lat="44.87496" lon="0.34294">
        <ele>27.7</ele>
        <time>2022-04-05T12:23:12Z</time>
      </trkpt>
      <trkpt lat="44.87498" lon="0.34296">
        <ele>27.7</ele>
        <time>2022-04-05T12:23:13Z</time>
      </trkpt>
      <trkpt lat="44.87499" lon="0.34295">
        <ele>27.7</ele>
        <time>2022-04-05T12:23:14Z</time>
      </trkpt>
      <trkpt lat="44.875" lon="0.34296">
        <ele>27.7</ele>
        <time>2022-04-05T12:23:16Z</time>
      </trkpt>
      <trkpt lat="44.87501" lon="0.34297">
        <ele>27.8</ele>
        <time>2022-04-05T12:23:17Z</time>
      </trkpt>
      <trkpt lat="44.87502" lon="0.34297">
        <ele>27.8</ele>
        <time>2022-04-05T12:23:18Z</time>
      </trkpt>
      <trkpt lat="44.87504" lon="0.34298">
        <ele>27.8</ele>
        <time>2022-04-05T12:23:19Z</time>
      </trkpt>
      <trkpt lat="44.87506" lon="0.34298">
        <ele>27.8</ele>
        <time>2022-04-05T12:23:20Z</time>
      </trkpt>
      <trkpt lat="44.87506" lon="0.34299">
        <ele>27.9</ele>
        <time>2022-04-05T12:23:21Z</time>
      </trkpt>
      <trkpt lat="44.87507" lon="0.34299">
        <ele>27.9</ele>
        <time>2022-04-05T12:23:22Z</time>
      </trkpt>
      <trkpt lat="44.87508" lon="0.34299">
        <ele>27.9</ele>
        <time>2022-04-05T12:23:23Z</time>
      </trkpt>
      <trkpt lat="44.8751" lon="0.343">
        <ele>27.9</ele>
        <time>2022-04-05T12:23:24Z</time>
      </trkpt>
      <trkpt lat="44.87511" lon="0.343">
        <ele>27.9</ele>
        <time>2022-04-05T12:23:25Z</time>
      </trkpt>
      <trkpt lat="44.87512" lon="0.343">
        <ele>28</ele>
        <time>2022-04-05T12:23:27Z</time>
      </trkpt>
      <trkpt lat="44.87514" lon="0.343">
        <ele>28</ele>
        <time>2022-04-05T12:23:28Z</time>
      </trkpt>
      <trkpt lat="44.87515" lon="0.34301">
        <ele>28</ele>
        <time>2022-04-05T12:23:29Z</time>
      </trkpt>
      <trkpt lat="44.87516" lon="0.34301">
        <ele>28</ele>
        <time>2022-04-05T12:23:30Z</time>
      </trkpt>
      <trkpt lat="44.87518" lon="0.34301">
        <ele>28</ele>
        <time>2022-04-05T12:23:31Z</time>
      </trkpt>
      <trkpt lat="44.87519" lon="0.34302">
        <ele>28.1</ele>
        <time>2022-04-05T12:23:32Z</time>
      </trkpt>
      <trkpt lat="44.87522" lon="0.34302">
        <ele>28.1</ele>
        <time>2022-04-05T12:23:33Z</time>
      </trkpt>
      <trkpt lat="44.87523" lon="0.34302">
        <ele>28.1</ele>
        <time>2022-04-05T12:23:35Z</time>
      </trkpt>
      <trkpt lat="44.87524" lon="0.34302">
        <ele>28.1</ele>
        <time>2022-04-05T12:23:36Z</time>
      </trkpt>
      <trkpt lat="44.87525" lon="0.34302">
        <ele>28.2</ele>
        <time>2022-04-05T12:23:37Z</time>
      </trkpt>
      <trkpt lat="44.87526" lon="0.34302">
        <ele>28.2</ele>
        <time>2022-04-05T12:23:38Z</time>
      </trkpt>
      <trkpt lat="44.87528" lon="0.34302">
        <ele>28.2</ele>
        <time>2022-04-05T12:23:39Z</time>
      </trkpt>
      <trkpt lat="44.87529" lon="0.34302">
        <ele>28.2</ele>
        <time>2022-04-05T12:23:40Z</time>
      </trkpt>
      <trkpt lat="44.87531" lon="0.34302">
        <ele>28.2</ele>
        <time>2022-04-05T12:23:41Z</time>
      </trkpt>
      <trkpt lat="44.87532" lon="0.34302">
        <ele>28.3</ele>
        <time>2022-04-05T12:23:42Z</time>
      </trkpt>
      <trkpt lat="44.87533" lon="0.34302">
        <ele>28.3</ele>
        <time>2022-04-05T12:23:43Z</time>
      </trkpt>
      <trkpt lat="44.87534" lon="0.34301">
        <ele>28.3</ele>
        <time>2022-04-05T12:23:44Z</time>
      </trkpt>
      <trkpt lat="44.87535" lon="0.34301">
        <ele>28.3</ele>
        <time>2022-04-05T12:23:46Z</time>
      </trkpt>
      <trkpt lat="44.87537" lon="0.343">
        <ele>28.3</ele>
        <time>2022-04-05T12:23:47Z</time>
      </trkpt>
      <trkpt lat="44.87538" lon="0.34299">
        <ele>28.3</ele>
        <time>2022-04-05T12:23:48Z</time>
      </trkpt>
      <trkpt lat="44.8754" lon="0.34298">
        <ele>28.3</ele>
        <time>2022-04-05T12:23:49Z</time>
      </trkpt>
      <trkpt lat="44.87541" lon="0.34298">
        <ele>28.3</ele>
        <time>2022-04-05T12:23:50Z</time>
      </trkpt>
      <trkpt lat="44.87542" lon="0.34298">
        <ele>28.4</ele>
        <time>2022-04-05T12:23:51Z</time>
      </trkpt>
      <trkpt lat="44.87543" lon="0.34298">
        <ele>28.4</ele>
        <time>2022-04-05T12:23:52Z</time>
      </trkpt>
      <trkpt lat="44.87546" lon="0.34298">
        <ele>28.4</ele>
        <time>2022-04-05T12:23:53Z</time>
      </trkpt>
      <trkpt lat="44.87547" lon="0.34298">
        <ele>28.4</ele>
        <time>2022-04-05T12:23:55Z</time>
      </trkpt>
      <trkpt lat="44.87548" lon="0.34298">
        <ele>28.4</ele>
        <time>2022-04-05T12:23:56Z</time>
      </trkpt>
      <trkpt lat="44.8755" lon="0.34298">
        <ele>28.4</ele>
        <time>2022-04-05T12:23:57Z</time>
      </trkpt>
      <trkpt lat="44.87551" lon="0.34298">
        <ele>28.5</ele>
        <time>2022-04-05T12:23:58Z</time>
      </trkpt>
      <trkpt lat="44.87553" lon="0.34297">
        <ele>28.5</ele>
        <time>2022-04-05T12:23:59Z</time>
      </trkpt>
      <trkpt lat="44.87554" lon="0.34297">
        <ele>28.5</ele>
        <time>2022-04-05T12:24:00Z</time>
      </trkpt>
      <trkpt lat="44.87555" lon="0.34297">
        <ele>28.5</ele>
        <time>2022-04-05T12:24:01Z</time>
      </trkpt>
      <trkpt lat="44.87557" lon="0.34297">
        <ele>28.5</ele>
        <time>2022-04-05T12:24:03Z</time>
      </trkpt>
      <trkpt lat="44.87558" lon="0.34297">
        <ele>28.5</ele>
        <time>2022-04-05T12:24:04Z</time>
      </trkpt>
      <trkpt lat="44.87558" lon="0.34297">
        <ele>28.5</ele>
        <time>2022-04-05T12:24:05Z</time>
      </trkpt>
      <trkpt lat="44.87558" lon="0.34297">
        <ele>28.5</ele>
        <time>2022-04-05T12:24:06Z</time>
      </trkpt>
      <trkpt lat="44.87558" lon="0.34297">
        <ele>28.6</ele>
        <time>2022-04-05T12:24:07Z</time>
      </trkpt>
      <trkpt lat="44.87558" lon="0.34297">
        <ele>28.6</ele>
        <time>2022-04-05T12:24:08Z</time>
      </trkpt>
      <trkpt lat="44.87557" lon="0.34297">
        <ele>28.6</ele>
        <time>2022-04-05T12:24:10Z</time>
      </trkpt>
      <trkpt lat="44.87557" lon="0.34297">
        <ele>28.6</ele>
        <time>2022-04-05T12:24:11Z</time>
      </trkpt>
      <trkpt lat="44.87557" lon="0.34297">
        <ele>28.6</ele>
        <time>2022-04-05T12:24:12Z</time>
      </trkpt>
      <trkpt lat="44.87557" lon="0.34297">
        <ele>28.6</ele>
        <time>2022-04-05T12:24:13Z</time>
      </trkpt>
      <trkpt lat="44.87556" lon="0.34297">
        <ele>28.6</ele>
        <time>2022-04-05T12:24:14Z</time>
      </trkpt>
      <trkpt lat="44.87556" lon="0.34297">
        <ele>28.6</ele>
        <time>2022-04-05T12:24:15Z</time>
      </trkpt>
      <trkpt lat="44.87556" lon="0.34298">
        <ele>28.6</ele>
        <time>2022-04-05T12:24:17Z</time>
      </trkpt>
      <trkpt lat="44.87556" lon="0.34298">
        <ele>28.6</ele>
        <time>2022-04-05T12:24:18Z</time>
      </trkpt>
      <trkpt lat="44.87557" lon="0.34298">
        <ele>28.6</ele>
        <time>2022-04-05T12:24:19Z</time>
      </trkpt>
      <trkpt lat="44.87558" lon="0.34298">
        <ele>28.6</ele>
        <time>2022-04-05T12:24:20Z</time>
      </trkpt>
      <trkpt lat="44.8756" lon="0.34298">
        <ele>28.6</ele>
        <time>2022-04-05T12:24:21Z</time>
      </trkpt>
      <trkpt lat="44.87562" lon="0.34298">
        <ele>28.6</ele>
        <time>2022-04-05T12:24:22Z</time>
      </trkpt>
      <trkpt lat="44.87564" lon="0.34298">
        <ele>28.6</ele>
        <time>2022-04-05T12:24:23Z</time>
      </trkpt>
      <trkpt lat="44.87565" lon="0.34298">
        <ele>28.6</ele>
        <time>2022-04-05T12:24:24Z</time>
      </trkpt>
      <trkpt lat="44.87567" lon="0.34298">
        <ele>28.6</ele>
        <time>2022-04-05T12:24:26Z</time>
      </trkpt>
      <trkpt lat="44.87569" lon="0.34298">
        <ele>28.6</ele>
        <time>2022-04-05T12:24:27Z</time>
      </trkpt>
      <trkpt lat="44.8757" lon="0.34298">
        <ele>28.6</ele>
        <time>2022-04-05T12:24:28Z</time>
      </trkpt>
      <trkpt lat="44.87573" lon="0.34297">
        <ele>28.6</ele>
        <time>2022-04-05T12:24:29Z</time>
      </trkpt>
      <trkpt lat="44.87575" lon="0.34296">
        <ele>28.6</ele>
        <time>2022-04-05T12:24:30Z</time>
      </trkpt>
      <trkpt lat="44.87576" lon="0.34296">
        <ele>28.6</ele>
        <time>2022-04-05T12:24:31Z</time>
      </trkpt>
      <trkpt lat="44.87577" lon="0.34296">
        <ele>28.6</ele>
        <time>2022-04-05T12:24:32Z</time>
      </trkpt>
      <trkpt lat="44.87579" lon="0.34295">
        <ele>28.6</ele>
        <time>2022-04-05T12:24:34Z</time>
      </trkpt>
      <trkpt lat="44.8758" lon="0.34295">
        <ele>28.6</ele>
        <time>2022-04-05T12:24:35Z</time>
      </trkpt>
      <trkpt lat="44.87581" lon="0.34295">
        <ele>28.6</ele>
        <time>2022-04-05T12:24:36Z</time>
      </trkpt>
      <trkpt lat="44.87583" lon="0.34295">
        <ele>28.6</ele>
        <time>2022-04-05T12:24:37Z</time>
      </trkpt>
      <trkpt lat="44.87585" lon="0.34296">
        <ele>28.6</ele>
        <time>2022-04-05T12:24:38Z</time>
      </trkpt>
      <trkpt lat="44.87586" lon="0.34296">
        <ele>28.6</ele>
        <time>2022-04-05T12:24:39Z</time>
      </trkpt>
      <trkpt lat="44.87589" lon="0.34296">
        <ele>28.6</ele>
        <time>2022-04-05T12:24:41Z</time>
      </trkpt>
      <trkpt lat="44.8759" lon="0.34296">
        <ele>28.5</ele>
        <time>2022-04-05T12:24:42Z</time>
      </trkpt>
      <trkpt lat="44.87591" lon="0.34296">
        <ele>28.5</ele>
        <time>2022-04-05T12:24:43Z</time>
      </trkpt>
      <trkpt lat="44.87593" lon="0.34296">
        <ele>28.5</ele>
        <time>2022-04-05T12:24:44Z</time>
      </trkpt>
      <trkpt lat="44.87594" lon="0.34296">
        <ele>28.5</ele>
        <time>2022-04-05T12:24:45Z</time>
      </trkpt>
      <trkpt lat="44.87594" lon="0.34296">
        <ele>28.5</ele>
        <time>2022-04-05T12:24:46Z</time>
      </trkpt>
      <trkpt lat="44.87596" lon="0.34296">
        <ele>28.5</ele>
        <time>2022-04-05T12:24:47Z</time>
      </trkpt>
      <trkpt lat="44.87597" lon="0.34296">
        <ele>28.5</ele>
        <time>2022-04-05T12:24:48Z</time>
      </trkpt>
      <trkpt lat="44.876" lon="0.34296">
        <ele>28.4</ele>
        <time>2022-04-05T12:24:49Z</time>
      </trkpt>
      <trkpt lat="44.876" lon="0.34296">
        <ele>28.4</ele>
        <time>2022-04-05T12:24:50Z</time>
      </trkpt>
      <trkpt lat="44.87602" lon="0.34296">
        <ele>28.4</ele>
        <time>2022-04-05T12:24:51Z</time>
      </trkpt>
      <trkpt lat="44.87604" lon="0.34297">
        <ele>28.4</ele>
        <time>2022-04-05T12:24:53Z</time>
      </trkpt>
      <trkpt lat="44.87607" lon="0.34297">
        <ele>28.4</ele>
        <time>2022-04-05T12:24:54Z</time>
      </trkpt>
      <trkpt lat="44.87607" lon="0.34297">
        <ele>28.3</ele>
        <time>2022-04-05T12:24:55Z</time>
      </trkpt>
      <trkpt lat="44.87609" lon="0.34296">
        <ele>28.3</ele>
        <time>2022-04-05T12:24:56Z</time>
      </trkpt>
      <trkpt lat="44.8761" lon="0.34296">
        <ele>28.3</ele>
        <time>2022-04-05T12:24:57Z</time>
      </trkpt>
      <trkpt lat="44.87611" lon="0.34296">
        <ele>28.3</ele>
        <time>2022-04-05T12:24:58Z</time>
      </trkpt>
      <trkpt lat="44.87613" lon="0.34296">
        <ele>28.3</ele>
        <time>2022-04-05T12:24:59Z</time>
      </trkpt>
      <trkpt lat="44.87614" lon="0.34296">
        <ele>28.3</ele>
        <time>2022-04-05T12:25:00Z</time>
      </trkpt>
      <trkpt lat="44.87615" lon="0.34296">
        <ele>28.2</ele>
        <time>2022-04-05T12:25:01Z</time>
      </trkpt>
      <trkpt lat="44.87617" lon="0.34296">
        <ele>28.2</ele>
        <time>2022-04-05T12:25:03Z</time>
      </trkpt>
      <trkpt lat="44.87618" lon="0.34295">
        <ele>28.2</ele>
        <time>2022-04-05T12:25:04Z</time>
      </trkpt>
      <trkpt lat="44.8762" lon="0.34294">
        <ele>28.2</ele>
        <time>2022-04-05T12:25:05Z</time>
      </trkpt>
      <trkpt lat="44.87622" lon="0.34294">
        <ele>28.2</ele>
        <time>2022-04-05T12:25:06Z</time>
      </trkpt>
      <trkpt lat="44.87623" lon="0.34294">
        <ele>28.2</ele>
        <time>2022-04-05T12:25:07Z</time>
      </trkpt>
      <trkpt lat="44.87623" lon="0.34294">
        <ele>28.2</ele>
        <time>2022-04-05T12:25:08Z</time>
      </trkpt>
      <trkpt lat="44.87626" lon="0.34293">
        <ele>28.1</ele>
        <time>2022-04-05T12:25:09Z</time>
      </trkpt>
      <trkpt lat="44.87627" lon="0.34293">
        <ele>28.1</ele>
        <time>2022-04-05T12:25:11Z</time>
      </trkpt>
      <trkpt lat="44.87629" lon="0.34294">
        <ele>28.1</ele>
        <time>2022-04-05T12:25:12Z</time>
      </trkpt>
      <trkpt lat="44.8763" lon="0.34294">
        <ele>28.1</ele>
        <time>2022-04-05T12:25:13Z</time>
      </trkpt>
      <trkpt lat="44.87631" lon="0.34294">
        <ele>28.1</ele>
        <time>2022-04-05T12:25:14Z</time>
      </trkpt>
      <trkpt lat="44.87632" lon="0.34294">
        <ele>28.1</ele>
        <time>2022-04-05T12:25:15Z</time>
      </trkpt>
      <trkpt lat="44.87633" lon="0.34294">
        <ele>28.1</ele>
        <time>2022-04-05T12:25:16Z</time>
      </trkpt>
      <trkpt lat="44.87634" lon="0.34294">
        <ele>28.1</ele>
        <time>2022-04-05T12:25:17Z</time>
      </trkpt>
      <trkpt lat="44.87635" lon="0.34294">
        <ele>28</ele>
        <time>2022-04-05T12:25:18Z</time>
      </trkpt>
      <trkpt lat="44.87637" lon="0.34294">
        <ele>28</ele>
        <time>2022-04-05T12:25:19Z</time>
      </trkpt>
      <trkpt lat="44.87638" lon="0.34295">
        <ele>28</ele>
        <time>2022-04-05T12:25:20Z</time>
      </trkpt>
      <trkpt lat="44.87639" lon="0.34295">
        <ele>28</ele>
        <time>2022-04-05T12:25:21Z</time>
      </trkpt>
      <trkpt lat="44.87641" lon="0.34295">
        <ele>28</ele>
        <time>2022-04-05T12:25:22Z</time>
      </trkpt>
      <trkpt lat="44.87642" lon="0.34295">
        <ele>28</ele>
        <time>2022-04-05T12:25:23Z</time>
      </trkpt>
      <trkpt lat="44.87644" lon="0.34295">
        <ele>28</ele>
        <time>2022-04-05T12:25:25Z</time>
      </trkpt>
      <trkpt lat="44.87647" lon="0.34295">
        <ele>28</ele>
        <time>2022-04-05T12:25:26Z</time>
      </trkpt>
      <trkpt lat="44.87647" lon="0.34295">
        <ele>28</ele>
        <time>2022-04-05T12:25:27Z</time>
      </trkpt>
      <trkpt lat="44.87649" lon="0.34295">
        <ele>28</ele>
        <time>2022-04-05T12:25:28Z</time>
      </trkpt>
      <trkpt lat="44.8765" lon="0.34295">
        <ele>28</ele>
        <time>2022-04-05T12:25:29Z</time>
      </trkpt>
      <trkpt lat="44.87651" lon="0.34295">
        <ele>28</ele>
        <time>2022-04-05T12:25:30Z</time>
      </trkpt>
      <trkpt lat="44.87653" lon="0.34295">
        <ele>28</ele>
        <time>2022-04-05T12:25:32Z</time>
      </trkpt>
      <trkpt lat="44.87654" lon="0.34295">
        <ele>28</ele>
        <time>2022-04-05T12:25:33Z</time>
      </trkpt>
      <trkpt lat="44.87656" lon="0.34296">
        <ele>28</ele>
        <time>2022-04-05T12:25:34Z</time>
      </trkpt>
      <trkpt lat="44.87657" lon="0.34296">
        <ele>28</ele>
        <time>2022-04-05T12:25:35Z</time>
      </trkpt>
      <trkpt lat="44.87659" lon="0.34296">
        <ele>28</ele>
        <time>2022-04-05T12:25:36Z</time>
      </trkpt>
      <trkpt lat="44.8766" lon="0.34295">
        <ele>28</ele>
        <time>2022-04-05T12:25:38Z</time>
      </trkpt>
      <trkpt lat="44.87663" lon="0.34296">
        <ele>28</ele>
        <time>2022-04-05T12:25:40Z</time>
      </trkpt>
      <trkpt lat="44.87663" lon="0.34296">
        <ele>28</ele>
        <time>2022-04-05T12:25:41Z</time>
      </trkpt>
      <trkpt lat="44.87665" lon="0.34296">
        <ele>28</ele>
        <time>2022-04-05T12:25:42Z</time>
      </trkpt>
      <trkpt lat="44.87666" lon="0.34296">
        <ele>28</ele>
        <time>2022-04-05T12:25:43Z</time>
      </trkpt>
      <trkpt lat="44.87668" lon="0.34296">
        <ele>28</ele>
        <time>2022-04-05T12:25:44Z</time>
      </trkpt>
      <trkpt lat="44.87669" lon="0.34296">
        <ele>28</ele>
        <time>2022-04-05T12:25:45Z</time>
      </trkpt>
      <trkpt lat="44.8767" lon="0.34296">
        <ele>28</ele>
        <time>2022-04-05T12:25:46Z</time>
      </trkpt>
      <trkpt lat="44.87672" lon="0.34297">
        <ele>28</ele>
        <time>2022-04-05T12:25:47Z</time>
      </trkpt>
      <trkpt lat="44.87674" lon="0.34298">
        <ele>28</ele>
        <time>2022-04-05T12:25:48Z</time>
      </trkpt>
      <trkpt lat="44.87675" lon="0.34299">
        <ele>28</ele>
        <time>2022-04-05T12:25:50Z</time>
      </trkpt>
      <trkpt lat="44.87676" lon="0.34299">
        <ele>28</ele>
        <time>2022-04-05T12:25:51Z</time>
      </trkpt>
      <trkpt lat="44.87677" lon="0.343">
        <ele>28</ele>
        <time>2022-04-05T12:25:52Z</time>
      </trkpt>
      <trkpt lat="44.87678" lon="0.34301">
        <ele>28</ele>
        <time>2022-04-05T12:25:53Z</time>
      </trkpt>
      <trkpt lat="44.8768" lon="0.34302">
        <ele>28</ele>
        <time>2022-04-05T12:25:54Z</time>
      </trkpt>
      <trkpt lat="44.87681" lon="0.34302">
        <ele>28.1</ele>
        <time>2022-04-05T12:25:55Z</time>
      </trkpt>
      <trkpt lat="44.87682" lon="0.34301">
        <ele>28.1</ele>
        <time>2022-04-05T12:25:56Z</time>
      </trkpt>
      <trkpt lat="44.87683" lon="0.34301">
        <ele>28.1</ele>
        <time>2022-04-05T12:25:57Z</time>
      </trkpt>
      <trkpt lat="44.87686" lon="0.343">
        <ele>28.1</ele>
        <time>2022-04-05T12:25:59Z</time>
      </trkpt>
      <trkpt lat="44.87688" lon="0.34299">
        <ele>28.1</ele>
        <time>2022-04-05T12:26:01Z</time>
      </trkpt>
      <trkpt lat="44.87689" lon="0.34299">
        <ele>28.1</ele>
        <time>2022-04-05T12:26:02Z</time>
      </trkpt>
      <trkpt lat="44.87689" lon="0.34299">
        <ele>28.1</ele>
        <time>2022-04-05T12:26:03Z</time>
      </trkpt>
      <trkpt lat="44.87692" lon="0.34298">
        <ele>28.1</ele>
        <time>2022-04-05T12:26:04Z</time>
      </trkpt>
      <trkpt lat="44.87693" lon="0.34297">
        <ele>28.1</ele>
        <time>2022-04-05T12:26:05Z</time>
      </trkpt>
      <trkpt lat="44.87694" lon="0.34297">
        <ele>28.2</ele>
        <time>2022-04-05T12:26:07Z</time>
      </trkpt>
      <trkpt lat="44.87696" lon="0.34296">
        <ele>28.2</ele>
        <time>2022-04-05T12:26:08Z</time>
      </trkpt>
      <trkpt lat="44.87698" lon="0.34296">
        <ele>28.2</ele>
        <time>2022-04-05T12:26:09Z</time>
      </trkpt>
      <trkpt lat="44.87698" lon="0.34296">
        <ele>28.2</ele>
        <time>2022-04-05T12:26:10Z</time>
      </trkpt>
      <trkpt lat="44.87699" lon="0.34295">
        <ele>28.2</ele>
        <time>2022-04-05T12:26:11Z</time>
      </trkpt>
      <trkpt lat="44.877" lon="0.34295">
        <ele>28.2</ele>
        <time>2022-04-05T12:26:12Z</time>
      </trkpt>
      <trkpt lat="44.87702" lon="0.34295">
        <ele>28.2</ele>
        <time>2022-04-05T12:26:13Z</time>
      </trkpt>
      <trkpt lat="44.87704" lon="0.34294">
        <ele>28.2</ele>
        <time>2022-04-05T12:26:14Z</time>
      </trkpt>
      <trkpt lat="44.87705" lon="0.34294">
        <ele>28.2</ele>
        <time>2022-04-05T12:26:15Z</time>
      </trkpt>
      <trkpt lat="44.87706" lon="0.34293">
        <ele>28.3</ele>
        <time>2022-04-05T12:26:17Z</time>
      </trkpt>
      <trkpt lat="44.87707" lon="0.34292">
        <ele>28.3</ele>
        <time>2022-04-05T12:26:18Z</time>
      </trkpt>
      <trkpt lat="44.87709" lon="0.3429">
        <ele>28.3</ele>
        <time>2022-04-05T12:26:20Z</time>
      </trkpt>
      <trkpt lat="44.87711" lon="0.3429">
        <ele>28.3</ele>
        <time>2022-04-05T12:26:21Z</time>
      </trkpt>
      <trkpt lat="44.87712" lon="0.3429">
        <ele>28.3</ele>
        <time>2022-04-05T12:26:22Z</time>
      </trkpt>
      <trkpt lat="44.87713" lon="0.34289">
        <ele>28.3</ele>
        <time>2022-04-05T12:26:23Z</time>
      </trkpt>
      <trkpt lat="44.87714" lon="0.34287">
        <ele>28.4</ele>
        <time>2022-04-05T12:26:24Z</time>
      </trkpt>
      <trkpt lat="44.87716" lon="0.34286">
        <ele>28.4</ele>
        <time>2022-04-05T12:26:25Z</time>
      </trkpt>
      <trkpt lat="44.87717" lon="0.34286">
        <ele>28.4</ele>
        <time>2022-04-05T12:26:26Z</time>
      </trkpt>
      <trkpt lat="44.87718" lon="0.34285">
        <ele>28.4</ele>
        <time>2022-04-05T12:26:27Z</time>
      </trkpt>
      <trkpt lat="44.87719" lon="0.34284">
        <ele>28.4</ele>
        <time>2022-04-05T12:26:28Z</time>
      </trkpt>
      <trkpt lat="44.87721" lon="0.34285">
        <ele>28.5</ele>
        <time>2022-04-05T12:26:30Z</time>
      </trkpt>
      <trkpt lat="44.87722" lon="0.34286">
        <ele>28.5</ele>
        <time>2022-04-05T12:26:31Z</time>
      </trkpt>
      <trkpt lat="44.87722" lon="0.34287">
        <ele>28.5</ele>
        <time>2022-04-05T12:26:32Z</time>
      </trkpt>
      <trkpt lat="44.87722" lon="0.34292">
        <ele>28.5</ele>
        <time>2022-04-05T12:26:33Z</time>
      </trkpt>
      <trkpt lat="44.87722" lon="0.34294">
        <ele>28.5</ele>
        <time>2022-04-05T12:26:34Z</time>
      </trkpt>
      <trkpt lat="44.87722" lon="0.34298">
        <ele>28.5</ele>
        <time>2022-04-05T12:26:35Z</time>
      </trkpt>
      <trkpt lat="44.87722" lon="0.343">
        <ele>28.5</ele>
        <time>2022-04-05T12:26:37Z</time>
      </trkpt>
      <trkpt lat="44.87722" lon="0.34303">
        <ele>28.5</ele>
        <time>2022-04-05T12:26:38Z</time>
      </trkpt>
      <trkpt lat="44.87722" lon="0.34305">
        <ele>28.5</ele>
        <time>2022-04-05T12:26:39Z</time>
      </trkpt>
      <trkpt lat="44.87722" lon="0.34306">
        <ele>28.5</ele>
        <time>2022-04-05T12:26:40Z</time>
      </trkpt>
      <trkpt lat="44.87721" lon="0.34307">
        <ele>28.6</ele>
        <time>2022-04-05T12:26:41Z</time>
      </trkpt>
      <trkpt lat="44.87721" lon="0.34309">
        <ele>28.6</ele>
        <time>2022-04-05T12:26:42Z</time>
      </trkpt>
      <trkpt lat="44.87721" lon="0.34311">
        <ele>28.6</ele>
        <time>2022-04-05T12:26:44Z</time>
      </trkpt>
      <trkpt lat="44.87721" lon="0.34314">
        <ele>28.6</ele>
        <time>2022-04-05T12:26:45Z</time>
      </trkpt>
      <trkpt lat="44.87721" lon="0.34317">
        <ele>28.6</ele>
        <time>2022-04-05T12:26:46Z</time>
      </trkpt>
      <trkpt lat="44.87721" lon="0.34318">
        <ele>28.6</ele>
        <time>2022-04-05T12:26:47Z</time>
      </trkpt>
      <trkpt lat="44.87721" lon="0.34319">
        <ele>28.6</ele>
        <time>2022-04-05T12:26:48Z</time>
      </trkpt>
      <trkpt lat="44.87721" lon="0.34323">
        <ele>28.6</ele>
        <time>2022-04-05T12:26:49Z</time>
      </trkpt>
      <trkpt lat="44.87722" lon="0.34324">
        <ele>28.6</ele>
        <time>2022-04-05T12:26:50Z</time>
      </trkpt>
      <trkpt lat="44.87723" lon="0.34326">
        <ele>28.6</ele>
        <time>2022-04-05T12:26:51Z</time>
      </trkpt>
      <trkpt lat="44.87723" lon="0.34327">
        <ele>28.6</ele>
        <time>2022-04-05T12:26:52Z</time>
      </trkpt>
      <trkpt lat="44.87724" lon="0.34329">
        <ele>28.6</ele>
        <time>2022-04-05T12:26:53Z</time>
      </trkpt>
      <trkpt lat="44.87725" lon="0.34332">
        <ele>28.6</ele>
        <time>2022-04-05T12:26:54Z</time>
      </trkpt>
      <trkpt lat="44.87725" lon="0.34333">
        <ele>28.5</ele>
        <time>2022-04-05T12:26:56Z</time>
      </trkpt>
      <trkpt lat="44.87726" lon="0.34335">
        <ele>28.5</ele>
        <time>2022-04-05T12:26:57Z</time>
      </trkpt>
      <trkpt lat="44.87726" lon="0.34337">
        <ele>28.5</ele>
        <time>2022-04-05T12:26:58Z</time>
      </trkpt>
      <trkpt lat="44.87726" lon="0.34339">
        <ele>28.5</ele>
        <time>2022-04-05T12:26:59Z</time>
      </trkpt>
      <trkpt lat="44.87726" lon="0.34341">
        <ele>28.5</ele>
        <time>2022-04-05T12:27:00Z</time>
      </trkpt>
      <trkpt lat="44.87727" lon="0.34343">
        <ele>28.5</ele>
        <time>2022-04-05T12:27:01Z</time>
      </trkpt>
      <trkpt lat="44.87727" lon="0.34344">
        <ele>28.5</ele>
        <time>2022-04-05T12:27:02Z</time>
      </trkpt>
      <trkpt lat="44.87727" lon="0.34345">
        <ele>28.5</ele>
        <time>2022-04-05T12:27:03Z</time>
      </trkpt>
      <trkpt lat="44.87727" lon="0.34347">
        <ele>28.5</ele>
        <time>2022-04-05T12:27:04Z</time>
      </trkpt>
      <trkpt lat="44.87728" lon="0.34349">
        <ele>28.5</ele>
        <time>2022-04-05T12:27:05Z</time>
      </trkpt>
      <trkpt lat="44.87729" lon="0.34352">
        <ele>28.5</ele>
        <time>2022-04-05T12:27:06Z</time>
      </trkpt>
      <trkpt lat="44.8773" lon="0.34353">
        <ele>28.5</ele>
        <time>2022-04-05T12:27:07Z</time>
      </trkpt>
      <trkpt lat="44.8773" lon="0.34354">
        <ele>28.5</ele>
        <time>2022-04-05T12:27:08Z</time>
      </trkpt>
      <trkpt lat="44.87731" lon="0.34357">
        <ele>28.5</ele>
        <time>2022-04-05T12:27:09Z</time>
      </trkpt>
      <trkpt lat="44.87731" lon="0.34358">
        <ele>28.5</ele>
        <time>2022-04-05T12:27:10Z</time>
      </trkpt>
      <trkpt lat="44.87731" lon="0.34359">
        <ele>28.5</ele>
        <time>2022-04-05T12:27:11Z</time>
      </trkpt>
      <trkpt lat="44.87731" lon="0.34361">
        <ele>28.5</ele>
        <time>2022-04-05T12:27:12Z</time>
      </trkpt>
      <trkpt lat="44.87732" lon="0.34363">
        <ele>28.5</ele>
        <time>2022-04-05T12:27:13Z</time>
      </trkpt>
      <trkpt lat="44.87732" lon="0.34367">
        <ele>28.4</ele>
        <time>2022-04-05T12:27:14Z</time>
      </trkpt>
      <trkpt lat="44.87733" lon="0.34368">
        <ele>28.4</ele>
        <time>2022-04-05T12:27:16Z</time>
      </trkpt>
      <trkpt lat="44.87733" lon="0.3437">
        <ele>28.4</ele>
        <time>2022-04-05T12:27:17Z</time>
      </trkpt>
      <trkpt lat="44.87733" lon="0.34371">
        <ele>28.4</ele>
        <time>2022-04-05T12:27:18Z</time>
      </trkpt>
      <trkpt lat="44.87734" lon="0.34372">
        <ele>28.4</ele>
        <time>2022-04-05T12:27:19Z</time>
      </trkpt>
      <trkpt lat="44.87734" lon="0.34375">
        <ele>28.4</ele>
        <time>2022-04-05T12:27:20Z</time>
      </trkpt>
      <trkpt lat="44.87735" lon="0.34376">
        <ele>28.4</ele>
        <time>2022-04-05T12:27:21Z</time>
      </trkpt>
      <trkpt lat="44.87735" lon="0.34377">
        <ele>28.4</ele>
        <time>2022-04-05T12:27:22Z</time>
      </trkpt>
      <trkpt lat="44.87736" lon="0.34379">
        <ele>28.4</ele>
        <time>2022-04-05T12:27:23Z</time>
      </trkpt>
      <trkpt lat="44.87737" lon="0.34384">
        <ele>28.4</ele>
        <time>2022-04-05T12:27:25Z</time>
      </trkpt>
      <trkpt lat="44.87737" lon="0.34385">
        <ele>28.4</ele>
        <time>2022-04-05T12:27:26Z</time>
      </trkpt>
      <trkpt lat="44.87737" lon="0.34387">
        <ele>28.4</ele>
        <time>2022-04-05T12:27:27Z</time>
      </trkpt>
      <trkpt lat="44.87738" lon="0.34388">
        <ele>28.4</ele>
        <time>2022-04-05T12:27:28Z</time>
      </trkpt>
      <trkpt lat="44.87738" lon="0.34392">
        <ele>28.4</ele>
        <time>2022-04-05T12:27:30Z</time>
      </trkpt>
      <trkpt lat="44.87738" lon="0.34393">
        <ele>28.4</ele>
        <time>2022-04-05T12:27:31Z</time>
      </trkpt>
      <trkpt lat="44.87738" lon="0.34397">
        <ele>28.4</ele>
        <time>2022-04-05T12:27:32Z</time>
      </trkpt>
      <trkpt lat="44.87738" lon="0.34399">
        <ele>28.4</ele>
        <time>2022-04-05T12:27:33Z</time>
      </trkpt>
      <trkpt lat="44.87738" lon="0.344">
        <ele>28.4</ele>
        <time>2022-04-05T12:27:34Z</time>
      </trkpt>
      <trkpt lat="44.87738" lon="0.34402">
        <ele>28.4</ele>
        <time>2022-04-05T12:27:36Z</time>
      </trkpt>
      <trkpt lat="44.87737" lon="0.34404">
        <ele>28.4</ele>
        <time>2022-04-05T12:27:37Z</time>
      </trkpt>
      <trkpt lat="44.87737" lon="0.34406">
        <ele>28.4</ele>
        <time>2022-04-05T12:27:38Z</time>
      </trkpt>
      <trkpt lat="44.87736" lon="0.3441">
        <ele>28.4</ele>
        <time>2022-04-05T12:27:40Z</time>
      </trkpt>
      <trkpt lat="44.87735" lon="0.34412">
        <ele>28.4</ele>
        <time>2022-04-05T12:27:41Z</time>
      </trkpt>
      <trkpt lat="44.87734" lon="0.34413">
        <ele>28.4</ele>
        <time>2022-04-05T12:27:42Z</time>
      </trkpt>
      <trkpt lat="44.87734" lon="0.34415">
        <ele>28.4</ele>
        <time>2022-04-05T12:27:43Z</time>
      </trkpt>
      <trkpt lat="44.87731" lon="0.34419">
        <ele>28.4</ele>
        <time>2022-04-05T12:27:45Z</time>
      </trkpt>
      <trkpt lat="44.87731" lon="0.3442">
        <ele>28.4</ele>
        <time>2022-04-05T12:27:46Z</time>
      </trkpt>
      <trkpt lat="44.8773" lon="0.34421">
        <ele>28.4</ele>
        <time>2022-04-05T12:27:47Z</time>
      </trkpt>
      <trkpt lat="44.8773" lon="0.34422">
        <ele>28.4</ele>
        <time>2022-04-05T12:27:48Z</time>
      </trkpt>
      <trkpt lat="44.87729" lon="0.34424">
        <ele>28.4</ele>
        <time>2022-04-05T12:27:49Z</time>
      </trkpt>
      <trkpt lat="44.87728" lon="0.34425">
        <ele>28.4</ele>
        <time>2022-04-05T12:27:50Z</time>
      </trkpt>
      <trkpt lat="44.87727" lon="0.34428">
        <ele>28.4</ele>
        <time>2022-04-05T12:27:51Z</time>
      </trkpt>
      <trkpt lat="44.87726" lon="0.34429">
        <ele>28.3</ele>
        <time>2022-04-05T12:27:52Z</time>
      </trkpt>
      <trkpt lat="44.87726" lon="0.3443">
        <ele>28.3</ele>
        <time>2022-04-05T12:27:53Z</time>
      </trkpt>
      <trkpt lat="44.87726" lon="0.34432">
        <ele>28.3</ele>
        <time>2022-04-05T12:27:54Z</time>
      </trkpt>
      <trkpt lat="44.87725" lon="0.34434">
        <ele>28.3</ele>
        <time>2022-04-05T12:27:55Z</time>
      </trkpt>
      <trkpt lat="44.87725" lon="0.34435">
        <ele>28.3</ele>
        <time>2022-04-05T12:27:56Z</time>
      </trkpt>
      <trkpt lat="44.87725" lon="0.34436">
        <ele>28.3</ele>
        <time>2022-04-05T12:27:57Z</time>
      </trkpt>
      <trkpt lat="44.87724" lon="0.34438">
        <ele>28.3</ele>
        <time>2022-04-05T12:27:58Z</time>
      </trkpt>
      <trkpt lat="44.87723" lon="0.3444">
        <ele>28.3</ele>
        <time>2022-04-05T12:27:59Z</time>
      </trkpt>
      <trkpt lat="44.87722" lon="0.34442">
        <ele>28.3</ele>
        <time>2022-04-05T12:28:01Z</time>
      </trkpt>
      <trkpt lat="44.87721" lon="0.34444">
        <ele>28.3</ele>
        <time>2022-04-05T12:28:02Z</time>
      </trkpt>
      <trkpt lat="44.87721" lon="0.34445">
        <ele>28.3</ele>
        <time>2022-04-05T12:28:03Z</time>
      </trkpt>
      <trkpt lat="44.8772" lon="0.34447">
        <ele>28.3</ele>
        <time>2022-04-05T12:28:04Z</time>
      </trkpt>
      <trkpt lat="44.87719" lon="0.3445">
        <ele>28.3</ele>
        <time>2022-04-05T12:28:05Z</time>
      </trkpt>
      <trkpt lat="44.87719" lon="0.34451">
        <ele>28.3</ele>
        <time>2022-04-05T12:28:06Z</time>
      </trkpt>
      <trkpt lat="44.87719" lon="0.34452">
        <ele>28.3</ele>
        <time>2022-04-05T12:28:07Z</time>
      </trkpt>
      <trkpt lat="44.87718" lon="0.34454">
        <ele>28.3</ele>
        <time>2022-04-05T12:28:08Z</time>
      </trkpt>
      <trkpt lat="44.87717" lon="0.34457">
        <ele>28.3</ele>
        <time>2022-04-05T12:28:09Z</time>
      </trkpt>
      <trkpt lat="44.87717" lon="0.34459">
        <ele>28.3</ele>
        <time>2022-04-05T12:28:10Z</time>
      </trkpt>
      <trkpt lat="44.87717" lon="0.3446">
        <ele>28.4</ele>
        <time>2022-04-05T12:28:11Z</time>
      </trkpt>
      <trkpt lat="44.87716" lon="0.34461">
        <ele>28.4</ele>
        <time>2022-04-05T12:28:12Z</time>
      </trkpt>
      <trkpt lat="44.87715" lon="0.34463">
        <ele>28.4</ele>
        <time>2022-04-05T12:28:13Z</time>
      </trkpt>
      <trkpt lat="44.87715" lon="0.34464">
        <ele>28.4</ele>
        <time>2022-04-05T12:28:14Z</time>
      </trkpt>
      <trkpt lat="44.87714" lon="0.34467">
        <ele>28.4</ele>
        <time>2022-04-05T12:28:15Z</time>
      </trkpt>
      <trkpt lat="44.87713" lon="0.34469">
        <ele>28.4</ele>
        <time>2022-04-05T12:28:17Z</time>
      </trkpt>
      <trkpt lat="44.87713" lon="0.34471">
        <ele>28.4</ele>
        <time>2022-04-05T12:28:18Z</time>
      </trkpt>
      <trkpt lat="44.87712" lon="0.34475">
        <ele>28.4</ele>
        <time>2022-04-05T12:28:19Z</time>
      </trkpt>
      <trkpt lat="44.87712" lon="0.34476">
        <ele>28.4</ele>
        <time>2022-04-05T12:28:20Z</time>
      </trkpt>
      <trkpt lat="44.87712" lon="0.34477">
        <ele>28.4</ele>
        <time>2022-04-05T12:28:21Z</time>
      </trkpt>
      <trkpt lat="44.87711" lon="0.34479">
        <ele>28.4</ele>
        <time>2022-04-05T12:28:22Z</time>
      </trkpt>
      <trkpt lat="44.8771" lon="0.3448">
        <ele>28.4</ele>
        <time>2022-04-05T12:28:23Z</time>
      </trkpt>
      <trkpt lat="44.87709" lon="0.34481">
        <ele>28.4</ele>
        <time>2022-04-05T12:28:24Z</time>
      </trkpt>
      <trkpt lat="44.87709" lon="0.34484">
        <ele>28.4</ele>
        <time>2022-04-05T12:28:25Z</time>
      </trkpt>
      <trkpt lat="44.87708" lon="0.34487">
        <ele>28.4</ele>
        <time>2022-04-05T12:28:26Z</time>
      </trkpt>
      <trkpt lat="44.87708" lon="0.34488">
        <ele>28.4</ele>
        <time>2022-04-05T12:28:27Z</time>
      </trkpt>
      <trkpt lat="44.87707" lon="0.34489">
        <ele>28.4</ele>
        <time>2022-04-05T12:28:28Z</time>
      </trkpt>
      <trkpt lat="44.87706" lon="0.34493">
        <ele>28.5</ele>
        <time>2022-04-05T12:28:29Z</time>
      </trkpt>
      <trkpt lat="44.87706" lon="0.34494">
        <ele>28.5</ele>
        <time>2022-04-05T12:28:31Z</time>
      </trkpt>
      <trkpt lat="44.87706" lon="0.34495">
        <ele>28.5</ele>
        <time>2022-04-05T12:28:32Z</time>
      </trkpt>
      <trkpt lat="44.87705" lon="0.34497">
        <ele>28.5</ele>
        <time>2022-04-05T12:28:33Z</time>
      </trkpt>
      <trkpt lat="44.87704" lon="0.34501">
        <ele>28.5</ele>
        <time>2022-04-05T12:28:34Z</time>
      </trkpt>
      <trkpt lat="44.87704" lon="0.34502">
        <ele>28.5</ele>
        <time>2022-04-05T12:28:35Z</time>
      </trkpt>
      <trkpt lat="44.87704" lon="0.34504">
        <ele>28.6</ele>
        <time>2022-04-05T12:28:36Z</time>
      </trkpt>
      <trkpt lat="44.87703" lon="0.34505">
        <ele>28.6</ele>
        <time>2022-04-05T12:28:37Z</time>
      </trkpt>
      <trkpt lat="44.87703" lon="0.34507">
        <ele>28.6</ele>
        <time>2022-04-05T12:28:38Z</time>
      </trkpt>
      <trkpt lat="44.87702" lon="0.34509">
        <ele>28.6</ele>
        <time>2022-04-05T12:28:39Z</time>
      </trkpt>
      <trkpt lat="44.87702" lon="0.34511">
        <ele>28.6</ele>
        <time>2022-04-05T12:28:40Z</time>
      </trkpt>
      <trkpt lat="44.87701" lon="0.34513">
        <ele>28.7</ele>
        <time>2022-04-05T12:28:41Z</time>
      </trkpt>
      <trkpt lat="44.877" lon="0.34514">
        <ele>28.7</ele>
        <time>2022-04-05T12:28:42Z</time>
      </trkpt>
      <trkpt lat="44.87699" lon="0.34516">
        <ele>28.7</ele>
        <time>2022-04-05T12:28:44Z</time>
      </trkpt>
      <trkpt lat="44.87698" lon="0.3452">
        <ele>28.7</ele>
        <time>2022-04-05T12:28:45Z</time>
      </trkpt>
      <trkpt lat="44.87698" lon="0.34521">
        <ele>28.7</ele>
        <time>2022-04-05T12:28:46Z</time>
      </trkpt>
      <trkpt lat="44.87697" lon="0.34524">
        <ele>28.8</ele>
        <time>2022-04-05T12:28:47Z</time>
      </trkpt>
      <trkpt lat="44.87697" lon="0.34525">
        <ele>28.8</ele>
        <time>2022-04-05T12:28:48Z</time>
      </trkpt>
      <trkpt lat="44.87696" lon="0.34526">
        <ele>28.8</ele>
        <time>2022-04-05T12:28:49Z</time>
      </trkpt>
      <trkpt lat="44.87695" lon="0.34529">
        <ele>28.8</ele>
        <time>2022-04-05T12:28:50Z</time>
      </trkpt>
      <trkpt lat="44.87695" lon="0.3453">
        <ele>28.8</ele>
        <time>2022-04-05T12:28:51Z</time>
      </trkpt>
      <trkpt lat="44.87694" lon="0.34531">
        <ele>28.8</ele>
        <time>2022-04-05T12:28:52Z</time>
      </trkpt>
      <trkpt lat="44.87693" lon="0.34533">
        <ele>28.8</ele>
        <time>2022-04-05T12:28:53Z</time>
      </trkpt>
      <trkpt lat="44.87693" lon="0.34535">
        <ele>28.8</ele>
        <time>2022-04-05T12:28:54Z</time>
      </trkpt>
      <trkpt lat="44.87692" lon="0.34539">
        <ele>28.8</ele>
        <time>2022-04-05T12:28:55Z</time>
      </trkpt>
      <trkpt lat="44.87692" lon="0.34541">
        <ele>28.8</ele>
        <time>2022-04-05T12:28:57Z</time>
      </trkpt>
      <trkpt lat="44.87691" lon="0.34542">
        <ele>28.8</ele>
        <time>2022-04-05T12:28:58Z</time>
      </trkpt>
      <trkpt lat="44.87691" lon="0.34544">
        <ele>28.8</ele>
        <time>2022-04-05T12:28:59Z</time>
      </trkpt>
      <trkpt lat="44.8769" lon="0.34546">
        <ele>28.7</ele>
        <time>2022-04-05T12:29:00Z</time>
      </trkpt>
      <trkpt lat="44.8769" lon="0.34546">
        <ele>28.7</ele>
        <time>2022-04-05T12:29:01Z</time>
      </trkpt>
      <trkpt lat="44.8769" lon="0.34547">
        <ele>28.7</ele>
        <time>2022-04-05T12:29:02Z</time>
      </trkpt>
      <trkpt lat="44.87689" lon="0.34548">
        <ele>28.7</ele>
        <time>2022-04-05T12:29:03Z</time>
      </trkpt>
      <trkpt lat="44.87687" lon="0.34551">
        <ele>28.6</ele>
        <time>2022-04-05T12:29:05Z</time>
      </trkpt>
      <trkpt lat="44.87687" lon="0.34553">
        <ele>28.6</ele>
        <time>2022-04-05T12:29:06Z</time>
      </trkpt>
      <trkpt lat="44.87686" lon="0.34555">
        <ele>28.6</ele>
        <time>2022-04-05T12:29:07Z</time>
      </trkpt>
      <trkpt lat="44.87686" lon="0.34556">
        <ele>28.6</ele>
        <time>2022-04-05T12:29:08Z</time>
      </trkpt>
      <trkpt lat="44.87685" lon="0.34558">
        <ele>28.5</ele>
        <time>2022-04-05T12:29:09Z</time>
      </trkpt>
      <trkpt lat="44.87685" lon="0.34559">
        <ele>28.5</ele>
        <time>2022-04-05T12:29:11Z</time>
      </trkpt>
      <trkpt lat="44.87685" lon="0.3456">
        <ele>28.5</ele>
        <time>2022-04-05T12:29:12Z</time>
      </trkpt>
      <trkpt lat="44.87684" lon="0.34562">
        <ele>28.5</ele>
        <time>2022-04-05T12:29:13Z</time>
      </trkpt>
      <trkpt lat="44.87683" lon="0.34563">
        <ele>28.5</ele>
        <time>2022-04-05T12:29:14Z</time>
      </trkpt>
      <trkpt lat="44.87682" lon="0.34566">
        <ele>28.4</ele>
        <time>2022-04-05T12:29:15Z</time>
      </trkpt>
      <trkpt lat="44.87682" lon="0.34566">
        <ele>28.4</ele>
        <time>2022-04-05T12:29:16Z</time>
      </trkpt>
      <trkpt lat="44.87681" lon="0.34567">
        <ele>28.4</ele>
        <time>2022-04-05T12:29:17Z</time>
      </trkpt>
      <trkpt lat="44.8768" lon="0.34568">
        <ele>28.4</ele>
        <time>2022-04-05T12:29:18Z</time>
      </trkpt>
      <trkpt lat="44.87679" lon="0.34569">
        <ele>28.3</ele>
        <time>2022-04-05T12:29:19Z</time>
      </trkpt>
      <trkpt lat="44.87677" lon="0.34571">
        <ele>28.3</ele>
        <time>2022-04-05T12:29:20Z</time>
      </trkpt>
      <trkpt lat="44.87677" lon="0.3457">
        <ele>28.3</ele>
        <time>2022-04-05T12:29:21Z</time>
      </trkpt>
      <trkpt lat="44.87675" lon="0.34571">
        <ele>28.2</ele>
        <time>2022-04-05T12:29:22Z</time>
      </trkpt>
      <trkpt lat="44.87674" lon="0.34572">
        <ele>28.2</ele>
        <time>2022-04-05T12:29:23Z</time>
      </trkpt>
      <trkpt lat="44.87673" lon="0.34572">
        <ele>28.2</ele>
        <time>2022-04-05T12:29:24Z</time>
      </trkpt>
      <trkpt lat="44.8767" lon="0.34574">
        <ele>28.2</ele>
        <time>2022-04-05T12:29:25Z</time>
      </trkpt>
      <trkpt lat="44.87669" lon="0.34575">
        <ele>28.2</ele>
        <time>2022-04-05T12:29:27Z</time>
      </trkpt>
      <trkpt lat="44.87668" lon="0.34576">
        <ele>28.1</ele>
        <time>2022-04-05T12:29:28Z</time>
      </trkpt>
      <trkpt lat="44.87667" lon="0.34577">
        <ele>28.1</ele>
        <time>2022-04-05T12:29:29Z</time>
      </trkpt>
      <trkpt lat="44.87665" lon="0.34578">
        <ele>28.1</ele>
        <time>2022-04-05T12:29:30Z</time>
      </trkpt>
      <trkpt lat="44.87665" lon="0.34578">
        <ele>28.1</ele>
        <time>2022-04-05T12:29:31Z</time>
      </trkpt>
      <trkpt lat="44.87664" lon="0.34578">
        <ele>28.1</ele>
        <time>2022-04-05T12:29:32Z</time>
      </trkpt>
      <trkpt lat="44.87662" lon="0.34579">
        <ele>28.1</ele>
        <time>2022-04-05T12:29:33Z</time>
      </trkpt>
      <trkpt lat="44.87661" lon="0.34579">
        <ele>28.1</ele>
        <time>2022-04-05T12:29:34Z</time>
      </trkpt>
      <trkpt lat="44.87659" lon="0.34579">
        <ele>28.1</ele>
        <time>2022-04-05T12:29:36Z</time>
      </trkpt>
      <trkpt lat="44.87656" lon="0.34578">
        <ele>28.1</ele>
        <time>2022-04-05T12:29:37Z</time>
      </trkpt>
      <trkpt lat="44.87656" lon="0.34578">
        <ele>28.1</ele>
        <time>2022-04-05T12:29:38Z</time>
      </trkpt>
      <trkpt lat="44.87654" lon="0.34578">
        <ele>28.1</ele>
        <time>2022-04-05T12:29:39Z</time>
      </trkpt>
      <trkpt lat="44.87652" lon="0.34578">
        <ele>28</ele>
        <time>2022-04-05T12:29:40Z</time>
      </trkpt>
      <trkpt lat="44.87651" lon="0.34579">
        <ele>28</ele>
        <time>2022-04-05T12:29:41Z</time>
      </trkpt>
      <trkpt lat="44.8765" lon="0.3458">
        <ele>28</ele>
        <time>2022-04-05T12:29:42Z</time>
      </trkpt>
      <trkpt lat="44.87648" lon="0.3458">
        <ele>28</ele>
        <time>2022-04-05T12:29:43Z</time>
      </trkpt>
      <trkpt lat="44.87647" lon="0.34581">
        <ele>28</ele>
        <time>2022-04-05T12:29:44Z</time>
      </trkpt>
      <trkpt lat="44.87645" lon="0.34581">
        <ele>28</ele>
        <time>2022-04-05T12:29:45Z</time>
      </trkpt>
      <trkpt lat="44.87644" lon="0.34581">
        <ele>28</ele>
        <time>2022-04-05T12:29:46Z</time>
      </trkpt>
      <trkpt lat="44.87643" lon="0.34582">
        <ele>28</ele>
        <time>2022-04-05T12:29:48Z</time>
      </trkpt>
      <trkpt lat="44.87642" lon="0.34582">
        <ele>28</ele>
        <time>2022-04-05T12:29:49Z</time>
      </trkpt>
      <trkpt lat="44.87639" lon="0.34583">
        <ele>28</ele>
        <time>2022-04-05T12:29:50Z</time>
      </trkpt>
      <trkpt lat="44.87639" lon="0.34583">
        <ele>28</ele>
        <time>2022-04-05T12:29:51Z</time>
      </trkpt>
      <trkpt lat="44.87638" lon="0.34582">
        <ele>28</ele>
        <time>2022-04-05T12:29:53Z</time>
      </trkpt>
      <trkpt lat="44.87636" lon="0.34583">
        <ele>28</ele>
        <time>2022-04-05T12:29:54Z</time>
      </trkpt>
      <trkpt lat="44.87636" lon="0.34585">
        <ele>28</ele>
        <time>2022-04-05T12:29:55Z</time>
      </trkpt>
      <trkpt lat="44.87634" lon="0.34587">
        <ele>28</ele>
        <time>2022-04-05T12:29:56Z</time>
      </trkpt>
      <trkpt lat="44.87633" lon="0.34588">
        <ele>28</ele>
        <time>2022-04-05T12:29:57Z</time>
      </trkpt>
      <trkpt lat="44.87632" lon="0.34589">
        <ele>28</ele>
        <time>2022-04-05T12:29:58Z</time>
      </trkpt>
      <trkpt lat="44.87631" lon="0.34591">
        <ele>28</ele>
        <time>2022-04-05T12:30:00Z</time>
      </trkpt>
      <trkpt lat="44.8763" lon="0.34592">
        <ele>28</ele>
        <time>2022-04-05T12:30:01Z</time>
      </trkpt>
      <trkpt lat="44.87629" lon="0.34593">
        <ele>28</ele>
        <time>2022-04-05T12:30:02Z</time>
      </trkpt>
      <trkpt lat="44.87629" lon="0.34594">
        <ele>28</ele>
        <time>2022-04-05T12:30:03Z</time>
      </trkpt>
      <trkpt lat="44.87627" lon="0.34596">
        <ele>28</ele>
        <time>2022-04-05T12:30:05Z</time>
      </trkpt>
      <trkpt lat="44.87627" lon="0.34597">
        <ele>28</ele>
        <time>2022-04-05T12:30:06Z</time>
      </trkpt>
      <trkpt lat="44.87626" lon="0.34599">
        <ele>28</ele>
        <time>2022-04-05T12:30:07Z</time>
      </trkpt>
      <trkpt lat="44.87626" lon="0.346">
        <ele>28</ele>
        <time>2022-04-05T12:30:08Z</time>
      </trkpt>
      <trkpt lat="44.87625" lon="0.34601">
        <ele>28</ele>
        <time>2022-04-05T12:30:09Z</time>
      </trkpt>
      <trkpt lat="44.87624" lon="0.34602">
        <ele>28</ele>
        <time>2022-04-05T12:30:10Z</time>
      </trkpt>
      <trkpt lat="44.87624" lon="0.34605">
        <ele>28</ele>
        <time>2022-04-05T12:30:11Z</time>
      </trkpt>
      <trkpt lat="44.87624" lon="0.34606">
        <ele>28</ele>
        <time>2022-04-05T12:30:12Z</time>
      </trkpt>
      <trkpt lat="44.87623" lon="0.34607">
        <ele>28</ele>
        <time>2022-04-05T12:30:13Z</time>
      </trkpt>
      <trkpt lat="44.87623" lon="0.34609">
        <ele>28</ele>
        <time>2022-04-05T12:30:14Z</time>
      </trkpt>
      <trkpt lat="44.87622" lon="0.3461">
        <ele>28</ele>
        <time>2022-04-05T12:30:15Z</time>
      </trkpt>
      <trkpt lat="44.87622" lon="0.34612">
        <ele>28</ele>
        <time>2022-04-05T12:30:17Z</time>
      </trkpt>
      <trkpt lat="44.87622" lon="0.34614">
        <ele>28</ele>
        <time>2022-04-05T12:30:18Z</time>
      </trkpt>
      <trkpt lat="44.87621" lon="0.34616">
        <ele>28</ele>
        <time>2022-04-05T12:30:19Z</time>
      </trkpt>
      <trkpt lat="44.87621" lon="0.34617">
        <ele>28</ele>
        <time>2022-04-05T12:30:20Z</time>
      </trkpt>
      <trkpt lat="44.87621" lon="0.34619">
        <ele>28</ele>
        <time>2022-04-05T12:30:21Z</time>
      </trkpt>
      <trkpt lat="44.87621" lon="0.3462">
        <ele>28</ele>
        <time>2022-04-05T12:30:22Z</time>
      </trkpt>
      <trkpt lat="44.87621" lon="0.34622">
        <ele>28</ele>
        <time>2022-04-05T12:30:23Z</time>
      </trkpt>
      <trkpt lat="44.87621" lon="0.34625">
        <ele>28</ele>
        <time>2022-04-05T12:30:25Z</time>
      </trkpt>
      <trkpt lat="44.87621" lon="0.34626">
        <ele>28</ele>
        <time>2022-04-05T12:30:26Z</time>
      </trkpt>
      <trkpt lat="44.87621" lon="0.34627">
        <ele>28</ele>
        <time>2022-04-05T12:30:27Z</time>
      </trkpt>
      <trkpt lat="44.87621" lon="0.34629">
        <ele>28</ele>
        <time>2022-04-05T12:30:28Z</time>
      </trkpt>
      <trkpt lat="44.87621" lon="0.34633">
        <ele>28</ele>
        <time>2022-04-05T12:30:30Z</time>
      </trkpt>
      <trkpt lat="44.87621" lon="0.34635">
        <ele>28</ele>
        <time>2022-04-05T12:30:31Z</time>
      </trkpt>
      <trkpt lat="44.8762" lon="0.34637">
        <ele>28.1</ele>
        <time>2022-04-05T12:30:32Z</time>
      </trkpt>
      <trkpt lat="44.8762" lon="0.34638">
        <ele>28.1</ele>
        <time>2022-04-05T12:30:33Z</time>
      </trkpt>
      <trkpt lat="44.87619" lon="0.34641">
        <ele>28.1</ele>
        <time>2022-04-05T12:30:35Z</time>
      </trkpt>
      <trkpt lat="44.87618" lon="0.34643">
        <ele>28.1</ele>
        <time>2022-04-05T12:30:36Z</time>
      </trkpt>
      <trkpt lat="44.87617" lon="0.34646">
        <ele>28.1</ele>
        <time>2022-04-05T12:30:37Z</time>
      </trkpt>
      <trkpt lat="44.87617" lon="0.34648">
        <ele>28.1</ele>
        <time>2022-04-05T12:30:38Z</time>
      </trkpt>
      <trkpt lat="44.87616" lon="0.3465">
        <ele>28.1</ele>
        <time>2022-04-05T12:30:39Z</time>
      </trkpt>
      <trkpt lat="44.87616" lon="0.34651">
        <ele>28.1</ele>
        <time>2022-04-05T12:30:40Z</time>
      </trkpt>
      <trkpt lat="44.87616" lon="0.34653">
        <ele>28.1</ele>
        <time>2022-04-05T12:30:41Z</time>
      </trkpt>
      <trkpt lat="44.87616" lon="0.34654">
        <ele>28.1</ele>
        <time>2022-04-05T12:30:42Z</time>
      </trkpt>
      <trkpt lat="44.87616" lon="0.34655">
        <ele>28.1</ele>
        <time>2022-04-05T12:30:43Z</time>
      </trkpt>
      <trkpt lat="44.87615" lon="0.34658">
        <ele>28.1</ele>
        <time>2022-04-05T12:30:44Z</time>
      </trkpt>
      <trkpt lat="44.87614" lon="0.34659">
        <ele>28.1</ele>
        <time>2022-04-05T12:30:45Z</time>
      </trkpt>
      <trkpt lat="44.87614" lon="0.34661">
        <ele>28.2</ele>
        <time>2022-04-05T12:30:47Z</time>
      </trkpt>
      <trkpt lat="44.87614" lon="0.34663">
        <ele>28.2</ele>
        <time>2022-04-05T12:30:48Z</time>
      </trkpt>
      <trkpt lat="44.87613" lon="0.34665">
        <ele>28.2</ele>
        <time>2022-04-05T12:30:49Z</time>
      </trkpt>
      <trkpt lat="44.87613" lon="0.34667">
        <ele>28.2</ele>
        <time>2022-04-05T12:30:50Z</time>
      </trkpt>
      <trkpt lat="44.87613" lon="0.34668">
        <ele>28.2</ele>
        <time>2022-04-05T12:30:51Z</time>
      </trkpt>
      <trkpt lat="44.87612" lon="0.3467">
        <ele>28.2</ele>
        <time>2022-04-05T12:30:52Z</time>
      </trkpt>
      <trkpt lat="44.87612" lon="0.34671">
        <ele>28.2</ele>
        <time>2022-04-05T12:30:53Z</time>
      </trkpt>
      <trkpt lat="44.87611" lon="0.34674">
        <ele>28.3</ele>
        <time>2022-04-05T12:30:54Z</time>
      </trkpt>
      <trkpt lat="44.87611" lon="0.34676">
        <ele>28.3</ele>
        <time>2022-04-05T12:30:55Z</time>
      </trkpt>
      <trkpt lat="44.8761" lon="0.34678">
        <ele>28.3</ele>
        <time>2022-04-05T12:30:57Z</time>
      </trkpt>
      <trkpt lat="44.87609" lon="0.34679">
        <ele>28.3</ele>
        <time>2022-04-05T12:30:58Z</time>
      </trkpt>
      <trkpt lat="44.87609" lon="0.34683">
        <ele>28.4</ele>
        <time>2022-04-05T12:30:59Z</time>
      </trkpt>
      <trkpt lat="44.87608" lon="0.34684">
        <ele>28.4</ele>
        <time>2022-04-05T12:31:00Z</time>
      </trkpt>
      <trkpt lat="44.87608" lon="0.34686">
        <ele>28.4</ele>
        <time>2022-04-05T12:31:01Z</time>
      </trkpt>
      <trkpt lat="44.87607" lon="0.34688">
        <ele>28.4</ele>
        <time>2022-04-05T12:31:03Z</time>
      </trkpt>
      <trkpt lat="44.87607" lon="0.34691">
        <ele>28.4</ele>
        <time>2022-04-05T12:31:05Z</time>
      </trkpt>
      <trkpt lat="44.87606" lon="0.34692">
        <ele>28.4</ele>
        <time>2022-04-05T12:31:06Z</time>
      </trkpt>
      <trkpt lat="44.87606" lon="0.34695">
        <ele>28.5</ele>
        <time>2022-04-05T12:31:07Z</time>
      </trkpt>
      <trkpt lat="44.87605" lon="0.34696">
        <ele>28.5</ele>
        <time>2022-04-05T12:31:08Z</time>
      </trkpt>
      <trkpt lat="44.87605" lon="0.34697">
        <ele>28.5</ele>
        <time>2022-04-05T12:31:09Z</time>
      </trkpt>
      <trkpt lat="44.87604" lon="0.34699">
        <ele>28.5</ele>
        <time>2022-04-05T12:31:10Z</time>
      </trkpt>
      <trkpt lat="44.87604" lon="0.34702">
        <ele>28.5</ele>
        <time>2022-04-05T12:31:12Z</time>
      </trkpt>
      <trkpt lat="44.87603" lon="0.34705">
        <ele>28.5</ele>
        <time>2022-04-05T12:31:13Z</time>
      </trkpt>
      <trkpt lat="44.87603" lon="0.34707">
        <ele>28.5</ele>
        <time>2022-04-05T12:31:14Z</time>
      </trkpt>
      <trkpt lat="44.87602" lon="0.34708">
        <ele>28.5</ele>
        <time>2022-04-05T12:31:15Z</time>
      </trkpt>
      <trkpt lat="44.87602" lon="0.34711">
        <ele>28.6</ele>
        <time>2022-04-05T12:31:16Z</time>
      </trkpt>
      <trkpt lat="44.87601" lon="0.34712">
        <ele>28.6</ele>
        <time>2022-04-05T12:31:17Z</time>
      </trkpt>
      <trkpt lat="44.87601" lon="0.34713">
        <ele>28.6</ele>
        <time>2022-04-05T12:31:18Z</time>
      </trkpt>
      <trkpt lat="44.87601" lon="0.34716">
        <ele>28.6</ele>
        <time>2022-04-05T12:31:19Z</time>
      </trkpt>
      <trkpt lat="44.87601" lon="0.34717">
        <ele>28.6</ele>
        <time>2022-04-05T12:31:20Z</time>
      </trkpt>
      <trkpt lat="44.87601" lon="0.34718">
        <ele>28.6</ele>
        <time>2022-04-05T12:31:21Z</time>
      </trkpt>
      <trkpt lat="44.87601" lon="0.3472">
        <ele>28.6</ele>
        <time>2022-04-05T12:31:22Z</time>
      </trkpt>
      <trkpt lat="44.876" lon="0.34721">
        <ele>28.6</ele>
        <time>2022-04-05T12:31:23Z</time>
      </trkpt>
      <trkpt lat="44.876" lon="0.34724">
        <ele>28.6</ele>
        <time>2022-04-05T12:31:25Z</time>
      </trkpt>
      <trkpt lat="44.876" lon="0.34726">
        <ele>28.6</ele>
        <time>2022-04-05T12:31:26Z</time>
      </trkpt>
      <trkpt lat="44.87599" lon="0.34727">
        <ele>28.6</ele>
        <time>2022-04-05T12:31:27Z</time>
      </trkpt>
      <trkpt lat="44.87599" lon="0.34729">
        <ele>28.6</ele>
        <time>2022-04-05T12:31:28Z</time>
      </trkpt>
      <trkpt lat="44.87598" lon="0.34733">
        <ele>28.6</ele>
        <time>2022-04-05T12:31:29Z</time>
      </trkpt>
      <trkpt lat="44.87598" lon="0.34734">
        <ele>28.6</ele>
        <time>2022-04-05T12:31:30Z</time>
      </trkpt>
      <trkpt lat="44.87598" lon="0.34736">
        <ele>28.5</ele>
        <time>2022-04-05T12:31:31Z</time>
      </trkpt>
      <trkpt lat="44.87597" lon="0.34737">
        <ele>28.5</ele>
        <time>2022-04-05T12:31:32Z</time>
      </trkpt>
      <trkpt lat="44.87597" lon="0.34741">
        <ele>28.5</ele>
        <time>2022-04-05T12:31:33Z</time>
      </trkpt>
      <trkpt lat="44.87596" lon="0.34742">
        <ele>28.5</ele>
        <time>2022-04-05T12:31:35Z</time>
      </trkpt>
      <trkpt lat="44.87596" lon="0.34744">
        <ele>28.5</ele>
        <time>2022-04-05T12:31:36Z</time>
      </trkpt>
      <trkpt lat="44.87595" lon="0.34745">
        <ele>28.5</ele>
        <time>2022-04-05T12:31:37Z</time>
      </trkpt>
      <trkpt lat="44.87595" lon="0.34746">
        <ele>28.5</ele>
        <time>2022-04-05T12:31:38Z</time>
      </trkpt>
      <trkpt lat="44.87594" lon="0.3475">
        <ele>28.6</ele>
        <time>2022-04-05T12:31:39Z</time>
      </trkpt>
      <trkpt lat="44.87594" lon="0.3475">
        <ele>28.6</ele>
        <time>2022-04-05T12:31:40Z</time>
      </trkpt>
      <trkpt lat="44.87593" lon="0.34753">
        <ele>28.6</ele>
        <time>2022-04-05T12:31:41Z</time>
      </trkpt>
      <trkpt lat="44.87593" lon="0.34754">
        <ele>28.6</ele>
        <time>2022-04-05T12:31:42Z</time>
      </trkpt>
      <trkpt lat="44.87592" lon="0.34755">
        <ele>28.6</ele>
        <time>2022-04-05T12:31:43Z</time>
      </trkpt>
      <trkpt lat="44.87591" lon="0.34759">
        <ele>28.6</ele>
        <time>2022-04-05T12:31:44Z</time>
      </trkpt>
      <trkpt lat="44.87591" lon="0.34759">
        <ele>28.6</ele>
        <time>2022-04-05T12:31:46Z</time>
      </trkpt>
      <trkpt lat="44.8759" lon="0.34761">
        <ele>28.6</ele>
        <time>2022-04-05T12:31:47Z</time>
      </trkpt>
      <trkpt lat="44.87589" lon="0.34763">
        <ele>28.6</ele>
        <time>2022-04-05T12:31:48Z</time>
      </trkpt>
      <trkpt lat="44.87588" lon="0.34764">
        <ele>28.6</ele>
        <time>2022-04-05T12:31:49Z</time>
      </trkpt>
      <trkpt lat="44.87587" lon="0.34766">
        <ele>28.6</ele>
        <time>2022-04-05T12:31:50Z</time>
      </trkpt>
      <trkpt lat="44.87586" lon="0.34768">
        <ele>28.6</ele>
        <time>2022-04-05T12:31:52Z</time>
      </trkpt>
      <trkpt lat="44.87585" lon="0.34768">
        <ele>28.7</ele>
        <time>2022-04-05T12:31:53Z</time>
      </trkpt>
      <trkpt lat="44.87584" lon="0.34768">
        <ele>28.6</ele>
        <time>2022-04-05T12:31:54Z</time>
      </trkpt>
      <trkpt lat="44.87582" lon="0.34767">
        <ele>28.6</ele>
        <time>2022-04-05T12:31:55Z</time>
      </trkpt>
      <trkpt lat="44.87581" lon="0.34767">
        <ele>28.6</ele>
        <time>2022-04-05T12:31:56Z</time>
      </trkpt>
      <trkpt lat="44.87579" lon="0.34766">
        <ele>28.6</ele>
        <time>2022-04-05T12:31:57Z</time>
      </trkpt>
      <trkpt lat="44.87578" lon="0.34765">
        <ele>28.6</ele>
        <time>2022-04-05T12:31:58Z</time>
      </trkpt>
      <trkpt lat="44.87577" lon="0.34764">
        <ele>28.6</ele>
        <time>2022-04-05T12:31:59Z</time>
      </trkpt>
      <trkpt lat="44.87575" lon="0.34762">
        <ele>28.6</ele>
        <time>2022-04-05T12:32:00Z</time>
      </trkpt>
      <trkpt lat="44.87574" lon="0.34761">
        <ele>28.6</ele>
        <time>2022-04-05T12:32:01Z</time>
      </trkpt>
      <trkpt lat="44.87573" lon="0.34761">
        <ele>28.6</ele>
        <time>2022-04-05T12:32:02Z</time>
      </trkpt>
      <trkpt lat="44.87572" lon="0.3476">
        <ele>28.6</ele>
        <time>2022-04-05T12:32:03Z</time>
      </trkpt>
      <trkpt lat="44.87571" lon="0.3476">
        <ele>28.6</ele>
        <time>2022-04-05T12:32:04Z</time>
      </trkpt>
      <trkpt lat="44.87569" lon="0.34759">
        <ele>28.6</ele>
        <time>2022-04-05T12:32:05Z</time>
      </trkpt>
      <trkpt lat="44.87567" lon="0.34758">
        <ele>28.6</ele>
        <time>2022-04-05T12:32:06Z</time>
      </trkpt>
      <trkpt lat="44.87566" lon="0.34758">
        <ele>28.6</ele>
        <time>2022-04-05T12:32:07Z</time>
      </trkpt>
      <trkpt lat="44.87565" lon="0.34758">
        <ele>28.6</ele>
        <time>2022-04-05T12:32:09Z</time>
      </trkpt>
      <trkpt lat="44.87564" lon="0.34757">
        <ele>28.6</ele>
        <time>2022-04-05T12:32:10Z</time>
      </trkpt>
      <trkpt lat="44.87563" lon="0.34757">
        <ele>28.6</ele>
        <time>2022-04-05T12:32:11Z</time>
      </trkpt>
      <trkpt lat="44.87562" lon="0.34756">
        <ele>28.6</ele>
        <time>2022-04-05T12:32:12Z</time>
      </trkpt>
      <trkpt lat="44.8756" lon="0.34756">
        <ele>28.6</ele>
        <time>2022-04-05T12:32:13Z</time>
      </trkpt>
      <trkpt lat="44.87559" lon="0.34757">
        <ele>28.6</ele>
        <time>2022-04-05T12:32:14Z</time>
      </trkpt>
      <trkpt lat="44.87558" lon="0.34757">
        <ele>28.6</ele>
        <time>2022-04-05T12:32:15Z</time>
      </trkpt>
      <trkpt lat="44.87557" lon="0.34757">
        <ele>28.6</ele>
        <time>2022-04-05T12:32:16Z</time>
      </trkpt>
      <trkpt lat="44.87556" lon="0.34757">
        <ele>28.6</ele>
        <time>2022-04-05T12:32:17Z</time>
      </trkpt>
      <trkpt lat="44.87555" lon="0.34757">
        <ele>28.6</ele>
        <time>2022-04-05T12:32:18Z</time>
      </trkpt>
      <trkpt lat="44.87553" lon="0.34757">
        <ele>28.6</ele>
        <time>2022-04-05T12:32:19Z</time>
      </trkpt>
      <trkpt lat="44.87551" lon="0.34757">
        <ele>28.6</ele>
        <time>2022-04-05T12:32:20Z</time>
      </trkpt>
      <trkpt lat="44.8755" lon="0.34757">
        <ele>28.6</ele>
        <time>2022-04-05T12:32:21Z</time>
      </trkpt>
      <trkpt lat="44.87549" lon="0.34757">
        <ele>28.6</ele>
        <time>2022-04-05T12:32:22Z</time>
      </trkpt>
      <trkpt lat="44.87547" lon="0.34757">
        <ele>28.6</ele>
        <time>2022-04-05T12:32:24Z</time>
      </trkpt>
      <trkpt lat="44.87546" lon="0.34757">
        <ele>28.6</ele>
        <time>2022-04-05T12:32:25Z</time>
      </trkpt>
      <trkpt lat="44.87545" lon="0.34757">
        <ele>28.6</ele>
        <time>2022-04-05T12:32:26Z</time>
      </trkpt>
      <trkpt lat="44.87542" lon="0.34757">
        <ele>28.6</ele>
        <time>2022-04-05T12:32:27Z</time>
      </trkpt>
      <trkpt lat="44.87541" lon="0.34757">
        <ele>28.6</ele>
        <time>2022-04-05T12:32:28Z</time>
      </trkpt>
      <trkpt lat="44.8754" lon="0.34757">
        <ele>28.6</ele>
        <time>2022-04-05T12:32:29Z</time>
      </trkpt>
      <trkpt lat="44.87539" lon="0.34757">
        <ele>28.6</ele>
        <time>2022-04-05T12:32:30Z</time>
      </trkpt>
      <trkpt lat="44.87538" lon="0.34757">
        <ele>28.6</ele>
        <time>2022-04-05T12:32:31Z</time>
      </trkpt>
      <trkpt lat="44.87536" lon="0.34757">
        <ele>28.6</ele>
        <time>2022-04-05T12:32:32Z</time>
      </trkpt>
      <trkpt lat="44.87535" lon="0.34757">
        <ele>28.6</ele>
        <time>2022-04-05T12:32:33Z</time>
      </trkpt>
      <trkpt lat="44.87532" lon="0.34757">
        <ele>28.6</ele>
        <time>2022-04-05T12:32:35Z</time>
      </trkpt>
      <trkpt lat="44.87532" lon="0.34757">
        <ele>28.6</ele>
        <time>2022-04-05T12:32:36Z</time>
      </trkpt>
      <trkpt lat="44.8753" lon="0.34757">
        <ele>28.6</ele>
        <time>2022-04-05T12:32:37Z</time>
      </trkpt>
      <trkpt lat="44.87529" lon="0.34757">
        <ele>28.6</ele>
        <time>2022-04-05T12:32:38Z</time>
      </trkpt>
      <trkpt lat="44.87528" lon="0.34757">
        <ele>28.6</ele>
        <time>2022-04-05T12:32:39Z</time>
      </trkpt>
      <trkpt lat="44.87526" lon="0.34757">
        <ele>28.6</ele>
        <time>2022-04-05T12:32:40Z</time>
      </trkpt>
      <trkpt lat="44.87525" lon="0.34757">
        <ele>28.6</ele>
        <time>2022-04-05T12:32:41Z</time>
      </trkpt>
      <trkpt lat="44.87524" lon="0.34758">
        <ele>28.6</ele>
        <time>2022-04-05T12:32:42Z</time>
      </trkpt>
      <trkpt lat="44.87523" lon="0.34758">
        <ele>28.6</ele>
        <time>2022-04-05T12:32:43Z</time>
      </trkpt>
      <trkpt lat="44.8752" lon="0.34758">
        <ele>28.6</ele>
        <time>2022-04-05T12:32:45Z</time>
      </trkpt>
      <trkpt lat="44.87519" lon="0.34758">
        <ele>28.6</ele>
        <time>2022-04-05T12:32:46Z</time>
      </trkpt>
      <trkpt lat="44.87518" lon="0.34758">
        <ele>28.6</ele>
        <time>2022-04-05T12:32:47Z</time>
      </trkpt>
      <trkpt lat="44.87517" lon="0.34759">
        <ele>28.6</ele>
        <time>2022-04-05T12:32:48Z</time>
      </trkpt>
      <trkpt lat="44.87515" lon="0.3476">
        <ele>28.6</ele>
        <time>2022-04-05T12:32:49Z</time>
      </trkpt>
      <trkpt lat="44.87513" lon="0.3476">
        <ele>28.6</ele>
        <time>2022-04-05T12:32:50Z</time>
      </trkpt>
      <trkpt lat="44.87512" lon="0.3476">
        <ele>28.5</ele>
        <time>2022-04-05T12:32:51Z</time>
      </trkpt>
      <trkpt lat="44.87511" lon="0.3476">
        <ele>28.5</ele>
        <time>2022-04-05T12:32:52Z</time>
      </trkpt>
      <trkpt lat="44.87511" lon="0.3476">
        <ele>28.5</ele>
        <time>2022-04-05T12:32:53Z</time>
      </trkpt>
      <trkpt lat="44.8751" lon="0.3476">
        <ele>28.5</ele>
        <time>2022-04-05T12:32:54Z</time>
      </trkpt>
      <trkpt lat="44.87508" lon="0.3476">
        <ele>28.5</ele>
        <time>2022-04-05T12:32:55Z</time>
      </trkpt>
      <trkpt lat="44.87507" lon="0.3476">
        <ele>28.5</ele>
        <time>2022-04-05T12:32:56Z</time>
      </trkpt>
      <trkpt lat="44.87506" lon="0.3476">
        <ele>28.5</ele>
        <time>2022-04-05T12:32:57Z</time>
      </trkpt>
      <trkpt lat="44.87505" lon="0.3476">
        <ele>28.5</ele>
        <time>2022-04-05T12:32:58Z</time>
      </trkpt>
      <trkpt lat="44.87503" lon="0.3476">
        <ele>28.5</ele>
        <time>2022-04-05T12:32:59Z</time>
      </trkpt>
      <trkpt lat="44.87501" lon="0.34761">
        <ele>28.5</ele>
        <time>2022-04-05T12:33:00Z</time>
      </trkpt>
      <trkpt lat="44.87501" lon="0.34761">
        <ele>28.5</ele>
        <time>2022-04-05T12:33:01Z</time>
      </trkpt>
      <trkpt lat="44.87499" lon="0.34762">
        <ele>28.5</ele>
        <time>2022-04-05T12:33:02Z</time>
      </trkpt>
      <trkpt lat="44.87498" lon="0.34762">
        <ele>28.5</ele>
        <time>2022-04-05T12:33:03Z</time>
      </trkpt>
      <trkpt lat="44.87497" lon="0.34762">
        <ele>28.5</ele>
        <time>2022-04-05T12:33:04Z</time>
      </trkpt>
      <trkpt lat="44.87495" lon="0.34762">
        <ele>28.5</ele>
        <time>2022-04-05T12:33:06Z</time>
      </trkpt>
      <trkpt lat="44.87494" lon="0.34763">
        <ele>28.5</ele>
        <time>2022-04-05T12:33:07Z</time>
      </trkpt>
      <trkpt lat="44.87492" lon="0.34763">
        <ele>28.5</ele>
        <time>2022-04-05T12:33:08Z</time>
      </trkpt>
      <trkpt lat="44.87491" lon="0.34763">
        <ele>28.5</ele>
        <time>2022-04-05T12:33:09Z</time>
      </trkpt>
      <trkpt lat="44.87489" lon="0.34764">
        <ele>28.5</ele>
        <time>2022-04-05T12:33:10Z</time>
      </trkpt>
      <trkpt lat="44.87489" lon="0.34764">
        <ele>28.5</ele>
        <time>2022-04-05T12:33:11Z</time>
      </trkpt>
      <trkpt lat="44.87488" lon="0.34763">
        <ele>28.5</ele>
        <time>2022-04-05T12:33:12Z</time>
      </trkpt>
      <trkpt lat="44.87486" lon="0.34763">
        <ele>28.5</ele>
        <time>2022-04-05T12:33:13Z</time>
      </trkpt>
      <trkpt lat="44.87485" lon="0.34764">
        <ele>28.4</ele>
        <time>2022-04-05T12:33:14Z</time>
      </trkpt>
      <trkpt lat="44.87483" lon="0.34764">
        <ele>28.4</ele>
        <time>2022-04-05T12:33:15Z</time>
      </trkpt>
      <trkpt lat="44.87483" lon="0.34764">
        <ele>28.4</ele>
        <time>2022-04-05T12:33:16Z</time>
      </trkpt>
      <trkpt lat="44.87481" lon="0.34764">
        <ele>28.4</ele>
        <time>2022-04-05T12:33:17Z</time>
      </trkpt>
      <trkpt lat="44.8748" lon="0.34764">
        <ele>28.4</ele>
        <time>2022-04-05T12:33:18Z</time>
      </trkpt>
      <trkpt lat="44.87479" lon="0.34765">
        <ele>28.4</ele>
        <time>2022-04-05T12:33:19Z</time>
      </trkpt>
      <trkpt lat="44.87477" lon="0.34765">
        <ele>28.4</ele>
        <time>2022-04-05T12:33:20Z</time>
      </trkpt>
      <trkpt lat="44.87475" lon="0.34766">
        <ele>28.4</ele>
        <time>2022-04-05T12:33:21Z</time>
      </trkpt>
      <trkpt lat="44.87474" lon="0.34766">
        <ele>28.4</ele>
        <time>2022-04-05T12:33:22Z</time>
      </trkpt>
      <trkpt lat="44.87473" lon="0.34766">
        <ele>28.3</ele>
        <time>2022-04-05T12:33:23Z</time>
      </trkpt>
      <trkpt lat="44.8747" lon="0.34767">
        <ele>28.3</ele>
        <time>2022-04-05T12:33:25Z</time>
      </trkpt>
      <trkpt lat="44.87469" lon="0.34768">
        <ele>28.3</ele>
        <time>2022-04-05T12:33:26Z</time>
      </trkpt>
      <trkpt lat="44.87468" lon="0.34768">
        <ele>28.3</ele>
        <time>2022-04-05T12:33:27Z</time>
      </trkpt>
      <trkpt lat="44.87467" lon="0.34768">
        <ele>28.3</ele>
        <time>2022-04-05T12:33:28Z</time>
      </trkpt>
      <trkpt lat="44.87465" lon="0.34769">
        <ele>28.2</ele>
        <time>2022-04-05T12:33:29Z</time>
      </trkpt>
      <trkpt lat="44.87463" lon="0.34769">
        <ele>28.2</ele>
        <time>2022-04-05T12:33:31Z</time>
      </trkpt>
      <trkpt lat="44.87461" lon="0.3477">
        <ele>28.2</ele>
        <time>2022-04-05T12:33:32Z</time>
      </trkpt>
      <trkpt lat="44.8746" lon="0.34771">
        <ele>28.2</ele>
        <time>2022-04-05T12:33:33Z</time>
      </trkpt>
      <trkpt lat="44.87459" lon="0.34771">
        <ele>28.2</ele>
        <time>2022-04-05T12:33:34Z</time>
      </trkpt>
      <trkpt lat="44.87457" lon="0.34772">
        <ele>28.2</ele>
        <time>2022-04-05T12:33:35Z</time>
      </trkpt>
      <trkpt lat="44.87457" lon="0.34772">
        <ele>28.1</ele>
        <time>2022-04-05T12:33:36Z</time>
      </trkpt>
      <trkpt lat="44.87455" lon="0.34772">
        <ele>28.1</ele>
        <time>2022-04-05T12:33:37Z</time>
      </trkpt>
      <trkpt lat="44.87454" lon="0.34773">
        <ele>28.1</ele>
        <time>2022-04-05T12:33:38Z</time>
      </trkpt>
      <trkpt lat="44.87453" lon="0.34773">
        <ele>28.1</ele>
        <time>2022-04-05T12:33:39Z</time>
      </trkpt>
      <trkpt lat="44.87451" lon="0.34773">
        <ele>28.1</ele>
        <time>2022-04-05T12:33:40Z</time>
      </trkpt>
      <trkpt lat="44.8745" lon="0.34773">
        <ele>28.1</ele>
        <time>2022-04-05T12:33:41Z</time>
      </trkpt>
      <trkpt lat="44.87449" lon="0.34773">
        <ele>28.1</ele>
        <time>2022-04-05T12:33:42Z</time>
      </trkpt>
      <trkpt lat="44.87447" lon="0.34773">
        <ele>28</ele>
        <time>2022-04-05T12:33:43Z</time>
      </trkpt>
      <trkpt lat="44.87446" lon="0.34774">
        <ele>28</ele>
        <time>2022-04-05T12:33:44Z</time>
      </trkpt>
      <trkpt lat="44.87444" lon="0.34774">
        <ele>28</ele>
        <time>2022-04-05T12:33:45Z</time>
      </trkpt>
      <trkpt lat="44.87443" lon="0.34774">
        <ele>28</ele>
        <time>2022-04-05T12:33:46Z</time>
      </trkpt>
      <trkpt lat="44.87442" lon="0.34774">
        <ele>28</ele>
        <time>2022-04-05T12:33:48Z</time>
      </trkpt>
      <trkpt lat="44.8744" lon="0.34774">
        <ele>28</ele>
        <time>2022-04-05T12:33:49Z</time>
      </trkpt>
      <trkpt lat="44.87438" lon="0.34774">
        <ele>27.9</ele>
        <time>2022-04-05T12:33:50Z</time>
      </trkpt>
      <trkpt lat="44.87437" lon="0.34774">
        <ele>27.9</ele>
        <time>2022-04-05T12:33:51Z</time>
      </trkpt>
      <trkpt lat="44.87436" lon="0.34775">
        <ele>27.9</ele>
        <time>2022-04-05T12:33:52Z</time>
      </trkpt>
      <trkpt lat="44.87436" lon="0.34775">
        <ele>27.9</ele>
        <time>2022-04-05T12:33:53Z</time>
      </trkpt>
      <trkpt lat="44.87435" lon="0.34776">
        <ele>27.9</ele>
        <time>2022-04-05T12:33:54Z</time>
      </trkpt>
      <trkpt lat="44.87432" lon="0.34776">
        <ele>27.9</ele>
        <time>2022-04-05T12:33:55Z</time>
      </trkpt>
      <trkpt lat="44.87432" lon="0.34777">
        <ele>27.9</ele>
        <time>2022-04-05T12:33:56Z</time>
      </trkpt>
      <trkpt lat="44.8743" lon="0.34778">
        <ele>27.8</ele>
        <time>2022-04-05T12:33:58Z</time>
      </trkpt>
      <trkpt lat="44.87429" lon="0.34778">
        <ele>27.8</ele>
        <time>2022-04-05T12:33:59Z</time>
      </trkpt>
      <trkpt lat="44.87428" lon="0.34779">
        <ele>27.8</ele>
        <time>2022-04-05T12:34:00Z</time>
      </trkpt>
      <trkpt lat="44.87426" lon="0.3478">
        <ele>27.8</ele>
        <time>2022-04-05T12:34:01Z</time>
      </trkpt>
      <trkpt lat="44.87425" lon="0.3478">
        <ele>27.8</ele>
        <time>2022-04-05T12:34:02Z</time>
      </trkpt>
      <trkpt lat="44.87424" lon="0.34781">
        <ele>27.8</ele>
        <time>2022-04-05T12:34:03Z</time>
      </trkpt>
      <trkpt lat="44.87423" lon="0.34782">
        <ele>27.8</ele>
        <time>2022-04-05T12:34:04Z</time>
      </trkpt>
      <trkpt lat="44.8742" lon="0.34784">
        <ele>27.7</ele>
        <time>2022-04-05T12:34:05Z</time>
      </trkpt>
      <trkpt lat="44.87419" lon="0.34784">
        <ele>27.7</ele>
        <time>2022-04-05T12:34:06Z</time>
      </trkpt>
      <trkpt lat="44.87418" lon="0.34784">
        <ele>27.7</ele>
        <time>2022-04-05T12:34:07Z</time>
      </trkpt>
      <trkpt lat="44.87417" lon="0.34786">
        <ele>27.7</ele>
        <time>2022-04-05T12:34:08Z</time>
      </trkpt>
      <trkpt lat="44.87416" lon="0.34788">
        <ele>27.7</ele>
        <time>2022-04-05T12:34:09Z</time>
      </trkpt>
      <trkpt lat="44.87415" lon="0.34789">
        <ele>27.7</ele>
        <time>2022-04-05T12:34:10Z</time>
      </trkpt>
      <trkpt lat="44.87414" lon="0.3479">
        <ele>27.7</ele>
        <time>2022-04-05T12:34:12Z</time>
      </trkpt>
      <trkpt lat="44.87413" lon="0.34791">
        <ele>27.7</ele>
        <time>2022-04-05T12:34:13Z</time>
      </trkpt>
      <trkpt lat="44.87412" lon="0.34792">
        <ele>27.7</ele>
        <time>2022-04-05T12:34:14Z</time>
      </trkpt>
      <trkpt lat="44.87411" lon="0.34792">
        <ele>27.7</ele>
        <time>2022-04-05T12:34:15Z</time>
      </trkpt>
      <trkpt lat="44.87411" lon="0.34793">
        <ele>27.7</ele>
        <time>2022-04-05T12:34:17Z</time>
      </trkpt>
      <trkpt lat="44.8741" lon="0.34794">
        <ele>27.7</ele>
        <time>2022-04-05T12:34:18Z</time>
      </trkpt>
      <trkpt lat="44.87408" lon="0.34795">
        <ele>27.7</ele>
        <time>2022-04-05T12:34:19Z</time>
      </trkpt>
      <trkpt lat="44.87407" lon="0.34796">
        <ele>27.7</ele>
        <time>2022-04-05T12:34:20Z</time>
      </trkpt>
      <trkpt lat="44.87406" lon="0.34796">
        <ele>27.7</ele>
        <time>2022-04-05T12:34:21Z</time>
      </trkpt>
      <trkpt lat="44.87406" lon="0.34797">
        <ele>27.7</ele>
        <time>2022-04-05T12:34:22Z</time>
      </trkpt>
      <trkpt lat="44.87404" lon="0.34798">
        <ele>27.7</ele>
        <time>2022-04-05T12:34:23Z</time>
      </trkpt>
      <trkpt lat="44.87403" lon="0.34799">
        <ele>27.7</ele>
        <time>2022-04-05T12:34:24Z</time>
      </trkpt>
      <trkpt lat="44.87402" lon="0.348">
        <ele>27.6</ele>
        <time>2022-04-05T12:34:25Z</time>
      </trkpt>
      <trkpt lat="44.874" lon="0.34801">
        <ele>27.6</ele>
        <time>2022-04-05T12:34:27Z</time>
      </trkpt>
      <trkpt lat="44.87399" lon="0.34802">
        <ele>27.6</ele>
        <time>2022-04-05T12:34:28Z</time>
      </trkpt>
      <trkpt lat="44.87398" lon="0.34803">
        <ele>27.6</ele>
        <time>2022-04-05T12:34:29Z</time>
      </trkpt>
      <trkpt lat="44.87396" lon="0.34805">
        <ele>27.6</ele>
        <time>2022-04-05T12:34:31Z</time>
      </trkpt>
      <trkpt lat="44.87395" lon="0.34806">
        <ele>27.6</ele>
        <time>2022-04-05T12:34:32Z</time>
      </trkpt>
      <trkpt lat="44.87394" lon="0.34806">
        <ele>27.6</ele>
        <time>2022-04-05T12:34:33Z</time>
      </trkpt>
      <trkpt lat="44.87393" lon="0.34807">
        <ele>27.6</ele>
        <time>2022-04-05T12:34:34Z</time>
      </trkpt>
      <trkpt lat="44.87392" lon="0.34808">
        <ele>27.6</ele>
        <time>2022-04-05T12:34:35Z</time>
      </trkpt>
      <trkpt lat="44.8739" lon="0.34808">
        <ele>27.6</ele>
        <time>2022-04-05T12:34:36Z</time>
      </trkpt>
      <trkpt lat="44.87389" lon="0.34809">
        <ele>27.6</ele>
        <time>2022-04-05T12:34:37Z</time>
      </trkpt>
      <trkpt lat="44.87388" lon="0.3481">
        <ele>27.6</ele>
        <time>2022-04-05T12:34:38Z</time>
      </trkpt>
      <trkpt lat="44.87387" lon="0.34811">
        <ele>27.6</ele>
        <time>2022-04-05T12:34:39Z</time>
      </trkpt>
      <trkpt lat="44.87386" lon="0.34811">
        <ele>27.6</ele>
        <time>2022-04-05T12:34:40Z</time>
      </trkpt>
      <trkpt lat="44.87384" lon="0.34812">
        <ele>27.6</ele>
        <time>2022-04-05T12:34:41Z</time>
      </trkpt>
      <trkpt lat="44.87383" lon="0.34812">
        <ele>27.6</ele>
        <time>2022-04-05T12:34:42Z</time>
      </trkpt>
      <trkpt lat="44.87382" lon="0.34813">
        <ele>27.6</ele>
        <time>2022-04-05T12:34:43Z</time>
      </trkpt>
      <trkpt lat="44.87381" lon="0.34815">
        <ele>27.6</ele>
        <time>2022-04-05T12:34:44Z</time>
      </trkpt>
      <trkpt lat="44.87379" lon="0.34817">
        <ele>27.6</ele>
        <time>2022-04-05T12:34:45Z</time>
      </trkpt>
      <trkpt lat="44.87378" lon="0.34817">
        <ele>27.6</ele>
        <time>2022-04-05T12:34:46Z</time>
      </trkpt>
      <trkpt lat="44.87377" lon="0.34818">
        <ele>27.6</ele>
        <time>2022-04-05T12:34:47Z</time>
      </trkpt>
      <trkpt lat="44.87376" lon="0.34819">
        <ele>27.6</ele>
        <time>2022-04-05T12:34:48Z</time>
      </trkpt>
      <trkpt lat="44.87375" lon="0.3482">
        <ele>27.6</ele>
        <time>2022-04-05T12:34:49Z</time>
      </trkpt>
      <trkpt lat="44.87373" lon="0.34822">
        <ele>27.6</ele>
        <time>2022-04-05T12:34:51Z</time>
      </trkpt>
      <trkpt lat="44.87372" lon="0.34822">
        <ele>27.6</ele>
        <time>2022-04-05T12:34:52Z</time>
      </trkpt>
      <trkpt lat="44.87371" lon="0.34823">
        <ele>27.6</ele>
        <time>2022-04-05T12:34:53Z</time>
      </trkpt>
      <trkpt lat="44.8737" lon="0.34824">
        <ele>27.6</ele>
        <time>2022-04-05T12:34:54Z</time>
      </trkpt>
      <trkpt lat="44.87369" lon="0.34825">
        <ele>27.6</ele>
        <time>2022-04-05T12:34:55Z</time>
      </trkpt>
      <trkpt lat="44.87367" lon="0.34826">
        <ele>27.6</ele>
        <time>2022-04-05T12:34:56Z</time>
      </trkpt>
      <trkpt lat="44.87366" lon="0.34827">
        <ele>27.6</ele>
        <time>2022-04-05T12:34:57Z</time>
      </trkpt>
      <trkpt lat="44.87365" lon="0.34827">
        <ele>27.6</ele>
        <time>2022-04-05T12:34:58Z</time>
      </trkpt>
      <trkpt lat="44.87364" lon="0.34828">
        <ele>27.6</ele>
        <time>2022-04-05T12:34:59Z</time>
      </trkpt>
      <trkpt lat="44.87363" lon="0.34829">
        <ele>27.5</ele>
        <time>2022-04-05T12:35:00Z</time>
      </trkpt>
      <trkpt lat="44.87362" lon="0.34831">
        <ele>27.5</ele>
        <time>2022-04-05T12:35:01Z</time>
      </trkpt>
      <trkpt lat="44.8736" lon="0.34833">
        <ele>27.5</ele>
        <time>2022-04-05T12:35:02Z</time>
      </trkpt>
      <trkpt lat="44.8736" lon="0.34834">
        <ele>27.5</ele>
        <time>2022-04-05T12:35:03Z</time>
      </trkpt>
      <trkpt lat="44.87359" lon="0.34834">
        <ele>27.5</ele>
        <time>2022-04-05T12:35:04Z</time>
      </trkpt>
      <trkpt lat="44.87358" lon="0.34835">
        <ele>27.5</ele>
        <time>2022-04-05T12:35:05Z</time>
      </trkpt>
      <trkpt lat="44.87356" lon="0.34835">
        <ele>27.5</ele>
        <time>2022-04-05T12:35:06Z</time>
      </trkpt>
      <trkpt lat="44.87355" lon="0.34836">
        <ele>27.5</ele>
        <time>2022-04-05T12:35:07Z</time>
      </trkpt>
      <trkpt lat="44.87354" lon="0.34837">
        <ele>27.5</ele>
        <time>2022-04-05T12:35:08Z</time>
      </trkpt>
      <trkpt lat="44.87353" lon="0.34837">
        <ele>27.5</ele>
        <time>2022-04-05T12:35:09Z</time>
      </trkpt>
      <trkpt lat="44.87352" lon="0.34838">
        <ele>27.5</ele>
        <time>2022-04-05T12:35:10Z</time>
      </trkpt>
      <trkpt lat="44.87351" lon="0.34839">
        <ele>27.5</ele>
        <time>2022-04-05T12:35:11Z</time>
      </trkpt>
      <trkpt lat="44.87349" lon="0.34841">
        <ele>27.5</ele>
        <time>2022-04-05T12:35:12Z</time>
      </trkpt>
      <trkpt lat="44.87349" lon="0.34842">
        <ele>27.5</ele>
        <time>2022-04-05T12:35:13Z</time>
      </trkpt>
      <trkpt lat="44.87347" lon="0.34843">
        <ele>27.5</ele>
        <time>2022-04-05T12:35:15Z</time>
      </trkpt>
      <trkpt lat="44.87346" lon="0.34844">
        <ele>27.5</ele>
        <time>2022-04-05T12:35:16Z</time>
      </trkpt>
      <trkpt lat="44.87345" lon="0.34845">
        <ele>27.5</ele>
        <time>2022-04-05T12:35:17Z</time>
      </trkpt>
      <trkpt lat="44.87343" lon="0.34846">
        <ele>27.5</ele>
        <time>2022-04-05T12:35:18Z</time>
      </trkpt>
      <trkpt lat="44.87342" lon="0.34847">
        <ele>27.5</ele>
        <time>2022-04-05T12:35:19Z</time>
      </trkpt>
      <trkpt lat="44.87341" lon="0.34848">
        <ele>27.5</ele>
        <time>2022-04-05T12:35:20Z</time>
      </trkpt>
      <trkpt lat="44.87338" lon="0.34849">
        <ele>27.4</ele>
        <time>2022-04-05T12:35:22Z</time>
      </trkpt>
      <trkpt lat="44.87338" lon="0.3485">
        <ele>27.4</ele>
        <time>2022-04-05T12:35:23Z</time>
      </trkpt>
      <trkpt lat="44.87336" lon="0.34851">
        <ele>27.4</ele>
        <time>2022-04-05T12:35:24Z</time>
      </trkpt>
      <trkpt lat="44.87335" lon="0.34852">
        <ele>27.4</ele>
        <time>2022-04-05T12:35:25Z</time>
      </trkpt>
      <trkpt lat="44.87334" lon="0.34853">
        <ele>27.4</ele>
        <time>2022-04-05T12:35:26Z</time>
      </trkpt>
      <trkpt lat="44.87332" lon="0.34854">
        <ele>27.4</ele>
        <time>2022-04-05T12:35:28Z</time>
      </trkpt>
      <trkpt lat="44.87331" lon="0.34855">
        <ele>27.4</ele>
        <time>2022-04-05T12:35:29Z</time>
      </trkpt>
      <trkpt lat="44.87329" lon="0.34856">
        <ele>27.4</ele>
        <time>2022-04-05T12:35:30Z</time>
      </trkpt>
      <trkpt lat="44.87328" lon="0.34856">
        <ele>27.4</ele>
        <time>2022-04-05T12:35:31Z</time>
      </trkpt>
      <trkpt lat="44.87328" lon="0.34857">
        <ele>27.5</ele>
        <time>2022-04-05T12:35:32Z</time>
      </trkpt>
      <trkpt lat="44.87327" lon="0.34857">
        <ele>27.5</ele>
        <time>2022-04-05T12:35:33Z</time>
      </trkpt>
      <trkpt lat="44.87327" lon="0.34858">
        <ele>27.5</ele>
        <time>2022-04-05T12:35:34Z</time>
      </trkpt>
      <trkpt lat="44.87328" lon="0.34859">
        <ele>27.5</ele>
        <time>2022-04-05T12:35:35Z</time>
      </trkpt>
      <trkpt lat="44.87328" lon="0.3486">
        <ele>27.5</ele>
        <time>2022-04-05T12:35:36Z</time>
      </trkpt>
      <trkpt lat="44.87329" lon="0.3486">
        <ele>27.5</ele>
        <time>2022-04-05T12:35:37Z</time>
      </trkpt>
      <trkpt lat="44.87329" lon="0.3486">
        <ele>27.5</ele>
        <time>2022-04-05T12:35:38Z</time>
      </trkpt>
      <trkpt lat="44.87329" lon="0.3486">
        <ele>27.5</ele>
        <time>2022-04-05T12:35:39Z</time>
      </trkpt>
      <trkpt lat="44.87329" lon="0.3486">
        <ele>27.5</ele>
        <time>2022-04-05T12:35:40Z</time>
      </trkpt>
      <trkpt lat="44.87329" lon="0.3486">
        <ele>27.5</ele>
        <time>2022-04-05T12:35:41Z</time>
      </trkpt>
      <trkpt lat="44.8733" lon="0.3486">
        <ele>27.5</ele>
        <time>2022-04-05T12:35:43Z</time>
      </trkpt>
      <trkpt lat="44.8733" lon="0.3486">
        <ele>27.5</ele>
        <time>2022-04-05T12:35:44Z</time>
      </trkpt>
      <trkpt lat="44.8733" lon="0.34859">
        <ele>27.5</ele>
        <time>2022-04-05T12:35:45Z</time>
      </trkpt>
      <trkpt lat="44.8733" lon="0.34859">
        <ele>27.5</ele>
        <time>2022-04-05T12:35:46Z</time>
      </trkpt>
      <trkpt lat="44.8733" lon="0.34859">
        <ele>27.5</ele>
        <time>2022-04-05T12:35:48Z</time>
      </trkpt>
      <trkpt lat="44.8733" lon="0.34859">
        <ele>27.5</ele>
        <time>2022-04-05T12:35:49Z</time>
      </trkpt>
      <trkpt lat="44.8733" lon="0.34859">
        <ele>27.5</ele>
        <time>2022-04-05T12:35:50Z</time>
      </trkpt>
      <trkpt lat="44.8733" lon="0.34859">
        <ele>27.5</ele>
        <time>2022-04-05T12:35:51Z</time>
      </trkpt>
      <trkpt lat="44.8733" lon="0.34859">
        <ele>27.5</ele>
        <time>2022-04-05T12:35:52Z</time>
      </trkpt>
      <trkpt lat="44.8733" lon="0.34859">
        <ele>27.5</ele>
        <time>2022-04-05T12:35:53Z</time>
      </trkpt>
      <trkpt lat="44.8733" lon="0.34859">
        <ele>27.5</ele>
        <time>2022-04-05T12:35:54Z</time>
      </trkpt>
      <trkpt lat="44.8733" lon="0.34859">
        <ele>27.5</ele>
        <time>2022-04-05T12:35:55Z</time>
      </trkpt>
      <trkpt lat="44.8733" lon="0.34859">
        <ele>27.5</ele>
        <time>2022-04-05T12:35:56Z</time>
      </trkpt>
      <trkpt lat="44.8733" lon="0.34859">
        <ele>27.5</ele>
        <time>2022-04-05T12:35:57Z</time>
      </trkpt>
      <trkpt lat="44.8733" lon="0.34859">
        <ele>27.5</ele>
        <time>2022-04-05T12:35:58Z</time>
      </trkpt>
      <trkpt lat="44.8733" lon="0.34859">
        <ele>27.5</ele>
        <time>2022-04-05T12:35:59Z</time>
      </trkpt>
      <trkpt lat="44.8733" lon="0.34859">
        <ele>27.5</ele>
        <time>2022-04-05T12:36:00Z</time>
      </trkpt>
      <trkpt lat="44.8733" lon="0.34859">
        <ele>27.5</ele>
        <time>2022-04-05T12:36:01Z</time>
      </trkpt>
      <trkpt lat="44.8733" lon="0.34859">
        <ele>27.5</ele>
        <time>2022-04-05T12:36:02Z</time>
      </trkpt>
      <trkpt lat="44.8733" lon="0.34859">
        <ele>27.5</ele>
        <time>2022-04-05T12:36:03Z</time>
      </trkpt>
      <trkpt lat="44.8733" lon="0.34859">
        <ele>27.5</ele>
        <time>2022-04-05T12:36:04Z</time>
      </trkpt>
      <trkpt lat="44.8733" lon="0.34859">
        <ele>27.5</ele>
        <time>2022-04-05T12:36:05Z</time>
      </trkpt>
      <trkpt lat="44.8733" lon="0.34859">
        <ele>27.5</ele>
        <time>2022-04-05T12:36:06Z</time>
      </trkpt>
      <trkpt lat="44.8733" lon="0.34859">
        <ele>27.5</ele>
        <time>2022-04-05T12:36:07Z</time>
      </trkpt>
      <trkpt lat="44.8733" lon="0.34859">
        <ele>27.5</ele>
        <time>2022-04-05T12:36:08Z</time>
      </trkpt>
      <trkpt lat="44.8733" lon="0.34859">
        <ele>27.5</ele>
        <time>2022-04-05T12:36:09Z</time>
      </trkpt>
      <trkpt lat="44.8733" lon="0.34859">
        <ele>27.5</ele>
        <time>2022-04-05T12:36:10Z</time>
      </trkpt>
      <trkpt lat="44.8733" lon="0.34859">
        <ele>27.5</ele>
        <time>2022-04-05T12:36:11Z</time>
      </trkpt>
      <trkpt lat="44.8733" lon="0.34859">
        <ele>27.5</ele>
        <time>2022-04-05T12:36:12Z</time>
      </trkpt>
      <trkpt lat="44.8733" lon="0.34859">
        <ele>27.5</ele>
        <time>2022-04-05T12:36:13Z</time>
      </trkpt>
      <trkpt lat="44.8733" lon="0.34859">
        <ele>27.5</ele>
        <time>2022-04-05T12:36:14Z</time>
      </trkpt>
      <trkpt lat="44.8733" lon="0.34859">
        <ele>27.5</ele>
        <time>2022-04-05T12:36:15Z</time>
      </trkpt>
      <trkpt lat="44.87329" lon="0.34859">
        <ele>27.5</ele>
        <time>2022-04-05T12:36:16Z</time>
      </trkpt>
      <trkpt lat="44.87329" lon="0.34859">
        <ele>27.5</ele>
        <time>2022-04-05T12:36:17Z</time>
      </trkpt>
      <trkpt lat="44.87329" lon="0.34859">
        <ele>27.5</ele>
        <time>2022-04-05T12:36:18Z</time>
      </trkpt>
      <trkpt lat="44.87329" lon="0.34858">
        <ele>27.5</ele>
        <time>2022-04-05T12:36:19Z</time>
      </trkpt>
      <trkpt lat="44.87329" lon="0.34858">
        <ele>27.5</ele>
        <time>2022-04-05T12:36:20Z</time>
      </trkpt>
      <trkpt lat="44.87328" lon="0.34858">
        <ele>27.5</ele>
        <time>2022-04-05T12:36:21Z</time>
      </trkpt>
      <trkpt lat="44.87328" lon="0.34858">
        <ele>27.5</ele>
        <time>2022-04-05T12:36:22Z</time>
      </trkpt>
      <trkpt lat="44.87327" lon="0.34857">
        <ele>27.5</ele>
        <time>2022-04-05T12:36:23Z</time>
      </trkpt>
      <trkpt lat="44.87326" lon="0.34858">
        <ele>27.5</ele>
        <time>2022-04-05T12:36:24Z</time>
      </trkpt>
      <trkpt lat="44.87325" lon="0.34859">
        <ele>27.5</ele>
        <time>2022-04-05T12:36:25Z</time>
      </trkpt>
      <trkpt lat="44.87325" lon="0.3486">
        <ele>27.5</ele>
        <time>2022-04-05T12:36:26Z</time>
      </trkpt>
      <trkpt lat="44.87324" lon="0.34861">
        <ele>27.5</ele>
        <time>2022-04-05T12:36:27Z</time>
      </trkpt>
      <trkpt lat="44.87323" lon="0.34861">
        <ele>27.5</ele>
        <time>2022-04-05T12:36:28Z</time>
      </trkpt>
      <trkpt lat="44.87322" lon="0.34861">
        <ele>27.5</ele>
        <time>2022-04-05T12:36:30Z</time>
      </trkpt>
      <trkpt lat="44.87321" lon="0.34861">
        <ele>27.5</ele>
        <time>2022-04-05T12:36:31Z</time>
      </trkpt>
      <trkpt lat="44.87321" lon="0.34862">
        <ele>27.5</ele>
        <time>2022-04-05T12:36:32Z</time>
      </trkpt>
      <trkpt lat="44.8732" lon="0.34862">
        <ele>27.5</ele>
        <time>2022-04-05T12:36:33Z</time>
      </trkpt>
      <trkpt lat="44.87319" lon="0.34863">
        <ele>27.5</ele>
        <time>2022-04-05T12:36:35Z</time>
      </trkpt>
      <trkpt lat="44.87318" lon="0.34864">
        <ele>27.5</ele>
        <time>2022-04-05T12:36:36Z</time>
      </trkpt>
      <trkpt lat="44.87317" lon="0.34864">
        <ele>27.5</ele>
        <time>2022-04-05T12:36:37Z</time>
      </trkpt>
      <trkpt lat="44.87315" lon="0.34865">
        <ele>27.5</ele>
        <time>2022-04-05T12:36:38Z</time>
      </trkpt>
      <trkpt lat="44.87314" lon="0.34866">
        <ele>27.5</ele>
        <time>2022-04-05T12:36:39Z</time>
      </trkpt>
      <trkpt lat="44.87313" lon="0.34866">
        <ele>27.5</ele>
        <time>2022-04-05T12:36:40Z</time>
      </trkpt>
      <trkpt lat="44.87312" lon="0.34866">
        <ele>27.5</ele>
        <time>2022-04-05T12:36:41Z</time>
      </trkpt>
      <trkpt lat="44.87311" lon="0.34867">
        <ele>27.5</ele>
        <time>2022-04-05T12:36:42Z</time>
      </trkpt>
      <trkpt lat="44.8731" lon="0.34867">
        <ele>27.5</ele>
        <time>2022-04-05T12:36:43Z</time>
      </trkpt>
      <trkpt lat="44.87309" lon="0.34868">
        <ele>27.5</ele>
        <time>2022-04-05T12:36:44Z</time>
      </trkpt>
      <trkpt lat="44.87308" lon="0.34868">
        <ele>27.5</ele>
        <time>2022-04-05T12:36:45Z</time>
      </trkpt>
      <trkpt lat="44.87306" lon="0.34869">
        <ele>27.5</ele>
        <time>2022-04-05T12:36:46Z</time>
      </trkpt>
      <trkpt lat="44.87303" lon="0.3487">
        <ele>27.5</ele>
        <time>2022-04-05T12:36:47Z</time>
      </trkpt>
      <trkpt lat="44.87302" lon="0.34871">
        <ele>27.5</ele>
        <time>2022-04-05T12:36:49Z</time>
      </trkpt>
      <trkpt lat="44.87302" lon="0.34872">
        <ele>27.5</ele>
        <time>2022-04-05T12:36:50Z</time>
      </trkpt>
      <trkpt lat="44.873" lon="0.34873">
        <ele>27.5</ele>
        <time>2022-04-05T12:36:51Z</time>
      </trkpt>
      <trkpt lat="44.873" lon="0.34874">
        <ele>27.5</ele>
        <time>2022-04-05T12:36:52Z</time>
      </trkpt>
      <trkpt lat="44.87298" lon="0.34875">
        <ele>27.5</ele>
        <time>2022-04-05T12:36:53Z</time>
      </trkpt>
      <trkpt lat="44.87297" lon="0.34876">
        <ele>27.5</ele>
        <time>2022-04-05T12:36:54Z</time>
      </trkpt>
      <trkpt lat="44.87296" lon="0.34877">
        <ele>27.5</ele>
        <time>2022-04-05T12:36:55Z</time>
      </trkpt>
      <trkpt lat="44.87295" lon="0.34877">
        <ele>27.6</ele>
        <time>2022-04-05T12:36:56Z</time>
      </trkpt>
      <trkpt lat="44.87292" lon="0.34878">
        <ele>27.6</ele>
        <time>2022-04-05T12:36:57Z</time>
      </trkpt>
      <trkpt lat="44.87292" lon="0.34878">
        <ele>27.6</ele>
        <time>2022-04-05T12:36:58Z</time>
      </trkpt>
      <trkpt lat="44.87291" lon="0.34878">
        <ele>27.6</ele>
        <time>2022-04-05T12:37:00Z</time>
      </trkpt>
      <trkpt lat="44.87289" lon="0.34879">
        <ele>27.6</ele>
        <time>2022-04-05T12:37:01Z</time>
      </trkpt>
      <trkpt lat="44.87287" lon="0.3488">
        <ele>27.6</ele>
        <time>2022-04-05T12:37:02Z</time>
      </trkpt>
      <trkpt lat="44.87286" lon="0.34881">
        <ele>27.6</ele>
        <time>2022-04-05T12:37:03Z</time>
      </trkpt>
      <trkpt lat="44.87285" lon="0.34881">
        <ele>27.6</ele>
        <time>2022-04-05T12:37:04Z</time>
      </trkpt>
      <trkpt lat="44.87284" lon="0.34881">
        <ele>27.5</ele>
        <time>2022-04-05T12:37:05Z</time>
      </trkpt>
      <trkpt lat="44.87283" lon="0.34882">
        <ele>27.5</ele>
        <time>2022-04-05T12:37:06Z</time>
      </trkpt>
      <trkpt lat="44.87281" lon="0.34883">
        <ele>27.5</ele>
        <time>2022-04-05T12:37:07Z</time>
      </trkpt>
      <trkpt lat="44.8728" lon="0.34884">
        <ele>27.5</ele>
        <time>2022-04-05T12:37:08Z</time>
      </trkpt>
      <trkpt lat="44.87279" lon="0.34886">
        <ele>27.5</ele>
        <time>2022-04-05T12:37:09Z</time>
      </trkpt>
      <trkpt lat="44.87278" lon="0.34887">
        <ele>27.5</ele>
        <time>2022-04-05T12:37:10Z</time>
      </trkpt>
      <trkpt lat="44.87278" lon="0.34888">
        <ele>27.5</ele>
        <time>2022-04-05T12:37:11Z</time>
      </trkpt>
      <trkpt lat="44.87276" lon="0.34888">
        <ele>27.5</ele>
        <time>2022-04-05T12:37:12Z</time>
      </trkpt>
      <trkpt lat="44.87275" lon="0.34889">
        <ele>27.5</ele>
        <time>2022-04-05T12:37:13Z</time>
      </trkpt>
      <trkpt lat="44.87273" lon="0.34889">
        <ele>27.5</ele>
        <time>2022-04-05T12:37:15Z</time>
      </trkpt>
      <trkpt lat="44.87272" lon="0.34889">
        <ele>27.5</ele>
        <time>2022-04-05T12:37:16Z</time>
      </trkpt>
      <trkpt lat="44.87271" lon="0.3489">
        <ele>27.4</ele>
        <time>2022-04-05T12:37:17Z</time>
      </trkpt>
      <trkpt lat="44.87269" lon="0.34891">
        <ele>27.4</ele>
        <time>2022-04-05T12:37:18Z</time>
      </trkpt>
      <trkpt lat="44.87268" lon="0.34891">
        <ele>27.4</ele>
        <time>2022-04-05T12:37:19Z</time>
      </trkpt>
      <trkpt lat="44.87267" lon="0.34891">
        <ele>27.4</ele>
        <time>2022-04-05T12:37:20Z</time>
      </trkpt>
      <trkpt lat="44.87266" lon="0.34891">
        <ele>27.4</ele>
        <time>2022-04-05T12:37:21Z</time>
      </trkpt>
      <trkpt lat="44.87265" lon="0.34891">
        <ele>27.4</ele>
        <time>2022-04-05T12:37:22Z</time>
      </trkpt>
      <trkpt lat="44.87263" lon="0.34891">
        <ele>27.4</ele>
        <time>2022-04-05T12:37:23Z</time>
      </trkpt>
      <trkpt lat="44.87263" lon="0.34891">
        <ele>27.4</ele>
        <time>2022-04-05T12:37:24Z</time>
      </trkpt>
      <trkpt lat="44.87262" lon="0.34892">
        <ele>27.4</ele>
        <time>2022-04-05T12:37:25Z</time>
      </trkpt>
      <trkpt lat="44.87261" lon="0.34892">
        <ele>27.3</ele>
        <time>2022-04-05T12:37:26Z</time>
      </trkpt>
      <trkpt lat="44.8726" lon="0.34893">
        <ele>27.3</ele>
        <time>2022-04-05T12:37:27Z</time>
      </trkpt>
      <trkpt lat="44.87259" lon="0.34893">
        <ele>27.3</ele>
        <time>2022-04-05T12:37:28Z</time>
      </trkpt>
      <trkpt lat="44.87258" lon="0.34894">
        <ele>27.3</ele>
        <time>2022-04-05T12:37:29Z</time>
      </trkpt>
      <trkpt lat="44.87257" lon="0.34894">
        <ele>27.3</ele>
        <time>2022-04-05T12:37:30Z</time>
      </trkpt>
      <trkpt lat="44.87256" lon="0.34895">
        <ele>27.3</ele>
        <time>2022-04-05T12:37:31Z</time>
      </trkpt>
      <trkpt lat="44.87255" lon="0.34895">
        <ele>27.3</ele>
        <time>2022-04-05T12:37:32Z</time>
      </trkpt>
      <trkpt lat="44.87253" lon="0.34896">
        <ele>27.3</ele>
        <time>2022-04-05T12:37:33Z</time>
      </trkpt>
      <trkpt lat="44.87252" lon="0.34897">
        <ele>27.3</ele>
        <time>2022-04-05T12:37:34Z</time>
      </trkpt>
      <trkpt lat="44.87251" lon="0.34897">
        <ele>27.3</ele>
        <time>2022-04-05T12:37:35Z</time>
      </trkpt>
      <trkpt lat="44.87249" lon="0.34898">
        <ele>27.2</ele>
        <time>2022-04-05T12:37:36Z</time>
      </trkpt>
      <trkpt lat="44.87247" lon="0.34899">
        <ele>27.2</ele>
        <time>2022-04-05T12:37:37Z</time>
      </trkpt>
      <trkpt lat="44.87247" lon="0.34899">
        <ele>27.2</ele>
        <time>2022-04-05T12:37:38Z</time>
      </trkpt>
      <trkpt lat="44.87245" lon="0.349">
        <ele>27.2</ele>
        <time>2022-04-05T12:37:39Z</time>
      </trkpt>
      <trkpt lat="44.87244" lon="0.349">
        <ele>27.2</ele>
        <time>2022-04-05T12:37:41Z</time>
      </trkpt>
      <trkpt lat="44.87243" lon="0.349">
        <ele>27.2</ele>
        <time>2022-04-05T12:37:42Z</time>
      </trkpt>
      <trkpt lat="44.87241" lon="0.349">
        <ele>27.2</ele>
        <time>2022-04-05T12:37:43Z</time>
      </trkpt>
      <trkpt lat="44.8724" lon="0.349">
        <ele>27.2</ele>
        <time>2022-04-05T12:37:44Z</time>
      </trkpt>
      <trkpt lat="44.87239" lon="0.34901">
        <ele>27.2</ele>
        <time>2022-04-05T12:37:45Z</time>
      </trkpt>
      <trkpt lat="44.87237" lon="0.34901">
        <ele>27.2</ele>
        <time>2022-04-05T12:37:47Z</time>
      </trkpt>
      <trkpt lat="44.87235" lon="0.34902">
        <ele>27.2</ele>
        <time>2022-04-05T12:37:48Z</time>
      </trkpt>
      <trkpt lat="44.87234" lon="0.34903">
        <ele>27.2</ele>
        <time>2022-04-05T12:37:49Z</time>
      </trkpt>
      <trkpt lat="44.87233" lon="0.34903">
        <ele>27.2</ele>
        <time>2022-04-05T12:37:50Z</time>
      </trkpt>
      <trkpt lat="44.87231" lon="0.34903">
        <ele>27.2</ele>
        <time>2022-04-05T12:37:52Z</time>
      </trkpt>
      <trkpt lat="44.87229" lon="0.34904">
        <ele>27.2</ele>
        <time>2022-04-05T12:37:53Z</time>
      </trkpt>
      <trkpt lat="44.87228" lon="0.34904">
        <ele>27.2</ele>
        <time>2022-04-05T12:37:54Z</time>
      </trkpt>
      <trkpt lat="44.87227" lon="0.34904">
        <ele>27.2</ele>
        <time>2022-04-05T12:37:55Z</time>
      </trkpt>
      <trkpt lat="44.87225" lon="0.34904">
        <ele>27.2</ele>
        <time>2022-04-05T12:37:56Z</time>
      </trkpt>
      <trkpt lat="44.87224" lon="0.34905">
        <ele>27.2</ele>
        <time>2022-04-05T12:37:57Z</time>
      </trkpt>
      <trkpt lat="44.87222" lon="0.34906">
        <ele>27.2</ele>
        <time>2022-04-05T12:37:58Z</time>
      </trkpt>
      <trkpt lat="44.87221" lon="0.34906">
        <ele>27.2</ele>
        <time>2022-04-05T12:37:59Z</time>
      </trkpt>
      <trkpt lat="44.8722" lon="0.34907">
        <ele>27.2</ele>
        <time>2022-04-05T12:38:00Z</time>
      </trkpt>
      <trkpt lat="44.87219" lon="0.34907">
        <ele>27.2</ele>
        <time>2022-04-05T12:38:01Z</time>
      </trkpt>
      <trkpt lat="44.87216" lon="0.34908">
        <ele>27.2</ele>
        <time>2022-04-05T12:38:02Z</time>
      </trkpt>
      <trkpt lat="44.87215" lon="0.34908">
        <ele>27.2</ele>
        <time>2022-04-05T12:38:03Z</time>
      </trkpt>
      <trkpt lat="44.87213" lon="0.34909">
        <ele>27.2</ele>
        <time>2022-04-05T12:38:04Z</time>
      </trkpt>
      <trkpt lat="44.87212" lon="0.34909">
        <ele>27.2</ele>
        <time>2022-04-05T12:38:05Z</time>
      </trkpt>
      <trkpt lat="44.87211" lon="0.3491">
        <ele>27.2</ele>
        <time>2022-04-05T12:38:06Z</time>
      </trkpt>
      <trkpt lat="44.8721" lon="0.34909">
        <ele>27.2</ele>
        <time>2022-04-05T12:38:07Z</time>
      </trkpt>
      <trkpt lat="44.87208" lon="0.34909">
        <ele>27.2</ele>
        <time>2022-04-05T12:38:08Z</time>
      </trkpt>
      <trkpt lat="44.87207" lon="0.3491">
        <ele>27.2</ele>
        <time>2022-04-05T12:38:10Z</time>
      </trkpt>
      <trkpt lat="44.87206" lon="0.3491">
        <ele>27.2</ele>
        <time>2022-04-05T12:38:11Z</time>
      </trkpt>
      <trkpt lat="44.87205" lon="0.34911">
        <ele>27.2</ele>
        <time>2022-04-05T12:38:12Z</time>
      </trkpt>
      <trkpt lat="44.87204" lon="0.34911">
        <ele>27.2</ele>
        <time>2022-04-05T12:38:13Z</time>
      </trkpt>
      <trkpt lat="44.87203" lon="0.34912">
        <ele>27.2</ele>
        <time>2022-04-05T12:38:14Z</time>
      </trkpt>
      <trkpt lat="44.87202" lon="0.34912">
        <ele>27.2</ele>
        <time>2022-04-05T12:38:15Z</time>
      </trkpt>
      <trkpt lat="44.87201" lon="0.34912">
        <ele>27.1</ele>
        <time>2022-04-05T12:38:16Z</time>
      </trkpt>
      <trkpt lat="44.872" lon="0.34912">
        <ele>27.1</ele>
        <time>2022-04-05T12:38:17Z</time>
      </trkpt>
      <trkpt lat="44.87198" lon="0.34913">
        <ele>27.1</ele>
        <time>2022-04-05T12:38:18Z</time>
      </trkpt>
      <trkpt lat="44.87198" lon="0.34912">
        <ele>27.1</ele>
        <time>2022-04-05T12:38:19Z</time>
      </trkpt>
      <trkpt lat="44.87197" lon="0.34912">
        <ele>27.1</ele>
        <time>2022-04-05T12:38:20Z</time>
      </trkpt>
      <trkpt lat="44.87195" lon="0.34913">
        <ele>27.1</ele>
        <time>2022-04-05T12:38:21Z</time>
      </trkpt>
      <trkpt lat="44.87194" lon="0.34913">
        <ele>27.1</ele>
        <time>2022-04-05T12:38:22Z</time>
      </trkpt>
      <trkpt lat="44.87192" lon="0.34914">
        <ele>27.1</ele>
        <time>2022-04-05T12:38:23Z</time>
      </trkpt>
      <trkpt lat="44.87191" lon="0.34914">
        <ele>27.1</ele>
        <time>2022-04-05T12:38:24Z</time>
      </trkpt>
      <trkpt lat="44.8719" lon="0.34915">
        <ele>27.1</ele>
        <time>2022-04-05T12:38:25Z</time>
      </trkpt>
      <trkpt lat="44.87189" lon="0.34915">
        <ele>27.1</ele>
        <time>2022-04-05T12:38:26Z</time>
      </trkpt>
      <trkpt lat="44.87188" lon="0.34915">
        <ele>27.1</ele>
        <time>2022-04-05T12:38:27Z</time>
      </trkpt>
      <trkpt lat="44.87186" lon="0.34916">
        <ele>27.1</ele>
        <time>2022-04-05T12:38:28Z</time>
      </trkpt>
      <trkpt lat="44.87185" lon="0.34916">
        <ele>27.1</ele>
        <time>2022-04-05T12:38:29Z</time>
      </trkpt>
      <trkpt lat="44.87183" lon="0.34916">
        <ele>27.1</ele>
        <time>2022-04-05T12:38:31Z</time>
      </trkpt>
      <trkpt lat="44.87182" lon="0.34917">
        <ele>27.1</ele>
        <time>2022-04-05T12:38:32Z</time>
      </trkpt>
      <trkpt lat="44.87179" lon="0.34917">
        <ele>27.1</ele>
        <time>2022-04-05T12:38:33Z</time>
      </trkpt>
      <trkpt lat="44.87178" lon="0.34917">
        <ele>27</ele>
        <time>2022-04-05T12:38:34Z</time>
      </trkpt>
      <trkpt lat="44.87177" lon="0.34917">
        <ele>27</ele>
        <time>2022-04-05T12:38:35Z</time>
      </trkpt>
      <trkpt lat="44.87176" lon="0.34918">
        <ele>27</ele>
        <time>2022-04-05T12:38:37Z</time>
      </trkpt>
      <trkpt lat="44.87173" lon="0.34918">
        <ele>27</ele>
        <time>2022-04-05T12:38:38Z</time>
      </trkpt>
      <trkpt lat="44.87173" lon="0.34918">
        <ele>27</ele>
        <time>2022-04-05T12:38:39Z</time>
      </trkpt>
      <trkpt lat="44.87171" lon="0.34918">
        <ele>27</ele>
        <time>2022-04-05T12:38:40Z</time>
      </trkpt>
      <trkpt lat="44.8717" lon="0.34919">
        <ele>27</ele>
        <time>2022-04-05T12:38:41Z</time>
      </trkpt>
      <trkpt lat="44.87169" lon="0.34919">
        <ele>27</ele>
        <time>2022-04-05T12:38:42Z</time>
      </trkpt>
      <trkpt lat="44.87167" lon="0.34919">
        <ele>27</ele>
        <time>2022-04-05T12:38:43Z</time>
      </trkpt>
      <trkpt lat="44.87167" lon="0.34919">
        <ele>27</ele>
        <time>2022-04-05T12:38:44Z</time>
      </trkpt>
      <trkpt lat="44.87164" lon="0.3492">
        <ele>27</ele>
        <time>2022-04-05T12:38:45Z</time>
      </trkpt>
      <trkpt lat="44.87163" lon="0.3492">
        <ele>27</ele>
        <time>2022-04-05T12:38:47Z</time>
      </trkpt>
      <trkpt lat="44.87161" lon="0.3492">
        <ele>27</ele>
        <time>2022-04-05T12:38:48Z</time>
      </trkpt>
      <trkpt lat="44.8716" lon="0.3492">
        <ele>27</ele>
        <time>2022-04-05T12:38:49Z</time>
      </trkpt>
      <trkpt lat="44.87159" lon="0.34921">
        <ele>27</ele>
        <time>2022-04-05T12:38:50Z</time>
      </trkpt>
      <trkpt lat="44.87158" lon="0.34921">
        <ele>27</ele>
        <time>2022-04-05T12:38:51Z</time>
      </trkpt>
      <trkpt lat="44.87155" lon="0.34921">
        <ele>27</ele>
        <time>2022-04-05T12:38:53Z</time>
      </trkpt>
      <trkpt lat="44.87154" lon="0.34921">
        <ele>27</ele>
        <time>2022-04-05T12:38:54Z</time>
      </trkpt>
      <trkpt lat="44.87153" lon="0.34922">
        <ele>27</ele>
        <time>2022-04-05T12:38:55Z</time>
      </trkpt>
      <trkpt lat="44.87151" lon="0.34922">
        <ele>27</ele>
        <time>2022-04-05T12:38:56Z</time>
      </trkpt>
      <trkpt lat="44.87151" lon="0.34923">
        <ele>27</ele>
        <time>2022-04-05T12:38:57Z</time>
      </trkpt>
      <trkpt lat="44.87149" lon="0.34923">
        <ele>27</ele>
        <time>2022-04-05T12:38:58Z</time>
      </trkpt>
      <trkpt lat="44.87147" lon="0.34923">
        <ele>27</ele>
        <time>2022-04-05T12:39:00Z</time>
      </trkpt>
      <trkpt lat="44.87146" lon="0.34924">
        <ele>27</ele>
        <time>2022-04-05T12:39:01Z</time>
      </trkpt>
      <trkpt lat="44.87145" lon="0.34924">
        <ele>27</ele>
        <time>2022-04-05T12:39:02Z</time>
      </trkpt>
      <trkpt lat="44.87142" lon="0.34925">
        <ele>27</ele>
        <time>2022-04-05T12:39:03Z</time>
      </trkpt>
      <trkpt lat="44.87142" lon="0.34925">
        <ele>27</ele>
        <time>2022-04-05T12:39:04Z</time>
      </trkpt>
      <trkpt lat="44.87141" lon="0.34925">
        <ele>27</ele>
        <time>2022-04-05T12:39:05Z</time>
      </trkpt>
      <trkpt lat="44.8714" lon="0.34925">
        <ele>27</ele>
        <time>2022-04-05T12:39:06Z</time>
      </trkpt>
      <trkpt lat="44.87138" lon="0.34925">
        <ele>27</ele>
        <time>2022-04-05T12:39:07Z</time>
      </trkpt>
      <trkpt lat="44.87136" lon="0.34926">
        <ele>27</ele>
        <time>2022-04-05T12:39:08Z</time>
      </trkpt>
      <trkpt lat="44.87135" lon="0.34926">
        <ele>27</ele>
        <time>2022-04-05T12:39:09Z</time>
      </trkpt>
      <trkpt lat="44.87134" lon="0.34926">
        <ele>27</ele>
        <time>2022-04-05T12:39:10Z</time>
      </trkpt>
      <trkpt lat="44.87132" lon="0.34927">
        <ele>27</ele>
        <time>2022-04-05T12:39:11Z</time>
      </trkpt>
      <trkpt lat="44.8713" lon="0.34927">
        <ele>27</ele>
        <time>2022-04-05T12:39:13Z</time>
      </trkpt>
      <trkpt lat="44.87128" lon="0.34927">
        <ele>27</ele>
        <time>2022-04-05T12:39:14Z</time>
      </trkpt>
      <trkpt lat="44.87127" lon="0.34927">
        <ele>27</ele>
        <time>2022-04-05T12:39:15Z</time>
      </trkpt>
      <trkpt lat="44.87126" lon="0.34927">
        <ele>27</ele>
        <time>2022-04-05T12:39:16Z</time>
      </trkpt>
      <trkpt lat="44.87123" lon="0.34928">
        <ele>26.9</ele>
        <time>2022-04-05T12:39:17Z</time>
      </trkpt>
      <trkpt lat="44.87122" lon="0.34928">
        <ele>26.9</ele>
        <time>2022-04-05T12:39:19Z</time>
      </trkpt>
      <trkpt lat="44.87121" lon="0.34928">
        <ele>26.9</ele>
        <time>2022-04-05T12:39:20Z</time>
      </trkpt>
      <trkpt lat="44.8712" lon="0.34929">
        <ele>26.9</ele>
        <time>2022-04-05T12:39:21Z</time>
      </trkpt>
      <trkpt lat="44.87119" lon="0.34929">
        <ele>26.9</ele>
        <time>2022-04-05T12:39:22Z</time>
      </trkpt>
      <trkpt lat="44.87117" lon="0.34929">
        <ele>26.9</ele>
        <time>2022-04-05T12:39:23Z</time>
      </trkpt>
      <trkpt lat="44.87116" lon="0.34929">
        <ele>26.9</ele>
        <time>2022-04-05T12:39:24Z</time>
      </trkpt>
      <trkpt lat="44.87114" lon="0.3493">
        <ele>26.9</ele>
        <time>2022-04-05T12:39:25Z</time>
      </trkpt>
      <trkpt lat="44.87113" lon="0.3493">
        <ele>26.9</ele>
        <time>2022-04-05T12:39:26Z</time>
      </trkpt>
      <trkpt lat="44.8711" lon="0.34931">
        <ele>26.9</ele>
        <time>2022-04-05T12:39:27Z</time>
      </trkpt>
      <trkpt lat="44.87109" lon="0.34931">
        <ele>26.9</ele>
        <time>2022-04-05T12:39:29Z</time>
      </trkpt>
      <trkpt lat="44.87108" lon="0.34931">
        <ele>26.9</ele>
        <time>2022-04-05T12:39:30Z</time>
      </trkpt>
      <trkpt lat="44.87107" lon="0.34931">
        <ele>26.9</ele>
        <time>2022-04-05T12:39:31Z</time>
      </trkpt>
      <trkpt lat="44.87106" lon="0.34932">
        <ele>26.9</ele>
        <time>2022-04-05T12:39:32Z</time>
      </trkpt>
      <trkpt lat="44.87103" lon="0.34932">
        <ele>26.8</ele>
        <time>2022-04-05T12:39:33Z</time>
      </trkpt>
      <trkpt lat="44.87103" lon="0.34932">
        <ele>26.8</ele>
        <time>2022-04-05T12:39:34Z</time>
      </trkpt>
      <trkpt lat="44.87101" lon="0.34932">
        <ele>26.8</ele>
        <time>2022-04-05T12:39:35Z</time>
      </trkpt>
      <trkpt lat="44.871" lon="0.34932">
        <ele>26.8</ele>
        <time>2022-04-05T12:39:36Z</time>
      </trkpt>
      <trkpt lat="44.87099" lon="0.34932">
        <ele>26.8</ele>
        <time>2022-04-05T12:39:37Z</time>
      </trkpt>
      <trkpt lat="44.87096" lon="0.34932">
        <ele>26.8</ele>
        <time>2022-04-05T12:39:38Z</time>
      </trkpt>
      <trkpt lat="44.87096" lon="0.34932">
        <ele>26.8</ele>
        <time>2022-04-05T12:39:39Z</time>
      </trkpt>
      <trkpt lat="44.87095" lon="0.34932">
        <ele>26.8</ele>
        <time>2022-04-05T12:39:40Z</time>
      </trkpt>
      <trkpt lat="44.87094" lon="0.34932">
        <ele>26.8</ele>
        <time>2022-04-05T12:39:41Z</time>
      </trkpt>
      <trkpt lat="44.87093" lon="0.34933">
        <ele>26.8</ele>
        <time>2022-04-05T12:39:42Z</time>
      </trkpt>
      <trkpt lat="44.87091" lon="0.34933">
        <ele>26.7</ele>
        <time>2022-04-05T12:39:44Z</time>
      </trkpt>
      <trkpt lat="44.87089" lon="0.34933">
        <ele>26.7</ele>
        <time>2022-04-05T12:39:45Z</time>
      </trkpt>
      <trkpt lat="44.87088" lon="0.34932">
        <ele>26.7</ele>
        <time>2022-04-05T12:39:46Z</time>
      </trkpt>
      <trkpt lat="44.87087" lon="0.34932">
        <ele>26.7</ele>
        <time>2022-04-05T12:39:47Z</time>
      </trkpt>
      <trkpt lat="44.87085" lon="0.34933">
        <ele>26.7</ele>
        <time>2022-04-05T12:39:48Z</time>
      </trkpt>
      <trkpt lat="44.87084" lon="0.34934">
        <ele>26.7</ele>
        <time>2022-04-05T12:39:49Z</time>
      </trkpt>
      <trkpt lat="44.87083" lon="0.34934">
        <ele>26.7</ele>
        <time>2022-04-05T12:39:50Z</time>
      </trkpt>
      <trkpt lat="44.87081" lon="0.34934">
        <ele>26.7</ele>
        <time>2022-04-05T12:39:51Z</time>
      </trkpt>
      <trkpt lat="44.8708" lon="0.34934">
        <ele>26.7</ele>
        <time>2022-04-05T12:39:52Z</time>
      </trkpt>
      <trkpt lat="44.87078" lon="0.34935">
        <ele>26.7</ele>
        <time>2022-04-05T12:39:53Z</time>
      </trkpt>
      <trkpt lat="44.87077" lon="0.34935">
        <ele>26.7</ele>
        <time>2022-04-05T12:39:54Z</time>
      </trkpt>
      <trkpt lat="44.87075" lon="0.34935">
        <ele>26.7</ele>
        <time>2022-04-05T12:39:55Z</time>
      </trkpt>
      <trkpt lat="44.87074" lon="0.34935">
        <ele>26.7</ele>
        <time>2022-04-05T12:39:56Z</time>
      </trkpt>
      <trkpt lat="44.87071" lon="0.34935">
        <ele>26.7</ele>
        <time>2022-04-05T12:39:58Z</time>
      </trkpt>
      <trkpt lat="44.8707" lon="0.34935">
        <ele>26.7</ele>
        <time>2022-04-05T12:39:59Z</time>
      </trkpt>
      <trkpt lat="44.87069" lon="0.34934">
        <ele>26.7</ele>
        <time>2022-04-05T12:40:00Z</time>
      </trkpt>
      <trkpt lat="44.87068" lon="0.34934">
        <ele>26.7</ele>
        <time>2022-04-05T12:40:01Z</time>
      </trkpt>
      <trkpt lat="44.87067" lon="0.34934">
        <ele>26.7</ele>
        <time>2022-04-05T12:40:02Z</time>
      </trkpt>
      <trkpt lat="44.87065" lon="0.34934">
        <ele>26.7</ele>
        <time>2022-04-05T12:40:03Z</time>
      </trkpt>
      <trkpt lat="44.87064" lon="0.34934">
        <ele>26.7</ele>
        <time>2022-04-05T12:40:04Z</time>
      </trkpt>
      <trkpt lat="44.87063" lon="0.34933">
        <ele>26.7</ele>
        <time>2022-04-05T12:40:05Z</time>
      </trkpt>
      <trkpt lat="44.87062" lon="0.34933">
        <ele>26.7</ele>
        <time>2022-04-05T12:40:06Z</time>
      </trkpt>
      <trkpt lat="44.87061" lon="0.34933">
        <ele>26.7</ele>
        <time>2022-04-05T12:40:07Z</time>
      </trkpt>
      <trkpt lat="44.87058" lon="0.34932">
        <ele>26.7</ele>
        <time>2022-04-05T12:40:09Z</time>
      </trkpt>
      <trkpt lat="44.87057" lon="0.34932">
        <ele>26.7</ele>
        <time>2022-04-05T12:40:10Z</time>
      </trkpt>
      <trkpt lat="44.87056" lon="0.34932">
        <ele>26.7</ele>
        <time>2022-04-05T12:40:11Z</time>
      </trkpt>
      <trkpt lat="44.87055" lon="0.34932">
        <ele>26.7</ele>
        <time>2022-04-05T12:40:12Z</time>
      </trkpt>
      <trkpt lat="44.87053" lon="0.34932">
        <ele>26.7</ele>
        <time>2022-04-05T12:40:13Z</time>
      </trkpt>
      <trkpt lat="44.87052" lon="0.34931">
        <ele>26.7</ele>
        <time>2022-04-05T12:40:14Z</time>
      </trkpt>
      <trkpt lat="44.8705" lon="0.34931">
        <ele>26.7</ele>
        <time>2022-04-05T12:40:15Z</time>
      </trkpt>
      <trkpt lat="44.87049" lon="0.3493">
        <ele>26.7</ele>
        <time>2022-04-05T12:40:16Z</time>
      </trkpt>
      <trkpt lat="44.87049" lon="0.3493">
        <ele>26.7</ele>
        <time>2022-04-05T12:40:17Z</time>
      </trkpt>
      <trkpt lat="44.87046" lon="0.3493">
        <ele>26.7</ele>
        <time>2022-04-05T12:40:18Z</time>
      </trkpt>
      <trkpt lat="44.87046" lon="0.3493">
        <ele>26.7</ele>
        <time>2022-04-05T12:40:19Z</time>
      </trkpt>
      <trkpt lat="44.87045" lon="0.34931">
        <ele>26.7</ele>
        <time>2022-04-05T12:40:20Z</time>
      </trkpt>
      <trkpt lat="44.87043" lon="0.34932">
        <ele>26.7</ele>
        <time>2022-04-05T12:40:21Z</time>
      </trkpt>
      <trkpt lat="44.8704" lon="0.34932">
        <ele>26.7</ele>
        <time>2022-04-05T12:40:22Z</time>
      </trkpt>
      <trkpt lat="44.87039" lon="0.34933">
        <ele>26.7</ele>
        <time>2022-04-05T12:40:23Z</time>
      </trkpt>
      <trkpt lat="44.87039" lon="0.34933">
        <ele>26.7</ele>
        <time>2022-04-05T12:40:24Z</time>
      </trkpt>
      <trkpt lat="44.87038" lon="0.34933">
        <ele>26.7</ele>
        <time>2022-04-05T12:40:26Z</time>
      </trkpt>
      <trkpt lat="44.87036" lon="0.34933">
        <ele>26.7</ele>
        <time>2022-04-05T12:40:27Z</time>
      </trkpt>
      <trkpt lat="44.87035" lon="0.34934">
        <ele>26.7</ele>
        <time>2022-04-05T12:40:28Z</time>
      </trkpt>
      <trkpt lat="44.87034" lon="0.34935">
        <ele>26.7</ele>
        <time>2022-04-05T12:40:29Z</time>
      </trkpt>
      <trkpt lat="44.87032" lon="0.34937">
        <ele>26.7</ele>
        <time>2022-04-05T12:40:30Z</time>
      </trkpt>
      <trkpt lat="44.87031" lon="0.34938">
        <ele>26.7</ele>
        <time>2022-04-05T12:40:31Z</time>
      </trkpt>
      <trkpt lat="44.87031" lon="0.34939">
        <ele>26.7</ele>
        <time>2022-04-05T12:40:32Z</time>
      </trkpt>
      <trkpt lat="44.8703" lon="0.34941">
        <ele>26.7</ele>
        <time>2022-04-05T12:40:33Z</time>
      </trkpt>
      <trkpt lat="44.87029" lon="0.34942">
        <ele>26.7</ele>
        <time>2022-04-05T12:40:34Z</time>
      </trkpt>
      <trkpt lat="44.87029" lon="0.34943">
        <ele>26.7</ele>
        <time>2022-04-05T12:40:35Z</time>
      </trkpt>
      <trkpt lat="44.87029" lon="0.34946">
        <ele>26.7</ele>
        <time>2022-04-05T12:40:36Z</time>
      </trkpt>
      <trkpt lat="44.87028" lon="0.34948">
        <ele>26.7</ele>
        <time>2022-04-05T12:40:37Z</time>
      </trkpt>
      <trkpt lat="44.87028" lon="0.34949">
        <ele>26.7</ele>
        <time>2022-04-05T12:40:38Z</time>
      </trkpt>
      <trkpt lat="44.87028" lon="0.34952">
        <ele>26.7</ele>
        <time>2022-04-05T12:40:39Z</time>
      </trkpt>
      <trkpt lat="44.87028" lon="0.34953">
        <ele>26.7</ele>
        <time>2022-04-05T12:40:40Z</time>
      </trkpt>
      <trkpt lat="44.87028" lon="0.34954">
        <ele>26.7</ele>
        <time>2022-04-05T12:40:41Z</time>
      </trkpt>
      <trkpt lat="44.87029" lon="0.34958">
        <ele>26.7</ele>
        <time>2022-04-05T12:40:42Z</time>
      </trkpt>
      <trkpt lat="44.87029" lon="0.34959">
        <ele>26.7</ele>
        <time>2022-04-05T12:40:43Z</time>
      </trkpt>
      <trkpt lat="44.87029" lon="0.34962">
        <ele>26.7</ele>
        <time>2022-04-05T12:40:44Z</time>
      </trkpt>
      <trkpt lat="44.8703" lon="0.34963">
        <ele>26.7</ele>
        <time>2022-04-05T12:40:46Z</time>
      </trkpt>
      <trkpt lat="44.8703" lon="0.34965">
        <ele>26.7</ele>
        <time>2022-04-05T12:40:47Z</time>
      </trkpt>
      <trkpt lat="44.8703" lon="0.34967">
        <ele>26.7</ele>
        <time>2022-04-05T12:40:48Z</time>
      </trkpt>
      <trkpt lat="44.87031" lon="0.34969">
        <ele>26.7</ele>
        <time>2022-04-05T12:40:49Z</time>
      </trkpt>
      <trkpt lat="44.87031" lon="0.3497">
        <ele>26.7</ele>
        <time>2022-04-05T12:40:50Z</time>
      </trkpt>
      <trkpt lat="44.87031" lon="0.34972">
        <ele>26.7</ele>
        <time>2022-04-05T12:40:51Z</time>
      </trkpt>
      <trkpt lat="44.87032" lon="0.34977">
        <ele>26.7</ele>
        <time>2022-04-05T12:40:54Z</time>
      </trkpt>
      <trkpt lat="44.87032" lon="0.34979">
        <ele>26.7</ele>
        <time>2022-04-05T12:40:55Z</time>
      </trkpt>
      <trkpt lat="44.87032" lon="0.34981">
        <ele>26.7</ele>
        <time>2022-04-05T12:40:56Z</time>
      </trkpt>
      <trkpt lat="44.87032" lon="0.34982">
        <ele>26.7</ele>
        <time>2022-04-05T12:40:57Z</time>
      </trkpt>
      <trkpt lat="44.87032" lon="0.34985">
        <ele>26.7</ele>
        <time>2022-04-05T12:40:59Z</time>
      </trkpt>
      <trkpt lat="44.87032" lon="0.34987">
        <ele>26.6</ele>
        <time>2022-04-05T12:41:00Z</time>
      </trkpt>
      <trkpt lat="44.87032" lon="0.34989">
        <ele>26.6</ele>
        <time>2022-04-05T12:41:01Z</time>
      </trkpt>
      <trkpt lat="44.87032" lon="0.3499">
        <ele>26.6</ele>
        <time>2022-04-05T12:41:02Z</time>
      </trkpt>
      <trkpt lat="44.87031" lon="0.34992">
        <ele>26.6</ele>
        <time>2022-04-05T12:41:03Z</time>
      </trkpt>
      <trkpt lat="44.87031" lon="0.34995">
        <ele>26.6</ele>
        <time>2022-04-05T12:41:04Z</time>
      </trkpt>
      <trkpt lat="44.87031" lon="0.34996">
        <ele>26.6</ele>
        <time>2022-04-05T12:41:05Z</time>
      </trkpt>
      <trkpt lat="44.8703" lon="0.34997">
        <ele>26.6</ele>
        <time>2022-04-05T12:41:06Z</time>
      </trkpt>
      <trkpt lat="44.8703" lon="0.34999">
        <ele>26.6</ele>
        <time>2022-04-05T12:41:07Z</time>
      </trkpt>
      <trkpt lat="44.87029" lon="0.35">
        <ele>26.6</ele>
        <time>2022-04-05T12:41:08Z</time>
      </trkpt>
      <trkpt lat="44.87029" lon="0.35003">
        <ele>26.6</ele>
        <time>2022-04-05T12:41:10Z</time>
      </trkpt>
      <trkpt lat="44.87028" lon="0.35004">
        <ele>26.5</ele>
        <time>2022-04-05T12:41:11Z</time>
      </trkpt>
      <trkpt lat="44.87028" lon="0.35006">
        <ele>26.5</ele>
        <time>2022-04-05T12:41:12Z</time>
      </trkpt>
      <trkpt lat="44.87027" lon="0.35007">
        <ele>26.5</ele>
        <time>2022-04-05T12:41:13Z</time>
      </trkpt>
      <trkpt lat="44.87026" lon="0.3501">
        <ele>26.5</ele>
        <time>2022-04-05T12:41:14Z</time>
      </trkpt>
      <trkpt lat="44.87025" lon="0.3501">
        <ele>26.5</ele>
        <time>2022-04-05T12:41:15Z</time>
      </trkpt>
      <trkpt lat="44.87023" lon="0.35012">
        <ele>26.5</ele>
        <time>2022-04-05T12:41:16Z</time>
      </trkpt>
      <trkpt lat="44.87023" lon="0.35013">
        <ele>26.5</ele>
        <time>2022-04-05T12:41:17Z</time>
      </trkpt>
      <trkpt lat="44.87022" lon="0.35014">
        <ele>26.5</ele>
        <time>2022-04-05T12:41:18Z</time>
      </trkpt>
      <trkpt lat="44.8702" lon="0.35015">
        <ele>26.4</ele>
        <time>2022-04-05T12:41:20Z</time>
      </trkpt>
      <trkpt lat="44.87019" lon="0.35015">
        <ele>26.4</ele>
        <time>2022-04-05T12:41:21Z</time>
      </trkpt>
      <trkpt lat="44.87016" lon="0.35016">
        <ele>26.4</ele>
        <time>2022-04-05T12:41:22Z</time>
      </trkpt>
      <trkpt lat="44.87015" lon="0.35017">
        <ele>26.4</ele>
        <time>2022-04-05T12:41:23Z</time>
      </trkpt>
      <trkpt lat="44.87014" lon="0.35017">
        <ele>26.4</ele>
        <time>2022-04-05T12:41:24Z</time>
      </trkpt>
      <trkpt lat="44.87013" lon="0.35017">
        <ele>26.4</ele>
        <time>2022-04-05T12:41:25Z</time>
      </trkpt>
      <trkpt lat="44.87013" lon="0.35017">
        <ele>26.4</ele>
        <time>2022-04-05T12:41:26Z</time>
      </trkpt>
      <trkpt lat="44.87011" lon="0.35018">
        <ele>26.4</ele>
        <time>2022-04-05T12:41:27Z</time>
      </trkpt>
      <trkpt lat="44.8701" lon="0.35018">
        <ele>26.4</ele>
        <time>2022-04-05T12:41:28Z</time>
      </trkpt>
      <trkpt lat="44.87008" lon="0.35019">
        <ele>26.3</ele>
        <time>2022-04-05T12:41:29Z</time>
      </trkpt>
      <trkpt lat="44.87007" lon="0.35019">
        <ele>26.3</ele>
        <time>2022-04-05T12:41:30Z</time>
      </trkpt>
      <trkpt lat="44.87006" lon="0.35019">
        <ele>26.3</ele>
        <time>2022-04-05T12:41:31Z</time>
      </trkpt>
      <trkpt lat="44.87005" lon="0.3502">
        <ele>26.3</ele>
        <time>2022-04-05T12:41:32Z</time>
      </trkpt>
      <trkpt lat="44.87004" lon="0.3502">
        <ele>26.3</ele>
        <time>2022-04-05T12:41:33Z</time>
      </trkpt>
      <trkpt lat="44.87002" lon="0.3502">
        <ele>26.3</ele>
        <time>2022-04-05T12:41:34Z</time>
      </trkpt>
      <trkpt lat="44.87002" lon="0.3502">
        <ele>26.3</ele>
        <time>2022-04-05T12:41:35Z</time>
      </trkpt>
      <trkpt lat="44.87" lon="0.3502">
        <ele>26.3</ele>
        <time>2022-04-05T12:41:36Z</time>
      </trkpt>
      <trkpt lat="44.86999" lon="0.3502">
        <ele>26.3</ele>
        <time>2022-04-05T12:41:37Z</time>
      </trkpt>
      <trkpt lat="44.86997" lon="0.35021">
        <ele>26.3</ele>
        <time>2022-04-05T12:41:38Z</time>
      </trkpt>
      <trkpt lat="44.86996" lon="0.35021">
        <ele>26.3</ele>
        <time>2022-04-05T12:41:39Z</time>
      </trkpt>
      <trkpt lat="44.86995" lon="0.35022">
        <ele>26.3</ele>
        <time>2022-04-05T12:41:40Z</time>
      </trkpt>
      <trkpt lat="44.86994" lon="0.35022">
        <ele>26.3</ele>
        <time>2022-04-05T12:41:42Z</time>
      </trkpt>
      <trkpt lat="44.86993" lon="0.35023">
        <ele>26.3</ele>
        <time>2022-04-05T12:41:43Z</time>
      </trkpt>
      <trkpt lat="44.8699" lon="0.35023">
        <ele>26.3</ele>
        <time>2022-04-05T12:41:44Z</time>
      </trkpt>
      <trkpt lat="44.8699" lon="0.35023">
        <ele>26.3</ele>
        <time>2022-04-05T12:41:45Z</time>
      </trkpt>
      <trkpt lat="44.86989" lon="0.35024">
        <ele>26.3</ele>
        <time>2022-04-05T12:41:46Z</time>
      </trkpt>
      <trkpt lat="44.86987" lon="0.35024">
        <ele>26.2</ele>
        <time>2022-04-05T12:41:47Z</time>
      </trkpt>
      <trkpt lat="44.86986" lon="0.35024">
        <ele>26.2</ele>
        <time>2022-04-05T12:41:48Z</time>
      </trkpt>
      <trkpt lat="44.86984" lon="0.35025">
        <ele>26.2</ele>
        <time>2022-04-05T12:41:49Z</time>
      </trkpt>
      <trkpt lat="44.86983" lon="0.35024">
        <ele>26.2</ele>
        <time>2022-04-05T12:41:50Z</time>
      </trkpt>
      <trkpt lat="44.86982" lon="0.35024">
        <ele>26.2</ele>
        <time>2022-04-05T12:41:51Z</time>
      </trkpt>
      <trkpt lat="44.86981" lon="0.35024">
        <ele>26.2</ele>
        <time>2022-04-05T12:41:52Z</time>
      </trkpt>
      <trkpt lat="44.86981" lon="0.35024">
        <ele>26.2</ele>
        <time>2022-04-05T12:41:53Z</time>
      </trkpt>
      <trkpt lat="44.86979" lon="0.35025">
        <ele>26.2</ele>
        <time>2022-04-05T12:41:54Z</time>
      </trkpt>
      <trkpt lat="44.86978" lon="0.35025">
        <ele>26.2</ele>
        <time>2022-04-05T12:41:55Z</time>
      </trkpt>
      <trkpt lat="44.86977" lon="0.35026">
        <ele>26.2</ele>
        <time>2022-04-05T12:41:57Z</time>
      </trkpt>
      <trkpt lat="44.86974" lon="0.35027">
        <ele>26.2</ele>
        <time>2022-04-05T12:41:58Z</time>
      </trkpt>
      <trkpt lat="44.86973" lon="0.35027">
        <ele>26.2</ele>
        <time>2022-04-05T12:41:59Z</time>
      </trkpt>
      <trkpt lat="44.86973" lon="0.35028">
        <ele>26.2</ele>
        <time>2022-04-05T12:42:00Z</time>
      </trkpt>
      <trkpt lat="44.86972" lon="0.35028">
        <ele>26.2</ele>
        <time>2022-04-05T12:42:01Z</time>
      </trkpt>
      <trkpt lat="44.8697" lon="0.35028">
        <ele>26.2</ele>
        <time>2022-04-05T12:42:02Z</time>
      </trkpt>
      <trkpt lat="44.8697" lon="0.35028">
        <ele>26.2</ele>
        <time>2022-04-05T12:42:03Z</time>
      </trkpt>
      <trkpt lat="44.86969" lon="0.35028">
        <ele>26.2</ele>
        <time>2022-04-05T12:42:04Z</time>
      </trkpt>
      <trkpt lat="44.86969" lon="0.35028">
        <ele>26.2</ele>
        <time>2022-04-05T12:42:05Z</time>
      </trkpt>
      <trkpt lat="44.8697" lon="0.35028">
        <ele>26.2</ele>
        <time>2022-04-05T12:42:06Z</time>
      </trkpt>
      <trkpt lat="44.8697" lon="0.35027">
        <ele>26.2</ele>
        <time>2022-04-05T12:42:07Z</time>
      </trkpt>
      <trkpt lat="44.8697" lon="0.35027">
        <ele>26.2</ele>
        <time>2022-04-05T12:42:08Z</time>
      </trkpt>
      <trkpt lat="44.8697" lon="0.35028">
        <ele>26.2</ele>
        <time>2022-04-05T12:42:09Z</time>
      </trkpt>
      <trkpt lat="44.86969" lon="0.35028">
        <ele>26.2</ele>
        <time>2022-04-05T12:42:10Z</time>
      </trkpt>
      <trkpt lat="44.86967" lon="0.3503">
        <ele>26.2</ele>
        <time>2022-04-05T12:42:12Z</time>
      </trkpt>
      <trkpt lat="44.86964" lon="0.35031">
        <ele>26.2</ele>
        <time>2022-04-05T12:42:13Z</time>
      </trkpt>
      <trkpt lat="44.86963" lon="0.35032">
        <ele>26.2</ele>
        <time>2022-04-05T12:42:14Z</time>
      </trkpt>
      <trkpt lat="44.86961" lon="0.35033">
        <ele>26.2</ele>
        <time>2022-04-05T12:42:15Z</time>
      </trkpt>
      <trkpt lat="44.8696" lon="0.35034">
        <ele>26.2</ele>
        <time>2022-04-05T12:42:16Z</time>
      </trkpt>
      <trkpt lat="44.8696" lon="0.35034">
        <ele>26.2</ele>
        <time>2022-04-05T12:42:17Z</time>
      </trkpt>
      <trkpt lat="44.86958" lon="0.35035">
        <ele>26.2</ele>
        <time>2022-04-05T12:42:18Z</time>
      </trkpt>
      <trkpt lat="44.86957" lon="0.35036">
        <ele>26.2</ele>
        <time>2022-04-05T12:42:19Z</time>
      </trkpt>
      <trkpt lat="44.86955" lon="0.35036">
        <ele>26.2</ele>
        <time>2022-04-05T12:42:20Z</time>
      </trkpt>
      <trkpt lat="44.86954" lon="0.35036">
        <ele>26.2</ele>
        <time>2022-04-05T12:42:21Z</time>
      </trkpt>
      <trkpt lat="44.86953" lon="0.35037">
        <ele>26.2</ele>
        <time>2022-04-05T12:42:22Z</time>
      </trkpt>
      <trkpt lat="44.8695" lon="0.35037">
        <ele>26.2</ele>
        <time>2022-04-05T12:42:23Z</time>
      </trkpt>
      <trkpt lat="44.86949" lon="0.35038">
        <ele>26.2</ele>
        <time>2022-04-05T12:42:24Z</time>
      </trkpt>
      <trkpt lat="44.86948" lon="0.35038">
        <ele>26.2</ele>
        <time>2022-04-05T12:42:25Z</time>
      </trkpt>
      <trkpt lat="44.86947" lon="0.35038">
        <ele>26.2</ele>
        <time>2022-04-05T12:42:26Z</time>
      </trkpt>
      <trkpt lat="44.86946" lon="0.35039">
        <ele>26.2</ele>
        <time>2022-04-05T12:42:27Z</time>
      </trkpt>
      <trkpt lat="44.86946" lon="0.35039">
        <ele>26.2</ele>
        <time>2022-04-05T12:42:28Z</time>
      </trkpt>
      <trkpt lat="44.86943" lon="0.35039">
        <ele>26.2</ele>
        <time>2022-04-05T12:42:29Z</time>
      </trkpt>
      <trkpt lat="44.86943" lon="0.35039">
        <ele>26.2</ele>
        <time>2022-04-05T12:42:30Z</time>
      </trkpt>
      <trkpt lat="44.86942" lon="0.35039">
        <ele>26.2</ele>
        <time>2022-04-05T12:42:31Z</time>
      </trkpt>
      <trkpt lat="44.86939" lon="0.3504">
        <ele>26.1</ele>
        <time>2022-04-05T12:42:33Z</time>
      </trkpt>
      <trkpt lat="44.86938" lon="0.3504">
        <ele>26.1</ele>
        <time>2022-04-05T12:42:34Z</time>
      </trkpt>
      <trkpt lat="44.86938" lon="0.35041">
        <ele>26.1</ele>
        <time>2022-04-05T12:42:35Z</time>
      </trkpt>
      <trkpt lat="44.86937" lon="0.35041">
        <ele>26.1</ele>
        <time>2022-04-05T12:42:36Z</time>
      </trkpt>
      <trkpt lat="44.86935" lon="0.35042">
        <ele>26.1</ele>
        <time>2022-04-05T12:42:37Z</time>
      </trkpt>
      <trkpt lat="44.86934" lon="0.35042">
        <ele>26.1</ele>
        <time>2022-04-05T12:42:38Z</time>
      </trkpt>
      <trkpt lat="44.86932" lon="0.35043">
        <ele>26.1</ele>
        <time>2022-04-05T12:42:39Z</time>
      </trkpt>
      <trkpt lat="44.8693" lon="0.35044">
        <ele>26.1</ele>
        <time>2022-04-05T12:42:40Z</time>
      </trkpt>
      <trkpt lat="44.86929" lon="0.35044">
        <ele>26.1</ele>
        <time>2022-04-05T12:42:41Z</time>
      </trkpt>
      <trkpt lat="44.86929" lon="0.35045">
        <ele>26.1</ele>
        <time>2022-04-05T12:42:42Z</time>
      </trkpt>
      <trkpt lat="44.86926" lon="0.35046">
        <ele>26.1</ele>
        <time>2022-04-05T12:42:44Z</time>
      </trkpt>
      <trkpt lat="44.86926" lon="0.35047">
        <ele>26.1</ele>
        <time>2022-04-05T12:42:45Z</time>
      </trkpt>
      <trkpt lat="44.86924" lon="0.35048">
        <ele>26.1</ele>
        <time>2022-04-05T12:42:46Z</time>
      </trkpt>
      <trkpt lat="44.86923" lon="0.35049">
        <ele>26.1</ele>
        <time>2022-04-05T12:42:47Z</time>
      </trkpt>
      <trkpt lat="44.86923" lon="0.3505">
        <ele>26.1</ele>
        <time>2022-04-05T12:42:48Z</time>
      </trkpt>
      <trkpt lat="44.86922" lon="0.35052">
        <ele>26</ele>
        <time>2022-04-05T12:42:49Z</time>
      </trkpt>
      <trkpt lat="44.86921" lon="0.35053">
        <ele>26</ele>
        <time>2022-04-05T12:42:50Z</time>
      </trkpt>
      <trkpt lat="44.86921" lon="0.35054">
        <ele>26</ele>
        <time>2022-04-05T12:42:51Z</time>
      </trkpt>
      <trkpt lat="44.86921" lon="0.35056">
        <ele>26</ele>
        <time>2022-04-05T12:42:52Z</time>
      </trkpt>
      <trkpt lat="44.8692" lon="0.35058">
        <ele>26</ele>
        <time>2022-04-05T12:42:53Z</time>
      </trkpt>
      <trkpt lat="44.8692" lon="0.35061">
        <ele>26</ele>
        <time>2022-04-05T12:42:54Z</time>
      </trkpt>
      <trkpt lat="44.8692" lon="0.35062">
        <ele>26</ele>
        <time>2022-04-05T12:42:55Z</time>
      </trkpt>
      <trkpt lat="44.86919" lon="0.35065">
        <ele>26</ele>
        <time>2022-04-05T12:42:56Z</time>
      </trkpt>
      <trkpt lat="44.86919" lon="0.35066">
        <ele>26</ele>
        <time>2022-04-05T12:42:57Z</time>
      </trkpt>
      <trkpt lat="44.86919" lon="0.35068">
        <ele>26</ele>
        <time>2022-04-05T12:42:58Z</time>
      </trkpt>
      <trkpt lat="44.8692" lon="0.3507">
        <ele>26</ele>
        <time>2022-04-05T12:43:00Z</time>
      </trkpt>
      <trkpt lat="44.8692" lon="0.35072">
        <ele>26</ele>
        <time>2022-04-05T12:43:01Z</time>
      </trkpt>
      <trkpt lat="44.86921" lon="0.35074">
        <ele>26</ele>
        <time>2022-04-05T12:43:02Z</time>
      </trkpt>
      <trkpt lat="44.86922" lon="0.35076">
        <ele>26</ele>
        <time>2022-04-05T12:43:03Z</time>
      </trkpt>
      <trkpt lat="44.86922" lon="0.35078">
        <ele>26</ele>
        <time>2022-04-05T12:43:04Z</time>
      </trkpt>
      <trkpt lat="44.86922" lon="0.35079">
        <ele>26</ele>
        <time>2022-04-05T12:43:05Z</time>
      </trkpt>
      <trkpt lat="44.86923" lon="0.35082">
        <ele>26</ele>
        <time>2022-04-05T12:43:07Z</time>
      </trkpt>
      <trkpt lat="44.86923" lon="0.35085">
        <ele>26</ele>
        <time>2022-04-05T12:43:08Z</time>
      </trkpt>
      <trkpt lat="44.86923" lon="0.35087">
        <ele>25.9</ele>
        <time>2022-04-05T12:43:09Z</time>
      </trkpt>
      <trkpt lat="44.86924" lon="0.35088">
        <ele>25.9</ele>
        <time>2022-04-05T12:43:10Z</time>
      </trkpt>
      <trkpt lat="44.86924" lon="0.3509">
        <ele>25.9</ele>
        <time>2022-04-05T12:43:11Z</time>
      </trkpt>
      <trkpt lat="44.86924" lon="0.35091">
        <ele>25.9</ele>
        <time>2022-04-05T12:43:12Z</time>
      </trkpt>
      <trkpt lat="44.86925" lon="0.35092">
        <ele>25.9</ele>
        <time>2022-04-05T12:43:13Z</time>
      </trkpt>
      <trkpt lat="44.86926" lon="0.35096">
        <ele>25.9</ele>
        <time>2022-04-05T12:43:14Z</time>
      </trkpt>
      <trkpt lat="44.86926" lon="0.35097">
        <ele>25.9</ele>
        <time>2022-04-05T12:43:15Z</time>
      </trkpt>
      <trkpt lat="44.86926" lon="0.35098">
        <ele>25.9</ele>
        <time>2022-04-05T12:43:16Z</time>
      </trkpt>
      <trkpt lat="44.86927" lon="0.35099">
        <ele>25.9</ele>
        <time>2022-04-05T12:43:17Z</time>
      </trkpt>
      <trkpt lat="44.86927" lon="0.35103">
        <ele>25.9</ele>
        <time>2022-04-05T12:43:18Z</time>
      </trkpt>
      <trkpt lat="44.86927" lon="0.35104">
        <ele>25.9</ele>
        <time>2022-04-05T12:43:20Z</time>
      </trkpt>
      <trkpt lat="44.86928" lon="0.35106">
        <ele>25.9</ele>
        <time>2022-04-05T12:43:21Z</time>
      </trkpt>
      <trkpt lat="44.86928" lon="0.35108">
        <ele>25.9</ele>
        <time>2022-04-05T12:43:22Z</time>
      </trkpt>
      <trkpt lat="44.86928" lon="0.35109">
        <ele>25.9</ele>
        <time>2022-04-05T12:43:23Z</time>
      </trkpt>
      <trkpt lat="44.86929" lon="0.35113">
        <ele>25.9</ele>
        <time>2022-04-05T12:43:24Z</time>
      </trkpt>
      <trkpt lat="44.86929" lon="0.35113">
        <ele>25.9</ele>
        <time>2022-04-05T12:43:25Z</time>
      </trkpt>
      <trkpt lat="44.86929" lon="0.35115">
        <ele>25.9</ele>
        <time>2022-04-05T12:43:26Z</time>
      </trkpt>
      <trkpt lat="44.8693" lon="0.35116">
        <ele>25.9</ele>
        <time>2022-04-05T12:43:27Z</time>
      </trkpt>
      <trkpt lat="44.86931" lon="0.35118">
        <ele>25.9</ele>
        <time>2022-04-05T12:43:28Z</time>
      </trkpt>
      <trkpt lat="44.86931" lon="0.35122">
        <ele>25.9</ele>
        <time>2022-04-05T12:43:29Z</time>
      </trkpt>
      <trkpt lat="44.86931" lon="0.35124">
        <ele>25.9</ele>
        <time>2022-04-05T12:43:31Z</time>
      </trkpt>
      <trkpt lat="44.86931" lon="0.35125">
        <ele>25.9</ele>
        <time>2022-04-05T12:43:32Z</time>
      </trkpt>
      <trkpt lat="44.86932" lon="0.35127">
        <ele>25.9</ele>
        <time>2022-04-05T12:43:33Z</time>
      </trkpt>
      <trkpt lat="44.86932" lon="0.35128">
        <ele>25.9</ele>
        <time>2022-04-05T12:43:34Z</time>
      </trkpt>
      <trkpt lat="44.86932" lon="0.35129">
        <ele>25.9</ele>
        <time>2022-04-05T12:43:35Z</time>
      </trkpt>
      <trkpt lat="44.86932" lon="0.35131">
        <ele>25.9</ele>
        <time>2022-04-05T12:43:36Z</time>
      </trkpt>
      <trkpt lat="44.86932" lon="0.35132">
        <ele>25.9</ele>
        <time>2022-04-05T12:43:37Z</time>
      </trkpt>
      <trkpt lat="44.86933" lon="0.35134">
        <ele>25.9</ele>
        <time>2022-04-05T12:43:38Z</time>
      </trkpt>
      <trkpt lat="44.86934" lon="0.35137">
        <ele>25.9</ele>
        <time>2022-04-05T12:43:39Z</time>
      </trkpt>
      <trkpt lat="44.86934" lon="0.3514">
        <ele>25.9</ele>
        <time>2022-04-05T12:43:40Z</time>
      </trkpt>
      <trkpt lat="44.86934" lon="0.35141">
        <ele>25.9</ele>
        <time>2022-04-05T12:43:41Z</time>
      </trkpt>
      <trkpt lat="44.86935" lon="0.35142">
        <ele>25.9</ele>
        <time>2022-04-05T12:43:42Z</time>
      </trkpt>
      <trkpt lat="44.86935" lon="0.35146">
        <ele>25.9</ele>
        <time>2022-04-05T12:43:44Z</time>
      </trkpt>
      <trkpt lat="44.86935" lon="0.35147">
        <ele>25.9</ele>
        <time>2022-04-05T12:43:45Z</time>
      </trkpt>
      <trkpt lat="44.86936" lon="0.35149">
        <ele>25.9</ele>
        <time>2022-04-05T12:43:46Z</time>
      </trkpt>
      <trkpt lat="44.86936" lon="0.35151">
        <ele>26</ele>
        <time>2022-04-05T12:43:47Z</time>
      </trkpt>
      <trkpt lat="44.86937" lon="0.35156">
        <ele>26</ele>
        <time>2022-04-05T12:43:49Z</time>
      </trkpt>
      <trkpt lat="44.86937" lon="0.35158">
        <ele>26</ele>
        <time>2022-04-05T12:43:50Z</time>
      </trkpt>
      <trkpt lat="44.86937" lon="0.35159">
        <ele>26</ele>
        <time>2022-04-05T12:43:51Z</time>
      </trkpt>
      <trkpt lat="44.86937" lon="0.3516">
        <ele>26</ele>
        <time>2022-04-05T12:43:52Z</time>
      </trkpt>
      <trkpt lat="44.86938" lon="0.35161">
        <ele>26</ele>
        <time>2022-04-05T12:43:53Z</time>
      </trkpt>
      <trkpt lat="44.86938" lon="0.35164">
        <ele>26</ele>
        <time>2022-04-05T12:43:55Z</time>
      </trkpt>
      <trkpt lat="44.86938" lon="0.35165">
        <ele>26</ele>
        <time>2022-04-05T12:43:56Z</time>
      </trkpt>
      <trkpt lat="44.86938" lon="0.35167">
        <ele>26</ele>
        <time>2022-04-05T12:43:57Z</time>
      </trkpt>
      <trkpt lat="44.86939" lon="0.35169">
        <ele>26</ele>
        <time>2022-04-05T12:43:58Z</time>
      </trkpt>
      <trkpt lat="44.86939" lon="0.35171">
        <ele>26</ele>
        <time>2022-04-05T12:43:59Z</time>
      </trkpt>
      <trkpt lat="44.8694" lon="0.35173">
        <ele>26</ele>
        <time>2022-04-05T12:44:00Z</time>
      </trkpt>
      <trkpt lat="44.8694" lon="0.35175">
        <ele>26</ele>
        <time>2022-04-05T12:44:01Z</time>
      </trkpt>
      <trkpt lat="44.8694" lon="0.35176">
        <ele>26</ele>
        <time>2022-04-05T12:44:02Z</time>
      </trkpt>
      <trkpt lat="44.8694" lon="0.35178">
        <ele>26</ele>
        <time>2022-04-05T12:44:03Z</time>
      </trkpt>
      <trkpt lat="44.86941" lon="0.35183">
        <ele>26</ele>
        <time>2022-04-05T12:44:05Z</time>
      </trkpt>
      <trkpt lat="44.86941" lon="0.35184">
        <ele>26</ele>
        <time>2022-04-05T12:44:06Z</time>
      </trkpt>
      <trkpt lat="44.86941" lon="0.35186">
        <ele>26.1</ele>
        <time>2022-04-05T12:44:07Z</time>
      </trkpt>
      <trkpt lat="44.86942" lon="0.35187">
        <ele>26.1</ele>
        <time>2022-04-05T12:44:08Z</time>
      </trkpt>
      <trkpt lat="44.86942" lon="0.3519">
        <ele>26.1</ele>
        <time>2022-04-05T12:44:09Z</time>
      </trkpt>
      <trkpt lat="44.86942" lon="0.35191">
        <ele>26.1</ele>
        <time>2022-04-05T12:44:10Z</time>
      </trkpt>
      <trkpt lat="44.86942" lon="0.35194">
        <ele>26.1</ele>
        <time>2022-04-05T12:44:11Z</time>
      </trkpt>
      <trkpt lat="44.86943" lon="0.35196">
        <ele>26.1</ele>
        <time>2022-04-05T12:44:12Z</time>
      </trkpt>
      <trkpt lat="44.86942" lon="0.35199">
        <ele>26.1</ele>
        <time>2022-04-05T12:44:13Z</time>
      </trkpt>
      <trkpt lat="44.86942" lon="0.35201">
        <ele>26.1</ele>
        <time>2022-04-05T12:44:15Z</time>
      </trkpt>
      <trkpt lat="44.86942" lon="0.35202">
        <ele>26.1</ele>
        <time>2022-04-05T12:44:16Z</time>
      </trkpt>
      <trkpt lat="44.86942" lon="0.35204">
        <ele>26.1</ele>
        <time>2022-04-05T12:44:17Z</time>
      </trkpt>
      <trkpt lat="44.86942" lon="0.35205">
        <ele>26.1</ele>
        <time>2022-04-05T12:44:18Z</time>
      </trkpt>
      <trkpt lat="44.86943" lon="0.35209">
        <ele>26.1</ele>
        <time>2022-04-05T12:44:19Z</time>
      </trkpt>
      <trkpt lat="44.86943" lon="0.3521">
        <ele>26.1</ele>
        <time>2022-04-05T12:44:20Z</time>
      </trkpt>
      <trkpt lat="44.86943" lon="0.35211">
        <ele>26.2</ele>
        <time>2022-04-05T12:44:21Z</time>
      </trkpt>
      <trkpt lat="44.86944" lon="0.35213">
        <ele>26.2</ele>
        <time>2022-04-05T12:44:22Z</time>
      </trkpt>
      <trkpt lat="44.86944" lon="0.35214">
        <ele>26.2</ele>
        <time>2022-04-05T12:44:23Z</time>
      </trkpt>
      <trkpt lat="44.86944" lon="0.35218">
        <ele>26.2</ele>
        <time>2022-04-05T12:44:24Z</time>
      </trkpt>
      <trkpt lat="44.86944" lon="0.35219">
        <ele>26.2</ele>
        <time>2022-04-05T12:44:25Z</time>
      </trkpt>
      <trkpt lat="44.86944" lon="0.3522">
        <ele>26.2</ele>
        <time>2022-04-05T12:44:26Z</time>
      </trkpt>
      <trkpt lat="44.86944" lon="0.35222">
        <ele>26.2</ele>
        <time>2022-04-05T12:44:27Z</time>
      </trkpt>
      <trkpt lat="44.86944" lon="0.35223">
        <ele>26.2</ele>
        <time>2022-04-05T12:44:28Z</time>
      </trkpt>
      <trkpt lat="44.86945" lon="0.35227">
        <ele>26.2</ele>
        <time>2022-04-05T12:44:29Z</time>
      </trkpt>
      <trkpt lat="44.86945" lon="0.35228">
        <ele>26.2</ele>
        <time>2022-04-05T12:44:30Z</time>
      </trkpt>
      <trkpt lat="44.86945" lon="0.35229">
        <ele>26.2</ele>
        <time>2022-04-05T12:44:31Z</time>
      </trkpt>
      <trkpt lat="44.86946" lon="0.35231">
        <ele>26.2</ele>
        <time>2022-04-05T12:44:32Z</time>
      </trkpt>
      <trkpt lat="44.86946" lon="0.35233">
        <ele>26.2</ele>
        <time>2022-04-05T12:44:34Z</time>
      </trkpt>
      <trkpt lat="44.86946" lon="0.35236">
        <ele>26.2</ele>
        <time>2022-04-05T12:44:35Z</time>
      </trkpt>
      <trkpt lat="44.86946" lon="0.35237">
        <ele>26.2</ele>
        <time>2022-04-05T12:44:36Z</time>
      </trkpt>
      <trkpt lat="44.86946" lon="0.35239">
        <ele>26.2</ele>
        <time>2022-04-05T12:44:37Z</time>
      </trkpt>
      <trkpt lat="44.86945" lon="0.35241">
        <ele>26.2</ele>
        <time>2022-04-05T12:44:38Z</time>
      </trkpt>
      <trkpt lat="44.86945" lon="0.35242">
        <ele>26.2</ele>
        <time>2022-04-05T12:44:39Z</time>
      </trkpt>
      <trkpt lat="44.86945" lon="0.35245">
        <ele>26.2</ele>
        <time>2022-04-05T12:44:40Z</time>
      </trkpt>
      <trkpt lat="44.86945" lon="0.35246">
        <ele>26.2</ele>
        <time>2022-04-05T12:44:41Z</time>
      </trkpt>
      <trkpt lat="44.86945" lon="0.35249">
        <ele>26.2</ele>
        <time>2022-04-05T12:44:42Z</time>
      </trkpt>
      <trkpt lat="44.86945" lon="0.35251">
        <ele>26.2</ele>
        <time>2022-04-05T12:44:43Z</time>
      </trkpt>
      <trkpt lat="44.86945" lon="0.35253">
        <ele>26.2</ele>
        <time>2022-04-05T12:44:44Z</time>
      </trkpt>
      <trkpt lat="44.86945" lon="0.35254">
        <ele>26.2</ele>
        <time>2022-04-05T12:44:45Z</time>
      </trkpt>
      <trkpt lat="44.86945" lon="0.35256">
        <ele>26.2</ele>
        <time>2022-04-05T12:44:46Z</time>
      </trkpt>
      <trkpt lat="44.86945" lon="0.35257">
        <ele>26.2</ele>
        <time>2022-04-05T12:44:47Z</time>
      </trkpt>
      <trkpt lat="44.86945" lon="0.35258">
        <ele>26.2</ele>
        <time>2022-04-05T12:44:48Z</time>
      </trkpt>
      <trkpt lat="44.86944" lon="0.35261">
        <ele>26.2</ele>
        <time>2022-04-05T12:44:50Z</time>
      </trkpt>
      <trkpt lat="44.86944" lon="0.35263">
        <ele>26.2</ele>
        <time>2022-04-05T12:44:51Z</time>
      </trkpt>
      <trkpt lat="44.86945" lon="0.35266">
        <ele>26.2</ele>
        <time>2022-04-05T12:44:52Z</time>
      </trkpt>
      <trkpt lat="44.86945" lon="0.35267">
        <ele>26.2</ele>
        <time>2022-04-05T12:44:53Z</time>
      </trkpt>
      <trkpt lat="44.86945" lon="0.35268">
        <ele>26.2</ele>
        <time>2022-04-05T12:44:54Z</time>
      </trkpt>
      <trkpt lat="44.86946" lon="0.35271">
        <ele>26.2</ele>
        <time>2022-04-05T12:44:55Z</time>
      </trkpt>
      <trkpt lat="44.86946" lon="0.35272">
        <ele>26.2</ele>
        <time>2022-04-05T12:44:56Z</time>
      </trkpt>
      <trkpt lat="44.86946" lon="0.35274">
        <ele>26.2</ele>
        <time>2022-04-05T12:44:57Z</time>
      </trkpt>
      <trkpt lat="44.86946" lon="0.35276">
        <ele>26.2</ele>
        <time>2022-04-05T12:44:58Z</time>
      </trkpt>
      <trkpt lat="44.86947" lon="0.35279">
        <ele>26.2</ele>
        <time>2022-04-05T12:44:59Z</time>
      </trkpt>
      <trkpt lat="44.86947" lon="0.3528">
        <ele>26.2</ele>
        <time>2022-04-05T12:45:00Z</time>
      </trkpt>
      <trkpt lat="44.86947" lon="0.35282">
        <ele>26.2</ele>
        <time>2022-04-05T12:45:02Z</time>
      </trkpt>
      <trkpt lat="44.86947" lon="0.35284">
        <ele>26.2</ele>
        <time>2022-04-05T12:45:03Z</time>
      </trkpt>
      <trkpt lat="44.86946" lon="0.35286">
        <ele>26.2</ele>
        <time>2022-04-05T12:45:04Z</time>
      </trkpt>
      <trkpt lat="44.86946" lon="0.35289">
        <ele>26.2</ele>
        <time>2022-04-05T12:45:05Z</time>
      </trkpt>
      <trkpt lat="44.86946" lon="0.35291">
        <ele>26.2</ele>
        <time>2022-04-05T12:45:06Z</time>
      </trkpt>
      <trkpt lat="44.86946" lon="0.35292">
        <ele>26.2</ele>
        <time>2022-04-05T12:45:07Z</time>
      </trkpt>
      <trkpt lat="44.86947" lon="0.35294">
        <ele>26.2</ele>
        <time>2022-04-05T12:45:08Z</time>
      </trkpt>
      <trkpt lat="44.86947" lon="0.35298">
        <ele>26.2</ele>
        <time>2022-04-05T12:45:10Z</time>
      </trkpt>
      <trkpt lat="44.86947" lon="0.35299">
        <ele>26.2</ele>
        <time>2022-04-05T12:45:11Z</time>
      </trkpt>
      <trkpt lat="44.86947" lon="0.35301">
        <ele>26.2</ele>
        <time>2022-04-05T12:45:12Z</time>
      </trkpt>
      <trkpt lat="44.86947" lon="0.35302">
        <ele>26.2</ele>
        <time>2022-04-05T12:45:13Z</time>
      </trkpt>
      <trkpt lat="44.86948" lon="0.35306">
        <ele>26.2</ele>
        <time>2022-04-05T12:45:15Z</time>
      </trkpt>
      <trkpt lat="44.86948" lon="0.35307">
        <ele>26.2</ele>
        <time>2022-04-05T12:45:16Z</time>
      </trkpt>
      <trkpt lat="44.86948" lon="0.35309">
        <ele>26.2</ele>
        <time>2022-04-05T12:45:17Z</time>
      </trkpt>
      <trkpt lat="44.86948" lon="0.35311">
        <ele>26.2</ele>
        <time>2022-04-05T12:45:18Z</time>
      </trkpt>
      <trkpt lat="44.86948" lon="0.35315">
        <ele>26.2</ele>
        <time>2022-04-05T12:45:20Z</time>
      </trkpt>
      <trkpt lat="44.86948" lon="0.35316">
        <ele>26.2</ele>
        <time>2022-04-05T12:45:21Z</time>
      </trkpt>
      <trkpt lat="44.86948" lon="0.35318">
        <ele>26.1</ele>
        <time>2022-04-05T12:45:22Z</time>
      </trkpt>
      <trkpt lat="44.86948" lon="0.3532">
        <ele>26.1</ele>
        <time>2022-04-05T12:45:23Z</time>
      </trkpt>
      <trkpt lat="44.86949" lon="0.35322">
        <ele>26.1</ele>
        <time>2022-04-05T12:45:24Z</time>
      </trkpt>
      <trkpt lat="44.86949" lon="0.35325">
        <ele>26.1</ele>
        <time>2022-04-05T12:45:25Z</time>
      </trkpt>
      <trkpt lat="44.86949" lon="0.35325">
        <ele>26.1</ele>
        <time>2022-04-05T12:45:26Z</time>
      </trkpt>
      <trkpt lat="44.86949" lon="0.35327">
        <ele>26.1</ele>
        <time>2022-04-05T12:45:27Z</time>
      </trkpt>
      <trkpt lat="44.86949" lon="0.35328">
        <ele>26.1</ele>
        <time>2022-04-05T12:45:28Z</time>
      </trkpt>
      <trkpt lat="44.86949" lon="0.35331">
        <ele>26.1</ele>
        <time>2022-04-05T12:45:29Z</time>
      </trkpt>
      <trkpt lat="44.86949" lon="0.35334">
        <ele>26.1</ele>
        <time>2022-04-05T12:45:30Z</time>
      </trkpt>
      <trkpt lat="44.86949" lon="0.35334">
        <ele>26.1</ele>
        <time>2022-04-05T12:45:31Z</time>
      </trkpt>
      <trkpt lat="44.86949" lon="0.35336">
        <ele>26.1</ele>
        <time>2022-04-05T12:45:32Z</time>
      </trkpt>
      <trkpt lat="44.86949" lon="0.35338">
        <ele>26.1</ele>
        <time>2022-04-05T12:45:33Z</time>
      </trkpt>
      <trkpt lat="44.86949" lon="0.35342">
        <ele>26.1</ele>
        <time>2022-04-05T12:45:34Z</time>
      </trkpt>
      <trkpt lat="44.86949" lon="0.35342">
        <ele>26.1</ele>
        <time>2022-04-05T12:45:35Z</time>
      </trkpt>
      <trkpt lat="44.86949" lon="0.35343">
        <ele>26.1</ele>
        <time>2022-04-05T12:45:36Z</time>
      </trkpt>
      <trkpt lat="44.86949" lon="0.35345">
        <ele>26.1</ele>
        <time>2022-04-05T12:45:38Z</time>
      </trkpt>
      <trkpt lat="44.86949" lon="0.35347">
        <ele>26.1</ele>
        <time>2022-04-05T12:45:39Z</time>
      </trkpt>
      <trkpt lat="44.86949" lon="0.3535">
        <ele>26.1</ele>
        <time>2022-04-05T12:45:40Z</time>
      </trkpt>
      <trkpt lat="44.86949" lon="0.35351">
        <ele>26.1</ele>
        <time>2022-04-05T12:45:41Z</time>
      </trkpt>
      <trkpt lat="44.86948" lon="0.35352">
        <ele>26.1</ele>
        <time>2022-04-05T12:45:42Z</time>
      </trkpt>
      <trkpt lat="44.86948" lon="0.35354">
        <ele>26.1</ele>
        <time>2022-04-05T12:45:43Z</time>
      </trkpt>
      <trkpt lat="44.86947" lon="0.35357">
        <ele>26.1</ele>
        <time>2022-04-05T12:45:45Z</time>
      </trkpt>
      <trkpt lat="44.86947" lon="0.35358">
        <ele>26.1</ele>
        <time>2022-04-05T12:45:46Z</time>
      </trkpt>
      <trkpt lat="44.86947" lon="0.3536">
        <ele>26.1</ele>
        <time>2022-04-05T12:45:47Z</time>
      </trkpt>
      <trkpt lat="44.86947" lon="0.35362">
        <ele>26.1</ele>
        <time>2022-04-05T12:45:48Z</time>
      </trkpt>
      <trkpt lat="44.86946" lon="0.35364">
        <ele>26.1</ele>
        <time>2022-04-05T12:45:49Z</time>
      </trkpt>
      <trkpt lat="44.86946" lon="0.35366">
        <ele>26.1</ele>
        <time>2022-04-05T12:45:50Z</time>
      </trkpt>
      <trkpt lat="44.86945" lon="0.35367">
        <ele>26.1</ele>
        <time>2022-04-05T12:45:51Z</time>
      </trkpt>
      <trkpt lat="44.86944" lon="0.35368">
        <ele>26.1</ele>
        <time>2022-04-05T12:45:52Z</time>
      </trkpt>
      <trkpt lat="44.86944" lon="0.35369">
        <ele>26.1</ele>
        <time>2022-04-05T12:45:53Z</time>
      </trkpt>
      <trkpt lat="44.86941" lon="0.35371">
        <ele>26.1</ele>
        <time>2022-04-05T12:45:54Z</time>
      </trkpt>
      <trkpt lat="44.8694" lon="0.35372">
        <ele>26.1</ele>
        <time>2022-04-05T12:45:55Z</time>
      </trkpt>
      <trkpt lat="44.8694" lon="0.35372">
        <ele>26.1</ele>
        <time>2022-04-05T12:45:56Z</time>
      </trkpt>
      <trkpt lat="44.86938" lon="0.35372">
        <ele>26.1</ele>
        <time>2022-04-05T12:45:57Z</time>
      </trkpt>
      <trkpt lat="44.86937" lon="0.35372">
        <ele>26.1</ele>
        <time>2022-04-05T12:45:58Z</time>
      </trkpt>
      <trkpt lat="44.86935" lon="0.35372">
        <ele>26.1</ele>
        <time>2022-04-05T12:45:59Z</time>
      </trkpt>
      <trkpt lat="44.86934" lon="0.35372">
        <ele>26.1</ele>
        <time>2022-04-05T12:46:00Z</time>
      </trkpt>
      <trkpt lat="44.86933" lon="0.35372">
        <ele>26</ele>
        <time>2022-04-05T12:46:02Z</time>
      </trkpt>
      <trkpt lat="44.86931" lon="0.35372">
        <ele>26</ele>
        <time>2022-04-05T12:46:03Z</time>
      </trkpt>
      <trkpt lat="44.8693" lon="0.35372">
        <ele>26</ele>
        <time>2022-04-05T12:46:04Z</time>
      </trkpt>
      <trkpt lat="44.86927" lon="0.35372">
        <ele>26</ele>
        <time>2022-04-05T12:46:05Z</time>
      </trkpt>
      <trkpt lat="44.86927" lon="0.35372">
        <ele>26</ele>
        <time>2022-04-05T12:46:06Z</time>
      </trkpt>
      <trkpt lat="44.86926" lon="0.35373">
        <ele>26</ele>
        <time>2022-04-05T12:46:07Z</time>
      </trkpt>
      <trkpt lat="44.86925" lon="0.35373">
        <ele>26</ele>
        <time>2022-04-05T12:46:08Z</time>
      </trkpt>
      <trkpt lat="44.86923" lon="0.35374">
        <ele>26</ele>
        <time>2022-04-05T12:46:09Z</time>
      </trkpt>
      <trkpt lat="44.8692" lon="0.35374">
        <ele>26</ele>
        <time>2022-04-05T12:46:10Z</time>
      </trkpt>
      <trkpt lat="44.8692" lon="0.35374">
        <ele>26</ele>
        <time>2022-04-05T12:46:11Z</time>
      </trkpt>
      <trkpt lat="44.86919" lon="0.35375">
        <ele>25.9</ele>
        <time>2022-04-05T12:46:12Z</time>
      </trkpt>
      <trkpt lat="44.86918" lon="0.35376">
        <ele>25.9</ele>
        <time>2022-04-05T12:46:13Z</time>
      </trkpt>
      <trkpt lat="44.86915" lon="0.35377">
        <ele>25.9</ele>
        <time>2022-04-05T12:46:14Z</time>
      </trkpt>
      <trkpt lat="44.86914" lon="0.35377">
        <ele>25.9</ele>
        <time>2022-04-05T12:46:15Z</time>
      </trkpt>
      <trkpt lat="44.86913" lon="0.35377">
        <ele>25.9</ele>
        <time>2022-04-05T12:46:16Z</time>
      </trkpt>
      <trkpt lat="44.86912" lon="0.35377">
        <ele>25.9</ele>
        <time>2022-04-05T12:46:17Z</time>
      </trkpt>
      <trkpt lat="44.86911" lon="0.35378">
        <ele>25.9</ele>
        <time>2022-04-05T12:46:18Z</time>
      </trkpt>
      <trkpt lat="44.8691" lon="0.35378">
        <ele>25.9</ele>
        <time>2022-04-05T12:46:19Z</time>
      </trkpt>
      <trkpt lat="44.86908" lon="0.3538">
        <ele>25.9</ele>
        <time>2022-04-05T12:46:20Z</time>
      </trkpt>
      <trkpt lat="44.86907" lon="0.35381">
        <ele>25.9</ele>
        <time>2022-04-05T12:46:21Z</time>
      </trkpt>
      <trkpt lat="44.86906" lon="0.35382">
        <ele>25.9</ele>
        <time>2022-04-05T12:46:22Z</time>
      </trkpt>
      <trkpt lat="44.86905" lon="0.35383">
        <ele>25.9</ele>
        <time>2022-04-05T12:46:23Z</time>
      </trkpt>
      <trkpt lat="44.86903" lon="0.35384">
        <ele>25.9</ele>
        <time>2022-04-05T12:46:25Z</time>
      </trkpt>
      <trkpt lat="44.86902" lon="0.35383">
        <ele>25.9</ele>
        <time>2022-04-05T12:46:26Z</time>
      </trkpt>
      <trkpt lat="44.86901" lon="0.35383">
        <ele>25.9</ele>
        <time>2022-04-05T12:46:27Z</time>
      </trkpt>
      <trkpt lat="44.869" lon="0.35383">
        <ele>25.9</ele>
        <time>2022-04-05T12:46:28Z</time>
      </trkpt>
      <trkpt lat="44.86899" lon="0.35383">
        <ele>25.9</ele>
        <time>2022-04-05T12:46:29Z</time>
      </trkpt>
      <trkpt lat="44.86899" lon="0.35384">
        <ele>25.9</ele>
        <time>2022-04-05T12:46:30Z</time>
      </trkpt>
      <trkpt lat="44.86898" lon="0.35384">
        <ele>25.9</ele>
        <time>2022-04-05T12:46:31Z</time>
      </trkpt>
      <trkpt lat="44.86897" lon="0.35385">
        <ele>25.9</ele>
        <time>2022-04-05T12:46:32Z</time>
      </trkpt>
      <trkpt lat="44.86894" lon="0.35386">
        <ele>25.9</ele>
        <time>2022-04-05T12:46:34Z</time>
      </trkpt>
      <trkpt lat="44.86892" lon="0.35387">
        <ele>25.8</ele>
        <time>2022-04-05T12:46:36Z</time>
      </trkpt>
      <trkpt lat="44.86891" lon="0.35388">
        <ele>25.8</ele>
        <time>2022-04-05T12:46:37Z</time>
      </trkpt>
      <trkpt lat="44.86889" lon="0.35388">
        <ele>25.8</ele>
        <time>2022-04-05T12:46:38Z</time>
      </trkpt>
      <trkpt lat="44.86888" lon="0.3539">
        <ele>25.8</ele>
        <time>2022-04-05T12:46:39Z</time>
      </trkpt>
      <trkpt lat="44.86887" lon="0.35391">
        <ele>25.8</ele>
        <time>2022-04-05T12:46:40Z</time>
      </trkpt>
      <trkpt lat="44.86885" lon="0.35392">
        <ele>25.8</ele>
        <time>2022-04-05T12:46:42Z</time>
      </trkpt>
      <trkpt lat="44.86884" lon="0.35393">
        <ele>25.8</ele>
        <time>2022-04-05T12:46:43Z</time>
      </trkpt>
      <trkpt lat="44.86882" lon="0.35395">
        <ele>25.8</ele>
        <time>2022-04-05T12:46:44Z</time>
      </trkpt>
      <trkpt lat="44.86881" lon="0.35396">
        <ele>25.8</ele>
        <time>2022-04-05T12:46:45Z</time>
      </trkpt>
      <trkpt lat="44.8688" lon="0.35397">
        <ele>25.8</ele>
        <time>2022-04-05T12:46:46Z</time>
      </trkpt>
      <trkpt lat="44.8688" lon="0.35397">
        <ele>25.8</ele>
        <time>2022-04-05T12:46:47Z</time>
      </trkpt>
      <trkpt lat="44.86879" lon="0.35398">
        <ele>25.8</ele>
        <time>2022-04-05T12:46:48Z</time>
      </trkpt>
      <trkpt lat="44.86878" lon="0.354">
        <ele>25.8</ele>
        <time>2022-04-05T12:46:49Z</time>
      </trkpt>
      <trkpt lat="44.86877" lon="0.354">
        <ele>25.8</ele>
        <time>2022-04-05T12:46:50Z</time>
      </trkpt>
      <trkpt lat="44.86876" lon="0.35401">
        <ele>25.8</ele>
        <time>2022-04-05T12:46:51Z</time>
      </trkpt>
      <trkpt lat="44.86875" lon="0.35401">
        <ele>25.8</ele>
        <time>2022-04-05T12:46:52Z</time>
      </trkpt>
      <trkpt lat="44.86873" lon="0.35402">
        <ele>25.8</ele>
        <time>2022-04-05T12:46:53Z</time>
      </trkpt>
      <trkpt lat="44.86872" lon="0.35404">
        <ele>25.8</ele>
        <time>2022-04-05T12:46:54Z</time>
      </trkpt>
      <trkpt lat="44.86872" lon="0.35405">
        <ele>25.8</ele>
        <time>2022-04-05T12:46:55Z</time>
      </trkpt>
      <trkpt lat="44.86871" lon="0.35406">
        <ele>25.7</ele>
        <time>2022-04-05T12:46:57Z</time>
      </trkpt>
      <trkpt lat="44.8687" lon="0.35408">
        <ele>25.7</ele>
        <time>2022-04-05T12:46:58Z</time>
      </trkpt>
      <trkpt lat="44.86868" lon="0.3541">
        <ele>25.7</ele>
        <time>2022-04-05T12:46:59Z</time>
      </trkpt>
      <trkpt lat="44.86868" lon="0.35411">
        <ele>25.7</ele>
        <time>2022-04-05T12:47:00Z</time>
      </trkpt>
      <trkpt lat="44.86867" lon="0.35412">
        <ele>25.7</ele>
        <time>2022-04-05T12:47:01Z</time>
      </trkpt>
      <trkpt lat="44.86866" lon="0.35413">
        <ele>25.7</ele>
        <time>2022-04-05T12:47:03Z</time>
      </trkpt>
      <trkpt lat="44.86865" lon="0.35414">
        <ele>25.7</ele>
        <time>2022-04-05T12:47:04Z</time>
      </trkpt>
      <trkpt lat="44.86864" lon="0.35415">
        <ele>25.7</ele>
        <time>2022-04-05T12:47:05Z</time>
      </trkpt>
      <trkpt lat="44.86863" lon="0.35416">
        <ele>25.7</ele>
        <time>2022-04-05T12:47:06Z</time>
      </trkpt>
      <trkpt lat="44.86862" lon="0.35418">
        <ele>25.7</ele>
        <time>2022-04-05T12:47:07Z</time>
      </trkpt>
      <trkpt lat="44.8686" lon="0.3542">
        <ele>25.7</ele>
        <time>2022-04-05T12:47:08Z</time>
      </trkpt>
      <trkpt lat="44.8686" lon="0.3542">
        <ele>25.7</ele>
        <time>2022-04-05T12:47:10Z</time>
      </trkpt>
      <trkpt lat="44.86859" lon="0.35421">
        <ele>25.7</ele>
        <time>2022-04-05T12:47:11Z</time>
      </trkpt>
      <trkpt lat="44.86858" lon="0.35423">
        <ele>25.7</ele>
        <time>2022-04-05T12:47:12Z</time>
      </trkpt>
      <trkpt lat="44.86857" lon="0.35424">
        <ele>25.7</ele>
        <time>2022-04-05T12:47:13Z</time>
      </trkpt>
      <trkpt lat="44.86855" lon="0.35425">
        <ele>25.7</ele>
        <time>2022-04-05T12:47:14Z</time>
      </trkpt>
      <trkpt lat="44.86855" lon="0.35426">
        <ele>25.7</ele>
        <time>2022-04-05T12:47:15Z</time>
      </trkpt>
      <trkpt lat="44.86854" lon="0.35426">
        <ele>25.7</ele>
        <time>2022-04-05T12:47:16Z</time>
      </trkpt>
      <trkpt lat="44.86853" lon="0.35427">
        <ele>25.7</ele>
        <time>2022-04-05T12:47:17Z</time>
      </trkpt>
      <trkpt lat="44.86852" lon="0.35428">
        <ele>25.7</ele>
        <time>2022-04-05T12:47:18Z</time>
      </trkpt>
      <trkpt lat="44.8685" lon="0.35429">
        <ele>25.7</ele>
        <time>2022-04-05T12:47:19Z</time>
      </trkpt>
      <trkpt lat="44.86848" lon="0.3543">
        <ele>25.7</ele>
        <time>2022-04-05T12:47:21Z</time>
      </trkpt>
      <trkpt lat="44.86848" lon="0.35431">
        <ele>25.7</ele>
        <time>2022-04-05T12:47:22Z</time>
      </trkpt>
      <trkpt lat="44.86847" lon="0.35432">
        <ele>25.7</ele>
        <time>2022-04-05T12:47:23Z</time>
      </trkpt>
      <trkpt lat="44.86845" lon="0.35433">
        <ele>25.7</ele>
        <time>2022-04-05T12:47:24Z</time>
      </trkpt>
      <trkpt lat="44.86844" lon="0.35433">
        <ele>25.6</ele>
        <time>2022-04-05T12:47:25Z</time>
      </trkpt>
      <trkpt lat="44.86843" lon="0.35433">
        <ele>25.6</ele>
        <time>2022-04-05T12:47:26Z</time>
      </trkpt>
      <trkpt lat="44.86842" lon="0.35434">
        <ele>25.6</ele>
        <time>2022-04-05T12:47:27Z</time>
      </trkpt>
      <trkpt lat="44.86841" lon="0.35435">
        <ele>25.6</ele>
        <time>2022-04-05T12:47:28Z</time>
      </trkpt>
      <trkpt lat="44.86839" lon="0.35436">
        <ele>25.6</ele>
        <time>2022-04-05T12:47:29Z</time>
      </trkpt>
      <trkpt lat="44.86839" lon="0.35437">
        <ele>25.6</ele>
        <time>2022-04-05T12:47:30Z</time>
      </trkpt>
      <trkpt lat="44.86838" lon="0.35437">
        <ele>25.6</ele>
        <time>2022-04-05T12:47:31Z</time>
      </trkpt>
      <trkpt lat="44.86836" lon="0.35438">
        <ele>25.6</ele>
        <time>2022-04-05T12:47:32Z</time>
      </trkpt>
      <trkpt lat="44.86834" lon="0.35439">
        <ele>25.6</ele>
        <time>2022-04-05T12:47:34Z</time>
      </trkpt>
      <trkpt lat="44.86834" lon="0.3544">
        <ele>25.6</ele>
        <time>2022-04-05T12:47:35Z</time>
      </trkpt>
      <trkpt lat="44.86833" lon="0.35441">
        <ele>25.6</ele>
        <time>2022-04-05T12:47:36Z</time>
      </trkpt>
      <trkpt lat="44.86832" lon="0.35442">
        <ele>25.5</ele>
        <time>2022-04-05T12:47:37Z</time>
      </trkpt>
      <trkpt lat="44.86829" lon="0.35444">
        <ele>25.5</ele>
        <time>2022-04-05T12:47:39Z</time>
      </trkpt>
      <trkpt lat="44.86829" lon="0.35445">
        <ele>25.5</ele>
        <time>2022-04-05T12:47:40Z</time>
      </trkpt>
      <trkpt lat="44.86828" lon="0.35445">
        <ele>25.5</ele>
        <time>2022-04-05T12:47:41Z</time>
      </trkpt>
      <trkpt lat="44.86826" lon="0.35446">
        <ele>25.5</ele>
        <time>2022-04-05T12:47:42Z</time>
      </trkpt>
      <trkpt lat="44.86825" lon="0.35447">
        <ele>25.5</ele>
        <time>2022-04-05T12:47:43Z</time>
      </trkpt>
      <trkpt lat="44.86823" lon="0.35448">
        <ele>25.5</ele>
        <time>2022-04-05T12:47:44Z</time>
      </trkpt>
      <trkpt lat="44.86821" lon="0.35449">
        <ele>25.5</ele>
        <time>2022-04-05T12:47:46Z</time>
      </trkpt>
      <trkpt lat="44.86821" lon="0.35449">
        <ele>25.5</ele>
        <time>2022-04-05T12:47:47Z</time>
      </trkpt>
      <trkpt lat="44.86819" lon="0.35451">
        <ele>25.5</ele>
        <time>2022-04-05T12:47:48Z</time>
      </trkpt>
      <trkpt lat="44.86817" lon="0.35451">
        <ele>25.5</ele>
        <time>2022-04-05T12:47:49Z</time>
      </trkpt>
      <trkpt lat="44.86817" lon="0.35452">
        <ele>25.5</ele>
        <time>2022-04-05T12:47:50Z</time>
      </trkpt>
      <trkpt lat="44.86816" lon="0.35452">
        <ele>25.5</ele>
        <time>2022-04-05T12:47:51Z</time>
      </trkpt>
      <trkpt lat="44.86815" lon="0.35453">
        <ele>25.5</ele>
        <time>2022-04-05T12:47:53Z</time>
      </trkpt>
      <trkpt lat="44.86813" lon="0.35454">
        <ele>25.5</ele>
        <time>2022-04-05T12:47:54Z</time>
      </trkpt>
      <trkpt lat="44.86812" lon="0.35455">
        <ele>25.5</ele>
        <time>2022-04-05T12:47:55Z</time>
      </trkpt>
      <trkpt lat="44.86811" lon="0.35455">
        <ele>25.5</ele>
        <time>2022-04-05T12:47:56Z</time>
      </trkpt>
      <trkpt lat="44.8681" lon="0.35456">
        <ele>25.5</ele>
        <time>2022-04-05T12:47:57Z</time>
      </trkpt>
      <trkpt lat="44.86809" lon="0.35458">
        <ele>25.5</ele>
        <time>2022-04-05T12:47:58Z</time>
      </trkpt>
      <trkpt lat="44.86807" lon="0.35459">
        <ele>25.5</ele>
        <time>2022-04-05T12:47:59Z</time>
      </trkpt>
      <trkpt lat="44.86807" lon="0.3546">
        <ele>25.5</ele>
        <time>2022-04-05T12:48:00Z</time>
      </trkpt>
      <trkpt lat="44.86805" lon="0.35461">
        <ele>25.5</ele>
        <time>2022-04-05T12:48:01Z</time>
      </trkpt>
      <trkpt lat="44.86804" lon="0.35462">
        <ele>25.5</ele>
        <time>2022-04-05T12:48:02Z</time>
      </trkpt>
      <trkpt lat="44.86803" lon="0.35462">
        <ele>25.5</ele>
        <time>2022-04-05T12:48:03Z</time>
      </trkpt>
      <trkpt lat="44.86802" lon="0.35463">
        <ele>25.5</ele>
        <time>2022-04-05T12:48:05Z</time>
      </trkpt>
      <trkpt lat="44.86801" lon="0.35463">
        <ele>25.5</ele>
        <time>2022-04-05T12:48:06Z</time>
      </trkpt>
      <trkpt lat="44.86799" lon="0.35464">
        <ele>25.5</ele>
        <time>2022-04-05T12:48:07Z</time>
      </trkpt>
      <trkpt lat="44.86799" lon="0.35464">
        <ele>25.5</ele>
        <time>2022-04-05T12:48:08Z</time>
      </trkpt>
      <trkpt lat="44.86798" lon="0.35464">
        <ele>25.6</ele>
        <time>2022-04-05T12:48:09Z</time>
      </trkpt>
      <trkpt lat="44.86795" lon="0.35466">
        <ele>25.6</ele>
        <time>2022-04-05T12:48:10Z</time>
      </trkpt>
      <trkpt lat="44.86795" lon="0.35466">
        <ele>25.6</ele>
        <time>2022-04-05T12:48:11Z</time>
      </trkpt>
      <trkpt lat="44.86794" lon="0.35466">
        <ele>25.6</ele>
        <time>2022-04-05T12:48:12Z</time>
      </trkpt>
      <trkpt lat="44.86793" lon="0.35467">
        <ele>25.6</ele>
        <time>2022-04-05T12:48:13Z</time>
      </trkpt>
      <trkpt lat="44.86791" lon="0.35467">
        <ele>25.5</ele>
        <time>2022-04-05T12:48:14Z</time>
      </trkpt>
      <trkpt lat="44.86789" lon="0.35468">
        <ele>25.5</ele>
        <time>2022-04-05T12:48:15Z</time>
      </trkpt>
      <trkpt lat="44.86789" lon="0.35468">
        <ele>25.5</ele>
        <time>2022-04-05T12:48:16Z</time>
      </trkpt>
      <trkpt lat="44.86788" lon="0.35468">
        <ele>25.5</ele>
        <time>2022-04-05T12:48:17Z</time>
      </trkpt>
      <trkpt lat="44.86787" lon="0.35468">
        <ele>25.5</ele>
        <time>2022-04-05T12:48:18Z</time>
      </trkpt>
      <trkpt lat="44.86785" lon="0.35468">
        <ele>25.5</ele>
        <time>2022-04-05T12:48:19Z</time>
      </trkpt>
      <trkpt lat="44.86784" lon="0.35468">
        <ele>25.5</ele>
        <time>2022-04-05T12:48:20Z</time>
      </trkpt>
      <trkpt lat="44.86783" lon="0.35468">
        <ele>25.5</ele>
        <time>2022-04-05T12:48:21Z</time>
      </trkpt>
      <trkpt lat="44.86782" lon="0.35468">
        <ele>25.5</ele>
        <time>2022-04-05T12:48:22Z</time>
      </trkpt>
      <trkpt lat="44.86781" lon="0.35467">
        <ele>25.5</ele>
        <time>2022-04-05T12:48:23Z</time>
      </trkpt>
      <trkpt lat="44.86779" lon="0.35466">
        <ele>25.5</ele>
        <time>2022-04-05T12:48:24Z</time>
      </trkpt>
      <trkpt lat="44.86778" lon="0.35466">
        <ele>25.5</ele>
        <time>2022-04-05T12:48:25Z</time>
      </trkpt>
      <trkpt lat="44.86777" lon="0.35465">
        <ele>25.5</ele>
        <time>2022-04-05T12:48:26Z</time>
      </trkpt>
      <trkpt lat="44.86776" lon="0.35464">
        <ele>25.5</ele>
        <time>2022-04-05T12:48:27Z</time>
      </trkpt>
      <trkpt lat="44.86775" lon="0.35463">
        <ele>25.5</ele>
        <time>2022-04-05T12:48:28Z</time>
      </trkpt>
      <trkpt lat="44.86773" lon="0.35461">
        <ele>25.5</ele>
        <time>2022-04-05T12:48:29Z</time>
      </trkpt>
      <trkpt lat="44.86773" lon="0.3546">
        <ele>25.5</ele>
        <time>2022-04-05T12:48:30Z</time>
      </trkpt>
      <trkpt lat="44.86772" lon="0.35459">
        <ele>25.5</ele>
        <time>2022-04-05T12:48:31Z</time>
      </trkpt>
      <trkpt lat="44.86771" lon="0.35458">
        <ele>25.5</ele>
        <time>2022-04-05T12:48:32Z</time>
      </trkpt>
      <trkpt lat="44.8677" lon="0.35456">
        <ele>25.5</ele>
        <time>2022-04-05T12:48:34Z</time>
      </trkpt>
      <trkpt lat="44.86768" lon="0.35454">
        <ele>25.5</ele>
        <time>2022-04-05T12:48:35Z</time>
      </trkpt>
      <trkpt lat="44.86768" lon="0.35452">
        <ele>25.5</ele>
        <time>2022-04-05T12:48:36Z</time>
      </trkpt>
      <trkpt lat="44.86767" lon="0.3545">
        <ele>25.5</ele>
        <time>2022-04-05T12:48:37Z</time>
      </trkpt>
      <trkpt lat="44.86766" lon="0.35448">
        <ele>25.5</ele>
        <time>2022-04-05T12:48:38Z</time>
      </trkpt>
      <trkpt lat="44.86765" lon="0.35447">
        <ele>25.5</ele>
        <time>2022-04-05T12:48:39Z</time>
      </trkpt>
      <trkpt lat="44.86765" lon="0.35446">
        <ele>25.5</ele>
        <time>2022-04-05T12:48:40Z</time>
      </trkpt>
      <trkpt lat="44.86765" lon="0.35445">
        <ele>25.5</ele>
        <time>2022-04-05T12:48:41Z</time>
      </trkpt>
      <trkpt lat="44.86764" lon="0.35443">
        <ele>25.5</ele>
        <time>2022-04-05T12:48:42Z</time>
      </trkpt>
      <trkpt lat="44.86763" lon="0.35441">
        <ele>25.5</ele>
        <time>2022-04-05T12:48:44Z</time>
      </trkpt>
      <trkpt lat="44.86761" lon="0.35439">
        <ele>25.4</ele>
        <time>2022-04-05T12:48:45Z</time>
      </trkpt>
      <trkpt lat="44.86761" lon="0.35438">
        <ele>25.4</ele>
        <time>2022-04-05T12:48:46Z</time>
      </trkpt>
      <trkpt lat="44.8676" lon="0.35437">
        <ele>25.4</ele>
        <time>2022-04-05T12:48:47Z</time>
      </trkpt>
      <trkpt lat="44.86759" lon="0.35435">
        <ele>25.4</ele>
        <time>2022-04-05T12:48:48Z</time>
      </trkpt>
      <trkpt lat="44.86758" lon="0.35433">
        <ele>25.4</ele>
        <time>2022-04-05T12:48:49Z</time>
      </trkpt>
      <trkpt lat="44.86757" lon="0.35432">
        <ele>25.4</ele>
        <time>2022-04-05T12:48:50Z</time>
      </trkpt>
      <trkpt lat="44.86756" lon="0.35432">
        <ele>25.4</ele>
        <time>2022-04-05T12:48:51Z</time>
      </trkpt>
      <trkpt lat="44.86756" lon="0.35431">
        <ele>25.4</ele>
        <time>2022-04-05T12:48:52Z</time>
      </trkpt>
      <trkpt lat="44.86755" lon="0.3543">
        <ele>25.4</ele>
        <time>2022-04-05T12:48:53Z</time>
      </trkpt>
      <trkpt lat="44.86753" lon="0.35427">
        <ele>25.4</ele>
        <time>2022-04-05T12:48:54Z</time>
      </trkpt>
      <trkpt lat="44.86753" lon="0.35427">
        <ele>25.4</ele>
        <time>2022-04-05T12:48:55Z</time>
      </trkpt>
      <trkpt lat="44.86751" lon="0.35425">
        <ele>25.4</ele>
        <time>2022-04-05T12:48:56Z</time>
      </trkpt>
      <trkpt lat="44.86751" lon="0.35424">
        <ele>25.4</ele>
        <time>2022-04-05T12:48:57Z</time>
      </trkpt>
      <trkpt lat="44.8675" lon="0.35423">
        <ele>25.4</ele>
        <time>2022-04-05T12:48:58Z</time>
      </trkpt>
      <trkpt lat="44.86749" lon="0.35421">
        <ele>25.4</ele>
        <time>2022-04-05T12:48:59Z</time>
      </trkpt>
      <trkpt lat="44.86748" lon="0.3542">
        <ele>25.4</ele>
        <time>2022-04-05T12:49:00Z</time>
      </trkpt>
      <trkpt lat="44.86747" lon="0.35418">
        <ele>25.4</ele>
        <time>2022-04-05T12:49:02Z</time>
      </trkpt>
      <trkpt lat="44.86746" lon="0.35417">
        <ele>25.4</ele>
        <time>2022-04-05T12:49:03Z</time>
      </trkpt>
      <trkpt lat="44.86745" lon="0.35416">
        <ele>25.4</ele>
        <time>2022-04-05T12:49:04Z</time>
      </trkpt>
      <trkpt lat="44.86744" lon="0.35414">
        <ele>25.4</ele>
        <time>2022-04-05T12:49:05Z</time>
      </trkpt>
      <trkpt lat="44.86743" lon="0.35413">
        <ele>25.4</ele>
        <time>2022-04-05T12:49:06Z</time>
      </trkpt>
      <trkpt lat="44.86743" lon="0.35413">
        <ele>25.4</ele>
        <time>2022-04-05T12:49:07Z</time>
      </trkpt>
      <trkpt lat="44.86742" lon="0.35412">
        <ele>25.4</ele>
        <time>2022-04-05T12:49:08Z</time>
      </trkpt>
      <trkpt lat="44.8674" lon="0.3541">
        <ele>25.4</ele>
        <time>2022-04-05T12:49:10Z</time>
      </trkpt>
      <trkpt lat="44.86739" lon="0.35409">
        <ele>25.4</ele>
        <time>2022-04-05T12:49:11Z</time>
      </trkpt>
      <trkpt lat="44.86738" lon="0.35408">
        <ele>25.4</ele>
        <time>2022-04-05T12:49:12Z</time>
      </trkpt>
      <trkpt lat="44.86737" lon="0.35407">
        <ele>25.4</ele>
        <time>2022-04-05T12:49:13Z</time>
      </trkpt>
      <trkpt lat="44.86736" lon="0.35407">
        <ele>25.4</ele>
        <time>2022-04-05T12:49:14Z</time>
      </trkpt>
      <trkpt lat="44.86735" lon="0.35406">
        <ele>25.4</ele>
        <time>2022-04-05T12:49:15Z</time>
      </trkpt>
      <trkpt lat="44.86734" lon="0.35406">
        <ele>25.4</ele>
        <time>2022-04-05T12:49:16Z</time>
      </trkpt>
      <trkpt lat="44.86732" lon="0.35405">
        <ele>25.4</ele>
        <time>2022-04-05T12:49:18Z</time>
      </trkpt>
      <trkpt lat="44.86731" lon="0.35405">
        <ele>25.4</ele>
        <time>2022-04-05T12:49:19Z</time>
      </trkpt>
      <trkpt lat="44.86729" lon="0.35405">
        <ele>25.4</ele>
        <time>2022-04-05T12:49:20Z</time>
      </trkpt>
      <trkpt lat="44.86728" lon="0.35405">
        <ele>25.4</ele>
        <time>2022-04-05T12:49:21Z</time>
      </trkpt>
      <trkpt lat="44.86726" lon="0.35405">
        <ele>25.4</ele>
        <time>2022-04-05T12:49:22Z</time>
      </trkpt>
      <trkpt lat="44.86725" lon="0.35405">
        <ele>25.5</ele>
        <time>2022-04-05T12:49:23Z</time>
      </trkpt>
      <trkpt lat="44.86724" lon="0.35405">
        <ele>25.5</ele>
        <time>2022-04-05T12:49:24Z</time>
      </trkpt>
      <trkpt lat="44.86722" lon="0.35405">
        <ele>25.5</ele>
        <time>2022-04-05T12:49:25Z</time>
      </trkpt>
      <trkpt lat="44.86721" lon="0.35405">
        <ele>25.5</ele>
        <time>2022-04-05T12:49:26Z</time>
      </trkpt>
      <trkpt lat="44.8672" lon="0.35405">
        <ele>25.5</ele>
        <time>2022-04-05T12:49:27Z</time>
      </trkpt>
      <trkpt lat="44.86719" lon="0.35405">
        <ele>25.5</ele>
        <time>2022-04-05T12:49:28Z</time>
      </trkpt>
      <trkpt lat="44.86717" lon="0.35406">
        <ele>25.5</ele>
        <time>2022-04-05T12:49:29Z</time>
      </trkpt>
      <trkpt lat="44.86715" lon="0.35406">
        <ele>25.5</ele>
        <time>2022-04-05T12:49:30Z</time>
      </trkpt>
      <trkpt lat="44.86714" lon="0.35406">
        <ele>25.5</ele>
        <time>2022-04-05T12:49:31Z</time>
      </trkpt>
      <trkpt lat="44.86713" lon="0.35407">
        <ele>25.5</ele>
        <time>2022-04-05T12:49:32Z</time>
      </trkpt>
      <trkpt lat="44.86713" lon="0.35407">
        <ele>25.4</ele>
        <time>2022-04-05T12:49:33Z</time>
      </trkpt>
      <trkpt lat="44.86712" lon="0.35407">
        <ele>25.4</ele>
        <time>2022-04-05T12:49:34Z</time>
      </trkpt>
      <trkpt lat="44.8671" lon="0.35409">
        <ele>25.4</ele>
        <time>2022-04-05T12:49:35Z</time>
      </trkpt>
      <trkpt lat="44.86709" lon="0.3541">
        <ele>25.4</ele>
        <time>2022-04-05T12:49:36Z</time>
      </trkpt>
      <trkpt lat="44.86708" lon="0.3541">
        <ele>25.4</ele>
        <time>2022-04-05T12:49:37Z</time>
      </trkpt>
      <trkpt lat="44.86707" lon="0.35411">
        <ele>25.4</ele>
        <time>2022-04-05T12:49:38Z</time>
      </trkpt>
      <trkpt lat="44.86706" lon="0.35413">
        <ele>25.4</ele>
        <time>2022-04-05T12:49:39Z</time>
      </trkpt>
      <trkpt lat="44.86705" lon="0.35413">
        <ele>25.4</ele>
        <time>2022-04-05T12:49:41Z</time>
      </trkpt>
      <trkpt lat="44.86704" lon="0.35414">
        <ele>25.4</ele>
        <time>2022-04-05T12:49:42Z</time>
      </trkpt>
      <trkpt lat="44.86703" lon="0.35415">
        <ele>25.4</ele>
        <time>2022-04-05T12:49:43Z</time>
      </trkpt>
      <trkpt lat="44.86701" lon="0.35415">
        <ele>25.4</ele>
        <time>2022-04-05T12:49:44Z</time>
      </trkpt>
      <trkpt lat="44.867" lon="0.35416">
        <ele>25.4</ele>
        <time>2022-04-05T12:49:45Z</time>
      </trkpt>
      <trkpt lat="44.86699" lon="0.35417">
        <ele>25.3</ele>
        <time>2022-04-05T12:49:47Z</time>
      </trkpt>
      <trkpt lat="44.86698" lon="0.35417">
        <ele>25.3</ele>
        <time>2022-04-05T12:49:48Z</time>
      </trkpt>
      <trkpt lat="44.86697" lon="0.35418">
        <ele>25.3</ele>
        <time>2022-04-05T12:49:49Z</time>
      </trkpt>
      <trkpt lat="44.86695" lon="0.3542">
        <ele>25.3</ele>
        <time>2022-04-05T12:49:50Z</time>
      </trkpt>
      <trkpt lat="44.86694" lon="0.3542">
        <ele>25.3</ele>
        <time>2022-04-05T12:49:51Z</time>
      </trkpt>
      <trkpt lat="44.86692" lon="0.3542">
        <ele>25.3</ele>
        <time>2022-04-05T12:49:52Z</time>
      </trkpt>
      <trkpt lat="44.86691" lon="0.3542">
        <ele>25.3</ele>
        <time>2022-04-05T12:49:53Z</time>
      </trkpt>
      <trkpt lat="44.86691" lon="0.35421">
        <ele>25.3</ele>
        <time>2022-04-05T12:49:54Z</time>
      </trkpt>
      <trkpt lat="44.86688" lon="0.35421">
        <ele>25.3</ele>
        <time>2022-04-05T12:49:55Z</time>
      </trkpt>
      <trkpt lat="44.86687" lon="0.35422">
        <ele>25.3</ele>
        <time>2022-04-05T12:49:56Z</time>
      </trkpt>
      <trkpt lat="44.86685" lon="0.35422">
        <ele>25.3</ele>
        <time>2022-04-05T12:49:58Z</time>
      </trkpt>
      <trkpt lat="44.86684" lon="0.35423">
        <ele>25.3</ele>
        <time>2022-04-05T12:49:59Z</time>
      </trkpt>
      <trkpt lat="44.86681" lon="0.35424">
        <ele>25.3</ele>
        <time>2022-04-05T12:50:00Z</time>
      </trkpt>
      <trkpt lat="44.8668" lon="0.35425">
        <ele>25.3</ele>
        <time>2022-04-05T12:50:01Z</time>
      </trkpt>
      <trkpt lat="44.86679" lon="0.35425">
        <ele>25.3</ele>
        <time>2022-04-05T12:50:02Z</time>
      </trkpt>
      <trkpt lat="44.86678" lon="0.35426">
        <ele>25.3</ele>
        <time>2022-04-05T12:50:03Z</time>
      </trkpt>
      <trkpt lat="44.86676" lon="0.35427">
        <ele>25.2</ele>
        <time>2022-04-05T12:50:04Z</time>
      </trkpt>
      <trkpt lat="44.86675" lon="0.35428">
        <ele>25.2</ele>
        <time>2022-04-05T12:50:05Z</time>
      </trkpt>
      <trkpt lat="44.86673" lon="0.35429">
        <ele>25.2</ele>
        <time>2022-04-05T12:50:06Z</time>
      </trkpt>
      <trkpt lat="44.86672" lon="0.35429">
        <ele>25.2</ele>
        <time>2022-04-05T12:50:08Z</time>
      </trkpt>
      <trkpt lat="44.86671" lon="0.3543">
        <ele>25.2</ele>
        <time>2022-04-05T12:50:09Z</time>
      </trkpt>
      <trkpt lat="44.86669" lon="0.3543">
        <ele>25.2</ele>
        <time>2022-04-05T12:50:10Z</time>
      </trkpt>
      <trkpt lat="44.86668" lon="0.35431">
        <ele>25.2</ele>
        <time>2022-04-05T12:50:11Z</time>
      </trkpt>
      <trkpt lat="44.86667" lon="0.35431">
        <ele>25.2</ele>
        <time>2022-04-05T12:50:12Z</time>
      </trkpt>
      <trkpt lat="44.86666" lon="0.35432">
        <ele>25.2</ele>
        <time>2022-04-05T12:50:13Z</time>
      </trkpt>
      <trkpt lat="44.86665" lon="0.35433">
        <ele>25.2</ele>
        <time>2022-04-05T12:50:14Z</time>
      </trkpt>
      <trkpt lat="44.86663" lon="0.35434">
        <ele>25.2</ele>
        <time>2022-04-05T12:50:15Z</time>
      </trkpt>
      <trkpt lat="44.86663" lon="0.35434">
        <ele>25.2</ele>
        <time>2022-04-05T12:50:16Z</time>
      </trkpt>
      <trkpt lat="44.86661" lon="0.35435">
        <ele>25.2</ele>
        <time>2022-04-05T12:50:17Z</time>
      </trkpt>
      <trkpt lat="44.8666" lon="0.35436">
        <ele>25.2</ele>
        <time>2022-04-05T12:50:18Z</time>
      </trkpt>
      <trkpt lat="44.86659" lon="0.35436">
        <ele>25.2</ele>
        <time>2022-04-05T12:50:19Z</time>
      </trkpt>
      <trkpt lat="44.86657" lon="0.35437">
        <ele>25.2</ele>
        <time>2022-04-05T12:50:20Z</time>
      </trkpt>
      <trkpt lat="44.86655" lon="0.35437">
        <ele>25.2</ele>
        <time>2022-04-05T12:50:21Z</time>
      </trkpt>
      <trkpt lat="44.86654" lon="0.35438">
        <ele>25.2</ele>
        <time>2022-04-05T12:50:22Z</time>
      </trkpt>
      <trkpt lat="44.86651" lon="0.3544">
        <ele>25.2</ele>
        <time>2022-04-05T12:50:24Z</time>
      </trkpt>
      <trkpt lat="44.8665" lon="0.3544">
        <ele>25.2</ele>
        <time>2022-04-05T12:50:25Z</time>
      </trkpt>
      <trkpt lat="44.86649" lon="0.35441">
        <ele>25.2</ele>
        <time>2022-04-05T12:50:26Z</time>
      </trkpt>
      <trkpt lat="44.86648" lon="0.35442">
        <ele>25.2</ele>
        <time>2022-04-05T12:50:27Z</time>
      </trkpt>
      <trkpt lat="44.86647" lon="0.35442">
        <ele>25.2</ele>
        <time>2022-04-05T12:50:28Z</time>
      </trkpt>
      <trkpt lat="44.86646" lon="0.35443">
        <ele>25.2</ele>
        <time>2022-04-05T12:50:29Z</time>
      </trkpt>
      <trkpt lat="44.86644" lon="0.35444">
        <ele>25.2</ele>
        <time>2022-04-05T12:50:30Z</time>
      </trkpt>
      <trkpt lat="44.86643" lon="0.35444">
        <ele>25.2</ele>
        <time>2022-04-05T12:50:31Z</time>
      </trkpt>
      <trkpt lat="44.86642" lon="0.35445">
        <ele>25.2</ele>
        <time>2022-04-05T12:50:32Z</time>
      </trkpt>
      <trkpt lat="44.86641" lon="0.35446">
        <ele>25.2</ele>
        <time>2022-04-05T12:50:33Z</time>
      </trkpt>
      <trkpt lat="44.8664" lon="0.35446">
        <ele>25.2</ele>
        <time>2022-04-05T12:50:34Z</time>
      </trkpt>
      <trkpt lat="44.86638" lon="0.35447">
        <ele>25.2</ele>
        <time>2022-04-05T12:50:35Z</time>
      </trkpt>
      <trkpt lat="44.86637" lon="0.35448">
        <ele>25.2</ele>
        <time>2022-04-05T12:50:36Z</time>
      </trkpt>
      <trkpt lat="44.86636" lon="0.35448">
        <ele>25.2</ele>
        <time>2022-04-05T12:50:37Z</time>
      </trkpt>
      <trkpt lat="44.86635" lon="0.35449">
        <ele>25.2</ele>
        <time>2022-04-05T12:50:38Z</time>
      </trkpt>
      <trkpt lat="44.86634" lon="0.35449">
        <ele>25.2</ele>
        <time>2022-04-05T12:50:39Z</time>
      </trkpt>
      <trkpt lat="44.86632" lon="0.3545">
        <ele>25.2</ele>
        <time>2022-04-05T12:50:40Z</time>
      </trkpt>
      <trkpt lat="44.8663" lon="0.3545">
        <ele>25.2</ele>
        <time>2022-04-05T12:50:41Z</time>
      </trkpt>
      <trkpt lat="44.86629" lon="0.3545">
        <ele>25.2</ele>
        <time>2022-04-05T12:50:43Z</time>
      </trkpt>
      <trkpt lat="44.86628" lon="0.35451">
        <ele>25.2</ele>
        <time>2022-04-05T12:50:44Z</time>
      </trkpt>
      <trkpt lat="44.86626" lon="0.35452">
        <ele>25.2</ele>
        <time>2022-04-05T12:50:45Z</time>
      </trkpt>
      <trkpt lat="44.86625" lon="0.35452">
        <ele>25.2</ele>
        <time>2022-04-05T12:50:46Z</time>
      </trkpt>
      <trkpt lat="44.86623" lon="0.35453">
        <ele>25.2</ele>
        <time>2022-04-05T12:50:47Z</time>
      </trkpt>
      <trkpt lat="44.86622" lon="0.35453">
        <ele>25.2</ele>
        <time>2022-04-05T12:50:48Z</time>
      </trkpt>
      <trkpt lat="44.86621" lon="0.35453">
        <ele>25.2</ele>
        <time>2022-04-05T12:50:49Z</time>
      </trkpt>
      <trkpt lat="44.86619" lon="0.35454">
        <ele>25.2</ele>
        <time>2022-04-05T12:50:50Z</time>
      </trkpt>
      <trkpt lat="44.86618" lon="0.35454">
        <ele>25.2</ele>
        <time>2022-04-05T12:50:51Z</time>
      </trkpt>
      <trkpt lat="44.86616" lon="0.35455">
        <ele>25.2</ele>
        <time>2022-04-05T12:50:53Z</time>
      </trkpt>
      <trkpt lat="44.86615" lon="0.35456">
        <ele>25.2</ele>
        <time>2022-04-05T12:50:54Z</time>
      </trkpt>
      <trkpt lat="44.86613" lon="0.35457">
        <ele>25.2</ele>
        <time>2022-04-05T12:50:55Z</time>
      </trkpt>
      <trkpt lat="44.86612" lon="0.35457">
        <ele>25.2</ele>
        <time>2022-04-05T12:50:56Z</time>
      </trkpt>
      <trkpt lat="44.8661" lon="0.35459">
        <ele>25.2</ele>
        <time>2022-04-05T12:50:57Z</time>
      </trkpt>
      <trkpt lat="44.8661" lon="0.35459">
        <ele>25.2</ele>
        <time>2022-04-05T12:50:58Z</time>
      </trkpt>
      <trkpt lat="44.86609" lon="0.3546">
        <ele>25.2</ele>
        <time>2022-04-05T12:50:59Z</time>
      </trkpt>
      <trkpt lat="44.86607" lon="0.35461">
        <ele>25.2</ele>
        <time>2022-04-05T12:51:00Z</time>
      </trkpt>
      <trkpt lat="44.86606" lon="0.35462">
        <ele>25.2</ele>
        <time>2022-04-05T12:51:01Z</time>
      </trkpt>
      <trkpt lat="44.86605" lon="0.35462">
        <ele>25.2</ele>
        <time>2022-04-05T12:51:02Z</time>
      </trkpt>
      <trkpt lat="44.86604" lon="0.35463">
        <ele>25.2</ele>
        <time>2022-04-05T12:51:03Z</time>
      </trkpt>
      <trkpt lat="44.86603" lon="0.35464">
        <ele>25.2</ele>
        <time>2022-04-05T12:51:04Z</time>
      </trkpt>
      <trkpt lat="44.86601" lon="0.35465">
        <ele>25.2</ele>
        <time>2022-04-05T12:51:06Z</time>
      </trkpt>
      <trkpt lat="44.866" lon="0.35465">
        <ele>25.1</ele>
        <time>2022-04-05T12:51:07Z</time>
      </trkpt>
      <trkpt lat="44.86598" lon="0.35466">
        <ele>25.1</ele>
        <time>2022-04-05T12:51:08Z</time>
      </trkpt>
      <trkpt lat="44.86597" lon="0.35467">
        <ele>25.1</ele>
        <time>2022-04-05T12:51:09Z</time>
      </trkpt>
      <trkpt lat="44.86595" lon="0.35467">
        <ele>25.1</ele>
        <time>2022-04-05T12:51:10Z</time>
      </trkpt>
      <trkpt lat="44.86594" lon="0.35468">
        <ele>25.1</ele>
        <time>2022-04-05T12:51:11Z</time>
      </trkpt>
      <trkpt lat="44.86593" lon="0.35468">
        <ele>25.1</ele>
        <time>2022-04-05T12:51:12Z</time>
      </trkpt>
      <trkpt lat="44.86592" lon="0.35469">
        <ele>25.1</ele>
        <time>2022-04-05T12:51:13Z</time>
      </trkpt>
      <trkpt lat="44.86592" lon="0.35469">
        <ele>25.1</ele>
        <time>2022-04-05T12:51:14Z</time>
      </trkpt>
      <trkpt lat="44.86589" lon="0.35469">
        <ele>25.1</ele>
        <time>2022-04-05T12:51:15Z</time>
      </trkpt>
      <trkpt lat="44.86588" lon="0.35469">
        <ele>25.1</ele>
        <time>2022-04-05T12:51:16Z</time>
      </trkpt>
      <trkpt lat="44.86586" lon="0.3547">
        <ele>25</ele>
        <time>2022-04-05T12:51:17Z</time>
      </trkpt>
      <trkpt lat="44.86586" lon="0.3547">
        <ele>25</ele>
        <time>2022-04-05T12:51:18Z</time>
      </trkpt>
      <trkpt lat="44.86585" lon="0.3547">
        <ele>25</ele>
        <time>2022-04-05T12:51:19Z</time>
      </trkpt>
      <trkpt lat="44.86582" lon="0.3547">
        <ele>25</ele>
        <time>2022-04-05T12:51:20Z</time>
      </trkpt>
      <trkpt lat="44.86581" lon="0.3547">
        <ele>25</ele>
        <time>2022-04-05T12:51:21Z</time>
      </trkpt>
      <trkpt lat="44.86579" lon="0.3547">
        <ele>25</ele>
        <time>2022-04-05T12:51:22Z</time>
      </trkpt>
      <trkpt lat="44.86578" lon="0.35471">
        <ele>25</ele>
        <time>2022-04-05T12:51:23Z</time>
      </trkpt>
      <trkpt lat="44.86577" lon="0.35471">
        <ele>25</ele>
        <time>2022-04-05T12:51:24Z</time>
      </trkpt>
      <trkpt lat="44.86575" lon="0.35472">
        <ele>25</ele>
        <time>2022-04-05T12:51:25Z</time>
      </trkpt>
      <trkpt lat="44.86574" lon="0.35473">
        <ele>25</ele>
        <time>2022-04-05T12:51:26Z</time>
      </trkpt>
      <trkpt lat="44.86573" lon="0.35474">
        <ele>25</ele>
        <time>2022-04-05T12:51:27Z</time>
      </trkpt>
      <trkpt lat="44.86572" lon="0.35474">
        <ele>25</ele>
        <time>2022-04-05T12:51:28Z</time>
      </trkpt>
      <trkpt lat="44.8657" lon="0.35475">
        <ele>25</ele>
        <time>2022-04-05T12:51:29Z</time>
      </trkpt>
      <trkpt lat="44.86568" lon="0.35477">
        <ele>25</ele>
        <time>2022-04-05T12:51:31Z</time>
      </trkpt>
      <trkpt lat="44.86566" lon="0.35478">
        <ele>25</ele>
        <time>2022-04-05T12:51:32Z</time>
      </trkpt>
      <trkpt lat="44.86565" lon="0.35479">
        <ele>25</ele>
        <time>2022-04-05T12:51:33Z</time>
      </trkpt>
      <trkpt lat="44.86565" lon="0.35479">
        <ele>25</ele>
        <time>2022-04-05T12:51:34Z</time>
      </trkpt>
      <trkpt lat="44.86562" lon="0.35481">
        <ele>25</ele>
        <time>2022-04-05T12:51:35Z</time>
      </trkpt>
      <trkpt lat="44.86562" lon="0.35481">
        <ele>25</ele>
        <time>2022-04-05T12:51:36Z</time>
      </trkpt>
      <trkpt lat="44.86561" lon="0.35482">
        <ele>25</ele>
        <time>2022-04-05T12:51:37Z</time>
      </trkpt>
      <trkpt lat="44.8656" lon="0.35483">
        <ele>25</ele>
        <time>2022-04-05T12:51:38Z</time>
      </trkpt>
      <trkpt lat="44.86559" lon="0.35484">
        <ele>25</ele>
        <time>2022-04-05T12:51:39Z</time>
      </trkpt>
      <trkpt lat="44.86557" lon="0.35486">
        <ele>25</ele>
        <time>2022-04-05T12:51:40Z</time>
      </trkpt>
      <trkpt lat="44.86556" lon="0.35486">
        <ele>25</ele>
        <time>2022-04-05T12:51:41Z</time>
      </trkpt>
      <trkpt lat="44.86555" lon="0.35487">
        <ele>25</ele>
        <time>2022-04-05T12:51:42Z</time>
      </trkpt>
      <trkpt lat="44.86554" lon="0.35487">
        <ele>25</ele>
        <time>2022-04-05T12:51:43Z</time>
      </trkpt>
      <trkpt lat="44.86553" lon="0.35488">
        <ele>25</ele>
        <time>2022-04-05T12:51:44Z</time>
      </trkpt>
      <trkpt lat="44.86551" lon="0.3549">
        <ele>25</ele>
        <time>2022-04-05T12:51:45Z</time>
      </trkpt>
      <trkpt lat="44.8655" lon="0.3549">
        <ele>25</ele>
        <time>2022-04-05T12:51:46Z</time>
      </trkpt>
      <trkpt lat="44.86549" lon="0.35491">
        <ele>25</ele>
        <time>2022-04-05T12:51:47Z</time>
      </trkpt>
      <trkpt lat="44.86548" lon="0.35492">
        <ele>25</ele>
        <time>2022-04-05T12:51:48Z</time>
      </trkpt>
      <trkpt lat="44.86547" lon="0.35492">
        <ele>25</ele>
        <time>2022-04-05T12:51:49Z</time>
      </trkpt>
      <trkpt lat="44.86545" lon="0.35492">
        <ele>25</ele>
        <time>2022-04-05T12:51:51Z</time>
      </trkpt>
      <trkpt lat="44.86544" lon="0.35493">
        <ele>25</ele>
        <time>2022-04-05T12:51:52Z</time>
      </trkpt>
      <trkpt lat="44.86542" lon="0.35494">
        <ele>25</ele>
        <time>2022-04-05T12:51:53Z</time>
      </trkpt>
      <trkpt lat="44.86541" lon="0.35495">
        <ele>25</ele>
        <time>2022-04-05T12:51:54Z</time>
      </trkpt>
      <trkpt lat="44.8654" lon="0.35496">
        <ele>25</ele>
        <time>2022-04-05T12:51:55Z</time>
      </trkpt>
      <trkpt lat="44.86539" lon="0.35497">
        <ele>25</ele>
        <time>2022-04-05T12:51:56Z</time>
      </trkpt>
      <trkpt lat="44.86538" lon="0.35498">
        <ele>25</ele>
        <time>2022-04-05T12:51:57Z</time>
      </trkpt>
      <trkpt lat="44.86537" lon="0.35499">
        <ele>25</ele>
        <time>2022-04-05T12:51:58Z</time>
      </trkpt>
      <trkpt lat="44.86535" lon="0.35501">
        <ele>25.1</ele>
        <time>2022-04-05T12:51:59Z</time>
      </trkpt>
      <trkpt lat="44.86534" lon="0.35502">
        <ele>25.1</ele>
        <time>2022-04-05T12:52:01Z</time>
      </trkpt>
      <trkpt lat="44.86533" lon="0.35503">
        <ele>25.1</ele>
        <time>2022-04-05T12:52:02Z</time>
      </trkpt>
      <trkpt lat="44.86532" lon="0.35504">
        <ele>25.1</ele>
        <time>2022-04-05T12:52:03Z</time>
      </trkpt>
      <trkpt lat="44.86531" lon="0.35505">
        <ele>25.1</ele>
        <time>2022-04-05T12:52:04Z</time>
      </trkpt>
      <trkpt lat="44.86529" lon="0.35507">
        <ele>25.1</ele>
        <time>2022-04-05T12:52:05Z</time>
      </trkpt>
      <trkpt lat="44.86529" lon="0.35507">
        <ele>25.1</ele>
        <time>2022-04-05T12:52:06Z</time>
      </trkpt>
      <trkpt lat="44.86528" lon="0.35507">
        <ele>25.1</ele>
        <time>2022-04-05T12:52:07Z</time>
      </trkpt>
      <trkpt lat="44.86527" lon="0.35508">
        <ele>25.1</ele>
        <time>2022-04-05T12:52:08Z</time>
      </trkpt>
      <trkpt lat="44.86525" lon="0.35508">
        <ele>25.1</ele>
        <time>2022-04-05T12:52:09Z</time>
      </trkpt>
      <trkpt lat="44.86523" lon="0.35509">
        <ele>25.1</ele>
        <time>2022-04-05T12:52:11Z</time>
      </trkpt>
      <trkpt lat="44.86522" lon="0.3551">
        <ele>25.1</ele>
        <time>2022-04-05T12:52:12Z</time>
      </trkpt>
      <trkpt lat="44.8652" lon="0.3551">
        <ele>25.1</ele>
        <time>2022-04-05T12:52:13Z</time>
      </trkpt>
      <trkpt lat="44.86519" lon="0.35511">
        <ele>25.1</ele>
        <time>2022-04-05T12:52:14Z</time>
      </trkpt>
      <trkpt lat="44.86518" lon="0.35511">
        <ele>25.1</ele>
        <time>2022-04-05T12:52:15Z</time>
      </trkpt>
      <trkpt lat="44.86517" lon="0.35512">
        <ele>25.1</ele>
        <time>2022-04-05T12:52:16Z</time>
      </trkpt>
      <trkpt lat="44.86516" lon="0.35512">
        <ele>25.1</ele>
        <time>2022-04-05T12:52:17Z</time>
      </trkpt>
      <trkpt lat="44.86515" lon="0.35513">
        <ele>25.1</ele>
        <time>2022-04-05T12:52:18Z</time>
      </trkpt>
      <trkpt lat="44.86514" lon="0.35514">
        <ele>25.1</ele>
        <time>2022-04-05T12:52:19Z</time>
      </trkpt>
      <trkpt lat="44.86512" lon="0.35515">
        <ele>25.1</ele>
        <time>2022-04-05T12:52:20Z</time>
      </trkpt>
      <trkpt lat="44.8651" lon="0.35517">
        <ele>25.1</ele>
        <time>2022-04-05T12:52:22Z</time>
      </trkpt>
      <trkpt lat="44.8651" lon="0.35518">
        <ele>25.2</ele>
        <time>2022-04-05T12:52:23Z</time>
      </trkpt>
      <trkpt lat="44.86509" lon="0.35519">
        <ele>25.2</ele>
        <time>2022-04-05T12:52:24Z</time>
      </trkpt>
      <trkpt lat="44.86507" lon="0.35521">
        <ele>25.2</ele>
        <time>2022-04-05T12:52:25Z</time>
      </trkpt>
      <trkpt lat="44.86507" lon="0.35521">
        <ele>25.2</ele>
        <time>2022-04-05T12:52:26Z</time>
      </trkpt>
      <trkpt lat="44.86505" lon="0.35522">
        <ele>25.2</ele>
        <time>2022-04-05T12:52:28Z</time>
      </trkpt>
      <trkpt lat="44.86504" lon="0.35523">
        <ele>25.2</ele>
        <time>2022-04-05T12:52:29Z</time>
      </trkpt>
      <trkpt lat="44.86502" lon="0.35524">
        <ele>25.2</ele>
        <time>2022-04-05T12:52:30Z</time>
      </trkpt>
      <trkpt lat="44.86501" lon="0.35525">
        <ele>25.2</ele>
        <time>2022-04-05T12:52:31Z</time>
      </trkpt>
      <trkpt lat="44.865" lon="0.35525">
        <ele>25.2</ele>
        <time>2022-04-05T12:52:32Z</time>
      </trkpt>
      <trkpt lat="44.86499" lon="0.35526">
        <ele>25.3</ele>
        <time>2022-04-05T12:52:33Z</time>
      </trkpt>
      <trkpt lat="44.86498" lon="0.35527">
        <ele>25.3</ele>
        <time>2022-04-05T12:52:34Z</time>
      </trkpt>
      <trkpt lat="44.86496" lon="0.35528">
        <ele>25.3</ele>
        <time>2022-04-05T12:52:35Z</time>
      </trkpt>
      <trkpt lat="44.86495" lon="0.35528">
        <ele>25.3</ele>
        <time>2022-04-05T12:52:36Z</time>
      </trkpt>
      <trkpt lat="44.86494" lon="0.35528">
        <ele>25.3</ele>
        <time>2022-04-05T12:52:37Z</time>
      </trkpt>
      <trkpt lat="44.86493" lon="0.35529">
        <ele>25.3</ele>
        <time>2022-04-05T12:52:38Z</time>
      </trkpt>
      <trkpt lat="44.8649" lon="0.35531">
        <ele>25.3</ele>
        <time>2022-04-05T12:52:40Z</time>
      </trkpt>
      <trkpt lat="44.86488" lon="0.35532">
        <ele>25.3</ele>
        <time>2022-04-05T12:52:41Z</time>
      </trkpt>
      <trkpt lat="44.86487" lon="0.35532">
        <ele>25.4</ele>
        <time>2022-04-05T12:52:42Z</time>
      </trkpt>
      <trkpt lat="44.86486" lon="0.35533">
        <ele>25.4</ele>
        <time>2022-04-05T12:52:43Z</time>
      </trkpt>
      <trkpt lat="44.86484" lon="0.35535">
        <ele>25.4</ele>
        <time>2022-04-05T12:52:45Z</time>
      </trkpt>
      <trkpt lat="44.86483" lon="0.35537">
        <ele>25.4</ele>
        <time>2022-04-05T12:52:46Z</time>
      </trkpt>
      <trkpt lat="44.86482" lon="0.35538">
        <ele>25.4</ele>
        <time>2022-04-05T12:52:47Z</time>
      </trkpt>
      <trkpt lat="44.86481" lon="0.35539">
        <ele>25.4</ele>
        <time>2022-04-05T12:52:48Z</time>
      </trkpt>
      <trkpt lat="44.8648" lon="0.3554">
        <ele>25.4</ele>
        <time>2022-04-05T12:52:49Z</time>
      </trkpt>
      <trkpt lat="44.86478" lon="0.35541">
        <ele>25.4</ele>
        <time>2022-04-05T12:52:50Z</time>
      </trkpt>
      <trkpt lat="44.86478" lon="0.35542">
        <ele>25.4</ele>
        <time>2022-04-05T12:52:51Z</time>
      </trkpt>
      <trkpt lat="44.86476" lon="0.35543">
        <ele>25.4</ele>
        <time>2022-04-05T12:52:52Z</time>
      </trkpt>
      <trkpt lat="44.86475" lon="0.35544">
        <ele>25.4</ele>
        <time>2022-04-05T12:52:54Z</time>
      </trkpt>
      <trkpt lat="44.86474" lon="0.35544">
        <ele>25.4</ele>
        <time>2022-04-05T12:52:55Z</time>
      </trkpt>
      <trkpt lat="44.86472" lon="0.35546">
        <ele>25.4</ele>
        <time>2022-04-05T12:52:56Z</time>
      </trkpt>
      <trkpt lat="44.86471" lon="0.35546">
        <ele>25.4</ele>
        <time>2022-04-05T12:52:57Z</time>
      </trkpt>
      <trkpt lat="44.8647" lon="0.35547">
        <ele>25.4</ele>
        <time>2022-04-05T12:52:58Z</time>
      </trkpt>
      <trkpt lat="44.86469" lon="0.35547">
        <ele>25.4</ele>
        <time>2022-04-05T12:52:59Z</time>
      </trkpt>
      <trkpt lat="44.86468" lon="0.35548">
        <ele>25.4</ele>
        <time>2022-04-05T12:53:00Z</time>
      </trkpt>
      <trkpt lat="44.86466" lon="0.35548">
        <ele>25.4</ele>
        <time>2022-04-05T12:53:01Z</time>
      </trkpt>
      <trkpt lat="44.86465" lon="0.35549">
        <ele>25.4</ele>
        <time>2022-04-05T12:53:02Z</time>
      </trkpt>
      <trkpt lat="44.86464" lon="0.3555">
        <ele>25.4</ele>
        <time>2022-04-05T12:53:03Z</time>
      </trkpt>
      <trkpt lat="44.86463" lon="0.35551">
        <ele>25.4</ele>
        <time>2022-04-05T12:53:04Z</time>
      </trkpt>
      <trkpt lat="44.86462" lon="0.35551">
        <ele>25.4</ele>
        <time>2022-04-05T12:53:05Z</time>
      </trkpt>
      <trkpt lat="44.8646" lon="0.35552">
        <ele>25.4</ele>
        <time>2022-04-05T12:53:06Z</time>
      </trkpt>
      <trkpt lat="44.8646" lon="0.35553">
        <ele>25.4</ele>
        <time>2022-04-05T12:53:07Z</time>
      </trkpt>
      <trkpt lat="44.86457" lon="0.35555">
        <ele>25.5</ele>
        <time>2022-04-05T12:53:08Z</time>
      </trkpt>
      <trkpt lat="44.86456" lon="0.35556">
        <ele>25.5</ele>
        <time>2022-04-05T12:53:09Z</time>
      </trkpt>
      <trkpt lat="44.86455" lon="0.35557">
        <ele>25.5</ele>
        <time>2022-04-05T12:53:10Z</time>
      </trkpt>
      <trkpt lat="44.86454" lon="0.35557">
        <ele>25.5</ele>
        <time>2022-04-05T12:53:11Z</time>
      </trkpt>
      <trkpt lat="44.86453" lon="0.35558">
        <ele>25.5</ele>
        <time>2022-04-05T12:53:12Z</time>
      </trkpt>
      <trkpt lat="44.86452" lon="0.35558">
        <ele>25.5</ele>
        <time>2022-04-05T12:53:13Z</time>
      </trkpt>
      <trkpt lat="44.86452" lon="0.35559">
        <ele>25.5</ele>
        <time>2022-04-05T12:53:14Z</time>
      </trkpt>
      <trkpt lat="44.86449" lon="0.35561">
        <ele>25.6</ele>
        <time>2022-04-05T12:53:15Z</time>
      </trkpt>
      <trkpt lat="44.86449" lon="0.35561">
        <ele>25.6</ele>
        <time>2022-04-05T12:53:16Z</time>
      </trkpt>
      <trkpt lat="44.86448" lon="0.35562">
        <ele>25.6</ele>
        <time>2022-04-05T12:53:17Z</time>
      </trkpt>
      <trkpt lat="44.86448" lon="0.35563">
        <ele>25.6</ele>
        <time>2022-04-05T12:53:18Z</time>
      </trkpt>
      <trkpt lat="44.86447" lon="0.35564">
        <ele>25.6</ele>
        <time>2022-04-05T12:53:20Z</time>
      </trkpt>
      <trkpt lat="44.86445" lon="0.35566">
        <ele>25.6</ele>
        <time>2022-04-05T12:53:21Z</time>
      </trkpt>
      <trkpt lat="44.86445" lon="0.35567">
        <ele>25.6</ele>
        <time>2022-04-05T12:53:22Z</time>
      </trkpt>
      <trkpt lat="44.86444" lon="0.3557">
        <ele>25.7</ele>
        <time>2022-04-05T12:53:23Z</time>
      </trkpt>
      <trkpt lat="44.86444" lon="0.35571">
        <ele>25.8</ele>
        <time>2022-04-05T12:53:24Z</time>
      </trkpt>
      <trkpt lat="44.86444" lon="0.35573">
        <ele>25.8</ele>
        <time>2022-04-05T12:53:25Z</time>
      </trkpt>
      <trkpt lat="44.86443" lon="0.35576">
        <ele>25.8</ele>
        <time>2022-04-05T12:53:26Z</time>
      </trkpt>
      <trkpt lat="44.86444" lon="0.35577">
        <ele>25.8</ele>
        <time>2022-04-05T12:53:27Z</time>
      </trkpt>
      <trkpt lat="44.86444" lon="0.35579">
        <ele>25.8</ele>
        <time>2022-04-05T12:53:28Z</time>
      </trkpt>
      <trkpt lat="44.86445" lon="0.35581">
        <ele>25.8</ele>
        <time>2022-04-05T12:53:29Z</time>
      </trkpt>
      <trkpt lat="44.86445" lon="0.35584">
        <ele>25.8</ele>
        <time>2022-04-05T12:53:31Z</time>
      </trkpt>
      <trkpt lat="44.86446" lon="0.35585">
        <ele>25.8</ele>
        <time>2022-04-05T12:53:32Z</time>
      </trkpt>
      <trkpt lat="44.86447" lon="0.35586">
        <ele>25.8</ele>
        <time>2022-04-05T12:53:33Z</time>
      </trkpt>
      <trkpt lat="44.86448" lon="0.35588">
        <ele>25.7</ele>
        <time>2022-04-05T12:53:34Z</time>
      </trkpt>
      <trkpt lat="44.86449" lon="0.35589">
        <ele>25.7</ele>
        <time>2022-04-05T12:53:35Z</time>
      </trkpt>
      <trkpt lat="44.8645" lon="0.35591">
        <ele>25.7</ele>
        <time>2022-04-05T12:53:36Z</time>
      </trkpt>
      <trkpt lat="44.8645" lon="0.35593">
        <ele>25.7</ele>
        <time>2022-04-05T12:53:37Z</time>
      </trkpt>
      <trkpt lat="44.86451" lon="0.35595">
        <ele>25.7</ele>
        <time>2022-04-05T12:53:38Z</time>
      </trkpt>
      <trkpt lat="44.86451" lon="0.35596">
        <ele>25.7</ele>
        <time>2022-04-05T12:53:39Z</time>
      </trkpt>
      <trkpt lat="44.86452" lon="0.35601">
        <ele>25.7</ele>
        <time>2022-04-05T12:53:41Z</time>
      </trkpt>
      <trkpt lat="44.86452" lon="0.35601">
        <ele>25.7</ele>
        <time>2022-04-05T12:53:42Z</time>
      </trkpt>
      <trkpt lat="44.86452" lon="0.35603">
        <ele>25.7</ele>
        <time>2022-04-05T12:53:43Z</time>
      </trkpt>
      <trkpt lat="44.86452" lon="0.35605">
        <ele>25.7</ele>
        <time>2022-04-05T12:53:44Z</time>
      </trkpt>
      <trkpt lat="44.86452" lon="0.35607">
        <ele>25.7</ele>
        <time>2022-04-05T12:53:45Z</time>
      </trkpt>
      <trkpt lat="44.86453" lon="0.35609">
        <ele>25.7</ele>
        <time>2022-04-05T12:53:46Z</time>
      </trkpt>
      <trkpt lat="44.86453" lon="0.3561">
        <ele>25.7</ele>
        <time>2022-04-05T12:53:47Z</time>
      </trkpt>
      <trkpt lat="44.86454" lon="0.35612">
        <ele>25.7</ele>
        <time>2022-04-05T12:53:48Z</time>
      </trkpt>
      <trkpt lat="44.86454" lon="0.35614">
        <ele>25.7</ele>
        <time>2022-04-05T12:53:49Z</time>
      </trkpt>
      <trkpt lat="44.86455" lon="0.35616">
        <ele>25.7</ele>
        <time>2022-04-05T12:53:50Z</time>
      </trkpt>
      <trkpt lat="44.86455" lon="0.35618">
        <ele>25.7</ele>
        <time>2022-04-05T12:53:51Z</time>
      </trkpt>
      <trkpt lat="44.86456" lon="0.35619">
        <ele>25.7</ele>
        <time>2022-04-05T12:53:52Z</time>
      </trkpt>
      <trkpt lat="44.86456" lon="0.35621">
        <ele>25.7</ele>
        <time>2022-04-05T12:53:53Z</time>
      </trkpt>
      <trkpt lat="44.86457" lon="0.35622">
        <ele>25.7</ele>
        <time>2022-04-05T12:53:54Z</time>
      </trkpt>
      <trkpt lat="44.86457" lon="0.35624">
        <ele>25.7</ele>
        <time>2022-04-05T12:53:55Z</time>
      </trkpt>
      <trkpt lat="44.86458" lon="0.35626">
        <ele>25.7</ele>
        <time>2022-04-05T12:53:56Z</time>
      </trkpt>
      <trkpt lat="44.86458" lon="0.35627">
        <ele>25.7</ele>
        <time>2022-04-05T12:53:57Z</time>
      </trkpt>
      <trkpt lat="44.86458" lon="0.35629">
        <ele>25.7</ele>
        <time>2022-04-05T12:53:58Z</time>
      </trkpt>
      <trkpt lat="44.86459" lon="0.35631">
        <ele>25.7</ele>
        <time>2022-04-05T12:53:59Z</time>
      </trkpt>
      <trkpt lat="44.8646" lon="0.35634">
        <ele>25.7</ele>
        <time>2022-04-05T12:54:00Z</time>
      </trkpt>
      <trkpt lat="44.8646" lon="0.35635">
        <ele>25.7</ele>
        <time>2022-04-05T12:54:01Z</time>
      </trkpt>
      <trkpt lat="44.8646" lon="0.35637">
        <ele>25.7</ele>
        <time>2022-04-05T12:54:02Z</time>
      </trkpt>
      <trkpt lat="44.86461" lon="0.35638">
        <ele>25.7</ele>
        <time>2022-04-05T12:54:04Z</time>
      </trkpt>
      <trkpt lat="44.86461" lon="0.3564">
        <ele>25.7</ele>
        <time>2022-04-05T12:54:05Z</time>
      </trkpt>
      <trkpt lat="44.86462" lon="0.35643">
        <ele>25.7</ele>
        <time>2022-04-05T12:54:06Z</time>
      </trkpt>
      <trkpt lat="44.86462" lon="0.35643">
        <ele>25.7</ele>
        <time>2022-04-05T12:54:07Z</time>
      </trkpt>
      <trkpt lat="44.86462" lon="0.35644">
        <ele>25.7</ele>
        <time>2022-04-05T12:54:08Z</time>
      </trkpt>
      <trkpt lat="44.86463" lon="0.35646">
        <ele>25.7</ele>
        <time>2022-04-05T12:54:09Z</time>
      </trkpt>
      <trkpt lat="44.86463" lon="0.35648">
        <ele>25.7</ele>
        <time>2022-04-05T12:54:10Z</time>
      </trkpt>
      <trkpt lat="44.86464" lon="0.3565">
        <ele>25.7</ele>
        <time>2022-04-05T12:54:11Z</time>
      </trkpt>
      <trkpt lat="44.86464" lon="0.35652">
        <ele>25.7</ele>
        <time>2022-04-05T12:54:12Z</time>
      </trkpt>
      <trkpt lat="44.86465" lon="0.35653">
        <ele>25.7</ele>
        <time>2022-04-05T12:54:13Z</time>
      </trkpt>
      <trkpt lat="44.86466" lon="0.35656">
        <ele>25.7</ele>
        <time>2022-04-05T12:54:15Z</time>
      </trkpt>
      <trkpt lat="44.86466" lon="0.35659">
        <ele>25.7</ele>
        <time>2022-04-05T12:54:16Z</time>
      </trkpt>
      <trkpt lat="44.86467" lon="0.35659">
        <ele>25.7</ele>
        <time>2022-04-05T12:54:17Z</time>
      </trkpt>
      <trkpt lat="44.86467" lon="0.35661">
        <ele>25.7</ele>
        <time>2022-04-05T12:54:18Z</time>
      </trkpt>
      <trkpt lat="44.86468" lon="0.35663">
        <ele>25.7</ele>
        <time>2022-04-05T12:54:19Z</time>
      </trkpt>
      <trkpt lat="44.86468" lon="0.35665">
        <ele>25.7</ele>
        <time>2022-04-05T12:54:20Z</time>
      </trkpt>
      <trkpt lat="44.86469" lon="0.35667">
        <ele>25.7</ele>
        <time>2022-04-05T12:54:21Z</time>
      </trkpt>
      <trkpt lat="44.86469" lon="0.35668">
        <ele>25.7</ele>
        <time>2022-04-05T12:54:22Z</time>
      </trkpt>
      <trkpt lat="44.86469" lon="0.35669">
        <ele>25.7</ele>
        <time>2022-04-05T12:54:23Z</time>
      </trkpt>
      <trkpt lat="44.86469" lon="0.35671">
        <ele>25.7</ele>
        <time>2022-04-05T12:54:24Z</time>
      </trkpt>
      <trkpt lat="44.8647" lon="0.35673">
        <ele>25.7</ele>
        <time>2022-04-05T12:54:25Z</time>
      </trkpt>
      <trkpt lat="44.86471" lon="0.35675">
        <ele>25.8</ele>
        <time>2022-04-05T12:54:26Z</time>
      </trkpt>
      <trkpt lat="44.86472" lon="0.35678">
        <ele>25.8</ele>
        <time>2022-04-05T12:54:27Z</time>
      </trkpt>
      <trkpt lat="44.86472" lon="0.35679">
        <ele>25.8</ele>
        <time>2022-04-05T12:54:28Z</time>
      </trkpt>
      <trkpt lat="44.86472" lon="0.3568">
        <ele>25.8</ele>
        <time>2022-04-05T12:54:29Z</time>
      </trkpt>
      <trkpt lat="44.86473" lon="0.35683">
        <ele>25.8</ele>
        <time>2022-04-05T12:54:30Z</time>
      </trkpt>
      <trkpt lat="44.86474" lon="0.35684">
        <ele>25.8</ele>
        <time>2022-04-05T12:54:32Z</time>
      </trkpt>
      <trkpt lat="44.86474" lon="0.35685">
        <ele>25.8</ele>
        <time>2022-04-05T12:54:33Z</time>
      </trkpt>
      <trkpt lat="44.86474" lon="0.35687">
        <ele>25.8</ele>
        <time>2022-04-05T12:54:34Z</time>
      </trkpt>
      <trkpt lat="44.86475" lon="0.35688">
        <ele>25.8</ele>
        <time>2022-04-05T12:54:35Z</time>
      </trkpt>
      <trkpt lat="44.86475" lon="0.35691">
        <ele>25.8</ele>
        <time>2022-04-05T12:54:36Z</time>
      </trkpt>
      <trkpt lat="44.86475" lon="0.35692">
        <ele>25.8</ele>
        <time>2022-04-05T12:54:37Z</time>
      </trkpt>
      <trkpt lat="44.86476" lon="0.35695">
        <ele>25.8</ele>
        <time>2022-04-05T12:54:38Z</time>
      </trkpt>
      <trkpt lat="44.86476" lon="0.35696">
        <ele>25.8</ele>
        <time>2022-04-05T12:54:39Z</time>
      </trkpt>
      <trkpt lat="44.86476" lon="0.35697">
        <ele>25.8</ele>
        <time>2022-04-05T12:54:40Z</time>
      </trkpt>
      <trkpt lat="44.86477" lon="0.357">
        <ele>25.8</ele>
        <time>2022-04-05T12:54:41Z</time>
      </trkpt>
      <trkpt lat="44.86478" lon="0.35701">
        <ele>25.8</ele>
        <time>2022-04-05T12:54:42Z</time>
      </trkpt>
      <trkpt lat="44.86478" lon="0.35703">
        <ele>25.8</ele>
        <time>2022-04-05T12:54:43Z</time>
      </trkpt>
      <trkpt lat="44.86479" lon="0.35705">
        <ele>25.8</ele>
        <time>2022-04-05T12:54:44Z</time>
      </trkpt>
      <trkpt lat="44.8648" lon="0.35708">
        <ele>25.8</ele>
        <time>2022-04-05T12:54:45Z</time>
      </trkpt>
      <trkpt lat="44.8648" lon="0.35709">
        <ele>25.8</ele>
        <time>2022-04-05T12:54:47Z</time>
      </trkpt>
      <trkpt lat="44.8648" lon="0.35711">
        <ele>25.8</ele>
        <time>2022-04-05T12:54:48Z</time>
      </trkpt>
      <trkpt lat="44.86481" lon="0.35712">
        <ele>25.8</ele>
        <time>2022-04-05T12:54:49Z</time>
      </trkpt>
      <trkpt lat="44.86481" lon="0.35714">
        <ele>25.8</ele>
        <time>2022-04-05T12:54:50Z</time>
      </trkpt>
      <trkpt lat="44.86482" lon="0.35716">
        <ele>25.8</ele>
        <time>2022-04-05T12:54:51Z</time>
      </trkpt>
      <trkpt lat="44.86482" lon="0.35717">
        <ele>25.8</ele>
        <time>2022-04-05T12:54:52Z</time>
      </trkpt>
      <trkpt lat="44.86483" lon="0.35719">
        <ele>25.8</ele>
        <time>2022-04-05T12:54:53Z</time>
      </trkpt>
      <trkpt lat="44.86483" lon="0.35721">
        <ele>25.8</ele>
        <time>2022-04-05T12:54:54Z</time>
      </trkpt>
      <trkpt lat="44.86484" lon="0.35724">
        <ele>25.8</ele>
        <time>2022-04-05T12:54:56Z</time>
      </trkpt>
      <trkpt lat="44.86485" lon="0.35725">
        <ele>25.8</ele>
        <time>2022-04-05T12:54:57Z</time>
      </trkpt>
      <trkpt lat="44.86485" lon="0.35728">
        <ele>25.8</ele>
        <time>2022-04-05T12:54:58Z</time>
      </trkpt>
      <trkpt lat="44.86486" lon="0.35729">
        <ele>25.8</ele>
        <time>2022-04-05T12:54:59Z</time>
      </trkpt>
      <trkpt lat="44.86486" lon="0.3573">
        <ele>25.8</ele>
        <time>2022-04-05T12:55:00Z</time>
      </trkpt>
      <trkpt lat="44.86487" lon="0.35733">
        <ele>25.8</ele>
        <time>2022-04-05T12:55:01Z</time>
      </trkpt>
      <trkpt lat="44.86487" lon="0.35734">
        <ele>25.8</ele>
        <time>2022-04-05T12:55:02Z</time>
      </trkpt>
      <trkpt lat="44.86488" lon="0.35737">
        <ele>25.8</ele>
        <time>2022-04-05T12:55:03Z</time>
      </trkpt>
      <trkpt lat="44.86489" lon="0.35738">
        <ele>25.8</ele>
        <time>2022-04-05T12:55:04Z</time>
      </trkpt>
      <trkpt lat="44.86489" lon="0.35739">
        <ele>25.8</ele>
        <time>2022-04-05T12:55:05Z</time>
      </trkpt>
      <trkpt lat="44.8649" lon="0.35741">
        <ele>25.8</ele>
        <time>2022-04-05T12:55:06Z</time>
      </trkpt>
      <trkpt lat="44.8649" lon="0.35742">
        <ele>25.8</ele>
        <time>2022-04-05T12:55:07Z</time>
      </trkpt>
      <trkpt lat="44.86491" lon="0.35744">
        <ele>25.8</ele>
        <time>2022-04-05T12:55:09Z</time>
      </trkpt>
      <trkpt lat="44.86491" lon="0.35746">
        <ele>25.8</ele>
        <time>2022-04-05T12:55:10Z</time>
      </trkpt>
      <trkpt lat="44.86492" lon="0.35749">
        <ele>25.8</ele>
        <time>2022-04-05T12:55:11Z</time>
      </trkpt>
      <trkpt lat="44.86493" lon="0.3575">
        <ele>25.8</ele>
        <time>2022-04-05T12:55:12Z</time>
      </trkpt>
      <trkpt lat="44.86494" lon="0.35752">
        <ele>25.8</ele>
        <time>2022-04-05T12:55:13Z</time>
      </trkpt>
      <trkpt lat="44.86494" lon="0.35754">
        <ele>25.8</ele>
        <time>2022-04-05T12:55:14Z</time>
      </trkpt>
      <trkpt lat="44.86494" lon="0.35755">
        <ele>25.8</ele>
        <time>2022-04-05T12:55:15Z</time>
      </trkpt>
      <trkpt lat="44.86495" lon="0.35759">
        <ele>25.8</ele>
        <time>2022-04-05T12:55:16Z</time>
      </trkpt>
      <trkpt lat="44.86496" lon="0.35761">
        <ele>25.8</ele>
        <time>2022-04-05T12:55:18Z</time>
      </trkpt>
      <trkpt lat="44.86496" lon="0.35762">
        <ele>25.8</ele>
        <time>2022-04-05T12:55:19Z</time>
      </trkpt>
      <trkpt lat="44.86497" lon="0.35764">
        <ele>25.8</ele>
        <time>2022-04-05T12:55:20Z</time>
      </trkpt>
      <trkpt lat="44.86497" lon="0.35765">
        <ele>25.8</ele>
        <time>2022-04-05T12:55:21Z</time>
      </trkpt>
      <trkpt lat="44.86497" lon="0.35767">
        <ele>25.8</ele>
        <time>2022-04-05T12:55:22Z</time>
      </trkpt>
      <trkpt lat="44.86498" lon="0.35768">
        <ele>25.8</ele>
        <time>2022-04-05T12:55:23Z</time>
      </trkpt>
      <trkpt lat="44.86498" lon="0.35769">
        <ele>25.8</ele>
        <time>2022-04-05T12:55:24Z</time>
      </trkpt>
      <trkpt lat="44.86498" lon="0.35771">
        <ele>25.8</ele>
        <time>2022-04-05T12:55:25Z</time>
      </trkpt>
      <trkpt lat="44.865" lon="0.35773">
        <ele>25.8</ele>
        <time>2022-04-05T12:55:26Z</time>
      </trkpt>
      <trkpt lat="44.865" lon="0.35774">
        <ele>25.8</ele>
        <time>2022-04-05T12:55:27Z</time>
      </trkpt>
      <trkpt lat="44.865" lon="0.35775">
        <ele>25.8</ele>
        <time>2022-04-05T12:55:28Z</time>
      </trkpt>
      <trkpt lat="44.86501" lon="0.35777">
        <ele>25.8</ele>
        <time>2022-04-05T12:55:30Z</time>
      </trkpt>
      <trkpt lat="44.86502" lon="0.3578">
        <ele>25.7</ele>
        <time>2022-04-05T12:55:31Z</time>
      </trkpt>
      <trkpt lat="44.86502" lon="0.3578">
        <ele>25.7</ele>
        <time>2022-04-05T12:55:32Z</time>
      </trkpt>
      <trkpt lat="44.86503" lon="0.35782">
        <ele>25.7</ele>
        <time>2022-04-05T12:55:33Z</time>
      </trkpt>
      <trkpt lat="44.86503" lon="0.35783">
        <ele>25.7</ele>
        <time>2022-04-05T12:55:34Z</time>
      </trkpt>
      <trkpt lat="44.86504" lon="0.35784">
        <ele>25.7</ele>
        <time>2022-04-05T12:55:35Z</time>
      </trkpt>
      <trkpt lat="44.86505" lon="0.35787">
        <ele>25.7</ele>
        <time>2022-04-05T12:55:36Z</time>
      </trkpt>
      <trkpt lat="44.86505" lon="0.35787">
        <ele>25.7</ele>
        <time>2022-04-05T12:55:37Z</time>
      </trkpt>
      <trkpt lat="44.86505" lon="0.35786">
        <ele>25.7</ele>
        <time>2022-04-05T12:55:38Z</time>
      </trkpt>
      <trkpt lat="44.86505" lon="0.35787">
        <ele>25.7</ele>
        <time>2022-04-05T12:55:39Z</time>
      </trkpt>
      <trkpt lat="44.86505" lon="0.35788">
        <ele>25.7</ele>
        <time>2022-04-05T12:55:40Z</time>
      </trkpt>
      <trkpt lat="44.86506" lon="0.35791">
        <ele>25.7</ele>
        <time>2022-04-05T12:55:41Z</time>
      </trkpt>
      <trkpt lat="44.86506" lon="0.35792">
        <ele>25.7</ele>
        <time>2022-04-05T12:55:42Z</time>
      </trkpt>
      <trkpt lat="44.86507" lon="0.35794">
        <ele>25.7</ele>
        <time>2022-04-05T12:55:43Z</time>
      </trkpt>
      <trkpt lat="44.86507" lon="0.35795">
        <ele>25.7</ele>
        <time>2022-04-05T12:55:44Z</time>
      </trkpt>
      <trkpt lat="44.86507" lon="0.35796">
        <ele>25.7</ele>
        <time>2022-04-05T12:55:45Z</time>
      </trkpt>
      <trkpt lat="44.86508" lon="0.35799">
        <ele>25.7</ele>
        <time>2022-04-05T12:55:46Z</time>
      </trkpt>
      <trkpt lat="44.86508" lon="0.358">
        <ele>25.7</ele>
        <time>2022-04-05T12:55:47Z</time>
      </trkpt>
      <trkpt lat="44.86509" lon="0.35801">
        <ele>25.7</ele>
        <time>2022-04-05T12:55:49Z</time>
      </trkpt>
      <trkpt lat="44.8651" lon="0.35803">
        <ele>25.7</ele>
        <time>2022-04-05T12:55:50Z</time>
      </trkpt>
      <trkpt lat="44.86511" lon="0.35806">
        <ele>25.7</ele>
        <time>2022-04-05T12:55:51Z</time>
      </trkpt>
      <trkpt lat="44.86512" lon="0.35806">
        <ele>25.7</ele>
        <time>2022-04-05T12:55:52Z</time>
      </trkpt>
      <trkpt lat="44.86513" lon="0.35809">
        <ele>25.7</ele>
        <time>2022-04-05T12:55:53Z</time>
      </trkpt>
      <trkpt lat="44.86513" lon="0.3581">
        <ele>25.7</ele>
        <time>2022-04-05T12:55:54Z</time>
      </trkpt>
      <trkpt lat="44.86513" lon="0.35811">
        <ele>25.7</ele>
        <time>2022-04-05T12:55:55Z</time>
      </trkpt>
      <trkpt lat="44.86514" lon="0.35814">
        <ele>25.8</ele>
        <time>2022-04-05T12:55:56Z</time>
      </trkpt>
      <trkpt lat="44.86514" lon="0.35815">
        <ele>25.8</ele>
        <time>2022-04-05T12:55:57Z</time>
      </trkpt>
      <trkpt lat="44.86516" lon="0.35817">
        <ele>25.8</ele>
        <time>2022-04-05T12:55:58Z</time>
      </trkpt>
      <trkpt lat="44.86516" lon="0.35819">
        <ele>25.8</ele>
        <time>2022-04-05T12:55:59Z</time>
      </trkpt>
      <trkpt lat="44.86517" lon="0.3582">
        <ele>25.8</ele>
        <time>2022-04-05T12:56:00Z</time>
      </trkpt>
      <trkpt lat="44.86518" lon="0.35821">
        <ele>25.8</ele>
        <time>2022-04-05T12:56:01Z</time>
      </trkpt>
      <trkpt lat="44.86518" lon="0.35823">
        <ele>25.8</ele>
        <time>2022-04-05T12:56:02Z</time>
      </trkpt>
      <trkpt lat="44.86519" lon="0.35824">
        <ele>25.8</ele>
        <time>2022-04-05T12:56:04Z</time>
      </trkpt>
      <trkpt lat="44.8652" lon="0.35825">
        <ele>25.8</ele>
        <time>2022-04-05T12:56:05Z</time>
      </trkpt>
      <trkpt lat="44.86522" lon="0.35828">
        <ele>25.8</ele>
        <time>2022-04-05T12:56:06Z</time>
      </trkpt>
      <trkpt lat="44.86523" lon="0.35828">
        <ele>25.8</ele>
        <time>2022-04-05T12:56:07Z</time>
      </trkpt>
      <trkpt lat="44.86525" lon="0.3583">
        <ele>25.8</ele>
        <time>2022-04-05T12:56:09Z</time>
      </trkpt>
      <trkpt lat="44.86526" lon="0.35831">
        <ele>25.8</ele>
        <time>2022-04-05T12:56:10Z</time>
      </trkpt>
      <trkpt lat="44.86526" lon="0.35832">
        <ele>25.8</ele>
        <time>2022-04-05T12:56:11Z</time>
      </trkpt>
      <trkpt lat="44.86527" lon="0.35833">
        <ele>25.8</ele>
        <time>2022-04-05T12:56:12Z</time>
      </trkpt>
      <trkpt lat="44.86527" lon="0.35834">
        <ele>25.8</ele>
        <time>2022-04-05T12:56:13Z</time>
      </trkpt>
      <trkpt lat="44.86528" lon="0.35836">
        <ele>25.8</ele>
        <time>2022-04-05T12:56:14Z</time>
      </trkpt>
      <trkpt lat="44.86528" lon="0.35837">
        <ele>25.8</ele>
        <time>2022-04-05T12:56:15Z</time>
      </trkpt>
      <trkpt lat="44.8653" lon="0.35838">
        <ele>25.8</ele>
        <time>2022-04-05T12:56:17Z</time>
      </trkpt>
      <trkpt lat="44.86531" lon="0.35839">
        <ele>25.8</ele>
        <time>2022-04-05T12:56:18Z</time>
      </trkpt>
      <trkpt lat="44.86533" lon="0.3584">
        <ele>25.8</ele>
        <time>2022-04-05T12:56:19Z</time>
      </trkpt>
      <trkpt lat="44.86533" lon="0.35842">
        <ele>25.8</ele>
        <time>2022-04-05T12:56:20Z</time>
      </trkpt>
      <trkpt lat="44.86534" lon="0.35843">
        <ele>25.8</ele>
        <time>2022-04-05T12:56:21Z</time>
      </trkpt>
      <trkpt lat="44.86534" lon="0.35843">
        <ele>25.9</ele>
        <time>2022-04-05T12:56:22Z</time>
      </trkpt>
      <trkpt lat="44.86535" lon="0.35844">
        <ele>25.9</ele>
        <time>2022-04-05T12:56:23Z</time>
      </trkpt>
      <trkpt lat="44.86536" lon="0.35846">
        <ele>25.9</ele>
        <time>2022-04-05T12:56:24Z</time>
      </trkpt>
      <trkpt lat="44.86537" lon="0.35847">
        <ele>25.9</ele>
        <time>2022-04-05T12:56:25Z</time>
      </trkpt>
      <trkpt lat="44.86538" lon="0.35849">
        <ele>25.9</ele>
        <time>2022-04-05T12:56:26Z</time>
      </trkpt>
      <trkpt lat="44.86539" lon="0.35849">
        <ele>25.9</ele>
        <time>2022-04-05T12:56:28Z</time>
      </trkpt>
      <trkpt lat="44.8654" lon="0.3585">
        <ele>25.9</ele>
        <time>2022-04-05T12:56:29Z</time>
      </trkpt>
      <trkpt lat="44.8654" lon="0.35852">
        <ele>25.9</ele>
        <time>2022-04-05T12:56:30Z</time>
      </trkpt>
      <trkpt lat="44.86542" lon="0.35854">
        <ele>25.9</ele>
        <time>2022-04-05T12:56:31Z</time>
      </trkpt>
      <trkpt lat="44.86543" lon="0.35856">
        <ele>25.9</ele>
        <time>2022-04-05T12:56:32Z</time>
      </trkpt>
      <trkpt lat="44.86544" lon="0.35858">
        <ele>25.9</ele>
        <time>2022-04-05T12:56:34Z</time>
      </trkpt>
      <trkpt lat="44.86545" lon="0.35859">
        <ele>25.9</ele>
        <time>2022-04-05T12:56:35Z</time>
      </trkpt>
      <trkpt lat="44.86545" lon="0.3586">
        <ele>25.9</ele>
        <time>2022-04-05T12:56:36Z</time>
      </trkpt>
      <trkpt lat="44.86547" lon="0.35861">
        <ele>25.9</ele>
        <time>2022-04-05T12:56:37Z</time>
      </trkpt>
      <trkpt lat="44.86547" lon="0.35862">
        <ele>25.9</ele>
        <time>2022-04-05T12:56:38Z</time>
      </trkpt>
      <trkpt lat="44.86548" lon="0.35863">
        <ele>25.9</ele>
        <time>2022-04-05T12:56:39Z</time>
      </trkpt>
      <trkpt lat="44.86549" lon="0.35864">
        <ele>25.9</ele>
        <time>2022-04-05T12:56:40Z</time>
      </trkpt>
      <trkpt lat="44.8655" lon="0.35866">
        <ele>25.9</ele>
        <time>2022-04-05T12:56:41Z</time>
      </trkpt>
      <trkpt lat="44.86551" lon="0.35867">
        <ele>25.9</ele>
        <time>2022-04-05T12:56:42Z</time>
      </trkpt>
      <trkpt lat="44.86551" lon="0.35868">
        <ele>25.9</ele>
        <time>2022-04-05T12:56:43Z</time>
      </trkpt>
      <trkpt lat="44.86551" lon="0.35869">
        <ele>25.9</ele>
        <time>2022-04-05T12:56:44Z</time>
      </trkpt>
      <trkpt lat="44.86552" lon="0.35871">
        <ele>25.9</ele>
        <time>2022-04-05T12:56:45Z</time>
      </trkpt>
      <trkpt lat="44.86553" lon="0.35874">
        <ele>25.9</ele>
        <time>2022-04-05T12:56:46Z</time>
      </trkpt>
      <trkpt lat="44.86553" lon="0.35875">
        <ele>25.9</ele>
        <time>2022-04-05T12:56:47Z</time>
      </trkpt>
      <trkpt lat="44.86554" lon="0.35876">
        <ele>25.9</ele>
        <time>2022-04-05T12:56:48Z</time>
      </trkpt>
      <trkpt lat="44.86554" lon="0.35878">
        <ele>25.9</ele>
        <time>2022-04-05T12:56:49Z</time>
      </trkpt>
      <trkpt lat="44.86555" lon="0.35879">
        <ele>25.9</ele>
        <time>2022-04-05T12:56:50Z</time>
      </trkpt>
      <trkpt lat="44.86555" lon="0.35881">
        <ele>25.9</ele>
        <time>2022-04-05T12:56:51Z</time>
      </trkpt>
      <trkpt lat="44.86556" lon="0.35882">
        <ele>25.9</ele>
        <time>2022-04-05T12:56:53Z</time>
      </trkpt>
      <trkpt lat="44.86556" lon="0.35884">
        <ele>25.9</ele>
        <time>2022-04-05T12:56:54Z</time>
      </trkpt>
      <trkpt lat="44.86557" lon="0.35886">
        <ele>25.9</ele>
        <time>2022-04-05T12:56:55Z</time>
      </trkpt>
      <trkpt lat="44.86558" lon="0.35888">
        <ele>25.9</ele>
        <time>2022-04-05T12:56:56Z</time>
      </trkpt>
      <trkpt lat="44.86558" lon="0.35889">
        <ele>25.9</ele>
        <time>2022-04-05T12:56:57Z</time>
      </trkpt>
      <trkpt lat="44.86559" lon="0.3589">
        <ele>25.9</ele>
        <time>2022-04-05T12:56:58Z</time>
      </trkpt>
      <trkpt lat="44.8656" lon="0.35892">
        <ele>25.9</ele>
        <time>2022-04-05T12:57:00Z</time>
      </trkpt>
      <trkpt lat="44.86561" lon="0.35895">
        <ele>25.9</ele>
        <time>2022-04-05T12:57:01Z</time>
      </trkpt>
      <trkpt lat="44.86562" lon="0.35896">
        <ele>25.9</ele>
        <time>2022-04-05T12:57:02Z</time>
      </trkpt>
      <trkpt lat="44.86562" lon="0.35897">
        <ele>25.9</ele>
        <time>2022-04-05T12:57:03Z</time>
      </trkpt>
      <trkpt lat="44.86563" lon="0.35899">
        <ele>25.9</ele>
        <time>2022-04-05T12:57:04Z</time>
      </trkpt>
      <trkpt lat="44.86564" lon="0.359">
        <ele>25.9</ele>
        <time>2022-04-05T12:57:05Z</time>
      </trkpt>
      <trkpt lat="44.86564" lon="0.35902">
        <ele>25.9</ele>
        <time>2022-04-05T12:57:06Z</time>
      </trkpt>
      <trkpt lat="44.86565" lon="0.35903">
        <ele>25.9</ele>
        <time>2022-04-05T12:57:07Z</time>
      </trkpt>
      <trkpt lat="44.86565" lon="0.35905">
        <ele>25.9</ele>
        <time>2022-04-05T12:57:09Z</time>
      </trkpt>
      <trkpt lat="44.86566" lon="0.35907">
        <ele>25.9</ele>
        <time>2022-04-05T12:57:10Z</time>
      </trkpt>
      <trkpt lat="44.86566" lon="0.35909">
        <ele>25.9</ele>
        <time>2022-04-05T12:57:11Z</time>
      </trkpt>
      <trkpt lat="44.86567" lon="0.35911">
        <ele>25.9</ele>
        <time>2022-04-05T12:57:12Z</time>
      </trkpt>
      <trkpt lat="44.86567" lon="0.35912">
        <ele>25.9</ele>
        <time>2022-04-05T12:57:13Z</time>
      </trkpt>
      <trkpt lat="44.86567" lon="0.35914">
        <ele>25.9</ele>
        <time>2022-04-05T12:57:14Z</time>
      </trkpt>
      <trkpt lat="44.86566" lon="0.35915">
        <ele>25.9</ele>
        <time>2022-04-05T12:57:15Z</time>
      </trkpt>
      <trkpt lat="44.86567" lon="0.35918">
        <ele>25.9</ele>
        <time>2022-04-05T12:57:16Z</time>
      </trkpt>
      <trkpt lat="44.86567" lon="0.35919">
        <ele>25.9</ele>
        <time>2022-04-05T12:57:17Z</time>
      </trkpt>
      <trkpt lat="44.86568" lon="0.35919">
        <ele>25.9</ele>
        <time>2022-04-05T12:57:18Z</time>
      </trkpt>
      <trkpt lat="44.86569" lon="0.3592">
        <ele>25.9</ele>
        <time>2022-04-05T12:57:19Z</time>
      </trkpt>
      <trkpt lat="44.86569" lon="0.35922">
        <ele>25.9</ele>
        <time>2022-04-05T12:57:20Z</time>
      </trkpt>
      <trkpt lat="44.86569" lon="0.35922">
        <ele>25.9</ele>
        <time>2022-04-05T12:57:21Z</time>
      </trkpt>
      <trkpt lat="44.86569" lon="0.35922">
        <ele>25.9</ele>
        <time>2022-04-05T12:57:22Z</time>
      </trkpt>
      <trkpt lat="44.86569" lon="0.35921">
        <ele>25.9</ele>
        <time>2022-04-05T12:57:23Z</time>
      </trkpt>
      <trkpt lat="44.86568" lon="0.35921">
        <ele>25.9</ele>
        <time>2022-04-05T12:57:24Z</time>
      </trkpt>
      <trkpt lat="44.86568" lon="0.3592">
        <ele>25.9</ele>
        <time>2022-04-05T12:57:25Z</time>
      </trkpt>
      <trkpt lat="44.86568" lon="0.35919">
        <ele>25.9</ele>
        <time>2022-04-05T12:57:26Z</time>
      </trkpt>
      <trkpt lat="44.86568" lon="0.35918">
        <ele>25.9</ele>
        <time>2022-04-05T12:57:28Z</time>
      </trkpt>
      <trkpt lat="44.86568" lon="0.35918">
        <ele>25.9</ele>
        <time>2022-04-05T12:57:29Z</time>
      </trkpt>
      <trkpt lat="44.86568" lon="0.35918">
        <ele>25.9</ele>
        <time>2022-04-05T12:57:30Z</time>
      </trkpt>
      <trkpt lat="44.86568" lon="0.35918">
        <ele>25.9</ele>
        <time>2022-04-05T12:57:31Z</time>
      </trkpt>
      <trkpt lat="44.86568" lon="0.35918">
        <ele>25.9</ele>
        <time>2022-04-05T12:57:32Z</time>
      </trkpt>
      <trkpt lat="44.86568" lon="0.35918">
        <ele>25.9</ele>
        <time>2022-04-05T12:57:33Z</time>
      </trkpt>
      <trkpt lat="44.86568" lon="0.35918">
        <ele>25.9</ele>
        <time>2022-04-05T12:57:34Z</time>
      </trkpt>
      <trkpt lat="44.86568" lon="0.35918">
        <ele>25.9</ele>
        <time>2022-04-05T12:57:35Z</time>
      </trkpt>
      <trkpt lat="44.86568" lon="0.35918">
        <ele>25.9</ele>
        <time>2022-04-05T12:57:36Z</time>
      </trkpt>
      <trkpt lat="44.86568" lon="0.35918">
        <ele>25.9</ele>
        <time>2022-04-05T12:57:37Z</time>
      </trkpt>
      <trkpt lat="44.86568" lon="0.35918">
        <ele>25.9</ele>
        <time>2022-04-05T12:57:38Z</time>
      </trkpt>
      <trkpt lat="44.86568" lon="0.35918">
        <ele>25.9</ele>
        <time>2022-04-05T12:57:39Z</time>
      </trkpt>
      <trkpt lat="44.86568" lon="0.35918">
        <ele>25.9</ele>
        <time>2022-04-05T12:57:40Z</time>
      </trkpt>
      <trkpt lat="44.86568" lon="0.35918">
        <ele>25.9</ele>
        <time>2022-04-05T12:57:41Z</time>
      </trkpt>
      <trkpt lat="44.86568" lon="0.35918">
        <ele>25.9</ele>
        <time>2022-04-05T12:57:42Z</time>
      </trkpt>
      <trkpt lat="44.86568" lon="0.35918">
        <ele>25.9</ele>
        <time>2022-04-05T12:57:43Z</time>
      </trkpt>
      <trkpt lat="44.86568" lon="0.35918">
        <ele>25.9</ele>
        <time>2022-04-05T12:57:44Z</time>
      </trkpt>
      <trkpt lat="44.86568" lon="0.35918">
        <ele>25.9</ele>
        <time>2022-04-05T12:57:45Z</time>
      </trkpt>
      <trkpt lat="44.86568" lon="0.35919">
        <ele>25.9</ele>
        <time>2022-04-05T12:57:46Z</time>
      </trkpt>
      <trkpt lat="44.86568" lon="0.35919">
        <ele>25.9</ele>
        <time>2022-04-05T12:57:47Z</time>
      </trkpt>
      <trkpt lat="44.86568" lon="0.35919">
        <ele>25.9</ele>
        <time>2022-04-05T12:57:48Z</time>
      </trkpt>
      <trkpt lat="44.86568" lon="0.35919">
        <ele>25.9</ele>
        <time>2022-04-05T12:57:49Z</time>
      </trkpt>
      <trkpt lat="44.86568" lon="0.35919">
        <ele>25.9</ele>
        <time>2022-04-05T12:57:50Z</time>
      </trkpt>
      <trkpt lat="44.86568" lon="0.35919">
        <ele>25.9</ele>
        <time>2022-04-05T12:57:51Z</time>
      </trkpt>
      <trkpt lat="44.86568" lon="0.35919">
        <ele>25.9</ele>
        <time>2022-04-05T12:57:52Z</time>
      </trkpt>
      <trkpt lat="44.86568" lon="0.35919">
        <ele>25.9</ele>
        <time>2022-04-05T12:57:53Z</time>
      </trkpt>
      <trkpt lat="44.86568" lon="0.35919">
        <ele>25.9</ele>
        <time>2022-04-05T12:57:54Z</time>
      </trkpt>
      <trkpt lat="44.86568" lon="0.35919">
        <ele>25.9</ele>
        <time>2022-04-05T12:57:55Z</time>
      </trkpt>
      <trkpt lat="44.86568" lon="0.35919">
        <ele>25.9</ele>
        <time>2022-04-05T12:57:56Z</time>
      </trkpt>
      <trkpt lat="44.86568" lon="0.35919">
        <ele>25.9</ele>
        <time>2022-04-05T12:57:57Z</time>
      </trkpt>
      <trkpt lat="44.86568" lon="0.35919">
        <ele>25.9</ele>
        <time>2022-04-05T12:57:58Z</time>
      </trkpt>
      <trkpt lat="44.86568" lon="0.35919">
        <ele>25.9</ele>
        <time>2022-04-05T12:57:59Z</time>
      </trkpt>
      <trkpt lat="44.86568" lon="0.35919">
        <ele>25.9</ele>
        <time>2022-04-05T12:58:00Z</time>
      </trkpt>
      <trkpt lat="44.86568" lon="0.35919">
        <ele>25.9</ele>
        <time>2022-04-05T12:58:01Z</time>
      </trkpt>
      <trkpt lat="44.86568" lon="0.35919">
        <ele>25.9</ele>
        <time>2022-04-05T12:58:02Z</time>
      </trkpt>
      <trkpt lat="44.86568" lon="0.35919">
        <ele>25.9</ele>
        <time>2022-04-05T12:58:03Z</time>
      </trkpt>
      <trkpt lat="44.86568" lon="0.35919">
        <ele>25.9</ele>
        <time>2022-04-05T12:58:04Z</time>
      </trkpt>
      <trkpt lat="44.86568" lon="0.35919">
        <ele>25.9</ele>
        <time>2022-04-05T12:58:05Z</time>
      </trkpt>
      <trkpt lat="44.86568" lon="0.35919">
        <ele>25.9</ele>
        <time>2022-04-05T12:58:06Z</time>
      </trkpt>
      <trkpt lat="44.86568" lon="0.35919">
        <ele>25.9</ele>
        <time>2022-04-05T12:58:07Z</time>
      </trkpt>
      <trkpt lat="44.86568" lon="0.35919">
        <ele>25.9</ele>
        <time>2022-04-05T12:58:08Z</time>
      </trkpt>
      <trkpt lat="44.86568" lon="0.35919">
        <ele>25.9</ele>
        <time>2022-04-05T12:58:09Z</time>
      </trkpt>
      <trkpt lat="44.86568" lon="0.3592">
        <ele>25.9</ele>
        <time>2022-04-05T12:58:10Z</time>
      </trkpt>
      <trkpt lat="44.86568" lon="0.3592">
        <ele>25.9</ele>
        <time>2022-04-05T12:58:11Z</time>
      </trkpt>
      <trkpt lat="44.86568" lon="0.3592">
        <ele>25.9</ele>
        <time>2022-04-05T12:58:12Z</time>
      </trkpt>
      <trkpt lat="44.86568" lon="0.3592">
        <ele>25.9</ele>
        <time>2022-04-05T12:58:13Z</time>
      </trkpt>
      <trkpt lat="44.86568" lon="0.3592">
        <ele>25.9</ele>
        <time>2022-04-05T12:58:14Z</time>
      </trkpt>
      <trkpt lat="44.86568" lon="0.3592">
        <ele>25.9</ele>
        <time>2022-04-05T12:58:15Z</time>
      </trkpt>
      <trkpt lat="44.86568" lon="0.3592">
        <ele>25.9</ele>
        <time>2022-04-05T12:58:16Z</time>
      </trkpt>
      <trkpt lat="44.86568" lon="0.3592">
        <ele>25.9</ele>
        <time>2022-04-05T12:58:17Z</time>
      </trkpt>
      <trkpt lat="44.86568" lon="0.3592">
        <ele>25.9</ele>
        <time>2022-04-05T12:58:18Z</time>
      </trkpt>
      <trkpt lat="44.86568" lon="0.3592">
        <ele>25.9</ele>
        <time>2022-04-05T12:58:19Z</time>
      </trkpt>
      <trkpt lat="44.86568" lon="0.3592">
        <ele>25.9</ele>
        <time>2022-04-05T12:58:20Z</time>
      </trkpt>
      <trkpt lat="44.86568" lon="0.3592">
        <ele>25.9</ele>
        <time>2022-04-05T12:58:21Z</time>
      </trkpt>
      <trkpt lat="44.86568" lon="0.3592">
        <ele>25.9</ele>
        <time>2022-04-05T12:58:22Z</time>
      </trkpt>
      <trkpt lat="44.86568" lon="0.3592">
        <ele>25.9</ele>
        <time>2022-04-05T12:58:23Z</time>
      </trkpt>
      <trkpt lat="44.86568" lon="0.3592">
        <ele>25.9</ele>
        <time>2022-04-05T12:58:24Z</time>
      </trkpt>
      <trkpt lat="44.86568" lon="0.3592">
        <ele>25.9</ele>
        <time>2022-04-05T12:58:25Z</time>
      </trkpt>
      <trkpt lat="44.86568" lon="0.3592">
        <ele>25.9</ele>
        <time>2022-04-05T12:58:26Z</time>
      </trkpt>
      <trkpt lat="44.86568" lon="0.3592">
        <ele>25.9</ele>
        <time>2022-04-05T12:58:27Z</time>
      </trkpt>
      <trkpt lat="44.86568" lon="0.3592">
        <ele>25.9</ele>
        <time>2022-04-05T12:58:28Z</time>
      </trkpt>
      <trkpt lat="44.86568" lon="0.3592">
        <ele>25.9</ele>
        <time>2022-04-05T12:58:29Z</time>
      </trkpt>
      <trkpt lat="44.86568" lon="0.35921">
        <ele>25.9</ele>
        <time>2022-04-05T12:58:30Z</time>
      </trkpt>
      <trkpt lat="44.86568" lon="0.35921">
        <ele>25.9</ele>
        <time>2022-04-05T12:58:31Z</time>
      </trkpt>
      <trkpt lat="44.86568" lon="0.35921">
        <ele>25.9</ele>
        <time>2022-04-05T12:58:32Z</time>
      </trkpt>
      <trkpt lat="44.86568" lon="0.35921">
        <ele>25.9</ele>
        <time>2022-04-05T12:58:33Z</time>
      </trkpt>
      <trkpt lat="44.86568" lon="0.35921">
        <ele>25.9</ele>
        <time>2022-04-05T12:58:34Z</time>
      </trkpt>
      <trkpt lat="44.86568" lon="0.35921">
        <ele>25.9</ele>
        <time>2022-04-05T12:58:35Z</time>
      </trkpt>
      <trkpt lat="44.86568" lon="0.35921">
        <ele>25.9</ele>
        <time>2022-04-05T12:58:36Z</time>
      </trkpt>
      <trkpt lat="44.86568" lon="0.35921">
        <ele>25.9</ele>
        <time>2022-04-05T12:58:37Z</time>
      </trkpt>
      <trkpt lat="44.86568" lon="0.35921">
        <ele>25.9</ele>
        <time>2022-04-05T12:58:38Z</time>
      </trkpt>
      <trkpt lat="44.86568" lon="0.35921">
        <ele>25.9</ele>
        <time>2022-04-05T12:58:39Z</time>
      </trkpt>
      <trkpt lat="44.86568" lon="0.35921">
        <ele>25.9</ele>
        <time>2022-04-05T12:58:40Z</time>
      </trkpt>
      <trkpt lat="44.86568" lon="0.35921">
        <ele>25.9</ele>
        <time>2022-04-05T12:58:41Z</time>
      </trkpt>
      <trkpt lat="44.86568" lon="0.35921">
        <ele>25.9</ele>
        <time>2022-04-05T12:58:42Z</time>
      </trkpt>
      <trkpt lat="44.86568" lon="0.35921">
        <ele>25.9</ele>
        <time>2022-04-05T12:58:43Z</time>
      </trkpt>
      <trkpt lat="44.86568" lon="0.35921">
        <ele>25.9</ele>
        <time>2022-04-05T12:58:44Z</time>
      </trkpt>
      <trkpt lat="44.86568" lon="0.35921">
        <ele>25.9</ele>
        <time>2022-04-05T12:58:45Z</time>
      </trkpt>
      <trkpt lat="44.86568" lon="0.35921">
        <ele>25.9</ele>
        <time>2022-04-05T12:58:46Z</time>
      </trkpt>
      <trkpt lat="44.86568" lon="0.35921">
        <ele>25.9</ele>
        <time>2022-04-05T12:58:47Z</time>
      </trkpt>
      <trkpt lat="44.86568" lon="0.35921">
        <ele>25.9</ele>
        <time>2022-04-05T12:58:48Z</time>
      </trkpt>
      <trkpt lat="44.86568" lon="0.35921">
        <ele>25.9</ele>
        <time>2022-04-05T12:58:49Z</time>
      </trkpt>
      <trkpt lat="44.86568" lon="0.35921">
        <ele>25.9</ele>
        <time>2022-04-05T12:58:50Z</time>
      </trkpt>
      <trkpt lat="44.86568" lon="0.35921">
        <ele>25.9</ele>
        <time>2022-04-05T12:58:51Z</time>
      </trkpt>
      <trkpt lat="44.86568" lon="0.35922">
        <ele>25.9</ele>
        <time>2022-04-05T12:58:52Z</time>
      </trkpt>
      <trkpt lat="44.86568" lon="0.35922">
        <ele>25.9</ele>
        <time>2022-04-05T12:58:53Z</time>
      </trkpt>
      <trkpt lat="44.86568" lon="0.35922">
        <ele>25.9</ele>
        <time>2022-04-05T12:58:54Z</time>
      </trkpt>
      <trkpt lat="44.86568" lon="0.35922">
        <ele>25.9</ele>
        <time>2022-04-05T12:58:55Z</time>
      </trkpt>
      <trkpt lat="44.86568" lon="0.35922">
        <ele>25.9</ele>
        <time>2022-04-05T12:58:56Z</time>
      </trkpt>
      <trkpt lat="44.86568" lon="0.35922">
        <ele>25.9</ele>
        <time>2022-04-05T12:58:57Z</time>
      </trkpt>
      <trkpt lat="44.86568" lon="0.35922">
        <ele>25.9</ele>
        <time>2022-04-05T12:58:58Z</time>
      </trkpt>
      <trkpt lat="44.86568" lon="0.35922">
        <ele>25.9</ele>
        <time>2022-04-05T12:58:59Z</time>
      </trkpt>
      <trkpt lat="44.86568" lon="0.35922">
        <ele>25.9</ele>
        <time>2022-04-05T12:59:00Z</time>
      </trkpt>
      <trkpt lat="44.86568" lon="0.35922">
        <ele>25.9</ele>
        <time>2022-04-05T12:59:01Z</time>
      </trkpt>
      <trkpt lat="44.86568" lon="0.35922">
        <ele>25.9</ele>
        <time>2022-04-05T12:59:02Z</time>
      </trkpt>
      <trkpt lat="44.86568" lon="0.35922">
        <ele>25.9</ele>
        <time>2022-04-05T12:59:03Z</time>
      </trkpt>
      <trkpt lat="44.86568" lon="0.35922">
        <ele>25.9</ele>
        <time>2022-04-05T12:59:04Z</time>
      </trkpt>
      <trkpt lat="44.86568" lon="0.35922">
        <ele>25.9</ele>
        <time>2022-04-05T12:59:05Z</time>
      </trkpt>
      <trkpt lat="44.86568" lon="0.35922">
        <ele>25.9</ele>
        <time>2022-04-05T12:59:06Z</time>
      </trkpt>
      <trkpt lat="44.86568" lon="0.35922">
        <ele>25.9</ele>
        <time>2022-04-05T12:59:07Z</time>
      </trkpt>
      <trkpt lat="44.86568" lon="0.35922">
        <ele>25.9</ele>
        <time>2022-04-05T12:59:08Z</time>
      </trkpt>
      <trkpt lat="44.86568" lon="0.35922">
        <ele>25.9</ele>
        <time>2022-04-05T12:59:09Z</time>
      </trkpt>
      <trkpt lat="44.86569" lon="0.35922">
        <ele>25.9</ele>
        <time>2022-04-05T12:59:10Z</time>
      </trkpt>
      <trkpt lat="44.86569" lon="0.35922">
        <ele>25.9</ele>
        <time>2022-04-05T12:59:11Z</time>
      </trkpt>
      <trkpt lat="44.86569" lon="0.35922">
        <ele>25.9</ele>
        <time>2022-04-05T12:59:12Z</time>
      </trkpt>
      <trkpt lat="44.86569" lon="0.35922">
        <ele>25.9</ele>
        <time>2022-04-05T12:59:13Z</time>
      </trkpt>
      <trkpt lat="44.86569" lon="0.35922">
        <ele>25.9</ele>
        <time>2022-04-05T12:59:14Z</time>
      </trkpt>
      <trkpt lat="44.86569" lon="0.35922">
        <ele>25.9</ele>
        <time>2022-04-05T12:59:15Z</time>
      </trkpt>
      <trkpt lat="44.86569" lon="0.35923">
        <ele>25.9</ele>
        <time>2022-04-05T12:59:16Z</time>
      </trkpt>
      <trkpt lat="44.86569" lon="0.35923">
        <ele>25.9</ele>
        <time>2022-04-05T12:59:17Z</time>
      </trkpt>
      <trkpt lat="44.86569" lon="0.35923">
        <ele>25.9</ele>
        <time>2022-04-05T12:59:18Z</time>
      </trkpt>
      <trkpt lat="44.86569" lon="0.35923">
        <ele>25.9</ele>
        <time>2022-04-05T12:59:19Z</time>
      </trkpt>
      <trkpt lat="44.86569" lon="0.35923">
        <ele>25.9</ele>
        <time>2022-04-05T12:59:20Z</time>
      </trkpt>
      <trkpt lat="44.86569" lon="0.35923">
        <ele>25.9</ele>
        <time>2022-04-05T12:59:21Z</time>
      </trkpt>
      <trkpt lat="44.86569" lon="0.35923">
        <ele>25.9</ele>
        <time>2022-04-05T12:59:22Z</time>
      </trkpt>
      <trkpt lat="44.86569" lon="0.35923">
        <ele>25.9</ele>
        <time>2022-04-05T12:59:23Z</time>
      </trkpt>
      <trkpt lat="44.86568" lon="0.35924">
        <ele>25.9</ele>
        <time>2022-04-05T12:59:24Z</time>
      </trkpt>
      <trkpt lat="44.86568" lon="0.35925">
        <ele>25.9</ele>
        <time>2022-04-05T12:59:25Z</time>
      </trkpt>
      <trkpt lat="44.86568" lon="0.35925">
        <ele>25.9</ele>
        <time>2022-04-05T12:59:26Z</time>
      </trkpt>
      <trkpt lat="44.86567" lon="0.35926">
        <ele>25.9</ele>
        <time>2022-04-05T12:59:27Z</time>
      </trkpt>
      <trkpt lat="44.86567" lon="0.35927">
        <ele>25.9</ele>
        <time>2022-04-05T12:59:28Z</time>
      </trkpt>
      <trkpt lat="44.86567" lon="0.35927">
        <ele>25.9</ele>
        <time>2022-04-05T12:59:29Z</time>
      </trkpt>
      <trkpt lat="44.86567" lon="0.35928">
        <ele>25.9</ele>
        <time>2022-04-05T12:59:30Z</time>
      </trkpt>
      <trkpt lat="44.86566" lon="0.35929">
        <ele>25.9</ele>
        <time>2022-04-05T12:59:31Z</time>
      </trkpt>
      <trkpt lat="44.86566" lon="0.3593">
        <ele>25.9</ele>
        <time>2022-04-05T12:59:32Z</time>
      </trkpt>
      <trkpt lat="44.86566" lon="0.35931">
        <ele>25.9</ele>
        <time>2022-04-05T12:59:33Z</time>
      </trkpt>
      <trkpt lat="44.86567" lon="0.35931">
        <ele>25.9</ele>
        <time>2022-04-05T12:59:34Z</time>
      </trkpt>
      <trkpt lat="44.86567" lon="0.35932">
        <ele>25.9</ele>
        <time>2022-04-05T12:59:35Z</time>
      </trkpt>
      <trkpt lat="44.86567" lon="0.35932">
        <ele>25.9</ele>
        <time>2022-04-05T12:59:36Z</time>
      </trkpt>
      <trkpt lat="44.86566" lon="0.35933">
        <ele>25.9</ele>
        <time>2022-04-05T12:59:37Z</time>
      </trkpt>
      <trkpt lat="44.86566" lon="0.35935">
        <ele>25.9</ele>
        <time>2022-04-05T12:59:38Z</time>
      </trkpt>
      <trkpt lat="44.86566" lon="0.35938">
        <ele>25.9</ele>
        <time>2022-04-05T12:59:40Z</time>
      </trkpt>
      <trkpt lat="44.86566" lon="0.35939">
        <ele>25.9</ele>
        <time>2022-04-05T12:59:42Z</time>
      </trkpt>
      <trkpt lat="44.86566" lon="0.35942">
        <ele>25.9</ele>
        <time>2022-04-05T12:59:44Z</time>
      </trkpt>
      <trkpt lat="44.86566" lon="0.35944">
        <ele>25.9</ele>
        <time>2022-04-05T12:59:45Z</time>
      </trkpt>
      <trkpt lat="44.86566" lon="0.35946">
        <ele>25.9</ele>
        <time>2022-04-05T12:59:46Z</time>
      </trkpt>
      <trkpt lat="44.86566" lon="0.35948">
        <ele>25.9</ele>
        <time>2022-04-05T12:59:47Z</time>
      </trkpt>
      <trkpt lat="44.86566" lon="0.35949">
        <ele>25.9</ele>
        <time>2022-04-05T12:59:48Z</time>
      </trkpt>
      <trkpt lat="44.86566" lon="0.35951">
        <ele>25.9</ele>
        <time>2022-04-05T12:59:49Z</time>
      </trkpt>
      <trkpt lat="44.86565" lon="0.35953">
        <ele>25.9</ele>
        <time>2022-04-05T12:59:50Z</time>
      </trkpt>
      <trkpt lat="44.86565" lon="0.35955">
        <ele>25.9</ele>
        <time>2022-04-05T12:59:51Z</time>
      </trkpt>
      <trkpt lat="44.86564" lon="0.35959">
        <ele>25.9</ele>
        <time>2022-04-05T12:59:53Z</time>
      </trkpt>
      <trkpt lat="44.86564" lon="0.35961">
        <ele>25.9</ele>
        <time>2022-04-05T12:59:54Z</time>
      </trkpt>
      <trkpt lat="44.86563" lon="0.35962">
        <ele>25.9</ele>
        <time>2022-04-05T12:59:55Z</time>
      </trkpt>
      <trkpt lat="44.86563" lon="0.35964">
        <ele>25.9</ele>
        <time>2022-04-05T12:59:56Z</time>
      </trkpt>
      <trkpt lat="44.86563" lon="0.35965">
        <ele>25.9</ele>
        <time>2022-04-05T12:59:58Z</time>
      </trkpt>
      <trkpt lat="44.86562" lon="0.35968">
        <ele>25.9</ele>
        <time>2022-04-05T12:59:59Z</time>
      </trkpt>
      <trkpt lat="44.86561" lon="0.35971">
        <ele>25.9</ele>
        <time>2022-04-05T13:00:01Z</time>
      </trkpt>
      <trkpt lat="44.86561" lon="0.35972">
        <ele>25.9</ele>
        <time>2022-04-05T13:00:02Z</time>
      </trkpt>
      <trkpt lat="44.86561" lon="0.35974">
        <ele>25.9</ele>
        <time>2022-04-05T13:00:03Z</time>
      </trkpt>
      <trkpt lat="44.8656" lon="0.35977">
        <ele>25.9</ele>
        <time>2022-04-05T13:00:04Z</time>
      </trkpt>
      <trkpt lat="44.8656" lon="0.3598">
        <ele>25.9</ele>
        <time>2022-04-05T13:00:05Z</time>
      </trkpt>
      <trkpt lat="44.8656" lon="0.35981">
        <ele>25.9</ele>
        <time>2022-04-05T13:00:06Z</time>
      </trkpt>
      <trkpt lat="44.8656" lon="0.35982">
        <ele>25.9</ele>
        <time>2022-04-05T13:00:07Z</time>
      </trkpt>
      <trkpt lat="44.86559" lon="0.35985">
        <ele>25.9</ele>
        <time>2022-04-05T13:00:08Z</time>
      </trkpt>
      <trkpt lat="44.86559" lon="0.35987">
        <ele>25.9</ele>
        <time>2022-04-05T13:00:09Z</time>
      </trkpt>
      <trkpt lat="44.86559" lon="0.35988">
        <ele>25.9</ele>
        <time>2022-04-05T13:00:10Z</time>
      </trkpt>
      <trkpt lat="44.86559" lon="0.35991">
        <ele>25.9</ele>
        <time>2022-04-05T13:00:11Z</time>
      </trkpt>
      <trkpt lat="44.86558" lon="0.35994">
        <ele>25.9</ele>
        <time>2022-04-05T13:00:13Z</time>
      </trkpt>
      <trkpt lat="44.86558" lon="0.35995">
        <ele>25.9</ele>
        <time>2022-04-05T13:00:14Z</time>
      </trkpt>
      <trkpt lat="44.86557" lon="0.35997">
        <ele>25.9</ele>
        <time>2022-04-05T13:00:15Z</time>
      </trkpt>
      <trkpt lat="44.86557" lon="0.35999">
        <ele>25.9</ele>
        <time>2022-04-05T13:00:16Z</time>
      </trkpt>
      <trkpt lat="44.86557" lon="0.36001">
        <ele>25.9</ele>
        <time>2022-04-05T13:00:17Z</time>
      </trkpt>
      <trkpt lat="44.86556" lon="0.36004">
        <ele>26</ele>
        <time>2022-04-05T13:00:18Z</time>
      </trkpt>
      <trkpt lat="44.86556" lon="0.36006">
        <ele>26</ele>
        <time>2022-04-05T13:00:20Z</time>
      </trkpt>
      <trkpt lat="44.86556" lon="0.36007">
        <ele>26</ele>
        <time>2022-04-05T13:00:21Z</time>
      </trkpt>
      <trkpt lat="44.86556" lon="0.36009">
        <ele>26</ele>
        <time>2022-04-05T13:00:22Z</time>
      </trkpt>
      <trkpt lat="44.86555" lon="0.36014">
        <ele>26</ele>
        <time>2022-04-05T13:00:24Z</time>
      </trkpt>
      <trkpt lat="44.86555" lon="0.36015">
        <ele>26</ele>
        <time>2022-04-05T13:00:25Z</time>
      </trkpt>
      <trkpt lat="44.86555" lon="0.36017">
        <ele>26</ele>
        <time>2022-04-05T13:00:26Z</time>
      </trkpt>
      <trkpt lat="44.86555" lon="0.36018">
        <ele>26</ele>
        <time>2022-04-05T13:00:28Z</time>
      </trkpt>
      <trkpt lat="44.86555" lon="0.36019">
        <ele>26</ele>
        <time>2022-04-05T13:00:29Z</time>
      </trkpt>
      <trkpt lat="44.86555" lon="0.36021">
        <ele>26</ele>
        <time>2022-04-05T13:00:30Z</time>
      </trkpt>
      <trkpt lat="44.86555" lon="0.36022">
        <ele>26</ele>
        <time>2022-04-05T13:00:31Z</time>
      </trkpt>
      <trkpt lat="44.86554" lon="0.36025">
        <ele>26</ele>
        <time>2022-04-05T13:00:32Z</time>
      </trkpt>
      <trkpt lat="44.86554" lon="0.36027">
        <ele>26</ele>
        <time>2022-04-05T13:00:33Z</time>
      </trkpt>
      <trkpt lat="44.86554" lon="0.36028">
        <ele>26</ele>
        <time>2022-04-05T13:00:34Z</time>
      </trkpt>
      <trkpt lat="44.86554" lon="0.36029">
        <ele>26</ele>
        <time>2022-04-05T13:00:35Z</time>
      </trkpt>
      <trkpt lat="44.86554" lon="0.36031">
        <ele>26</ele>
        <time>2022-04-05T13:00:36Z</time>
      </trkpt>
      <trkpt lat="44.86554" lon="0.36033">
        <ele>26</ele>
        <time>2022-04-05T13:00:37Z</time>
      </trkpt>
      <trkpt lat="44.86553" lon="0.36037">
        <ele>26</ele>
        <time>2022-04-05T13:00:38Z</time>
      </trkpt>
      <trkpt lat="44.86553" lon="0.36038">
        <ele>26</ele>
        <time>2022-04-05T13:00:40Z</time>
      </trkpt>
      <trkpt lat="44.86553" lon="0.36039">
        <ele>26</ele>
        <time>2022-04-05T13:00:41Z</time>
      </trkpt>
      <trkpt lat="44.86552" lon="0.36041">
        <ele>26</ele>
        <time>2022-04-05T13:00:42Z</time>
      </trkpt>
      <trkpt lat="44.86552" lon="0.36042">
        <ele>26</ele>
        <time>2022-04-05T13:00:43Z</time>
      </trkpt>
      <trkpt lat="44.86551" lon="0.36044">
        <ele>26</ele>
        <time>2022-04-05T13:00:44Z</time>
      </trkpt>
      <trkpt lat="44.86551" lon="0.36046">
        <ele>26</ele>
        <time>2022-04-05T13:00:45Z</time>
      </trkpt>
      <trkpt lat="44.86551" lon="0.36047">
        <ele>26</ele>
        <time>2022-04-05T13:00:46Z</time>
      </trkpt>
      <trkpt lat="44.8655" lon="0.36049">
        <ele>26</ele>
        <time>2022-04-05T13:00:47Z</time>
      </trkpt>
      <trkpt lat="44.8655" lon="0.3605">
        <ele>26</ele>
        <time>2022-04-05T13:00:48Z</time>
      </trkpt>
      <trkpt lat="44.8655" lon="0.36054">
        <ele>26</ele>
        <time>2022-04-05T13:00:49Z</time>
      </trkpt>
      <trkpt lat="44.8655" lon="0.36055">
        <ele>26</ele>
        <time>2022-04-05T13:00:50Z</time>
      </trkpt>
      <trkpt lat="44.8655" lon="0.36056">
        <ele>26</ele>
        <time>2022-04-05T13:00:51Z</time>
      </trkpt>
      <trkpt lat="44.86549" lon="0.36058">
        <ele>26</ele>
        <time>2022-04-05T13:00:52Z</time>
      </trkpt>
      <trkpt lat="44.86549" lon="0.36061">
        <ele>26.1</ele>
        <time>2022-04-05T13:00:54Z</time>
      </trkpt>
      <trkpt lat="44.86549" lon="0.36062">
        <ele>26.1</ele>
        <time>2022-04-05T13:00:55Z</time>
      </trkpt>
      <trkpt lat="44.86548" lon="0.36063">
        <ele>26.1</ele>
        <time>2022-04-05T13:00:56Z</time>
      </trkpt>
      <trkpt lat="44.86548" lon="0.36065">
        <ele>26.1</ele>
        <time>2022-04-05T13:00:57Z</time>
      </trkpt>
      <trkpt lat="44.86548" lon="0.36067">
        <ele>26.1</ele>
        <time>2022-04-05T13:00:58Z</time>
      </trkpt>
      <trkpt lat="44.86548" lon="0.36069">
        <ele>26.1</ele>
        <time>2022-04-05T13:00:59Z</time>
      </trkpt>
      <trkpt lat="44.86548" lon="0.36071">
        <ele>26.1</ele>
        <time>2022-04-05T13:01:00Z</time>
      </trkpt>
      <trkpt lat="44.86547" lon="0.36073">
        <ele>26.1</ele>
        <time>2022-04-05T13:01:01Z</time>
      </trkpt>
      <trkpt lat="44.86547" lon="0.36074">
        <ele>26.1</ele>
        <time>2022-04-05T13:01:02Z</time>
      </trkpt>
      <trkpt lat="44.86547" lon="0.36076">
        <ele>26.1</ele>
        <time>2022-04-05T13:01:03Z</time>
      </trkpt>
      <trkpt lat="44.86547" lon="0.36079">
        <ele>26.1</ele>
        <time>2022-04-05T13:01:04Z</time>
      </trkpt>
      <trkpt lat="44.86547" lon="0.3608">
        <ele>26.1</ele>
        <time>2022-04-05T13:01:05Z</time>
      </trkpt>
      <trkpt lat="44.86546" lon="0.36082">
        <ele>26.1</ele>
        <time>2022-04-05T13:01:06Z</time>
      </trkpt>
      <trkpt lat="44.86546" lon="0.36083">
        <ele>26.1</ele>
        <time>2022-04-05T13:01:07Z</time>
      </trkpt>
      <trkpt lat="44.86545" lon="0.36087">
        <ele>26.1</ele>
        <time>2022-04-05T13:01:08Z</time>
      </trkpt>
      <trkpt lat="44.86544" lon="0.36088">
        <ele>26.1</ele>
        <time>2022-04-05T13:01:10Z</time>
      </trkpt>
      <trkpt lat="44.86543" lon="0.36089">
        <ele>26.1</ele>
        <time>2022-04-05T13:01:11Z</time>
      </trkpt>
      <trkpt lat="44.86543" lon="0.3609">
        <ele>26.1</ele>
        <time>2022-04-05T13:01:12Z</time>
      </trkpt>
      <trkpt lat="44.86542" lon="0.36091">
        <ele>26.1</ele>
        <time>2022-04-05T13:01:13Z</time>
      </trkpt>
      <trkpt lat="44.86542" lon="0.36092">
        <ele>26.2</ele>
        <time>2022-04-05T13:01:14Z</time>
      </trkpt>
      <trkpt lat="44.86542" lon="0.36093">
        <ele>26.2</ele>
        <time>2022-04-05T13:01:15Z</time>
      </trkpt>
      <trkpt lat="44.86542" lon="0.36095">
        <ele>26.2</ele>
        <time>2022-04-05T13:01:16Z</time>
      </trkpt>
      <trkpt lat="44.86542" lon="0.36096">
        <ele>26.2</ele>
        <time>2022-04-05T13:01:17Z</time>
      </trkpt>
      <trkpt lat="44.86542" lon="0.36098">
        <ele>26.2</ele>
        <time>2022-04-05T13:01:19Z</time>
      </trkpt>
      <trkpt lat="44.86542" lon="0.36099">
        <ele>26.2</ele>
        <time>2022-04-05T13:01:20Z</time>
      </trkpt>
      <trkpt lat="44.86542" lon="0.361">
        <ele>26.2</ele>
        <time>2022-04-05T13:01:21Z</time>
      </trkpt>
      <trkpt lat="44.86542" lon="0.36102">
        <ele>26.2</ele>
        <time>2022-04-05T13:01:22Z</time>
      </trkpt>
      <trkpt lat="44.86542" lon="0.36104">
        <ele>26.2</ele>
        <time>2022-04-05T13:01:23Z</time>
      </trkpt>
      <trkpt lat="44.86542" lon="0.36106">
        <ele>26.2</ele>
        <time>2022-04-05T13:01:24Z</time>
      </trkpt>
      <trkpt lat="44.86542" lon="0.36107">
        <ele>26.2</ele>
        <time>2022-04-05T13:01:25Z</time>
      </trkpt>
      <trkpt lat="44.86542" lon="0.36109">
        <ele>26.2</ele>
        <time>2022-04-05T13:01:26Z</time>
      </trkpt>
      <trkpt lat="44.86542" lon="0.36111">
        <ele>26.2</ele>
        <time>2022-04-05T13:01:28Z</time>
      </trkpt>
      <trkpt lat="44.86542" lon="0.36113">
        <ele>26.2</ele>
        <time>2022-04-05T13:01:29Z</time>
      </trkpt>
      <trkpt lat="44.86541" lon="0.36114">
        <ele>26.2</ele>
        <time>2022-04-05T13:01:30Z</time>
      </trkpt>
      <trkpt lat="44.86541" lon="0.36116">
        <ele>26.2</ele>
        <time>2022-04-05T13:01:31Z</time>
      </trkpt>
      <trkpt lat="44.86541" lon="0.36118">
        <ele>26.2</ele>
        <time>2022-04-05T13:01:33Z</time>
      </trkpt>
      <trkpt lat="44.86541" lon="0.36119">
        <ele>26.2</ele>
        <time>2022-04-05T13:01:34Z</time>
      </trkpt>
      <trkpt lat="44.86541" lon="0.36121">
        <ele>26.2</ele>
        <time>2022-04-05T13:01:35Z</time>
      </trkpt>
      <trkpt lat="44.86541" lon="0.36122">
        <ele>26.2</ele>
        <time>2022-04-05T13:01:36Z</time>
      </trkpt>
      <trkpt lat="44.86541" lon="0.36124">
        <ele>26.2</ele>
        <time>2022-04-05T13:01:37Z</time>
      </trkpt>
      <trkpt lat="44.86541" lon="0.36126">
        <ele>26.3</ele>
        <time>2022-04-05T13:01:38Z</time>
      </trkpt>
      <trkpt lat="44.8654" lon="0.36127">
        <ele>26.3</ele>
        <time>2022-04-05T13:01:39Z</time>
      </trkpt>
      <trkpt lat="44.8654" lon="0.3613">
        <ele>26.3</ele>
        <time>2022-04-05T13:01:40Z</time>
      </trkpt>
      <trkpt lat="44.86539" lon="0.36131">
        <ele>26.3</ele>
        <time>2022-04-05T13:01:41Z</time>
      </trkpt>
      <trkpt lat="44.86539" lon="0.36132">
        <ele>26.3</ele>
        <time>2022-04-05T13:01:42Z</time>
      </trkpt>
      <trkpt lat="44.86539" lon="0.36133">
        <ele>26.3</ele>
        <time>2022-04-05T13:01:44Z</time>
      </trkpt>
      <trkpt lat="44.86538" lon="0.36135">
        <ele>26.3</ele>
        <time>2022-04-05T13:01:45Z</time>
      </trkpt>
      <trkpt lat="44.86538" lon="0.36136">
        <ele>26.3</ele>
        <time>2022-04-05T13:01:46Z</time>
      </trkpt>
      <trkpt lat="44.86538" lon="0.36138">
        <ele>26.3</ele>
        <time>2022-04-05T13:01:47Z</time>
      </trkpt>
      <trkpt lat="44.86538" lon="0.36139">
        <ele>26.3</ele>
        <time>2022-04-05T13:01:48Z</time>
      </trkpt>
      <trkpt lat="44.86538" lon="0.36141">
        <ele>26.3</ele>
        <time>2022-04-05T13:01:49Z</time>
      </trkpt>
      <trkpt lat="44.86538" lon="0.36144">
        <ele>26.3</ele>
        <time>2022-04-05T13:01:50Z</time>
      </trkpt>
      <trkpt lat="44.86538" lon="0.36145">
        <ele>26.3</ele>
        <time>2022-04-05T13:01:51Z</time>
      </trkpt>
      <trkpt lat="44.86538" lon="0.36147">
        <ele>26.3</ele>
        <time>2022-04-05T13:01:52Z</time>
      </trkpt>
      <trkpt lat="44.86538" lon="0.36149">
        <ele>26.3</ele>
        <time>2022-04-05T13:01:53Z</time>
      </trkpt>
      <trkpt lat="44.86537" lon="0.3615">
        <ele>26.3</ele>
        <time>2022-04-05T13:01:55Z</time>
      </trkpt>
      <trkpt lat="44.86537" lon="0.36151">
        <ele>26.3</ele>
        <time>2022-04-05T13:01:56Z</time>
      </trkpt>
      <trkpt lat="44.86537" lon="0.36152">
        <ele>26.3</ele>
        <time>2022-04-05T13:01:57Z</time>
      </trkpt>
      <trkpt lat="44.86537" lon="0.36155">
        <ele>26.3</ele>
        <time>2022-04-05T13:01:58Z</time>
      </trkpt>
      <trkpt lat="44.86537" lon="0.36155">
        <ele>26.3</ele>
        <time>2022-04-05T13:01:59Z</time>
      </trkpt>
      <trkpt lat="44.86537" lon="0.36157">
        <ele>26.3</ele>
        <time>2022-04-05T13:02:00Z</time>
      </trkpt>
      <trkpt lat="44.86536" lon="0.36159">
        <ele>26.3</ele>
        <time>2022-04-05T13:02:02Z</time>
      </trkpt>
      <trkpt lat="44.86536" lon="0.36162">
        <ele>26.3</ele>
        <time>2022-04-05T13:02:03Z</time>
      </trkpt>
      <trkpt lat="44.86536" lon="0.36162">
        <ele>26.3</ele>
        <time>2022-04-05T13:02:04Z</time>
      </trkpt>
      <trkpt lat="44.86535" lon="0.36163">
        <ele>26.3</ele>
        <time>2022-04-05T13:02:05Z</time>
      </trkpt>
      <trkpt lat="44.86535" lon="0.36165">
        <ele>26.3</ele>
        <time>2022-04-05T13:02:06Z</time>
      </trkpt>
      <trkpt lat="44.86535" lon="0.36166">
        <ele>26.3</ele>
        <time>2022-04-05T13:02:07Z</time>
      </trkpt>
      <trkpt lat="44.86534" lon="0.36169">
        <ele>26.3</ele>
        <time>2022-04-05T13:02:08Z</time>
      </trkpt>
      <trkpt lat="44.86534" lon="0.3617">
        <ele>26.3</ele>
        <time>2022-04-05T13:02:10Z</time>
      </trkpt>
      <trkpt lat="44.86534" lon="0.36171">
        <ele>26.3</ele>
        <time>2022-04-05T13:02:11Z</time>
      </trkpt>
      <trkpt lat="44.86534" lon="0.36173">
        <ele>26.3</ele>
        <time>2022-04-05T13:02:12Z</time>
      </trkpt>
      <trkpt lat="44.86534" lon="0.36175">
        <ele>26.3</ele>
        <time>2022-04-05T13:02:13Z</time>
      </trkpt>
      <trkpt lat="44.86534" lon="0.36176">
        <ele>26.3</ele>
        <time>2022-04-05T13:02:14Z</time>
      </trkpt>
      <trkpt lat="44.86534" lon="0.36178">
        <ele>26.3</ele>
        <time>2022-04-05T13:02:15Z</time>
      </trkpt>
      <trkpt lat="44.86534" lon="0.3618">
        <ele>26.4</ele>
        <time>2022-04-05T13:02:17Z</time>
      </trkpt>
      <trkpt lat="44.86533" lon="0.36183">
        <ele>26.4</ele>
        <time>2022-04-05T13:02:18Z</time>
      </trkpt>
      <trkpt lat="44.86533" lon="0.36184">
        <ele>26.4</ele>
        <time>2022-04-05T13:02:19Z</time>
      </trkpt>
      <trkpt lat="44.86533" lon="0.36185">
        <ele>26.4</ele>
        <time>2022-04-05T13:02:20Z</time>
      </trkpt>
      <trkpt lat="44.86532" lon="0.36186">
        <ele>26.4</ele>
        <time>2022-04-05T13:02:21Z</time>
      </trkpt>
      <trkpt lat="44.86532" lon="0.3619">
        <ele>26.4</ele>
        <time>2022-04-05T13:02:23Z</time>
      </trkpt>
      <trkpt lat="44.86532" lon="0.36191">
        <ele>26.4</ele>
        <time>2022-04-05T13:02:24Z</time>
      </trkpt>
      <trkpt lat="44.86532" lon="0.36192">
        <ele>26.4</ele>
        <time>2022-04-05T13:02:25Z</time>
      </trkpt>
      <trkpt lat="44.86532" lon="0.36194">
        <ele>26.4</ele>
        <time>2022-04-05T13:02:26Z</time>
      </trkpt>
      <trkpt lat="44.86531" lon="0.36197">
        <ele>26.4</ele>
        <time>2022-04-05T13:02:27Z</time>
      </trkpt>
      <trkpt lat="44.86531" lon="0.36198">
        <ele>26.4</ele>
        <time>2022-04-05T13:02:28Z</time>
      </trkpt>
      <trkpt lat="44.86531" lon="0.36199">
        <ele>26.4</ele>
        <time>2022-04-05T13:02:29Z</time>
      </trkpt>
      <trkpt lat="44.8653" lon="0.36201">
        <ele>26.4</ele>
        <time>2022-04-05T13:02:31Z</time>
      </trkpt>
      <trkpt lat="44.8653" lon="0.36203">
        <ele>26.4</ele>
        <time>2022-04-05T13:02:32Z</time>
      </trkpt>
      <trkpt lat="44.8653" lon="0.36206">
        <ele>26.4</ele>
        <time>2022-04-05T13:02:33Z</time>
      </trkpt>
      <trkpt lat="44.8653" lon="0.36207">
        <ele>26.4</ele>
        <time>2022-04-05T13:02:34Z</time>
      </trkpt>
      <trkpt lat="44.8653" lon="0.36209">
        <ele>26.4</ele>
        <time>2022-04-05T13:02:35Z</time>
      </trkpt>
      <trkpt lat="44.8653" lon="0.3621">
        <ele>26.4</ele>
        <time>2022-04-05T13:02:36Z</time>
      </trkpt>
      <trkpt lat="44.8653" lon="0.36212">
        <ele>26.4</ele>
        <time>2022-04-05T13:02:37Z</time>
      </trkpt>
      <trkpt lat="44.8653" lon="0.36215">
        <ele>26.5</ele>
        <time>2022-04-05T13:02:38Z</time>
      </trkpt>
      <trkpt lat="44.8653" lon="0.36217">
        <ele>26.5</ele>
        <time>2022-04-05T13:02:39Z</time>
      </trkpt>
      <trkpt lat="44.8653" lon="0.36217">
        <ele>26.5</ele>
        <time>2022-04-05T13:02:40Z</time>
      </trkpt>
      <trkpt lat="44.8653" lon="0.36219">
        <ele>26.5</ele>
        <time>2022-04-05T13:02:41Z</time>
      </trkpt>
      <trkpt lat="44.86529" lon="0.36221">
        <ele>26.5</ele>
        <time>2022-04-05T13:02:43Z</time>
      </trkpt>
      <trkpt lat="44.86529" lon="0.36223">
        <ele>26.5</ele>
        <time>2022-04-05T13:02:44Z</time>
      </trkpt>
      <trkpt lat="44.86528" lon="0.36226">
        <ele>26.5</ele>
        <time>2022-04-05T13:02:45Z</time>
      </trkpt>
      <trkpt lat="44.86528" lon="0.36229">
        <ele>26.5</ele>
        <time>2022-04-05T13:02:46Z</time>
      </trkpt>
      <trkpt lat="44.86527" lon="0.3623">
        <ele>26.5</ele>
        <time>2022-04-05T13:02:47Z</time>
      </trkpt>
      <trkpt lat="44.86527" lon="0.36231">
        <ele>26.5</ele>
        <time>2022-04-05T13:02:48Z</time>
      </trkpt>
      <trkpt lat="44.86527" lon="0.36234">
        <ele>26.5</ele>
        <time>2022-04-05T13:02:49Z</time>
      </trkpt>
      <trkpt lat="44.86526" lon="0.36235">
        <ele>26.5</ele>
        <time>2022-04-05T13:02:50Z</time>
      </trkpt>
      <trkpt lat="44.86526" lon="0.36238">
        <ele>26.5</ele>
        <time>2022-04-05T13:02:51Z</time>
      </trkpt>
      <trkpt lat="44.86526" lon="0.36239">
        <ele>26.6</ele>
        <time>2022-04-05T13:02:52Z</time>
      </trkpt>
      <trkpt lat="44.86526" lon="0.3624">
        <ele>26.6</ele>
        <time>2022-04-05T13:02:53Z</time>
      </trkpt>
      <trkpt lat="44.86526" lon="0.36243">
        <ele>26.6</ele>
        <time>2022-04-05T13:02:54Z</time>
      </trkpt>
      <trkpt lat="44.86526" lon="0.36244">
        <ele>26.6</ele>
        <time>2022-04-05T13:02:55Z</time>
      </trkpt>
      <trkpt lat="44.86525" lon="0.36247">
        <ele>26.6</ele>
        <time>2022-04-05T13:02:56Z</time>
      </trkpt>
      <trkpt lat="44.86525" lon="0.36248">
        <ele>26.6</ele>
        <time>2022-04-05T13:02:58Z</time>
      </trkpt>
      <trkpt lat="44.86525" lon="0.36249">
        <ele>26.6</ele>
        <time>2022-04-05T13:02:59Z</time>
      </trkpt>
      <trkpt lat="44.86524" lon="0.36252">
        <ele>26.6</ele>
        <time>2022-04-05T13:03:00Z</time>
      </trkpt>
      <trkpt lat="44.86524" lon="0.36253">
        <ele>26.6</ele>
        <time>2022-04-05T13:03:01Z</time>
      </trkpt>
      <trkpt lat="44.86524" lon="0.36254">
        <ele>26.6</ele>
        <time>2022-04-05T13:03:02Z</time>
      </trkpt>
      <trkpt lat="44.86523" lon="0.36256">
        <ele>26.6</ele>
        <time>2022-04-05T13:03:03Z</time>
      </trkpt>
      <trkpt lat="44.86523" lon="0.36259">
        <ele>26.6</ele>
        <time>2022-04-05T13:03:04Z</time>
      </trkpt>
      <trkpt lat="44.86522" lon="0.3626">
        <ele>26.6</ele>
        <time>2022-04-05T13:03:06Z</time>
      </trkpt>
      <trkpt lat="44.86522" lon="0.36262">
        <ele>26.6</ele>
        <time>2022-04-05T13:03:07Z</time>
      </trkpt>
      <trkpt lat="44.86522" lon="0.36263">
        <ele>26.7</ele>
        <time>2022-04-05T13:03:08Z</time>
      </trkpt>
      <trkpt lat="44.86522" lon="0.36265">
        <ele>26.7</ele>
        <time>2022-04-05T13:03:09Z</time>
      </trkpt>
      <trkpt lat="44.86521" lon="0.36267">
        <ele>26.7</ele>
        <time>2022-04-05T13:03:10Z</time>
      </trkpt>
      <trkpt lat="44.86521" lon="0.3627">
        <ele>26.7</ele>
        <time>2022-04-05T13:03:11Z</time>
      </trkpt>
      <trkpt lat="44.86521" lon="0.36272">
        <ele>26.7</ele>
        <time>2022-04-05T13:03:12Z</time>
      </trkpt>
      <trkpt lat="44.86521" lon="0.36273">
        <ele>26.7</ele>
        <time>2022-04-05T13:03:13Z</time>
      </trkpt>
      <trkpt lat="44.86521" lon="0.36276">
        <ele>26.7</ele>
        <time>2022-04-05T13:03:14Z</time>
      </trkpt>
      <trkpt lat="44.86521" lon="0.36277">
        <ele>26.7</ele>
        <time>2022-04-05T13:03:16Z</time>
      </trkpt>
      <trkpt lat="44.8652" lon="0.36279">
        <ele>26.7</ele>
        <time>2022-04-05T13:03:17Z</time>
      </trkpt>
      <trkpt lat="44.8652" lon="0.36281">
        <ele>26.7</ele>
        <time>2022-04-05T13:03:18Z</time>
      </trkpt>
      <trkpt lat="44.8652" lon="0.36283">
        <ele>26.7</ele>
        <time>2022-04-05T13:03:19Z</time>
      </trkpt>
      <trkpt lat="44.8652" lon="0.36285">
        <ele>26.7</ele>
        <time>2022-04-05T13:03:20Z</time>
      </trkpt>
      <trkpt lat="44.86519" lon="0.36286">
        <ele>26.7</ele>
        <time>2022-04-05T13:03:21Z</time>
      </trkpt>
      <trkpt lat="44.86519" lon="0.36288">
        <ele>26.8</ele>
        <time>2022-04-05T13:03:22Z</time>
      </trkpt>
      <trkpt lat="44.86519" lon="0.3629">
        <ele>26.8</ele>
        <time>2022-04-05T13:03:24Z</time>
      </trkpt>
      <trkpt lat="44.86518" lon="0.36292">
        <ele>26.8</ele>
        <time>2022-04-05T13:03:25Z</time>
      </trkpt>
      <trkpt lat="44.86518" lon="0.36294">
        <ele>26.8</ele>
        <time>2022-04-05T13:03:26Z</time>
      </trkpt>
      <trkpt lat="44.86517" lon="0.36297">
        <ele>26.8</ele>
        <time>2022-04-05T13:03:27Z</time>
      </trkpt>
      <trkpt lat="44.86517" lon="0.36298">
        <ele>26.8</ele>
        <time>2022-04-05T13:03:28Z</time>
      </trkpt>
      <trkpt lat="44.86517" lon="0.36299">
        <ele>26.8</ele>
        <time>2022-04-05T13:03:29Z</time>
      </trkpt>
      <trkpt lat="44.86517" lon="0.36301">
        <ele>26.8</ele>
        <time>2022-04-05T13:03:30Z</time>
      </trkpt>
      <trkpt lat="44.86517" lon="0.36302">
        <ele>26.8</ele>
        <time>2022-04-05T13:03:31Z</time>
      </trkpt>
      <trkpt lat="44.86516" lon="0.36304">
        <ele>26.8</ele>
        <time>2022-04-05T13:03:32Z</time>
      </trkpt>
      <trkpt lat="44.86516" lon="0.36306">
        <ele>26.8</ele>
        <time>2022-04-05T13:03:33Z</time>
      </trkpt>
      <trkpt lat="44.86516" lon="0.36308">
        <ele>26.8</ele>
        <time>2022-04-05T13:03:34Z</time>
      </trkpt>
      <trkpt lat="44.86515" lon="0.36311">
        <ele>26.9</ele>
        <time>2022-04-05T13:03:35Z</time>
      </trkpt>
      <trkpt lat="44.86515" lon="0.36312">
        <ele>26.9</ele>
        <time>2022-04-05T13:03:36Z</time>
      </trkpt>
      <trkpt lat="44.86515" lon="0.36314">
        <ele>26.9</ele>
        <time>2022-04-05T13:03:37Z</time>
      </trkpt>
      <trkpt lat="44.86515" lon="0.36315">
        <ele>26.9</ele>
        <time>2022-04-05T13:03:38Z</time>
      </trkpt>
      <trkpt lat="44.86514" lon="0.36317">
        <ele>26.9</ele>
        <time>2022-04-05T13:03:39Z</time>
      </trkpt>
      <trkpt lat="44.86514" lon="0.3632">
        <ele>26.9</ele>
        <time>2022-04-05T13:03:40Z</time>
      </trkpt>
      <trkpt lat="44.86514" lon="0.36321">
        <ele>26.9</ele>
        <time>2022-04-05T13:03:41Z</time>
      </trkpt>
      <trkpt lat="44.86513" lon="0.36324">
        <ele>26.9</ele>
        <time>2022-04-05T13:03:42Z</time>
      </trkpt>
      <trkpt lat="44.86513" lon="0.36325">
        <ele>26.9</ele>
        <time>2022-04-05T13:03:43Z</time>
      </trkpt>
      <trkpt lat="44.86513" lon="0.36326">
        <ele>26.9</ele>
        <time>2022-04-05T13:03:44Z</time>
      </trkpt>
      <trkpt lat="44.86512" lon="0.36327">
        <ele>26.9</ele>
        <time>2022-04-05T13:03:45Z</time>
      </trkpt>
      <trkpt lat="44.86513" lon="0.36329">
        <ele>27</ele>
        <time>2022-04-05T13:03:46Z</time>
      </trkpt>
      <trkpt lat="44.86513" lon="0.36331">
        <ele>27</ele>
        <time>2022-04-05T13:03:47Z</time>
      </trkpt>
      <trkpt lat="44.86512" lon="0.36334">
        <ele>27</ele>
        <time>2022-04-05T13:03:48Z</time>
      </trkpt>
      <trkpt lat="44.86512" lon="0.36335">
        <ele>27</ele>
        <time>2022-04-05T13:03:49Z</time>
      </trkpt>
      <trkpt lat="44.86512" lon="0.36337">
        <ele>27</ele>
        <time>2022-04-05T13:03:50Z</time>
      </trkpt>
      <trkpt lat="44.86511" lon="0.36338">
        <ele>27</ele>
        <time>2022-04-05T13:03:51Z</time>
      </trkpt>
      <trkpt lat="44.86511" lon="0.36342">
        <ele>27</ele>
        <time>2022-04-05T13:03:53Z</time>
      </trkpt>
      <trkpt lat="44.86511" lon="0.36342">
        <ele>27.1</ele>
        <time>2022-04-05T13:03:54Z</time>
      </trkpt>
      <trkpt lat="44.8651" lon="0.36344">
        <ele>27.1</ele>
        <time>2022-04-05T13:03:55Z</time>
      </trkpt>
      <trkpt lat="44.8651" lon="0.36346">
        <ele>27.1</ele>
        <time>2022-04-05T13:03:56Z</time>
      </trkpt>
      <trkpt lat="44.8651" lon="0.36348">
        <ele>27.1</ele>
        <time>2022-04-05T13:03:57Z</time>
      </trkpt>
      <trkpt lat="44.8651" lon="0.36351">
        <ele>27.1</ele>
        <time>2022-04-05T13:03:58Z</time>
      </trkpt>
      <trkpt lat="44.8651" lon="0.36353">
        <ele>27.1</ele>
        <time>2022-04-05T13:03:59Z</time>
      </trkpt>
      <trkpt lat="44.8651" lon="0.36355">
        <ele>27.1</ele>
        <time>2022-04-05T13:04:00Z</time>
      </trkpt>
      <trkpt lat="44.8651" lon="0.36356">
        <ele>27.2</ele>
        <time>2022-04-05T13:04:01Z</time>
      </trkpt>
      <trkpt lat="44.8651" lon="0.3636">
        <ele>27.2</ele>
        <time>2022-04-05T13:04:02Z</time>
      </trkpt>
      <trkpt lat="44.86511" lon="0.36361">
        <ele>27.2</ele>
        <time>2022-04-05T13:04:03Z</time>
      </trkpt>
      <trkpt lat="44.86511" lon="0.36365">
        <ele>27.2</ele>
        <time>2022-04-05T13:04:04Z</time>
      </trkpt>
      <trkpt lat="44.86511" lon="0.36367">
        <ele>27.2</ele>
        <time>2022-04-05T13:04:06Z</time>
      </trkpt>
      <trkpt lat="44.8651" lon="0.36369">
        <ele>27.2</ele>
        <time>2022-04-05T13:04:07Z</time>
      </trkpt>
      <trkpt lat="44.8651" lon="0.36371">
        <ele>27.2</ele>
        <time>2022-04-05T13:04:08Z</time>
      </trkpt>
      <trkpt lat="44.86511" lon="0.36372">
        <ele>27.2</ele>
        <time>2022-04-05T13:04:09Z</time>
      </trkpt>
      <trkpt lat="44.86511" lon="0.36374">
        <ele>27.2</ele>
        <time>2022-04-05T13:04:10Z</time>
      </trkpt>
      <trkpt lat="44.86511" lon="0.36376">
        <ele>27.2</ele>
        <time>2022-04-05T13:04:11Z</time>
      </trkpt>
      <trkpt lat="44.86511" lon="0.36377">
        <ele>27.2</ele>
        <time>2022-04-05T13:04:12Z</time>
      </trkpt>
      <trkpt lat="44.86511" lon="0.3638">
        <ele>27.2</ele>
        <time>2022-04-05T13:04:13Z</time>
      </trkpt>
      <trkpt lat="44.86511" lon="0.36381">
        <ele>27.2</ele>
        <time>2022-04-05T13:04:14Z</time>
      </trkpt>
      <trkpt lat="44.86511" lon="0.36383">
        <ele>27.2</ele>
        <time>2022-04-05T13:04:15Z</time>
      </trkpt>
      <trkpt lat="44.8651" lon="0.36385">
        <ele>27.2</ele>
        <time>2022-04-05T13:04:16Z</time>
      </trkpt>
      <trkpt lat="44.8651" lon="0.36386">
        <ele>27.2</ele>
        <time>2022-04-05T13:04:17Z</time>
      </trkpt>
      <trkpt lat="44.86509" lon="0.36389">
        <ele>27.2</ele>
        <time>2022-04-05T13:04:18Z</time>
      </trkpt>
      <trkpt lat="44.86509" lon="0.3639">
        <ele>27.2</ele>
        <time>2022-04-05T13:04:19Z</time>
      </trkpt>
      <trkpt lat="44.86508" lon="0.36391">
        <ele>27.2</ele>
        <time>2022-04-05T13:04:20Z</time>
      </trkpt>
      <trkpt lat="44.86507" lon="0.36392">
        <ele>27.2</ele>
        <time>2022-04-05T13:04:21Z</time>
      </trkpt>
      <trkpt lat="44.86507" lon="0.36393">
        <ele>27.2</ele>
        <time>2022-04-05T13:04:22Z</time>
      </trkpt>
      <trkpt lat="44.86506" lon="0.36395">
        <ele>27.2</ele>
        <time>2022-04-05T13:04:23Z</time>
      </trkpt>
      <trkpt lat="44.86506" lon="0.36397">
        <ele>27.2</ele>
        <time>2022-04-05T13:04:25Z</time>
      </trkpt>
      <trkpt lat="44.86506" lon="0.36398">
        <ele>27.2</ele>
        <time>2022-04-05T13:04:26Z</time>
      </trkpt>
      <trkpt lat="44.86505" lon="0.364">
        <ele>27.2</ele>
        <time>2022-04-05T13:04:27Z</time>
      </trkpt>
      <trkpt lat="44.86505" lon="0.36404">
        <ele>27.2</ele>
        <time>2022-04-05T13:04:28Z</time>
      </trkpt>
      <trkpt lat="44.86505" lon="0.36406">
        <ele>27.2</ele>
        <time>2022-04-05T13:04:29Z</time>
      </trkpt>
      <trkpt lat="44.86505" lon="0.36407">
        <ele>27.2</ele>
        <time>2022-04-05T13:04:30Z</time>
      </trkpt>
      <trkpt lat="44.86505" lon="0.36409">
        <ele>27.2</ele>
        <time>2022-04-05T13:04:31Z</time>
      </trkpt>
      <trkpt lat="44.86505" lon="0.36412">
        <ele>27.2</ele>
        <time>2022-04-05T13:04:34Z</time>
      </trkpt>
      <trkpt lat="44.86505" lon="0.36413">
        <ele>27.2</ele>
        <time>2022-04-05T13:04:35Z</time>
      </trkpt>
      <trkpt lat="44.86505" lon="0.36415">
        <ele>27.2</ele>
        <time>2022-04-05T13:04:36Z</time>
      </trkpt>
      <trkpt lat="44.86504" lon="0.36417">
        <ele>27.2</ele>
        <time>2022-04-05T13:04:37Z</time>
      </trkpt>
      <trkpt lat="44.86504" lon="0.36419">
        <ele>27.2</ele>
        <time>2022-04-05T13:04:38Z</time>
      </trkpt>
      <trkpt lat="44.86504" lon="0.36422">
        <ele>27.2</ele>
        <time>2022-04-05T13:04:39Z</time>
      </trkpt>
      <trkpt lat="44.86504" lon="0.36423">
        <ele>27.2</ele>
        <time>2022-04-05T13:04:40Z</time>
      </trkpt>
      <trkpt lat="44.86503" lon="0.36425">
        <ele>27.2</ele>
        <time>2022-04-05T13:04:41Z</time>
      </trkpt>
      <trkpt lat="44.86503" lon="0.36427">
        <ele>27.2</ele>
        <time>2022-04-05T13:04:42Z</time>
      </trkpt>
      <trkpt lat="44.86502" lon="0.36428">
        <ele>27.2</ele>
        <time>2022-04-05T13:04:43Z</time>
      </trkpt>
      <trkpt lat="44.86502" lon="0.36431">
        <ele>27.2</ele>
        <time>2022-04-05T13:04:44Z</time>
      </trkpt>
      <trkpt lat="44.86501" lon="0.36432">
        <ele>27.2</ele>
        <time>2022-04-05T13:04:45Z</time>
      </trkpt>
      <trkpt lat="44.86501" lon="0.36434">
        <ele>27.2</ele>
        <time>2022-04-05T13:04:46Z</time>
      </trkpt>
      <trkpt lat="44.865" lon="0.36435">
        <ele>27.2</ele>
        <time>2022-04-05T13:04:47Z</time>
      </trkpt>
      <trkpt lat="44.865" lon="0.36437">
        <ele>27.2</ele>
        <time>2022-04-05T13:04:48Z</time>
      </trkpt>
      <trkpt lat="44.86499" lon="0.3644">
        <ele>27.2</ele>
        <time>2022-04-05T13:04:49Z</time>
      </trkpt>
      <trkpt lat="44.86498" lon="0.36442">
        <ele>27.2</ele>
        <time>2022-04-05T13:04:50Z</time>
      </trkpt>
      <trkpt lat="44.86498" lon="0.36443">
        <ele>27.2</ele>
        <time>2022-04-05T13:04:51Z</time>
      </trkpt>
      <trkpt lat="44.86497" lon="0.36444">
        <ele>27.2</ele>
        <time>2022-04-05T13:04:52Z</time>
      </trkpt>
      <trkpt lat="44.86497" lon="0.36447">
        <ele>27.1</ele>
        <time>2022-04-05T13:04:53Z</time>
      </trkpt>
      <trkpt lat="44.86497" lon="0.36447">
        <ele>27.1</ele>
        <time>2022-04-05T13:04:55Z</time>
      </trkpt>
      <trkpt lat="44.86497" lon="0.36449">
        <ele>27.1</ele>
        <time>2022-04-05T13:04:56Z</time>
      </trkpt>
      <trkpt lat="44.86497" lon="0.3645">
        <ele>27.1</ele>
        <time>2022-04-05T13:04:57Z</time>
      </trkpt>
      <trkpt lat="44.86497" lon="0.36454">
        <ele>27.1</ele>
        <time>2022-04-05T13:04:58Z</time>
      </trkpt>
      <trkpt lat="44.86497" lon="0.36454">
        <ele>27.1</ele>
        <time>2022-04-05T13:04:59Z</time>
      </trkpt>
      <trkpt lat="44.86497" lon="0.36456">
        <ele>27.1</ele>
        <time>2022-04-05T13:05:00Z</time>
      </trkpt>
      <trkpt lat="44.86496" lon="0.36458">
        <ele>27.1</ele>
        <time>2022-04-05T13:05:02Z</time>
      </trkpt>
      <trkpt lat="44.86496" lon="0.3646">
        <ele>27.1</ele>
        <time>2022-04-05T13:05:03Z</time>
      </trkpt>
      <trkpt lat="44.86495" lon="0.36462">
        <ele>27.1</ele>
        <time>2022-04-05T13:05:04Z</time>
      </trkpt>
      <trkpt lat="44.86495" lon="0.36463">
        <ele>27.1</ele>
        <time>2022-04-05T13:05:05Z</time>
      </trkpt>
      <trkpt lat="44.86495" lon="0.36465">
        <ele>27.1</ele>
        <time>2022-04-05T13:05:06Z</time>
      </trkpt>
      <trkpt lat="44.86494" lon="0.36466">
        <ele>27.1</ele>
        <time>2022-04-05T13:05:07Z</time>
      </trkpt>
      <trkpt lat="44.86494" lon="0.36467">
        <ele>27.1</ele>
        <time>2022-04-05T13:05:08Z</time>
      </trkpt>
      <trkpt lat="44.86493" lon="0.3647">
        <ele>27.1</ele>
        <time>2022-04-05T13:05:09Z</time>
      </trkpt>
      <trkpt lat="44.86493" lon="0.36471">
        <ele>27.1</ele>
        <time>2022-04-05T13:05:10Z</time>
      </trkpt>
      <trkpt lat="44.86492" lon="0.36472">
        <ele>27.1</ele>
        <time>2022-04-05T13:05:11Z</time>
      </trkpt>
      <trkpt lat="44.86492" lon="0.36473">
        <ele>27.1</ele>
        <time>2022-04-05T13:05:12Z</time>
      </trkpt>
      <trkpt lat="44.86492" lon="0.36475">
        <ele>27.1</ele>
        <time>2022-04-05T13:05:13Z</time>
      </trkpt>
      <trkpt lat="44.86491" lon="0.36477">
        <ele>27.1</ele>
        <time>2022-04-05T13:05:14Z</time>
      </trkpt>
      <trkpt lat="44.8649" lon="0.3648">
        <ele>27.1</ele>
        <time>2022-04-05T13:05:15Z</time>
      </trkpt>
      <trkpt lat="44.8649" lon="0.36481">
        <ele>27.1</ele>
        <time>2022-04-05T13:05:16Z</time>
      </trkpt>
      <trkpt lat="44.8649" lon="0.36482">
        <ele>27.1</ele>
        <time>2022-04-05T13:05:17Z</time>
      </trkpt>
      <trkpt lat="44.86489" lon="0.36485">
        <ele>27.1</ele>
        <time>2022-04-05T13:05:18Z</time>
      </trkpt>
      <trkpt lat="44.86489" lon="0.36486">
        <ele>27.1</ele>
        <time>2022-04-05T13:05:19Z</time>
      </trkpt>
      <trkpt lat="44.86489" lon="0.36487">
        <ele>27.1</ele>
        <time>2022-04-05T13:05:20Z</time>
      </trkpt>
      <trkpt lat="44.86489" lon="0.36488">
        <ele>27.1</ele>
        <time>2022-04-05T13:05:21Z</time>
      </trkpt>
      <trkpt lat="44.86488" lon="0.3649">
        <ele>27.1</ele>
        <time>2022-04-05T13:05:22Z</time>
      </trkpt>
      <trkpt lat="44.86488" lon="0.36494">
        <ele>27.1</ele>
        <time>2022-04-05T13:05:24Z</time>
      </trkpt>
      <trkpt lat="44.86487" lon="0.36495">
        <ele>27.1</ele>
        <time>2022-04-05T13:05:25Z</time>
      </trkpt>
      <trkpt lat="44.86487" lon="0.36498">
        <ele>27.1</ele>
        <time>2022-04-05T13:05:26Z</time>
      </trkpt>
      <trkpt lat="44.86487" lon="0.36499">
        <ele>27.1</ele>
        <time>2022-04-05T13:05:27Z</time>
      </trkpt>
      <trkpt lat="44.86487" lon="0.365">
        <ele>27.1</ele>
        <time>2022-04-05T13:05:28Z</time>
      </trkpt>
      <trkpt lat="44.86486" lon="0.36503">
        <ele>27</ele>
        <time>2022-04-05T13:05:29Z</time>
      </trkpt>
      <trkpt lat="44.86486" lon="0.36504">
        <ele>27</ele>
        <time>2022-04-05T13:05:30Z</time>
      </trkpt>
      <trkpt lat="44.86486" lon="0.36507">
        <ele>27</ele>
        <time>2022-04-05T13:05:31Z</time>
      </trkpt>
      <trkpt lat="44.86485" lon="0.36509">
        <ele>27</ele>
        <time>2022-04-05T13:05:32Z</time>
      </trkpt>
      <trkpt lat="44.86485" lon="0.36511">
        <ele>27</ele>
        <time>2022-04-05T13:05:33Z</time>
      </trkpt>
      <trkpt lat="44.86485" lon="0.36513">
        <ele>27</ele>
        <time>2022-04-05T13:05:34Z</time>
      </trkpt>
      <trkpt lat="44.86485" lon="0.36514">
        <ele>27</ele>
        <time>2022-04-05T13:05:35Z</time>
      </trkpt>
      <trkpt lat="44.86485" lon="0.36515">
        <ele>27</ele>
        <time>2022-04-05T13:05:36Z</time>
      </trkpt>
      <trkpt lat="44.86485" lon="0.36517">
        <ele>27</ele>
        <time>2022-04-05T13:05:37Z</time>
      </trkpt>
      <trkpt lat="44.86484" lon="0.3652">
        <ele>27</ele>
        <time>2022-04-05T13:05:38Z</time>
      </trkpt>
      <trkpt lat="44.86484" lon="0.3652">
        <ele>27</ele>
        <time>2022-04-05T13:05:39Z</time>
      </trkpt>
      <trkpt lat="44.86483" lon="0.36523">
        <ele>27</ele>
        <time>2022-04-05T13:05:41Z</time>
      </trkpt>
      <trkpt lat="44.86482" lon="0.36524">
        <ele>27</ele>
        <time>2022-04-05T13:05:42Z</time>
      </trkpt>
      <trkpt lat="44.86482" lon="0.36525">
        <ele>27</ele>
        <time>2022-04-05T13:05:43Z</time>
      </trkpt>
      <trkpt lat="44.86481" lon="0.36528">
        <ele>27</ele>
        <time>2022-04-05T13:05:44Z</time>
      </trkpt>
      <trkpt lat="44.86481" lon="0.36529">
        <ele>27</ele>
        <time>2022-04-05T13:05:45Z</time>
      </trkpt>
      <trkpt lat="44.86481" lon="0.3653">
        <ele>26.9</ele>
        <time>2022-04-05T13:05:46Z</time>
      </trkpt>
      <trkpt lat="44.86481" lon="0.36534">
        <ele>26.9</ele>
        <time>2022-04-05T13:05:47Z</time>
      </trkpt>
      <trkpt lat="44.86481" lon="0.36535">
        <ele>26.9</ele>
        <time>2022-04-05T13:05:48Z</time>
      </trkpt>
      <trkpt lat="44.8648" lon="0.36537">
        <ele>26.9</ele>
        <time>2022-04-05T13:05:49Z</time>
      </trkpt>
      <trkpt lat="44.8648" lon="0.36539">
        <ele>26.9</ele>
        <time>2022-04-05T13:05:50Z</time>
      </trkpt>
      <trkpt lat="44.8648" lon="0.36541">
        <ele>26.9</ele>
        <time>2022-04-05T13:05:52Z</time>
      </trkpt>
      <trkpt lat="44.8648" lon="0.36543">
        <ele>26.9</ele>
        <time>2022-04-05T13:05:53Z</time>
      </trkpt>
      <trkpt lat="44.8648" lon="0.36545">
        <ele>26.9</ele>
        <time>2022-04-05T13:05:54Z</time>
      </trkpt>
      <trkpt lat="44.8648" lon="0.36548">
        <ele>26.9</ele>
        <time>2022-04-05T13:05:55Z</time>
      </trkpt>
      <trkpt lat="44.8648" lon="0.36549">
        <ele>26.9</ele>
        <time>2022-04-05T13:05:56Z</time>
      </trkpt>
      <trkpt lat="44.8648" lon="0.36551">
        <ele>26.9</ele>
        <time>2022-04-05T13:05:57Z</time>
      </trkpt>
      <trkpt lat="44.8648" lon="0.36553">
        <ele>26.9</ele>
        <time>2022-04-05T13:05:58Z</time>
      </trkpt>
      <trkpt lat="44.8648" lon="0.36555">
        <ele>26.9</ele>
        <time>2022-04-05T13:05:59Z</time>
      </trkpt>
      <trkpt lat="44.8648" lon="0.36556">
        <ele>26.9</ele>
        <time>2022-04-05T13:06:00Z</time>
      </trkpt>
      <trkpt lat="44.8648" lon="0.36557">
        <ele>26.9</ele>
        <time>2022-04-05T13:06:01Z</time>
      </trkpt>
      <trkpt lat="44.8648" lon="0.36559">
        <ele>26.9</ele>
        <time>2022-04-05T13:06:02Z</time>
      </trkpt>
      <trkpt lat="44.86481" lon="0.36561">
        <ele>26.9</ele>
        <time>2022-04-05T13:06:03Z</time>
      </trkpt>
      <trkpt lat="44.86481" lon="0.36563">
        <ele>26.9</ele>
        <time>2022-04-05T13:06:04Z</time>
      </trkpt>
      <trkpt lat="44.86481" lon="0.36565">
        <ele>26.9</ele>
        <time>2022-04-05T13:06:05Z</time>
      </trkpt>
      <trkpt lat="44.86481" lon="0.36566">
        <ele>26.9</ele>
        <time>2022-04-05T13:06:06Z</time>
      </trkpt>
      <trkpt lat="44.86481" lon="0.36569">
        <ele>26.9</ele>
        <time>2022-04-05T13:06:08Z</time>
      </trkpt>
      <trkpt lat="44.86482" lon="0.36571">
        <ele>26.9</ele>
        <time>2022-04-05T13:06:09Z</time>
      </trkpt>
      <trkpt lat="44.86482" lon="0.36572">
        <ele>26.9</ele>
        <time>2022-04-05T13:06:10Z</time>
      </trkpt>
      <trkpt lat="44.86482" lon="0.36574">
        <ele>26.9</ele>
        <time>2022-04-05T13:06:11Z</time>
      </trkpt>
      <trkpt lat="44.86483" lon="0.36576">
        <ele>26.9</ele>
        <time>2022-04-05T13:06:12Z</time>
      </trkpt>
      <trkpt lat="44.86483" lon="0.36578">
        <ele>26.9</ele>
        <time>2022-04-05T13:06:13Z</time>
      </trkpt>
      <trkpt lat="44.86483" lon="0.36581">
        <ele>26.9</ele>
        <time>2022-04-05T13:06:14Z</time>
      </trkpt>
      <trkpt lat="44.86484" lon="0.36582">
        <ele>26.9</ele>
        <time>2022-04-05T13:06:15Z</time>
      </trkpt>
      <trkpt lat="44.86484" lon="0.36583">
        <ele>26.9</ele>
        <time>2022-04-05T13:06:16Z</time>
      </trkpt>
      <trkpt lat="44.86485" lon="0.36584">
        <ele>26.9</ele>
        <time>2022-04-05T13:06:17Z</time>
      </trkpt>
      <trkpt lat="44.86486" lon="0.36586">
        <ele>26.9</ele>
        <time>2022-04-05T13:06:18Z</time>
      </trkpt>
      <trkpt lat="44.86487" lon="0.36588">
        <ele>26.9</ele>
        <time>2022-04-05T13:06:19Z</time>
      </trkpt>
      <trkpt lat="44.86487" lon="0.36589">
        <ele>26.9</ele>
        <time>2022-04-05T13:06:20Z</time>
      </trkpt>
      <trkpt lat="44.86488" lon="0.36592">
        <ele>26.9</ele>
        <time>2022-04-05T13:06:22Z</time>
      </trkpt>
      <trkpt lat="44.86489" lon="0.36593">
        <ele>26.9</ele>
        <time>2022-04-05T13:06:23Z</time>
      </trkpt>
      <trkpt lat="44.8649" lon="0.36596">
        <ele>26.9</ele>
        <time>2022-04-05T13:06:24Z</time>
      </trkpt>
      <trkpt lat="44.8649" lon="0.36597">
        <ele>26.9</ele>
        <time>2022-04-05T13:06:25Z</time>
      </trkpt>
      <trkpt lat="44.8649" lon="0.36599">
        <ele>26.9</ele>
        <time>2022-04-05T13:06:26Z</time>
      </trkpt>
      <trkpt lat="44.86491" lon="0.366">
        <ele>26.9</ele>
        <time>2022-04-05T13:06:27Z</time>
      </trkpt>
      <trkpt lat="44.86491" lon="0.36602">
        <ele>26.9</ele>
        <time>2022-04-05T13:06:28Z</time>
      </trkpt>
      <trkpt lat="44.86492" lon="0.36605">
        <ele>26.9</ele>
        <time>2022-04-05T13:06:30Z</time>
      </trkpt>
      <trkpt lat="44.86493" lon="0.36606">
        <ele>26.9</ele>
        <time>2022-04-05T13:06:31Z</time>
      </trkpt>
      <trkpt lat="44.86493" lon="0.36608">
        <ele>26.9</ele>
        <time>2022-04-05T13:06:32Z</time>
      </trkpt>
      <trkpt lat="44.86494" lon="0.36611">
        <ele>26.9</ele>
        <time>2022-04-05T13:06:33Z</time>
      </trkpt>
      <trkpt lat="44.86495" lon="0.36613">
        <ele>26.9</ele>
        <time>2022-04-05T13:06:34Z</time>
      </trkpt>
      <trkpt lat="44.86495" lon="0.36614">
        <ele>26.9</ele>
        <time>2022-04-05T13:06:35Z</time>
      </trkpt>
      <trkpt lat="44.86495" lon="0.36616">
        <ele>26.9</ele>
        <time>2022-04-05T13:06:36Z</time>
      </trkpt>
      <trkpt lat="44.86496" lon="0.36618">
        <ele>26.9</ele>
        <time>2022-04-05T13:06:37Z</time>
      </trkpt>
      <trkpt lat="44.86497" lon="0.36621">
        <ele>26.9</ele>
        <time>2022-04-05T13:06:38Z</time>
      </trkpt>
      <trkpt lat="44.86497" lon="0.36623">
        <ele>26.9</ele>
        <time>2022-04-05T13:06:39Z</time>
      </trkpt>
      <trkpt lat="44.86497" lon="0.36624">
        <ele>26.9</ele>
        <time>2022-04-05T13:06:40Z</time>
      </trkpt>
      <trkpt lat="44.86498" lon="0.36626">
        <ele>26.9</ele>
        <time>2022-04-05T13:06:41Z</time>
      </trkpt>
      <trkpt lat="44.86499" lon="0.36627">
        <ele>26.9</ele>
        <time>2022-04-05T13:06:42Z</time>
      </trkpt>
      <trkpt lat="44.865" lon="0.36631">
        <ele>26.9</ele>
        <time>2022-04-05T13:06:43Z</time>
      </trkpt>
      <trkpt lat="44.865" lon="0.36633">
        <ele>26.9</ele>
        <time>2022-04-05T13:06:44Z</time>
      </trkpt>
      <trkpt lat="44.865" lon="0.36635">
        <ele>26.9</ele>
        <time>2022-04-05T13:06:45Z</time>
      </trkpt>
      <trkpt lat="44.86501" lon="0.36636">
        <ele>26.9</ele>
        <time>2022-04-05T13:06:46Z</time>
      </trkpt>
      <trkpt lat="44.86501" lon="0.36638">
        <ele>26.9</ele>
        <time>2022-04-05T13:06:47Z</time>
      </trkpt>
      <trkpt lat="44.86501" lon="0.36642">
        <ele>26.9</ele>
        <time>2022-04-05T13:06:48Z</time>
      </trkpt>
      <trkpt lat="44.86501" lon="0.36644">
        <ele>26.9</ele>
        <time>2022-04-05T13:06:50Z</time>
      </trkpt>
      <trkpt lat="44.86501" lon="0.36645">
        <ele>26.9</ele>
        <time>2022-04-05T13:06:51Z</time>
      </trkpt>
      <trkpt lat="44.86503" lon="0.36646">
        <ele>26.9</ele>
        <time>2022-04-05T13:06:52Z</time>
      </trkpt>
      <trkpt lat="44.86503" lon="0.36647">
        <ele>26.9</ele>
        <time>2022-04-05T13:06:53Z</time>
      </trkpt>
      <trkpt lat="44.86504" lon="0.36651">
        <ele>26.9</ele>
        <time>2022-04-05T13:06:54Z</time>
      </trkpt>
      <trkpt lat="44.86504" lon="0.36652">
        <ele>26.9</ele>
        <time>2022-04-05T13:06:55Z</time>
      </trkpt>
      <trkpt lat="44.86504" lon="0.36654">
        <ele>26.9</ele>
        <time>2022-04-05T13:06:56Z</time>
      </trkpt>
      <trkpt lat="44.86505" lon="0.36655">
        <ele>26.9</ele>
        <time>2022-04-05T13:06:57Z</time>
      </trkpt>
      <trkpt lat="44.86505" lon="0.36656">
        <ele>26.9</ele>
        <time>2022-04-05T13:06:58Z</time>
      </trkpt>
      <trkpt lat="44.86506" lon="0.3666">
        <ele>27</ele>
        <time>2022-04-05T13:07:00Z</time>
      </trkpt>
      <trkpt lat="44.86507" lon="0.36661">
        <ele>27</ele>
        <time>2022-04-05T13:07:01Z</time>
      </trkpt>
      <trkpt lat="44.86508" lon="0.36662">
        <ele>27</ele>
        <time>2022-04-05T13:07:02Z</time>
      </trkpt>
      <trkpt lat="44.86508" lon="0.36663">
        <ele>27</ele>
        <time>2022-04-05T13:07:03Z</time>
      </trkpt>
      <trkpt lat="44.86509" lon="0.36666">
        <ele>27</ele>
        <time>2022-04-05T13:07:04Z</time>
      </trkpt>
      <trkpt lat="44.86509" lon="0.36666">
        <ele>27</ele>
        <time>2022-04-05T13:07:05Z</time>
      </trkpt>
      <trkpt lat="44.86509" lon="0.36667">
        <ele>27</ele>
        <time>2022-04-05T13:07:06Z</time>
      </trkpt>
      <trkpt lat="44.86509" lon="0.36668">
        <ele>27</ele>
        <time>2022-04-05T13:07:07Z</time>
      </trkpt>
      <trkpt lat="44.86509" lon="0.3667">
        <ele>27</ele>
        <time>2022-04-05T13:07:08Z</time>
      </trkpt>
      <trkpt lat="44.86509" lon="0.36673">
        <ele>27</ele>
        <time>2022-04-05T13:07:10Z</time>
      </trkpt>
      <trkpt lat="44.86509" lon="0.36674">
        <ele>27</ele>
        <time>2022-04-05T13:07:11Z</time>
      </trkpt>
      <trkpt lat="44.86509" lon="0.36676">
        <ele>27.1</ele>
        <time>2022-04-05T13:07:12Z</time>
      </trkpt>
      <trkpt lat="44.86509" lon="0.36677">
        <ele>27.1</ele>
        <time>2022-04-05T13:07:13Z</time>
      </trkpt>
      <trkpt lat="44.86508" lon="0.3668">
        <ele>27.1</ele>
        <time>2022-04-05T13:07:14Z</time>
      </trkpt>
      <trkpt lat="44.86507" lon="0.36681">
        <ele>27.1</ele>
        <time>2022-04-05T13:07:15Z</time>
      </trkpt>
      <trkpt lat="44.86507" lon="0.36684">
        <ele>27.1</ele>
        <time>2022-04-05T13:07:16Z</time>
      </trkpt>
      <trkpt lat="44.86508" lon="0.36686">
        <ele>27.1</ele>
        <time>2022-04-05T13:07:17Z</time>
      </trkpt>
      <trkpt lat="44.86508" lon="0.36687">
        <ele>27.2</ele>
        <time>2022-04-05T13:07:18Z</time>
      </trkpt>
      <trkpt lat="44.86508" lon="0.3669">
        <ele>27.2</ele>
        <time>2022-04-05T13:07:20Z</time>
      </trkpt>
      <trkpt lat="44.86508" lon="0.36691">
        <ele>27.2</ele>
        <time>2022-04-05T13:07:21Z</time>
      </trkpt>
      <trkpt lat="44.86508" lon="0.36695">
        <ele>27.2</ele>
        <time>2022-04-05T13:07:22Z</time>
      </trkpt>
      <trkpt lat="44.86508" lon="0.36696">
        <ele>27.2</ele>
        <time>2022-04-05T13:07:23Z</time>
      </trkpt>
      <trkpt lat="44.86507" lon="0.36698">
        <ele>27.3</ele>
        <time>2022-04-05T13:07:24Z</time>
      </trkpt>
      <trkpt lat="44.86507" lon="0.36698">
        <ele>27.3</ele>
        <time>2022-04-05T13:07:25Z</time>
      </trkpt>
      <trkpt lat="44.86506" lon="0.36699">
        <ele>27.3</ele>
        <time>2022-04-05T13:07:26Z</time>
      </trkpt>
      <trkpt lat="44.86506" lon="0.36701">
        <ele>27.3</ele>
        <time>2022-04-05T13:07:27Z</time>
      </trkpt>
      <trkpt lat="44.86506" lon="0.36703">
        <ele>27.3</ele>
        <time>2022-04-05T13:07:28Z</time>
      </trkpt>
      <trkpt lat="44.86505" lon="0.36706">
        <ele>27.3</ele>
        <time>2022-04-05T13:07:29Z</time>
      </trkpt>
      <trkpt lat="44.86506" lon="0.36707">
        <ele>27.4</ele>
        <time>2022-04-05T13:07:30Z</time>
      </trkpt>
      <trkpt lat="44.86506" lon="0.36709">
        <ele>27.4</ele>
        <time>2022-04-05T13:07:31Z</time>
      </trkpt>
      <trkpt lat="44.86506" lon="0.36711">
        <ele>27.4</ele>
        <time>2022-04-05T13:07:32Z</time>
      </trkpt>
      <trkpt lat="44.86507" lon="0.36712">
        <ele>27.4</ele>
        <time>2022-04-05T13:07:33Z</time>
      </trkpt>
      <trkpt lat="44.86507" lon="0.36713">
        <ele>27.4</ele>
        <time>2022-04-05T13:07:34Z</time>
      </trkpt>
      <trkpt lat="44.86507" lon="0.36714">
        <ele>27.4</ele>
        <time>2022-04-05T13:07:35Z</time>
      </trkpt>
      <trkpt lat="44.86507" lon="0.36715">
        <ele>27.4</ele>
        <time>2022-04-05T13:07:36Z</time>
      </trkpt>
      <trkpt lat="44.86506" lon="0.36716">
        <ele>27.4</ele>
        <time>2022-04-05T13:07:37Z</time>
      </trkpt>
      <trkpt lat="44.86506" lon="0.36718">
        <ele>27.5</ele>
        <time>2022-04-05T13:07:38Z</time>
      </trkpt>
      <trkpt lat="44.86505" lon="0.36719">
        <ele>27.5</ele>
        <time>2022-04-05T13:07:39Z</time>
      </trkpt>
      <trkpt lat="44.86505" lon="0.3672">
        <ele>27.5</ele>
        <time>2022-04-05T13:07:40Z</time>
      </trkpt>
      <trkpt lat="44.86505" lon="0.36722">
        <ele>27.5</ele>
        <time>2022-04-05T13:07:41Z</time>
      </trkpt>
      <trkpt lat="44.86505" lon="0.36724">
        <ele>27.5</ele>
        <time>2022-04-05T13:07:42Z</time>
      </trkpt>
      <trkpt lat="44.86505" lon="0.36726">
        <ele>27.5</ele>
        <time>2022-04-05T13:07:43Z</time>
      </trkpt>
      <trkpt lat="44.86504" lon="0.36728">
        <ele>27.6</ele>
        <time>2022-04-05T13:07:44Z</time>
      </trkpt>
      <trkpt lat="44.86504" lon="0.3673">
        <ele>27.6</ele>
        <time>2022-04-05T13:07:46Z</time>
      </trkpt>
      <trkpt lat="44.86503" lon="0.36732">
        <ele>27.6</ele>
        <time>2022-04-05T13:07:47Z</time>
      </trkpt>
      <trkpt lat="44.86502" lon="0.36736">
        <ele>27.6</ele>
        <time>2022-04-05T13:07:48Z</time>
      </trkpt>
      <trkpt lat="44.86502" lon="0.36738">
        <ele>27.6</ele>
        <time>2022-04-05T13:07:49Z</time>
      </trkpt>
      <trkpt lat="44.86502" lon="0.36739">
        <ele>27.6</ele>
        <time>2022-04-05T13:07:50Z</time>
      </trkpt>
      <trkpt lat="44.86502" lon="0.3674">
        <ele>27.6</ele>
        <time>2022-04-05T13:07:51Z</time>
      </trkpt>
      <trkpt lat="44.86501" lon="0.36742">
        <ele>27.6</ele>
        <time>2022-04-05T13:07:52Z</time>
      </trkpt>
      <trkpt lat="44.86501" lon="0.36744">
        <ele>27.6</ele>
        <time>2022-04-05T13:07:53Z</time>
      </trkpt>
      <trkpt lat="44.86501" lon="0.36746">
        <ele>27.7</ele>
        <time>2022-04-05T13:07:54Z</time>
      </trkpt>
      <trkpt lat="44.86501" lon="0.36747">
        <ele>27.7</ele>
        <time>2022-04-05T13:07:55Z</time>
      </trkpt>
      <trkpt lat="44.865" lon="0.36749">
        <ele>27.7</ele>
        <time>2022-04-05T13:07:57Z</time>
      </trkpt>
      <trkpt lat="44.865" lon="0.36751">
        <ele>27.7</ele>
        <time>2022-04-05T13:07:58Z</time>
      </trkpt>
      <trkpt lat="44.865" lon="0.36753">
        <ele>27.7</ele>
        <time>2022-04-05T13:07:59Z</time>
      </trkpt>
      <trkpt lat="44.86499" lon="0.36754">
        <ele>27.7</ele>
        <time>2022-04-05T13:08:00Z</time>
      </trkpt>
      <trkpt lat="44.86499" lon="0.36756">
        <ele>27.7</ele>
        <time>2022-04-05T13:08:01Z</time>
      </trkpt>
      <trkpt lat="44.86499" lon="0.36758">
        <ele>27.7</ele>
        <time>2022-04-05T13:08:02Z</time>
      </trkpt>
      <trkpt lat="44.86498" lon="0.36763">
        <ele>27.7</ele>
        <time>2022-04-05T13:08:04Z</time>
      </trkpt>
      <trkpt lat="44.86498" lon="0.36764">
        <ele>27.7</ele>
        <time>2022-04-05T13:08:05Z</time>
      </trkpt>
      <trkpt lat="44.86498" lon="0.36766">
        <ele>27.7</ele>
        <time>2022-04-05T13:08:06Z</time>
      </trkpt>
      <trkpt lat="44.86498" lon="0.36768">
        <ele>27.8</ele>
        <time>2022-04-05T13:08:07Z</time>
      </trkpt>
      <trkpt lat="44.86497" lon="0.36771">
        <ele>27.8</ele>
        <time>2022-04-05T13:08:08Z</time>
      </trkpt>
      <trkpt lat="44.86497" lon="0.36773">
        <ele>27.8</ele>
        <time>2022-04-05T13:08:09Z</time>
      </trkpt>
      <trkpt lat="44.86496" lon="0.36775">
        <ele>27.8</ele>
        <time>2022-04-05T13:08:10Z</time>
      </trkpt>
      <trkpt lat="44.86496" lon="0.36777">
        <ele>27.8</ele>
        <time>2022-04-05T13:08:12Z</time>
      </trkpt>
      <trkpt lat="44.86496" lon="0.36778">
        <ele>27.8</ele>
        <time>2022-04-05T13:08:13Z</time>
      </trkpt>
      <trkpt lat="44.86495" lon="0.36782">
        <ele>27.8</ele>
        <time>2022-04-05T13:08:14Z</time>
      </trkpt>
      <trkpt lat="44.86495" lon="0.36783">
        <ele>27.8</ele>
        <time>2022-04-05T13:08:15Z</time>
      </trkpt>
      <trkpt lat="44.86495" lon="0.36785">
        <ele>27.8</ele>
        <time>2022-04-05T13:08:16Z</time>
      </trkpt>
      <trkpt lat="44.86495" lon="0.36787">
        <ele>27.8</ele>
        <time>2022-04-05T13:08:17Z</time>
      </trkpt>
      <trkpt lat="44.86495" lon="0.36789">
        <ele>27.8</ele>
        <time>2022-04-05T13:08:18Z</time>
      </trkpt>
      <trkpt lat="44.86495" lon="0.36792">
        <ele>27.8</ele>
        <time>2022-04-05T13:08:20Z</time>
      </trkpt>
      <trkpt lat="44.86495" lon="0.36793">
        <ele>27.9</ele>
        <time>2022-04-05T13:08:21Z</time>
      </trkpt>
      <trkpt lat="44.86495" lon="0.36795">
        <ele>27.9</ele>
        <time>2022-04-05T13:08:22Z</time>
      </trkpt>
      <trkpt lat="44.86495" lon="0.36796">
        <ele>27.9</ele>
        <time>2022-04-05T13:08:23Z</time>
      </trkpt>
      <trkpt lat="44.86495" lon="0.36799">
        <ele>27.9</ele>
        <time>2022-04-05T13:08:24Z</time>
      </trkpt>
      <trkpt lat="44.86495" lon="0.368">
        <ele>27.9</ele>
        <time>2022-04-05T13:08:25Z</time>
      </trkpt>
      <trkpt lat="44.86495" lon="0.36801">
        <ele>27.9</ele>
        <time>2022-04-05T13:08:26Z</time>
      </trkpt>
      <trkpt lat="44.86495" lon="0.36801">
        <ele>27.9</ele>
        <time>2022-04-05T13:08:27Z</time>
      </trkpt>
      <trkpt lat="44.86495" lon="0.36803">
        <ele>27.9</ele>
        <time>2022-04-05T13:08:28Z</time>
      </trkpt>
      <trkpt lat="44.86494" lon="0.36805">
        <ele>27.9</ele>
        <time>2022-04-05T13:08:29Z</time>
      </trkpt>
      <trkpt lat="44.86494" lon="0.36808">
        <ele>27.9</ele>
        <time>2022-04-05T13:08:31Z</time>
      </trkpt>
      <trkpt lat="44.86493" lon="0.36809">
        <ele>27.9</ele>
        <time>2022-04-05T13:08:32Z</time>
      </trkpt>
      <trkpt lat="44.86493" lon="0.36811">
        <ele>27.9</ele>
        <time>2022-04-05T13:08:33Z</time>
      </trkpt>
      <trkpt lat="44.86493" lon="0.36815">
        <ele>28</ele>
        <time>2022-04-05T13:08:34Z</time>
      </trkpt>
      <trkpt lat="44.86493" lon="0.36815">
        <ele>28</ele>
        <time>2022-04-05T13:08:35Z</time>
      </trkpt>
      <trkpt lat="44.86493" lon="0.36817">
        <ele>28</ele>
        <time>2022-04-05T13:08:36Z</time>
      </trkpt>
      <trkpt lat="44.86493" lon="0.36819">
        <ele>28</ele>
        <time>2022-04-05T13:08:37Z</time>
      </trkpt>
      <trkpt lat="44.86492" lon="0.3682">
        <ele>28</ele>
        <time>2022-04-05T13:08:38Z</time>
      </trkpt>
      <trkpt lat="44.86492" lon="0.36823">
        <ele>28</ele>
        <time>2022-04-05T13:08:40Z</time>
      </trkpt>
      <trkpt lat="44.86492" lon="0.36824">
        <ele>28</ele>
        <time>2022-04-05T13:08:41Z</time>
      </trkpt>
      <trkpt lat="44.86491" lon="0.36825">
        <ele>28</ele>
        <time>2022-04-05T13:08:42Z</time>
      </trkpt>
      <trkpt lat="44.86491" lon="0.36827">
        <ele>28</ele>
        <time>2022-04-05T13:08:43Z</time>
      </trkpt>
      <trkpt lat="44.8649" lon="0.3683">
        <ele>28</ele>
        <time>2022-04-05T13:08:44Z</time>
      </trkpt>
      <trkpt lat="44.8649" lon="0.36831">
        <ele>28</ele>
        <time>2022-04-05T13:08:45Z</time>
      </trkpt>
      <trkpt lat="44.8649" lon="0.36832">
        <ele>28</ele>
        <time>2022-04-05T13:08:46Z</time>
      </trkpt>
      <trkpt lat="44.86489" lon="0.36834">
        <ele>28</ele>
        <time>2022-04-05T13:08:47Z</time>
      </trkpt>
      <trkpt lat="44.86489" lon="0.36835">
        <ele>28</ele>
        <time>2022-04-05T13:08:48Z</time>
      </trkpt>
      <trkpt lat="44.86489" lon="0.36838">
        <ele>28.1</ele>
        <time>2022-04-05T13:08:49Z</time>
      </trkpt>
      <trkpt lat="44.86489" lon="0.36839">
        <ele>28.1</ele>
        <time>2022-04-05T13:08:50Z</time>
      </trkpt>
      <trkpt lat="44.86488" lon="0.36841">
        <ele>28.1</ele>
        <time>2022-04-05T13:08:52Z</time>
      </trkpt>
      <trkpt lat="44.86488" lon="0.36843">
        <ele>28.1</ele>
        <time>2022-04-05T13:08:53Z</time>
      </trkpt>
      <trkpt lat="44.86488" lon="0.36845">
        <ele>28.1</ele>
        <time>2022-04-05T13:08:54Z</time>
      </trkpt>
      <trkpt lat="44.86487" lon="0.36846">
        <ele>28.1</ele>
        <time>2022-04-05T13:08:55Z</time>
      </trkpt>
      <trkpt lat="44.86487" lon="0.36847">
        <ele>28.1</ele>
        <time>2022-04-05T13:08:56Z</time>
      </trkpt>
      <trkpt lat="44.86487" lon="0.36848">
        <ele>28.1</ele>
        <time>2022-04-05T13:08:57Z</time>
      </trkpt>
      <trkpt lat="44.86487" lon="0.3685">
        <ele>28.1</ele>
        <time>2022-04-05T13:08:58Z</time>
      </trkpt>
      <trkpt lat="44.86486" lon="0.36854">
        <ele>28.1</ele>
        <time>2022-04-05T13:08:59Z</time>
      </trkpt>
      <trkpt lat="44.86487" lon="0.36855">
        <ele>28.1</ele>
        <time>2022-04-05T13:09:00Z</time>
      </trkpt>
      <trkpt lat="44.86487" lon="0.36855">
        <ele>28.1</ele>
        <time>2022-04-05T13:09:01Z</time>
      </trkpt>
      <trkpt lat="44.86487" lon="0.36857">
        <ele>28.1</ele>
        <time>2022-04-05T13:09:02Z</time>
      </trkpt>
      <trkpt lat="44.86486" lon="0.36859">
        <ele>28.1</ele>
        <time>2022-04-05T13:09:03Z</time>
      </trkpt>
      <trkpt lat="44.86486" lon="0.36862">
        <ele>28.1</ele>
        <time>2022-04-05T13:09:05Z</time>
      </trkpt>
      <trkpt lat="44.86485" lon="0.36864">
        <ele>28.1</ele>
        <time>2022-04-05T13:09:06Z</time>
      </trkpt>
      <trkpt lat="44.86485" lon="0.36866">
        <ele>28.1</ele>
        <time>2022-04-05T13:09:07Z</time>
      </trkpt>
      <trkpt lat="44.86485" lon="0.36867">
        <ele>28.1</ele>
        <time>2022-04-05T13:09:08Z</time>
      </trkpt>
      <trkpt lat="44.86484" lon="0.36871">
        <ele>28.2</ele>
        <time>2022-04-05T13:09:09Z</time>
      </trkpt>
      <trkpt lat="44.86484" lon="0.36871">
        <ele>28.2</ele>
        <time>2022-04-05T13:09:10Z</time>
      </trkpt>
      <trkpt lat="44.86484" lon="0.36872">
        <ele>28.2</ele>
        <time>2022-04-05T13:09:11Z</time>
      </trkpt>
      <trkpt lat="44.86484" lon="0.36874">
        <ele>28.2</ele>
        <time>2022-04-05T13:09:12Z</time>
      </trkpt>
      <trkpt lat="44.86484" lon="0.36876">
        <ele>28.2</ele>
        <time>2022-04-05T13:09:13Z</time>
      </trkpt>
      <trkpt lat="44.86483" lon="0.3688">
        <ele>28.2</ele>
        <time>2022-04-05T13:09:14Z</time>
      </trkpt>
      <trkpt lat="44.86482" lon="0.36882">
        <ele>28.2</ele>
        <time>2022-04-05T13:09:15Z</time>
      </trkpt>
      <trkpt lat="44.86482" lon="0.36884">
        <ele>28.2</ele>
        <time>2022-04-05T13:09:16Z</time>
      </trkpt>
      <trkpt lat="44.86482" lon="0.36885">
        <ele>28.2</ele>
        <time>2022-04-05T13:09:17Z</time>
      </trkpt>
      <trkpt lat="44.86481" lon="0.36889">
        <ele>28.3</ele>
        <time>2022-04-05T13:09:19Z</time>
      </trkpt>
      <trkpt lat="44.8648" lon="0.3689">
        <ele>28.3</ele>
        <time>2022-04-05T13:09:20Z</time>
      </trkpt>
      <trkpt lat="44.8648" lon="0.36892">
        <ele>28.3</ele>
        <time>2022-04-05T13:09:21Z</time>
      </trkpt>
      <trkpt lat="44.86479" lon="0.36894">
        <ele>28.3</ele>
        <time>2022-04-05T13:09:22Z</time>
      </trkpt>
      <trkpt lat="44.86478" lon="0.36897">
        <ele>28.3</ele>
        <time>2022-04-05T13:09:23Z</time>
      </trkpt>
      <trkpt lat="44.86478" lon="0.36899">
        <ele>28.3</ele>
        <time>2022-04-05T13:09:24Z</time>
      </trkpt>
      <trkpt lat="44.86478" lon="0.369">
        <ele>28.3</ele>
        <time>2022-04-05T13:09:25Z</time>
      </trkpt>
      <trkpt lat="44.86477" lon="0.36901">
        <ele>28.3</ele>
        <time>2022-04-05T13:09:26Z</time>
      </trkpt>
      <trkpt lat="44.86477" lon="0.36903">
        <ele>28.3</ele>
        <time>2022-04-05T13:09:27Z</time>
      </trkpt>
      <trkpt lat="44.86476" lon="0.36905">
        <ele>28.3</ele>
        <time>2022-04-05T13:09:28Z</time>
      </trkpt>
      <trkpt lat="44.86476" lon="0.36908">
        <ele>28.4</ele>
        <time>2022-04-05T13:09:30Z</time>
      </trkpt>
      <trkpt lat="44.86476" lon="0.36909">
        <ele>28.4</ele>
        <time>2022-04-05T13:09:31Z</time>
      </trkpt>
      <trkpt lat="44.86476" lon="0.3691">
        <ele>28.4</ele>
        <time>2022-04-05T13:09:32Z</time>
      </trkpt>
      <trkpt lat="44.86476" lon="0.36912">
        <ele>28.4</ele>
        <time>2022-04-05T13:09:33Z</time>
      </trkpt>
      <trkpt lat="44.86475" lon="0.36913">
        <ele>28.4</ele>
        <time>2022-04-05T13:09:34Z</time>
      </trkpt>
      <trkpt lat="44.86476" lon="0.36917">
        <ele>28.4</ele>
        <time>2022-04-05T13:09:35Z</time>
      </trkpt>
      <trkpt lat="44.86477" lon="0.36918">
        <ele>28.4</ele>
        <time>2022-04-05T13:09:36Z</time>
      </trkpt>
      <trkpt lat="44.86477" lon="0.3692">
        <ele>28.4</ele>
        <time>2022-04-05T13:09:37Z</time>
      </trkpt>
      <trkpt lat="44.86477" lon="0.36922">
        <ele>28.4</ele>
        <time>2022-04-05T13:09:38Z</time>
      </trkpt>
      <trkpt lat="44.86476" lon="0.36924">
        <ele>28.4</ele>
        <time>2022-04-05T13:09:39Z</time>
      </trkpt>
      <trkpt lat="44.86476" lon="0.36924">
        <ele>28.4</ele>
        <time>2022-04-05T13:09:40Z</time>
      </trkpt>
      <trkpt lat="44.86476" lon="0.36925">
        <ele>28.4</ele>
        <time>2022-04-05T13:09:41Z</time>
      </trkpt>
      <trkpt lat="44.86476" lon="0.36926">
        <ele>28.4</ele>
        <time>2022-04-05T13:09:42Z</time>
      </trkpt>
      <trkpt lat="44.86475" lon="0.36928">
        <ele>28.4</ele>
        <time>2022-04-05T13:09:43Z</time>
      </trkpt>
      <trkpt lat="44.86474" lon="0.3693">
        <ele>28.4</ele>
        <time>2022-04-05T13:09:45Z</time>
      </trkpt>
      <trkpt lat="44.86474" lon="0.36932">
        <ele>28.4</ele>
        <time>2022-04-05T13:09:46Z</time>
      </trkpt>
      <trkpt lat="44.86473" lon="0.36933">
        <ele>28.4</ele>
        <time>2022-04-05T13:09:47Z</time>
      </trkpt>
      <trkpt lat="44.86473" lon="0.36934">
        <ele>28.4</ele>
        <time>2022-04-05T13:09:48Z</time>
      </trkpt>
      <trkpt lat="44.86471" lon="0.36937">
        <ele>28.4</ele>
        <time>2022-04-05T13:09:50Z</time>
      </trkpt>
      <trkpt lat="44.86471" lon="0.36938">
        <ele>28.4</ele>
        <time>2022-04-05T13:09:51Z</time>
      </trkpt>
      <trkpt lat="44.8647" lon="0.36941">
        <ele>28.4</ele>
        <time>2022-04-05T13:09:52Z</time>
      </trkpt>
      <trkpt lat="44.8647" lon="0.36942">
        <ele>28.4</ele>
        <time>2022-04-05T13:09:53Z</time>
      </trkpt>
      <trkpt lat="44.8647" lon="0.36944">
        <ele>28.4</ele>
        <time>2022-04-05T13:09:54Z</time>
      </trkpt>
      <trkpt lat="44.86469" lon="0.36947">
        <ele>28.4</ele>
        <time>2022-04-05T13:09:55Z</time>
      </trkpt>
      <trkpt lat="44.86469" lon="0.36948">
        <ele>28.4</ele>
        <time>2022-04-05T13:09:56Z</time>
      </trkpt>
      <trkpt lat="44.86469" lon="0.36949">
        <ele>28.4</ele>
        <time>2022-04-05T13:09:57Z</time>
      </trkpt>
      <trkpt lat="44.86469" lon="0.36951">
        <ele>28.4</ele>
        <time>2022-04-05T13:09:58Z</time>
      </trkpt>
      <trkpt lat="44.86469" lon="0.36953">
        <ele>28.4</ele>
        <time>2022-04-05T13:09:59Z</time>
      </trkpt>
      <trkpt lat="44.86469" lon="0.36953">
        <ele>28.4</ele>
        <time>2022-04-05T13:10:00Z</time>
      </trkpt>
      <trkpt lat="44.86469" lon="0.36955">
        <ele>28.4</ele>
        <time>2022-04-05T13:10:02Z</time>
      </trkpt>
      <trkpt lat="44.86469" lon="0.36957">
        <ele>28.4</ele>
        <time>2022-04-05T13:10:03Z</time>
      </trkpt>
      <trkpt lat="44.86469" lon="0.36961">
        <ele>28.4</ele>
        <time>2022-04-05T13:10:05Z</time>
      </trkpt>
      <trkpt lat="44.86468" lon="0.36962">
        <ele>28.4</ele>
        <time>2022-04-05T13:10:06Z</time>
      </trkpt>
      <trkpt lat="44.86468" lon="0.36964">
        <ele>28.4</ele>
        <time>2022-04-05T13:10:07Z</time>
      </trkpt>
      <trkpt lat="44.86468" lon="0.36966">
        <ele>28.4</ele>
        <time>2022-04-05T13:10:08Z</time>
      </trkpt>
      <trkpt lat="44.86468" lon="0.3697">
        <ele>28.4</ele>
        <time>2022-04-05T13:10:09Z</time>
      </trkpt>
      <trkpt lat="44.86468" lon="0.36971">
        <ele>28.4</ele>
        <time>2022-04-05T13:10:10Z</time>
      </trkpt>
      <trkpt lat="44.86468" lon="0.36973">
        <ele>28.4</ele>
        <time>2022-04-05T13:10:11Z</time>
      </trkpt>
      <trkpt lat="44.86468" lon="0.36975">
        <ele>28.4</ele>
        <time>2022-04-05T13:10:12Z</time>
      </trkpt>
      <trkpt lat="44.86467" lon="0.36977">
        <ele>28.4</ele>
        <time>2022-04-05T13:10:14Z</time>
      </trkpt>
      <trkpt lat="44.86466" lon="0.36977">
        <ele>28.4</ele>
        <time>2022-04-05T13:10:15Z</time>
      </trkpt>
      <trkpt lat="44.86465" lon="0.36977">
        <ele>28.4</ele>
        <time>2022-04-05T13:10:16Z</time>
      </trkpt>
      <trkpt lat="44.86464" lon="0.3698">
        <ele>28.4</ele>
        <time>2022-04-05T13:10:17Z</time>
      </trkpt>
      <trkpt lat="44.86463" lon="0.36981">
        <ele>28.4</ele>
        <time>2022-04-05T13:10:18Z</time>
      </trkpt>
      <trkpt lat="44.86462" lon="0.36982">
        <ele>28.4</ele>
        <time>2022-04-05T13:10:19Z</time>
      </trkpt>
      <trkpt lat="44.86462" lon="0.36984">
        <ele>28.4</ele>
        <time>2022-04-05T13:10:20Z</time>
      </trkpt>
      <trkpt lat="44.86462" lon="0.36985">
        <ele>28.4</ele>
        <time>2022-04-05T13:10:21Z</time>
      </trkpt>
      <trkpt lat="44.86461" lon="0.36986">
        <ele>28.4</ele>
        <time>2022-04-05T13:10:22Z</time>
      </trkpt>
      <trkpt lat="44.86461" lon="0.36987">
        <ele>28.4</ele>
        <time>2022-04-05T13:10:23Z</time>
      </trkpt>
      <trkpt lat="44.86461" lon="0.3699">
        <ele>28.4</ele>
        <time>2022-04-05T13:10:25Z</time>
      </trkpt>
      <trkpt lat="44.86461" lon="0.36992">
        <ele>28.4</ele>
        <time>2022-04-05T13:10:26Z</time>
      </trkpt>
      <trkpt lat="44.86461" lon="0.36994">
        <ele>28.5</ele>
        <time>2022-04-05T13:10:27Z</time>
      </trkpt>
      <trkpt lat="44.86461" lon="0.36996">
        <ele>28.5</ele>
        <time>2022-04-05T13:10:28Z</time>
      </trkpt>
      <trkpt lat="44.86461" lon="0.37">
        <ele>28.5</ele>
        <time>2022-04-05T13:10:29Z</time>
      </trkpt>
      <trkpt lat="44.86461" lon="0.37002">
        <ele>28.5</ele>
        <time>2022-04-05T13:10:30Z</time>
      </trkpt>
      <trkpt lat="44.86461" lon="0.37003">
        <ele>28.5</ele>
        <time>2022-04-05T13:10:31Z</time>
      </trkpt>
      <trkpt lat="44.8646" lon="0.37005">
        <ele>28.5</ele>
        <time>2022-04-05T13:10:32Z</time>
      </trkpt>
      <trkpt lat="44.8646" lon="0.37006">
        <ele>28.5</ele>
        <time>2022-04-05T13:10:33Z</time>
      </trkpt>
      <trkpt lat="44.8646" lon="0.37009">
        <ele>28.5</ele>
        <time>2022-04-05T13:10:35Z</time>
      </trkpt>
      <trkpt lat="44.86459" lon="0.37011">
        <ele>28.5</ele>
        <time>2022-04-05T13:10:36Z</time>
      </trkpt>
      <trkpt lat="44.86459" lon="0.37013">
        <ele>28.5</ele>
        <time>2022-04-05T13:10:37Z</time>
      </trkpt>
      <trkpt lat="44.86459" lon="0.37015">
        <ele>28.6</ele>
        <time>2022-04-05T13:10:38Z</time>
      </trkpt>
      <trkpt lat="44.86459" lon="0.37018">
        <ele>28.6</ele>
        <time>2022-04-05T13:10:39Z</time>
      </trkpt>
      <trkpt lat="44.86459" lon="0.3702">
        <ele>28.6</ele>
        <time>2022-04-05T13:10:40Z</time>
      </trkpt>
      <trkpt lat="44.86459" lon="0.37022">
        <ele>28.6</ele>
        <time>2022-04-05T13:10:41Z</time>
      </trkpt>
      <trkpt lat="44.86459" lon="0.37023">
        <ele>28.6</ele>
        <time>2022-04-05T13:10:42Z</time>
      </trkpt>
      <trkpt lat="44.86459" lon="0.37024">
        <ele>28.6</ele>
        <time>2022-04-05T13:10:43Z</time>
      </trkpt>
      <trkpt lat="44.86459" lon="0.37028">
        <ele>28.6</ele>
        <time>2022-04-05T13:10:44Z</time>
      </trkpt>
      <trkpt lat="44.86459" lon="0.3703">
        <ele>28.6</ele>
        <time>2022-04-05T13:10:45Z</time>
      </trkpt>
      <trkpt lat="44.86459" lon="0.37032">
        <ele>28.7</ele>
        <time>2022-04-05T13:10:46Z</time>
      </trkpt>
      <trkpt lat="44.86458" lon="0.37034">
        <ele>28.7</ele>
        <time>2022-04-05T13:10:47Z</time>
      </trkpt>
      <trkpt lat="44.86458" lon="0.37035">
        <ele>28.7</ele>
        <time>2022-04-05T13:10:48Z</time>
      </trkpt>
      <trkpt lat="44.86458" lon="0.37039">
        <ele>28.7</ele>
        <time>2022-04-05T13:10:49Z</time>
      </trkpt>
      <trkpt lat="44.86458" lon="0.37039">
        <ele>28.7</ele>
        <time>2022-04-05T13:10:50Z</time>
      </trkpt>
      <trkpt lat="44.86458" lon="0.37041">
        <ele>28.7</ele>
        <time>2022-04-05T13:10:51Z</time>
      </trkpt>
      <trkpt lat="44.86458" lon="0.37042">
        <ele>28.7</ele>
        <time>2022-04-05T13:10:52Z</time>
      </trkpt>
      <trkpt lat="44.86458" lon="0.37044">
        <ele>28.7</ele>
        <time>2022-04-05T13:10:53Z</time>
      </trkpt>
      <trkpt lat="44.86457" lon="0.37048">
        <ele>28.8</ele>
        <time>2022-04-05T13:10:54Z</time>
      </trkpt>
      <trkpt lat="44.86457" lon="0.3705">
        <ele>28.8</ele>
        <time>2022-04-05T13:10:55Z</time>
      </trkpt>
      <trkpt lat="44.86457" lon="0.37052">
        <ele>28.8</ele>
        <time>2022-04-05T13:10:56Z</time>
      </trkpt>
      <trkpt lat="44.86457" lon="0.37054">
        <ele>28.8</ele>
        <time>2022-04-05T13:10:58Z</time>
      </trkpt>
      <trkpt lat="44.86456" lon="0.37055">
        <ele>28.8</ele>
        <time>2022-04-05T13:10:59Z</time>
      </trkpt>
      <trkpt lat="44.86456" lon="0.37057">
        <ele>28.8</ele>
        <time>2022-04-05T13:11:00Z</time>
      </trkpt>
      <trkpt lat="44.86457" lon="0.37057">
        <ele>28.8</ele>
        <time>2022-04-05T13:11:01Z</time>
      </trkpt>
      <trkpt lat="44.86457" lon="0.37058">
        <ele>28.8</ele>
        <time>2022-04-05T13:11:02Z</time>
      </trkpt>
      <trkpt lat="44.86456" lon="0.3706">
        <ele>28.9</ele>
        <time>2022-04-05T13:11:03Z</time>
      </trkpt>
      <trkpt lat="44.86456" lon="0.37061">
        <ele>28.9</ele>
        <time>2022-04-05T13:11:04Z</time>
      </trkpt>
      <trkpt lat="44.86455" lon="0.37064">
        <ele>28.9</ele>
        <time>2022-04-05T13:11:05Z</time>
      </trkpt>
      <trkpt lat="44.86455" lon="0.37065">
        <ele>28.9</ele>
        <time>2022-04-05T13:11:06Z</time>
      </trkpt>
      <trkpt lat="44.86454" lon="0.37066">
        <ele>28.9</ele>
        <time>2022-04-05T13:11:07Z</time>
      </trkpt>
      <trkpt lat="44.86454" lon="0.37068">
        <ele>28.9</ele>
        <time>2022-04-05T13:11:08Z</time>
      </trkpt>
      <trkpt lat="44.86454" lon="0.3707">
        <ele>29</ele>
        <time>2022-04-05T13:11:09Z</time>
      </trkpt>
      <trkpt lat="44.86454" lon="0.37073">
        <ele>29</ele>
        <time>2022-04-05T13:11:10Z</time>
      </trkpt>
      <trkpt lat="44.86454" lon="0.37073">
        <ele>29</ele>
        <time>2022-04-05T13:11:11Z</time>
      </trkpt>
      <trkpt lat="44.86453" lon="0.37075">
        <ele>29</ele>
        <time>2022-04-05T13:11:12Z</time>
      </trkpt>
      <trkpt lat="44.86453" lon="0.37076">
        <ele>29</ele>
        <time>2022-04-05T13:11:13Z</time>
      </trkpt>
      <trkpt lat="44.86453" lon="0.3708">
        <ele>29.1</ele>
        <time>2022-04-05T13:11:14Z</time>
      </trkpt>
      <trkpt lat="44.86453" lon="0.37081">
        <ele>29.1</ele>
        <time>2022-04-05T13:11:16Z</time>
      </trkpt>
      <trkpt lat="44.86453" lon="0.37083">
        <ele>29.1</ele>
        <time>2022-04-05T13:11:17Z</time>
      </trkpt>
      <trkpt lat="44.86453" lon="0.37084">
        <ele>29.1</ele>
        <time>2022-04-05T13:11:18Z</time>
      </trkpt>
      <trkpt lat="44.86453" lon="0.37085">
        <ele>29.1</ele>
        <time>2022-04-05T13:11:19Z</time>
      </trkpt>
      <trkpt lat="44.86453" lon="0.37088">
        <ele>29.2</ele>
        <time>2022-04-05T13:11:20Z</time>
      </trkpt>
      <trkpt lat="44.86453" lon="0.37089">
        <ele>29.2</ele>
        <time>2022-04-05T13:11:21Z</time>
      </trkpt>
      <trkpt lat="44.86453" lon="0.37091">
        <ele>29.2</ele>
        <time>2022-04-05T13:11:22Z</time>
      </trkpt>
      <trkpt lat="44.86453" lon="0.37093">
        <ele>29.2</ele>
        <time>2022-04-05T13:11:23Z</time>
      </trkpt>
      <trkpt lat="44.86454" lon="0.37094">
        <ele>29.2</ele>
        <time>2022-04-05T13:11:24Z</time>
      </trkpt>
      <trkpt lat="44.86454" lon="0.37095">
        <ele>29.2</ele>
        <time>2022-04-05T13:11:25Z</time>
      </trkpt>
      <trkpt lat="44.86455" lon="0.37096">
        <ele>29.2</ele>
        <time>2022-04-05T13:11:26Z</time>
      </trkpt>
      <trkpt lat="44.86455" lon="0.37098">
        <ele>29.3</ele>
        <time>2022-04-05T13:11:28Z</time>
      </trkpt>
      <trkpt lat="44.86456" lon="0.37099">
        <ele>29.3</ele>
        <time>2022-04-05T13:11:29Z</time>
      </trkpt>
      <trkpt lat="44.86456" lon="0.37103">
        <ele>29.3</ele>
        <time>2022-04-05T13:11:30Z</time>
      </trkpt>
      <trkpt lat="44.86456" lon="0.37103">
        <ele>29.3</ele>
        <time>2022-04-05T13:11:31Z</time>
      </trkpt>
      <trkpt lat="44.86456" lon="0.37105">
        <ele>29.3</ele>
        <time>2022-04-05T13:11:32Z</time>
      </trkpt>
      <trkpt lat="44.86456" lon="0.37106">
        <ele>29.3</ele>
        <time>2022-04-05T13:11:33Z</time>
      </trkpt>
      <trkpt lat="44.86457" lon="0.37107">
        <ele>29.4</ele>
        <time>2022-04-05T13:11:34Z</time>
      </trkpt>
      <trkpt lat="44.86457" lon="0.37109">
        <ele>29.4</ele>
        <time>2022-04-05T13:11:35Z</time>
      </trkpt>
      <trkpt lat="44.86457" lon="0.3711">
        <ele>29.4</ele>
        <time>2022-04-05T13:11:36Z</time>
      </trkpt>
      <trkpt lat="44.86458" lon="0.37112">
        <ele>29.4</ele>
        <time>2022-04-05T13:11:37Z</time>
      </trkpt>
      <trkpt lat="44.86458" lon="0.37114">
        <ele>29.4</ele>
        <time>2022-04-05T13:11:38Z</time>
      </trkpt>
      <trkpt lat="44.86458" lon="0.37116">
        <ele>29.4</ele>
        <time>2022-04-05T13:11:39Z</time>
      </trkpt>
      <trkpt lat="44.86458" lon="0.37119">
        <ele>29.5</ele>
        <time>2022-04-05T13:11:41Z</time>
      </trkpt>
      <trkpt lat="44.86458" lon="0.3712">
        <ele>29.5</ele>
        <time>2022-04-05T13:11:42Z</time>
      </trkpt>
      <trkpt lat="44.86458" lon="0.37122">
        <ele>29.5</ele>
        <time>2022-04-05T13:11:43Z</time>
      </trkpt>
      <trkpt lat="44.86458" lon="0.37124">
        <ele>29.5</ele>
        <time>2022-04-05T13:11:44Z</time>
      </trkpt>
      <trkpt lat="44.86458" lon="0.37127">
        <ele>29.5</ele>
        <time>2022-04-05T13:11:45Z</time>
      </trkpt>
      <trkpt lat="44.86459" lon="0.37128">
        <ele>29.6</ele>
        <time>2022-04-05T13:11:46Z</time>
      </trkpt>
      <trkpt lat="44.8646" lon="0.3713">
        <ele>29.6</ele>
        <time>2022-04-05T13:11:47Z</time>
      </trkpt>
      <trkpt lat="44.8646" lon="0.37131">
        <ele>29.6</ele>
        <time>2022-04-05T13:11:48Z</time>
      </trkpt>
      <trkpt lat="44.8646" lon="0.37133">
        <ele>29.6</ele>
        <time>2022-04-05T13:11:49Z</time>
      </trkpt>
      <trkpt lat="44.86461" lon="0.37136">
        <ele>29.7</ele>
        <time>2022-04-05T13:11:50Z</time>
      </trkpt>
      <trkpt lat="44.86461" lon="0.37137">
        <ele>29.7</ele>
        <time>2022-04-05T13:11:51Z</time>
      </trkpt>
      <trkpt lat="44.86461" lon="0.37138">
        <ele>29.7</ele>
        <time>2022-04-05T13:11:52Z</time>
      </trkpt>
      <trkpt lat="44.86461" lon="0.3714">
        <ele>29.7</ele>
        <time>2022-04-05T13:11:54Z</time>
      </trkpt>
      <trkpt lat="44.86462" lon="0.37143">
        <ele>29.7</ele>
        <time>2022-04-05T13:11:55Z</time>
      </trkpt>
      <trkpt lat="44.86462" lon="0.37144">
        <ele>29.8</ele>
        <time>2022-04-05T13:11:56Z</time>
      </trkpt>
      <trkpt lat="44.86462" lon="0.37146">
        <ele>29.8</ele>
        <time>2022-04-05T13:11:57Z</time>
      </trkpt>
      <trkpt lat="44.86462" lon="0.37147">
        <ele>29.8</ele>
        <time>2022-04-05T13:11:58Z</time>
      </trkpt>
      <trkpt lat="44.86462" lon="0.37148">
        <ele>29.8</ele>
        <time>2022-04-05T13:11:59Z</time>
      </trkpt>
      <trkpt lat="44.86462" lon="0.37151">
        <ele>29.9</ele>
        <time>2022-04-05T13:12:00Z</time>
      </trkpt>
      <trkpt lat="44.86462" lon="0.37152">
        <ele>29.9</ele>
        <time>2022-04-05T13:12:01Z</time>
      </trkpt>
      <trkpt lat="44.86461" lon="0.37155">
        <ele>30</ele>
        <time>2022-04-05T13:12:02Z</time>
      </trkpt>
      <trkpt lat="44.86461" lon="0.37156">
        <ele>30</ele>
        <time>2022-04-05T13:12:03Z</time>
      </trkpt>
      <trkpt lat="44.86461" lon="0.37157">
        <ele>30</ele>
        <time>2022-04-05T13:12:04Z</time>
      </trkpt>
      <trkpt lat="44.8646" lon="0.3716">
        <ele>30.1</ele>
        <time>2022-04-05T13:12:05Z</time>
      </trkpt>
      <trkpt lat="44.8646" lon="0.37161">
        <ele>30.1</ele>
        <time>2022-04-05T13:12:06Z</time>
      </trkpt>
      <trkpt lat="44.8646" lon="0.37164">
        <ele>30.2</ele>
        <time>2022-04-05T13:12:07Z</time>
      </trkpt>
      <trkpt lat="44.86459" lon="0.37166">
        <ele>30.2</ele>
        <time>2022-04-05T13:12:08Z</time>
      </trkpt>
      <trkpt lat="44.86459" lon="0.37167">
        <ele>30.2</ele>
        <time>2022-04-05T13:12:09Z</time>
      </trkpt>
      <trkpt lat="44.8646" lon="0.37169">
        <ele>30.3</ele>
        <time>2022-04-05T13:12:10Z</time>
      </trkpt>
      <trkpt lat="44.8646" lon="0.3717">
        <ele>30.3</ele>
        <time>2022-04-05T13:12:11Z</time>
      </trkpt>
      <trkpt lat="44.8646" lon="0.37172">
        <ele>30.3</ele>
        <time>2022-04-05T13:12:13Z</time>
      </trkpt>
      <trkpt lat="44.86461" lon="0.37173">
        <ele>30.4</ele>
        <time>2022-04-05T13:12:14Z</time>
      </trkpt>
      <trkpt lat="44.86461" lon="0.37176">
        <ele>30.4</ele>
        <time>2022-04-05T13:12:15Z</time>
      </trkpt>
      <trkpt lat="44.86462" lon="0.37176">
        <ele>30.4</ele>
        <time>2022-04-05T13:12:16Z</time>
      </trkpt>
      <trkpt lat="44.86462" lon="0.37178">
        <ele>30.5</ele>
        <time>2022-04-05T13:12:17Z</time>
      </trkpt>
      <trkpt lat="44.86462" lon="0.3718">
        <ele>30.5</ele>
        <time>2022-04-05T13:12:18Z</time>
      </trkpt>
      <trkpt lat="44.86462" lon="0.37182">
        <ele>30.6</ele>
        <time>2022-04-05T13:12:19Z</time>
      </trkpt>
      <trkpt lat="44.86462" lon="0.37184">
        <ele>30.6</ele>
        <time>2022-04-05T13:12:21Z</time>
      </trkpt>
      <trkpt lat="44.86462" lon="0.37186">
        <ele>30.6</ele>
        <time>2022-04-05T13:12:22Z</time>
      </trkpt>
      <trkpt lat="44.86461" lon="0.37187">
        <ele>30.7</ele>
        <time>2022-04-05T13:12:23Z</time>
      </trkpt>
      <trkpt lat="44.86461" lon="0.37189">
        <ele>30.7</ele>
        <time>2022-04-05T13:12:24Z</time>
      </trkpt>
      <trkpt lat="44.86461" lon="0.37193">
        <ele>30.8</ele>
        <time>2022-04-05T13:12:25Z</time>
      </trkpt>
      <trkpt lat="44.86461" lon="0.37194">
        <ele>30.8</ele>
        <time>2022-04-05T13:12:26Z</time>
      </trkpt>
      <trkpt lat="44.86461" lon="0.37195">
        <ele>30.9</ele>
        <time>2022-04-05T13:12:27Z</time>
      </trkpt>
      <trkpt lat="44.8646" lon="0.37196">
        <ele>30.9</ele>
        <time>2022-04-05T13:12:28Z</time>
      </trkpt>
      <trkpt lat="44.8646" lon="0.37198">
        <ele>31</ele>
        <time>2022-04-05T13:12:29Z</time>
      </trkpt>
      <trkpt lat="44.8646" lon="0.37201">
        <ele>31</ele>
        <time>2022-04-05T13:12:31Z</time>
      </trkpt>
      <trkpt lat="44.8646" lon="0.37202">
        <ele>31.1</ele>
        <time>2022-04-05T13:12:32Z</time>
      </trkpt>
      <trkpt lat="44.86461" lon="0.37204">
        <ele>31.1</ele>
        <time>2022-04-05T13:12:33Z</time>
      </trkpt>
      <trkpt lat="44.86461" lon="0.37205">
        <ele>31.2</ele>
        <time>2022-04-05T13:12:34Z</time>
      </trkpt>
      <trkpt lat="44.86461" lon="0.37208">
        <ele>31.3</ele>
        <time>2022-04-05T13:12:35Z</time>
      </trkpt>
      <trkpt lat="44.86461" lon="0.37209">
        <ele>31.3</ele>
        <time>2022-04-05T13:12:36Z</time>
      </trkpt>
      <trkpt lat="44.86461" lon="0.37211">
        <ele>31.3</ele>
        <time>2022-04-05T13:12:37Z</time>
      </trkpt>
      <trkpt lat="44.86462" lon="0.37213">
        <ele>31.4</ele>
        <time>2022-04-05T13:12:38Z</time>
      </trkpt>
      <trkpt lat="44.86462" lon="0.37214">
        <ele>31.5</ele>
        <time>2022-04-05T13:12:40Z</time>
      </trkpt>
      <trkpt lat="44.86462" lon="0.37217">
        <ele>31.5</ele>
        <time>2022-04-05T13:12:41Z</time>
      </trkpt>
      <trkpt lat="44.86463" lon="0.37218">
        <ele>31.6</ele>
        <time>2022-04-05T13:12:42Z</time>
      </trkpt>
      <trkpt lat="44.86463" lon="0.37222">
        <ele>31.7</ele>
        <time>2022-04-05T13:12:43Z</time>
      </trkpt>
      <trkpt lat="44.86463" lon="0.37224">
        <ele>31.7</ele>
        <time>2022-04-05T13:12:44Z</time>
      </trkpt>
      <trkpt lat="44.86463" lon="0.37226">
        <ele>31.8</ele>
        <time>2022-04-05T13:12:45Z</time>
      </trkpt>
      <trkpt lat="44.86463" lon="0.37226">
        <ele>31.8</ele>
        <time>2022-04-05T13:12:46Z</time>
      </trkpt>
      <trkpt lat="44.86463" lon="0.37228">
        <ele>31.9</ele>
        <time>2022-04-05T13:12:47Z</time>
      </trkpt>
      <trkpt lat="44.86464" lon="0.3723">
        <ele>31.9</ele>
        <time>2022-04-05T13:12:48Z</time>
      </trkpt>
      <trkpt lat="44.86464" lon="0.37231">
        <ele>32</ele>
        <time>2022-04-05T13:12:49Z</time>
      </trkpt>
      <trkpt lat="44.86464" lon="0.37234">
        <ele>32.1</ele>
        <time>2022-04-05T13:12:50Z</time>
      </trkpt>
      <trkpt lat="44.86463" lon="0.37235">
        <ele>32.1</ele>
        <time>2022-04-05T13:12:51Z</time>
      </trkpt>
      <trkpt lat="44.86463" lon="0.37236">
        <ele>32.1</ele>
        <time>2022-04-05T13:12:52Z</time>
      </trkpt>
      <trkpt lat="44.86463" lon="0.37237">
        <ele>32.1</ele>
        <time>2022-04-05T13:12:53Z</time>
      </trkpt>
      <trkpt lat="44.86463" lon="0.37238">
        <ele>32.2</ele>
        <time>2022-04-05T13:12:54Z</time>
      </trkpt>
      <trkpt lat="44.86463" lon="0.3724">
        <ele>32.2</ele>
        <time>2022-04-05T13:12:55Z</time>
      </trkpt>
      <trkpt lat="44.86463" lon="0.37241">
        <ele>32.2</ele>
        <time>2022-04-05T13:12:56Z</time>
      </trkpt>
      <trkpt lat="44.86463" lon="0.37243">
        <ele>32.3</ele>
        <time>2022-04-05T13:12:57Z</time>
      </trkpt>
      <trkpt lat="44.86463" lon="0.37245">
        <ele>32.3</ele>
        <time>2022-04-05T13:12:59Z</time>
      </trkpt>
      <trkpt lat="44.86464" lon="0.37248">
        <ele>32.4</ele>
        <time>2022-04-05T13:13:00Z</time>
      </trkpt>
      <trkpt lat="44.86464" lon="0.37249">
        <ele>32.8</ele>
        <time>2022-04-05T13:13:01Z</time>
      </trkpt>
      <trkpt lat="44.86465" lon="0.37251">
        <ele>32.8</ele>
        <time>2022-04-05T13:13:02Z</time>
      </trkpt>
      <trkpt lat="44.86465" lon="0.37253">
        <ele>32.9</ele>
        <time>2022-04-05T13:13:03Z</time>
      </trkpt>
      <trkpt lat="44.86466" lon="0.37254">
        <ele>32.9</ele>
        <time>2022-04-05T13:13:04Z</time>
      </trkpt>
      <trkpt lat="44.86467" lon="0.37255">
        <ele>32.9</ele>
        <time>2022-04-05T13:13:05Z</time>
      </trkpt>
      <trkpt lat="44.86467" lon="0.37256">
        <ele>33</ele>
        <time>2022-04-05T13:13:06Z</time>
      </trkpt>
      <trkpt lat="44.86467" lon="0.37257">
        <ele>33</ele>
        <time>2022-04-05T13:13:07Z</time>
      </trkpt>
      <trkpt lat="44.86468" lon="0.37259">
        <ele>33</ele>
        <time>2022-04-05T13:13:09Z</time>
      </trkpt>
      <trkpt lat="44.86469" lon="0.37262">
        <ele>33.1</ele>
        <time>2022-04-05T13:13:11Z</time>
      </trkpt>
      <trkpt lat="44.86469" lon="0.37262">
        <ele>33.1</ele>
        <time>2022-04-05T13:13:12Z</time>
      </trkpt>
      <trkpt lat="44.86471" lon="0.37262">
        <ele>33.1</ele>
        <time>2022-04-05T13:13:13Z</time>
      </trkpt>
      <trkpt lat="44.86472" lon="0.37262">
        <ele>33.2</ele>
        <time>2022-04-05T13:13:14Z</time>
      </trkpt>
      <trkpt lat="44.86473" lon="0.37261">
        <ele>33.2</ele>
        <time>2022-04-05T13:13:16Z</time>
      </trkpt>
      <trkpt lat="44.86474" lon="0.37261">
        <ele>33.2</ele>
        <time>2022-04-05T13:13:17Z</time>
      </trkpt>
      <trkpt lat="44.86475" lon="0.37262">
        <ele>33.3</ele>
        <time>2022-04-05T13:13:18Z</time>
      </trkpt>
      <trkpt lat="44.86476" lon="0.37263">
        <ele>33.3</ele>
        <time>2022-04-05T13:13:19Z</time>
      </trkpt>
      <trkpt lat="44.86476" lon="0.37263">
        <ele>33.3</ele>
        <time>2022-04-05T13:13:21Z</time>
      </trkpt>
      <trkpt lat="44.86477" lon="0.37264">
        <ele>33.3</ele>
        <time>2022-04-05T13:13:22Z</time>
      </trkpt>
      <trkpt lat="44.86477" lon="0.37264">
        <ele>33.4</ele>
        <time>2022-04-05T13:13:23Z</time>
      </trkpt>
      <trkpt lat="44.86478" lon="0.37265">
        <ele>33.4</ele>
        <time>2022-04-05T13:13:24Z</time>
      </trkpt>
      <trkpt lat="44.86478" lon="0.37265">
        <ele>33.4</ele>
        <time>2022-04-05T13:13:25Z</time>
      </trkpt>
      <trkpt lat="44.86479" lon="0.37266">
        <ele>33.4</ele>
        <time>2022-04-05T13:13:26Z</time>
      </trkpt>
      <trkpt lat="44.8648" lon="0.37267">
        <ele>33.5</ele>
        <time>2022-04-05T13:13:27Z</time>
      </trkpt>
      <trkpt lat="44.8648" lon="0.37268">
        <ele>33.5</ele>
        <time>2022-04-05T13:13:28Z</time>
      </trkpt>
      <trkpt lat="44.86481" lon="0.37268">
        <ele>33.5</ele>
        <time>2022-04-05T13:13:29Z</time>
      </trkpt>
      <trkpt lat="44.86482" lon="0.37268">
        <ele>33.5</ele>
        <time>2022-04-05T13:13:30Z</time>
      </trkpt>
      <trkpt lat="44.86482" lon="0.37268">
        <ele>33.6</ele>
        <time>2022-04-05T13:13:31Z</time>
      </trkpt>
      <trkpt lat="44.86482" lon="0.37267">
        <ele>33.6</ele>
        <time>2022-04-05T13:13:33Z</time>
      </trkpt>
      <trkpt lat="44.86482" lon="0.37267">
        <ele>33.6</ele>
        <time>2022-04-05T13:13:34Z</time>
      </trkpt>
      <trkpt lat="44.86482" lon="0.37267">
        <ele>33.6</ele>
        <time>2022-04-05T13:13:35Z</time>
      </trkpt>
      <trkpt lat="44.86482" lon="0.37267">
        <ele>33.6</ele>
        <time>2022-04-05T13:13:36Z</time>
      </trkpt>
      <trkpt lat="44.86482" lon="0.37269">
        <ele>33.6</ele>
        <time>2022-04-05T13:13:37Z</time>
      </trkpt>
      <trkpt lat="44.86483" lon="0.3727">
        <ele>33.7</ele>
        <time>2022-04-05T13:13:38Z</time>
      </trkpt>
      <trkpt lat="44.86483" lon="0.37271">
        <ele>33.7</ele>
        <time>2022-04-05T13:13:40Z</time>
      </trkpt>
      <trkpt lat="44.86484" lon="0.37274">
        <ele>33.8</ele>
        <time>2022-04-05T13:13:41Z</time>
      </trkpt>
      <trkpt lat="44.86484" lon="0.37276">
        <ele>33.9</ele>
        <time>2022-04-05T13:13:42Z</time>
      </trkpt>
      <trkpt lat="44.86485" lon="0.37277">
        <ele>33.9</ele>
        <time>2022-04-05T13:13:44Z</time>
      </trkpt>
      <trkpt lat="44.86486" lon="0.37278">
        <ele>33.9</ele>
        <time>2022-04-05T13:13:45Z</time>
      </trkpt>
      <trkpt lat="44.86486" lon="0.3728">
        <ele>34</ele>
        <time>2022-04-05T13:13:46Z</time>
      </trkpt>
      <trkpt lat="44.86488" lon="0.37282">
        <ele>34.1</ele>
        <time>2022-04-05T13:13:48Z</time>
      </trkpt>
      <trkpt lat="44.86489" lon="0.37283">
        <ele>34.2</ele>
        <time>2022-04-05T13:13:49Z</time>
      </trkpt>
      <trkpt lat="44.86491" lon="0.37284">
        <ele>34.3</ele>
        <time>2022-04-05T13:13:50Z</time>
      </trkpt>
      <trkpt lat="44.86492" lon="0.37285">
        <ele>34.3</ele>
        <time>2022-04-05T13:13:51Z</time>
      </trkpt>
      <trkpt lat="44.86492" lon="0.37286">
        <ele>34.4</ele>
        <time>2022-04-05T13:13:52Z</time>
      </trkpt>
      <trkpt lat="44.86493" lon="0.37286">
        <ele>34.4</ele>
        <time>2022-04-05T13:13:53Z</time>
      </trkpt>
      <trkpt lat="44.86494" lon="0.37287">
        <ele>34.5</ele>
        <time>2022-04-05T13:13:54Z</time>
      </trkpt>
      <trkpt lat="44.86495" lon="0.37288">
        <ele>34.5</ele>
        <time>2022-04-05T13:13:55Z</time>
      </trkpt>
      <trkpt lat="44.86496" lon="0.37288">
        <ele>34.6</ele>
        <time>2022-04-05T13:13:57Z</time>
      </trkpt>
      <trkpt lat="44.86497" lon="0.3729">
        <ele>34.7</ele>
        <time>2022-04-05T13:13:58Z</time>
      </trkpt>
      <trkpt lat="44.86498" lon="0.3729">
        <ele>34.8</ele>
        <time>2022-04-05T13:13:59Z</time>
      </trkpt>
      <trkpt lat="44.86499" lon="0.37291">
        <ele>34.8</ele>
        <time>2022-04-05T13:14:00Z</time>
      </trkpt>
      <trkpt lat="44.865" lon="0.37292">
        <ele>34.9</ele>
        <time>2022-04-05T13:14:01Z</time>
      </trkpt>
      <trkpt lat="44.86501" lon="0.37294">
        <ele>35</ele>
        <time>2022-04-05T13:14:02Z</time>
      </trkpt>
      <trkpt lat="44.86502" lon="0.37295">
        <ele>35</ele>
        <time>2022-04-05T13:14:03Z</time>
      </trkpt>
      <trkpt lat="44.86503" lon="0.37296">
        <ele>35.1</ele>
        <time>2022-04-05T13:14:04Z</time>
      </trkpt>
      <trkpt lat="44.86504" lon="0.37298">
        <ele>35.2</ele>
        <time>2022-04-05T13:14:05Z</time>
      </trkpt>
      <trkpt lat="44.86505" lon="0.37298">
        <ele>35.3</ele>
        <time>2022-04-05T13:14:07Z</time>
      </trkpt>
      <trkpt lat="44.86505" lon="0.37299">
        <ele>35.4</ele>
        <time>2022-04-05T13:14:08Z</time>
      </trkpt>
      <trkpt lat="44.86506" lon="0.373">
        <ele>35.4</ele>
        <time>2022-04-05T13:14:09Z</time>
      </trkpt>
      <trkpt lat="44.86507" lon="0.37301">
        <ele>35.5</ele>
        <time>2022-04-05T13:14:10Z</time>
      </trkpt>
      <trkpt lat="44.86508" lon="0.37301">
        <ele>35.6</ele>
        <time>2022-04-05T13:14:11Z</time>
      </trkpt>
      <trkpt lat="44.8651" lon="0.37301">
        <ele>35.7</ele>
        <time>2022-04-05T13:14:12Z</time>
      </trkpt>
      <trkpt lat="44.8651" lon="0.37301">
        <ele>35.7</ele>
        <time>2022-04-05T13:14:14Z</time>
      </trkpt>
      <trkpt lat="44.86511" lon="0.37302">
        <ele>35.8</ele>
        <time>2022-04-05T13:14:15Z</time>
      </trkpt>
      <trkpt lat="44.86512" lon="0.37303">
        <ele>35.9</ele>
        <time>2022-04-05T13:14:16Z</time>
      </trkpt>
      <trkpt lat="44.86513" lon="0.37304">
        <ele>36</ele>
        <time>2022-04-05T13:14:17Z</time>
      </trkpt>
      <trkpt lat="44.86513" lon="0.37305">
        <ele>36</ele>
        <time>2022-04-05T13:14:18Z</time>
      </trkpt>
      <trkpt lat="44.86514" lon="0.37307">
        <ele>36.1</ele>
        <time>2022-04-05T13:14:20Z</time>
      </trkpt>
      <trkpt lat="44.86514" lon="0.37308">
        <ele>36.2</ele>
        <time>2022-04-05T13:14:21Z</time>
      </trkpt>
      <trkpt lat="44.86515" lon="0.3731">
        <ele>36.3</ele>
        <time>2022-04-05T13:14:23Z</time>
      </trkpt>
      <trkpt lat="44.86516" lon="0.37311">
        <ele>36.5</ele>
        <time>2022-04-05T13:14:24Z</time>
      </trkpt>
      <trkpt lat="44.86517" lon="0.37312">
        <ele>36.5</ele>
        <time>2022-04-05T13:14:25Z</time>
      </trkpt>
      <trkpt lat="44.86518" lon="0.37312">
        <ele>36.6</ele>
        <time>2022-04-05T13:14:26Z</time>
      </trkpt>
      <trkpt lat="44.86518" lon="0.37313">
        <ele>36.6</ele>
        <time>2022-04-05T13:14:27Z</time>
      </trkpt>
      <trkpt lat="44.8652" lon="0.37313">
        <ele>36.7</ele>
        <time>2022-04-05T13:14:28Z</time>
      </trkpt>
      <trkpt lat="44.8652" lon="0.37314">
        <ele>36.8</ele>
        <time>2022-04-05T13:14:29Z</time>
      </trkpt>
      <trkpt lat="44.86521" lon="0.37314">
        <ele>36.9</ele>
        <time>2022-04-05T13:14:30Z</time>
      </trkpt>
      <trkpt lat="44.86523" lon="0.37314">
        <ele>37.1</ele>
        <time>2022-04-05T13:14:31Z</time>
      </trkpt>
      <trkpt lat="44.86524" lon="0.37314">
        <ele>37.2</ele>
        <time>2022-04-05T13:14:32Z</time>
      </trkpt>
      <trkpt lat="44.86525" lon="0.37314">
        <ele>37.2</ele>
        <time>2022-04-05T13:14:33Z</time>
      </trkpt>
      <trkpt lat="44.86526" lon="0.37315">
        <ele>37.3</ele>
        <time>2022-04-05T13:14:34Z</time>
      </trkpt>
      <trkpt lat="44.86527" lon="0.37315">
        <ele>37.4</ele>
        <time>2022-04-05T13:14:35Z</time>
      </trkpt>
      <trkpt lat="44.86528" lon="0.37316">
        <ele>37.5</ele>
        <time>2022-04-05T13:14:37Z</time>
      </trkpt>
      <trkpt lat="44.86529" lon="0.37317">
        <ele>37.7</ele>
        <time>2022-04-05T13:14:38Z</time>
      </trkpt>
      <trkpt lat="44.8653" lon="0.37317">
        <ele>37.7</ele>
        <time>2022-04-05T13:14:39Z</time>
      </trkpt>
      <trkpt lat="44.8653" lon="0.37317">
        <ele>37.8</ele>
        <time>2022-04-05T13:14:40Z</time>
      </trkpt>
      <trkpt lat="44.86531" lon="0.37318">
        <ele>37.9</ele>
        <time>2022-04-05T13:14:41Z</time>
      </trkpt>
      <trkpt lat="44.86532" lon="0.37318">
        <ele>38</ele>
        <time>2022-04-05T13:14:42Z</time>
      </trkpt>
      <trkpt lat="44.86534" lon="0.37319">
        <ele>38.1</ele>
        <time>2022-04-05T13:14:43Z</time>
      </trkpt>
      <trkpt lat="44.86535" lon="0.37319">
        <ele>38.3</ele>
        <time>2022-04-05T13:14:44Z</time>
      </trkpt>
      <trkpt lat="44.86536" lon="0.37318">
        <ele>38.4</ele>
        <time>2022-04-05T13:14:45Z</time>
      </trkpt>
      <trkpt lat="44.86537" lon="0.37318">
        <ele>38.5</ele>
        <time>2022-04-05T13:14:46Z</time>
      </trkpt>
      <trkpt lat="44.86538" lon="0.37318">
        <ele>38.6</ele>
        <time>2022-04-05T13:14:47Z</time>
      </trkpt>
      <trkpt lat="44.86539" lon="0.37318">
        <ele>38.7</ele>
        <time>2022-04-05T13:14:48Z</time>
      </trkpt>
      <trkpt lat="44.8654" lon="0.37318">
        <ele>38.8</ele>
        <time>2022-04-05T13:14:50Z</time>
      </trkpt>
      <trkpt lat="44.86541" lon="0.37318">
        <ele>38.9</ele>
        <time>2022-04-05T13:14:51Z</time>
      </trkpt>
      <trkpt lat="44.86542" lon="0.37319">
        <ele>39</ele>
        <time>2022-04-05T13:14:52Z</time>
      </trkpt>
      <trkpt lat="44.86544" lon="0.37319">
        <ele>39.2</ele>
        <time>2022-04-05T13:14:53Z</time>
      </trkpt>
      <trkpt lat="44.86545" lon="0.3732">
        <ele>39.2</ele>
        <time>2022-04-05T13:14:55Z</time>
      </trkpt>
      <trkpt lat="44.86546" lon="0.3732">
        <ele>39.3</ele>
        <time>2022-04-05T13:14:56Z</time>
      </trkpt>
      <trkpt lat="44.86547" lon="0.37321">
        <ele>39.4</ele>
        <time>2022-04-05T13:14:57Z</time>
      </trkpt>
      <trkpt lat="44.86549" lon="0.37321">
        <ele>39.6</ele>
        <time>2022-04-05T13:14:58Z</time>
      </trkpt>
      <trkpt lat="44.8655" lon="0.37321">
        <ele>39.7</ele>
        <time>2022-04-05T13:15:00Z</time>
      </trkpt>
      <trkpt lat="44.8655" lon="0.3732">
        <ele>39.8</ele>
        <time>2022-04-05T13:15:01Z</time>
      </trkpt>
      <trkpt lat="44.86551" lon="0.3732">
        <ele>39.9</ele>
        <time>2022-04-05T13:15:02Z</time>
      </trkpt>
      <trkpt lat="44.86553" lon="0.3732">
        <ele>40</ele>
        <time>2022-04-05T13:15:03Z</time>
      </trkpt>
      <trkpt lat="44.86554" lon="0.3732">
        <ele>40.1</ele>
        <time>2022-04-05T13:15:04Z</time>
      </trkpt>
      <trkpt lat="44.86556" lon="0.3732">
        <ele>40.3</ele>
        <time>2022-04-05T13:15:05Z</time>
      </trkpt>
      <trkpt lat="44.86557" lon="0.37319">
        <ele>40.4</ele>
        <time>2022-04-05T13:15:06Z</time>
      </trkpt>
      <trkpt lat="44.86558" lon="0.37319">
        <ele>40.5</ele>
        <time>2022-04-05T13:15:07Z</time>
      </trkpt>
      <trkpt lat="44.86558" lon="0.37319">
        <ele>40.5</ele>
        <time>2022-04-05T13:15:09Z</time>
      </trkpt>
      <trkpt lat="44.86559" lon="0.37319">
        <ele>40.6</ele>
        <time>2022-04-05T13:15:10Z</time>
      </trkpt>
      <trkpt lat="44.8656" lon="0.37318">
        <ele>40.7</ele>
        <time>2022-04-05T13:15:11Z</time>
      </trkpt>
      <trkpt lat="44.86562" lon="0.37317">
        <ele>40.8</ele>
        <time>2022-04-05T13:15:12Z</time>
      </trkpt>
      <trkpt lat="44.86563" lon="0.37317">
        <ele>41</ele>
        <time>2022-04-05T13:15:13Z</time>
      </trkpt>
      <trkpt lat="44.86564" lon="0.37317">
        <ele>41.1</ele>
        <time>2022-04-05T13:15:14Z</time>
      </trkpt>
      <trkpt lat="44.86565" lon="0.37316">
        <ele>41.1</ele>
        <time>2022-04-05T13:15:15Z</time>
      </trkpt>
      <trkpt lat="44.86566" lon="0.37316">
        <ele>41.2</ele>
        <time>2022-04-05T13:15:16Z</time>
      </trkpt>
      <trkpt lat="44.86567" lon="0.37315">
        <ele>41.3</ele>
        <time>2022-04-05T13:15:17Z</time>
      </trkpt>
      <trkpt lat="44.86569" lon="0.37315">
        <ele>41.5</ele>
        <time>2022-04-05T13:15:18Z</time>
      </trkpt>
      <trkpt lat="44.8657" lon="0.37314">
        <ele>41.6</ele>
        <time>2022-04-05T13:15:19Z</time>
      </trkpt>
      <trkpt lat="44.86571" lon="0.37314">
        <ele>41.6</ele>
        <time>2022-04-05T13:15:21Z</time>
      </trkpt>
      <trkpt lat="44.86572" lon="0.37314">
        <ele>41.8</ele>
        <time>2022-04-05T13:15:22Z</time>
      </trkpt>
      <trkpt lat="44.86574" lon="0.37313">
        <ele>41.9</ele>
        <time>2022-04-05T13:15:23Z</time>
      </trkpt>
      <trkpt lat="44.86575" lon="0.37313">
        <ele>42</ele>
        <time>2022-04-05T13:15:24Z</time>
      </trkpt>
      <trkpt lat="44.86576" lon="0.37313">
        <ele>42</ele>
        <time>2022-04-05T13:15:25Z</time>
      </trkpt>
      <trkpt lat="44.86577" lon="0.37312">
        <ele>42.2</ele>
        <time>2022-04-05T13:15:26Z</time>
      </trkpt>
      <trkpt lat="44.86578" lon="0.37312">
        <ele>42.3</ele>
        <time>2022-04-05T13:15:27Z</time>
      </trkpt>
      <trkpt lat="44.86579" lon="0.37311">
        <ele>42.4</ele>
        <time>2022-04-05T13:15:28Z</time>
      </trkpt>
      <trkpt lat="44.86581" lon="0.3731">
        <ele>42.5</ele>
        <time>2022-04-05T13:15:29Z</time>
      </trkpt>
      <trkpt lat="44.86582" lon="0.3731">
        <ele>42.6</ele>
        <time>2022-04-05T13:15:31Z</time>
      </trkpt>
      <trkpt lat="44.86583" lon="0.3731">
        <ele>42.7</ele>
        <time>2022-04-05T13:15:32Z</time>
      </trkpt>
      <trkpt lat="44.86585" lon="0.37308">
        <ele>42.9</ele>
        <time>2022-04-05T13:15:33Z</time>
      </trkpt>
      <trkpt lat="44.86586" lon="0.37308">
        <ele>42.9</ele>
        <time>2022-04-05T13:15:34Z</time>
      </trkpt>
      <trkpt lat="44.86586" lon="0.37308">
        <ele>43</ele>
        <time>2022-04-05T13:15:35Z</time>
      </trkpt>
      <trkpt lat="44.86587" lon="0.37307">
        <ele>43.1</ele>
        <time>2022-04-05T13:15:36Z</time>
      </trkpt>
      <trkpt lat="44.86589" lon="0.37306">
        <ele>43.3</ele>
        <time>2022-04-05T13:15:38Z</time>
      </trkpt>
      <trkpt lat="44.86589" lon="0.37305">
        <ele>43.3</ele>
        <time>2022-04-05T13:15:39Z</time>
      </trkpt>
      <trkpt lat="44.8659" lon="0.37304">
        <ele>43.4</ele>
        <time>2022-04-05T13:15:40Z</time>
      </trkpt>
      <trkpt lat="44.86591" lon="0.37303">
        <ele>43.5</ele>
        <time>2022-04-05T13:15:41Z</time>
      </trkpt>
      <trkpt lat="44.86592" lon="0.37302">
        <ele>43.6</ele>
        <time>2022-04-05T13:15:42Z</time>
      </trkpt>
      <trkpt lat="44.86593" lon="0.37301">
        <ele>43.7</ele>
        <time>2022-04-05T13:15:43Z</time>
      </trkpt>
      <trkpt lat="44.86592" lon="0.37302">
        <ele>43.7</ele>
        <time>2022-04-05T13:15:44Z</time>
      </trkpt>
      <trkpt lat="44.86592" lon="0.37302">
        <ele>43.7</ele>
        <time>2022-04-05T13:15:45Z</time>
      </trkpt>
      <trkpt lat="44.86592" lon="0.37302">
        <ele>43.7</ele>
        <time>2022-04-05T13:15:46Z</time>
      </trkpt>
      <trkpt lat="44.86592" lon="0.37302">
        <ele>43.8</ele>
        <time>2022-04-05T13:15:47Z</time>
      </trkpt>
      <trkpt lat="44.86592" lon="0.37302">
        <ele>43.8</ele>
        <time>2022-04-05T13:15:48Z</time>
      </trkpt>
      <trkpt lat="44.86593" lon="0.37301">
        <ele>43.8</ele>
        <time>2022-04-05T13:15:49Z</time>
      </trkpt>
      <trkpt lat="44.86594" lon="0.37301">
        <ele>43.9</ele>
        <time>2022-04-05T13:15:50Z</time>
      </trkpt>
      <trkpt lat="44.86595" lon="0.373">
        <ele>44.1</ele>
        <time>2022-04-05T13:15:52Z</time>
      </trkpt>
      <trkpt lat="44.86597" lon="0.37299">
        <ele>44.2</ele>
        <time>2022-04-05T13:15:53Z</time>
      </trkpt>
      <trkpt lat="44.86597" lon="0.37299">
        <ele>44.3</ele>
        <time>2022-04-05T13:15:54Z</time>
      </trkpt>
      <trkpt lat="44.86598" lon="0.37298">
        <ele>44.4</ele>
        <time>2022-04-05T13:15:55Z</time>
      </trkpt>
      <trkpt lat="44.86599" lon="0.37297">
        <ele>44.5</ele>
        <time>2022-04-05T13:15:56Z</time>
      </trkpt>
      <trkpt lat="44.866" lon="0.37296">
        <ele>44.6</ele>
        <time>2022-04-05T13:15:57Z</time>
      </trkpt>
      <trkpt lat="44.86602" lon="0.37295">
        <ele>44.8</ele>
        <time>2022-04-05T13:15:58Z</time>
      </trkpt>
      <trkpt lat="44.86603" lon="0.37294">
        <ele>44.9</ele>
        <time>2022-04-05T13:16:00Z</time>
      </trkpt>
      <trkpt lat="44.86604" lon="0.37294">
        <ele>45</ele>
        <time>2022-04-05T13:16:01Z</time>
      </trkpt>
      <trkpt lat="44.86605" lon="0.37293">
        <ele>45.1</ele>
        <time>2022-04-05T13:16:02Z</time>
      </trkpt>
      <trkpt lat="44.86606" lon="0.37293">
        <ele>45.2</ele>
        <time>2022-04-05T13:16:03Z</time>
      </trkpt>
      <trkpt lat="44.86606" lon="0.37293">
        <ele>45.2</ele>
        <time>2022-04-05T13:16:04Z</time>
      </trkpt>
      <trkpt lat="44.86607" lon="0.37293">
        <ele>45.3</ele>
        <time>2022-04-05T13:16:05Z</time>
      </trkpt>
      <trkpt lat="44.86608" lon="0.37293">
        <ele>45.4</ele>
        <time>2022-04-05T13:16:06Z</time>
      </trkpt>
      <trkpt lat="44.86609" lon="0.37293">
        <ele>45.4</ele>
        <time>2022-04-05T13:16:07Z</time>
      </trkpt>
      <trkpt lat="44.86611" lon="0.37292">
        <ele>45.7</ele>
        <time>2022-04-05T13:16:09Z</time>
      </trkpt>
      <trkpt lat="44.86612" lon="0.37292">
        <ele>45.7</ele>
        <time>2022-04-05T13:16:10Z</time>
      </trkpt>
      <trkpt lat="44.86614" lon="0.37292">
        <ele>45.9</ele>
        <time>2022-04-05T13:16:11Z</time>
      </trkpt>
      <trkpt lat="44.86615" lon="0.37291">
        <ele>46</ele>
        <time>2022-04-05T13:16:12Z</time>
      </trkpt>
      <trkpt lat="44.86616" lon="0.37291">
        <ele>46.1</ele>
        <time>2022-04-05T13:16:13Z</time>
      </trkpt>
      <trkpt lat="44.86617" lon="0.37291">
        <ele>46.2</ele>
        <time>2022-04-05T13:16:15Z</time>
      </trkpt>
      <trkpt lat="44.86618" lon="0.3729">
        <ele>46.3</ele>
        <time>2022-04-05T13:16:16Z</time>
      </trkpt>
      <trkpt lat="44.86619" lon="0.3729">
        <ele>46.4</ele>
        <time>2022-04-05T13:16:17Z</time>
      </trkpt>
      <trkpt lat="44.86621" lon="0.37288">
        <ele>46.6</ele>
        <time>2022-04-05T13:16:18Z</time>
      </trkpt>
      <trkpt lat="44.86621" lon="0.37288">
        <ele>46.6</ele>
        <time>2022-04-05T13:16:19Z</time>
      </trkpt>
      <trkpt lat="44.86622" lon="0.37287">
        <ele>46.7</ele>
        <time>2022-04-05T13:16:20Z</time>
      </trkpt>
      <trkpt lat="44.86623" lon="0.37287">
        <ele>46.8</ele>
        <time>2022-04-05T13:16:22Z</time>
      </trkpt>
      <trkpt lat="44.86625" lon="0.37285">
        <ele>47</ele>
        <time>2022-04-05T13:16:23Z</time>
      </trkpt>
      <trkpt lat="44.86625" lon="0.37285">
        <ele>47.1</ele>
        <time>2022-04-05T13:16:24Z</time>
      </trkpt>
      <trkpt lat="44.86626" lon="0.37285">
        <ele>47.1</ele>
        <time>2022-04-05T13:16:25Z</time>
      </trkpt>
      <trkpt lat="44.86627" lon="0.37285">
        <ele>47.2</ele>
        <time>2022-04-05T13:16:26Z</time>
      </trkpt>
      <trkpt lat="44.86628" lon="0.37284">
        <ele>47.3</ele>
        <time>2022-04-05T13:16:27Z</time>
      </trkpt>
      <trkpt lat="44.8663" lon="0.37284">
        <ele>47.5</ele>
        <time>2022-04-05T13:16:28Z</time>
      </trkpt>
      <trkpt lat="44.8663" lon="0.37283">
        <ele>47.5</ele>
        <time>2022-04-05T13:16:29Z</time>
      </trkpt>
      <trkpt lat="44.86631" lon="0.37283">
        <ele>47.6</ele>
        <time>2022-04-05T13:16:31Z</time>
      </trkpt>
      <trkpt lat="44.86632" lon="0.37283">
        <ele>47.7</ele>
        <time>2022-04-05T13:16:32Z</time>
      </trkpt>
      <trkpt lat="44.86634" lon="0.37282">
        <ele>47.9</ele>
        <time>2022-04-05T13:16:33Z</time>
      </trkpt>
      <trkpt lat="44.86634" lon="0.37282">
        <ele>47.9</ele>
        <time>2022-04-05T13:16:34Z</time>
      </trkpt>
      <trkpt lat="44.86635" lon="0.3728">
        <ele>48</ele>
        <time>2022-04-05T13:16:36Z</time>
      </trkpt>
      <trkpt lat="44.86635" lon="0.37279">
        <ele>48.1</ele>
        <time>2022-04-05T13:16:37Z</time>
      </trkpt>
      <trkpt lat="44.86637" lon="0.37278">
        <ele>48.3</ele>
        <time>2022-04-05T13:16:38Z</time>
      </trkpt>
      <trkpt lat="44.86637" lon="0.37278">
        <ele>48.3</ele>
        <time>2022-04-05T13:16:39Z</time>
      </trkpt>
      <trkpt lat="44.86638" lon="0.37277">
        <ele>48.4</ele>
        <time>2022-04-05T13:16:40Z</time>
      </trkpt>
      <trkpt lat="44.86639" lon="0.37276">
        <ele>48.5</ele>
        <time>2022-04-05T13:16:41Z</time>
      </trkpt>
      <trkpt lat="44.8664" lon="0.37276">
        <ele>48.6</ele>
        <time>2022-04-05T13:16:43Z</time>
      </trkpt>
      <trkpt lat="44.86641" lon="0.37275">
        <ele>48.7</ele>
        <time>2022-04-05T13:16:44Z</time>
      </trkpt>
      <trkpt lat="44.86642" lon="0.37275">
        <ele>48.8</ele>
        <time>2022-04-05T13:16:45Z</time>
      </trkpt>
      <trkpt lat="44.86642" lon="0.37275">
        <ele>48.9</ele>
        <time>2022-04-05T13:16:46Z</time>
      </trkpt>
      <trkpt lat="44.86644" lon="0.37275">
        <ele>49</ele>
        <time>2022-04-05T13:16:47Z</time>
      </trkpt>
      <trkpt lat="44.86645" lon="0.37274">
        <ele>49.1</ele>
        <time>2022-04-05T13:16:48Z</time>
      </trkpt>
      <trkpt lat="44.86646" lon="0.37274">
        <ele>49.2</ele>
        <time>2022-04-05T13:16:49Z</time>
      </trkpt>
      <trkpt lat="44.86646" lon="0.37275">
        <ele>49.3</ele>
        <time>2022-04-05T13:16:50Z</time>
      </trkpt>
      <trkpt lat="44.86648" lon="0.37275">
        <ele>49.4</ele>
        <time>2022-04-05T13:16:51Z</time>
      </trkpt>
      <trkpt lat="44.86649" lon="0.37275">
        <ele>49.5</ele>
        <time>2022-04-05T13:16:52Z</time>
      </trkpt>
      <trkpt lat="44.86651" lon="0.37275">
        <ele>49.7</ele>
        <time>2022-04-05T13:16:54Z</time>
      </trkpt>
      <trkpt lat="44.86652" lon="0.37275">
        <ele>49.8</ele>
        <time>2022-04-05T13:16:55Z</time>
      </trkpt>
      <trkpt lat="44.86653" lon="0.37275">
        <ele>49.8</ele>
        <time>2022-04-05T13:16:56Z</time>
      </trkpt>
      <trkpt lat="44.86654" lon="0.37275">
        <ele>49.9</ele>
        <time>2022-04-05T13:16:57Z</time>
      </trkpt>
      <trkpt lat="44.86656" lon="0.37276">
        <ele>50.1</ele>
        <time>2022-04-05T13:16:58Z</time>
      </trkpt>
      <trkpt lat="44.86656" lon="0.37276">
        <ele>50.2</ele>
        <time>2022-04-05T13:16:59Z</time>
      </trkpt>
      <trkpt lat="44.86658" lon="0.37276">
        <ele>50.3</ele>
        <time>2022-04-05T13:17:00Z</time>
      </trkpt>
      <trkpt lat="44.86659" lon="0.37276">
        <ele>50.4</ele>
        <time>2022-04-05T13:17:02Z</time>
      </trkpt>
      <trkpt lat="44.86661" lon="0.37276">
        <ele>50.6</ele>
        <time>2022-04-05T13:17:03Z</time>
      </trkpt>
      <trkpt lat="44.86662" lon="0.37276">
        <ele>50.7</ele>
        <time>2022-04-05T13:17:04Z</time>
      </trkpt>
      <trkpt lat="44.86663" lon="0.37276">
        <ele>50.8</ele>
        <time>2022-04-05T13:17:06Z</time>
      </trkpt>
      <trkpt lat="44.86664" lon="0.37275">
        <ele>50.9</ele>
        <time>2022-04-05T13:17:07Z</time>
      </trkpt>
      <trkpt lat="44.86666" lon="0.37275">
        <ele>51.1</ele>
        <time>2022-04-05T13:17:09Z</time>
      </trkpt>
      <trkpt lat="44.86667" lon="0.37275">
        <ele>51.2</ele>
        <time>2022-04-05T13:17:10Z</time>
      </trkpt>
      <trkpt lat="44.86668" lon="0.37276">
        <ele>51.2</ele>
        <time>2022-04-05T13:17:11Z</time>
      </trkpt>
      <trkpt lat="44.86669" lon="0.37277">
        <ele>51.3</ele>
        <time>2022-04-05T13:17:12Z</time>
      </trkpt>
      <trkpt lat="44.86671" lon="0.37278">
        <ele>51.6</ele>
        <time>2022-04-05T13:17:13Z</time>
      </trkpt>
      <trkpt lat="44.86672" lon="0.37278">
        <ele>51.6</ele>
        <time>2022-04-05T13:17:15Z</time>
      </trkpt>
      <trkpt lat="44.86673" lon="0.37278">
        <ele>51.7</ele>
        <time>2022-04-05T13:17:16Z</time>
      </trkpt>
      <trkpt lat="44.86674" lon="0.37279">
        <ele>51.8</ele>
        <time>2022-04-05T13:17:17Z</time>
      </trkpt>
      <trkpt lat="44.86676" lon="0.37279">
        <ele>52</ele>
        <time>2022-04-05T13:17:18Z</time>
      </trkpt>
      <trkpt lat="44.86677" lon="0.37279">
        <ele>52.1</ele>
        <time>2022-04-05T13:17:19Z</time>
      </trkpt>
      <trkpt lat="44.86678" lon="0.37279">
        <ele>52.1</ele>
        <time>2022-04-05T13:17:20Z</time>
      </trkpt>
      <trkpt lat="44.86679" lon="0.37279">
        <ele>52.2</ele>
        <time>2022-04-05T13:17:21Z</time>
      </trkpt>
      <trkpt lat="44.8668" lon="0.37279">
        <ele>52.3</ele>
        <time>2022-04-05T13:17:22Z</time>
      </trkpt>
      <trkpt lat="44.86681" lon="0.37279">
        <ele>52.4</ele>
        <time>2022-04-05T13:17:23Z</time>
      </trkpt>
      <trkpt lat="44.86681" lon="0.37278">
        <ele>52.5</ele>
        <time>2022-04-05T13:17:24Z</time>
      </trkpt>
      <trkpt lat="44.86682" lon="0.37278">
        <ele>52.5</ele>
        <time>2022-04-05T13:17:25Z</time>
      </trkpt>
      <trkpt lat="44.86683" lon="0.37278">
        <ele>52.6</ele>
        <time>2022-04-05T13:17:27Z</time>
      </trkpt>
      <trkpt lat="44.86685" lon="0.37279">
        <ele>52.8</ele>
        <time>2022-04-05T13:17:28Z</time>
      </trkpt>
      <trkpt lat="44.86685" lon="0.37279">
        <ele>52.8</ele>
        <time>2022-04-05T13:17:29Z</time>
      </trkpt>
      <trkpt lat="44.86686" lon="0.3728">
        <ele>52.9</ele>
        <time>2022-04-05T13:17:30Z</time>
      </trkpt>
      <trkpt lat="44.86688" lon="0.3728">
        <ele>53.1</ele>
        <time>2022-04-05T13:17:31Z</time>
      </trkpt>
      <trkpt lat="44.86689" lon="0.37281">
        <ele>53.2</ele>
        <time>2022-04-05T13:17:33Z</time>
      </trkpt>
      <trkpt lat="44.8669" lon="0.37281">
        <ele>53.2</ele>
        <time>2022-04-05T13:17:34Z</time>
      </trkpt>
      <trkpt lat="44.86691" lon="0.37281">
        <ele>53.3</ele>
        <time>2022-04-05T13:17:35Z</time>
      </trkpt>
      <trkpt lat="44.86692" lon="0.37281">
        <ele>53.4</ele>
        <time>2022-04-05T13:17:36Z</time>
      </trkpt>
      <trkpt lat="44.86693" lon="0.37282">
        <ele>53.5</ele>
        <time>2022-04-05T13:17:37Z</time>
      </trkpt>
      <trkpt lat="44.86694" lon="0.37282">
        <ele>53.6</ele>
        <time>2022-04-05T13:17:38Z</time>
      </trkpt>
      <trkpt lat="44.86695" lon="0.37283">
        <ele>53.7</ele>
        <time>2022-04-05T13:17:39Z</time>
      </trkpt>
      <trkpt lat="44.86696" lon="0.37283">
        <ele>53.8</ele>
        <time>2022-04-05T13:17:40Z</time>
      </trkpt>
      <trkpt lat="44.86698" lon="0.37284">
        <ele>53.9</ele>
        <time>2022-04-05T13:17:41Z</time>
      </trkpt>
      <trkpt lat="44.86698" lon="0.37284">
        <ele>54</ele>
        <time>2022-04-05T13:17:43Z</time>
      </trkpt>
      <trkpt lat="44.86699" lon="0.37285">
        <ele>54</ele>
        <time>2022-04-05T13:17:44Z</time>
      </trkpt>
      <trkpt lat="44.867" lon="0.37285">
        <ele>54.1</ele>
        <time>2022-04-05T13:17:45Z</time>
      </trkpt>
      <trkpt lat="44.86701" lon="0.37285">
        <ele>54.2</ele>
        <time>2022-04-05T13:17:46Z</time>
      </trkpt>
      <trkpt lat="44.86702" lon="0.37285">
        <ele>54.3</ele>
        <time>2022-04-05T13:17:47Z</time>
      </trkpt>
      <trkpt lat="44.86704" lon="0.37286">
        <ele>54.4</ele>
        <time>2022-04-05T13:17:48Z</time>
      </trkpt>
      <trkpt lat="44.86704" lon="0.37287">
        <ele>54.4</ele>
        <time>2022-04-05T13:17:49Z</time>
      </trkpt>
      <trkpt lat="44.86705" lon="0.37287">
        <ele>54.5</ele>
        <time>2022-04-05T13:17:50Z</time>
      </trkpt>
      <trkpt lat="44.86707" lon="0.37289">
        <ele>54.6</ele>
        <time>2022-04-05T13:17:51Z</time>
      </trkpt>
      <trkpt lat="44.86708" lon="0.3729">
        <ele>54.7</ele>
        <time>2022-04-05T13:17:53Z</time>
      </trkpt>
      <trkpt lat="44.86708" lon="0.37291">
        <ele>54.8</ele>
        <time>2022-04-05T13:17:54Z</time>
      </trkpt>
      <trkpt lat="44.86709" lon="0.37291">
        <ele>54.8</ele>
        <time>2022-04-05T13:17:55Z</time>
      </trkpt>
      <trkpt lat="44.8671" lon="0.37292">
        <ele>54.9</ele>
        <time>2022-04-05T13:17:56Z</time>
      </trkpt>
      <trkpt lat="44.86712" lon="0.37292">
        <ele>55</ele>
        <time>2022-04-05T13:17:57Z</time>
      </trkpt>
      <trkpt lat="44.86713" lon="0.37292">
        <ele>55.1</ele>
        <time>2022-04-05T13:17:58Z</time>
      </trkpt>
      <trkpt lat="44.86714" lon="0.37293">
        <ele>55.2</ele>
        <time>2022-04-05T13:17:59Z</time>
      </trkpt>
      <trkpt lat="44.86715" lon="0.37293">
        <ele>55.2</ele>
        <time>2022-04-05T13:18:00Z</time>
      </trkpt>
      <trkpt lat="44.86716" lon="0.37294">
        <ele>55.3</ele>
        <time>2022-04-05T13:18:02Z</time>
      </trkpt>
      <trkpt lat="44.86717" lon="0.37295">
        <ele>55.4</ele>
        <time>2022-04-05T13:18:03Z</time>
      </trkpt>
      <trkpt lat="44.86718" lon="0.37296">
        <ele>55.5</ele>
        <time>2022-04-05T13:18:04Z</time>
      </trkpt>
      <trkpt lat="44.86718" lon="0.37297">
        <ele>55.5</ele>
        <time>2022-04-05T13:18:05Z</time>
      </trkpt>
      <trkpt lat="44.86719" lon="0.37298">
        <ele>55.6</ele>
        <time>2022-04-05T13:18:06Z</time>
      </trkpt>
      <trkpt lat="44.8672" lon="0.37299">
        <ele>55.7</ele>
        <time>2022-04-05T13:18:07Z</time>
      </trkpt>
      <trkpt lat="44.86722" lon="0.37299">
        <ele>55.8</ele>
        <time>2022-04-05T13:18:09Z</time>
      </trkpt>
      <trkpt lat="44.86722" lon="0.37299">
        <ele>55.8</ele>
        <time>2022-04-05T13:18:10Z</time>
      </trkpt>
      <trkpt lat="44.86722" lon="0.37299">
        <ele>55.8</ele>
        <time>2022-04-05T13:18:11Z</time>
      </trkpt>
      <trkpt lat="44.86722" lon="0.37298">
        <ele>55.8</ele>
        <time>2022-04-05T13:18:12Z</time>
      </trkpt>
      <trkpt lat="44.86722" lon="0.37298">
        <ele>55.8</ele>
        <time>2022-04-05T13:18:14Z</time>
      </trkpt>
      <trkpt lat="44.86722" lon="0.37299">
        <ele>55.9</ele>
        <time>2022-04-05T13:18:15Z</time>
      </trkpt>
      <trkpt lat="44.86723" lon="0.37299">
        <ele>55.9</ele>
        <time>2022-04-05T13:18:16Z</time>
      </trkpt>
      <trkpt lat="44.86724" lon="0.373">
        <ele>56</ele>
        <time>2022-04-05T13:18:17Z</time>
      </trkpt>
      <trkpt lat="44.86727" lon="0.37301">
        <ele>56.2</ele>
        <time>2022-04-05T13:18:19Z</time>
      </trkpt>
      <trkpt lat="44.86729" lon="0.37303">
        <ele>56.3</ele>
        <time>2022-04-05T13:18:20Z</time>
      </trkpt>
      <trkpt lat="44.86729" lon="0.37303">
        <ele>56.4</ele>
        <time>2022-04-05T13:18:21Z</time>
      </trkpt>
      <trkpt lat="44.8673" lon="0.37304">
        <ele>56.4</ele>
        <time>2022-04-05T13:18:22Z</time>
      </trkpt>
      <trkpt lat="44.86733" lon="0.37307">
        <ele>56.6</ele>
        <time>2022-04-05T13:18:24Z</time>
      </trkpt>
      <trkpt lat="44.86733" lon="0.37307">
        <ele>56.7</ele>
        <time>2022-04-05T13:18:25Z</time>
      </trkpt>
      <trkpt lat="44.86734" lon="0.3731">
        <ele>56.8</ele>
        <time>2022-04-05T13:18:26Z</time>
      </trkpt>
      <trkpt lat="44.86735" lon="0.37311">
        <ele>56.9</ele>
        <time>2022-04-05T13:18:27Z</time>
      </trkpt>
      <trkpt lat="44.86736" lon="0.37312">
        <ele>57</ele>
        <time>2022-04-05T13:18:28Z</time>
      </trkpt>
      <trkpt lat="44.86736" lon="0.37313">
        <ele>57</ele>
        <time>2022-04-05T13:18:29Z</time>
      </trkpt>
      <trkpt lat="44.86737" lon="0.37314">
        <ele>57.1</ele>
        <time>2022-04-05T13:18:30Z</time>
      </trkpt>
      <trkpt lat="44.86739" lon="0.37315">
        <ele>57.2</ele>
        <time>2022-04-05T13:18:32Z</time>
      </trkpt>
      <trkpt lat="44.8674" lon="0.37315">
        <ele>57.3</ele>
        <time>2022-04-05T13:18:33Z</time>
      </trkpt>
      <trkpt lat="44.86741" lon="0.37316">
        <ele>57.4</ele>
        <time>2022-04-05T13:18:34Z</time>
      </trkpt>
      <trkpt lat="44.86742" lon="0.37317">
        <ele>57.5</ele>
        <time>2022-04-05T13:18:35Z</time>
      </trkpt>
      <trkpt lat="44.86743" lon="0.37318">
        <ele>57.6</ele>
        <time>2022-04-05T13:18:36Z</time>
      </trkpt>
      <trkpt lat="44.86744" lon="0.37319">
        <ele>57.6</ele>
        <time>2022-04-05T13:18:37Z</time>
      </trkpt>
      <trkpt lat="44.86745" lon="0.3732">
        <ele>57.7</ele>
        <time>2022-04-05T13:18:38Z</time>
      </trkpt>
      <trkpt lat="44.86746" lon="0.3732">
        <ele>57.8</ele>
        <time>2022-04-05T13:18:39Z</time>
      </trkpt>
      <trkpt lat="44.86747" lon="0.37321">
        <ele>57.9</ele>
        <time>2022-04-05T13:18:40Z</time>
      </trkpt>
      <trkpt lat="44.86749" lon="0.37323">
        <ele>58</ele>
        <time>2022-04-05T13:18:41Z</time>
      </trkpt>
      <trkpt lat="44.8675" lon="0.37324">
        <ele>58.1</ele>
        <time>2022-04-05T13:18:43Z</time>
      </trkpt>
      <trkpt lat="44.8675" lon="0.37325">
        <ele>58.2</ele>
        <time>2022-04-05T13:18:44Z</time>
      </trkpt>
      <trkpt lat="44.86751" lon="0.37325">
        <ele>58.2</ele>
        <time>2022-04-05T13:18:45Z</time>
      </trkpt>
      <trkpt lat="44.86752" lon="0.37326">
        <ele>58.3</ele>
        <time>2022-04-05T13:18:46Z</time>
      </trkpt>
      <trkpt lat="44.86753" lon="0.37327">
        <ele>58.4</ele>
        <time>2022-04-05T13:18:47Z</time>
      </trkpt>
      <trkpt lat="44.86754" lon="0.37328">
        <ele>58.5</ele>
        <time>2022-04-05T13:18:48Z</time>
      </trkpt>
      <trkpt lat="44.86755" lon="0.37329">
        <ele>58.6</ele>
        <time>2022-04-05T13:18:49Z</time>
      </trkpt>
      <trkpt lat="44.86756" lon="0.37329">
        <ele>58.6</ele>
        <time>2022-04-05T13:18:50Z</time>
      </trkpt>
      <trkpt lat="44.86758" lon="0.37331">
        <ele>58.8</ele>
        <time>2022-04-05T13:18:51Z</time>
      </trkpt>
      <trkpt lat="44.86759" lon="0.37332">
        <ele>58.9</ele>
        <time>2022-04-05T13:18:53Z</time>
      </trkpt>
      <trkpt lat="44.8676" lon="0.37332">
        <ele>59</ele>
        <time>2022-04-05T13:18:54Z</time>
      </trkpt>
      <trkpt lat="44.86761" lon="0.37333">
        <ele>59</ele>
        <time>2022-04-05T13:18:55Z</time>
      </trkpt>
      <trkpt lat="44.86762" lon="0.37333">
        <ele>59.1</ele>
        <time>2022-04-05T13:18:56Z</time>
      </trkpt>
      <trkpt lat="44.86763" lon="0.37334">
        <ele>59.1</ele>
        <time>2022-04-05T13:18:57Z</time>
      </trkpt>
      <trkpt lat="44.86765" lon="0.37334">
        <ele>59.3</ele>
        <time>2022-04-05T13:18:58Z</time>
      </trkpt>
      <trkpt lat="44.86766" lon="0.37334">
        <ele>59.3</ele>
        <time>2022-04-05T13:18:59Z</time>
      </trkpt>
      <trkpt lat="44.86767" lon="0.37333">
        <ele>59.4</ele>
        <time>2022-04-05T13:19:00Z</time>
      </trkpt>
      <trkpt lat="44.86768" lon="0.37333">
        <ele>59.5</ele>
        <time>2022-04-05T13:19:02Z</time>
      </trkpt>
      <trkpt lat="44.86769" lon="0.37331">
        <ele>59.8</ele>
        <time>2022-04-05T13:19:03Z</time>
      </trkpt>
      <trkpt lat="44.86771" lon="0.37329">
        <ele>59.9</ele>
        <time>2022-04-05T13:19:04Z</time>
      </trkpt>
      <trkpt lat="44.86771" lon="0.37327">
        <ele>60</ele>
        <time>2022-04-05T13:19:05Z</time>
      </trkpt>
      <trkpt lat="44.86771" lon="0.37325">
        <ele>60.1</ele>
        <time>2022-04-05T13:19:06Z</time>
      </trkpt>
      <trkpt lat="44.86771" lon="0.37323">
        <ele>60.2</ele>
        <time>2022-04-05T13:19:07Z</time>
      </trkpt>
      <trkpt lat="44.86771" lon="0.37319">
        <ele>60.3</ele>
        <time>2022-04-05T13:19:08Z</time>
      </trkpt>
      <trkpt lat="44.86772" lon="0.37318">
        <ele>60.4</ele>
        <time>2022-04-05T13:19:09Z</time>
      </trkpt>
      <trkpt lat="44.86772" lon="0.37316">
        <ele>60.4</ele>
        <time>2022-04-05T13:19:10Z</time>
      </trkpt>
      <trkpt lat="44.86772" lon="0.37314">
        <ele>60.4</ele>
        <time>2022-04-05T13:19:12Z</time>
      </trkpt>
      <trkpt lat="44.86773" lon="0.37312">
        <ele>60.5</ele>
        <time>2022-04-05T13:19:13Z</time>
      </trkpt>
      <trkpt lat="44.86773" lon="0.3731">
        <ele>60.5</ele>
        <time>2022-04-05T13:19:14Z</time>
      </trkpt>
      <trkpt lat="44.86773" lon="0.37309">
        <ele>60.5</ele>
        <time>2022-04-05T13:19:15Z</time>
      </trkpt>
      <trkpt lat="44.86774" lon="0.37307">
        <ele>60.6</ele>
        <time>2022-04-05T13:19:16Z</time>
      </trkpt>
      <trkpt lat="44.86774" lon="0.37305">
        <ele>60.6</ele>
        <time>2022-04-05T13:19:17Z</time>
      </trkpt>
      <trkpt lat="44.86774" lon="0.37304">
        <ele>60.7</ele>
        <time>2022-04-05T13:19:18Z</time>
      </trkpt>
      <trkpt lat="44.86775" lon="0.37301">
        <ele>60.7</ele>
        <time>2022-04-05T13:19:19Z</time>
      </trkpt>
      <trkpt lat="44.86776" lon="0.373">
        <ele>60.7</ele>
        <time>2022-04-05T13:19:20Z</time>
      </trkpt>
      <trkpt lat="44.86777" lon="0.37299">
        <ele>60.7</ele>
        <time>2022-04-05T13:19:21Z</time>
      </trkpt>
      <trkpt lat="44.86777" lon="0.37297">
        <ele>60.8</ele>
        <time>2022-04-05T13:19:23Z</time>
      </trkpt>
      <trkpt lat="44.86778" lon="0.37295">
        <ele>60.8</ele>
        <time>2022-04-05T13:19:24Z</time>
      </trkpt>
      <trkpt lat="44.86778" lon="0.37294">
        <ele>60.9</ele>
        <time>2022-04-05T13:19:25Z</time>
      </trkpt>
      <trkpt lat="44.86779" lon="0.37291">
        <ele>60.9</ele>
        <time>2022-04-05T13:19:26Z</time>
      </trkpt>
      <trkpt lat="44.86779" lon="0.3729">
        <ele>60.9</ele>
        <time>2022-04-05T13:19:27Z</time>
      </trkpt>
      <trkpt lat="44.86779" lon="0.37289">
        <ele>60.9</ele>
        <time>2022-04-05T13:19:28Z</time>
      </trkpt>
      <trkpt lat="44.86779" lon="0.37286">
        <ele>61</ele>
        <time>2022-04-05T13:19:29Z</time>
      </trkpt>
      <trkpt lat="44.8678" lon="0.37285">
        <ele>61</ele>
        <time>2022-04-05T13:19:30Z</time>
      </trkpt>
      <trkpt lat="44.8678" lon="0.37283">
        <ele>61</ele>
        <time>2022-04-05T13:19:31Z</time>
      </trkpt>
      <trkpt lat="44.86781" lon="0.37281">
        <ele>61.1</ele>
        <time>2022-04-05T13:19:33Z</time>
      </trkpt>
      <trkpt lat="44.86782" lon="0.37278">
        <ele>61.1</ele>
        <time>2022-04-05T13:19:34Z</time>
      </trkpt>
      <trkpt lat="44.86782" lon="0.37277">
        <ele>61.1</ele>
        <time>2022-04-05T13:19:35Z</time>
      </trkpt>
      <trkpt lat="44.86782" lon="0.37276">
        <ele>61.2</ele>
        <time>2022-04-05T13:19:36Z</time>
      </trkpt>
      <trkpt lat="44.86783" lon="0.37274">
        <ele>61.2</ele>
        <time>2022-04-05T13:19:37Z</time>
      </trkpt>
      <trkpt lat="44.86783" lon="0.37273">
        <ele>61.2</ele>
        <time>2022-04-05T13:19:38Z</time>
      </trkpt>
      <trkpt lat="44.86784" lon="0.37271">
        <ele>61.2</ele>
        <time>2022-04-05T13:19:39Z</time>
      </trkpt>
      <trkpt lat="44.86784" lon="0.3727">
        <ele>61.3</ele>
        <time>2022-04-05T13:19:40Z</time>
      </trkpt>
      <trkpt lat="44.86784" lon="0.37268">
        <ele>61.3</ele>
        <time>2022-04-05T13:19:41Z</time>
      </trkpt>
      <trkpt lat="44.86785" lon="0.37265">
        <ele>61.3</ele>
        <time>2022-04-05T13:19:42Z</time>
      </trkpt>
      <trkpt lat="44.86785" lon="0.37264">
        <ele>61.4</ele>
        <time>2022-04-05T13:19:43Z</time>
      </trkpt>
      <trkpt lat="44.86786" lon="0.37263">
        <ele>61.4</ele>
        <time>2022-04-05T13:19:44Z</time>
      </trkpt>
      <trkpt lat="44.86786" lon="0.37262">
        <ele>61.4</ele>
        <time>2022-04-05T13:19:45Z</time>
      </trkpt>
      <trkpt lat="44.86786" lon="0.3726">
        <ele>61.4</ele>
        <time>2022-04-05T13:19:47Z</time>
      </trkpt>
      <trkpt lat="44.86787" lon="0.37258">
        <ele>61.5</ele>
        <time>2022-04-05T13:19:48Z</time>
      </trkpt>
      <trkpt lat="44.86787" lon="0.37257">
        <ele>61.5</ele>
        <time>2022-04-05T13:19:49Z</time>
      </trkpt>
      <trkpt lat="44.86787" lon="0.37255">
        <ele>61.5</ele>
        <time>2022-04-05T13:19:50Z</time>
      </trkpt>
      <trkpt lat="44.86787" lon="0.37253">
        <ele>61.6</ele>
        <time>2022-04-05T13:19:51Z</time>
      </trkpt>
      <trkpt lat="44.86787" lon="0.37252">
        <ele>61.6</ele>
        <time>2022-04-05T13:19:52Z</time>
      </trkpt>
      <trkpt lat="44.86788" lon="0.37249">
        <ele>61.6</ele>
        <time>2022-04-05T13:19:54Z</time>
      </trkpt>
      <trkpt lat="44.86789" lon="0.37248">
        <ele>61.7</ele>
        <time>2022-04-05T13:19:55Z</time>
      </trkpt>
      <trkpt lat="44.86789" lon="0.37246">
        <ele>61.7</ele>
        <time>2022-04-05T13:19:56Z</time>
      </trkpt>
      <trkpt lat="44.86789" lon="0.37245">
        <ele>61.7</ele>
        <time>2022-04-05T13:19:57Z</time>
      </trkpt>
      <trkpt lat="44.8679" lon="0.37242">
        <ele>61.8</ele>
        <time>2022-04-05T13:19:58Z</time>
      </trkpt>
      <trkpt lat="44.8679" lon="0.37241">
        <ele>61.8</ele>
        <time>2022-04-05T13:19:59Z</time>
      </trkpt>
      <trkpt lat="44.8679" lon="0.3724">
        <ele>61.8</ele>
        <time>2022-04-05T13:20:00Z</time>
      </trkpt>
      <trkpt lat="44.86791" lon="0.37237">
        <ele>61.9</ele>
        <time>2022-04-05T13:20:02Z</time>
      </trkpt>
      <trkpt lat="44.86791" lon="0.37235">
        <ele>61.9</ele>
        <time>2022-04-05T13:20:03Z</time>
      </trkpt>
      <trkpt lat="44.86791" lon="0.37234">
        <ele>61.9</ele>
        <time>2022-04-05T13:20:04Z</time>
      </trkpt>
      <trkpt lat="44.86792" lon="0.37233">
        <ele>61.9</ele>
        <time>2022-04-05T13:20:05Z</time>
      </trkpt>
      <trkpt lat="44.86792" lon="0.37231">
        <ele>61.9</ele>
        <time>2022-04-05T13:20:06Z</time>
      </trkpt>
      <trkpt lat="44.86793" lon="0.3723">
        <ele>62</ele>
        <time>2022-04-05T13:20:07Z</time>
      </trkpt>
      <trkpt lat="44.86793" lon="0.37228">
        <ele>62</ele>
        <time>2022-04-05T13:20:08Z</time>
      </trkpt>
      <trkpt lat="44.86794" lon="0.37226">
        <ele>62</ele>
        <time>2022-04-05T13:20:09Z</time>
      </trkpt>
      <trkpt lat="44.86794" lon="0.37225">
        <ele>62.1</ele>
        <time>2022-04-05T13:20:10Z</time>
      </trkpt>
      <trkpt lat="44.86794" lon="0.37223">
        <ele>62.1</ele>
        <time>2022-04-05T13:20:11Z</time>
      </trkpt>
      <trkpt lat="44.86794" lon="0.37222">
        <ele>62.1</ele>
        <time>2022-04-05T13:20:12Z</time>
      </trkpt>
      <trkpt lat="44.86795" lon="0.37219">
        <ele>62.2</ele>
        <time>2022-04-05T13:20:14Z</time>
      </trkpt>
      <trkpt lat="44.86795" lon="0.37218">
        <ele>62.2</ele>
        <time>2022-04-05T13:20:15Z</time>
      </trkpt>
      <trkpt lat="44.86796" lon="0.37216">
        <ele>62.2</ele>
        <time>2022-04-05T13:20:16Z</time>
      </trkpt>
      <trkpt lat="44.86796" lon="0.37215">
        <ele>62.3</ele>
        <time>2022-04-05T13:20:17Z</time>
      </trkpt>
      <trkpt lat="44.86797" lon="0.37213">
        <ele>62.3</ele>
        <time>2022-04-05T13:20:18Z</time>
      </trkpt>
      <trkpt lat="44.86798" lon="0.3721">
        <ele>62.3</ele>
        <time>2022-04-05T13:20:19Z</time>
      </trkpt>
      <trkpt lat="44.86798" lon="0.37209">
        <ele>62.4</ele>
        <time>2022-04-05T13:20:20Z</time>
      </trkpt>
      <trkpt lat="44.86798" lon="0.37209">
        <ele>62.4</ele>
        <time>2022-04-05T13:20:21Z</time>
      </trkpt>
      <trkpt lat="44.86799" lon="0.37207">
        <ele>62.4</ele>
        <time>2022-04-05T13:20:22Z</time>
      </trkpt>
      <trkpt lat="44.868" lon="0.37205">
        <ele>62.5</ele>
        <time>2022-04-05T13:20:24Z</time>
      </trkpt>
      <trkpt lat="44.868" lon="0.37203">
        <ele>62.5</ele>
        <time>2022-04-05T13:20:25Z</time>
      </trkpt>
      <trkpt lat="44.868" lon="0.37202">
        <ele>62.5</ele>
        <time>2022-04-05T13:20:26Z</time>
      </trkpt>
      <trkpt lat="44.868" lon="0.37201">
        <ele>62.5</ele>
        <time>2022-04-05T13:20:27Z</time>
      </trkpt>
      <trkpt lat="44.86801" lon="0.37199">
        <ele>62.6</ele>
        <time>2022-04-05T13:20:28Z</time>
      </trkpt>
      <trkpt lat="44.86802" lon="0.37197">
        <ele>62.6</ele>
        <time>2022-04-05T13:20:29Z</time>
      </trkpt>
      <trkpt lat="44.86802" lon="0.37197">
        <ele>62.6</ele>
        <time>2022-04-05T13:20:30Z</time>
      </trkpt>
      <trkpt lat="44.86803" lon="0.37196">
        <ele>62.6</ele>
        <time>2022-04-05T13:20:31Z</time>
      </trkpt>
      <trkpt lat="44.86803" lon="0.37194">
        <ele>62.6</ele>
        <time>2022-04-05T13:20:32Z</time>
      </trkpt>
      <trkpt lat="44.86804" lon="0.37192">
        <ele>62.6</ele>
        <time>2022-04-05T13:20:34Z</time>
      </trkpt>
      <trkpt lat="44.86804" lon="0.37191">
        <ele>62.6</ele>
        <time>2022-04-05T13:20:35Z</time>
      </trkpt>
      <trkpt lat="44.86805" lon="0.37189">
        <ele>62.6</ele>
        <time>2022-04-05T13:20:36Z</time>
      </trkpt>
      <trkpt lat="44.86805" lon="0.37188">
        <ele>62.6</ele>
        <time>2022-04-05T13:20:37Z</time>
      </trkpt>
      <trkpt lat="44.86804" lon="0.37187">
        <ele>62.6</ele>
        <time>2022-04-05T13:20:38Z</time>
      </trkpt>
      <trkpt lat="44.86804" lon="0.37185">
        <ele>62.6</ele>
        <time>2022-04-05T13:20:39Z</time>
      </trkpt>
      <trkpt lat="44.86803" lon="0.37185">
        <ele>62.6</ele>
        <time>2022-04-05T13:20:40Z</time>
      </trkpt>
      <trkpt lat="44.86803" lon="0.37185">
        <ele>62.6</ele>
        <time>2022-04-05T13:20:41Z</time>
      </trkpt>
      <trkpt lat="44.86802" lon="0.37186">
        <ele>62.6</ele>
        <time>2022-04-05T13:20:42Z</time>
      </trkpt>
      <trkpt lat="44.86802" lon="0.37186">
        <ele>62.6</ele>
        <time>2022-04-05T13:20:43Z</time>
      </trkpt>
      <trkpt lat="44.86802" lon="0.37186">
        <ele>62.6</ele>
        <time>2022-04-05T13:20:44Z</time>
      </trkpt>
      <trkpt lat="44.86801" lon="0.37186">
        <ele>62.6</ele>
        <time>2022-04-05T13:20:45Z</time>
      </trkpt>
      <trkpt lat="44.86801" lon="0.37186">
        <ele>62.6</ele>
        <time>2022-04-05T13:20:46Z</time>
      </trkpt>
      <trkpt lat="44.868" lon="0.37186">
        <ele>62.6</ele>
        <time>2022-04-05T13:20:47Z</time>
      </trkpt>
      <trkpt lat="44.868" lon="0.37186">
        <ele>62.6</ele>
        <time>2022-04-05T13:20:48Z</time>
      </trkpt>
      <trkpt lat="44.868" lon="0.37187">
        <ele>62.6</ele>
        <time>2022-04-05T13:20:49Z</time>
      </trkpt>
      <trkpt lat="44.86801" lon="0.37187">
        <ele>62.6</ele>
        <time>2022-04-05T13:20:50Z</time>
      </trkpt>
      <trkpt lat="44.86801" lon="0.37188">
        <ele>62.6</ele>
        <time>2022-04-05T13:20:51Z</time>
      </trkpt>
      <trkpt lat="44.86802" lon="0.37188">
        <ele>62.6</ele>
        <time>2022-04-05T13:20:52Z</time>
      </trkpt>
      <trkpt lat="44.86803" lon="0.37188">
        <ele>62.6</ele>
        <time>2022-04-05T13:20:53Z</time>
      </trkpt>
      <trkpt lat="44.86803" lon="0.37191">
        <ele>62.6</ele>
        <time>2022-04-05T13:20:55Z</time>
      </trkpt>
      <trkpt lat="44.86805" lon="0.3719">
        <ele>62.6</ele>
        <time>2022-04-05T13:20:56Z</time>
      </trkpt>
      <trkpt lat="44.86806" lon="0.37189">
        <ele>62.6</ele>
        <time>2022-04-05T13:20:57Z</time>
      </trkpt>
      <trkpt lat="44.86809" lon="0.37186">
        <ele>62.6</ele>
        <time>2022-04-05T13:20:58Z</time>
      </trkpt>
      <trkpt lat="44.8681" lon="0.37185">
        <ele>62.6</ele>
        <time>2022-04-05T13:20:59Z</time>
      </trkpt>
      <trkpt lat="44.8681" lon="0.37184">
        <ele>62.6</ele>
        <time>2022-04-05T13:21:00Z</time>
      </trkpt>
      <trkpt lat="44.86811" lon="0.37183">
        <ele>62.6</ele>
        <time>2022-04-05T13:21:01Z</time>
      </trkpt>
      <trkpt lat="44.86813" lon="0.37182">
        <ele>62.6</ele>
        <time>2022-04-05T13:21:02Z</time>
      </trkpt>
      <trkpt lat="44.86814" lon="0.37181">
        <ele>62.6</ele>
        <time>2022-04-05T13:21:03Z</time>
      </trkpt>
      <trkpt lat="44.86815" lon="0.37179">
        <ele>62.6</ele>
        <time>2022-04-05T13:21:04Z</time>
      </trkpt>
      <trkpt lat="44.86816" lon="0.37178">
        <ele>62.6</ele>
        <time>2022-04-05T13:21:05Z</time>
      </trkpt>
      <trkpt lat="44.86817" lon="0.37177">
        <ele>62.6</ele>
        <time>2022-04-05T13:21:06Z</time>
      </trkpt>
      <trkpt lat="44.86818" lon="0.37176">
        <ele>62.6</ele>
        <time>2022-04-05T13:21:08Z</time>
      </trkpt>
      <trkpt lat="44.8682" lon="0.37174">
        <ele>62.6</ele>
        <time>2022-04-05T13:21:09Z</time>
      </trkpt>
      <trkpt lat="44.86821" lon="0.37173">
        <ele>62.6</ele>
        <time>2022-04-05T13:21:10Z</time>
      </trkpt>
      <trkpt lat="44.86822" lon="0.3717">
        <ele>62.6</ele>
        <time>2022-04-05T13:21:11Z</time>
      </trkpt>
      <trkpt lat="44.86822" lon="0.37169">
        <ele>62.6</ele>
        <time>2022-04-05T13:21:12Z</time>
      </trkpt>
      <trkpt lat="44.86822" lon="0.37168">
        <ele>62.6</ele>
        <time>2022-04-05T13:21:13Z</time>
      </trkpt>
      <trkpt lat="44.86823" lon="0.37166">
        <ele>62.6</ele>
        <time>2022-04-05T13:21:14Z</time>
      </trkpt>
      <trkpt lat="44.86824" lon="0.37166">
        <ele>62.6</ele>
        <time>2022-04-05T13:21:15Z</time>
      </trkpt>
      <trkpt lat="44.86825" lon="0.37165">
        <ele>62.6</ele>
        <time>2022-04-05T13:21:17Z</time>
      </trkpt>
      <trkpt lat="44.86826" lon="0.37164">
        <ele>62.6</ele>
        <time>2022-04-05T13:21:18Z</time>
      </trkpt>
      <trkpt lat="44.86826" lon="0.3716">
        <ele>62.6</ele>
        <time>2022-04-05T13:21:20Z</time>
      </trkpt>
      <trkpt lat="44.86825" lon="0.3716">
        <ele>62.6</ele>
        <time>2022-04-05T13:21:21Z</time>
      </trkpt>
      <trkpt lat="44.86825" lon="0.3716">
        <ele>62.6</ele>
        <time>2022-04-05T13:21:22Z</time>
      </trkpt>
      <trkpt lat="44.86825" lon="0.37161">
        <ele>62.6</ele>
        <time>2022-04-05T13:21:23Z</time>
      </trkpt>
      <trkpt lat="44.86825" lon="0.37161">
        <ele>62.6</ele>
        <time>2022-04-05T13:21:24Z</time>
      </trkpt>
      <trkpt lat="44.86825" lon="0.37161">
        <ele>62.6</ele>
        <time>2022-04-05T13:21:25Z</time>
      </trkpt>
      <trkpt lat="44.86825" lon="0.37161">
        <ele>62.6</ele>
        <time>2022-04-05T13:21:26Z</time>
      </trkpt>
      <trkpt lat="44.86825" lon="0.37161">
        <ele>62.6</ele>
        <time>2022-04-05T13:21:27Z</time>
      </trkpt>
      <trkpt lat="44.86825" lon="0.37161">
        <ele>62.6</ele>
        <time>2022-04-05T13:21:28Z</time>
      </trkpt>
      <trkpt lat="44.86825" lon="0.37161">
        <ele>62.6</ele>
        <time>2022-04-05T13:21:29Z</time>
      </trkpt>
      <trkpt lat="44.86826" lon="0.37161">
        <ele>62.6</ele>
        <time>2022-04-05T13:21:30Z</time>
      </trkpt>
      <trkpt lat="44.86826" lon="0.37161">
        <ele>62.6</ele>
        <time>2022-04-05T13:21:31Z</time>
      </trkpt>
      <trkpt lat="44.86826" lon="0.37161">
        <ele>62.6</ele>
        <time>2022-04-05T13:21:32Z</time>
      </trkpt>
      <trkpt lat="44.86826" lon="0.3716">
        <ele>62.6</ele>
        <time>2022-04-05T13:21:33Z</time>
      </trkpt>
      <trkpt lat="44.86828" lon="0.37159">
        <ele>62.6</ele>
        <time>2022-04-05T13:21:34Z</time>
      </trkpt>
      <trkpt lat="44.86828" lon="0.37158">
        <ele>62.6</ele>
        <time>2022-04-05T13:21:35Z</time>
      </trkpt>
      <trkpt lat="44.86829" lon="0.37158">
        <ele>62.6</ele>
        <time>2022-04-05T13:21:36Z</time>
      </trkpt>
      <trkpt lat="44.86832" lon="0.37158">
        <ele>62.6</ele>
        <time>2022-04-05T13:21:38Z</time>
      </trkpt>
      <trkpt lat="44.86833" lon="0.37158">
        <ele>62.6</ele>
        <time>2022-04-05T13:21:39Z</time>
      </trkpt>
      <trkpt lat="44.86834" lon="0.37158">
        <ele>62.6</ele>
        <time>2022-04-05T13:21:40Z</time>
      </trkpt>
      <trkpt lat="44.86835" lon="0.37158">
        <ele>62.6</ele>
        <time>2022-04-05T13:21:41Z</time>
      </trkpt>
      <trkpt lat="44.86836" lon="0.37158">
        <ele>62.6</ele>
        <time>2022-04-05T13:21:43Z</time>
      </trkpt>
      <trkpt lat="44.86838" lon="0.37158">
        <ele>62.6</ele>
        <time>2022-04-05T13:21:44Z</time>
      </trkpt>
      <trkpt lat="44.86839" lon="0.37158">
        <ele>62.6</ele>
        <time>2022-04-05T13:21:45Z</time>
      </trkpt>
      <trkpt lat="44.8684" lon="0.37158">
        <ele>62.6</ele>
        <time>2022-04-05T13:21:46Z</time>
      </trkpt>
      <trkpt lat="44.86841" lon="0.37158">
        <ele>62.6</ele>
        <time>2022-04-05T13:21:47Z</time>
      </trkpt>
      <trkpt lat="44.86842" lon="0.37158">
        <ele>62.6</ele>
        <time>2022-04-05T13:21:48Z</time>
      </trkpt>
      <trkpt lat="44.86845" lon="0.37159">
        <ele>62.6</ele>
        <time>2022-04-05T13:21:49Z</time>
      </trkpt>
      <trkpt lat="44.86845" lon="0.37159">
        <ele>62.6</ele>
        <time>2022-04-05T13:21:50Z</time>
      </trkpt>
      <trkpt lat="44.86845" lon="0.37159">
        <ele>62.6</ele>
        <time>2022-04-05T13:21:51Z</time>
      </trkpt>
      <trkpt lat="44.86846" lon="0.37159">
        <ele>62.6</ele>
        <time>2022-04-05T13:21:52Z</time>
      </trkpt>
      <trkpt lat="44.86847" lon="0.3716">
        <ele>62.6</ele>
        <time>2022-04-05T13:21:53Z</time>
      </trkpt>
      <trkpt lat="44.86847" lon="0.3716">
        <ele>62.6</ele>
        <time>2022-04-05T13:21:55Z</time>
      </trkpt>
      <trkpt lat="44.86848" lon="0.37161">
        <ele>62.6</ele>
        <time>2022-04-05T13:21:56Z</time>
      </trkpt>
      <trkpt lat="44.86848" lon="0.37161">
        <ele>62.6</ele>
        <time>2022-04-05T13:21:57Z</time>
      </trkpt>
      <trkpt lat="44.86848" lon="0.37161">
        <ele>62.6</ele>
        <time>2022-04-05T13:21:58Z</time>
      </trkpt>
      <trkpt lat="44.86847" lon="0.3716">
        <ele>62.6</ele>
        <time>2022-04-05T13:22:00Z</time>
      </trkpt>
      <trkpt lat="44.86847" lon="0.3716">
        <ele>62.6</ele>
        <time>2022-04-05T13:22:01Z</time>
      </trkpt>
      <trkpt lat="44.86848" lon="0.3716">
        <ele>62.6</ele>
        <time>2022-04-05T13:22:02Z</time>
      </trkpt>
      <trkpt lat="44.86848" lon="0.3716">
        <ele>62.6</ele>
        <time>2022-04-05T13:22:03Z</time>
      </trkpt>
      <trkpt lat="44.86848" lon="0.37159">
        <ele>62.6</ele>
        <time>2022-04-05T13:22:05Z</time>
      </trkpt>
      <trkpt lat="44.86848" lon="0.37159">
        <ele>62.6</ele>
        <time>2022-04-05T13:22:06Z</time>
      </trkpt>
      <trkpt lat="44.86848" lon="0.37159">
        <ele>62.6</ele>
        <time>2022-04-05T13:22:07Z</time>
      </trkpt>
      <trkpt lat="44.86848" lon="0.37159">
        <ele>62.6</ele>
        <time>2022-04-05T13:22:08Z</time>
      </trkpt>
      <trkpt lat="44.86848" lon="0.37159">
        <ele>62.6</ele>
        <time>2022-04-05T13:22:10Z</time>
      </trkpt>
      <trkpt lat="44.86848" lon="0.37159">
        <ele>62.6</ele>
        <time>2022-04-05T13:22:11Z</time>
      </trkpt>
      <trkpt lat="44.86847" lon="0.37159">
        <ele>62.6</ele>
        <time>2022-04-05T13:22:12Z</time>
      </trkpt>
      <trkpt lat="44.86847" lon="0.37159">
        <ele>62.6</ele>
        <time>2022-04-05T13:22:13Z</time>
      </trkpt>
      <trkpt lat="44.86847" lon="0.37159">
        <ele>62.6</ele>
        <time>2022-04-05T13:22:14Z</time>
      </trkpt>
      <trkpt lat="44.86847" lon="0.37159">
        <ele>62.6</ele>
        <time>2022-04-05T13:22:15Z</time>
      </trkpt>
      <trkpt lat="44.86847" lon="0.37159">
        <ele>62.6</ele>
        <time>2022-04-05T13:22:16Z</time>
      </trkpt>
      <trkpt lat="44.86847" lon="0.37159">
        <ele>62.6</ele>
        <time>2022-04-05T13:22:17Z</time>
      </trkpt>
      <trkpt lat="44.86847" lon="0.37159">
        <ele>62.6</ele>
        <time>2022-04-05T13:22:18Z</time>
      </trkpt>
      <trkpt lat="44.86847" lon="0.3716">
        <ele>62.6</ele>
        <time>2022-04-05T13:22:19Z</time>
      </trkpt>
      <trkpt lat="44.86846" lon="0.3716">
        <ele>62.6</ele>
        <time>2022-04-05T13:22:20Z</time>
      </trkpt>
      <trkpt lat="44.86846" lon="0.3716">
        <ele>62.6</ele>
        <time>2022-04-05T13:22:21Z</time>
      </trkpt>
      <trkpt lat="44.86846" lon="0.3716">
        <ele>62.6</ele>
        <time>2022-04-05T13:22:22Z</time>
      </trkpt>
      <trkpt lat="44.86846" lon="0.3716">
        <ele>62.6</ele>
        <time>2022-04-05T13:22:23Z</time>
      </trkpt>
      <trkpt lat="44.86846" lon="0.3716">
        <ele>62.6</ele>
        <time>2022-04-05T13:22:24Z</time>
      </trkpt>
      <trkpt lat="44.86846" lon="0.3716">
        <ele>62.6</ele>
        <time>2022-04-05T13:22:25Z</time>
      </trkpt>
      <trkpt lat="44.86846" lon="0.3716">
        <ele>62.6</ele>
        <time>2022-04-05T13:22:26Z</time>
      </trkpt>
      <trkpt lat="44.86846" lon="0.3716">
        <ele>62.6</ele>
        <time>2022-04-05T13:22:27Z</time>
      </trkpt>
      <trkpt lat="44.86846" lon="0.3716">
        <ele>62.6</ele>
        <time>2022-04-05T13:22:28Z</time>
      </trkpt>
      <trkpt lat="44.86846" lon="0.3716">
        <ele>62.6</ele>
        <time>2022-04-05T13:22:29Z</time>
      </trkpt>
      <trkpt lat="44.86846" lon="0.3716">
        <ele>62.6</ele>
        <time>2022-04-05T13:22:30Z</time>
      </trkpt>
      <trkpt lat="44.86846" lon="0.3716">
        <ele>62.6</ele>
        <time>2022-04-05T13:22:31Z</time>
      </trkpt>
      <trkpt lat="44.86846" lon="0.3716">
        <ele>62.6</ele>
        <time>2022-04-05T13:22:32Z</time>
      </trkpt>
    </trkseg>
  </trk>
</gpx>